<?xml version='1.0' encoding='UTF-8'?><gpx version="1.1" creator="JPX - https://github.com/jenetics/jpx" xmlns="http://www.topografix.com/GPX/1/1"><trk><trkseg><trkpt lat="42.9504434" lon="12.0043382"><ele>492.0</ele><time>2026-04-19T07:22:08.055Z</time></trkpt><trkpt lat="42.9503771" lon="12.0043845"><ele>492.0</ele><time>2026-04-19T07:22:09.106Z</time></trkpt><trkpt lat="42.9502959" lon="12.0044548"><ele>492.0</ele><time>2026-04-19T07:22:10.096Z</time></trkpt><trkpt lat="42.9501796" lon="12.0045526"><ele>492.0</ele><time>2026-04-19T07:22:11.091Z</time></trkpt><trkpt lat="42.9500011" lon="12.0046632"><ele>490.0</ele><time>2026-04-19T07:22:12.106Z</time></trkpt><trkpt lat="42.9497569" lon="12.004744"><ele>488.0</ele><time>2026-04-19T07:22:13.093Z</time></trkpt><trkpt lat="42.9495206" lon="12.0049227"><ele>490.5</ele><time>2026-04-19T07:22:14.111Z</time></trkpt><trkpt lat="42.9492945" lon="12.0051078"><ele>493.0</ele><time>2026-04-19T07:22:15.091Z</time></trkpt><trkpt lat="42.9490156" lon="12.00531"><ele>493.0</ele><time>2026-04-19T07:22:16.09Z</time></trkpt><trkpt lat="42.9487448" lon="12.0055119"><ele>493.0</ele><time>2026-04-19T07:22:17.099Z</time></trkpt><trkpt lat="42.9485266" lon="12.005698"><ele>494.33333333333337</ele><time>2026-04-19T07:22:18.095Z</time></trkpt><trkpt lat="42.948339" lon="12.0058644"><ele>495.66666666666663</ele><time>2026-04-19T07:22:19.095Z</time></trkpt><trkpt lat="42.9481547" lon="12.0059743"><ele>497.0</ele><time>2026-04-19T07:22:20.106Z</time></trkpt><trkpt lat="42.947971" lon="12.0060543"><ele>497.0</ele><time>2026-04-19T07:22:21.092Z</time></trkpt><trkpt lat="42.9477846" lon="12.0060325"><ele>497.0</ele><time>2026-04-19T07:22:22.091Z</time></trkpt><trkpt lat="42.9476133" lon="12.0059885"><ele>497.0</ele><time>2026-04-19T07:22:23.113Z</time></trkpt><trkpt lat="42.9474428" lon="12.0059386"><ele>495.75</ele><time>2026-04-19T07:22:24.099Z</time></trkpt><trkpt lat="42.9472971" lon="12.0059455"><ele>494.5</ele><time>2026-04-19T07:22:25.113Z</time></trkpt><trkpt lat="42.9471924" lon="12.00604"><ele>493.25</ele><time>2026-04-19T07:22:26.094Z</time></trkpt><trkpt lat="42.9471248" lon="12.0061623"><ele>492.0</ele><time>2026-04-19T07:22:27.102Z</time></trkpt><trkpt lat="42.9470907" lon="12.0063564"><ele>492.0</ele><time>2026-04-19T07:22:28.103Z</time></trkpt><trkpt lat="42.9470802" lon="12.0065681"><ele>492.0</ele><time>2026-04-19T07:22:29.091Z</time></trkpt><trkpt lat="42.9470833" lon="12.0067998"><ele>492.0</ele><time>2026-04-19T07:22:30.093Z</time></trkpt><trkpt lat="42.9470849" lon="12.0070438"><ele>492.0</ele><time>2026-04-19T07:22:31.096Z</time></trkpt><trkpt lat="42.9470683" lon="12.0072745"><ele>492.0</ele><time>2026-04-19T07:22:32.099Z</time></trkpt><trkpt lat="42.9470239" lon="12.0074871"><ele>492.0</ele><time>2026-04-19T07:22:33.089Z</time></trkpt><trkpt lat="42.946936" lon="12.0076533"><ele>492.0</ele><time>2026-04-19T07:22:34.09Z</time></trkpt><trkpt lat="42.9468056" lon="12.0077658"><ele>492.0</ele><time>2026-04-19T07:22:35.103Z</time></trkpt><trkpt lat="42.9466451" lon="12.0078171"><ele>492.0</ele><time>2026-04-19T07:22:36.102Z</time></trkpt><trkpt lat="42.9464652" lon="12.0078185"><ele>490.0</ele><time>2026-04-19T07:22:37.105Z</time></trkpt><trkpt lat="42.946271" lon="12.0078165"><ele>488.0</ele><time>2026-04-19T07:22:38.117Z</time></trkpt><trkpt lat="42.9460771" lon="12.00786"><ele>486.0</ele><time>2026-04-19T07:22:39.099Z</time></trkpt><trkpt lat="42.9459008" lon="12.0079482"><ele>487.0</ele><time>2026-04-19T07:22:40.102Z</time></trkpt><trkpt lat="42.945759" lon="12.0080796"><ele>488.0</ele><time>2026-04-19T07:22:41.114Z</time></trkpt><trkpt lat="42.9456161" lon="12.0082428"><ele>489.0</ele><time>2026-04-19T07:22:42.105Z</time></trkpt><trkpt lat="42.9455345" lon="12.0084757"><ele>491.66666666666663</ele><time>2026-04-19T07:22:43.088Z</time></trkpt><trkpt lat="42.9454762" lon="12.0087385"><ele>494.3333333333333</ele><time>2026-04-19T07:22:44.124Z</time></trkpt><trkpt lat="42.9453941" lon="12.0090139"><ele>497.0</ele><time>2026-04-19T07:22:45.099Z</time></trkpt><trkpt lat="42.9452702" lon="12.0092562"><ele>500.66666666666663</ele><time>2026-04-19T07:22:46.102Z</time></trkpt><trkpt lat="42.9451327" lon="12.0094611"><ele>504.33333333333337</ele><time>2026-04-19T07:22:47.102Z</time></trkpt><trkpt lat="42.9449998" lon="12.0096512"><ele>508.0</ele><time>2026-04-19T07:22:48.102Z</time></trkpt><trkpt lat="42.9448763" lon="12.0098415"><ele>502.33333333333337</ele><time>2026-04-19T07:22:49.111Z</time></trkpt><trkpt lat="42.9447543" lon="12.0100363"><ele>496.66666666666663</ele><time>2026-04-19T07:22:50.106Z</time></trkpt><trkpt lat="42.9446231" lon="12.0102253"><ele>491.0</ele><time>2026-04-19T07:22:51.108Z</time></trkpt><trkpt lat="42.9444631" lon="12.01038"><ele>491.0</ele><time>2026-04-19T07:22:52.104Z</time></trkpt><trkpt lat="42.9442945" lon="12.0105213"><ele>491.0</ele><time>2026-04-19T07:22:53.095Z</time></trkpt><trkpt lat="42.9441194" lon="12.0106523"><ele>491.0</ele><time>2026-04-19T07:22:54.101Z</time></trkpt><trkpt lat="42.9439394" lon="12.0107902"><ele>491.0</ele><time>2026-04-19T07:22:55.106Z</time></trkpt><trkpt lat="42.9437714" lon="12.0109464"><ele>491.0</ele><time>2026-04-19T07:22:56.119Z</time></trkpt><trkpt lat="42.9436215" lon="12.0111335"><ele>491.0</ele><time>2026-04-19T07:22:57.121Z</time></trkpt><trkpt lat="42.9434808" lon="12.0113365"><ele>489.66666666666663</ele><time>2026-04-19T07:22:58.121Z</time></trkpt><trkpt lat="42.9433508" lon="12.0115579"><ele>488.33333333333337</ele><time>2026-04-19T07:22:59.108Z</time></trkpt><trkpt lat="42.9432282" lon="12.0117889"><ele>487.0</ele><time>2026-04-19T07:23:00.095Z</time></trkpt><trkpt lat="42.9431154" lon="12.0120296"><ele>489.6666666666667</ele><time>2026-04-19T07:23:01.12Z</time></trkpt><trkpt lat="42.9430147" lon="12.0122796"><ele>492.33333333333337</ele><time>2026-04-19T07:23:02.101Z</time></trkpt><trkpt lat="42.94293" lon="12.0125409"><ele>495.0</ele><time>2026-04-19T07:23:03.114Z</time></trkpt><trkpt lat="42.9428597" lon="12.0128089"><ele>499.0</ele><time>2026-04-19T07:23:04.117Z</time></trkpt><trkpt lat="42.9428063" lon="12.0130829"><ele>503.0</ele><time>2026-04-19T07:23:05.105Z</time></trkpt><trkpt lat="42.9427655" lon="12.0133545"><ele>507.0</ele><time>2026-04-19T07:23:06.111Z</time></trkpt><trkpt lat="42.9427183" lon="12.0136316"><ele>507.33333333333337</ele><time>2026-04-19T07:23:07.098Z</time></trkpt><trkpt lat="42.942645" lon="12.0139012"><ele>507.6666666666667</ele><time>2026-04-19T07:23:08.113Z</time></trkpt><trkpt lat="42.9425681" lon="12.0141826"><ele>508.0</ele><time>2026-04-19T07:23:09.098Z</time></trkpt><trkpt lat="42.9424867" lon="12.0144645"><ele>508.6666666666667</ele><time>2026-04-19T07:23:10.102Z</time></trkpt><trkpt lat="42.9423913" lon="12.0147363"><ele>509.33333333333337</ele><time>2026-04-19T07:23:11.116Z</time></trkpt><trkpt lat="42.9422573" lon="12.0149781"><ele>510.0</ele><time>2026-04-19T07:23:12.107Z</time></trkpt><trkpt lat="42.9421021" lon="12.0151934"><ele>510.0</ele><time>2026-04-19T07:23:13.11Z</time></trkpt><trkpt lat="42.9419054" lon="12.0153795"><ele>510.0</ele><time>2026-04-19T07:23:14.09Z</time></trkpt><trkpt lat="42.9417206" lon="12.0155945"><ele>510.0</ele><time>2026-04-19T07:23:15.094Z</time></trkpt><trkpt lat="42.9415537" lon="12.0158374"><ele>510.0</ele><time>2026-04-19T07:23:16.089Z</time></trkpt><trkpt lat="42.941402" lon="12.016105"><ele>510.0</ele><time>2026-04-19T07:23:17.093Z</time></trkpt><trkpt lat="42.9412787" lon="12.0164059"><ele>510.0</ele><time>2026-04-19T07:23:18.096Z</time></trkpt><trkpt lat="42.941165" lon="12.0167081"><ele>510.0</ele><time>2026-04-19T07:23:19.105Z</time></trkpt><trkpt lat="42.941033" lon="12.0170021"><ele>510.0</ele><time>2026-04-19T07:23:20.111Z</time></trkpt><trkpt lat="42.9408756" lon="12.0172725"><ele>508.5</ele><time>2026-04-19T07:23:21.111Z</time></trkpt><trkpt lat="42.9407001" lon="12.0175252"><ele>507.0</ele><time>2026-04-19T07:23:22.108Z</time></trkpt><trkpt lat="42.9405062" lon="12.017761"><ele>507.0</ele><time>2026-04-19T07:23:23.092Z</time></trkpt><trkpt lat="42.9403047" lon="12.0179946"><ele>507.0</ele><time>2026-04-19T07:23:24.101Z</time></trkpt><trkpt lat="42.9401027" lon="12.0182344"><ele>507.0</ele><time>2026-04-19T07:23:25.116Z</time></trkpt><trkpt lat="42.9399114" lon="12.0184941"><ele>507.0</ele><time>2026-04-19T07:23:26.116Z</time></trkpt><trkpt lat="42.9397293" lon="12.0187656"><ele>507.0</ele><time>2026-04-19T07:23:27.098Z</time></trkpt><trkpt lat="42.9395498" lon="12.0190359"><ele>507.0</ele><time>2026-04-19T07:23:28.123Z</time></trkpt><trkpt lat="42.9393714" lon="12.0192826"><ele>506.5</ele><time>2026-04-19T07:23:29.098Z</time></trkpt><trkpt lat="42.9391997" lon="12.019511"><ele>506.0</ele><time>2026-04-19T07:23:30.087Z</time></trkpt><trkpt lat="42.9390346" lon="12.0197345"><ele>504.0</ele><time>2026-04-19T07:23:31.1Z</time></trkpt><trkpt lat="42.9389293" lon="12.0199974"><ele>502.0</ele><time>2026-04-19T07:23:32.102Z</time></trkpt><trkpt lat="42.9388297" lon="12.0202522"><ele>500.0</ele><time>2026-04-19T07:23:33.108Z</time></trkpt><trkpt lat="42.9386967" lon="12.0204798"><ele>500.0</ele><time>2026-04-19T07:23:34.093Z</time></trkpt><trkpt lat="42.9385196" lon="12.0206469"><ele>500.0</ele><time>2026-04-19T07:23:35.092Z</time></trkpt><trkpt lat="42.9383274" lon="12.0207711"><ele>500.0</ele><time>2026-04-19T07:23:36.122Z</time></trkpt><trkpt lat="42.9381145" lon="12.0209053"><ele>498.5</ele><time>2026-04-19T07:23:37.097Z</time></trkpt><trkpt lat="42.9379231" lon="12.0210907"><ele>497.0</ele><time>2026-04-19T07:23:38.103Z</time></trkpt><trkpt lat="42.9377401" lon="12.0213147"><ele>497.0</ele><time>2026-04-19T07:23:39.088Z</time></trkpt><trkpt lat="42.9375607" lon="12.0215461"><ele>497.0</ele><time>2026-04-19T07:23:40.108Z</time></trkpt><trkpt lat="42.9373652" lon="12.0217509"><ele>496.0</ele><time>2026-04-19T07:23:41.086Z</time></trkpt><trkpt lat="42.9371512" lon="12.0219103"><ele>495.0</ele><time>2026-04-19T07:23:42.095Z</time></trkpt><trkpt lat="42.9369397" lon="12.0220584"><ele>495.0</ele><time>2026-04-19T07:23:43.095Z</time></trkpt><trkpt lat="42.9367495" lon="12.0222307"><ele>495.0</ele><time>2026-04-19T07:23:44.116Z</time></trkpt><trkpt lat="42.9365913" lon="12.0224555"><ele>500.5</ele><time>2026-04-19T07:23:45.096Z</time></trkpt><trkpt lat="42.9364589" lon="12.0227151"><ele>506.0</ele><time>2026-04-19T07:23:46.112Z</time></trkpt><trkpt lat="42.9363533" lon="12.0230042"><ele>506.0</ele><time>2026-04-19T07:23:47.119Z</time></trkpt><trkpt lat="42.9362769" lon="12.0233034"><ele>506.0</ele><time>2026-04-19T07:23:48.09Z</time></trkpt><trkpt lat="42.9362381" lon="12.0235922"><ele>506.0</ele><time>2026-04-19T07:23:49.102Z</time></trkpt><trkpt lat="42.9362161" lon="12.0238635"><ele>510.3333333333333</ele><time>2026-04-19T07:23:50.115Z</time></trkpt><trkpt lat="42.9362126" lon="12.0241342"><ele>514.6666666666666</ele><time>2026-04-19T07:23:51.108Z</time></trkpt><trkpt lat="42.9361695" lon="12.024386"><ele>519.0</ele><time>2026-04-19T07:23:52.098Z</time></trkpt><trkpt lat="42.9360935" lon="12.0246285"><ele>519.0</ele><time>2026-04-19T07:23:53.097Z</time></trkpt><trkpt lat="42.9359962" lon="12.0248735"><ele>519.0</ele><time>2026-04-19T07:23:54.107Z</time></trkpt><trkpt lat="42.93588" lon="12.0251143"><ele>519.0</ele><time>2026-04-19T07:23:55.092Z</time></trkpt><trkpt lat="42.9357539" lon="12.0253568"><ele>518.5</ele><time>2026-04-19T07:23:56.1Z</time></trkpt><trkpt lat="42.9356024" lon="12.0255852"><ele>518.0</ele><time>2026-04-19T07:23:57.105Z</time></trkpt><trkpt lat="42.9354332" lon="12.025815"><ele>519.0</ele><time>2026-04-19T07:23:58.11Z</time></trkpt><trkpt lat="42.9352589" lon="12.0260449"><ele>520.0</ele><time>2026-04-19T07:23:59.117Z</time></trkpt><trkpt lat="42.9350909" lon="12.0262707"><ele>519.3333333333334</ele><time>2026-04-19T07:24:00.096Z</time></trkpt><trkpt lat="42.934926" lon="12.0264876"><ele>518.6666666666666</ele><time>2026-04-19T07:24:01.108Z</time></trkpt><trkpt lat="42.9348084" lon="12.0267358"><ele>518.0</ele><time>2026-04-19T07:24:02.098Z</time></trkpt><trkpt lat="42.9347291" lon="12.0270185"><ele>518.0</ele><time>2026-04-19T07:24:03.125Z</time></trkpt><trkpt lat="42.934678" lon="12.0273141"><ele>518.0</ele><time>2026-04-19T07:24:04.107Z</time></trkpt><trkpt lat="42.934635" lon="12.0275948"><ele>518.0</ele><time>2026-04-19T07:24:05.12Z</time></trkpt><trkpt lat="42.9345775" lon="12.0278513"><ele>517.6666666666666</ele><time>2026-04-19T07:24:06.107Z</time></trkpt><trkpt lat="42.9344924" lon="12.0280704"><ele>517.3333333333334</ele><time>2026-04-19T07:24:07.109Z</time></trkpt><trkpt lat="42.934388" lon="12.0282512"><ele>517.0</ele><time>2026-04-19T07:24:08.11Z</time></trkpt><trkpt lat="42.9342389" lon="12.0283574"><ele>515.3333333333334</ele><time>2026-04-19T07:24:09.096Z</time></trkpt><trkpt lat="42.9340635" lon="12.0284691"><ele>513.6666666666666</ele><time>2026-04-19T07:24:10.11Z</time></trkpt><trkpt lat="42.9339248" lon="12.0286372"><ele>512.0</ele><time>2026-04-19T07:24:11.104Z</time></trkpt><trkpt lat="42.9338196" lon="12.0288638"><ele>512.0</ele><time>2026-04-19T07:24:12.118Z</time></trkpt><trkpt lat="42.93372" lon="12.0291192"><ele>512.0</ele><time>2026-04-19T07:24:13.099Z</time></trkpt><trkpt lat="42.9336481" lon="12.0294355"><ele>509.0</ele><time>2026-04-19T07:24:14.122Z</time></trkpt><trkpt lat="42.9335657" lon="12.0297485"><ele>506.0</ele><time>2026-04-19T07:24:15.11Z</time></trkpt><trkpt lat="42.9335065" lon="12.0300704"><ele>502.5</ele><time>2026-04-19T07:24:16.098Z</time></trkpt><trkpt lat="42.9335011" lon="12.0304187"><ele>499.0</ele><time>2026-04-19T07:24:17.104Z</time></trkpt><trkpt lat="42.9335237" lon="12.0307694"><ele>498.5</ele><time>2026-04-19T07:24:18.082Z</time></trkpt><trkpt lat="42.9335476" lon="12.0311262"><ele>498.0</ele><time>2026-04-19T07:24:19.109Z</time></trkpt><trkpt lat="42.9335645" lon="12.0314799"><ele>499.5</ele><time>2026-04-19T07:24:20.103Z</time></trkpt><trkpt lat="42.9335693" lon="12.0318322"><ele>501.0</ele><time>2026-04-19T07:24:21.102Z</time></trkpt><trkpt lat="42.9335688" lon="12.0321731"><ele>501.5</ele><time>2026-04-19T07:24:22.106Z</time></trkpt><trkpt lat="42.9335684" lon="12.0324946"><ele>502.0</ele><time>2026-04-19T07:24:23.102Z</time></trkpt><trkpt lat="42.9335494" lon="12.0327965"><ele>502.0</ele><time>2026-04-19T07:24:24.121Z</time></trkpt><trkpt lat="42.9335269" lon="12.0330819"><ele>502.0</ele><time>2026-04-19T07:24:25.099Z</time></trkpt><trkpt lat="42.933493" lon="12.0333501"><ele>502.0</ele><time>2026-04-19T07:24:26.117Z</time></trkpt><trkpt lat="42.9334348" lon="12.0336025"><ele>502.6666666666667</ele><time>2026-04-19T07:24:27.117Z</time></trkpt><trkpt lat="42.9333378" lon="12.0338359"><ele>503.33333333333337</ele><time>2026-04-19T07:24:28.119Z</time></trkpt><trkpt lat="42.9332319" lon="12.0340564"><ele>504.0</ele><time>2026-04-19T07:24:29.123Z</time></trkpt><trkpt lat="42.9330805" lon="12.03424"><ele>504.0</ele><time>2026-04-19T07:24:30.125Z</time></trkpt><trkpt lat="42.9329152" lon="12.0344213"><ele>504.0</ele><time>2026-04-19T07:24:31.116Z</time></trkpt><trkpt lat="42.9327422" lon="12.0346377"><ele>504.0</ele><time>2026-04-19T07:24:32.104Z</time></trkpt><trkpt lat="42.9325489" lon="12.0348701"><ele>507.0</ele><time>2026-04-19T07:24:33.102Z</time></trkpt><trkpt lat="42.9323669" lon="12.0351149"><ele>510.0</ele><time>2026-04-19T07:24:34.101Z</time></trkpt><trkpt lat="42.932204" lon="12.0353602"><ele>510.0</ele><time>2026-04-19T07:24:35.089Z</time></trkpt><trkpt lat="42.9320903" lon="12.0356225"><ele>510.0</ele><time>2026-04-19T07:24:36.097Z</time></trkpt><trkpt lat="42.9320122" lon="12.0359153"><ele>509.66666666666663</ele><time>2026-04-19T07:24:37.102Z</time></trkpt><trkpt lat="42.9319556" lon="12.0362038"><ele>509.3333333333333</ele><time>2026-04-19T07:24:38.113Z</time></trkpt><trkpt lat="42.9319552" lon="12.0364909"><ele>509.0</ele><time>2026-04-19T07:24:39.098Z</time></trkpt><trkpt lat="42.9319684" lon="12.036732"><ele>508.0</ele><time>2026-04-19T07:24:40.097Z</time></trkpt><trkpt lat="42.9319824" lon="12.0369354"><ele>507.0</ele><time>2026-04-19T07:24:41.118Z</time></trkpt><trkpt lat="42.9319617" lon="12.0371101"><ele>506.0</ele><time>2026-04-19T07:24:42.102Z</time></trkpt><trkpt lat="42.9318914" lon="12.0372412"><ele>505.0</ele><time>2026-04-19T07:24:43.1Z</time></trkpt><trkpt lat="42.9318133" lon="12.0373404"><ele>502.0</ele><time>2026-04-19T07:24:44.102Z</time></trkpt><trkpt lat="42.9316803" lon="12.0373083"><ele>499.0</ele><time>2026-04-19T07:24:45.098Z</time></trkpt><trkpt lat="42.9315224" lon="12.0372552"><ele>496.0</ele><time>2026-04-19T07:24:46.1Z</time></trkpt><trkpt lat="42.9313421" lon="12.0371891"><ele>496.0</ele><time>2026-04-19T07:24:47.125Z</time></trkpt><trkpt lat="42.9311387" lon="12.0371321"><ele>496.0</ele><time>2026-04-19T07:24:48.098Z</time></trkpt><trkpt lat="42.9309221" lon="12.0371375"><ele>496.0</ele><time>2026-04-19T07:24:49.105Z</time></trkpt><trkpt lat="42.9307006" lon="12.0371914"><ele>492.5</ele><time>2026-04-19T07:24:50.093Z</time></trkpt><trkpt lat="42.9304767" lon="12.0372714"><ele>489.0</ele><time>2026-04-19T07:24:51.108Z</time></trkpt><trkpt lat="42.9302554" lon="12.0373463"><ele>486.0</ele><time>2026-04-19T07:24:52.106Z</time></trkpt><trkpt lat="42.930041" lon="12.0373822"><ele>483.0</ele><time>2026-04-19T07:24:53.086Z</time></trkpt><trkpt lat="42.9298448" lon="12.0373409"><ele>480.0</ele><time>2026-04-19T07:24:54.109Z</time></trkpt><trkpt lat="42.9296669" lon="12.0372181"><ele>480.0</ele><time>2026-04-19T07:24:55.113Z</time></trkpt><trkpt lat="42.9295002" lon="12.0370493"><ele>480.0</ele><time>2026-04-19T07:24:56.111Z</time></trkpt><trkpt lat="42.9293326" lon="12.03687"><ele>480.0</ele><time>2026-04-19T07:24:57.093Z</time></trkpt><trkpt lat="42.9291689" lon="12.0366999"><ele>478.33333333333337</ele><time>2026-04-19T07:24:58.123Z</time></trkpt><trkpt lat="42.9290092" lon="12.036559"><ele>476.6666666666667</ele><time>2026-04-19T07:24:59.098Z</time></trkpt><trkpt lat="42.9288534" lon="12.0364746"><ele>475.0</ele><time>2026-04-19T07:25:00.096Z</time></trkpt><trkpt lat="42.9287074" lon="12.0364206"><ele>475.0</ele><time>2026-04-19T07:25:01.097Z</time></trkpt><trkpt lat="42.9285874" lon="12.0365053"><ele>475.0</ele><time>2026-04-19T07:25:02.093Z</time></trkpt><trkpt lat="42.9285024" lon="12.0366645"><ele>475.0</ele><time>2026-04-19T07:25:03.099Z</time></trkpt><trkpt lat="42.9284487" lon="12.036859"><ele>475.0</ele><time>2026-04-19T07:25:04.088Z</time></trkpt><trkpt lat="42.9283498" lon="12.0370472"><ele>480.6666666666667</ele><time>2026-04-19T07:25:05.107Z</time></trkpt><trkpt lat="42.9282272" lon="12.0372278"><ele>486.33333333333337</ele><time>2026-04-19T07:25:06.116Z</time></trkpt><trkpt lat="42.9280924" lon="12.0373949"><ele>492.0</ele><time>2026-04-19T07:25:07.112Z</time></trkpt><trkpt lat="42.9279239" lon="12.0375219"><ele>489.66666666666663</ele><time>2026-04-19T07:25:08.112Z</time></trkpt><trkpt lat="42.9277781" lon="12.0377129"><ele>487.3333333333333</ele><time>2026-04-19T07:25:09.094Z</time></trkpt><trkpt lat="42.9276468" lon="12.0379487"><ele>485.0</ele><time>2026-04-19T07:25:10.1Z</time></trkpt><trkpt lat="42.9275336" lon="12.0381934"><ele>489.3333333333333</ele><time>2026-04-19T07:25:11.114Z</time></trkpt><trkpt lat="42.9274268" lon="12.038435"><ele>493.66666666666663</ele><time>2026-04-19T07:25:12.103Z</time></trkpt><trkpt lat="42.9272756" lon="12.038625"><ele>498.0</ele><time>2026-04-19T07:25:13.083Z</time></trkpt><trkpt lat="42.9271085" lon="12.0387528"><ele>498.0</ele><time>2026-04-19T07:25:14.097Z</time></trkpt><trkpt lat="42.9269357" lon="12.0388442"><ele>498.0</ele><time>2026-04-19T07:25:15.117Z</time></trkpt><trkpt lat="42.9268004" lon="12.0389579"><ele>498.0</ele><time>2026-04-19T07:25:16.107Z</time></trkpt><trkpt lat="42.9266756" lon="12.0390849"><ele>498.0</ele><time>2026-04-19T07:25:17.115Z</time></trkpt><trkpt lat="42.9266339" lon="12.0392633"><ele>498.0</ele><time>2026-04-19T07:25:18.12Z</time></trkpt><trkpt lat="42.9266647" lon="12.0394567"><ele>498.0</ele><time>2026-04-19T07:25:19.1Z</time></trkpt><trkpt lat="42.9267607" lon="12.039663"><ele>498.0</ele><time>2026-04-19T07:25:20.108Z</time></trkpt><trkpt lat="42.9268545" lon="12.0398709"><ele>498.0</ele><time>2026-04-19T07:25:21.113Z</time></trkpt><trkpt lat="42.926933" lon="12.0400926"><ele>498.0</ele><time>2026-04-19T07:25:22.133Z</time></trkpt><trkpt lat="42.926979" lon="12.0403028"><ele>496.25</ele><time>2026-04-19T07:25:23.106Z</time></trkpt><trkpt lat="42.9269882" lon="12.0404963"><ele>494.5</ele><time>2026-04-19T07:25:24.097Z</time></trkpt><trkpt lat="42.9269455" lon="12.0406605"><ele>492.75</ele><time>2026-04-19T07:25:25.097Z</time></trkpt><trkpt lat="42.9268514" lon="12.0407824"><ele>491.0</ele><time>2026-04-19T07:25:26.087Z</time></trkpt><trkpt lat="42.9267241" lon="12.0408646"><ele>491.0</ele><time>2026-04-19T07:25:27.096Z</time></trkpt><trkpt lat="42.9265963" lon="12.0409579"><ele>491.0</ele><time>2026-04-19T07:25:28.105Z</time></trkpt><trkpt lat="42.9264695" lon="12.0410792"><ele>491.0</ele><time>2026-04-19T07:25:29.106Z</time></trkpt><trkpt lat="42.9264327" lon="12.0412754"><ele>491.0</ele><time>2026-04-19T07:25:30.101Z</time></trkpt><trkpt lat="42.9264289" lon="12.0414848"><ele>490.3333333333333</ele><time>2026-04-19T07:25:31.122Z</time></trkpt><trkpt lat="42.9264583" lon="12.0416913"><ele>489.66666666666663</ele><time>2026-04-19T07:25:32.098Z</time></trkpt><trkpt lat="42.9265189" lon="12.0418876"><ele>489.0</ele><time>2026-04-19T07:25:33.094Z</time></trkpt><trkpt lat="42.9265641" lon="12.0420801"><ele>489.0</ele><time>2026-04-19T07:25:34.114Z</time></trkpt><trkpt lat="42.9265357" lon="12.0422394"><ele>489.0</ele><time>2026-04-19T07:25:35.105Z</time></trkpt><trkpt lat="42.9264548" lon="12.0423509"><ele>489.0</ele><time>2026-04-19T07:25:36.127Z</time></trkpt><trkpt lat="42.9263423" lon="12.0423875"><ele>489.0</ele><time>2026-04-19T07:25:37.121Z</time></trkpt><trkpt lat="42.9262182" lon="12.0423513"><ele>489.0</ele><time>2026-04-19T07:25:38.119Z</time></trkpt><trkpt lat="42.9260864" lon="12.0422713"><ele>489.0</ele><time>2026-04-19T07:25:39.105Z</time></trkpt><trkpt lat="42.9259442" lon="12.0421373"><ele>489.0</ele><time>2026-04-19T07:25:40.087Z</time></trkpt><trkpt lat="42.925778" lon="12.041997"><ele>491.33333333333337</ele><time>2026-04-19T07:25:41.094Z</time></trkpt><trkpt lat="42.9256016" lon="12.0418692"><ele>493.6666666666667</ele><time>2026-04-19T07:25:42.096Z</time></trkpt><trkpt lat="42.9254238" lon="12.0417672"><ele>496.0</ele><time>2026-04-19T07:25:43.113Z</time></trkpt><trkpt lat="42.9252616" lon="12.0416875"><ele>496.0</ele><time>2026-04-19T07:25:44.106Z</time></trkpt><trkpt lat="42.9251069" lon="12.0417196"><ele>496.0</ele><time>2026-04-19T07:25:45.115Z</time></trkpt><trkpt lat="42.924988" lon="12.0418102"><ele>496.0</ele><time>2026-04-19T07:25:46.102Z</time></trkpt><trkpt lat="42.9249033" lon="12.0419661"><ele>496.0</ele><time>2026-04-19T07:25:47.083Z</time></trkpt><trkpt lat="42.9248509" lon="12.0421833"><ele>497.33333333333337</ele><time>2026-04-19T07:25:48.092Z</time></trkpt><trkpt lat="42.9248319" lon="12.0424428"><ele>498.66666666666663</ele><time>2026-04-19T07:25:49.095Z</time></trkpt><trkpt lat="42.9248526" lon="12.0427229"><ele>500.0</ele><time>2026-04-19T07:25:50.114Z</time></trkpt><trkpt lat="42.9249065" lon="12.0429975"><ele>500.0</ele><time>2026-04-19T07:25:51.095Z</time></trkpt><trkpt lat="42.9249811" lon="12.0432592"><ele>500.0</ele><time>2026-04-19T07:25:52.096Z</time></trkpt><trkpt lat="42.9250427" lon="12.0435144"><ele>500.0</ele><time>2026-04-19T07:25:53.106Z</time></trkpt><trkpt lat="42.9250695" lon="12.043755"><ele>498.3333333333333</ele><time>2026-04-19T07:25:54.107Z</time></trkpt><trkpt lat="42.9250357" lon="12.0439761"><ele>496.66666666666663</ele><time>2026-04-19T07:25:55.105Z</time></trkpt><trkpt lat="42.9249665" lon="12.0441592"><ele>495.0</ele><time>2026-04-19T07:25:56.104Z</time></trkpt><trkpt lat="42.9249007" lon="12.0443175"><ele>493.75</ele><time>2026-04-19T07:25:57.105Z</time></trkpt><trkpt lat="42.9248551" lon="12.0444766"><ele>492.5</ele><time>2026-04-19T07:25:58.115Z</time></trkpt><trkpt lat="42.9248294" lon="12.0446355"><ele>491.25</ele><time>2026-04-19T07:25:59.111Z</time></trkpt><trkpt lat="42.9248124" lon="12.0447902"><ele>490.0</ele><time>2026-04-19T07:26:00.109Z</time></trkpt><trkpt lat="42.9247894" lon="12.0449349"><ele>489.5</ele><time>2026-04-19T07:26:01.111Z</time></trkpt><trkpt lat="42.9247406" lon="12.0450616"><ele>489.0</ele><time>2026-04-19T07:26:02.107Z</time></trkpt><trkpt lat="42.9246576" lon="12.0451507"><ele>488.5</ele><time>2026-04-19T07:26:03.097Z</time></trkpt><trkpt lat="42.924545" lon="12.0451946"><ele>488.0</ele><time>2026-04-19T07:26:04.106Z</time></trkpt><trkpt lat="42.9243888" lon="12.0452191"><ele>483.66666666666663</ele><time>2026-04-19T07:26:05.104Z</time></trkpt><trkpt lat="42.9242001" lon="12.0452279"><ele>479.33333333333337</ele><time>2026-04-19T07:26:06.097Z</time></trkpt><trkpt lat="42.9239899" lon="12.0453058"><ele>475.0</ele><time>2026-04-19T07:26:07.12Z</time></trkpt><trkpt lat="42.923784" lon="12.0453674"><ele>475.0</ele><time>2026-04-19T07:26:08.114Z</time></trkpt><trkpt lat="42.9235937" lon="12.0454123"><ele>475.0</ele><time>2026-04-19T07:26:09.118Z</time></trkpt><trkpt lat="42.9234446" lon="12.0453543"><ele>475.0</ele><time>2026-04-19T07:26:10.084Z</time></trkpt><trkpt lat="42.9233386" lon="12.0452084"><ele>473.0</ele><time>2026-04-19T07:26:11.115Z</time></trkpt><trkpt lat="42.9232303" lon="12.045067"><ele>471.0</ele><time>2026-04-19T07:26:12.102Z</time></trkpt><trkpt lat="42.9231509" lon="12.0448312"><ele>469.0</ele><time>2026-04-19T07:26:13.108Z</time></trkpt><trkpt lat="42.9230473" lon="12.0446106"><ele>469.0</ele><time>2026-04-19T07:26:14.095Z</time></trkpt><trkpt lat="42.9228702" lon="12.0444696"><ele>469.0</ele><time>2026-04-19T07:26:15.108Z</time></trkpt><trkpt lat="42.9226758" lon="12.0443733"><ele>469.0</ele><time>2026-04-19T07:26:16.114Z</time></trkpt><trkpt lat="42.9224914" lon="12.0442688"><ele>473.6666666666667</ele><time>2026-04-19T07:26:17.09Z</time></trkpt><trkpt lat="42.9223194" lon="12.04424"><ele>478.33333333333337</ele><time>2026-04-19T07:26:18.116Z</time></trkpt><trkpt lat="42.9221686" lon="12.0442415"><ele>483.0</ele><time>2026-04-19T07:26:19.107Z</time></trkpt><trkpt lat="42.9220444" lon="12.0443127"><ele>483.0</ele><time>2026-04-19T07:26:20.089Z</time></trkpt><trkpt lat="42.9219578" lon="12.0444485"><ele>483.0</ele><time>2026-04-19T07:26:21.093Z</time></trkpt><trkpt lat="42.9219276" lon="12.0446183"><ele>483.0</ele><time>2026-04-19T07:26:22.089Z</time></trkpt><trkpt lat="42.9219514" lon="12.0448296"><ele>483.0</ele><time>2026-04-19T07:26:23.106Z</time></trkpt><trkpt lat="42.9219877" lon="12.0450296"><ele>488.33333333333337</ele><time>2026-04-19T07:26:24.098Z</time></trkpt><trkpt lat="42.9220224" lon="12.045256"><ele>493.6666666666667</ele><time>2026-04-19T07:26:25.103Z</time></trkpt><trkpt lat="42.9220023" lon="12.0454765"><ele>499.0</ele><time>2026-04-19T07:26:26.111Z</time></trkpt><trkpt lat="42.9219226" lon="12.0456771"><ele>500.0</ele><time>2026-04-19T07:26:27.118Z</time></trkpt><trkpt lat="42.9217892" lon="12.0458505"><ele>501.0</ele><time>2026-04-19T07:26:28.112Z</time></trkpt><trkpt lat="42.9216329" lon="12.0460103"><ele>502.0</ele><time>2026-04-19T07:26:29.095Z</time></trkpt><trkpt lat="42.9214617" lon="12.0461521"><ele>502.33333333333337</ele><time>2026-04-19T07:26:30.116Z</time></trkpt><trkpt lat="42.9212905" lon="12.0462874"><ele>502.66666666666663</ele><time>2026-04-19T07:26:31.106Z</time></trkpt><trkpt lat="42.9210992" lon="12.0463629"><ele>503.0</ele><time>2026-04-19T07:26:32.098Z</time></trkpt><trkpt lat="42.9209293" lon="12.0464446"><ele>502.66666666666663</ele><time>2026-04-19T07:26:33.1Z</time></trkpt><trkpt lat="42.9207932" lon="12.0465753"><ele>502.33333333333337</ele><time>2026-04-19T07:26:34.126Z</time></trkpt><trkpt lat="42.9207204" lon="12.0467528"><ele>502.0</ele><time>2026-04-19T07:26:35.113Z</time></trkpt><trkpt lat="42.9207062" lon="12.0469517"><ele>502.0</ele><time>2026-04-19T07:26:36.105Z</time></trkpt><trkpt lat="42.9207391" lon="12.0471582"><ele>502.0</ele><time>2026-04-19T07:26:37.099Z</time></trkpt><trkpt lat="42.9207912" lon="12.0473648"><ele>502.0</ele><time>2026-04-19T07:26:38.133Z</time></trkpt><trkpt lat="42.9208457" lon="12.047581"><ele>500.6666666666667</ele><time>2026-04-19T07:26:39.107Z</time></trkpt><trkpt lat="42.9209167" lon="12.0478071"><ele>499.33333333333337</ele><time>2026-04-19T07:26:40.099Z</time></trkpt><trkpt lat="42.9209906" lon="12.0480484"><ele>498.0</ele><time>2026-04-19T07:26:41.094Z</time></trkpt><trkpt lat="42.9210693" lon="12.0483005"><ele>495.0</ele><time>2026-04-19T07:26:42.098Z</time></trkpt><trkpt lat="42.9211585" lon="12.0485622"><ele>492.0</ele><time>2026-04-19T07:26:43.11Z</time></trkpt><trkpt lat="42.9212535" lon="12.0488333"><ele>489.0</ele><time>2026-04-19T07:26:44.127Z</time></trkpt><trkpt lat="42.9213626" lon="12.0491077"><ele>489.66666666666663</ele><time>2026-04-19T07:26:45.094Z</time></trkpt><trkpt lat="42.9214626" lon="12.0493655"><ele>490.3333333333333</ele><time>2026-04-19T07:26:46.091Z</time></trkpt><trkpt lat="42.921554" lon="12.0496004"><ele>491.0</ele><time>2026-04-19T07:26:47.118Z</time></trkpt><trkpt lat="42.921631" lon="12.0498083"><ele>492.0</ele><time>2026-04-19T07:26:48.087Z</time></trkpt><trkpt lat="42.9216994" lon="12.0499951"><ele>493.0</ele><time>2026-04-19T07:26:49.112Z</time></trkpt><trkpt lat="42.9217431" lon="12.05017"><ele>494.0</ele><time>2026-04-19T07:26:50.096Z</time></trkpt><trkpt lat="42.9217464" lon="12.0503276"><ele>495.0</ele><time>2026-04-19T07:26:51.109Z</time></trkpt><trkpt lat="42.9216989" lon="12.0504583"><ele>495.0</ele><time>2026-04-19T07:26:52.099Z</time></trkpt><trkpt lat="42.9216067" lon="12.0505591"><ele>495.0</ele><time>2026-04-19T07:26:53.107Z</time></trkpt><trkpt lat="42.9214819" lon="12.0506408"><ele>495.0</ele><time>2026-04-19T07:26:54.089Z</time></trkpt><trkpt lat="42.9213351" lon="12.0507025"><ele>495.0</ele><time>2026-04-19T07:26:55.106Z</time></trkpt><trkpt lat="42.9211717" lon="12.0507503"><ele>495.0</ele><time>2026-04-19T07:26:56.093Z</time></trkpt><trkpt lat="42.921" lon="12.0507882"><ele>495.0</ele><time>2026-04-19T07:26:57.111Z</time></trkpt><trkpt lat="42.9208389" lon="12.0508295"><ele>495.0</ele><time>2026-04-19T07:26:58.115Z</time></trkpt><trkpt lat="42.9206794" lon="12.0508765"><ele>493.33333333333337</ele><time>2026-04-19T07:26:59.107Z</time></trkpt><trkpt lat="42.9205366" lon="12.0509875"><ele>491.6666666666667</ele><time>2026-04-19T07:27:00.09Z</time></trkpt><trkpt lat="42.9204152" lon="12.0511235"><ele>490.0</ele><time>2026-04-19T07:27:01.102Z</time></trkpt><trkpt lat="42.9203313" lon="12.0512987"><ele>490.0</ele><time>2026-04-19T07:27:02.08Z</time></trkpt><trkpt lat="42.9203066" lon="12.0514804"><ele>490.0</ele><time>2026-04-19T07:27:03.105Z</time></trkpt><trkpt lat="42.920342" lon="12.0516531"><ele>490.0</ele><time>2026-04-19T07:27:04.114Z</time></trkpt><trkpt lat="42.9204093" lon="12.0518053"><ele>490.0</ele><time>2026-04-19T07:27:05.092Z</time></trkpt><trkpt lat="42.9205033" lon="12.051966"><ele>488.0</ele><time>2026-04-19T07:27:06.116Z</time></trkpt><trkpt lat="42.9206037" lon="12.0521482"><ele>486.0</ele><time>2026-04-19T07:27:07.125Z</time></trkpt><trkpt lat="42.9207025" lon="12.0523456"><ele>484.0</ele><time>2026-04-19T07:27:08.116Z</time></trkpt><trkpt lat="42.9208005" lon="12.0525654"><ele>483.6666666666667</ele><time>2026-04-19T07:27:09.112Z</time></trkpt><trkpt lat="42.9209121" lon="12.0527784"><ele>483.33333333333337</ele><time>2026-04-19T07:27:10.113Z</time></trkpt><trkpt lat="42.9210167" lon="12.0529884"><ele>483.0</ele><time>2026-04-19T07:27:11.123Z</time></trkpt><trkpt lat="42.9211156" lon="12.0531963"><ele>485.5</ele><time>2026-04-19T07:27:12.109Z</time></trkpt><trkpt lat="42.9212098" lon="12.0533899"><ele>488.0</ele><time>2026-04-19T07:27:13.103Z</time></trkpt><trkpt lat="42.9212926" lon="12.0535676"><ele>490.5</ele><time>2026-04-19T07:27:14.103Z</time></trkpt><trkpt lat="42.9213502" lon="12.0537168"><ele>493.0</ele><time>2026-04-19T07:27:15.099Z</time></trkpt><trkpt lat="42.921391" lon="12.0538649"><ele>493.0</ele><time>2026-04-19T07:27:16.114Z</time></trkpt><trkpt lat="42.921407" lon="12.0540111"><ele>493.0</ele><time>2026-04-19T07:27:17.089Z</time></trkpt><trkpt lat="42.9214219" lon="12.0541713"><ele>493.0</ele><time>2026-04-19T07:27:18.106Z</time></trkpt><trkpt lat="42.9214465" lon="12.0543351"><ele>493.0</ele><time>2026-04-19T07:27:19.103Z</time></trkpt><trkpt lat="42.9214841" lon="12.0545303"><ele>492.0</ele><time>2026-04-19T07:27:20.117Z</time></trkpt><trkpt lat="42.9215036" lon="12.0547435"><ele>491.0</ele><time>2026-04-19T07:27:21.111Z</time></trkpt><trkpt lat="42.9215159" lon="12.0549626"><ele>490.0</ele><time>2026-04-19T07:27:22.103Z</time></trkpt><trkpt lat="42.9215211" lon="12.055195"><ele>490.0</ele><time>2026-04-19T07:27:23.096Z</time></trkpt><trkpt lat="42.9215348" lon="12.0554372"><ele>490.0</ele><time>2026-04-19T07:27:24.11Z</time></trkpt><trkpt lat="42.9215633" lon="12.0556814"><ele>490.0</ele><time>2026-04-19T07:27:25.112Z</time></trkpt><trkpt lat="42.9216117" lon="12.0559298"><ele>490.0</ele><time>2026-04-19T07:27:26.117Z</time></trkpt><trkpt lat="42.921668" lon="12.0561808"><ele>490.0</ele><time>2026-04-19T07:27:27.089Z</time></trkpt><trkpt lat="42.921735" lon="12.056422"><ele>490.0</ele><time>2026-04-19T07:27:28.081Z</time></trkpt><trkpt lat="42.9217724" lon="12.0566685"><ele>490.33333333333337</ele><time>2026-04-19T07:27:29.121Z</time></trkpt><trkpt lat="42.9217597" lon="12.0569085"><ele>490.66666666666663</ele><time>2026-04-19T07:27:30.095Z</time></trkpt><trkpt lat="42.9216867" lon="12.0571138"><ele>491.0</ele><time>2026-04-19T07:27:31.091Z</time></trkpt><trkpt lat="42.9215615" lon="12.0572927"><ele>488.66666666666663</ele><time>2026-04-19T07:27:32.08Z</time></trkpt><trkpt lat="42.9214132" lon="12.0574692"><ele>486.33333333333337</ele><time>2026-04-19T07:27:33.114Z</time></trkpt><trkpt lat="42.9212642" lon="12.0576721"><ele>484.0</ele><time>2026-04-19T07:27:34.097Z</time></trkpt><trkpt lat="42.9211355" lon="12.057909"><ele>484.0</ele><time>2026-04-19T07:27:35.104Z</time></trkpt><trkpt lat="42.9210383" lon="12.0581871"><ele>484.0</ele><time>2026-04-19T07:27:36.105Z</time></trkpt><trkpt lat="42.9209856" lon="12.058502"><ele>483.0</ele><time>2026-04-19T07:27:37.102Z</time></trkpt><trkpt lat="42.9209817" lon="12.058827"><ele>482.0</ele><time>2026-04-19T07:27:38.104Z</time></trkpt><trkpt lat="42.921016" lon="12.0591591"><ele>477.5</ele><time>2026-04-19T07:27:39.127Z</time></trkpt><trkpt lat="42.9210538" lon="12.0594959"><ele>473.0</ele><time>2026-04-19T07:27:40.109Z</time></trkpt><trkpt lat="42.9210523" lon="12.0598172"><ele>471.3333333333333</ele><time>2026-04-19T07:27:41.114Z</time></trkpt><trkpt lat="42.9209933" lon="12.0601008"><ele>469.66666666666663</ele><time>2026-04-19T07:27:42.113Z</time></trkpt><trkpt lat="42.9208862" lon="12.0603434"><ele>468.0</ele><time>2026-04-19T07:27:43.088Z</time></trkpt><trkpt lat="42.9207305" lon="12.0605498"><ele>468.0</ele><time>2026-04-19T07:27:44.105Z</time></trkpt><trkpt lat="42.920538" lon="12.0607233"><ele>468.0</ele><time>2026-04-19T07:27:45.115Z</time></trkpt><trkpt lat="42.9203153" lon="12.0608471"><ele>468.0</ele><time>2026-04-19T07:27:46.088Z</time></trkpt><trkpt lat="42.9200745" lon="12.0609272"><ele>468.0</ele><time>2026-04-19T07:27:47.107Z</time></trkpt><trkpt lat="42.9198287" lon="12.0609815"><ele>468.5</ele><time>2026-04-19T07:27:48.111Z</time></trkpt><trkpt lat="42.919593" lon="12.0610113"><ele>469.0</ele><time>2026-04-19T07:27:49.13Z</time></trkpt><trkpt lat="42.919374" lon="12.0610371"><ele>467.33333333333337</ele><time>2026-04-19T07:27:50.122Z</time></trkpt><trkpt lat="42.9191741" lon="12.0610778"><ele>465.66666666666663</ele><time>2026-04-19T07:27:51.107Z</time></trkpt><trkpt lat="42.9190018" lon="12.0611464"><ele>464.0</ele><time>2026-04-19T07:27:52.113Z</time></trkpt><trkpt lat="42.9188395" lon="12.0612365"><ele>464.0</ele><time>2026-04-19T07:27:53.099Z</time></trkpt><trkpt lat="42.9186635" lon="12.0613481"><ele>464.0</ele><time>2026-04-19T07:27:54.119Z</time></trkpt><trkpt lat="42.9184892" lon="12.0614709"><ele>464.0</ele><time>2026-04-19T07:27:55.116Z</time></trkpt><trkpt lat="42.918352" lon="12.0616337"><ele>464.0</ele><time>2026-04-19T07:27:56.118Z</time></trkpt><trkpt lat="42.9182398" lon="12.0618422"><ele>464.0</ele><time>2026-04-19T07:27:57.092Z</time></trkpt><trkpt lat="42.918118" lon="12.0620276"><ele>464.0</ele><time>2026-04-19T07:27:58.082Z</time></trkpt><trkpt lat="42.9179759" lon="12.0621643"><ele>464.0</ele><time>2026-04-19T07:27:59.1Z</time></trkpt><trkpt lat="42.9178439" lon="12.0622716"><ele>464.0</ele><time>2026-04-19T07:28:00.101Z</time></trkpt><trkpt lat="42.917749" lon="12.0624144"><ele>464.0</ele><time>2026-04-19T07:28:01.106Z</time></trkpt><trkpt lat="42.9177014" lon="12.0626069"><ele>464.0</ele><time>2026-04-19T07:28:02.102Z</time></trkpt><trkpt lat="42.917657" lon="12.0628095"><ele>461.66666666666663</ele><time>2026-04-19T07:28:03.101Z</time></trkpt><trkpt lat="42.9176919" lon="12.0630299"><ele>459.33333333333337</ele><time>2026-04-19T07:28:04.096Z</time></trkpt><trkpt lat="42.9177552" lon="12.0632527"><ele>457.0</ele><time>2026-04-19T07:28:05.118Z</time></trkpt><trkpt lat="42.9177611" lon="12.0634328"><ele>459.0</ele><time>2026-04-19T07:28:06.097Z</time></trkpt><trkpt lat="42.9176913" lon="12.0635564"><ele>461.0</ele><time>2026-04-19T07:28:07.096Z</time></trkpt><trkpt lat="42.9175754" lon="12.0636461"><ele>463.0</ele><time>2026-04-19T07:28:08.086Z</time></trkpt><trkpt lat="42.9174164" lon="12.0636865"><ele>465.0</ele><time>2026-04-19T07:28:09.102Z</time></trkpt><trkpt lat="42.9172389" lon="12.0637129"><ele>465.0</ele><time>2026-04-19T07:28:10.092Z</time></trkpt><trkpt lat="42.9170476" lon="12.063738"><ele>465.0</ele><time>2026-04-19T07:28:11.103Z</time></trkpt><trkpt lat="42.9168441" lon="12.0638353"><ele>465.0</ele><time>2026-04-19T07:28:12.113Z</time></trkpt><trkpt lat="42.9166366" lon="12.0639557"><ele>467.0</ele><time>2026-04-19T07:28:13.125Z</time></trkpt><trkpt lat="42.9164234" lon="12.0640767"><ele>469.0</ele><time>2026-04-19T07:28:14.102Z</time></trkpt><trkpt lat="42.9161861" lon="12.0642241"><ele>464.0</ele><time>2026-04-19T07:28:15.095Z</time></trkpt><trkpt lat="42.9159555" lon="12.0643829"><ele>459.0</ele><time>2026-04-19T07:28:16.112Z</time></trkpt><trkpt lat="42.9157405" lon="12.0645645"><ele>459.0</ele><time>2026-04-19T07:28:17.114Z</time></trkpt><trkpt lat="42.9155387" lon="12.0647365"><ele>459.0</ele><time>2026-04-19T07:28:18.1Z</time></trkpt><trkpt lat="42.9153311" lon="12.0648638"><ele>459.0</ele><time>2026-04-19T07:28:19.118Z</time></trkpt><trkpt lat="42.9151281" lon="12.0649391"><ele>459.0</ele><time>2026-04-19T07:28:20.118Z</time></trkpt><trkpt lat="42.9149279" lon="12.0649453"><ele>459.0</ele><time>2026-04-19T07:28:21.097Z</time></trkpt><trkpt lat="42.9147436" lon="12.0648858"><ele>457.0</ele><time>2026-04-19T07:28:22.098Z</time></trkpt><trkpt lat="42.914584" lon="12.0647842"><ele>455.0</ele><time>2026-04-19T07:28:23.118Z</time></trkpt><trkpt lat="42.9144609" lon="12.064634"><ele>453.0</ele><time>2026-04-19T07:28:24.111Z</time></trkpt><trkpt lat="42.9143599" lon="12.0644806"><ele>453.0</ele><time>2026-04-19T07:28:25.105Z</time></trkpt><trkpt lat="42.9143545" lon="12.0642187"><ele>453.0</ele><time>2026-04-19T07:28:26.105Z</time></trkpt><trkpt lat="42.9143482" lon="12.0639342"><ele>453.0</ele><time>2026-04-19T07:28:27.1Z</time></trkpt><trkpt lat="42.9143144" lon="12.0636425"><ele>450.33333333333337</ele><time>2026-04-19T07:28:28.092Z</time></trkpt><trkpt lat="42.9142532" lon="12.0633566"><ele>447.6666666666667</ele><time>2026-04-19T07:28:29.114Z</time></trkpt><trkpt lat="42.9141839" lon="12.0631051"><ele>445.0</ele><time>2026-04-19T07:28:30.114Z</time></trkpt><trkpt lat="42.9141104" lon="12.0628688"><ele>441.75</ele><time>2026-04-19T07:28:31.102Z</time></trkpt><trkpt lat="42.9139913" lon="12.0627508"><ele>438.5</ele><time>2026-04-19T07:28:32.095Z</time></trkpt><trkpt lat="42.9138488" lon="12.0627172"><ele>435.25</ele><time>2026-04-19T07:28:33.09Z</time></trkpt><trkpt lat="42.9137097" lon="12.0627772"><ele>432.0</ele><time>2026-04-19T07:28:34.099Z</time></trkpt><trkpt lat="42.9135737" lon="12.0629133"><ele>432.0</ele><time>2026-04-19T07:28:35.086Z</time></trkpt><trkpt lat="42.9134579" lon="12.0631173"><ele>432.0</ele><time>2026-04-19T07:28:36.108Z</time></trkpt><trkpt lat="42.9133451" lon="12.0633399"><ele>432.0</ele><time>2026-04-19T07:28:37.098Z</time></trkpt><trkpt lat="42.9132546" lon="12.0636167"><ele>431.0</ele><time>2026-04-19T07:28:38.102Z</time></trkpt><trkpt lat="42.9131311" lon="12.0638835"><ele>430.0</ele><time>2026-04-19T07:28:39.096Z</time></trkpt><trkpt lat="42.9129444" lon="12.0641101"><ele>427.5</ele><time>2026-04-19T07:28:40.115Z</time></trkpt><trkpt lat="42.9127569" lon="12.0643474"><ele>425.0</ele><time>2026-04-19T07:28:41.101Z</time></trkpt><trkpt lat="42.9125685" lon="12.0645752"><ele>425.0</ele><time>2026-04-19T07:28:42.104Z</time></trkpt><trkpt lat="42.9123665" lon="12.0647876"><ele>425.0</ele><time>2026-04-19T07:28:43.094Z</time></trkpt><trkpt lat="42.9121417" lon="12.0649625"><ele>420.0</ele><time>2026-04-19T07:28:44.121Z</time></trkpt><trkpt lat="42.9119003" lon="12.0650931"><ele>415.0</ele><time>2026-04-19T07:28:45.108Z</time></trkpt><trkpt lat="42.9116411" lon="12.0651794"><ele>414.5</ele><time>2026-04-19T07:28:46.084Z</time></trkpt><trkpt lat="42.9113736" lon="12.0652082"><ele>414.0</ele><time>2026-04-19T07:28:47.112Z</time></trkpt><trkpt lat="42.9110984" lon="12.065191"><ele>415.0</ele><time>2026-04-19T07:28:48.088Z</time></trkpt><trkpt lat="42.9108241" lon="12.0651542"><ele>416.0</ele><time>2026-04-19T07:28:49.101Z</time></trkpt><trkpt lat="42.910551" lon="12.0651196"><ele>416.0</ele><time>2026-04-19T07:28:50.098Z</time></trkpt><trkpt lat="42.9102832" lon="12.0650989"><ele>416.0</ele><time>2026-04-19T07:28:51.098Z</time></trkpt><trkpt lat="42.9100226" lon="12.0650863"><ele>417.0</ele><time>2026-04-19T07:28:52.121Z</time></trkpt><trkpt lat="42.909774" lon="12.065078"><ele>418.0</ele><time>2026-04-19T07:28:53.126Z</time></trkpt><trkpt lat="42.9095436" lon="12.0650522"><ele>418.0</ele><time>2026-04-19T07:28:54.108Z</time></trkpt><trkpt lat="42.909332" lon="12.0649831"><ele>418.0</ele><time>2026-04-19T07:28:55.1Z</time></trkpt><trkpt lat="42.9091411" lon="12.064854"><ele>418.0</ele><time>2026-04-19T07:28:56.121Z</time></trkpt><trkpt lat="42.9089621" lon="12.064685"><ele>420.5</ele><time>2026-04-19T07:28:57.116Z</time></trkpt><trkpt lat="42.9087817" lon="12.0644916"><ele>423.0</ele><time>2026-04-19T07:28:58.116Z</time></trkpt><trkpt lat="42.9086033" lon="12.0642822"><ele>420.0</ele><time>2026-04-19T07:28:59.113Z</time></trkpt><trkpt lat="42.9084314" lon="12.0640507"><ele>417.0</ele><time>2026-04-19T07:29:00.094Z</time></trkpt><trkpt lat="42.9082571" lon="12.063815"><ele>417.0</ele><time>2026-04-19T07:29:01.124Z</time></trkpt><trkpt lat="42.9080613" lon="12.0636088"><ele>417.0</ele><time>2026-04-19T07:29:02.112Z</time></trkpt><trkpt lat="42.90785" lon="12.0634371"><ele>413.0</ele><time>2026-04-19T07:29:03.109Z</time></trkpt><trkpt lat="42.9076453" lon="12.0632686"><ele>409.0</ele><time>2026-04-19T07:29:04.11Z</time></trkpt><trkpt lat="42.9074671" lon="12.0630758"><ele>409.0</ele><time>2026-04-19T07:29:05.103Z</time></trkpt><trkpt lat="42.9073271" lon="12.0628613"><ele>409.0</ele><time>2026-04-19T07:29:06.096Z</time></trkpt><trkpt lat="42.9072078" lon="12.0626648"><ele>409.0</ele><time>2026-04-19T07:29:07.12Z</time></trkpt><trkpt lat="42.9070662" lon="12.0625185"><ele>409.0</ele><time>2026-04-19T07:29:08.103Z</time></trkpt><trkpt lat="42.9069015" lon="12.0624236"><ele>409.0</ele><time>2026-04-19T07:29:09.094Z</time></trkpt><trkpt lat="42.9067304" lon="12.0623614"><ele>409.0</ele><time>2026-04-19T07:29:10.098Z</time></trkpt><trkpt lat="42.906581" lon="12.062316"><ele>409.0</ele><time>2026-04-19T07:29:11.127Z</time></trkpt><trkpt lat="42.9064437" lon="12.0622284"><ele>409.0</ele><time>2026-04-19T07:29:12.118Z</time></trkpt><trkpt lat="42.9063507" lon="12.0620982"><ele>409.0</ele><time>2026-04-19T07:29:13.088Z</time></trkpt><trkpt lat="42.9063189" lon="12.0619263"><ele>409.0</ele><time>2026-04-19T07:29:14.101Z</time></trkpt><trkpt lat="42.9063446" lon="12.06175"><ele>410.75</ele><time>2026-04-19T07:29:15.108Z</time></trkpt><trkpt lat="42.9064218" lon="12.061599"><ele>412.5</ele><time>2026-04-19T07:29:16.118Z</time></trkpt><trkpt lat="42.9065285" lon="12.0614541"><ele>414.25</ele><time>2026-04-19T07:29:17.11Z</time></trkpt><trkpt lat="42.9066321" lon="12.0612854"><ele>416.0</ele><time>2026-04-19T07:29:18.104Z</time></trkpt><trkpt lat="42.906716" lon="12.0611071"><ele>413.3333333333333</ele><time>2026-04-19T07:29:19.092Z</time></trkpt><trkpt lat="42.9067686" lon="12.0608996"><ele>410.66666666666663</ele><time>2026-04-19T07:29:20.087Z</time></trkpt><trkpt lat="42.9067875" lon="12.0606821"><ele>408.0</ele><time>2026-04-19T07:29:21.111Z</time></trkpt><trkpt lat="42.9067738" lon="12.0604495"><ele>409.33333333333337</ele><time>2026-04-19T07:29:22.118Z</time></trkpt><trkpt lat="42.9067346" lon="12.0602171"><ele>410.6666666666667</ele><time>2026-04-19T07:29:23.103Z</time></trkpt><trkpt lat="42.9066838" lon="12.0599953"><ele>412.0</ele><time>2026-04-19T07:29:24.129Z</time></trkpt><trkpt lat="42.9066242" lon="12.0597678"><ele>412.0</ele><time>2026-04-19T07:29:25.111Z</time></trkpt><trkpt lat="42.9065623" lon="12.0595358"><ele>412.0</ele><time>2026-04-19T07:29:26.11Z</time></trkpt><trkpt lat="42.9064993" lon="12.0593279"><ele>412.0</ele><time>2026-04-19T07:29:27.115Z</time></trkpt><trkpt lat="42.9064241" lon="12.0591457"><ele>407.5</ele><time>2026-04-19T07:29:28.115Z</time></trkpt><trkpt lat="42.906356" lon="12.0589684"><ele>403.0</ele><time>2026-04-19T07:29:29.107Z</time></trkpt><trkpt lat="42.9062764" lon="12.0588109"><ele>398.5</ele><time>2026-04-19T07:29:30.114Z</time></trkpt><trkpt lat="42.9061888" lon="12.058666"><ele>394.0</ele><time>2026-04-19T07:29:31.106Z</time></trkpt><trkpt lat="42.9060811" lon="12.0585387"><ele>394.0</ele><time>2026-04-19T07:29:32.095Z</time></trkpt><trkpt lat="42.9059559" lon="12.0584346"><ele>394.0</ele><time>2026-04-19T07:29:33.091Z</time></trkpt><trkpt lat="42.9058188" lon="12.0583466"><ele>394.0</ele><time>2026-04-19T07:29:34.111Z</time></trkpt><trkpt lat="42.9056952" lon="12.0582233"><ele>396.0</ele><time>2026-04-19T07:29:35.106Z</time></trkpt><trkpt lat="42.9055933" lon="12.0580714"><ele>398.0</ele><time>2026-04-19T07:29:36.11Z</time></trkpt><trkpt lat="42.9055106" lon="12.0578979"><ele>400.0</ele><time>2026-04-19T07:29:37.086Z</time></trkpt><trkpt lat="42.9054516" lon="12.0577029"><ele>400.0</ele><time>2026-04-19T07:29:38.091Z</time></trkpt><trkpt lat="42.905412" lon="12.0574878"><ele>400.0</ele><time>2026-04-19T07:29:39.12Z</time></trkpt><trkpt lat="42.9053726" lon="12.0572609"><ele>400.0</ele><time>2026-04-19T07:29:40.09Z</time></trkpt><trkpt lat="42.9053132" lon="12.0570361"><ele>397.33333333333337</ele><time>2026-04-19T07:29:41.106Z</time></trkpt><trkpt lat="42.9052255" lon="12.0568098"><ele>394.66666666666663</ele><time>2026-04-19T07:29:42.102Z</time></trkpt><trkpt lat="42.9051181" lon="12.0565869"><ele>392.0</ele><time>2026-04-19T07:29:43.11Z</time></trkpt><trkpt lat="42.9050156" lon="12.0563646"><ele>392.0</ele><time>2026-04-19T07:29:44.102Z</time></trkpt><trkpt lat="42.9049234" lon="12.0561549"><ele>392.0</ele><time>2026-04-19T07:29:45.114Z</time></trkpt><trkpt lat="42.9048638" lon="12.0559472"><ele>392.0</ele><time>2026-04-19T07:29:46.103Z</time></trkpt><trkpt lat="42.9048599" lon="12.0557293"><ele>389.0</ele><time>2026-04-19T07:29:47.105Z</time></trkpt><trkpt lat="42.9049082" lon="12.0555102"><ele>386.0</ele><time>2026-04-19T07:29:48.095Z</time></trkpt><trkpt lat="42.9049774" lon="12.0552756"><ele>383.0</ele><time>2026-04-19T07:29:49.105Z</time></trkpt><trkpt lat="42.9050043" lon="12.0550225"><ele>383.0</ele><time>2026-04-19T07:29:50.084Z</time></trkpt><trkpt lat="42.9049892" lon="12.0547495"><ele>383.0</ele><time>2026-04-19T07:29:51.094Z</time></trkpt><trkpt lat="42.9049504" lon="12.0544704"><ele>383.0</ele><time>2026-04-19T07:29:52.078Z</time></trkpt><trkpt lat="42.9048994" lon="12.0542047"><ele>382.0</ele><time>2026-04-19T07:29:53.085Z</time></trkpt><trkpt lat="42.9048306" lon="12.0539591"><ele>381.0</ele><time>2026-04-19T07:29:54.1Z</time></trkpt><trkpt lat="42.9047252" lon="12.0537457"><ele>380.0</ele><time>2026-04-19T07:29:55.125Z</time></trkpt><trkpt lat="42.9045735" lon="12.0535647"><ele>380.0</ele><time>2026-04-19T07:29:56.105Z</time></trkpt><trkpt lat="42.9043875" lon="12.05341"><ele>380.0</ele><time>2026-04-19T07:29:57.121Z</time></trkpt><trkpt lat="42.9041841" lon="12.0532515"><ele>375.5</ele><time>2026-04-19T07:29:58.081Z</time></trkpt><trkpt lat="42.9039803" lon="12.0530659"><ele>371.0</ele><time>2026-04-19T07:29:59.112Z</time></trkpt><trkpt lat="42.9037801" lon="12.0528548"><ele>371.0</ele><time>2026-04-19T07:30:00.124Z</time></trkpt><trkpt lat="42.9035821" lon="12.0526308"><ele>371.0</ele><time>2026-04-19T07:30:01.117Z</time></trkpt><trkpt lat="42.9033969" lon="12.0523966"><ele>371.5</ele><time>2026-04-19T07:30:02.108Z</time></trkpt><trkpt lat="42.9032237" lon="12.0521669"><ele>372.0</ele><time>2026-04-19T07:30:03.099Z</time></trkpt><trkpt lat="42.9030354" lon="12.0519672"><ele>372.0</ele><time>2026-04-19T07:30:04.109Z</time></trkpt><trkpt lat="42.9028222" lon="12.051805"><ele>372.0</ele><time>2026-04-19T07:30:05.096Z</time></trkpt><trkpt lat="42.9025912" lon="12.0516638"><ele>367.5</ele><time>2026-04-19T07:30:06.094Z</time></trkpt><trkpt lat="42.9023503" lon="12.051527"><ele>363.0</ele><time>2026-04-19T07:30:07.096Z</time></trkpt><trkpt lat="42.9021137" lon="12.0513855"><ele>363.0</ele><time>2026-04-19T07:30:08.094Z</time></trkpt><trkpt lat="42.901893" lon="12.0512295"><ele>363.0</ele><time>2026-04-19T07:30:09.114Z</time></trkpt><trkpt lat="42.9016922" lon="12.0510561"><ele>363.6666666666667</ele><time>2026-04-19T07:30:10.1Z</time></trkpt><trkpt lat="42.9015151" lon="12.0508675"><ele>364.33333333333337</ele><time>2026-04-19T07:30:11.103Z</time></trkpt><trkpt lat="42.9013628" lon="12.050658"><ele>365.0</ele><time>2026-04-19T07:30:12.091Z</time></trkpt><trkpt lat="42.9012358" lon="12.0504192"><ele>361.6666666666667</ele><time>2026-04-19T07:30:13.103Z</time></trkpt><trkpt lat="42.9011377" lon="12.0501522"><ele>358.3333333333333</ele><time>2026-04-19T07:30:14.127Z</time></trkpt><trkpt lat="42.9010732" lon="12.0498721"><ele>355.0</ele><time>2026-04-19T07:30:15.108Z</time></trkpt><trkpt lat="42.9010453" lon="12.0495941"><ele>354.3333333333333</ele><time>2026-04-19T07:30:16.078Z</time></trkpt><trkpt lat="42.901052" lon="12.0493093"><ele>353.6666666666667</ele><time>2026-04-19T07:30:17.114Z</time></trkpt><trkpt lat="42.9010836" lon="12.0490091"><ele>353.0</ele><time>2026-04-19T07:30:18.116Z</time></trkpt><trkpt lat="42.901133" lon="12.0486977"><ele>353.0</ele><time>2026-04-19T07:30:19.116Z</time></trkpt><trkpt lat="42.9012073" lon="12.0483963"><ele>353.0</ele><time>2026-04-19T07:30:20.107Z</time></trkpt><trkpt lat="42.9013021" lon="12.0481199"><ele>352.33333333333337</ele><time>2026-04-19T07:30:21.127Z</time></trkpt><trkpt lat="42.9013874" lon="12.047858"><ele>351.6666666666667</ele><time>2026-04-19T07:30:22.114Z</time></trkpt><trkpt lat="42.9014288" lon="12.0476016"><ele>351.0</ele><time>2026-04-19T07:30:23.106Z</time></trkpt><trkpt lat="42.9014105" lon="12.047361"><ele>347.3333333333333</ele><time>2026-04-19T07:30:24.089Z</time></trkpt><trkpt lat="42.9013404" lon="12.0471538"><ele>343.66666666666663</ele><time>2026-04-19T07:30:25.12Z</time></trkpt><trkpt lat="42.9012415" lon="12.0469431"><ele>340.0</ele><time>2026-04-19T07:30:26.115Z</time></trkpt><trkpt lat="42.9011296" lon="12.0467146"><ele>341.3333333333333</ele><time>2026-04-19T07:30:27.099Z</time></trkpt><trkpt lat="42.9010152" lon="12.0464636"><ele>342.6666666666667</ele><time>2026-04-19T07:30:28.104Z</time></trkpt><trkpt lat="42.9009135" lon="12.0461825"><ele>344.0</ele><time>2026-04-19T07:30:29.106Z</time></trkpt><trkpt lat="42.9008182" lon="12.0458831"><ele>338.5</ele><time>2026-04-19T07:30:30.121Z</time></trkpt><trkpt lat="42.9006973" lon="12.0455942"><ele>333.0</ele><time>2026-04-19T07:30:31.099Z</time></trkpt><trkpt lat="42.9005715" lon="12.0453161"><ele>333.0</ele><time>2026-04-19T07:30:32.111Z</time></trkpt><trkpt lat="42.900453" lon="12.0450538"><ele>333.0</ele><time>2026-04-19T07:30:33.12Z</time></trkpt><trkpt lat="42.9003648" lon="12.0448052"><ele>333.0</ele><time>2026-04-19T07:30:34.091Z</time></trkpt><trkpt lat="42.9002811" lon="12.0445805"><ele>333.0</ele><time>2026-04-19T07:30:35.113Z</time></trkpt><trkpt lat="42.9001757" lon="12.0443968"><ele>333.0</ele><time>2026-04-19T07:30:36.117Z</time></trkpt><trkpt lat="42.9000378" lon="12.0442498"><ele>333.0</ele><time>2026-04-19T07:30:37.105Z</time></trkpt><trkpt lat="42.8998899" lon="12.0441234"><ele>333.0</ele><time>2026-04-19T07:30:38.09Z</time></trkpt><trkpt lat="42.8997303" lon="12.043998"><ele>333.0</ele><time>2026-04-19T07:30:39.108Z</time></trkpt><trkpt lat="42.8995725" lon="12.0438604"><ele>333.0</ele><time>2026-04-19T07:30:40.099Z</time></trkpt><trkpt lat="42.8994084" lon="12.0437135"><ele>334.3333333333333</ele><time>2026-04-19T07:30:41.11Z</time></trkpt><trkpt lat="42.8992497" lon="12.0435863"><ele>335.66666666666663</ele><time>2026-04-19T07:30:42.095Z</time></trkpt><trkpt lat="42.8991037" lon="12.0434862"><ele>337.0</ele><time>2026-04-19T07:30:43.106Z</time></trkpt><trkpt lat="42.8989867" lon="12.0433843"><ele>334.25</ele><time>2026-04-19T07:30:44.108Z</time></trkpt><trkpt lat="42.8988763" lon="12.0432732"><ele>331.5</ele><time>2026-04-19T07:30:45.114Z</time></trkpt><trkpt lat="42.8988147" lon="12.0430951"><ele>328.75</ele><time>2026-04-19T07:30:46.099Z</time></trkpt><trkpt lat="42.8987705" lon="12.0428968"><ele>326.0</ele><time>2026-04-19T07:30:47.111Z</time></trkpt><trkpt lat="42.8987424" lon="12.0426886"><ele>326.0</ele><time>2026-04-19T07:30:48.12Z</time></trkpt><trkpt lat="42.89874" lon="12.0425318"><ele>326.0</ele><time>2026-04-19T07:30:49.099Z</time></trkpt><trkpt lat="42.898784" lon="12.0424156"><ele>326.0</ele><time>2026-04-19T07:30:50.106Z</time></trkpt><trkpt lat="42.8988688" lon="12.0423633"><ele>326.0</ele><time>2026-04-19T07:30:51.108Z</time></trkpt><trkpt lat="42.8989607" lon="12.0423912"><ele>326.0</ele><time>2026-04-19T07:30:52.096Z</time></trkpt><trkpt lat="42.8990528" lon="12.0424934"><ele>326.0</ele><time>2026-04-19T07:30:53.102Z</time></trkpt><trkpt lat="42.8991473" lon="12.0426424"><ele>326.0</ele><time>2026-04-19T07:30:54.106Z</time></trkpt><trkpt lat="42.8992487" lon="12.042786"><ele>326.0</ele><time>2026-04-19T07:30:55.114Z</time></trkpt><trkpt lat="42.899356" lon="12.0428813"><ele>326.0</ele><time>2026-04-19T07:30:56.091Z</time></trkpt><trkpt lat="42.8994637" lon="12.0429"><ele>325.75</ele><time>2026-04-19T07:30:57.107Z</time></trkpt><trkpt lat="42.8995622" lon="12.0428381"><ele>325.5</ele><time>2026-04-19T07:30:58.099Z</time></trkpt><trkpt lat="42.8996398" lon="12.0427051"><ele>325.25</ele><time>2026-04-19T07:30:59.103Z</time></trkpt><trkpt lat="42.8997309" lon="12.0425659"><ele>325.0</ele><time>2026-04-19T07:31:00.12Z</time></trkpt><trkpt lat="42.8997601" lon="12.042337"><ele>321.66666666666663</ele><time>2026-04-19T07:31:01.091Z</time></trkpt><trkpt lat="42.8997927" lon="12.0420869"><ele>318.3333333333333</ele><time>2026-04-19T07:31:02.099Z</time></trkpt><trkpt lat="42.8998249" lon="12.0418268"><ele>315.0</ele><time>2026-04-19T07:31:03.099Z</time></trkpt><trkpt lat="42.8998341" lon="12.0415677"><ele>311.3333333333333</ele><time>2026-04-19T07:31:04.113Z</time></trkpt><trkpt lat="42.8998137" lon="12.041313"><ele>307.66666666666663</ele><time>2026-04-19T07:31:05.107Z</time></trkpt><trkpt lat="42.8997439" lon="12.0410824"><ele>304.0</ele><time>2026-04-19T07:31:06.131Z</time></trkpt><trkpt lat="42.8996354" lon="12.0408732"><ele>302.66666666666663</ele><time>2026-04-19T07:31:07.108Z</time></trkpt><trkpt lat="42.8994879" lon="12.0406862"><ele>301.3333333333333</ele><time>2026-04-19T07:31:08.101Z</time></trkpt><trkpt lat="42.8993198" lon="12.0404911"><ele>300.0</ele><time>2026-04-19T07:31:09.094Z</time></trkpt><trkpt lat="42.8991578" lon="12.0402751"><ele>301.5</ele><time>2026-04-19T07:31:10.112Z</time></trkpt><trkpt lat="42.8990127" lon="12.0400319"><ele>303.0</ele><time>2026-04-19T07:31:11.103Z</time></trkpt><trkpt lat="42.8988791" lon="12.03977"><ele>303.0</ele><time>2026-04-19T07:31:12.106Z</time></trkpt><trkpt lat="42.8987415" lon="12.0395204"><ele>303.0</ele><time>2026-04-19T07:31:13.107Z</time></trkpt><trkpt lat="42.8985992" lon="12.0393017"><ele>303.0</ele><time>2026-04-19T07:31:14.099Z</time></trkpt><trkpt lat="42.8984594" lon="12.0391242"><ele>299.5</ele><time>2026-04-19T07:31:15.103Z</time></trkpt><trkpt lat="42.8983294" lon="12.0389855"><ele>296.0</ele><time>2026-04-19T07:31:16.105Z</time></trkpt><trkpt lat="42.898213" lon="12.0388749"><ele>292.5</ele><time>2026-04-19T07:31:17.098Z</time></trkpt><trkpt lat="42.8981302" lon="12.0387575"><ele>289.0</ele><time>2026-04-19T07:31:18.097Z</time></trkpt><trkpt lat="42.8980968" lon="12.0386277"><ele>289.0</ele><time>2026-04-19T07:31:19.122Z</time></trkpt><trkpt lat="42.8981241" lon="12.0385093"><ele>289.0</ele><time>2026-04-19T07:31:20.104Z</time></trkpt><trkpt lat="42.8982112" lon="12.0384337"><ele>289.0</ele><time>2026-04-19T07:31:21.108Z</time></trkpt><trkpt lat="42.8983417" lon="12.0383993"><ele>289.0</ele><time>2026-04-19T07:31:22.111Z</time></trkpt><trkpt lat="42.8984965" lon="12.0383962"><ele>289.3333333333333</ele><time>2026-04-19T07:31:23.101Z</time></trkpt><trkpt lat="42.89867" lon="12.0384061"><ele>289.6666666666667</ele><time>2026-04-19T07:31:24.095Z</time></trkpt><trkpt lat="42.8988512" lon="12.0384255"><ele>290.0</ele><time>2026-04-19T07:31:25.093Z</time></trkpt><trkpt lat="42.8990233" lon="12.0384235"><ele>290.0</ele><time>2026-04-19T07:31:26.117Z</time></trkpt><trkpt lat="42.8991943" lon="12.0383951"><ele>290.0</ele><time>2026-04-19T07:31:27.093Z</time></trkpt><trkpt lat="42.8993434" lon="12.0383133"><ele>290.0</ele><time>2026-04-19T07:31:28.108Z</time></trkpt><trkpt lat="42.8994751" lon="12.0381849"><ele>285.5</ele><time>2026-04-19T07:31:29.12Z</time></trkpt><trkpt lat="42.8995671" lon="12.0380192"><ele>281.0</ele><time>2026-04-19T07:31:30.097Z</time></trkpt><trkpt lat="42.8996286" lon="12.037834"><ele>276.5</ele><time>2026-04-19T07:31:31.091Z</time></trkpt><trkpt lat="42.8996402" lon="12.0376497"><ele>272.0</ele><time>2026-04-19T07:31:32.098Z</time></trkpt><trkpt lat="42.8996099" lon="12.0374801"><ele>271.25</ele><time>2026-04-19T07:31:33.105Z</time></trkpt><trkpt lat="42.8995738" lon="12.0373257"><ele>270.5</ele><time>2026-04-19T07:31:34.108Z</time></trkpt><trkpt lat="42.8994761" lon="12.0372162"><ele>269.75</ele><time>2026-04-19T07:31:35.099Z</time></trkpt><trkpt lat="42.8993597" lon="12.0371631"><ele>269.0</ele><time>2026-04-19T07:31:36.13Z</time></trkpt><trkpt lat="42.8992337" lon="12.0371388"><ele>269.0</ele><time>2026-04-19T07:31:37.104Z</time></trkpt><trkpt lat="42.8991277" lon="12.037223"><ele>269.0</ele><time>2026-04-19T07:31:38.096Z</time></trkpt><trkpt lat="42.8990431" lon="12.0373486"><ele>269.0</ele><time>2026-04-19T07:31:39.099Z</time></trkpt><trkpt lat="42.8989481" lon="12.037494"><ele>269.0</ele><time>2026-04-19T07:31:40.083Z</time></trkpt><trkpt lat="42.8988389" lon="12.037641"><ele>271.33333333333337</ele><time>2026-04-19T07:31:41.087Z</time></trkpt><trkpt lat="42.8986938" lon="12.0377376"><ele>273.6666666666667</ele><time>2026-04-19T07:31:42.087Z</time></trkpt><trkpt lat="42.8985283" lon="12.0377787"><ele>276.0</ele><time>2026-04-19T07:31:43.11Z</time></trkpt><trkpt lat="42.8983507" lon="12.0377884"><ele>276.0</ele><time>2026-04-19T07:31:44.098Z</time></trkpt><trkpt lat="42.8981705" lon="12.0377496"><ele>276.0</ele><time>2026-04-19T07:31:45.118Z</time></trkpt><trkpt lat="42.8979892" lon="12.0377006"><ele>276.0</ele><time>2026-04-19T07:31:46.1Z</time></trkpt><trkpt lat="42.8977877" lon="12.0376573"><ele>276.0</ele><time>2026-04-19T07:31:47.114Z</time></trkpt><trkpt lat="42.8975871" lon="12.037655"><ele>276.0</ele><time>2026-04-19T07:31:48.111Z</time></trkpt><trkpt lat="42.897398" lon="12.0376943"><ele>276.0</ele><time>2026-04-19T07:31:49.113Z</time></trkpt><trkpt lat="42.8972139" lon="12.0377618"><ele>274.3333333333333</ele><time>2026-04-19T07:31:50.119Z</time></trkpt><trkpt lat="42.8970258" lon="12.037817"><ele>272.66666666666663</ele><time>2026-04-19T07:31:51.089Z</time></trkpt><trkpt lat="42.8968596" lon="12.037832"><ele>271.0</ele><time>2026-04-19T07:31:52.083Z</time></trkpt><trkpt lat="42.896684" lon="12.0378043"><ele>269.0</ele><time>2026-04-19T07:31:53.108Z</time></trkpt><trkpt lat="42.8964984" lon="12.0377651"><ele>267.0</ele><time>2026-04-19T07:31:54.093Z</time></trkpt><trkpt lat="42.8963216" lon="12.0377337"><ele>265.0</ele><time>2026-04-19T07:31:55.084Z</time></trkpt><trkpt lat="42.8961541" lon="12.037792"><ele>265.0</ele><time>2026-04-19T07:31:56.103Z</time></trkpt><trkpt lat="42.8959925" lon="12.037877"><ele>265.0</ele><time>2026-04-19T07:31:57.114Z</time></trkpt><trkpt lat="42.8958518" lon="12.0379634"><ele>265.0</ele><time>2026-04-19T07:31:58.1Z</time></trkpt><trkpt lat="42.895705" lon="12.037952"><ele>263.0</ele><time>2026-04-19T07:31:59.13Z</time></trkpt><trkpt lat="42.8955476" lon="12.0378911"><ele>261.0</ele><time>2026-04-19T07:32:00.105Z</time></trkpt><trkpt lat="42.8953831" lon="12.0378072"><ele>259.0</ele><time>2026-04-19T07:32:01.105Z</time></trkpt><trkpt lat="42.8952004" lon="12.0377191"><ele>258.66666666666663</ele><time>2026-04-19T07:32:02.12Z</time></trkpt><trkpt lat="42.8950114" lon="12.037636"><ele>258.3333333333333</ele><time>2026-04-19T07:32:03.112Z</time></trkpt><trkpt lat="42.8948169" lon="12.0375489"><ele>258.0</ele><time>2026-04-19T07:32:04.091Z</time></trkpt><trkpt lat="42.8946189" lon="12.037466"><ele>257.0</ele><time>2026-04-19T07:32:05.082Z</time></trkpt><trkpt lat="42.894423" lon="12.0373845"><ele>256.0</ele><time>2026-04-19T07:32:06.102Z</time></trkpt><trkpt lat="42.8942393" lon="12.0373005"><ele>255.0</ele><time>2026-04-19T07:32:07.126Z</time></trkpt><trkpt lat="42.8940729" lon="12.0372019"><ele>254.0</ele><time>2026-04-19T07:32:08.11Z</time></trkpt><trkpt lat="42.8939265" lon="12.0370753"><ele>253.0</ele><time>2026-04-19T07:32:09.103Z</time></trkpt><trkpt lat="42.8938012" lon="12.036928"><ele>252.0</ele><time>2026-04-19T07:32:10.102Z</time></trkpt><trkpt lat="42.8936924" lon="12.0367758"><ele>251.75</ele><time>2026-04-19T07:32:11.102Z</time></trkpt><trkpt lat="42.8935922" lon="12.0366249"><ele>251.5</ele><time>2026-04-19T07:32:12.123Z</time></trkpt><trkpt lat="42.893498" lon="12.0364838"><ele>251.25</ele><time>2026-04-19T07:32:13.106Z</time></trkpt><trkpt lat="42.893407" lon="12.0363555"><ele>251.0</ele><time>2026-04-19T07:32:14.103Z</time></trkpt><trkpt lat="42.8933173" lon="12.036241"><ele>250.60000000000002</ele><time>2026-04-19T07:32:15.116Z</time></trkpt><trkpt lat="42.8932287" lon="12.0361432"><ele>250.20000000000002</ele><time>2026-04-19T07:32:16.111Z</time></trkpt><trkpt lat="42.8931375" lon="12.0360697"><ele>249.79999999999998</ele><time>2026-04-19T07:32:17.128Z</time></trkpt><trkpt lat="42.8930386" lon="12.0360282"><ele>249.39999999999998</ele><time>2026-04-19T07:32:18.105Z</time></trkpt><trkpt lat="42.8929354" lon="12.0360259"><ele>249.0</ele><time>2026-04-19T07:32:19.099Z</time></trkpt><trkpt lat="42.8928387" lon="12.036054"><ele>249.0</ele><time>2026-04-19T07:32:20.101Z</time></trkpt><trkpt lat="42.8927452" lon="12.0360782"><ele>248.99999999999997</ele><time>2026-04-19T07:32:21.1Z</time></trkpt><trkpt lat="42.8926458" lon="12.0360656"><ele>248.99999999999997</ele><time>2026-04-19T07:32:22.1Z</time></trkpt><trkpt lat="42.8925512" lon="12.0359937"><ele>249.0</ele><time>2026-04-19T07:32:23.106Z</time></trkpt><trkpt lat="42.8924726" lon="12.0358853"><ele>249.0</ele><time>2026-04-19T07:32:24.1Z</time></trkpt><trkpt lat="42.8923974" lon="12.0357737"><ele>248.0</ele><time>2026-04-19T07:32:25.111Z</time></trkpt><trkpt lat="42.8923155" lon="12.0356702"><ele>247.0</ele><time>2026-04-19T07:32:26.109Z</time></trkpt><trkpt lat="42.8922196" lon="12.0355843"><ele>246.0</ele><time>2026-04-19T07:32:27.103Z</time></trkpt><trkpt lat="42.8921059" lon="12.0355378"><ele>245.0</ele><time>2026-04-19T07:32:28.094Z</time></trkpt><trkpt lat="42.8919829" lon="12.035547"><ele>245.0</ele><time>2026-04-19T07:32:29.102Z</time></trkpt><trkpt lat="42.8918511" lon="12.035617"><ele>245.0</ele><time>2026-04-19T07:32:30.107Z</time></trkpt><trkpt lat="42.8917049" lon="12.0357301"><ele>245.0</ele><time>2026-04-19T07:32:31.122Z</time></trkpt><trkpt lat="42.8915422" lon="12.035879"><ele>244.66666666666669</ele><time>2026-04-19T07:32:32.098Z</time></trkpt><trkpt lat="42.8913701" lon="12.0360607"><ele>244.33333333333331</ele><time>2026-04-19T07:32:33.11Z</time></trkpt><trkpt lat="42.891198" lon="12.0362626"><ele>244.0</ele><time>2026-04-19T07:32:34.104Z</time></trkpt><trkpt lat="42.8910215" lon="12.0364834"><ele>241.5</ele><time>2026-04-19T07:32:35.099Z</time></trkpt><trkpt lat="42.8908427" lon="12.0367096"><ele>239.0</ele><time>2026-04-19T07:32:36.095Z</time></trkpt><trkpt lat="42.8906562" lon="12.0369466"><ele>239.0</ele><time>2026-04-19T07:32:37.11Z</time></trkpt><trkpt lat="42.890464" lon="12.0371948"><ele>239.0</ele><time>2026-04-19T07:32:38.103Z</time></trkpt><trkpt lat="42.8902683" lon="12.037453"><ele>237.5</ele><time>2026-04-19T07:32:39.118Z</time></trkpt><trkpt lat="42.8900714" lon="12.037715"><ele>236.0</ele><time>2026-04-19T07:32:40.122Z</time></trkpt><trkpt lat="42.8898708" lon="12.0379734"><ele>236.0</ele><time>2026-04-19T07:32:41.104Z</time></trkpt><trkpt lat="42.8896629" lon="12.0382193"><ele>236.0</ele><time>2026-04-19T07:32:42.103Z</time></trkpt><trkpt lat="42.8894442" lon="12.0384424"><ele>235.0</ele><time>2026-04-19T07:32:43.117Z</time></trkpt><trkpt lat="42.889214" lon="12.0386361"><ele>234.0</ele><time>2026-04-19T07:32:44.106Z</time></trkpt><trkpt lat="42.888978" lon="12.0388079"><ele>234.0</ele><time>2026-04-19T07:32:45.1Z</time></trkpt><trkpt lat="42.888742" lon="12.038972"><ele>234.0</ele><time>2026-04-19T07:32:46.101Z</time></trkpt><trkpt lat="42.8885079" lon="12.0391342"><ele>235.0</ele><time>2026-04-19T07:32:47.096Z</time></trkpt><trkpt lat="42.8882739" lon="12.0392939"><ele>236.0</ele><time>2026-04-19T07:32:48.111Z</time></trkpt><trkpt lat="42.8880379" lon="12.0394557"><ele>236.0</ele><time>2026-04-19T07:32:49.121Z</time></trkpt><trkpt lat="42.8878012" lon="12.0396206"><ele>236.0</ele><time>2026-04-19T07:32:50.115Z</time></trkpt><trkpt lat="42.8875655" lon="12.0397864"><ele>236.5</ele><time>2026-04-19T07:32:51.117Z</time></trkpt><trkpt lat="42.8873311" lon="12.039949"><ele>237.0</ele><time>2026-04-19T07:32:52.088Z</time></trkpt><trkpt lat="42.8871049" lon="12.0400962"><ele>239.5</ele><time>2026-04-19T07:32:53.116Z</time></trkpt><trkpt lat="42.8868866" lon="12.0402133"><ele>242.0</ele><time>2026-04-19T07:32:54.119Z</time></trkpt><trkpt lat="42.8866695" lon="12.0402825"><ele>242.0</ele><time>2026-04-19T07:32:55.092Z</time></trkpt><trkpt lat="42.8864471" lon="12.0402961"><ele>242.0</ele><time>2026-04-19T07:32:56.087Z</time></trkpt><trkpt lat="42.8862202" lon="12.0402587"><ele>242.0</ele><time>2026-04-19T07:32:57.099Z</time></trkpt><trkpt lat="42.8860017" lon="12.0402104"><ele>242.0</ele><time>2026-04-19T07:32:58.119Z</time></trkpt><trkpt lat="42.8857866" lon="12.0401812"><ele>242.0</ele><time>2026-04-19T07:32:59.096Z</time></trkpt><trkpt lat="42.8855771" lon="12.0402061"><ele>244.0</ele><time>2026-04-19T07:33:00.116Z</time></trkpt><trkpt lat="42.8853631" lon="12.0402978"><ele>246.0</ele><time>2026-04-19T07:33:01.096Z</time></trkpt><trkpt lat="42.8851505" lon="12.0404175"><ele>244.0</ele><time>2026-04-19T07:33:02.092Z</time></trkpt><trkpt lat="42.8849264" lon="12.0405543"><ele>242.0</ele><time>2026-04-19T07:33:03.081Z</time></trkpt><trkpt lat="42.8846939" lon="12.0406958"><ele>243.0</ele><time>2026-04-19T07:33:04.103Z</time></trkpt><trkpt lat="42.8844556" lon="12.040837"><ele>244.0</ele><time>2026-04-19T07:33:05.092Z</time></trkpt><trkpt lat="42.8842182" lon="12.0409758"><ele>244.0</ele><time>2026-04-19T07:33:06.088Z</time></trkpt><trkpt lat="42.8839791" lon="12.0411092"><ele>244.0</ele><time>2026-04-19T07:33:07.123Z</time></trkpt><trkpt lat="42.8837392" lon="12.0412382"><ele>244.0</ele><time>2026-04-19T07:33:08.092Z</time></trkpt><trkpt lat="42.8834988" lon="12.0413642"><ele>244.0</ele><time>2026-04-19T07:33:09.109Z</time></trkpt><trkpt lat="42.8832587" lon="12.0414899"><ele>241.5</ele><time>2026-04-19T07:33:10.121Z</time></trkpt><trkpt lat="42.8830212" lon="12.0416153"><ele>239.0</ele><time>2026-04-19T07:33:11.099Z</time></trkpt><trkpt lat="42.8827885" lon="12.0417405"><ele>241.0</ele><time>2026-04-19T07:33:12.104Z</time></trkpt><trkpt lat="42.8825608" lon="12.0418678"><ele>243.0</ele><time>2026-04-19T07:33:13.118Z</time></trkpt><trkpt lat="42.8823368" lon="12.0419955"><ele>243.0</ele><time>2026-04-19T07:33:14.1Z</time></trkpt><trkpt lat="42.8821165" lon="12.0421224"><ele>243.0</ele><time>2026-04-19T07:33:15.092Z</time></trkpt><trkpt lat="42.8818997" lon="12.0422499"><ele>245.0</ele><time>2026-04-19T07:33:16.096Z</time></trkpt><trkpt lat="42.8816852" lon="12.0423761"><ele>247.0</ele><time>2026-04-19T07:33:17.104Z</time></trkpt><trkpt lat="42.881473" lon="12.0425002"><ele>247.0</ele><time>2026-04-19T07:33:18.1Z</time></trkpt><trkpt lat="42.881263" lon="12.0426177"><ele>247.0</ele><time>2026-04-19T07:33:19.109Z</time></trkpt><trkpt lat="42.8810599" lon="12.0427295"><ele>247.0</ele><time>2026-04-19T07:33:20.114Z</time></trkpt><trkpt lat="42.8808662" lon="12.0428357"><ele>244.33333333333331</ele><time>2026-04-19T07:33:21.1Z</time></trkpt><trkpt lat="42.8806874" lon="12.0429391"><ele>241.66666666666669</ele><time>2026-04-19T07:33:22.103Z</time></trkpt><trkpt lat="42.8805272" lon="12.0430253"><ele>239.0</ele><time>2026-04-19T07:33:23.078Z</time></trkpt><trkpt lat="42.8803891" lon="12.0431049"><ele>239.0</ele><time>2026-04-19T07:33:24.106Z</time></trkpt><trkpt lat="42.8802696" lon="12.0431665"><ele>238.99999999999997</ele><time>2026-04-19T07:33:25.093Z</time></trkpt><trkpt lat="42.8801725" lon="12.0432126"><ele>238.99999999999997</ele><time>2026-04-19T07:33:26.101Z</time></trkpt><trkpt lat="42.8800878" lon="12.04324"><ele>239.0</ele><time>2026-04-19T07:33:27.089Z</time></trkpt><trkpt lat="42.8800092" lon="12.0432447"><ele>239.0</ele><time>2026-04-19T07:33:28.081Z</time></trkpt><trkpt lat="42.8799356" lon="12.0432459"><ele>238.83333333333334</ele><time>2026-04-19T07:33:29.09Z</time></trkpt><trkpt lat="42.8798712" lon="12.0432578"><ele>238.66666666666669</ele><time>2026-04-19T07:33:30.099Z</time></trkpt><trkpt lat="42.8797887" lon="12.0432888"><ele>238.5</ele><time>2026-04-19T07:33:32.092Z</time></trkpt><trkpt lat="42.8797176" lon="12.0433768"><ele>238.33333333333331</ele><time>2026-04-19T07:36:12.087Z</time></trkpt><trkpt lat="42.879648" lon="12.0434457"><ele>238.16666666666666</ele><time>2026-04-19T07:36:13.098Z</time></trkpt><trkpt lat="42.879554" lon="12.0435175"><ele>238.0</ele><time>2026-04-19T07:36:14.092Z</time></trkpt><trkpt lat="42.8794348" lon="12.043591"><ele>238.75</ele><time>2026-04-19T07:36:15.087Z</time></trkpt><trkpt lat="42.8793057" lon="12.0436636"><ele>239.5</ele><time>2026-04-19T07:36:16.083Z</time></trkpt><trkpt lat="42.8791718" lon="12.0437354"><ele>240.25</ele><time>2026-04-19T07:36:17.092Z</time></trkpt><trkpt lat="42.8790312" lon="12.0438116"><ele>241.0</ele><time>2026-04-19T07:36:18.098Z</time></trkpt><trkpt lat="42.8788876" lon="12.0438888"><ele>241.0</ele><time>2026-04-19T07:36:19.103Z</time></trkpt><trkpt lat="42.8787392" lon="12.0439684"><ele>241.0</ele><time>2026-04-19T07:36:20.084Z</time></trkpt><trkpt lat="42.8785893" lon="12.0440481"><ele>241.0</ele><time>2026-04-19T07:36:21.098Z</time></trkpt><trkpt lat="42.8784361" lon="12.0441262"><ele>242.0</ele><time>2026-04-19T07:36:22.098Z</time></trkpt><trkpt lat="42.8782803" lon="12.0441928"><ele>243.0</ele><time>2026-04-19T07:36:23.097Z</time></trkpt><trkpt lat="42.8781238" lon="12.0442339"><ele>244.0</ele><time>2026-04-19T07:36:24.088Z</time></trkpt><trkpt lat="42.8779701" lon="12.0442576"><ele>244.0</ele><time>2026-04-19T07:36:25.098Z</time></trkpt><trkpt lat="42.8778293" lon="12.0442306"><ele>244.0</ele><time>2026-04-19T07:36:26.089Z</time></trkpt><trkpt lat="42.877683" lon="12.0441726"><ele>244.0</ele><time>2026-04-19T07:36:27.089Z</time></trkpt><trkpt lat="42.8775386" lon="12.0441014"><ele>244.0</ele><time>2026-04-19T07:36:28.081Z</time></trkpt><trkpt lat="42.8773939" lon="12.044029"><ele>243.39999999999998</ele><time>2026-04-19T07:36:29.102Z</time></trkpt><trkpt lat="42.8772668" lon="12.0439548"><ele>242.79999999999998</ele><time>2026-04-19T07:36:30.081Z</time></trkpt><trkpt lat="42.8771528" lon="12.0438905"><ele>242.20000000000002</ele><time>2026-04-19T07:36:31.077Z</time></trkpt><trkpt lat="42.8770529" lon="12.0438153"><ele>241.60000000000002</ele><time>2026-04-19T07:36:32.101Z</time></trkpt><trkpt lat="42.8769912" lon="12.0437602"><ele>241.0</ele><time>2026-04-19T07:36:33.106Z</time></trkpt><trkpt lat="42.8769124" lon="12.0436775"><ele>241.0</ele><time>2026-04-19T07:36:35.099Z</time></trkpt><trkpt lat="42.8768348" lon="12.0435917"><ele>241.00000000000003</ele><time>2026-04-19T07:36:37.115Z</time></trkpt><trkpt lat="42.8767336" lon="12.0435357"><ele>241.00000000000003</ele><time>2026-04-19T07:36:39.12Z</time></trkpt><trkpt lat="42.876607" lon="12.0434985"><ele>241.0</ele><time>2026-04-19T07:36:41.115Z</time></trkpt><trkpt lat="42.8765228" lon="12.0434747"><ele>241.0</ele><time>2026-04-19T07:36:42.115Z</time></trkpt><trkpt lat="42.8764216" lon="12.0434398"><ele>241.25</ele><time>2026-04-19T07:36:43.11Z</time></trkpt><trkpt lat="42.8763137" lon="12.0433854"><ele>241.5</ele><time>2026-04-19T07:36:44.107Z</time></trkpt><trkpt lat="42.8762" lon="12.043316"><ele>241.75</ele><time>2026-04-19T07:36:45.108Z</time></trkpt><trkpt lat="42.8760781" lon="12.0432347"><ele>242.0</ele><time>2026-04-19T07:36:46.11Z</time></trkpt><trkpt lat="42.8759476" lon="12.0431479"><ele>242.33333333333334</ele><time>2026-04-19T07:36:47.096Z</time></trkpt><trkpt lat="42.8758098" lon="12.0430692"><ele>242.66666666666669</ele><time>2026-04-19T07:36:48.132Z</time></trkpt><trkpt lat="42.8756778" lon="12.0429699"><ele>243.0</ele><time>2026-04-19T07:36:49.11Z</time></trkpt><trkpt lat="42.8755346" lon="12.0428985"><ele>243.0</ele><time>2026-04-19T07:36:50.109Z</time></trkpt><trkpt lat="42.8753984" lon="12.0428231"><ele>243.0</ele><time>2026-04-19T07:36:51.118Z</time></trkpt><trkpt lat="42.8752722" lon="12.0427432"><ele>243.0</ele><time>2026-04-19T07:36:52.099Z</time></trkpt><trkpt lat="42.8751522" lon="12.0426603"><ele>243.0</ele><time>2026-04-19T07:36:53.111Z</time></trkpt><trkpt lat="42.8750314" lon="12.0425782"><ele>242.75</ele><time>2026-04-19T07:36:54.118Z</time></trkpt><trkpt lat="42.8749082" lon="12.0425037"><ele>242.5</ele><time>2026-04-19T07:36:55.105Z</time></trkpt><trkpt lat="42.8747804" lon="12.0424378"><ele>242.25</ele><time>2026-04-19T07:36:56.089Z</time></trkpt><trkpt lat="42.8746482" lon="12.042391"><ele>242.0</ele><time>2026-04-19T07:36:57.106Z</time></trkpt><trkpt lat="42.8745035" lon="12.0423648"><ele>241.33333333333334</ele><time>2026-04-19T07:36:58.112Z</time></trkpt><trkpt lat="42.87435" lon="12.0423487"><ele>240.66666666666669</ele><time>2026-04-19T07:36:59.094Z</time></trkpt><trkpt lat="42.874178" lon="12.0423365"><ele>240.0</ele><time>2026-04-19T07:37:00.114Z</time></trkpt><trkpt lat="42.8740142" lon="12.0423164"><ele>240.0</ele><time>2026-04-19T07:37:01.128Z</time></trkpt><trkpt lat="42.8738465" lon="12.0423059"><ele>240.0</ele><time>2026-04-19T07:37:02.101Z</time></trkpt><trkpt lat="42.8736817" lon="12.0422823"><ele>240.0</ele><time>2026-04-19T07:37:03.115Z</time></trkpt><trkpt lat="42.8735066" lon="12.0422716"><ele>240.0</ele><time>2026-04-19T07:37:04.121Z</time></trkpt><trkpt lat="42.8733264" lon="12.0422507"><ele>240.0</ele><time>2026-04-19T07:37:05.102Z</time></trkpt><trkpt lat="42.8731463" lon="12.0422333"><ele>240.0</ele><time>2026-04-19T07:37:06.114Z</time></trkpt><trkpt lat="42.8729648" lon="12.0422101"><ele>240.0</ele><time>2026-04-19T07:37:07.101Z</time></trkpt><trkpt lat="42.8727808" lon="12.0421923"><ele>240.0</ele><time>2026-04-19T07:37:08.096Z</time></trkpt><trkpt lat="42.8725967" lon="12.0421747"><ele>240.0</ele><time>2026-04-19T07:37:09.103Z</time></trkpt><trkpt lat="42.8724104" lon="12.0421553"><ele>239.66666666666669</ele><time>2026-04-19T07:37:10.095Z</time></trkpt><trkpt lat="42.8722236" lon="12.0421383"><ele>239.33333333333334</ele><time>2026-04-19T07:37:11.1Z</time></trkpt><trkpt lat="42.8720369" lon="12.0421194"><ele>239.0</ele><time>2026-04-19T07:37:12.107Z</time></trkpt><trkpt lat="42.8718495" lon="12.0420975"><ele>238.66666666666669</ele><time>2026-04-19T07:37:13.13Z</time></trkpt><trkpt lat="42.871661" lon="12.0420785"><ele>238.33333333333331</ele><time>2026-04-19T07:37:14.105Z</time></trkpt><trkpt lat="42.8714591" lon="12.0420632"><ele>238.0</ele><time>2026-04-19T07:37:15.118Z</time></trkpt><trkpt lat="42.871247" lon="12.0420704"><ele>238.0</ele><time>2026-04-19T07:37:16.118Z</time></trkpt><trkpt lat="42.8710242" lon="12.0421027"><ele>238.0</ele><time>2026-04-19T07:37:17.105Z</time></trkpt><trkpt lat="42.8708063" lon="12.0421895"><ele>238.0</ele><time>2026-04-19T07:37:18.086Z</time></trkpt><trkpt lat="42.8705861" lon="12.0423281"><ele>238.0</ele><time>2026-04-19T07:37:19.123Z</time></trkpt><trkpt lat="42.8703689" lon="12.0424997"><ele>238.0</ele><time>2026-04-19T07:37:20.102Z</time></trkpt><trkpt lat="42.8701516" lon="12.0427043"><ele>238.0</ele><time>2026-04-19T07:37:21.119Z</time></trkpt><trkpt lat="42.8699389" lon="12.0429281"><ele>238.5</ele><time>2026-04-19T07:37:22.115Z</time></trkpt><trkpt lat="42.869747" lon="12.043184"><ele>239.0</ele><time>2026-04-19T07:37:23.112Z</time></trkpt><trkpt lat="42.8695811" lon="12.0434682"><ele>237.5</ele><time>2026-04-19T07:37:24.099Z</time></trkpt><trkpt lat="42.8694435" lon="12.0437845"><ele>236.0</ele><time>2026-04-19T07:37:25.113Z</time></trkpt><trkpt lat="42.8693357" lon="12.0441292"><ele>236.0</ele><time>2026-04-19T07:37:26.102Z</time></trkpt><trkpt lat="42.8692459" lon="12.0444912"><ele>236.0</ele><time>2026-04-19T07:37:27.102Z</time></trkpt><trkpt lat="42.8691671" lon="12.0448588"><ele>235.5</ele><time>2026-04-19T07:37:28.085Z</time></trkpt><trkpt lat="42.8690943" lon="12.0452198"><ele>235.0</ele><time>2026-04-19T07:37:29.126Z</time></trkpt><trkpt lat="42.8690095" lon="12.0455564"><ele>235.0</ele><time>2026-04-19T07:37:30.124Z</time></trkpt><trkpt lat="42.8689057" lon="12.0458603"><ele>235.0</ele><time>2026-04-19T07:37:31.123Z</time></trkpt><trkpt lat="42.8687707" lon="12.04613"><ele>235.0</ele><time>2026-04-19T07:37:32.108Z</time></trkpt><trkpt lat="42.8685997" lon="12.0463648"><ele>235.0</ele><time>2026-04-19T07:37:33.107Z</time></trkpt><trkpt lat="42.8683985" lon="12.0465855"><ele>235.5</ele><time>2026-04-19T07:37:34.115Z</time></trkpt><trkpt lat="42.8681793" lon="12.0468114"><ele>236.0</ele><time>2026-04-19T07:37:35.108Z</time></trkpt><trkpt lat="42.8679483" lon="12.0470479"><ele>236.0</ele><time>2026-04-19T07:37:36.109Z</time></trkpt><trkpt lat="42.8677111" lon="12.0472905"><ele>236.0</ele><time>2026-04-19T07:37:37.105Z</time></trkpt><trkpt lat="42.8674713" lon="12.0475313"><ele>236.0</ele><time>2026-04-19T07:37:38.128Z</time></trkpt><trkpt lat="42.8672293" lon="12.0477693"><ele>236.0</ele><time>2026-04-19T07:37:39.085Z</time></trkpt><trkpt lat="42.8669846" lon="12.0480026"><ele>235.5</ele><time>2026-04-19T07:37:40.094Z</time></trkpt><trkpt lat="42.8667368" lon="12.0482238"><ele>235.0</ele><time>2026-04-19T07:37:41.085Z</time></trkpt><trkpt lat="42.8664884" lon="12.0484241"><ele>235.0</ele><time>2026-04-19T07:37:42.109Z</time></trkpt><trkpt lat="42.8662502" lon="12.0486086"><ele>235.0</ele><time>2026-04-19T07:37:43.103Z</time></trkpt><trkpt lat="42.8660278" lon="12.0487916"><ele>235.5</ele><time>2026-04-19T07:37:44.104Z</time></trkpt><trkpt lat="42.8658146" lon="12.0489879"><ele>236.0</ele><time>2026-04-19T07:37:45.11Z</time></trkpt><trkpt lat="42.8656053" lon="12.049196"><ele>236.5</ele><time>2026-04-19T07:37:46.086Z</time></trkpt><trkpt lat="42.8653988" lon="12.0494147"><ele>237.0</ele><time>2026-04-19T07:37:47.088Z</time></trkpt><trkpt lat="42.8651929" lon="12.0496435"><ele>238.5</ele><time>2026-04-19T07:37:48.091Z</time></trkpt><trkpt lat="42.8649881" lon="12.0498829"><ele>240.0</ele><time>2026-04-19T07:37:49.098Z</time></trkpt><trkpt lat="42.8647896" lon="12.0501354"><ele>240.5</ele><time>2026-04-19T07:37:50.108Z</time></trkpt><trkpt lat="42.8645989" lon="12.0503973"><ele>241.0</ele><time>2026-04-19T07:37:51.096Z</time></trkpt><trkpt lat="42.8644155" lon="12.0506628"><ele>243.5</ele><time>2026-04-19T07:37:52.101Z</time></trkpt><trkpt lat="42.8642443" lon="12.0509158"><ele>246.0</ele><time>2026-04-19T07:37:53.118Z</time></trkpt><trkpt lat="42.8640821" lon="12.0511487"><ele>246.0</ele><time>2026-04-19T07:37:54.122Z</time></trkpt><trkpt lat="42.8639178" lon="12.0513495"><ele>246.0</ele><time>2026-04-19T07:37:55.109Z</time></trkpt><trkpt lat="42.8637432" lon="12.0515094"><ele>246.0</ele><time>2026-04-19T07:37:56.106Z</time></trkpt><trkpt lat="42.8635664" lon="12.0516271"><ele>247.33333333333331</ele><time>2026-04-19T07:37:57.103Z</time></trkpt><trkpt lat="42.863394" lon="12.0517064"><ele>248.66666666666666</ele><time>2026-04-19T07:37:58.095Z</time></trkpt><trkpt lat="42.8632287" lon="12.0517264"><ele>250.0</ele><time>2026-04-19T07:37:59.087Z</time></trkpt><trkpt lat="42.8630846" lon="12.0516715"><ele>248.66666666666666</ele><time>2026-04-19T07:38:00.101Z</time></trkpt><trkpt lat="42.862972" lon="12.051544"><ele>247.33333333333331</ele><time>2026-04-19T07:38:01.119Z</time></trkpt><trkpt lat="42.8628931" lon="12.0513578"><ele>246.0</ele><time>2026-04-19T07:38:02.114Z</time></trkpt><trkpt lat="42.8628517" lon="12.0511324"><ele>246.0</ele><time>2026-04-19T07:38:03.119Z</time></trkpt><trkpt lat="42.8628161" lon="12.0508959"><ele>246.0</ele><time>2026-04-19T07:38:04.105Z</time></trkpt><trkpt lat="42.8627537" lon="12.0507116"><ele>246.0</ele><time>2026-04-19T07:38:05.085Z</time></trkpt><trkpt lat="42.8626528" lon="12.0505777"><ele>247.66666666666669</ele><time>2026-04-19T07:38:06.095Z</time></trkpt><trkpt lat="42.8625307" lon="12.0504434"><ele>249.33333333333334</ele><time>2026-04-19T07:38:07.081Z</time></trkpt><trkpt lat="42.8623546" lon="12.0504016"><ele>251.0</ele><time>2026-04-19T07:38:08.076Z</time></trkpt><trkpt lat="42.8621665" lon="12.0503507"><ele>251.0</ele><time>2026-04-19T07:38:09.088Z</time></trkpt><trkpt lat="42.8619714" lon="12.0502858"><ele>251.0</ele><time>2026-04-19T07:38:10.087Z</time></trkpt><trkpt lat="42.8617665" lon="12.0501824"><ele>251.0</ele><time>2026-04-19T07:38:11.1Z</time></trkpt><trkpt lat="42.8615566" lon="12.0500882"><ele>250.33333333333334</ele><time>2026-04-19T07:38:12.103Z</time></trkpt><trkpt lat="42.8613496" lon="12.0499961"><ele>249.66666666666669</ele><time>2026-04-19T07:38:13.084Z</time></trkpt><trkpt lat="42.8611387" lon="12.0499346"><ele>249.0</ele><time>2026-04-19T07:38:14.106Z</time></trkpt><trkpt lat="42.8609574" lon="12.0498466"><ele>252.33333333333331</ele><time>2026-04-19T07:38:15.084Z</time></trkpt><trkpt lat="42.8607946" lon="12.0497572"><ele>255.66666666666666</ele><time>2026-04-19T07:38:16.098Z</time></trkpt><trkpt lat="42.8606253" lon="12.0496987"><ele>259.0</ele><time>2026-04-19T07:38:17.116Z</time></trkpt><trkpt lat="42.8604649" lon="12.0497443"><ele>259.0</ele><time>2026-04-19T07:38:18.091Z</time></trkpt><trkpt lat="42.860302" lon="12.0498469"><ele>259.0</ele><time>2026-04-19T07:38:19.096Z</time></trkpt><trkpt lat="42.8601401" lon="12.0499801"><ele>259.0</ele><time>2026-04-19T07:38:20.089Z</time></trkpt><trkpt lat="42.8599629" lon="12.0501215"><ele>266.0</ele><time>2026-04-19T07:38:21.112Z</time></trkpt><trkpt lat="42.8597569" lon="12.0501801"><ele>273.0</ele><time>2026-04-19T07:38:22.095Z</time></trkpt><trkpt lat="42.8595346" lon="12.0501978"><ele>280.0</ele><time>2026-04-19T07:38:23.097Z</time></trkpt><trkpt lat="42.8593044" lon="12.0502134"><ele>281.0</ele><time>2026-04-19T07:38:24.112Z</time></trkpt><trkpt lat="42.8590742" lon="12.0502555"><ele>282.0</ele><time>2026-04-19T07:38:25.093Z</time></trkpt><trkpt lat="42.8588493" lon="12.0503178"><ele>282.0</ele><time>2026-04-19T07:38:26.097Z</time></trkpt><trkpt lat="42.858627" lon="12.0503783"><ele>282.0</ele><time>2026-04-19T07:38:27.098Z</time></trkpt><trkpt lat="42.8584159" lon="12.0504455"><ele>282.0</ele><time>2026-04-19T07:38:28.088Z</time></trkpt><trkpt lat="42.8582127" lon="12.0505362"><ele>281.6666666666667</ele><time>2026-04-19T07:38:29.112Z</time></trkpt><trkpt lat="42.8580494" lon="12.050715"><ele>281.33333333333337</ele><time>2026-04-19T07:38:30.085Z</time></trkpt><trkpt lat="42.8578819" lon="12.0508904"><ele>281.0</ele><time>2026-04-19T07:38:31.087Z</time></trkpt><trkpt lat="42.8577248" lon="12.0510764"><ele>282.0</ele><time>2026-04-19T07:38:32.071Z</time></trkpt><trkpt lat="42.8576277" lon="12.0512048"><ele>283.0</ele><time>2026-04-19T07:38:33.077Z</time></trkpt><trkpt lat="42.8575722" lon="12.0513397"><ele>284.0</ele><time>2026-04-19T07:38:34.104Z</time></trkpt><trkpt lat="42.8575828" lon="12.0514583"><ele>285.0</ele><time>2026-04-19T07:38:35.081Z</time></trkpt><trkpt lat="42.8576442" lon="12.0515434"><ele>286.0</ele><time>2026-04-19T07:38:36.088Z</time></trkpt><trkpt lat="42.8577288" lon="12.0515551"><ele>289.0</ele><time>2026-04-19T07:38:37.085Z</time></trkpt><trkpt lat="42.8578377" lon="12.051535"><ele>292.0</ele><time>2026-04-19T07:38:38.081Z</time></trkpt><trkpt lat="42.8579538" lon="12.0514186"><ele>295.0</ele><time>2026-04-19T07:38:39.09Z</time></trkpt><trkpt lat="42.8580483" lon="12.0512654"><ele>298.0</ele><time>2026-04-19T07:38:40.088Z</time></trkpt><trkpt lat="42.858151" lon="12.0511049"><ele>298.0</ele><time>2026-04-19T07:38:41.091Z</time></trkpt><trkpt lat="42.858253" lon="12.0509582"><ele>298.0</ele><time>2026-04-19T07:38:42.081Z</time></trkpt><trkpt lat="42.8583863" lon="12.0509248"><ele>298.0</ele><time>2026-04-19T07:38:43.115Z</time></trkpt><trkpt lat="42.8585249" lon="12.0509739"><ele>298.0</ele><time>2026-04-19T07:38:44.082Z</time></trkpt><trkpt lat="42.8586961" lon="12.051079"><ele>298.3333333333333</ele><time>2026-04-19T07:38:45.088Z</time></trkpt><trkpt lat="42.8588719" lon="12.0511898"><ele>298.6666666666667</ele><time>2026-04-19T07:38:46.094Z</time></trkpt><trkpt lat="42.8590527" lon="12.0513065"><ele>299.0</ele><time>2026-04-19T07:38:47.076Z</time></trkpt><trkpt lat="42.8592471" lon="12.0513498"><ele>299.5</ele><time>2026-04-19T07:38:48.097Z</time></trkpt><trkpt lat="42.8594146" lon="12.0513673"><ele>300.0</ele><time>2026-04-19T07:38:49.11Z</time></trkpt><trkpt lat="42.8595414" lon="12.0513972"><ele>300.5</ele><time>2026-04-19T07:38:50.091Z</time></trkpt><trkpt lat="42.8596199" lon="12.0514744"><ele>301.0</ele><time>2026-04-19T07:38:51.089Z</time></trkpt><trkpt lat="42.8596358" lon="12.0515749"><ele>302.5</ele><time>2026-04-19T07:38:52.087Z</time></trkpt><trkpt lat="42.8595885" lon="12.0516693"><ele>304.0</ele><time>2026-04-19T07:38:53.11Z</time></trkpt><trkpt lat="42.8594892" lon="12.0517453"><ele>305.5</ele><time>2026-04-19T07:38:54.102Z</time></trkpt><trkpt lat="42.8593452" lon="12.051821"><ele>307.0</ele><time>2026-04-19T07:38:55.095Z</time></trkpt><trkpt lat="42.8591872" lon="12.0519006"><ele>309.0</ele><time>2026-04-19T07:38:56.094Z</time></trkpt><trkpt lat="42.8590046" lon="12.0519816"><ele>311.0</ele><time>2026-04-19T07:38:57.084Z</time></trkpt><trkpt lat="42.8588103" lon="12.0520476"><ele>313.0</ele><time>2026-04-19T07:38:58.117Z</time></trkpt><trkpt lat="42.8586083" lon="12.0521036"><ele>312.5</ele><time>2026-04-19T07:38:59.101Z</time></trkpt><trkpt lat="42.8583832" lon="12.0521299"><ele>312.0</ele><time>2026-04-19T07:39:00.104Z</time></trkpt><trkpt lat="42.8581621" lon="12.0522166"><ele>312.0</ele><time>2026-04-19T07:39:01.124Z</time></trkpt><trkpt lat="42.857943" lon="12.0523679"><ele>312.0</ele><time>2026-04-19T07:39:02.092Z</time></trkpt><trkpt lat="42.8577443" lon="12.0525662"><ele>314.6666666666667</ele><time>2026-04-19T07:39:03.112Z</time></trkpt><trkpt lat="42.8575672" lon="12.0527718"><ele>317.33333333333337</ele><time>2026-04-19T07:39:04.097Z</time></trkpt><trkpt lat="42.8573912" lon="12.0529379"><ele>320.0</ele><time>2026-04-19T07:39:05.113Z</time></trkpt><trkpt lat="42.8571938" lon="12.0530536"><ele>320.0</ele><time>2026-04-19T07:39:06.091Z</time></trkpt><trkpt lat="42.8569844" lon="12.0531175"><ele>320.0</ele><time>2026-04-19T07:39:07.083Z</time></trkpt><trkpt lat="42.8567684" lon="12.0531727"><ele>320.0</ele><time>2026-04-19T07:39:08.081Z</time></trkpt><trkpt lat="42.8565459" lon="12.0531538"><ele>321.0</ele><time>2026-04-19T07:39:09.11Z</time></trkpt><trkpt lat="42.8563175" lon="12.0532113"><ele>322.0</ele><time>2026-04-19T07:39:10.089Z</time></trkpt><trkpt lat="42.8561144" lon="12.0533187"><ele>331.0</ele><time>2026-04-19T07:39:11.1Z</time></trkpt><trkpt lat="42.855952" lon="12.0534494"><ele>340.0</ele><time>2026-04-19T07:39:12.105Z</time></trkpt><trkpt lat="42.8558073" lon="12.0534977"><ele>349.0</ele><time>2026-04-19T07:39:13.094Z</time></trkpt><trkpt lat="42.8556926" lon="12.053466"><ele>349.0</ele><time>2026-04-19T07:39:14.091Z</time></trkpt><trkpt lat="42.8556045" lon="12.0533589"><ele>349.0</ele><time>2026-04-19T07:39:15.087Z</time></trkpt><trkpt lat="42.8555725" lon="12.0531959"><ele>349.0</ele><time>2026-04-19T07:39:16.093Z</time></trkpt><trkpt lat="42.8555911" lon="12.0529964"><ele>349.0</ele><time>2026-04-19T07:39:17.105Z</time></trkpt><trkpt lat="42.855614" lon="12.0527985"><ele>347.75</ele><time>2026-04-19T07:39:18.085Z</time></trkpt><trkpt lat="42.8556069" lon="12.0526123"><ele>346.5</ele><time>2026-04-19T07:39:19.093Z</time></trkpt><trkpt lat="42.8555421" lon="12.0524822"><ele>345.25</ele><time>2026-04-19T07:39:20.078Z</time></trkpt><trkpt lat="42.8554648" lon="12.0523857"><ele>344.0</ele><time>2026-04-19T07:39:21.109Z</time></trkpt><trkpt lat="42.8553634" lon="12.0523908"><ele>344.0</ele><time>2026-04-19T07:39:22.096Z</time></trkpt><trkpt lat="42.8552173" lon="12.0524948"><ele>344.0</ele><time>2026-04-19T07:39:23.076Z</time></trkpt><trkpt lat="42.8550511" lon="12.0526142"><ele>344.0</ele><time>2026-04-19T07:39:24.084Z</time></trkpt><trkpt lat="42.8548717" lon="12.0527213"><ele>346.33333333333337</ele><time>2026-04-19T07:39:25.098Z</time></trkpt><trkpt lat="42.8546713" lon="12.0528389"><ele>348.6666666666667</ele><time>2026-04-19T07:39:26.094Z</time></trkpt><trkpt lat="42.8544772" lon="12.0528898"><ele>351.0</ele><time>2026-04-19T07:39:27.1Z</time></trkpt><trkpt lat="42.8543073" lon="12.0529322"><ele>351.5</ele><time>2026-04-19T07:39:28.125Z</time></trkpt><trkpt lat="42.8541749" lon="12.0529839"><ele>352.0</ele><time>2026-04-19T07:39:29.122Z</time></trkpt><trkpt lat="42.8541005" lon="12.0531232"><ele>352.5</ele><time>2026-04-19T07:39:30.07Z</time></trkpt><trkpt lat="42.8540957" lon="12.0532996"><ele>353.0</ele><time>2026-04-19T07:39:31.118Z</time></trkpt><trkpt lat="42.8541579" lon="12.0534722"><ele>354.33333333333337</ele><time>2026-04-19T07:39:32.097Z</time></trkpt><trkpt lat="42.8542653" lon="12.0536364"><ele>355.6666666666667</ele><time>2026-04-19T07:39:33.111Z</time></trkpt><trkpt lat="42.8543907" lon="12.0538047"><ele>357.0</ele><time>2026-04-19T07:39:34.103Z</time></trkpt><trkpt lat="42.8544939" lon="12.0539938"><ele>360.0</ele><time>2026-04-19T07:39:35.092Z</time></trkpt><trkpt lat="42.8545726" lon="12.0542188"><ele>363.0</ele><time>2026-04-19T07:39:36.108Z</time></trkpt><trkpt lat="42.8545967" lon="12.0544639"><ele>366.0</ele><time>2026-04-19T07:39:37.113Z</time></trkpt><trkpt lat="42.8546039" lon="12.0547058"><ele>366.0</ele><time>2026-04-19T07:39:38.113Z</time></trkpt><trkpt lat="42.8545144" lon="12.0549251"><ele>366.0</ele><time>2026-04-19T07:39:39.086Z</time></trkpt><trkpt lat="42.8544284" lon="12.0551345"><ele>366.0</ele><time>2026-04-19T07:39:40.094Z</time></trkpt><trkpt lat="42.8544138" lon="12.0553507"><ele>367.0</ele><time>2026-04-19T07:39:41.081Z</time></trkpt><trkpt lat="42.8544613" lon="12.0555488"><ele>368.0</ele><time>2026-04-19T07:39:42.079Z</time></trkpt><trkpt lat="42.8545778" lon="12.0557354"><ele>369.0</ele><time>2026-04-19T07:39:43.097Z</time></trkpt><trkpt lat="42.8546888" lon="12.0559289"><ele>369.0</ele><time>2026-04-19T07:39:44.095Z</time></trkpt><trkpt lat="42.8548812" lon="12.0561013"><ele>369.0</ele><time>2026-04-19T07:39:45.081Z</time></trkpt><trkpt lat="42.8550904" lon="12.0562585"><ele>367.5</ele><time>2026-04-19T07:39:46.106Z</time></trkpt><trkpt lat="42.8553037" lon="12.0563999"><ele>366.0</ele><time>2026-04-19T07:39:47.102Z</time></trkpt><trkpt lat="42.8555014" lon="12.0565156"><ele>366.0</ele><time>2026-04-19T07:39:48.098Z</time></trkpt><trkpt lat="42.8556813" lon="12.0566042"><ele>366.0</ele><time>2026-04-19T07:39:49.102Z</time></trkpt><trkpt lat="42.8558319" lon="12.0567153"><ele>366.0</ele><time>2026-04-19T07:39:50.098Z</time></trkpt><trkpt lat="42.8559425" lon="12.0568701"><ele>367.5</ele><time>2026-04-19T07:39:51.102Z</time></trkpt><trkpt lat="42.8559965" lon="12.0570676"><ele>369.0</ele><time>2026-04-19T07:39:52.103Z</time></trkpt><trkpt lat="42.8559822" lon="12.0572679"><ele>370.5</ele><time>2026-04-19T07:39:53.113Z</time></trkpt><trkpt lat="42.8558988" lon="12.057431"><ele>372.0</ele><time>2026-04-19T07:39:54.119Z</time></trkpt><trkpt lat="42.8557674" lon="12.0575456"><ele>374.0</ele><time>2026-04-19T07:39:55.123Z</time></trkpt><trkpt lat="42.8556034" lon="12.0576279"><ele>376.0</ele><time>2026-04-19T07:39:56.091Z</time></trkpt><trkpt lat="42.855413" lon="12.0576858"><ele>378.0</ele><time>2026-04-19T07:39:57.12Z</time></trkpt><trkpt lat="42.8552064" lon="12.0577392"><ele>378.6666666666667</ele><time>2026-04-19T07:39:58.102Z</time></trkpt><trkpt lat="42.855006" lon="12.0577994"><ele>379.33333333333337</ele><time>2026-04-19T07:39:59.092Z</time></trkpt><trkpt lat="42.8547973" lon="12.0578182"><ele>380.0</ele><time>2026-04-19T07:40:00.078Z</time></trkpt><trkpt lat="42.8546061" lon="12.057777"><ele>380.0</ele><time>2026-04-19T07:40:01.102Z</time></trkpt><trkpt lat="42.8544343" lon="12.0577129"><ele>380.0</ele><time>2026-04-19T07:40:02.11Z</time></trkpt><trkpt lat="42.8542605" lon="12.0577102"><ele>380.0</ele><time>2026-04-19T07:40:03.097Z</time></trkpt><trkpt lat="42.8540941" lon="12.05771"><ele>380.0</ele><time>2026-04-19T07:40:04.074Z</time></trkpt><trkpt lat="42.8539588" lon="12.0578332"><ele>380.0</ele><time>2026-04-19T07:40:05.074Z</time></trkpt><trkpt lat="42.853882" lon="12.0580588"><ele>380.0</ele><time>2026-04-19T07:40:06.087Z</time></trkpt><trkpt lat="42.8538201" lon="12.0583052"><ele>384.33333333333337</ele><time>2026-04-19T07:40:07.078Z</time></trkpt><trkpt lat="42.8538463" lon="12.0585913"><ele>388.6666666666667</ele><time>2026-04-19T07:40:08.09Z</time></trkpt><trkpt lat="42.8538998" lon="12.0588809"><ele>393.0</ele><time>2026-04-19T07:40:09.108Z</time></trkpt><trkpt lat="42.8539654" lon="12.0591629"><ele>396.33333333333337</ele><time>2026-04-19T07:40:10.099Z</time></trkpt><trkpt lat="42.8540295" lon="12.0594351"><ele>399.6666666666667</ele><time>2026-04-19T07:40:11.082Z</time></trkpt><trkpt lat="42.854031" lon="12.0596734"><ele>403.0</ele><time>2026-04-19T07:40:12.075Z</time></trkpt><trkpt lat="42.8540032" lon="12.0598922"><ele>406.6666666666667</ele><time>2026-04-19T07:40:13.089Z</time></trkpt><trkpt lat="42.8538931" lon="12.0600286"><ele>410.33333333333337</ele><time>2026-04-19T07:40:14.106Z</time></trkpt><trkpt lat="42.8537518" lon="12.0601079"><ele>414.0</ele><time>2026-04-19T07:40:15.094Z</time></trkpt><trkpt lat="42.8535947" lon="12.0601471"><ele>410.5</ele><time>2026-04-19T07:40:16.081Z</time></trkpt><trkpt lat="42.8534445" lon="12.0602238"><ele>407.0</ele><time>2026-04-19T07:40:17.084Z</time></trkpt><trkpt lat="42.8533161" lon="12.0603191"><ele>403.5</ele><time>2026-04-19T07:40:18.105Z</time></trkpt><trkpt lat="42.8532105" lon="12.0604225"><ele>400.0</ele><time>2026-04-19T07:40:19.09Z</time></trkpt><trkpt lat="42.8531326" lon="12.0605335"><ele>400.0</ele><time>2026-04-19T07:40:20.094Z</time></trkpt><trkpt lat="42.8530629" lon="12.0606251"><ele>400.0</ele><time>2026-04-19T07:40:21.094Z</time></trkpt><trkpt lat="42.8530416" lon="12.0607611"><ele>400.0</ele><time>2026-04-19T07:40:22.117Z</time></trkpt><trkpt lat="42.8530573" lon="12.0609039"><ele>400.0</ele><time>2026-04-19T07:40:23.08Z</time></trkpt><trkpt lat="42.8530956" lon="12.0610599"><ele>400.0</ele><time>2026-04-19T07:40:24.084Z</time></trkpt><trkpt lat="42.8531463" lon="12.0612176"><ele>404.0</ele><time>2026-04-19T07:40:25.093Z</time></trkpt><trkpt lat="42.8532027" lon="12.0613727"><ele>408.0</ele><time>2026-04-19T07:40:26.103Z</time></trkpt><trkpt lat="42.8532632" lon="12.0615239"><ele>412.0</ele><time>2026-04-19T07:40:27.093Z</time></trkpt><trkpt lat="42.853339" lon="12.0616723"><ele>416.0</ele><time>2026-04-19T07:40:28.079Z</time></trkpt><trkpt lat="42.8534263" lon="12.0618173"><ele>424.3333333333333</ele><time>2026-04-19T07:40:29.084Z</time></trkpt><trkpt lat="42.8535263" lon="12.0619576"><ele>432.66666666666663</ele><time>2026-04-19T07:40:30.089Z</time></trkpt><trkpt lat="42.8536539" lon="12.0620922"><ele>441.0</ele><time>2026-04-19T07:40:31.093Z</time></trkpt><trkpt lat="42.8538137" lon="12.0622402"><ele>441.0</ele><time>2026-04-19T07:40:32.086Z</time></trkpt><trkpt lat="42.8539962" lon="12.0624044"><ele>441.0</ele><time>2026-04-19T07:40:33.075Z</time></trkpt><trkpt lat="42.8541789" lon="12.0625532"><ele>441.0</ele><time>2026-04-19T07:40:34.1Z</time></trkpt><trkpt lat="42.8543521" lon="12.0626908"><ele>440.66666666666663</ele><time>2026-04-19T07:40:35.09Z</time></trkpt><trkpt lat="42.8545065" lon="12.0628027"><ele>440.3333333333333</ele><time>2026-04-19T07:40:36.093Z</time></trkpt><trkpt lat="42.8546073" lon="12.0629647"><ele>440.0</ele><time>2026-04-19T07:40:37.082Z</time></trkpt><trkpt lat="42.8546381" lon="12.0631576"><ele>438.3333333333333</ele><time>2026-04-19T07:40:38.092Z</time></trkpt><trkpt lat="42.8546118" lon="12.0633797"><ele>436.66666666666663</ele><time>2026-04-19T07:40:39.099Z</time></trkpt><trkpt lat="42.8545413" lon="12.0636079"><ele>435.0</ele><time>2026-04-19T07:40:40.079Z</time></trkpt><trkpt lat="42.8544253" lon="12.063842"><ele>435.0</ele><time>2026-04-19T07:40:41.099Z</time></trkpt><trkpt lat="42.8542699" lon="12.0640738"><ele>435.0</ele><time>2026-04-19T07:40:42.086Z</time></trkpt><trkpt lat="42.8540878" lon="12.0642535"><ele>435.0</ele><time>2026-04-19T07:40:43.09Z</time></trkpt><trkpt lat="42.8538765" lon="12.0643651"><ele>435.0</ele><time>2026-04-19T07:40:44.098Z</time></trkpt><trkpt lat="42.8536434" lon="12.0644134"><ele>438.5</ele><time>2026-04-19T07:40:45.106Z</time></trkpt><trkpt lat="42.8533995" lon="12.0644398"><ele>442.0</ele><time>2026-04-19T07:40:46.081Z</time></trkpt><trkpt lat="42.8531571" lon="12.0644654"><ele>442.0</ele><time>2026-04-19T07:40:47.139Z</time></trkpt><trkpt lat="42.8529216" lon="12.0644949"><ele>442.0</ele><time>2026-04-19T07:40:48.111Z</time></trkpt><trkpt lat="42.8527111" lon="12.0645969"><ele>443.0</ele><time>2026-04-19T07:40:49.111Z</time></trkpt><trkpt lat="42.8525312" lon="12.0647649"><ele>444.0</ele><time>2026-04-19T07:40:50.097Z</time></trkpt><trkpt lat="42.8523924" lon="12.0649871"><ele>445.0</ele><time>2026-04-19T07:40:51.086Z</time></trkpt><trkpt lat="42.852302" lon="12.0652539"><ele>445.0</ele><time>2026-04-19T07:40:52.088Z</time></trkpt><trkpt lat="42.8522607" lon="12.0655527"><ele>445.0</ele><time>2026-04-19T07:40:53.088Z</time></trkpt><trkpt lat="42.8522672" lon="12.065865"><ele>446.6666666666667</ele><time>2026-04-19T07:40:54.08Z</time></trkpt><trkpt lat="42.8523102" lon="12.0661732"><ele>448.33333333333337</ele><time>2026-04-19T07:40:55.083Z</time></trkpt><trkpt lat="42.8523511" lon="12.0664642"><ele>450.0</ele><time>2026-04-19T07:40:56.092Z</time></trkpt><trkpt lat="42.8523694" lon="12.0667362"><ele>451.66666666666663</ele><time>2026-04-19T07:40:57.098Z</time></trkpt><trkpt lat="42.8523308" lon="12.0669743"><ele>453.3333333333333</ele><time>2026-04-19T07:40:58.093Z</time></trkpt><trkpt lat="42.8522304" lon="12.0671549"><ele>455.0</ele><time>2026-04-19T07:40:59.093Z</time></trkpt><trkpt lat="42.8520744" lon="12.067256"><ele>455.0</ele><time>2026-04-19T07:41:00.096Z</time></trkpt><trkpt lat="42.8518893" lon="12.0672848"><ele>455.0</ele><time>2026-04-19T07:41:01.101Z</time></trkpt><trkpt lat="42.8516899" lon="12.0672892"><ele>455.0</ele><time>2026-04-19T07:41:02.103Z</time></trkpt><trkpt lat="42.8514998" lon="12.0673012"><ele>456.3333333333333</ele><time>2026-04-19T07:41:03.086Z</time></trkpt><trkpt lat="42.8513006" lon="12.0674219"><ele>457.66666666666663</ele><time>2026-04-19T07:41:04.095Z</time></trkpt><trkpt lat="42.8511351" lon="12.0675995"><ele>459.0</ele><time>2026-04-19T07:41:05.091Z</time></trkpt><trkpt lat="42.8509785" lon="12.0677892"><ele>458.33333333333337</ele><time>2026-04-19T07:41:06.094Z</time></trkpt><trkpt lat="42.850825" lon="12.0679666"><ele>457.6666666666667</ele><time>2026-04-19T07:41:07.104Z</time></trkpt><trkpt lat="42.8506124" lon="12.0680351"><ele>457.0</ele><time>2026-04-19T07:41:08.082Z</time></trkpt><trkpt lat="42.850382" lon="12.0680139"><ele>457.0</ele><time>2026-04-19T07:41:09.103Z</time></trkpt><trkpt lat="42.8501492" lon="12.06796"><ele>457.0</ele><time>2026-04-19T07:41:10.082Z</time></trkpt><trkpt lat="42.8499197" lon="12.0679079"><ele>459.6666666666667</ele><time>2026-04-19T07:41:11.102Z</time></trkpt><trkpt lat="42.8497066" lon="12.0678637"><ele>462.33333333333337</ele><time>2026-04-19T07:41:12.099Z</time></trkpt><trkpt lat="42.849498" lon="12.0678347"><ele>465.0</ele><time>2026-04-19T07:41:13.103Z</time></trkpt><trkpt lat="42.849314" lon="12.0678595"><ele>466.66666666666663</ele><time>2026-04-19T07:41:14.093Z</time></trkpt><trkpt lat="42.8491333" lon="12.0679148"><ele>468.3333333333333</ele><time>2026-04-19T07:41:15.106Z</time></trkpt><trkpt lat="42.8489465" lon="12.067945"><ele>470.0</ele><time>2026-04-19T07:41:16.103Z</time></trkpt><trkpt lat="42.8487643" lon="12.0679339"><ele>470.0</ele><time>2026-04-19T07:41:17.108Z</time></trkpt><trkpt lat="42.8485837" lon="12.0679019"><ele>470.0</ele><time>2026-04-19T07:41:18.097Z</time></trkpt><trkpt lat="42.8483943" lon="12.0678571"><ele>470.0</ele><time>2026-04-19T07:41:19.094Z</time></trkpt><trkpt lat="42.8482066" lon="12.0678002"><ele>469.3333333333333</ele><time>2026-04-19T07:41:20.1Z</time></trkpt><trkpt lat="42.8480275" lon="12.0677242"><ele>468.66666666666663</ele><time>2026-04-19T07:41:21.106Z</time></trkpt><trkpt lat="42.8478576" lon="12.06761"><ele>468.0</ele><time>2026-04-19T07:41:22.108Z</time></trkpt><trkpt lat="42.847703" lon="12.0674749"><ele>466.0</ele><time>2026-04-19T07:41:23.098Z</time></trkpt><trkpt lat="42.8475649" lon="12.0673192"><ele>464.0</ele><time>2026-04-19T07:41:24.108Z</time></trkpt><trkpt lat="42.8474451" lon="12.06714"><ele>462.0</ele><time>2026-04-19T07:41:25.093Z</time></trkpt><trkpt lat="42.8473404" lon="12.0669445"><ele>462.0</ele><time>2026-04-19T07:41:26.102Z</time></trkpt><trkpt lat="42.8472413" lon="12.0667418"><ele>462.0</ele><time>2026-04-19T07:41:27.109Z</time></trkpt><trkpt lat="42.8471429" lon="12.0665377"><ele>462.0</ele><time>2026-04-19T07:41:28.103Z</time></trkpt><trkpt lat="42.8470423" lon="12.066331"><ele>462.0</ele><time>2026-04-19T07:41:29.097Z</time></trkpt><trkpt lat="42.8469285" lon="12.066129"><ele>462.0</ele><time>2026-04-19T07:41:30.098Z</time></trkpt><trkpt lat="42.8467939" lon="12.0659419"><ele>462.0</ele><time>2026-04-19T07:41:31.093Z</time></trkpt><trkpt lat="42.8466444" lon="12.0657623"><ele>463.66666666666663</ele><time>2026-04-19T07:41:32.116Z</time></trkpt><trkpt lat="42.8464841" lon="12.0655876"><ele>465.3333333333333</ele><time>2026-04-19T07:41:33.099Z</time></trkpt><trkpt lat="42.8463102" lon="12.0654247"><ele>467.0</ele><time>2026-04-19T07:41:34.098Z</time></trkpt><trkpt lat="42.8461395" lon="12.0652513"><ele>463.3333333333333</ele><time>2026-04-19T07:41:35.098Z</time></trkpt><trkpt lat="42.8459379" lon="12.0651204"><ele>459.66666666666663</ele><time>2026-04-19T07:41:36.116Z</time></trkpt><trkpt lat="42.8457326" lon="12.0650245"><ele>456.0</ele><time>2026-04-19T07:41:37.098Z</time></trkpt><trkpt lat="42.8455106" lon="12.0649606"><ele>453.0</ele><time>2026-04-19T07:41:38.097Z</time></trkpt><trkpt lat="42.8452846" lon="12.06492"><ele>450.0</ele><time>2026-04-19T07:41:39.094Z</time></trkpt><trkpt lat="42.845055" lon="12.0649095"><ele>449.5</ele><time>2026-04-19T07:41:40.085Z</time></trkpt><trkpt lat="42.8448203" lon="12.0649238"><ele>449.0</ele><time>2026-04-19T07:41:41.09Z</time></trkpt><trkpt lat="42.8445854" lon="12.0649519"><ele>449.0</ele><time>2026-04-19T07:41:42.085Z</time></trkpt><trkpt lat="42.8443513" lon="12.0649661"><ele>449.0</ele><time>2026-04-19T07:41:43.085Z</time></trkpt><trkpt lat="42.8441263" lon="12.0649478"><ele>447.0</ele><time>2026-04-19T07:41:44.089Z</time></trkpt><trkpt lat="42.8439116" lon="12.0649091"><ele>445.0</ele><time>2026-04-19T07:41:45.085Z</time></trkpt><trkpt lat="42.843702" lon="12.0648788"><ele>443.0</ele><time>2026-04-19T07:41:46.091Z</time></trkpt><trkpt lat="42.8434901" lon="12.0648759"><ele>441.3333333333333</ele><time>2026-04-19T07:41:47.084Z</time></trkpt><trkpt lat="42.8432793" lon="12.0648892"><ele>439.66666666666663</ele><time>2026-04-19T07:41:48.091Z</time></trkpt><trkpt lat="42.8430655" lon="12.0649435"><ele>438.0</ele><time>2026-04-19T07:41:49.118Z</time></trkpt><trkpt lat="42.8428508" lon="12.0650128"><ele>438.0</ele><time>2026-04-19T07:41:50.087Z</time></trkpt><trkpt lat="42.8426451" lon="12.0651089"><ele>438.0</ele><time>2026-04-19T07:41:51.104Z</time></trkpt><trkpt lat="42.8424411" lon="12.0652242"><ele>438.0</ele><time>2026-04-19T07:41:52.089Z</time></trkpt><trkpt lat="42.8422408" lon="12.0653458"><ele>438.0</ele><time>2026-04-19T07:41:53.094Z</time></trkpt><trkpt lat="42.8420376" lon="12.0654561"><ele>438.0</ele><time>2026-04-19T07:41:54.114Z</time></trkpt><trkpt lat="42.8418305" lon="12.0655403"><ele>438.0</ele><time>2026-04-19T07:41:55.094Z</time></trkpt><trkpt lat="42.8416216" lon="12.0656107"><ele>438.0</ele><time>2026-04-19T07:41:56.1Z</time></trkpt><trkpt lat="42.8414167" lon="12.0656736"><ele>438.0</ele><time>2026-04-19T07:41:57.107Z</time></trkpt><trkpt lat="42.8412217" lon="12.0657256"><ele>438.0</ele><time>2026-04-19T07:41:58.106Z</time></trkpt><trkpt lat="42.8410382" lon="12.065763"><ele>437.0</ele><time>2026-04-19T07:41:59.119Z</time></trkpt><trkpt lat="42.8408625" lon="12.0657866"><ele>436.0</ele><time>2026-04-19T07:42:00.117Z</time></trkpt><trkpt lat="42.8406997" lon="12.065779"><ele>435.0</ele><time>2026-04-19T07:42:01.087Z</time></trkpt><trkpt lat="42.8405465" lon="12.0657067"><ele>435.0</ele><time>2026-04-19T07:42:02.103Z</time></trkpt><trkpt lat="42.840408" lon="12.0655868"><ele>435.0</ele><time>2026-04-19T07:42:03.107Z</time></trkpt><trkpt lat="42.8402717" lon="12.0654324"><ele>435.0</ele><time>2026-04-19T07:42:04.103Z</time></trkpt><trkpt lat="42.8401332" lon="12.0652583"><ele>434.33333333333337</ele><time>2026-04-19T07:42:05.121Z</time></trkpt><trkpt lat="42.8400028" lon="12.0650922"><ele>433.6666666666667</ele><time>2026-04-19T07:42:06.112Z</time></trkpt><trkpt lat="42.8398801" lon="12.0649552"><ele>433.0</ele><time>2026-04-19T07:42:07.119Z</time></trkpt><trkpt lat="42.8397538" lon="12.0648658"><ele>433.0</ele><time>2026-04-19T07:42:08.108Z</time></trkpt><trkpt lat="42.839623" lon="12.0648262"><ele>433.0</ele><time>2026-04-19T07:42:09.121Z</time></trkpt><trkpt lat="42.8394881" lon="12.0648791"><ele>433.0</ele><time>2026-04-19T07:42:10.108Z</time></trkpt><trkpt lat="42.8393649" lon="12.0649735"><ele>433.0</ele><time>2026-04-19T07:42:11.097Z</time></trkpt><trkpt lat="42.8392769" lon="12.0651274"><ele>433.5</ele><time>2026-04-19T07:42:12.115Z</time></trkpt><trkpt lat="42.8392345" lon="12.0653137"><ele>434.0</ele><time>2026-04-19T07:42:13.091Z</time></trkpt><trkpt lat="42.839246" lon="12.0655122"><ele>434.5</ele><time>2026-04-19T07:42:14.112Z</time></trkpt><trkpt lat="42.8392918" lon="12.0657082"><ele>435.0</ele><time>2026-04-19T07:42:15.087Z</time></trkpt><trkpt lat="42.8393463" lon="12.065912"><ele>435.0</ele><time>2026-04-19T07:42:16.1Z</time></trkpt><trkpt lat="42.8393627" lon="12.0661151"><ele>435.0</ele><time>2026-04-19T07:42:17.109Z</time></trkpt><trkpt lat="42.8393316" lon="12.0663045"><ele>435.0</ele><time>2026-04-19T07:42:18.087Z</time></trkpt><trkpt lat="42.8392598" lon="12.0664677"><ele>435.0</ele><time>2026-04-19T07:42:19.094Z</time></trkpt><trkpt lat="42.8391519" lon="12.0665633"><ele>433.0</ele><time>2026-04-19T07:42:20.117Z</time></trkpt><trkpt lat="42.8390182" lon="12.0665525"><ele>431.0</ele><time>2026-04-19T07:42:21.149Z</time></trkpt><trkpt lat="42.8389064" lon="12.0664731"><ele>429.0</ele><time>2026-04-19T07:42:22.117Z</time></trkpt><trkpt lat="42.83881" lon="12.0663697"><ele>427.0</ele><time>2026-04-19T07:42:23.116Z</time></trkpt><trkpt lat="42.838726" lon="12.0662107"><ele>427.0</ele><time>2026-04-19T07:42:24.109Z</time></trkpt><trkpt lat="42.8386412" lon="12.0660405"><ele>427.0</ele><time>2026-04-19T07:42:25.087Z</time></trkpt><trkpt lat="42.8385442" lon="12.0658885"><ele>427.0</ele><time>2026-04-19T07:42:26.104Z</time></trkpt><trkpt lat="42.838441" lon="12.0657709"><ele>427.0</ele><time>2026-04-19T07:42:27.131Z</time></trkpt><trkpt lat="42.8383368" lon="12.0657113"><ele>424.40000000000003</ele><time>2026-04-19T07:42:28.095Z</time></trkpt><trkpt lat="42.8382393" lon="12.065671"><ele>421.80000000000007</ele><time>2026-04-19T07:42:29.127Z</time></trkpt><trkpt lat="42.8381409" lon="12.0656486"><ele>419.2</ele><time>2026-04-19T07:42:30.133Z</time></trkpt><trkpt lat="42.8380481" lon="12.0656376"><ele>416.6</ele><time>2026-04-19T07:42:31.086Z</time></trkpt><trkpt lat="42.8379592" lon="12.0656306"><ele>414.0</ele><time>2026-04-19T07:42:32.1Z</time></trkpt><trkpt lat="42.83786" lon="12.0656441"><ele>414.0</ele><time>2026-04-19T07:42:33.107Z</time></trkpt><trkpt lat="42.8377614" lon="12.0656563"><ele>414.0</ele><time>2026-04-19T07:42:34.107Z</time></trkpt><trkpt lat="42.8376402" lon="12.0656571"><ele>414.0</ele><time>2026-04-19T07:42:35.11Z</time></trkpt><trkpt lat="42.8375084" lon="12.0656585"><ele>414.0</ele><time>2026-04-19T07:42:36.102Z</time></trkpt><trkpt lat="42.837367" lon="12.0656587"><ele>413.66666666666663</ele><time>2026-04-19T07:42:37.102Z</time></trkpt><trkpt lat="42.837212" lon="12.0656377"><ele>413.3333333333333</ele><time>2026-04-19T07:42:38.128Z</time></trkpt><trkpt lat="42.8370518" lon="12.0656093"><ele>413.0</ele><time>2026-04-19T07:42:39.121Z</time></trkpt><trkpt lat="42.836904" lon="12.0655382"><ele>413.0</ele><time>2026-04-19T07:42:40.115Z</time></trkpt><trkpt lat="42.8367229" lon="12.0655184"><ele>413.0</ele><time>2026-04-19T07:42:41.1Z</time></trkpt><trkpt lat="42.8365461" lon="12.065484"><ele>413.0</ele><time>2026-04-19T07:42:42.125Z</time></trkpt><trkpt lat="42.8363735" lon="12.0654594"><ele>413.0</ele><time>2026-04-19T07:42:43.092Z</time></trkpt><trkpt lat="42.8361863" lon="12.0654537"><ele>413.0</ele><time>2026-04-19T07:42:44.113Z</time></trkpt><trkpt lat="42.8359911" lon="12.0654548"><ele>413.0</ele><time>2026-04-19T07:42:45.134Z</time></trkpt><trkpt lat="42.8357885" lon="12.0654625"><ele>412.0</ele><time>2026-04-19T07:42:46.082Z</time></trkpt><trkpt lat="42.8355802" lon="12.0654747"><ele>411.0</ele><time>2026-04-19T07:42:47.146Z</time></trkpt><trkpt lat="42.835377" lon="12.0654898"><ele>410.0</ele><time>2026-04-19T07:42:48.091Z</time></trkpt><trkpt lat="42.8351848" lon="12.0654942"><ele>408.0</ele><time>2026-04-19T07:42:49.108Z</time></trkpt><trkpt lat="42.8350113" lon="12.0655065"><ele>406.0</ele><time>2026-04-19T07:42:50.115Z</time></trkpt><trkpt lat="42.8348601" lon="12.0655342"><ele>404.0</ele><time>2026-04-19T07:42:51.134Z</time></trkpt><trkpt lat="42.834744" lon="12.0656106"><ele>404.0</ele><time>2026-04-19T07:42:52.086Z</time></trkpt><trkpt lat="42.8346676" lon="12.0657342"><ele>404.0</ele><time>2026-04-19T07:42:53.142Z</time></trkpt><trkpt lat="42.8346153" lon="12.0658864"><ele>404.0</ele><time>2026-04-19T07:42:54.107Z</time></trkpt><trkpt lat="42.8345432" lon="12.0660388"><ele>404.0</ele><time>2026-04-19T07:42:55.109Z</time></trkpt><trkpt lat="42.8344377" lon="12.0661608"><ele>410.3333333333333</ele><time>2026-04-19T07:42:56.11Z</time></trkpt><trkpt lat="42.8343049" lon="12.0662406"><ele>416.66666666666663</ele><time>2026-04-19T07:42:57.119Z</time></trkpt><trkpt lat="42.8341538" lon="12.0662873"><ele>423.0</ele><time>2026-04-19T07:42:58.106Z</time></trkpt><trkpt lat="42.8339889" lon="12.0663139"><ele>423.0</ele><time>2026-04-19T07:42:59.104Z</time></trkpt><trkpt lat="42.8338182" lon="12.0663368"><ele>423.0</ele><time>2026-04-19T07:43:00.127Z</time></trkpt><trkpt lat="42.8336452" lon="12.0663647"><ele>423.0</ele><time>2026-04-19T07:43:01.12Z</time></trkpt><trkpt lat="42.8334706" lon="12.0663955"><ele>425.66666666666663</ele><time>2026-04-19T07:43:02.096Z</time></trkpt><trkpt lat="42.833298" lon="12.0664281"><ele>428.3333333333333</ele><time>2026-04-19T07:43:03.102Z</time></trkpt><trkpt lat="42.833134" lon="12.0664578"><ele>431.0</ele><time>2026-04-19T07:43:04.099Z</time></trkpt><trkpt lat="42.8329759" lon="12.0664821"><ele>431.0</ele><time>2026-04-19T07:43:05.125Z</time></trkpt><trkpt lat="42.8328346" lon="12.0664927"><ele>431.0</ele><time>2026-04-19T07:43:06.124Z</time></trkpt><trkpt lat="42.832698" lon="12.0665181"><ele>431.0</ele><time>2026-04-19T07:43:07.128Z</time></trkpt><trkpt lat="42.8325643" lon="12.0665517"><ele>431.0</ele><time>2026-04-19T07:43:08.104Z</time></trkpt><trkpt lat="42.8324271" lon="12.0665817"><ele>429.75</ele><time>2026-04-19T07:43:09.11Z</time></trkpt><trkpt lat="42.8322897" lon="12.0666107"><ele>428.5</ele><time>2026-04-19T07:43:10.129Z</time></trkpt><trkpt lat="42.8321521" lon="12.0666485"><ele>427.25</ele><time>2026-04-19T07:43:11.088Z</time></trkpt><trkpt lat="42.8320155" lon="12.0667049"><ele>426.0</ele><time>2026-04-19T07:43:12.106Z</time></trkpt><trkpt lat="42.8319023" lon="12.0667797"><ele>431.25</ele><time>2026-04-19T07:43:13.107Z</time></trkpt><trkpt lat="42.8318002" lon="12.0668691"><ele>436.5</ele><time>2026-04-19T07:43:14.121Z</time></trkpt><trkpt lat="42.8316973" lon="12.0669652"><ele>441.75</ele><time>2026-04-19T07:43:15.109Z</time></trkpt><trkpt lat="42.831587" lon="12.0670635"><ele>447.0</ele><time>2026-04-19T07:43:16.115Z</time></trkpt><trkpt lat="42.8314675" lon="12.067156"><ele>447.0</ele><time>2026-04-19T07:43:17.123Z</time></trkpt><trkpt lat="42.8313412" lon="12.0672446"><ele>447.0</ele><time>2026-04-19T07:43:18.099Z</time></trkpt><trkpt lat="42.8312049" lon="12.0673345"><ele>447.0</ele><time>2026-04-19T07:43:19.135Z</time></trkpt><trkpt lat="42.8310665" lon="12.0674268"><ele>447.0</ele><time>2026-04-19T07:43:20.109Z</time></trkpt><trkpt lat="42.8309192" lon="12.067534"><ele>449.33333333333337</ele><time>2026-04-19T07:43:21.113Z</time></trkpt><trkpt lat="42.8307648" lon="12.0676516"><ele>451.6666666666667</ele><time>2026-04-19T07:43:22.1Z</time></trkpt><trkpt lat="42.8306075" lon="12.0677771"><ele>454.0</ele><time>2026-04-19T07:43:23.12Z</time></trkpt><trkpt lat="42.830457" lon="12.067901"><ele>454.0</ele><time>2026-04-19T07:43:24.099Z</time></trkpt><trkpt lat="42.8302993" lon="12.0680306"><ele>454.0</ele><time>2026-04-19T07:43:25.112Z</time></trkpt><trkpt lat="42.8301347" lon="12.0681694"><ele>454.0</ele><time>2026-04-19T07:43:26.111Z</time></trkpt><trkpt lat="42.8299668" lon="12.0683028"><ele>455.33333333333337</ele><time>2026-04-19T07:43:27.127Z</time></trkpt><trkpt lat="42.829794" lon="12.0684421"><ele>456.66666666666663</ele><time>2026-04-19T07:43:28.113Z</time></trkpt><trkpt lat="42.8296178" lon="12.0685794"><ele>458.0</ele><time>2026-04-19T07:43:29.114Z</time></trkpt><trkpt lat="42.8294349" lon="12.0686742"><ele>457.66666666666663</ele><time>2026-04-19T07:43:30.1Z</time></trkpt><trkpt lat="42.8292474" lon="12.0687233"><ele>457.33333333333337</ele><time>2026-04-19T07:43:31.107Z</time></trkpt><trkpt lat="42.8290697" lon="12.0687024"><ele>457.0</ele><time>2026-04-19T07:43:32.102Z</time></trkpt><trkpt lat="42.8289031" lon="12.0686389"><ele>457.0</ele><time>2026-04-19T07:43:33.13Z</time></trkpt><trkpt lat="42.8287568" lon="12.0685223"><ele>457.0</ele><time>2026-04-19T07:43:34.082Z</time></trkpt><trkpt lat="42.8286011" lon="12.068386"><ele>457.0</ele><time>2026-04-19T07:43:35.122Z</time></trkpt><trkpt lat="42.8284347" lon="12.0682896"><ele>459.6666666666667</ele><time>2026-04-19T07:43:36.127Z</time></trkpt><trkpt lat="42.8282497" lon="12.0683029"><ele>462.33333333333337</ele><time>2026-04-19T07:43:37.122Z</time></trkpt><trkpt lat="42.8280958" lon="12.0683545"><ele>465.0</ele><time>2026-04-19T07:43:38.103Z</time></trkpt><trkpt lat="42.827975" lon="12.0684554"><ele>465.0</ele><time>2026-04-19T07:43:39.08Z</time></trkpt><trkpt lat="42.8279086" lon="12.0686009"><ele>465.0</ele><time>2026-04-19T07:43:40.113Z</time></trkpt><trkpt lat="42.8279074" lon="12.0687647"><ele>465.0</ele><time>2026-04-19T07:43:41.115Z</time></trkpt><trkpt lat="42.8279581" lon="12.06892"><ele>465.0</ele><time>2026-04-19T07:43:42.093Z</time></trkpt><trkpt lat="42.828041" lon="12.0690782"><ele>468.0</ele><time>2026-04-19T07:43:43.124Z</time></trkpt><trkpt lat="42.8281127" lon="12.0692685"><ele>471.0</ele><time>2026-04-19T07:43:44.131Z</time></trkpt><trkpt lat="42.8281521" lon="12.0695053"><ele>474.0</ele><time>2026-04-19T07:43:45.103Z</time></trkpt><trkpt lat="42.8281561" lon="12.0697737"><ele>475.0</ele><time>2026-04-19T07:43:46.087Z</time></trkpt><trkpt lat="42.8281589" lon="12.0700498"><ele>476.0</ele><time>2026-04-19T07:43:47.144Z</time></trkpt><trkpt lat="42.8281938" lon="12.07033"><ele>477.0</ele><time>2026-04-19T07:43:48.09Z</time></trkpt><trkpt lat="42.8282617" lon="12.0706087"><ele>477.0</ele><time>2026-04-19T07:43:49.12Z</time></trkpt><trkpt lat="42.8283508" lon="12.0708714"><ele>477.0</ele><time>2026-04-19T07:43:50.116Z</time></trkpt><trkpt lat="42.8284732" lon="12.0710881"><ele>477.0</ele><time>2026-04-19T07:43:51.111Z</time></trkpt><trkpt lat="42.8286146" lon="12.0712536"><ele>480.75</ele><time>2026-04-19T07:43:52.088Z</time></trkpt><trkpt lat="42.8287179" lon="12.0714081"><ele>484.5</ele><time>2026-04-19T07:43:53.089Z</time></trkpt><trkpt lat="42.828775" lon="12.0715764"><ele>488.25</ele><time>2026-04-19T07:43:54.121Z</time></trkpt><trkpt lat="42.8287571" lon="12.0717427"><ele>492.0</ele><time>2026-04-19T07:43:55.1Z</time></trkpt><trkpt lat="42.8286765" lon="12.0718908"><ele>493.0</ele><time>2026-04-19T07:43:56.1Z</time></trkpt><trkpt lat="42.8285595" lon="12.07202"><ele>494.0</ele><time>2026-04-19T07:43:57.107Z</time></trkpt><trkpt lat="42.8284312" lon="12.0721637"><ele>495.0</ele><time>2026-04-19T07:43:58.104Z</time></trkpt><trkpt lat="42.8283083" lon="12.0723505"><ele>495.33333333333337</ele><time>2026-04-19T07:43:59.105Z</time></trkpt><trkpt lat="42.8281811" lon="12.0725656"><ele>495.6666666666667</ele><time>2026-04-19T07:44:00.117Z</time></trkpt><trkpt lat="42.828031" lon="12.0727718"><ele>496.0</ele><time>2026-04-19T07:44:01.103Z</time></trkpt><trkpt lat="42.827854" lon="12.0729488"><ele>496.0</ele><time>2026-04-19T07:44:02.101Z</time></trkpt><trkpt lat="42.8276498" lon="12.0730847"><ele>496.0</ele><time>2026-04-19T07:44:03.113Z</time></trkpt><trkpt lat="42.8274407" lon="12.0731546"><ele>496.0</ele><time>2026-04-19T07:44:04.089Z</time></trkpt><trkpt lat="42.8272437" lon="12.0732144"><ele>495.6666666666667</ele><time>2026-04-19T07:44:05.109Z</time></trkpt><trkpt lat="42.8270804" lon="12.0732325"><ele>495.33333333333337</ele><time>2026-04-19T07:44:06.133Z</time></trkpt><trkpt lat="42.8269253" lon="12.0733304"><ele>495.0</ele><time>2026-04-19T07:44:07.114Z</time></trkpt><trkpt lat="42.8267898" lon="12.0735314"><ele>497.33333333333337</ele><time>2026-04-19T07:44:08.105Z</time></trkpt><trkpt lat="42.8266602" lon="12.0737557"><ele>499.6666666666667</ele><time>2026-04-19T07:44:09.096Z</time></trkpt><trkpt lat="42.8265014" lon="12.0739587"><ele>502.0</ele><time>2026-04-19T07:44:10.114Z</time></trkpt><trkpt lat="42.8263044" lon="12.0741217"><ele>504.6666666666667</ele><time>2026-04-19T07:44:11.11Z</time></trkpt><trkpt lat="42.8260926" lon="12.0742404"><ele>507.33333333333337</ele><time>2026-04-19T07:44:12.113Z</time></trkpt><trkpt lat="42.8258998" lon="12.0743424"><ele>510.0</ele><time>2026-04-19T07:44:13.104Z</time></trkpt><trkpt lat="42.8257102" lon="12.0744584"><ele>510.0</ele><time>2026-04-19T07:44:14.102Z</time></trkpt><trkpt lat="42.8255854" lon="12.0746151"><ele>510.0</ele><time>2026-04-19T07:44:15.121Z</time></trkpt><trkpt lat="42.8255123" lon="12.0747947"><ele>510.0</ele><time>2026-04-19T07:44:16.099Z</time></trkpt><trkpt lat="42.825458" lon="12.0750064"><ele>515.0</ele><time>2026-04-19T07:44:17.127Z</time></trkpt><trkpt lat="42.8254482" lon="12.0752697"><ele>520.0</ele><time>2026-04-19T07:44:18.096Z</time></trkpt><trkpt lat="42.8254399" lon="12.0755565"><ele>525.0</ele><time>2026-04-19T07:44:19.126Z</time></trkpt><trkpt lat="42.8254563" lon="12.0758652"><ele>528.0</ele><time>2026-04-19T07:44:20.122Z</time></trkpt><trkpt lat="42.8254963" lon="12.0761751"><ele>531.0</ele><time>2026-04-19T07:44:21.095Z</time></trkpt><trkpt lat="42.8255429" lon="12.076495"><ele>531.3333333333334</ele><time>2026-04-19T07:44:22.105Z</time></trkpt><trkpt lat="42.8255872" lon="12.0767931"><ele>531.6666666666667</ele><time>2026-04-19T07:44:23.102Z</time></trkpt><trkpt lat="42.825625" lon="12.0770803"><ele>532.0</ele><time>2026-04-19T07:44:24.114Z</time></trkpt><trkpt lat="42.825662" lon="12.0773633"><ele>532.0</ele><time>2026-04-19T07:44:25.14Z</time></trkpt><trkpt lat="42.8256592" lon="12.0776429"><ele>532.0</ele><time>2026-04-19T07:44:26.119Z</time></trkpt><trkpt lat="42.8256108" lon="12.0778953"><ele>532.0</ele><time>2026-04-19T07:44:27.112Z</time></trkpt><trkpt lat="42.8255716" lon="12.078135"><ele>531.3333333333334</ele><time>2026-04-19T07:44:28.113Z</time></trkpt><trkpt lat="42.8255825" lon="12.0783657"><ele>530.6666666666666</ele><time>2026-04-19T07:44:29.095Z</time></trkpt><trkpt lat="42.8256573" lon="12.0785735"><ele>530.0</ele><time>2026-04-19T07:44:30.102Z</time></trkpt><trkpt lat="42.825764" lon="12.0787678"><ele>530.0</ele><time>2026-04-19T07:44:31.098Z</time></trkpt><trkpt lat="42.825898" lon="12.078976"><ele>530.0</ele><time>2026-04-19T07:44:32.103Z</time></trkpt><trkpt lat="42.8260286" lon="12.0792045"><ele>530.0</ele><time>2026-04-19T07:44:33.091Z</time></trkpt><trkpt lat="42.8261806" lon="12.0794353"><ele>534.0</ele><time>2026-04-19T07:44:34.113Z</time></trkpt><trkpt lat="42.8263617" lon="12.0796316"><ele>538.0</ele><time>2026-04-19T07:44:35.1Z</time></trkpt><trkpt lat="42.8265646" lon="12.0798053"><ele>539.0</ele><time>2026-04-19T07:44:36.113Z</time></trkpt><trkpt lat="42.8267638" lon="12.0799781"><ele>540.0</ele><time>2026-04-19T07:44:37.119Z</time></trkpt><trkpt lat="42.826936" lon="12.0801782"><ele>540.0</ele><time>2026-04-19T07:44:38.105Z</time></trkpt><trkpt lat="42.8270716" lon="12.0804241"><ele>540.0</ele><time>2026-04-19T07:44:39.115Z</time></trkpt><trkpt lat="42.8271643" lon="12.0807098"><ele>536.5</ele><time>2026-04-19T07:44:40.094Z</time></trkpt><trkpt lat="42.8272059" lon="12.081032"><ele>533.0</ele><time>2026-04-19T07:44:41.097Z</time></trkpt><trkpt lat="42.8272148" lon="12.081376"><ele>532.0</ele><time>2026-04-19T07:44:42.103Z</time></trkpt><trkpt lat="42.8272252" lon="12.0817251"><ele>531.0</ele><time>2026-04-19T07:44:43.108Z</time></trkpt><trkpt lat="42.827253" lon="12.0820458"><ele>531.0</ele><time>2026-04-19T07:44:44.11Z</time></trkpt><trkpt lat="42.8272577" lon="12.0823354"><ele>531.0</ele><time>2026-04-19T07:44:45.113Z</time></trkpt><trkpt lat="42.8272261" lon="12.0825954"><ele>531.0</ele><time>2026-04-19T07:44:46.103Z</time></trkpt><trkpt lat="42.8271446" lon="12.0828095"><ele>532.0</ele><time>2026-04-19T07:44:47.119Z</time></trkpt><trkpt lat="42.8270181" lon="12.0829489"><ele>533.0</ele><time>2026-04-19T07:44:48.084Z</time></trkpt><trkpt lat="42.82686" lon="12.0830237"><ele>534.0</ele><time>2026-04-19T07:44:49.12Z</time></trkpt><trkpt lat="42.8266811" lon="12.0830634"><ele>535.6666666666666</ele><time>2026-04-19T07:44:50.107Z</time></trkpt><trkpt lat="42.8264958" lon="12.0831148"><ele>537.3333333333333</ele><time>2026-04-19T07:44:51.113Z</time></trkpt><trkpt lat="42.8263356" lon="12.0832206"><ele>539.0</ele><time>2026-04-19T07:44:52.116Z</time></trkpt><trkpt lat="42.8262064" lon="12.0833749"><ele>540.0</ele><time>2026-04-19T07:44:53.098Z</time></trkpt><trkpt lat="42.8260842" lon="12.0835481"><ele>541.0</ele><time>2026-04-19T07:44:54.116Z</time></trkpt><trkpt lat="42.8260134" lon="12.0837742"><ele>542.0</ele><time>2026-04-19T07:44:55.112Z</time></trkpt><trkpt lat="42.8259436" lon="12.0839616"><ele>542.25</ele><time>2026-04-19T07:44:56.118Z</time></trkpt><trkpt lat="42.825867" lon="12.0841092"><ele>542.5</ele><time>2026-04-19T07:44:57.119Z</time></trkpt><trkpt lat="42.825763" lon="12.084186"><ele>542.75</ele><time>2026-04-19T07:44:58.117Z</time></trkpt><trkpt lat="42.8256529" lon="12.084175"><ele>543.0</ele><time>2026-04-19T07:44:59.104Z</time></trkpt><trkpt lat="42.8255793" lon="12.0840761"><ele>543.0</ele><time>2026-04-19T07:45:00.1Z</time></trkpt><trkpt lat="42.8255367" lon="12.0839219"><ele>543.0</ele><time>2026-04-19T07:45:01.101Z</time></trkpt><trkpt lat="42.8254901" lon="12.0837475"><ele>543.0</ele><time>2026-04-19T07:45:02.094Z</time></trkpt><trkpt lat="42.8254401" lon="12.0835746"><ele>543.0</ele><time>2026-04-19T07:45:03.109Z</time></trkpt><trkpt lat="42.8252993" lon="12.0834867"><ele>541.3333333333334</ele><time>2026-04-19T07:45:04.089Z</time></trkpt><trkpt lat="42.8251277" lon="12.0834633"><ele>539.6666666666667</ele><time>2026-04-19T07:45:05.124Z</time></trkpt><trkpt lat="42.8249507" lon="12.0834692"><ele>538.0</ele><time>2026-04-19T07:45:06.115Z</time></trkpt><trkpt lat="42.8247335" lon="12.0835233"><ele>538.0</ele><time>2026-04-19T07:45:07.11Z</time></trkpt><trkpt lat="42.8245078" lon="12.0836017"><ele>538.0</ele><time>2026-04-19T07:45:08.107Z</time></trkpt><trkpt lat="42.8242683" lon="12.0836827"><ele>535.5</ele><time>2026-04-19T07:45:09.099Z</time></trkpt><trkpt lat="42.8240138" lon="12.0837509"><ele>533.0</ele><time>2026-04-19T07:45:10.119Z</time></trkpt><trkpt lat="42.8237448" lon="12.0837948"><ele>532.5</ele><time>2026-04-19T07:45:11.1Z</time></trkpt><trkpt lat="42.8234775" lon="12.0838062"><ele>532.0</ele><time>2026-04-19T07:45:12.119Z</time></trkpt><trkpt lat="42.8232139" lon="12.0838381"><ele>532.0</ele><time>2026-04-19T07:45:13.119Z</time></trkpt><trkpt lat="42.822968" lon="12.0838777"><ele>532.0</ele><time>2026-04-19T07:45:14.1Z</time></trkpt><trkpt lat="42.822736" lon="12.0839268"><ele>527.3333333333334</ele><time>2026-04-19T07:45:15.109Z</time></trkpt><trkpt lat="42.8225504" lon="12.0839892"><ele>522.6666666666666</ele><time>2026-04-19T07:45:16.099Z</time></trkpt><trkpt lat="42.8223924" lon="12.0840263"><ele>518.0</ele><time>2026-04-19T07:45:17.117Z</time></trkpt><trkpt lat="42.8222617" lon="12.0840231"><ele>518.0</ele><time>2026-04-19T07:45:18.106Z</time></trkpt><trkpt lat="42.822175" lon="12.0839071"><ele>518.0</ele><time>2026-04-19T07:45:19.099Z</time></trkpt><trkpt lat="42.8221281" lon="12.0837304"><ele>518.0</ele><time>2026-04-19T07:45:20.126Z</time></trkpt><trkpt lat="42.8220819" lon="12.0835133"><ele>518.0</ele><time>2026-04-19T07:45:21.118Z</time></trkpt><trkpt lat="42.8219948" lon="12.0832833"><ele>519.0</ele><time>2026-04-19T07:45:22.108Z</time></trkpt><trkpt lat="42.8218811" lon="12.0830574"><ele>520.0</ele><time>2026-04-19T07:45:23.1Z</time></trkpt><trkpt lat="42.8217663" lon="12.0828061"><ele>521.0</ele><time>2026-04-19T07:45:24.114Z</time></trkpt><trkpt lat="42.8217008" lon="12.0824736"><ele>510.5</ele><time>2026-04-19T07:45:25.115Z</time></trkpt><trkpt lat="42.8216232" lon="12.0821739"><ele>500.0</ele><time>2026-04-19T07:45:26.122Z</time></trkpt><trkpt lat="42.8215196" lon="12.0818979"><ele>500.0</ele><time>2026-04-19T07:45:27.133Z</time></trkpt><trkpt lat="42.8214549" lon="12.081642"><ele>500.0</ele><time>2026-04-19T07:45:28.126Z</time></trkpt><trkpt lat="42.8213981" lon="12.0814467"><ele>500.0</ele><time>2026-04-19T07:45:29.108Z</time></trkpt><trkpt lat="42.8212986" lon="12.0812532"><ele>498.3333333333333</ele><time>2026-04-19T07:45:30.122Z</time></trkpt><trkpt lat="42.8211457" lon="12.0811443"><ele>496.66666666666663</ele><time>2026-04-19T07:45:31.108Z</time></trkpt><trkpt lat="42.8209556" lon="12.081086"><ele>495.0</ele><time>2026-04-19T07:45:32.118Z</time></trkpt><trkpt lat="42.8207371" lon="12.0810613"><ele>489.0</ele><time>2026-04-19T07:45:33.105Z</time></trkpt><trkpt lat="42.820502" lon="12.0810371"><ele>483.0</ele><time>2026-04-19T07:45:34.109Z</time></trkpt><trkpt lat="42.8202552" lon="12.0809859"><ele>481.5</ele><time>2026-04-19T07:45:35.109Z</time></trkpt><trkpt lat="42.8199978" lon="12.0809074"><ele>480.0</ele><time>2026-04-19T07:45:36.118Z</time></trkpt><trkpt lat="42.8197354" lon="12.0808295"><ele>475.5</ele><time>2026-04-19T07:45:37.129Z</time></trkpt><trkpt lat="42.8194709" lon="12.0807647"><ele>471.0</ele><time>2026-04-19T07:45:38.092Z</time></trkpt><trkpt lat="42.8192141" lon="12.0807031"><ele>471.0</ele><time>2026-04-19T07:45:39.098Z</time></trkpt><trkpt lat="42.8189786" lon="12.0806129"><ele>471.0</ele><time>2026-04-19T07:45:40.119Z</time></trkpt><trkpt lat="42.8187641" lon="12.0804778"><ele>471.0</ele><time>2026-04-19T07:45:41.106Z</time></trkpt><trkpt lat="42.8185587" lon="12.0803299"><ele>471.0</ele><time>2026-04-19T07:45:42.117Z</time></trkpt><trkpt lat="42.8183419" lon="12.0801828"><ele>473.0</ele><time>2026-04-19T07:45:43.099Z</time></trkpt><trkpt lat="42.8181184" lon="12.0800671"><ele>475.0</ele><time>2026-04-19T07:45:44.118Z</time></trkpt><trkpt lat="42.8179035" lon="12.0799641"><ele>473.33333333333337</ele><time>2026-04-19T07:45:45.115Z</time></trkpt><trkpt lat="42.8177154" lon="12.0798303"><ele>471.66666666666663</ele><time>2026-04-19T07:45:46.1Z</time></trkpt><trkpt lat="42.8175562" lon="12.0796472"><ele>470.0</ele><time>2026-04-19T07:45:47.114Z</time></trkpt><trkpt lat="42.8174211" lon="12.0794159"><ele>470.0</ele><time>2026-04-19T07:45:48.108Z</time></trkpt><trkpt lat="42.8172944" lon="12.0791686"><ele>470.0</ele><time>2026-04-19T07:45:49.125Z</time></trkpt><trkpt lat="42.8171819" lon="12.0789005"><ele>470.0</ele><time>2026-04-19T07:45:50.124Z</time></trkpt><trkpt lat="42.8170595" lon="12.0786689"><ele>467.0</ele><time>2026-04-19T07:45:51.116Z</time></trkpt><trkpt lat="42.8169386" lon="12.078482"><ele>464.0</ele><time>2026-04-19T07:45:52.131Z</time></trkpt><trkpt lat="42.8168025" lon="12.0783633"><ele>461.0</ele><time>2026-04-19T07:45:53.112Z</time></trkpt><trkpt lat="42.8166632" lon="12.0783286"><ele>461.0</ele><time>2026-04-19T07:45:54.104Z</time></trkpt><trkpt lat="42.8165261" lon="12.0783773"><ele>461.0</ele><time>2026-04-19T07:45:55.093Z</time></trkpt><trkpt lat="42.8164104" lon="12.0784997"><ele>461.0</ele><time>2026-04-19T07:45:56.12Z</time></trkpt><trkpt lat="42.8163292" lon="12.0786933"><ele>461.0</ele><time>2026-04-19T07:45:57.134Z</time></trkpt><trkpt lat="42.8162599" lon="12.0789049"><ele>461.0</ele><time>2026-04-19T07:45:58.137Z</time></trkpt><trkpt lat="42.8162127" lon="12.0791342"><ele>461.0</ele><time>2026-04-19T07:45:59.088Z</time></trkpt><trkpt lat="42.8161191" lon="12.0793271"><ele>461.66666666666663</ele><time>2026-04-19T07:46:00.134Z</time></trkpt><trkpt lat="42.8159975" lon="12.0795078"><ele>462.33333333333337</ele><time>2026-04-19T07:46:01.114Z</time></trkpt><trkpt lat="42.8157988" lon="12.0796045"><ele>463.0</ele><time>2026-04-19T07:46:02.095Z</time></trkpt><trkpt lat="42.8155607" lon="12.0796603"><ele>457.0</ele><time>2026-04-19T07:46:03.098Z</time></trkpt><trkpt lat="42.8153048" lon="12.0797014"><ele>451.0</ele><time>2026-04-19T07:46:04.121Z</time></trkpt><trkpt lat="42.8150454" lon="12.0797132"><ele>448.0</ele><time>2026-04-19T07:46:05.098Z</time></trkpt><trkpt lat="42.8147758" lon="12.0796684"><ele>445.0</ele><time>2026-04-19T07:46:06.11Z</time></trkpt><trkpt lat="42.814503" lon="12.0795586"><ele>445.5</ele><time>2026-04-19T07:46:07.117Z</time></trkpt><trkpt lat="42.8142267" lon="12.0794096"><ele>446.0</ele><time>2026-04-19T07:46:08.127Z</time></trkpt><trkpt lat="42.8139435" lon="12.0792483"><ele>443.0</ele><time>2026-04-19T07:46:09.112Z</time></trkpt><trkpt lat="42.8136559" lon="12.0790825"><ele>440.0</ele><time>2026-04-19T07:46:10.091Z</time></trkpt><trkpt lat="42.8133634" lon="12.0789187"><ele>440.0</ele><time>2026-04-19T07:46:11.119Z</time></trkpt><trkpt lat="42.8130648" lon="12.0787506"><ele>440.0</ele><time>2026-04-19T07:46:12.106Z</time></trkpt><trkpt lat="42.8127649" lon="12.0785825"><ele>440.0</ele><time>2026-04-19T07:46:13.109Z</time></trkpt><trkpt lat="42.8124704" lon="12.0784161"><ele>440.0</ele><time>2026-04-19T07:46:14.125Z</time></trkpt><trkpt lat="42.8121917" lon="12.0782591"><ele>438.0</ele><time>2026-04-19T07:46:15.106Z</time></trkpt><trkpt lat="42.8119276" lon="12.0781082"><ele>436.0</ele><time>2026-04-19T07:46:16.104Z</time></trkpt><trkpt lat="42.8116777" lon="12.0779652"><ele>436.0</ele><time>2026-04-19T07:46:17.126Z</time></trkpt><trkpt lat="42.8114458" lon="12.0778339"><ele>436.0</ele><time>2026-04-19T07:46:18.092Z</time></trkpt><trkpt lat="42.8112359" lon="12.0777201"><ele>436.0</ele><time>2026-04-19T07:46:19.096Z</time></trkpt><trkpt lat="42.8110384" lon="12.0776519"><ele>436.0</ele><time>2026-04-19T07:46:20.109Z</time></trkpt><trkpt lat="42.8108492" lon="12.077652"><ele>436.0</ele><time>2026-04-19T07:46:21.102Z</time></trkpt><trkpt lat="42.8106774" lon="12.0777269"><ele>436.33333333333337</ele><time>2026-04-19T07:46:22.1Z</time></trkpt><trkpt lat="42.8105274" lon="12.077869"><ele>436.66666666666663</ele><time>2026-04-19T07:46:23.108Z</time></trkpt><trkpt lat="42.8103846" lon="12.0780598"><ele>437.0</ele><time>2026-04-19T07:46:24.125Z</time></trkpt><trkpt lat="42.810233" lon="12.0782772"><ele>437.0</ele><time>2026-04-19T07:46:25.122Z</time></trkpt><trkpt lat="42.8100701" lon="12.0785128"><ele>437.0</ele><time>2026-04-19T07:46:26.126Z</time></trkpt><trkpt lat="42.8098977" lon="12.0787615"><ele>437.0</ele><time>2026-04-19T07:46:27.126Z</time></trkpt><trkpt lat="42.8097187" lon="12.0790094"><ele>437.0</ele><time>2026-04-19T07:46:28.098Z</time></trkpt><trkpt lat="42.8095343" lon="12.0792604"><ele>438.5</ele><time>2026-04-19T07:46:29.099Z</time></trkpt><trkpt lat="42.8093539" lon="12.0795337"><ele>440.0</ele><time>2026-04-19T07:46:30.12Z</time></trkpt><trkpt lat="42.8091914" lon="12.0798412"><ele>444.0</ele><time>2026-04-19T07:46:31.1Z</time></trkpt><trkpt lat="42.8090328" lon="12.0801655"><ele>448.0</ele><time>2026-04-19T07:46:32.108Z</time></trkpt><trkpt lat="42.8088756" lon="12.0805006"><ele>450.5</ele><time>2026-04-19T07:46:33.095Z</time></trkpt><trkpt lat="42.8087121" lon="12.0808366"><ele>453.0</ele><time>2026-04-19T07:46:34.121Z</time></trkpt><trkpt lat="42.8085457" lon="12.081179"><ele>453.0</ele><time>2026-04-19T07:46:35.127Z</time></trkpt><trkpt lat="42.8083856" lon="12.0815117"><ele>453.0</ele><time>2026-04-19T07:46:36.109Z</time></trkpt><trkpt lat="42.8082275" lon="12.0818349"><ele>453.0</ele><time>2026-04-19T07:46:37.106Z</time></trkpt><trkpt lat="42.8080762" lon="12.0821285"><ele>453.0</ele><time>2026-04-19T07:46:38.097Z</time></trkpt><trkpt lat="42.8079086" lon="12.0823868"><ele>453.0</ele><time>2026-04-19T07:46:39.117Z</time></trkpt><trkpt lat="42.807708" lon="12.0826003"><ele>453.0</ele><time>2026-04-19T07:46:40.097Z</time></trkpt><trkpt lat="42.8074816" lon="12.0827952"><ele>452.5</ele><time>2026-04-19T07:46:41.122Z</time></trkpt><trkpt lat="42.8072413" lon="12.0829947"><ele>452.0</ele><time>2026-04-19T07:46:42.111Z</time></trkpt><trkpt lat="42.8069903" lon="12.0832049"><ele>450.5</ele><time>2026-04-19T07:46:43.087Z</time></trkpt><trkpt lat="42.8067308" lon="12.0834249"><ele>449.0</ele><time>2026-04-19T07:46:44.112Z</time></trkpt><trkpt lat="42.8064629" lon="12.0836478"><ele>449.0</ele><time>2026-04-19T07:46:45.124Z</time></trkpt><trkpt lat="42.8061967" lon="12.0838656"><ele>449.0</ele><time>2026-04-19T07:46:46.115Z</time></trkpt><trkpt lat="42.8059407" lon="12.0840709"><ele>447.0</ele><time>2026-04-19T07:46:47.128Z</time></trkpt><trkpt lat="42.8057008" lon="12.0842676"><ele>445.0</ele><time>2026-04-19T07:46:48.103Z</time></trkpt><trkpt lat="42.805476" lon="12.0844632"><ele>445.0</ele><time>2026-04-19T07:46:49.12Z</time></trkpt><trkpt lat="42.8052651" lon="12.0846773"><ele>445.0</ele><time>2026-04-19T07:46:50.11Z</time></trkpt><trkpt lat="42.8050604" lon="12.0849097"><ele>446.0</ele><time>2026-04-19T07:46:51.115Z</time></trkpt><trkpt lat="42.8048901" lon="12.0851872"><ele>447.0</ele><time>2026-04-19T07:46:52.117Z</time></trkpt><trkpt lat="42.8047422" lon="12.0854951"><ele>448.5</ele><time>2026-04-19T07:46:53.121Z</time></trkpt><trkpt lat="42.8045978" lon="12.0858193"><ele>450.0</ele><time>2026-04-19T07:46:54.12Z</time></trkpt><trkpt lat="42.804441" lon="12.0861496"><ele>443.5</ele><time>2026-04-19T07:46:55.106Z</time></trkpt><trkpt lat="42.8043014" lon="12.0865002"><ele>437.0</ele><time>2026-04-19T07:46:56.118Z</time></trkpt><trkpt lat="42.8041835" lon="12.0868738"><ele>437.0</ele><time>2026-04-19T07:46:57.135Z</time></trkpt><trkpt lat="42.8040514" lon="12.0872472"><ele>437.0</ele><time>2026-04-19T07:46:58.117Z</time></trkpt><trkpt lat="42.8039148" lon="12.0876161"><ele>439.0</ele><time>2026-04-19T07:46:59.088Z</time></trkpt><trkpt lat="42.8037316" lon="12.0879607"><ele>441.0</ele><time>2026-04-19T07:47:00.114Z</time></trkpt><trkpt lat="42.8035755" lon="12.088324"><ele>438.0</ele><time>2026-04-19T07:47:01.097Z</time></trkpt><trkpt lat="42.8034192" lon="12.0887014"><ele>435.0</ele><time>2026-04-19T07:47:02.111Z</time></trkpt><trkpt lat="42.8032635" lon="12.0890919"><ele>435.5</ele><time>2026-04-19T07:47:03.113Z</time></trkpt><trkpt lat="42.8031142" lon="12.0894851"><ele>436.0</ele><time>2026-04-19T07:47:04.106Z</time></trkpt><trkpt lat="42.8029647" lon="12.0898738"><ele>434.5</ele><time>2026-04-19T07:47:05.097Z</time></trkpt><trkpt lat="42.8028082" lon="12.0902468"><ele>433.0</ele><time>2026-04-19T07:47:06.107Z</time></trkpt><trkpt lat="42.8026426" lon="12.0905868"><ele>433.5</ele><time>2026-04-19T07:47:07.103Z</time></trkpt><trkpt lat="42.8024522" lon="12.0908634"><ele>434.0</ele><time>2026-04-19T07:47:08.094Z</time></trkpt><trkpt lat="42.8022432" lon="12.0911248"><ele>434.0</ele><time>2026-04-19T07:47:09.102Z</time></trkpt><trkpt lat="42.802012" lon="12.0913795"><ele>434.0</ele><time>2026-04-19T07:47:10.112Z</time></trkpt><trkpt lat="42.8017649" lon="12.0916456"><ele>431.5</ele><time>2026-04-19T07:47:11.13Z</time></trkpt><trkpt lat="42.8015172" lon="12.0919233"><ele>429.0</ele><time>2026-04-19T07:47:12.114Z</time></trkpt><trkpt lat="42.8012637" lon="12.0922082"><ele>430.0</ele><time>2026-04-19T07:47:13.127Z</time></trkpt><trkpt lat="42.8010139" lon="12.0924909"><ele>431.0</ele><time>2026-04-19T07:47:14.125Z</time></trkpt><trkpt lat="42.8007732" lon="12.0927841"><ele>431.0</ele><time>2026-04-19T07:47:15.12Z</time></trkpt><trkpt lat="42.8005522" lon="12.0931013"><ele>431.0</ele><time>2026-04-19T07:47:16.096Z</time></trkpt><trkpt lat="42.8003564" lon="12.0934425"><ele>429.5</ele><time>2026-04-19T07:47:17.116Z</time></trkpt><trkpt lat="42.8001898" lon="12.093808"><ele>428.0</ele><time>2026-04-19T07:47:18.114Z</time></trkpt><trkpt lat="42.8000541" lon="12.0941962"><ele>423.5</ele><time>2026-04-19T07:47:19.107Z</time></trkpt><trkpt lat="42.7999429" lon="12.0946074"><ele>419.0</ele><time>2026-04-19T07:47:20.085Z</time></trkpt><trkpt lat="42.7998478" lon="12.0950342"><ele>418.5</ele><time>2026-04-19T07:47:21.096Z</time></trkpt><trkpt lat="42.7997555" lon="12.0954725"><ele>418.0</ele><time>2026-04-19T07:47:22.106Z</time></trkpt><trkpt lat="42.7996614" lon="12.0959216"><ele>417.0</ele><time>2026-04-19T07:47:23.11Z</time></trkpt><trkpt lat="42.7995699" lon="12.0963615"><ele>416.0</ele><time>2026-04-19T07:47:24.095Z</time></trkpt><trkpt lat="42.799477" lon="12.09678"><ele>415.0</ele><time>2026-04-19T07:47:25.107Z</time></trkpt><trkpt lat="42.7993712" lon="12.0971684"><ele>414.0</ele><time>2026-04-19T07:47:26.094Z</time></trkpt><trkpt lat="42.7992479" lon="12.0975365"><ele>414.0</ele><time>2026-04-19T07:47:27.103Z</time></trkpt><trkpt lat="42.7991062" lon="12.0978811"><ele>414.0</ele><time>2026-04-19T07:47:28.108Z</time></trkpt><trkpt lat="42.7989414" lon="12.0982048"><ele>412.0</ele><time>2026-04-19T07:47:29.109Z</time></trkpt><trkpt lat="42.7987502" lon="12.0985133"><ele>410.0</ele><time>2026-04-19T07:47:30.106Z</time></trkpt><trkpt lat="42.7985346" lon="12.0988163"><ele>406.5</ele><time>2026-04-19T07:47:31.11Z</time></trkpt><trkpt lat="42.7983024" lon="12.0991212"><ele>403.0</ele><time>2026-04-19T07:47:32.102Z</time></trkpt><trkpt lat="42.7980615" lon="12.0994294"><ele>403.0</ele><time>2026-04-19T07:47:33.114Z</time></trkpt><trkpt lat="42.797827" lon="12.0997242"><ele>403.0</ele><time>2026-04-19T07:47:34.108Z</time></trkpt><trkpt lat="42.7976022" lon="12.0999964"><ele>402.5</ele><time>2026-04-19T07:47:35.104Z</time></trkpt><trkpt lat="42.7973895" lon="12.1002527"><ele>402.0</ele><time>2026-04-19T07:47:36.112Z</time></trkpt><trkpt lat="42.7971848" lon="12.1004865"><ele>402.0</ele><time>2026-04-19T07:47:37.113Z</time></trkpt><trkpt lat="42.7970334" lon="12.1007471"><ele>402.0</ele><time>2026-04-19T07:47:38.114Z</time></trkpt><trkpt lat="42.7969013" lon="12.1010181"><ele>402.66666666666663</ele><time>2026-04-19T07:47:39.096Z</time></trkpt><trkpt lat="42.7967857" lon="12.1012826"><ele>403.3333333333333</ele><time>2026-04-19T07:47:40.12Z</time></trkpt><trkpt lat="42.796639" lon="12.1015042"><ele>404.0</ele><time>2026-04-19T07:47:41.112Z</time></trkpt><trkpt lat="42.7964534" lon="12.1016798"><ele>404.0</ele><time>2026-04-19T07:47:42.093Z</time></trkpt><trkpt lat="42.7962606" lon="12.1018362"><ele>404.0</ele><time>2026-04-19T07:47:43.131Z</time></trkpt><trkpt lat="42.7960565" lon="12.1019676"><ele>401.3333333333333</ele><time>2026-04-19T07:47:44.112Z</time></trkpt><trkpt lat="42.7958698" lon="12.1020579"><ele>398.66666666666663</ele><time>2026-04-19T07:47:45.099Z</time></trkpt><trkpt lat="42.7956819" lon="12.1020783"><ele>396.0</ele><time>2026-04-19T07:47:46.091Z</time></trkpt><trkpt lat="42.7955098" lon="12.1020483"><ele>396.0</ele><time>2026-04-19T07:47:47.086Z</time></trkpt><trkpt lat="42.7953297" lon="12.1019893"><ele>396.0</ele><time>2026-04-19T07:47:48.098Z</time></trkpt><trkpt lat="42.7952057" lon="12.1020238"><ele>396.0</ele><time>2026-04-19T07:47:49.113Z</time></trkpt><trkpt lat="42.7951052" lon="12.1021269"><ele>396.0</ele><time>2026-04-19T07:47:50.109Z</time></trkpt><trkpt lat="42.7950528" lon="12.1022967"><ele>396.66666666666663</ele><time>2026-04-19T07:47:51.103Z</time></trkpt><trkpt lat="42.7950306" lon="12.1025008"><ele>397.3333333333333</ele><time>2026-04-19T07:47:52.099Z</time></trkpt><trkpt lat="42.7949858" lon="12.1027111"><ele>398.0</ele><time>2026-04-19T07:47:53.089Z</time></trkpt><trkpt lat="42.7948988" lon="12.102893"><ele>398.0</ele><time>2026-04-19T07:47:54.101Z</time></trkpt><trkpt lat="42.7947817" lon="12.1029976"><ele>398.0</ele><time>2026-04-19T07:47:55.086Z</time></trkpt><trkpt lat="42.7946501" lon="12.1030098"><ele>398.0</ele><time>2026-04-19T07:47:56.076Z</time></trkpt><trkpt lat="42.7945047" lon="12.102983"><ele>398.0</ele><time>2026-04-19T07:47:57.087Z</time></trkpt><trkpt lat="42.7943234" lon="12.1028697"><ele>396.0</ele><time>2026-04-19T07:47:58.084Z</time></trkpt><trkpt lat="42.7941347" lon="12.1027491"><ele>394.0</ele><time>2026-04-19T07:47:59.082Z</time></trkpt><trkpt lat="42.793926" lon="12.1026212"><ele>392.0</ele><time>2026-04-19T07:48:00.106Z</time></trkpt><trkpt lat="42.7937094" lon="12.1024793"><ele>386.3333333333333</ele><time>2026-04-19T07:48:01.098Z</time></trkpt><trkpt lat="42.7935021" lon="12.102367"><ele>380.66666666666663</ele><time>2026-04-19T07:48:02.098Z</time></trkpt><trkpt lat="42.7933055" lon="12.1022743"><ele>375.0</ele><time>2026-04-19T07:48:03.118Z</time></trkpt><trkpt lat="42.7931281" lon="12.1022164"><ele>375.0</ele><time>2026-04-19T07:48:04.082Z</time></trkpt><trkpt lat="42.7929663" lon="12.102215"><ele>375.0</ele><time>2026-04-19T07:48:05.096Z</time></trkpt><trkpt lat="42.79283" lon="12.1022799"><ele>375.0</ele><time>2026-04-19T07:48:06.11Z</time></trkpt><trkpt lat="42.7927312" lon="12.1024177"><ele>375.0</ele><time>2026-04-19T07:48:07.079Z</time></trkpt><trkpt lat="42.7926559" lon="12.1026114"><ele>377.0</ele><time>2026-04-19T07:48:08.106Z</time></trkpt><trkpt lat="42.7925586" lon="12.1028256"><ele>379.0</ele><time>2026-04-19T07:48:09.109Z</time></trkpt><trkpt lat="42.7924318" lon="12.1030485"><ele>381.0</ele><time>2026-04-19T07:48:10.1Z</time></trkpt><trkpt lat="42.7923293" lon="12.1033067"><ele>384.0</ele><time>2026-04-19T07:48:11.086Z</time></trkpt><trkpt lat="42.7922515" lon="12.1035647"><ele>387.0</ele><time>2026-04-19T07:48:12.107Z</time></trkpt><trkpt lat="42.7921822" lon="12.1037939"><ele>390.0</ele><time>2026-04-19T07:48:13.083Z</time></trkpt><trkpt lat="42.7921292" lon="12.1039765"><ele>390.0</ele><time>2026-04-19T07:48:14.091Z</time></trkpt><trkpt lat="42.7920008" lon="12.1040707"><ele>390.0</ele><time>2026-04-19T07:48:15.097Z</time></trkpt><trkpt lat="42.7918757" lon="12.1040836"><ele>390.0</ele><time>2026-04-19T07:48:16.091Z</time></trkpt><trkpt lat="42.7917473" lon="12.1040109"><ele>390.0</ele><time>2026-04-19T07:48:17.088Z</time></trkpt><trkpt lat="42.7916327" lon="12.1038642"><ele>384.6666666666667</ele><time>2026-04-19T07:48:18.096Z</time></trkpt><trkpt lat="42.7915126" lon="12.1037005"><ele>379.33333333333337</ele><time>2026-04-19T07:48:19.102Z</time></trkpt><trkpt lat="42.7914177" lon="12.1034765"><ele>374.0</ele><time>2026-04-19T07:48:20.091Z</time></trkpt><trkpt lat="42.7913014" lon="12.1033065"><ele>368.33333333333337</ele><time>2026-04-19T07:48:21.088Z</time></trkpt><trkpt lat="42.7911742" lon="12.1031627"><ele>362.6666666666667</ele><time>2026-04-19T07:48:22.077Z</time></trkpt><trkpt lat="42.7910072" lon="12.1031279"><ele>357.0</ele><time>2026-04-19T07:48:23.091Z</time></trkpt><trkpt lat="42.7908374" lon="12.1032102"><ele>361.0</ele><time>2026-04-19T07:48:24.113Z</time></trkpt><trkpt lat="42.7906573" lon="12.1033206"><ele>365.0</ele><time>2026-04-19T07:48:25.09Z</time></trkpt><trkpt lat="42.7904582" lon="12.1034088"><ele>369.0</ele><time>2026-04-19T07:48:26.097Z</time></trkpt><trkpt lat="42.7902525" lon="12.1034397"><ele>365.0</ele><time>2026-04-19T07:48:27.086Z</time></trkpt><trkpt lat="42.7900666" lon="12.1034382"><ele>361.0</ele><time>2026-04-19T07:48:28.099Z</time></trkpt><trkpt lat="42.7898958" lon="12.1034686"><ele>357.0</ele><time>2026-04-19T07:48:29.094Z</time></trkpt><trkpt lat="42.7897469" lon="12.1035553"><ele>357.0</ele><time>2026-04-19T07:48:30.091Z</time></trkpt><trkpt lat="42.7896392" lon="12.1036952"><ele>357.0</ele><time>2026-04-19T07:48:31.091Z</time></trkpt><trkpt lat="42.7895929" lon="12.1038851"><ele>357.0</ele><time>2026-04-19T07:48:32.088Z</time></trkpt><trkpt lat="42.7895584" lon="12.1040765"><ele>357.0</ele><time>2026-04-19T07:48:33.078Z</time></trkpt><trkpt lat="42.7895749" lon="12.1042926"><ele>354.0</ele><time>2026-04-19T07:48:34.083Z</time></trkpt><trkpt lat="42.7895553" lon="12.1044633"><ele>351.0</ele><time>2026-04-19T07:48:35.095Z</time></trkpt><trkpt lat="42.7894723" lon="12.1045698"><ele>348.0</ele><time>2026-04-19T07:48:36.076Z</time></trkpt><trkpt lat="42.7893601" lon="12.1046046"><ele>345.0</ele><time>2026-04-19T07:48:37.095Z</time></trkpt><trkpt lat="42.7892443" lon="12.1046242"><ele>345.0</ele><time>2026-04-19T07:48:38.089Z</time></trkpt><trkpt lat="42.7890871" lon="12.1045876"><ele>345.0</ele><time>2026-04-19T07:48:39.08Z</time></trkpt><trkpt lat="42.7888866" lon="12.1045747"><ele>345.0</ele><time>2026-04-19T07:48:40.085Z</time></trkpt><trkpt lat="42.7886942" lon="12.1046291"><ele>345.0</ele><time>2026-04-19T07:48:41.078Z</time></trkpt><trkpt lat="42.7885225" lon="12.104719"><ele>345.0</ele><time>2026-04-19T07:48:42.093Z</time></trkpt><trkpt lat="42.7884078" lon="12.104872"><ele>345.0</ele><time>2026-04-19T07:48:43.082Z</time></trkpt><trkpt lat="42.788356" lon="12.1050678"><ele>342.6666666666667</ele><time>2026-04-19T07:48:44.092Z</time></trkpt><trkpt lat="42.7883542" lon="12.1052912"><ele>340.33333333333337</ele><time>2026-04-19T07:48:45.104Z</time></trkpt><trkpt lat="42.7883775" lon="12.1055289"><ele>338.0</ele><time>2026-04-19T07:48:46.09Z</time></trkpt><trkpt lat="42.7883666" lon="12.1057413"><ele>339.75</ele><time>2026-04-19T07:48:47.074Z</time></trkpt><trkpt lat="42.7883093" lon="12.1059255"><ele>341.5</ele><time>2026-04-19T07:48:48.082Z</time></trkpt><trkpt lat="42.7882554" lon="12.1060776"><ele>343.25</ele><time>2026-04-19T07:48:49.089Z</time></trkpt><trkpt lat="42.7881149" lon="12.1061108"><ele>345.0</ele><time>2026-04-19T07:48:50.102Z</time></trkpt><trkpt lat="42.7879411" lon="12.1060796"><ele>345.0</ele><time>2026-04-19T07:48:51.093Z</time></trkpt><trkpt lat="42.7877387" lon="12.1060408"><ele>345.0</ele><time>2026-04-19T07:48:52.09Z</time></trkpt><trkpt lat="42.78753" lon="12.1059665"><ele>345.0</ele><time>2026-04-19T07:48:53.092Z</time></trkpt><trkpt lat="42.7873051" lon="12.105864"><ele>333.0</ele><time>2026-04-19T07:48:54.093Z</time></trkpt><trkpt lat="42.787125" lon="12.1057105"><ele>321.0</ele><time>2026-04-19T07:48:55.093Z</time></trkpt><trkpt lat="42.7869555" lon="12.1055709"><ele>309.0</ele><time>2026-04-19T07:48:56.08Z</time></trkpt><trkpt lat="42.7867905" lon="12.105446"><ele>308.3333333333333</ele><time>2026-04-19T07:48:57.089Z</time></trkpt><trkpt lat="42.7865903" lon="12.1054255"><ele>307.66666666666663</ele><time>2026-04-19T07:48:58.092Z</time></trkpt><trkpt lat="42.7864142" lon="12.105422"><ele>307.0</ele><time>2026-04-19T07:48:59.081Z</time></trkpt><trkpt lat="42.7862562" lon="12.1054149"><ele>307.0</ele><time>2026-04-19T07:49:00.093Z</time></trkpt><trkpt lat="42.7861193" lon="12.1054235"><ele>307.0</ele><time>2026-04-19T07:49:01.08Z</time></trkpt><trkpt lat="42.7860144" lon="12.105498"><ele>307.0</ele><time>2026-04-19T07:49:02.079Z</time></trkpt><trkpt lat="42.7859619" lon="12.1056421"><ele>307.0</ele><time>2026-04-19T07:49:03.095Z</time></trkpt><trkpt lat="42.7859697" lon="12.1058206"><ele>313.0</ele><time>2026-04-19T07:49:04.094Z</time></trkpt><trkpt lat="42.7860363" lon="12.1060179"><ele>319.0</ele><time>2026-04-19T07:49:05.091Z</time></trkpt><trkpt lat="42.7861403" lon="12.1062339"><ele>325.0</ele><time>2026-04-19T07:49:06.101Z</time></trkpt><trkpt lat="42.7862255" lon="12.1064637"><ele>325.3333333333333</ele><time>2026-04-19T07:49:07.073Z</time></trkpt><trkpt lat="42.786264" lon="12.1067349"><ele>325.6666666666667</ele><time>2026-04-19T07:49:08.106Z</time></trkpt><trkpt lat="42.7862699" lon="12.1070336"><ele>326.0</ele><time>2026-04-19T07:49:09.125Z</time></trkpt><trkpt lat="42.7862646" lon="12.1073175"><ele>325.0</ele><time>2026-04-19T07:49:10.088Z</time></trkpt><trkpt lat="42.7862647" lon="12.1075841"><ele>324.0</ele><time>2026-04-19T07:49:11.081Z</time></trkpt><trkpt lat="42.7862095" lon="12.1077896"><ele>323.0</ele><time>2026-04-19T07:49:12.088Z</time></trkpt><trkpt lat="42.7860994" lon="12.1079455"><ele>318.0</ele><time>2026-04-19T07:49:13.074Z</time></trkpt><trkpt lat="42.7859445" lon="12.1080759"><ele>313.0</ele><time>2026-04-19T07:49:14.09Z</time></trkpt><trkpt lat="42.785762" lon="12.1081878"><ele>308.0</ele><time>2026-04-19T07:49:15.085Z</time></trkpt><trkpt lat="42.7855479" lon="12.1082646"><ele>308.0</ele><time>2026-04-19T07:49:16.083Z</time></trkpt><trkpt lat="42.785312" lon="12.1083066"><ele>308.0</ele><time>2026-04-19T07:49:17.095Z</time></trkpt><trkpt lat="42.7850796" lon="12.1083212"><ele>304.33333333333337</ele><time>2026-04-19T07:49:18.083Z</time></trkpt><trkpt lat="42.7848598" lon="12.108319"><ele>300.6666666666667</ele><time>2026-04-19T07:49:19.092Z</time></trkpt><trkpt lat="42.7846676" lon="12.1083132"><ele>297.0</ele><time>2026-04-19T07:49:20.084Z</time></trkpt><trkpt lat="42.7845051" lon="12.1083351"><ele>297.0</ele><time>2026-04-19T07:49:21.095Z</time></trkpt><trkpt lat="42.7843772" lon="12.1084193"><ele>297.0</ele><time>2026-04-19T07:49:22.097Z</time></trkpt><trkpt lat="42.7842996" lon="12.1085653"><ele>297.0</ele><time>2026-04-19T07:49:23.11Z</time></trkpt><trkpt lat="42.7842697" lon="12.1087701"><ele>297.0</ele><time>2026-04-19T07:49:24.092Z</time></trkpt><trkpt lat="42.7842494" lon="12.1090125"><ele>294.6666666666667</ele><time>2026-04-19T07:49:25.094Z</time></trkpt><trkpt lat="42.7842238" lon="12.1092896"><ele>292.33333333333337</ele><time>2026-04-19T07:49:26.094Z</time></trkpt><trkpt lat="42.7841981" lon="12.1095903"><ele>290.0</ele><time>2026-04-19T07:49:27.111Z</time></trkpt><trkpt lat="42.7841725" lon="12.1099089"><ele>289.0</ele><time>2026-04-19T07:49:28.106Z</time></trkpt><trkpt lat="42.7841522" lon="12.1102512"><ele>288.0</ele><time>2026-04-19T07:49:29.123Z</time></trkpt><trkpt lat="42.7841429" lon="12.1105699"><ele>288.0</ele><time>2026-04-19T07:49:30.105Z</time></trkpt><trkpt lat="42.7841247" lon="12.1108779"><ele>288.0</ele><time>2026-04-19T07:49:31.118Z</time></trkpt><trkpt lat="42.7840837" lon="12.1111699"><ele>288.0</ele><time>2026-04-19T07:49:32.103Z</time></trkpt><trkpt lat="42.7839953" lon="12.1114368"><ele>289.0</ele><time>2026-04-19T07:49:33.088Z</time></trkpt><trkpt lat="42.78386" lon="12.1116773"><ele>290.0</ele><time>2026-04-19T07:49:34.107Z</time></trkpt><trkpt lat="42.783705" lon="12.1119031"><ele>291.0</ele><time>2026-04-19T07:49:35.11Z</time></trkpt><trkpt lat="42.7835746" lon="12.1121657"><ele>284.5</ele><time>2026-04-19T07:49:36.111Z</time></trkpt><trkpt lat="42.783439" lon="12.1124477"><ele>278.0</ele><time>2026-04-19T07:49:37.107Z</time></trkpt><trkpt lat="42.7833439" lon="12.112788"><ele>278.0</ele><time>2026-04-19T07:49:38.105Z</time></trkpt><trkpt lat="42.7832162" lon="12.1131099"><ele>278.0</ele><time>2026-04-19T07:49:39.087Z</time></trkpt><trkpt lat="42.7830701" lon="12.1134193"><ele>279.5</ele><time>2026-04-19T07:49:40.09Z</time></trkpt><trkpt lat="42.7828973" lon="12.1136889"><ele>281.0</ele><time>2026-04-19T07:49:41.087Z</time></trkpt><trkpt lat="42.782735" lon="12.113939"><ele>279.5</ele><time>2026-04-19T07:49:42.082Z</time></trkpt><trkpt lat="42.7825911" lon="12.1141893"><ele>278.0</ele><time>2026-04-19T07:49:43.102Z</time></trkpt><trkpt lat="42.7824932" lon="12.1144533"><ele>278.0</ele><time>2026-04-19T07:49:44.103Z</time></trkpt><trkpt lat="42.7824457" lon="12.1147125"><ele>278.0</ele><time>2026-04-19T07:49:45.108Z</time></trkpt><trkpt lat="42.7824352" lon="12.1149643"><ele>278.0</ele><time>2026-04-19T07:49:46.112Z</time></trkpt><trkpt lat="42.7824551" lon="12.1151962"><ele>278.75</ele><time>2026-04-19T07:49:47.103Z</time></trkpt><trkpt lat="42.7824736" lon="12.1153997"><ele>279.5</ele><time>2026-04-19T07:49:48.099Z</time></trkpt><trkpt lat="42.782445" lon="12.1155583"><ele>280.25</ele><time>2026-04-19T07:49:49.107Z</time></trkpt><trkpt lat="42.7823809" lon="12.115662"><ele>281.0</ele><time>2026-04-19T07:49:50.085Z</time></trkpt><trkpt lat="42.7822871" lon="12.1156929"><ele>281.0</ele><time>2026-04-19T07:49:51.111Z</time></trkpt><trkpt lat="42.7821828" lon="12.1156344"><ele>281.0</ele><time>2026-04-19T07:49:52.105Z</time></trkpt><trkpt lat="42.782059" lon="12.1155176"><ele>281.0</ele><time>2026-04-19T07:49:53.096Z</time></trkpt><trkpt lat="42.7819116" lon="12.115375"><ele>281.0</ele><time>2026-04-19T07:49:54.107Z</time></trkpt><trkpt lat="42.7817454" lon="12.1152208"><ele>277.33333333333337</ele><time>2026-04-19T07:49:55.082Z</time></trkpt><trkpt lat="42.7815584" lon="12.1150735"><ele>273.6666666666667</ele><time>2026-04-19T07:49:56.095Z</time></trkpt><trkpt lat="42.7813592" lon="12.114929"><ele>270.0</ele><time>2026-04-19T07:49:57.113Z</time></trkpt><trkpt lat="42.7811186" lon="12.1148737"><ele>268.5</ele><time>2026-04-19T07:49:58.106Z</time></trkpt><trkpt lat="42.7808724" lon="12.1148417"><ele>267.0</ele><time>2026-04-19T07:49:59.095Z</time></trkpt><trkpt lat="42.7806322" lon="12.1148362"><ele>267.0</ele><time>2026-04-19T07:50:00.094Z</time></trkpt><trkpt lat="42.7803892" lon="12.1148593"><ele>267.0</ele><time>2026-04-19T07:50:01.098Z</time></trkpt><trkpt lat="42.7801374" lon="12.114956"><ele>261.0</ele><time>2026-04-19T07:50:02.109Z</time></trkpt><trkpt lat="42.7799031" lon="12.1150956"><ele>255.0</ele><time>2026-04-19T07:50:03.099Z</time></trkpt><trkpt lat="42.7796888" lon="12.1152572"><ele>255.0</ele><time>2026-04-19T07:50:04.12Z</time></trkpt><trkpt lat="42.7794831" lon="12.1154162"><ele>255.0</ele><time>2026-04-19T07:50:05.093Z</time></trkpt><trkpt lat="42.7792641" lon="12.1155305"><ele>255.0</ele><time>2026-04-19T07:50:06.11Z</time></trkpt><trkpt lat="42.779033" lon="12.1156108"><ele>255.0</ele><time>2026-04-19T07:50:07.126Z</time></trkpt><trkpt lat="42.7788033" lon="12.1156474"><ele>255.0</ele><time>2026-04-19T07:50:08.105Z</time></trkpt><trkpt lat="42.778579" lon="12.1156392"><ele>255.0</ele><time>2026-04-19T07:50:09.121Z</time></trkpt><trkpt lat="42.7783627" lon="12.1156029"><ele>255.0</ele><time>2026-04-19T07:50:10.115Z</time></trkpt><trkpt lat="42.7781553" lon="12.1155483"><ele>251.33333333333331</ele><time>2026-04-19T07:50:11.106Z</time></trkpt><trkpt lat="42.7779621" lon="12.1154601"><ele>247.66666666666666</ele><time>2026-04-19T07:50:12.098Z</time></trkpt><trkpt lat="42.7777788" lon="12.1153321"><ele>244.0</ele><time>2026-04-19T07:50:13.089Z</time></trkpt><trkpt lat="42.7776131" lon="12.1151689"><ele>239.66666666666666</ele><time>2026-04-19T07:50:14.1Z</time></trkpt><trkpt lat="42.7774623" lon="12.114997"><ele>235.33333333333331</ele><time>2026-04-19T07:50:15.078Z</time></trkpt><trkpt lat="42.7773667" lon="12.1147652"><ele>231.0</ele><time>2026-04-19T07:50:16.101Z</time></trkpt><trkpt lat="42.7773285" lon="12.1145298"><ele>230.0</ele><time>2026-04-19T07:50:17.085Z</time></trkpt><trkpt lat="42.7773589" lon="12.1142859"><ele>229.0</ele><time>2026-04-19T07:50:18.093Z</time></trkpt><trkpt lat="42.777414" lon="12.1140249"><ele>228.0</ele><time>2026-04-19T07:50:19.102Z</time></trkpt><trkpt lat="42.7774389" lon="12.1137675"><ele>227.33333333333331</ele><time>2026-04-19T07:50:20.103Z</time></trkpt><trkpt lat="42.7774015" lon="12.1135159"><ele>226.66666666666666</ele><time>2026-04-19T07:50:21.087Z</time></trkpt><trkpt lat="42.7773127" lon="12.1132992"><ele>226.0</ele><time>2026-04-19T07:50:22.106Z</time></trkpt><trkpt lat="42.7771701" lon="12.1130992"><ele>223.33333333333331</ele><time>2026-04-19T07:50:23.095Z</time></trkpt><trkpt lat="42.776994" lon="12.1129374"><ele>220.66666666666669</ele><time>2026-04-19T07:50:24.103Z</time></trkpt><trkpt lat="42.7767894" lon="12.1128313"><ele>218.0</ele><time>2026-04-19T07:50:25.095Z</time></trkpt><trkpt lat="42.776569" lon="12.112768"><ele>215.33333333333334</ele><time>2026-04-19T07:50:26.109Z</time></trkpt><trkpt lat="42.7763466" lon="12.1127672"><ele>212.66666666666669</ele><time>2026-04-19T07:50:27.108Z</time></trkpt><trkpt lat="42.7761427" lon="12.1127759"><ele>210.0</ele><time>2026-04-19T07:50:28.105Z</time></trkpt><trkpt lat="42.7759697" lon="12.1128303"><ele>210.66666666666669</ele><time>2026-04-19T07:50:29.122Z</time></trkpt><trkpt lat="42.7758054" lon="12.1129131"><ele>211.33333333333334</ele><time>2026-04-19T07:50:30.098Z</time></trkpt><trkpt lat="42.7756821" lon="12.1131212"><ele>212.0</ele><time>2026-04-19T07:50:31.114Z</time></trkpt><trkpt lat="42.7755461" lon="12.1132991"><ele>212.0</ele><time>2026-04-19T07:50:32.107Z</time></trkpt><trkpt lat="42.7753687" lon="12.1134025"><ele>212.0</ele><time>2026-04-19T07:50:33.102Z</time></trkpt><trkpt lat="42.775157" lon="12.1134309"><ele>212.0</ele><time>2026-04-19T07:50:34.096Z</time></trkpt><trkpt lat="42.7749288" lon="12.1134466"><ele>208.5</ele><time>2026-04-19T07:50:35.091Z</time></trkpt><trkpt lat="42.7746954" lon="12.1134425"><ele>205.0</ele><time>2026-04-19T07:50:36.108Z</time></trkpt><trkpt lat="42.7744094" lon="12.1134223"><ele>202.0</ele><time>2026-04-19T07:50:37.091Z</time></trkpt><trkpt lat="42.7741216" lon="12.1135354"><ele>199.0</ele><time>2026-04-19T07:50:38.111Z</time></trkpt><trkpt lat="42.7738449" lon="12.1136528"><ele>199.0</ele><time>2026-04-19T07:50:39.105Z</time></trkpt><trkpt lat="42.77357" lon="12.1137505"><ele>199.0</ele><time>2026-04-19T07:50:40.084Z</time></trkpt><trkpt lat="42.773303" lon="12.1138349"><ele>197.5</ele><time>2026-04-19T07:50:41.105Z</time></trkpt><trkpt lat="42.7730387" lon="12.1138711"><ele>196.0</ele><time>2026-04-19T07:50:42.098Z</time></trkpt><trkpt lat="42.7728054" lon="12.1139414"><ele>194.33333333333331</ele><time>2026-04-19T07:50:43.108Z</time></trkpt><trkpt lat="42.7725828" lon="12.1140577"><ele>192.66666666666666</ele><time>2026-04-19T07:50:44.105Z</time></trkpt><trkpt lat="42.7723938" lon="12.1141846"><ele>191.0</ele><time>2026-04-19T07:50:45.097Z</time></trkpt><trkpt lat="42.7722513" lon="12.114351"><ele>188.66666666666666</ele><time>2026-04-19T07:50:46.075Z</time></trkpt><trkpt lat="42.7721343" lon="12.1145153"><ele>186.33333333333334</ele><time>2026-04-19T07:50:47.091Z</time></trkpt><trkpt lat="42.7720111" lon="12.1146351"><ele>184.0</ele><time>2026-04-19T07:50:48.088Z</time></trkpt><trkpt lat="42.7718766" lon="12.1146749"><ele>182.33333333333334</ele><time>2026-04-19T07:50:49.073Z</time></trkpt><trkpt lat="42.7717264" lon="12.1146159"><ele>180.66666666666666</ele><time>2026-04-19T07:50:50.078Z</time></trkpt><trkpt lat="42.7715816" lon="12.114486"><ele>179.0</ele><time>2026-04-19T07:50:51.082Z</time></trkpt><trkpt lat="42.7714471" lon="12.1142978"><ele>179.0</ele><time>2026-04-19T07:50:52.078Z</time></trkpt><trkpt lat="42.7712845" lon="12.1141199"><ele>179.0</ele><time>2026-04-19T07:50:53.088Z</time></trkpt><trkpt lat="42.7710959" lon="12.1139972"><ele>179.0</ele><time>2026-04-19T07:50:54.084Z</time></trkpt><trkpt lat="42.7709257" lon="12.1138875"><ele>174.0</ele><time>2026-04-19T07:50:55.091Z</time></trkpt><trkpt lat="42.7707903" lon="12.1137479"><ele>169.0</ele><time>2026-04-19T07:50:56.112Z</time></trkpt><trkpt lat="42.7707158" lon="12.1135617"><ele>164.0</ele><time>2026-04-19T07:50:57.099Z</time></trkpt><trkpt lat="42.7706983" lon="12.1133338"><ele>160.0</ele><time>2026-04-19T07:50:58.097Z</time></trkpt><trkpt lat="42.7707118" lon="12.1130881"><ele>156.0</ele><time>2026-04-19T07:50:59.082Z</time></trkpt><trkpt lat="42.7708335" lon="12.1129025"><ele>152.0</ele><time>2026-04-19T07:51:00.111Z</time></trkpt><trkpt lat="42.7709959" lon="12.112713"><ele>159.0</ele><time>2026-04-19T07:51:01.101Z</time></trkpt><trkpt lat="42.7712084" lon="12.1125673"><ele>166.0</ele><time>2026-04-19T07:51:02.104Z</time></trkpt><trkpt lat="42.7714406" lon="12.1124157"><ele>161.66666666666669</ele><time>2026-04-19T07:51:03.103Z</time></trkpt><trkpt lat="42.771658" lon="12.112286"><ele>157.33333333333334</ele><time>2026-04-19T07:51:04.079Z</time></trkpt><trkpt lat="42.7718438" lon="12.1121691"><ele>153.0</ele><time>2026-04-19T07:51:05.095Z</time></trkpt><trkpt lat="42.7719802" lon="12.1120894"><ele>153.0</ele><time>2026-04-19T07:51:06.094Z</time></trkpt><trkpt lat="42.7721205" lon="12.1119786"><ele>153.0</ele><time>2026-04-19T07:51:07.094Z</time></trkpt><trkpt lat="42.7721804" lon="12.1118284"><ele>153.0</ele><time>2026-04-19T07:51:08.096Z</time></trkpt><trkpt lat="42.7722102" lon="12.111677"><ele>153.0</ele><time>2026-04-19T07:51:09.092Z</time></trkpt><trkpt lat="42.77216" lon="12.1114984"><ele>154.0</ele><time>2026-04-19T07:51:10.089Z</time></trkpt><trkpt lat="42.7720928" lon="12.1113248"><ele>155.0</ele><time>2026-04-19T07:51:11.085Z</time></trkpt><trkpt lat="42.7719597" lon="12.1112267"><ele>156.0</ele><time>2026-04-19T07:51:12.08Z</time></trkpt><trkpt lat="42.7718107" lon="12.1112083"><ele>157.0</ele><time>2026-04-19T07:51:13.087Z</time></trkpt><trkpt lat="42.7716508" lon="12.1112204"><ele>158.66666666666669</ele><time>2026-04-19T07:51:14.087Z</time></trkpt><trkpt lat="42.77145" lon="12.111304"><ele>160.33333333333334</ele><time>2026-04-19T07:51:15.077Z</time></trkpt><trkpt lat="42.7712304" lon="12.1113731"><ele>162.0</ele><time>2026-04-19T07:51:16.081Z</time></trkpt><trkpt lat="42.7709837" lon="12.1114575"><ele>158.0</ele><time>2026-04-19T07:51:17.077Z</time></trkpt><trkpt lat="42.7707306" lon="12.1115414"><ele>154.0</ele><time>2026-04-19T07:51:18.084Z</time></trkpt><trkpt lat="42.7704787" lon="12.1116267"><ele>154.0</ele><time>2026-04-19T07:51:19.081Z</time></trkpt><trkpt lat="42.7702443" lon="12.1117572"><ele>154.0</ele><time>2026-04-19T07:51:20.092Z</time></trkpt><trkpt lat="42.7700354" lon="12.1119554"><ele>152.0</ele><time>2026-04-19T07:51:21.089Z</time></trkpt><trkpt lat="42.7698709" lon="12.1122209"><ele>150.0</ele><time>2026-04-19T07:51:22.092Z</time></trkpt><trkpt lat="42.7696895" lon="12.1124705"><ele>150.0</ele><time>2026-04-19T07:51:23.102Z</time></trkpt><trkpt lat="42.7695066" lon="12.1126894"><ele>150.0</ele><time>2026-04-19T07:51:24.107Z</time></trkpt><trkpt lat="42.7693217" lon="12.1128686"><ele>153.66666666666666</ele><time>2026-04-19T07:51:25.113Z</time></trkpt><trkpt lat="42.7691313" lon="12.1129991"><ele>157.33333333333331</ele><time>2026-04-19T07:51:26.112Z</time></trkpt><trkpt lat="42.768934" lon="12.1130705"><ele>161.0</ele><time>2026-04-19T07:51:27.122Z</time></trkpt><trkpt lat="42.7687081" lon="12.1130541"><ele>158.5</ele><time>2026-04-19T07:51:28.108Z</time></trkpt><trkpt lat="42.7684826" lon="12.1129777"><ele>156.0</ele><time>2026-04-19T07:51:29.099Z</time></trkpt><trkpt lat="42.7682775" lon="12.1128562"><ele>156.0</ele><time>2026-04-19T07:51:30.104Z</time></trkpt><trkpt lat="42.7681059" lon="12.1126766"><ele>156.0</ele><time>2026-04-19T07:51:31.115Z</time></trkpt><trkpt lat="42.7679611" lon="12.1124332"><ele>156.0</ele><time>2026-04-19T07:51:32.103Z</time></trkpt><trkpt lat="42.7678195" lon="12.1121727"><ele>152.0</ele><time>2026-04-19T07:51:33.097Z</time></trkpt><trkpt lat="42.7676597" lon="12.1119294"><ele>148.0</ele><time>2026-04-19T07:51:34.095Z</time></trkpt><trkpt lat="42.7674619" lon="12.1117488"><ele>148.0</ele><time>2026-04-19T07:51:35.084Z</time></trkpt><trkpt lat="42.7672348" lon="12.1116321"><ele>148.0</ele><time>2026-04-19T07:51:36.099Z</time></trkpt><trkpt lat="42.7669852" lon="12.1115661"><ele>149.5</ele><time>2026-04-19T07:51:37.095Z</time></trkpt><trkpt lat="42.7667171" lon="12.1115445"><ele>151.0</ele><time>2026-04-19T07:51:38.092Z</time></trkpt><trkpt lat="42.7664338" lon="12.1115433"><ele>151.0</ele><time>2026-04-19T07:51:39.095Z</time></trkpt><trkpt lat="42.7661378" lon="12.1115548"><ele>151.0</ele><time>2026-04-19T07:51:40.11Z</time></trkpt><trkpt lat="42.7658242" lon="12.1115732"><ele>150.0</ele><time>2026-04-19T07:51:41.097Z</time></trkpt><trkpt lat="42.7655015" lon="12.1116015"><ele>149.0</ele><time>2026-04-19T07:51:42.092Z</time></trkpt><trkpt lat="42.7651794" lon="12.1116402"><ele>148.5</ele><time>2026-04-19T07:51:43.082Z</time></trkpt><trkpt lat="42.7648706" lon="12.1116899"><ele>148.0</ele><time>2026-04-19T07:51:44.094Z</time></trkpt><trkpt lat="42.7645701" lon="12.1117599"><ele>148.5</ele><time>2026-04-19T07:51:45.086Z</time></trkpt><trkpt lat="42.7642762" lon="12.1118624"><ele>149.0</ele><time>2026-04-19T07:51:46.089Z</time></trkpt><trkpt lat="42.7639853" lon="12.1119874"><ele>149.0</ele><time>2026-04-19T07:51:47.094Z</time></trkpt><trkpt lat="42.763693" lon="12.1121197"><ele>149.0</ele><time>2026-04-19T07:51:48.093Z</time></trkpt><trkpt lat="42.7634026" lon="12.1122557"><ele>149.0</ele><time>2026-04-19T07:51:49.092Z</time></trkpt><trkpt lat="42.7631123" lon="12.1123919"><ele>149.0</ele><time>2026-04-19T07:51:50.082Z</time></trkpt><trkpt lat="42.7628251" lon="12.1125352"><ele>149.5</ele><time>2026-04-19T07:51:51.112Z</time></trkpt><trkpt lat="42.7625373" lon="12.1126997"><ele>150.0</ele><time>2026-04-19T07:51:52.112Z</time></trkpt><trkpt lat="42.7622507" lon="12.1128687"><ele>150.0</ele><time>2026-04-19T07:51:53.099Z</time></trkpt><trkpt lat="42.7619595" lon="12.1130558"><ele>150.0</ele><time>2026-04-19T07:51:54.1Z</time></trkpt><trkpt lat="42.7616661" lon="12.1132613"><ele>148.5</ele><time>2026-04-19T07:51:55.109Z</time></trkpt><trkpt lat="42.7613646" lon="12.113486"><ele>147.0</ele><time>2026-04-19T07:51:56.104Z</time></trkpt><trkpt lat="42.7610561" lon="12.1137285"><ele>146.0</ele><time>2026-04-19T07:51:57.096Z</time></trkpt><trkpt lat="42.7607412" lon="12.1139933"><ele>145.0</ele><time>2026-04-19T07:51:58.09Z</time></trkpt><trkpt lat="42.7604193" lon="12.1142807"><ele>146.5</ele><time>2026-04-19T07:51:59.128Z</time></trkpt><trkpt lat="42.7600892" lon="12.1145853"><ele>148.0</ele><time>2026-04-19T07:52:00.117Z</time></trkpt><trkpt lat="42.7597499" lon="12.1148977"><ele>147.5</ele><time>2026-04-19T07:52:01.098Z</time></trkpt><trkpt lat="42.7594027" lon="12.1152196"><ele>147.0</ele><time>2026-04-19T07:52:02.087Z</time></trkpt><trkpt lat="42.7590522" lon="12.1155448"><ele>147.0</ele><time>2026-04-19T07:52:03.098Z</time></trkpt><trkpt lat="42.7587189" lon="12.1158526"><ele>147.0</ele><time>2026-04-19T07:52:04.116Z</time></trkpt><trkpt lat="42.7584062" lon="12.1161365"><ele>147.0</ele><time>2026-04-19T07:52:05.102Z</time></trkpt><trkpt lat="42.758115" lon="12.1164006"><ele>147.0</ele><time>2026-04-19T07:52:06.102Z</time></trkpt><trkpt lat="42.757841" lon="12.1166462"><ele>148.5</ele><time>2026-04-19T07:52:07.099Z</time></trkpt><trkpt lat="42.7575863" lon="12.1168781"><ele>150.0</ele><time>2026-04-19T07:52:08.1Z</time></trkpt><trkpt lat="42.7573478" lon="12.1170952"><ele>150.0</ele><time>2026-04-19T07:52:09.095Z</time></trkpt><trkpt lat="42.7571312" lon="12.1172963"><ele>150.0</ele><time>2026-04-19T07:52:10.114Z</time></trkpt><trkpt lat="42.7569351" lon="12.1174931"><ele>152.5</ele><time>2026-04-19T07:52:11.11Z</time></trkpt><trkpt lat="42.7567628" lon="12.1176989"><ele>155.0</ele><time>2026-04-19T07:52:12.107Z</time></trkpt><trkpt lat="42.7566067" lon="12.1179122"><ele>155.0</ele><time>2026-04-19T07:52:13.094Z</time></trkpt><trkpt lat="42.7564608" lon="12.1181324"><ele>155.0</ele><time>2026-04-19T07:52:14.106Z</time></trkpt><trkpt lat="42.7563203" lon="12.1183592"><ele>155.0</ele><time>2026-04-19T07:52:15.094Z</time></trkpt><trkpt lat="42.7561747" lon="12.1185997"><ele>154.0</ele><time>2026-04-19T07:52:16.076Z</time></trkpt><trkpt lat="42.7560213" lon="12.1188596"><ele>153.0</ele><time>2026-04-19T07:52:17.107Z</time></trkpt><trkpt lat="42.7558659" lon="12.1191374"><ele>153.0</ele><time>2026-04-19T07:52:18.113Z</time></trkpt><trkpt lat="42.755714" lon="12.1194183"><ele>153.0</ele><time>2026-04-19T07:52:19.107Z</time></trkpt><trkpt lat="42.7555696" lon="12.1196843"><ele>151.0</ele><time>2026-04-19T07:52:20.098Z</time></trkpt><trkpt lat="42.7554338" lon="12.1199379"><ele>149.0</ele><time>2026-04-19T07:52:21.096Z</time></trkpt><trkpt lat="42.7553042" lon="12.1201773"><ele>147.0</ele><time>2026-04-19T07:52:22.113Z</time></trkpt><trkpt lat="42.7551861" lon="12.1203929"><ele>149.0</ele><time>2026-04-19T07:52:23.105Z</time></trkpt><trkpt lat="42.7550596" lon="12.120583"><ele>151.0</ele><time>2026-04-19T07:52:24.116Z</time></trkpt><trkpt lat="42.7549259" lon="12.1207522"><ele>153.0</ele><time>2026-04-19T07:52:25.1Z</time></trkpt><trkpt lat="42.7547671" lon="12.1208467"><ele>153.0</ele><time>2026-04-19T07:52:26.101Z</time></trkpt><trkpt lat="42.7545879" lon="12.1208629"><ele>153.0</ele><time>2026-04-19T07:52:27.104Z</time></trkpt><trkpt lat="42.7543913" lon="12.1208322"><ele>153.0</ele><time>2026-04-19T07:52:28.087Z</time></trkpt><trkpt lat="42.7541837" lon="12.1207287"><ele>161.0</ele><time>2026-04-19T07:52:29.087Z</time></trkpt><trkpt lat="42.7539938" lon="12.1206506"><ele>169.0</ele><time>2026-04-19T07:52:30.08Z</time></trkpt><trkpt lat="42.7538179" lon="12.1206058"><ele>177.0</ele><time>2026-04-19T07:52:31.091Z</time></trkpt><trkpt lat="42.7536653" lon="12.1206067"><ele>177.0</ele><time>2026-04-19T07:52:32.122Z</time></trkpt><trkpt lat="42.7535426" lon="12.1206611"><ele>177.0</ele><time>2026-04-19T07:52:33.097Z</time></trkpt><trkpt lat="42.7534634" lon="12.1207785"><ele>177.0</ele><time>2026-04-19T07:52:34.091Z</time></trkpt><trkpt lat="42.753439" lon="12.1209394"><ele>177.0</ele><time>2026-04-19T07:52:35.088Z</time></trkpt><trkpt lat="42.7534677" lon="12.1211071"><ele>171.33333333333334</ele><time>2026-04-19T07:52:36.092Z</time></trkpt><trkpt lat="42.7535476" lon="12.1212542"><ele>165.66666666666669</ele><time>2026-04-19T07:52:37.095Z</time></trkpt><trkpt lat="42.7536783" lon="12.1213642"><ele>160.0</ele><time>2026-04-19T07:52:38.094Z</time></trkpt><trkpt lat="42.7538314" lon="12.1214544"><ele>159.5</ele><time>2026-04-19T07:52:39.09Z</time></trkpt><trkpt lat="42.7539571" lon="12.1215812"><ele>159.0</ele><time>2026-04-19T07:52:40.107Z</time></trkpt><trkpt lat="42.7540281" lon="12.1217416"><ele>158.5</ele><time>2026-04-19T07:52:41.105Z</time></trkpt><trkpt lat="42.7540421" lon="12.1219162"><ele>158.0</ele><time>2026-04-19T07:52:42.09Z</time></trkpt><trkpt lat="42.7540406" lon="12.1220913"><ele>158.0</ele><time>2026-04-19T07:52:43.104Z</time></trkpt><trkpt lat="42.7539764" lon="12.1222618"><ele>158.0</ele><time>2026-04-19T07:52:44.103Z</time></trkpt><trkpt lat="42.7538713" lon="12.1224691"><ele>158.0</ele><time>2026-04-19T07:52:45.086Z</time></trkpt><trkpt lat="42.7537435" lon="12.1226972"><ele>159.66666666666666</ele><time>2026-04-19T07:52:46.096Z</time></trkpt><trkpt lat="42.753571" lon="12.1228956"><ele>161.33333333333334</ele><time>2026-04-19T07:52:47.075Z</time></trkpt><trkpt lat="42.7533956" lon="12.1230761"><ele>163.0</ele><time>2026-04-19T07:52:48.09Z</time></trkpt><trkpt lat="42.7531876" lon="12.1232049"><ele>168.5</ele><time>2026-04-19T07:52:49.1Z</time></trkpt><trkpt lat="42.7529724" lon="12.1233163"><ele>174.0</ele><time>2026-04-19T07:52:50.093Z</time></trkpt><trkpt lat="42.7527495" lon="12.1234042"><ele>176.33333333333334</ele><time>2026-04-19T07:52:51.104Z</time></trkpt><trkpt lat="42.752543" lon="12.1234386"><ele>178.66666666666669</ele><time>2026-04-19T07:52:52.094Z</time></trkpt><trkpt lat="42.752342" lon="12.1233411"><ele>181.0</ele><time>2026-04-19T07:52:53.107Z</time></trkpt><trkpt lat="42.7521471" lon="12.1232315"><ele>181.33333333333334</ele><time>2026-04-19T07:52:54.1Z</time></trkpt><trkpt lat="42.7519516" lon="12.1231161"><ele>181.66666666666666</ele><time>2026-04-19T07:52:55.092Z</time></trkpt><trkpt lat="42.7517552" lon="12.1231048"><ele>182.0</ele><time>2026-04-19T07:52:56.09Z</time></trkpt><trkpt lat="42.75155" lon="12.1231867"><ele>183.5</ele><time>2026-04-19T07:52:57.101Z</time></trkpt><trkpt lat="42.7513523" lon="12.1233324"><ele>185.0</ele><time>2026-04-19T07:52:58.113Z</time></trkpt><trkpt lat="42.7511736" lon="12.1235376"><ele>187.0</ele><time>2026-04-19T07:52:59.075Z</time></trkpt><trkpt lat="42.7510141" lon="12.1237832"><ele>189.0</ele><time>2026-04-19T07:53:00.105Z</time></trkpt><trkpt lat="42.7508589" lon="12.1240385"><ele>189.0</ele><time>2026-04-19T07:53:01.118Z</time></trkpt><trkpt lat="42.7507219" lon="12.1243137"><ele>189.0</ele><time>2026-04-19T07:53:02.09Z</time></trkpt><trkpt lat="42.7505775" lon="12.1245852"><ele>189.0</ele><time>2026-04-19T07:53:03.094Z</time></trkpt><trkpt lat="42.750458" lon="12.1248577"><ele>189.0</ele><time>2026-04-19T07:53:04.076Z</time></trkpt><trkpt lat="42.7503484" lon="12.1251508"><ele>189.5</ele><time>2026-04-19T07:53:05.113Z</time></trkpt><trkpt lat="42.7502517" lon="12.1254782"><ele>190.0</ele><time>2026-04-19T07:53:06.112Z</time></trkpt><trkpt lat="42.7501698" lon="12.1258048"><ele>183.5</ele><time>2026-04-19T07:53:07.074Z</time></trkpt><trkpt lat="42.7501156" lon="12.1261566"><ele>177.0</ele><time>2026-04-19T07:53:08.078Z</time></trkpt><trkpt lat="42.7500759" lon="12.1264654"><ele>177.0</ele><time>2026-04-19T07:53:09.09Z</time></trkpt><trkpt lat="42.7500251" lon="12.1267195"><ele>177.0</ele><time>2026-04-19T07:53:10.098Z</time></trkpt><trkpt lat="42.7499471" lon="12.1269238"><ele>177.0</ele><time>2026-04-19T07:53:11.096Z</time></trkpt><trkpt lat="42.749823" lon="12.127054"><ele>177.0</ele><time>2026-04-19T07:53:12.086Z</time></trkpt><trkpt lat="42.7496731" lon="12.1270941"><ele>177.0</ele><time>2026-04-19T07:53:13.104Z</time></trkpt><trkpt lat="42.74951" lon="12.1270607"><ele>177.0</ele><time>2026-04-19T07:53:14.108Z</time></trkpt><trkpt lat="42.7493269" lon="12.1270047"><ele>173.66666666666666</ele><time>2026-04-19T07:53:15.102Z</time></trkpt><trkpt lat="42.749139" lon="12.1270007"><ele>170.33333333333331</ele><time>2026-04-19T07:53:16.093Z</time></trkpt><trkpt lat="42.7489491" lon="12.1270768"><ele>167.0</ele><time>2026-04-19T07:53:17.09Z</time></trkpt><trkpt lat="42.7487704" lon="12.1272255"><ele>167.0</ele><time>2026-04-19T07:53:18.086Z</time></trkpt><trkpt lat="42.748602" lon="12.1273774"><ele>167.0</ele><time>2026-04-19T07:53:19.084Z</time></trkpt><trkpt lat="42.7484444" lon="12.1275163"><ele>167.0</ele><time>2026-04-19T07:53:20.098Z</time></trkpt><trkpt lat="42.7482954" lon="12.1276073"><ele>165.0</ele><time>2026-04-19T07:53:21.087Z</time></trkpt><trkpt lat="42.7481579" lon="12.1276425"><ele>163.0</ele><time>2026-04-19T07:53:22.102Z</time></trkpt><trkpt lat="42.7480353" lon="12.1276063"><ele>161.0</ele><time>2026-04-19T07:53:23.095Z</time></trkpt><trkpt lat="42.7479317" lon="12.1274734"><ele>159.0</ele><time>2026-04-19T07:53:24.09Z</time></trkpt><trkpt lat="42.7478811" lon="12.1272898"><ele>158.66666666666666</ele><time>2026-04-19T07:53:25.089Z</time></trkpt><trkpt lat="42.747862" lon="12.127068"><ele>158.33333333333331</ele><time>2026-04-19T07:53:26.084Z</time></trkpt><trkpt lat="42.7478411" lon="12.126843"><ele>158.0</ele><time>2026-04-19T07:53:27.086Z</time></trkpt><trkpt lat="42.7477742" lon="12.126642"><ele>157.0</ele><time>2026-04-19T07:53:28.083Z</time></trkpt><trkpt lat="42.7476609" lon="12.1264939"><ele>156.0</ele><time>2026-04-19T07:53:29.103Z</time></trkpt><trkpt lat="42.7475469" lon="12.1263462"><ele>155.0</ele><time>2026-04-19T07:53:30.106Z</time></trkpt><trkpt lat="42.7473562" lon="12.1263354"><ele>155.0</ele><time>2026-04-19T07:53:31.105Z</time></trkpt><trkpt lat="42.7471697" lon="12.1263725"><ele>155.0</ele><time>2026-04-19T07:53:32.088Z</time></trkpt><trkpt lat="42.7470405" lon="12.1264569"><ele>155.0</ele><time>2026-04-19T07:53:33.093Z</time></trkpt><trkpt lat="42.7469745" lon="12.1266591"><ele>153.33333333333331</ele><time>2026-04-19T07:53:34.106Z</time></trkpt><trkpt lat="42.7469598" lon="12.1268977"><ele>151.66666666666666</ele><time>2026-04-19T07:53:35.099Z</time></trkpt><trkpt lat="42.7469641" lon="12.1271554"><ele>150.0</ele><time>2026-04-19T07:53:36.094Z</time></trkpt><trkpt lat="42.7469944" lon="12.127428"><ele>150.0</ele><time>2026-04-19T07:53:37.101Z</time></trkpt><trkpt lat="42.7469602" lon="12.1276887"><ele>150.0</ele><time>2026-04-19T07:53:38.103Z</time></trkpt><trkpt lat="42.7468737" lon="12.1279366"><ele>150.0</ele><time>2026-04-19T07:53:39.091Z</time></trkpt><trkpt lat="42.7467529" lon="12.1281384"><ele>145.66666666666666</ele><time>2026-04-19T07:53:40.089Z</time></trkpt><trkpt lat="42.7465987" lon="12.1282732"><ele>141.33333333333331</ele><time>2026-04-19T07:53:41.09Z</time></trkpt><trkpt lat="42.7464078" lon="12.1283337"><ele>137.0</ele><time>2026-04-19T07:53:42.095Z</time></trkpt><trkpt lat="42.7462126" lon="12.1283705"><ele>137.66666666666666</ele><time>2026-04-19T07:53:43.08Z</time></trkpt><trkpt lat="42.7459875" lon="12.1284174"><ele>138.33333333333334</ele><time>2026-04-19T07:53:44.095Z</time></trkpt><trkpt lat="42.7457806" lon="12.1284836"><ele>139.0</ele><time>2026-04-19T07:53:45.111Z</time></trkpt><trkpt lat="42.7455705" lon="12.1285566"><ele>139.0</ele><time>2026-04-19T07:53:46.091Z</time></trkpt><trkpt lat="42.7453726" lon="12.1285657"><ele>139.0</ele><time>2026-04-19T07:53:47.077Z</time></trkpt><trkpt lat="42.7451785" lon="12.1285073"><ele>139.0</ele><time>2026-04-19T07:53:48.096Z</time></trkpt><trkpt lat="42.7449725" lon="12.1283852"><ele>139.0</ele><time>2026-04-19T07:53:49.088Z</time></trkpt><trkpt lat="42.7447517" lon="12.1282391"><ele>139.0</ele><time>2026-04-19T07:53:50.084Z</time></trkpt><trkpt lat="42.7445237" lon="12.1280848"><ele>133.0</ele><time>2026-04-19T07:53:51.115Z</time></trkpt><trkpt lat="42.7442775" lon="12.1279059"><ele>127.0</ele><time>2026-04-19T07:53:52.09Z</time></trkpt><trkpt lat="42.744035" lon="12.1277055"><ele>127.0</ele><time>2026-04-19T07:53:53.091Z</time></trkpt><trkpt lat="42.7437894" lon="12.1275016"><ele>127.0</ele><time>2026-04-19T07:53:54.111Z</time></trkpt><trkpt lat="42.7435386" lon="12.1273053"><ele>127.0</ele><time>2026-04-19T07:53:55.115Z</time></trkpt><trkpt lat="42.743287" lon="12.1271195"><ele>127.0</ele><time>2026-04-19T07:53:56.092Z</time></trkpt><trkpt lat="42.7430377" lon="12.1269319"><ele>127.0</ele><time>2026-04-19T07:53:57.105Z</time></trkpt><trkpt lat="42.7427961" lon="12.1267485"><ele>127.0</ele><time>2026-04-19T07:53:58.084Z</time></trkpt><trkpt lat="42.7425579" lon="12.1265732"><ele>126.5</ele><time>2026-04-19T07:53:59.098Z</time></trkpt><trkpt lat="42.7423227" lon="12.1264007"><ele>126.0</ele><time>2026-04-19T07:54:00.103Z</time></trkpt><trkpt lat="42.7421043" lon="12.126241"><ele>126.0</ele><time>2026-04-19T07:54:01.107Z</time></trkpt><trkpt lat="42.7418931" lon="12.1260854"><ele>126.0</ele><time>2026-04-19T07:54:02.096Z</time></trkpt><trkpt lat="42.7416939" lon="12.1259465"><ele>126.33333333333334</ele><time>2026-04-19T07:54:03.096Z</time></trkpt><trkpt lat="42.7415045" lon="12.1258059"><ele>126.66666666666667</ele><time>2026-04-19T07:54:04.092Z</time></trkpt><trkpt lat="42.7413275" lon="12.1256748"><ele>127.0</ele><time>2026-04-19T07:54:05.099Z</time></trkpt><trkpt lat="42.7411506" lon="12.125542"><ele>128.0</ele><time>2026-04-19T07:54:06.094Z</time></trkpt><trkpt lat="42.7409743" lon="12.125412"><ele>129.0</ele><time>2026-04-19T07:54:07.086Z</time></trkpt><trkpt lat="42.740796" lon="12.1252757"><ele>130.0</ele><time>2026-04-19T07:54:08.103Z</time></trkpt><trkpt lat="42.7406184" lon="12.1251369"><ele>130.0</ele><time>2026-04-19T07:54:09.093Z</time></trkpt><trkpt lat="42.7404389" lon="12.124997"><ele>130.0</ele><time>2026-04-19T07:54:10.111Z</time></trkpt><trkpt lat="42.7402575" lon="12.1248594"><ele>130.0</ele><time>2026-04-19T07:54:11.116Z</time></trkpt><trkpt lat="42.7400762" lon="12.1247231"><ele>129.66666666666669</ele><time>2026-04-19T07:54:12.104Z</time></trkpt><trkpt lat="42.7398946" lon="12.1245898"><ele>129.33333333333334</ele><time>2026-04-19T07:54:13.096Z</time></trkpt><trkpt lat="42.7397134" lon="12.1244607"><ele>129.0</ele><time>2026-04-19T07:54:14.11Z</time></trkpt><trkpt lat="42.7395341" lon="12.1243385"><ele>128.0</ele><time>2026-04-19T07:54:15.089Z</time></trkpt><trkpt lat="42.7393583" lon="12.1242363"><ele>127.0</ele><time>2026-04-19T07:54:16.086Z</time></trkpt><trkpt lat="42.7391833" lon="12.1241777"><ele>126.0</ele><time>2026-04-19T07:54:17.104Z</time></trkpt><trkpt lat="42.7390131" lon="12.1241786"><ele>126.0</ele><time>2026-04-19T07:54:18.105Z</time></trkpt><trkpt lat="42.7388465" lon="12.1242115"><ele>126.0</ele><time>2026-04-19T07:54:19.099Z</time></trkpt><trkpt lat="42.7386952" lon="12.1243433"><ele>126.0</ele><time>2026-04-19T07:54:20.118Z</time></trkpt><trkpt lat="42.7385407" lon="12.1245079"><ele>125.66666666666666</ele><time>2026-04-19T07:54:21.095Z</time></trkpt><trkpt lat="42.738378" lon="12.1246886"><ele>125.33333333333333</ele><time>2026-04-19T07:54:22.099Z</time></trkpt><trkpt lat="42.7382066" lon="12.1248743"><ele>125.0</ele><time>2026-04-19T07:54:23.114Z</time></trkpt><trkpt lat="42.7380256" lon="12.1250634"><ele>124.0</ele><time>2026-04-19T07:54:24.106Z</time></trkpt><trkpt lat="42.7378392" lon="12.1252604"><ele>123.0</ele><time>2026-04-19T07:54:25.123Z</time></trkpt><trkpt lat="42.7376478" lon="12.125461"><ele>123.0</ele><time>2026-04-19T07:54:26.109Z</time></trkpt><trkpt lat="42.7374524" lon="12.1256635"><ele>123.0</ele><time>2026-04-19T07:54:27.076Z</time></trkpt><trkpt lat="42.737258" lon="12.1258719"><ele>123.0</ele><time>2026-04-19T07:54:28.115Z</time></trkpt><trkpt lat="42.7370561" lon="12.1260872"><ele>123.0</ele><time>2026-04-19T07:54:29.096Z</time></trkpt><trkpt lat="42.736861" lon="12.1262956"><ele>122.0</ele><time>2026-04-19T07:54:30.126Z</time></trkpt><trkpt lat="42.7366666" lon="12.1265096"><ele>121.0</ele><time>2026-04-19T07:54:31.123Z</time></trkpt><trkpt lat="42.7364738" lon="12.1267217"><ele>121.0</ele><time>2026-04-19T07:54:32.088Z</time></trkpt><trkpt lat="42.7362845" lon="12.1269279"><ele>121.0</ele><time>2026-04-19T07:54:33.114Z</time></trkpt><trkpt lat="42.7360952" lon="12.1271314"><ele>121.0</ele><time>2026-04-19T07:54:34.109Z</time></trkpt><trkpt lat="42.7359068" lon="12.1273309"><ele>121.0</ele><time>2026-04-19T07:54:35.117Z</time></trkpt><trkpt lat="42.735723" lon="12.127523"><ele>120.33333333333334</ele><time>2026-04-19T07:54:36.119Z</time></trkpt><trkpt lat="42.7355492" lon="12.1277057"><ele>119.66666666666666</ele><time>2026-04-19T07:54:37.123Z</time></trkpt><trkpt lat="42.7353807" lon="12.1278814"><ele>119.0</ele><time>2026-04-19T07:54:38.11Z</time></trkpt><trkpt lat="42.7352143" lon="12.1280489"><ele>119.0</ele><time>2026-04-19T07:54:39.109Z</time></trkpt><trkpt lat="42.7350459" lon="12.1282321"><ele>119.0</ele><time>2026-04-19T07:54:40.103Z</time></trkpt><trkpt lat="42.7348692" lon="12.1284123"><ele>119.0</ele><time>2026-04-19T07:54:41.089Z</time></trkpt><trkpt lat="42.734679" lon="12.1286117"><ele>119.0</ele><time>2026-04-19T07:54:42.107Z</time></trkpt><trkpt lat="42.7344809" lon="12.1288216"><ele>119.0</ele><time>2026-04-19T07:54:43.12Z</time></trkpt><trkpt lat="42.7342818" lon="12.1290167"><ele>118.0</ele><time>2026-04-19T07:54:44.099Z</time></trkpt><trkpt lat="42.7341024" lon="12.1292093"><ele>117.0</ele><time>2026-04-19T07:54:45.114Z</time></trkpt><trkpt lat="42.7339552" lon="12.1293868"><ele>116.0</ele><time>2026-04-19T07:54:46.099Z</time></trkpt><trkpt lat="42.7338426" lon="12.1295392"><ele>116.0</ele><time>2026-04-19T07:54:47.115Z</time></trkpt><trkpt lat="42.7337415" lon="12.1296494"><ele>116.0</ele><time>2026-04-19T07:54:48.115Z</time></trkpt><trkpt lat="42.7336435" lon="12.129717"><ele>116.0</ele><time>2026-04-19T07:54:49.114Z</time></trkpt><trkpt lat="42.733529" lon="12.129747"><ele>116.0</ele><time>2026-04-19T07:54:50.132Z</time></trkpt><trkpt lat="42.7334077" lon="12.1297247"><ele>115.66666666666666</ele><time>2026-04-19T07:54:51.091Z</time></trkpt><trkpt lat="42.7332706" lon="12.1296479"><ele>115.33333333333334</ele><time>2026-04-19T07:54:52.116Z</time></trkpt><trkpt lat="42.7331116" lon="12.1295312"><ele>115.0</ele><time>2026-04-19T07:54:53.106Z</time></trkpt><trkpt lat="42.7329411" lon="12.1293905"><ele>115.0</ele><time>2026-04-19T07:54:54.113Z</time></trkpt><trkpt lat="42.7327543" lon="12.1292272"><ele>115.0</ele><time>2026-04-19T07:54:55.087Z</time></trkpt><trkpt lat="42.7325579" lon="12.1290476"><ele>115.0</ele><time>2026-04-19T07:54:56.125Z</time></trkpt><trkpt lat="42.7323518" lon="12.1288502"><ele>115.0</ele><time>2026-04-19T07:54:57.114Z</time></trkpt><trkpt lat="42.7321441" lon="12.1286381"><ele>115.0</ele><time>2026-04-19T07:54:58.108Z</time></trkpt><trkpt lat="42.7319336" lon="12.1284055"><ele>115.0</ele><time>2026-04-19T07:54:59.105Z</time></trkpt><trkpt lat="42.7317253" lon="12.1281514"><ele>115.0</ele><time>2026-04-19T07:55:00.115Z</time></trkpt><trkpt lat="42.7315182" lon="12.1278818"><ele>115.0</ele><time>2026-04-19T07:55:01.097Z</time></trkpt><trkpt lat="42.7313081" lon="12.1276067"><ele>115.0</ele><time>2026-04-19T07:55:02.113Z</time></trkpt><trkpt lat="42.7311023" lon="12.1273349"><ele>115.0</ele><time>2026-04-19T07:55:03.097Z</time></trkpt><trkpt lat="42.7309017" lon="12.1270674"><ele>115.0</ele><time>2026-04-19T07:55:04.117Z</time></trkpt><trkpt lat="42.7307073" lon="12.1268054"><ele>115.0</ele><time>2026-04-19T07:55:05.117Z</time></trkpt><trkpt lat="42.730518" lon="12.1265499"><ele>115.0</ele><time>2026-04-19T07:55:06.093Z</time></trkpt><trkpt lat="42.7303336" lon="12.1262997"><ele>115.0</ele><time>2026-04-19T07:55:07.097Z</time></trkpt><trkpt lat="42.7301523" lon="12.1260549"><ele>115.0</ele><time>2026-04-19T07:55:08.113Z</time></trkpt><trkpt lat="42.7299735" lon="12.1258155"><ele>115.0</ele><time>2026-04-19T07:55:09.11Z</time></trkpt><trkpt lat="42.729796" lon="12.1255796"><ele>117.5</ele><time>2026-04-19T07:55:10.127Z</time></trkpt><trkpt lat="42.729624" lon="12.1253492"><ele>120.0</ele><time>2026-04-19T07:55:11.106Z</time></trkpt><trkpt lat="42.7294599" lon="12.1251282"><ele>120.33333333333334</ele><time>2026-04-19T07:55:12.117Z</time></trkpt><trkpt lat="42.7293036" lon="12.1249178"><ele>120.66666666666667</ele><time>2026-04-19T07:55:13.098Z</time></trkpt><trkpt lat="42.7291533" lon="12.1247206"><ele>121.0</ele><time>2026-04-19T07:55:14.11Z</time></trkpt><trkpt lat="42.7290093" lon="12.1245494"><ele>120.25</ele><time>2026-04-19T07:55:15.095Z</time></trkpt><trkpt lat="42.7288764" lon="12.124407"><ele>119.5</ele><time>2026-04-19T07:55:16.1Z</time></trkpt><trkpt lat="42.7287629" lon="12.1242785"><ele>118.75</ele><time>2026-04-19T07:55:17.096Z</time></trkpt><trkpt lat="42.7286733" lon="12.1241481"><ele>118.0</ele><time>2026-04-19T07:55:18.089Z</time></trkpt><trkpt lat="42.7286112" lon="12.1240133"><ele>117.50000000000001</ele><time>2026-04-19T07:55:19.112Z</time></trkpt><trkpt lat="42.7285601" lon="12.1238902"><ele>117.0</ele><time>2026-04-19T07:55:20.117Z</time></trkpt><trkpt lat="42.7285108" lon="12.1238081"><ele>116.5</ele><time>2026-04-19T07:55:21.11Z</time></trkpt><trkpt lat="42.7284305" lon="12.1237713"><ele>116.0</ele><time>2026-04-19T07:55:22.102Z</time></trkpt><trkpt lat="42.7283512" lon="12.1237835"><ele>115.50000000000001</ele><time>2026-04-19T07:55:23.092Z</time></trkpt><trkpt lat="42.7282829" lon="12.1238481"><ele>115.0</ele><time>2026-04-19T07:55:24.11Z</time></trkpt><trkpt lat="42.7282225" lon="12.1239572"><ele>114.5</ele><time>2026-04-19T07:55:25.099Z</time></trkpt><trkpt lat="42.7281843" lon="12.124121"><ele>114.0</ele><time>2026-04-19T07:55:26.113Z</time></trkpt><trkpt lat="42.7280982" lon="12.1242803"><ele>113.5</ele><time>2026-04-19T07:55:27.102Z</time></trkpt><trkpt lat="42.7279803" lon="12.1244505"><ele>113.0</ele><time>2026-04-19T07:55:28.091Z</time></trkpt><trkpt lat="42.727838" lon="12.1246347"><ele>113.33333333333333</ele><time>2026-04-19T07:55:29.108Z</time></trkpt><trkpt lat="42.7276891" lon="12.1248418"><ele>113.66666666666666</ele><time>2026-04-19T07:55:30.103Z</time></trkpt><trkpt lat="42.7275391" lon="12.1250842"><ele>114.0</ele><time>2026-04-19T07:55:31.103Z</time></trkpt><trkpt lat="42.7273929" lon="12.1253615"><ele>114.0</ele><time>2026-04-19T07:55:32.094Z</time></trkpt><trkpt lat="42.7272536" lon="12.1256622"><ele>114.0</ele><time>2026-04-19T07:55:33.114Z</time></trkpt><trkpt lat="42.7271169" lon="12.1259869"><ele>114.0</ele><time>2026-04-19T07:55:34.104Z</time></trkpt><trkpt lat="42.72698" lon="12.1263255"><ele>114.0</ele><time>2026-04-19T07:55:35.09Z</time></trkpt><trkpt lat="42.7268429" lon="12.1266726"><ele>114.5</ele><time>2026-04-19T07:55:36.098Z</time></trkpt><trkpt lat="42.726702" lon="12.1270241"><ele>115.0</ele><time>2026-04-19T07:55:37.116Z</time></trkpt><trkpt lat="42.7265605" lon="12.1273844"><ele>115.0</ele><time>2026-04-19T07:55:38.114Z</time></trkpt><trkpt lat="42.726416" lon="12.127751"><ele>115.0</ele><time>2026-04-19T07:55:39.11Z</time></trkpt><trkpt lat="42.7262676" lon="12.1281222"><ele>115.0</ele><time>2026-04-19T07:55:40.116Z</time></trkpt><trkpt lat="42.7261172" lon="12.1284984"><ele>115.0</ele><time>2026-04-19T07:55:41.109Z</time></trkpt><trkpt lat="42.7259659" lon="12.1288763"><ele>115.0</ele><time>2026-04-19T07:55:42.119Z</time></trkpt><trkpt lat="42.7258159" lon="12.1292501"><ele>115.0</ele><time>2026-04-19T07:55:43.106Z</time></trkpt><trkpt lat="42.7256678" lon="12.1296233"><ele>113.5</ele><time>2026-04-19T07:55:44.118Z</time></trkpt><trkpt lat="42.7255212" lon="12.129995"><ele>112.0</ele><time>2026-04-19T07:55:45.107Z</time></trkpt><trkpt lat="42.7253753" lon="12.130362"><ele>112.0</ele><time>2026-04-19T07:55:46.103Z</time></trkpt><trkpt lat="42.7252312" lon="12.1307232"><ele>112.0</ele><time>2026-04-19T07:55:47.114Z</time></trkpt><trkpt lat="42.7250901" lon="12.1310771"><ele>112.5</ele><time>2026-04-19T07:55:48.111Z</time></trkpt><trkpt lat="42.7249525" lon="12.1314199"><ele>113.0</ele><time>2026-04-19T07:55:49.114Z</time></trkpt><trkpt lat="42.7248233" lon="12.1317436"><ele>113.0</ele><time>2026-04-19T07:55:50.12Z</time></trkpt><trkpt lat="42.7247006" lon="12.1320479"><ele>113.0</ele><time>2026-04-19T07:55:51.104Z</time></trkpt><trkpt lat="42.724583" lon="12.1323386"><ele>113.5</ele><time>2026-04-19T07:55:52.105Z</time></trkpt><trkpt lat="42.7244704" lon="12.1326217"><ele>114.0</ele><time>2026-04-19T07:55:53.111Z</time></trkpt><trkpt lat="42.7243632" lon="12.1329079"><ele>114.0</ele><time>2026-04-19T07:55:54.105Z</time></trkpt><trkpt lat="42.7242598" lon="12.1332009"><ele>114.0</ele><time>2026-04-19T07:55:55.1Z</time></trkpt><trkpt lat="42.7241609" lon="12.1335025"><ele>114.0</ele><time>2026-04-19T07:55:56.118Z</time></trkpt><trkpt lat="42.7240705" lon="12.1338026"><ele>114.0</ele><time>2026-04-19T07:55:57.1Z</time></trkpt><trkpt lat="42.7239876" lon="12.1340908"><ele>114.33333333333334</ele><time>2026-04-19T07:55:58.098Z</time></trkpt><trkpt lat="42.7239139" lon="12.1343602"><ele>114.66666666666667</ele><time>2026-04-19T07:55:59.119Z</time></trkpt><trkpt lat="42.723848" lon="12.1346021"><ele>115.0</ele><time>2026-04-19T07:56:00.124Z</time></trkpt><trkpt lat="42.72379" lon="12.134815"><ele>115.0</ele><time>2026-04-19T07:56:01.115Z</time></trkpt><trkpt lat="42.7237415" lon="12.1349977"><ele>115.0</ele><time>2026-04-19T07:56:02.115Z</time></trkpt><trkpt lat="42.7237007" lon="12.135154"><ele>115.0</ele><time>2026-04-19T07:56:03.114Z</time></trkpt><trkpt lat="42.7236594" lon="12.1352814"><ele>115.0</ele><time>2026-04-19T07:56:04.114Z</time></trkpt><trkpt lat="42.7236118" lon="12.1353752"><ele>115.33333333333334</ele><time>2026-04-19T07:56:05.108Z</time></trkpt><trkpt lat="42.723559" lon="12.1354383"><ele>115.66666666666667</ele><time>2026-04-19T07:56:06.11Z</time></trkpt><trkpt lat="42.7234589" lon="12.1355158"><ele>116.0</ele><time>2026-04-19T07:56:08.119Z</time></trkpt><trkpt lat="42.7233532" lon="12.1356006"><ele>116.33333333333334</ele><time>2026-04-19T07:56:10.113Z</time></trkpt><trkpt lat="42.7232958" lon="12.1356411"><ele>116.66666666666667</ele><time>2026-04-19T07:56:11.099Z</time></trkpt><trkpt lat="42.7232292" lon="12.1356631"><ele>117.0</ele><time>2026-04-19T07:56:12.117Z</time></trkpt><trkpt lat="42.7231554" lon="12.1356579"><ele>117.0</ele><time>2026-04-19T07:56:13.113Z</time></trkpt><trkpt lat="42.7230697" lon="12.1356421"><ele>117.0</ele><time>2026-04-19T07:56:14.103Z</time></trkpt><trkpt lat="42.7229518" lon="12.1356317"><ele>117.0</ele><time>2026-04-19T07:56:15.1Z</time></trkpt><trkpt lat="42.7228096" lon="12.1355772"><ele>117.0</ele><time>2026-04-19T07:56:16.106Z</time></trkpt><trkpt lat="42.7226845" lon="12.135506"><ele>117.25</ele><time>2026-04-19T07:56:17.106Z</time></trkpt><trkpt lat="42.7225319" lon="12.1354339"><ele>117.5</ele><time>2026-04-19T07:56:18.099Z</time></trkpt><trkpt lat="42.7224252" lon="12.1353224"><ele>117.75</ele><time>2026-04-19T07:56:19.112Z</time></trkpt><trkpt lat="42.7223148" lon="12.1352366"><ele>118.0</ele><time>2026-04-19T07:56:20.11Z</time></trkpt><trkpt lat="42.7222116" lon="12.1351596"><ele>118.0</ele><time>2026-04-19T07:56:21.107Z</time></trkpt><trkpt lat="42.7221342" lon="12.1350942"><ele>118.00000000000001</ele><time>2026-04-19T07:56:22.108Z</time></trkpt><trkpt lat="42.7220341" lon="12.1350104"><ele>118.00000000000001</ele><time>2026-04-19T07:56:24.104Z</time></trkpt><trkpt lat="42.721973" lon="12.1349403"><ele>118.0</ele><time>2026-04-19T07:56:25.097Z</time></trkpt><trkpt lat="42.7219202" lon="12.1348414"><ele>118.0</ele><time>2026-04-19T07:56:26.092Z</time></trkpt><trkpt lat="42.7218835" lon="12.1347396"><ele>117.66666666666667</ele><time>2026-04-19T07:56:27.116Z</time></trkpt><trkpt lat="42.721859" lon="12.1346319"><ele>117.33333333333334</ele><time>2026-04-19T07:56:28.107Z</time></trkpt><trkpt lat="42.7218466" lon="12.13453"><ele>117.0</ele><time>2026-04-19T07:56:29.104Z</time></trkpt><trkpt lat="42.7218345" lon="12.1344198"><ele>116.66666666666666</ele><time>2026-04-19T07:56:30.109Z</time></trkpt><trkpt lat="42.7218147" lon="12.1343055"><ele>116.33333333333333</ele><time>2026-04-19T07:56:31.095Z</time></trkpt><trkpt lat="42.7217813" lon="12.1341974"><ele>116.0</ele><time>2026-04-19T07:56:32.106Z</time></trkpt><trkpt lat="42.7217367" lon="12.1340995"><ele>116.00000000000001</ele><time>2026-04-19T07:56:33.102Z</time></trkpt><trkpt lat="42.7216884" lon="12.1340267"><ele>116.0</ele><time>2026-04-19T07:56:34.097Z</time></trkpt><trkpt lat="42.7216337" lon="12.1339786"><ele>116.00000000000001</ele><time>2026-04-19T07:56:35.104Z</time></trkpt><trkpt lat="42.72157" lon="12.1339465"><ele>116.00000000000001</ele><time>2026-04-19T07:56:36.117Z</time></trkpt><trkpt lat="42.7215009" lon="12.1339407"><ele>116.0</ele><time>2026-04-19T07:56:37.098Z</time></trkpt><trkpt lat="42.7214324" lon="12.1339675"><ele>116.00000000000001</ele><time>2026-04-19T07:56:38.083Z</time></trkpt><trkpt lat="42.7213612" lon="12.1340258"><ele>116.00000000000001</ele><time>2026-04-19T07:56:39.103Z</time></trkpt><trkpt lat="42.7212767" lon="12.1340837"><ele>116.0</ele><time>2026-04-19T07:56:40.097Z</time></trkpt><trkpt lat="42.7211779" lon="12.1340993"><ele>116.0</ele><time>2026-04-19T07:56:41.111Z</time></trkpt><trkpt lat="42.7210727" lon="12.1340617"><ele>116.0</ele><time>2026-04-19T07:56:42.111Z</time></trkpt><trkpt lat="42.7209538" lon="12.1339711"><ele>116.0</ele><time>2026-04-19T07:56:43.11Z</time></trkpt><trkpt lat="42.7208009" lon="12.1338322"><ele>116.66666666666666</ele><time>2026-04-19T07:56:44.108Z</time></trkpt><trkpt lat="42.7206365" lon="12.1336623"><ele>117.33333333333334</ele><time>2026-04-19T07:56:45.113Z</time></trkpt><trkpt lat="42.7204651" lon="12.133513"><ele>118.0</ele><time>2026-04-19T07:56:46.099Z</time></trkpt><trkpt lat="42.720336" lon="12.1333521"><ele>120.33333333333334</ele><time>2026-04-19T07:56:47.085Z</time></trkpt><trkpt lat="42.7202281" lon="12.133187"><ele>122.66666666666666</ele><time>2026-04-19T07:56:48.092Z</time></trkpt><trkpt lat="42.7201363" lon="12.1330516"><ele>125.0</ele><time>2026-04-19T07:56:49.088Z</time></trkpt><trkpt lat="42.7200439" lon="12.1328839"><ele>125.0</ele><time>2026-04-19T07:56:50.085Z</time></trkpt><trkpt lat="42.719964" lon="12.1327044"><ele>125.0</ele><time>2026-04-19T07:56:51.104Z</time></trkpt><trkpt lat="42.7198999" lon="12.1325047"><ele>125.0</ele><time>2026-04-19T07:56:52.087Z</time></trkpt><trkpt lat="42.7198515" lon="12.1322859"><ele>125.0</ele><time>2026-04-19T07:56:53.094Z</time></trkpt><trkpt lat="42.719809" lon="12.1320349"><ele>125.0</ele><time>2026-04-19T07:56:54.091Z</time></trkpt><trkpt lat="42.7197757" lon="12.1317648"><ele>125.0</ele><time>2026-04-19T07:56:55.1Z</time></trkpt><trkpt lat="42.7197796" lon="12.1314593"><ele>125.0</ele><time>2026-04-19T07:56:56.094Z</time></trkpt><trkpt lat="42.7197897" lon="12.1311332"><ele>125.0</ele><time>2026-04-19T07:56:57.102Z</time></trkpt><trkpt lat="42.7198009" lon="12.1308045"><ele>125.0</ele><time>2026-04-19T07:56:58.081Z</time></trkpt><trkpt lat="42.7198058" lon="12.1305035"><ele>125.0</ele><time>2026-04-19T07:56:59.098Z</time></trkpt><trkpt lat="42.7198113" lon="12.1302329"><ele>125.0</ele><time>2026-04-19T07:57:00.083Z</time></trkpt><trkpt lat="42.7198153" lon="12.1299808"><ele>126.33333333333333</ele><time>2026-04-19T07:57:01.088Z</time></trkpt><trkpt lat="42.7198219" lon="12.1297437"><ele>127.66666666666666</ele><time>2026-04-19T07:57:02.103Z</time></trkpt><trkpt lat="42.7198279" lon="12.1295211"><ele>129.0</ele><time>2026-04-19T07:57:03.122Z</time></trkpt><trkpt lat="42.7198317" lon="12.1293021"><ele>129.0</ele><time>2026-04-19T07:57:04.086Z</time></trkpt><trkpt lat="42.7198314" lon="12.1290842"><ele>129.0</ele><time>2026-04-19T07:57:05.094Z</time></trkpt><trkpt lat="42.7198217" lon="12.1288734"><ele>129.0</ele><time>2026-04-19T07:57:06.103Z</time></trkpt><trkpt lat="42.7198063" lon="12.128672"><ele>129.5</ele><time>2026-04-19T07:57:07.115Z</time></trkpt><trkpt lat="42.7197824" lon="12.1284738"><ele>130.0</ele><time>2026-04-19T07:57:08.096Z</time></trkpt><trkpt lat="42.7197503" lon="12.1282801"><ele>130.5</ele><time>2026-04-19T07:57:09.119Z</time></trkpt><trkpt lat="42.7197073" lon="12.1280925"><ele>131.0</ele><time>2026-04-19T07:57:10.11Z</time></trkpt><trkpt lat="42.7196576" lon="12.1279125"><ele>131.0</ele><time>2026-04-19T07:57:11.097Z</time></trkpt><trkpt lat="42.7195992" lon="12.1277396"><ele>131.0</ele><time>2026-04-19T07:57:12.091Z</time></trkpt><trkpt lat="42.7195331" lon="12.127571"><ele>131.0</ele><time>2026-04-19T07:57:13.121Z</time></trkpt><trkpt lat="42.719461" lon="12.1274081"><ele>131.0</ele><time>2026-04-19T07:57:14.116Z</time></trkpt><trkpt lat="42.7193814" lon="12.1272479"><ele>131.66666666666666</ele><time>2026-04-19T07:57:15.1Z</time></trkpt><trkpt lat="42.7192895" lon="12.1270908"><ele>132.33333333333334</ele><time>2026-04-19T07:57:16.111Z</time></trkpt><trkpt lat="42.7191633" lon="12.1269283"><ele>133.0</ele><time>2026-04-19T07:57:17.107Z</time></trkpt><trkpt lat="42.7190131" lon="12.1267583"><ele>133.0</ele><time>2026-04-19T07:57:18.105Z</time></trkpt><trkpt lat="42.7188488" lon="12.1265793"><ele>133.0</ele><time>2026-04-19T07:57:19.12Z</time></trkpt><trkpt lat="42.7186782" lon="12.1263882"><ele>133.0</ele><time>2026-04-19T07:57:20.099Z</time></trkpt><trkpt lat="42.7184985" lon="12.1262009"><ele>136.0</ele><time>2026-04-19T07:57:21.092Z</time></trkpt><trkpt lat="42.7183277" lon="12.1259769"><ele>139.0</ele><time>2026-04-19T07:57:22.124Z</time></trkpt><trkpt lat="42.718137" lon="12.1257598"><ele>139.0</ele><time>2026-04-19T07:57:23.1Z</time></trkpt><trkpt lat="42.7179395" lon="12.1255434"><ele>139.0</ele><time>2026-04-19T07:57:24.121Z</time></trkpt><trkpt lat="42.7177364" lon="12.1253303"><ele>139.0</ele><time>2026-04-19T07:57:25.113Z</time></trkpt><trkpt lat="42.7175305" lon="12.1251199"><ele>139.0</ele><time>2026-04-19T07:57:26.118Z</time></trkpt><trkpt lat="42.7173124" lon="12.1249072"><ele>139.5</ele><time>2026-04-19T07:57:27.087Z</time></trkpt><trkpt lat="42.7170823" lon="12.1246942"><ele>140.0</ele><time>2026-04-19T07:57:28.104Z</time></trkpt><trkpt lat="42.7168495" lon="12.124482"><ele>140.5</ele><time>2026-04-19T07:57:29.112Z</time></trkpt><trkpt lat="42.7166229" lon="12.1242715"><ele>141.0</ele><time>2026-04-19T07:57:30.088Z</time></trkpt><trkpt lat="42.7164139" lon="12.1240496"><ele>141.0</ele><time>2026-04-19T07:57:31.118Z</time></trkpt><trkpt lat="42.716229" lon="12.1238046"><ele>141.0</ele><time>2026-04-19T07:57:32.099Z</time></trkpt><trkpt lat="42.7160778" lon="12.1235319"><ele>140.5</ele><time>2026-04-19T07:57:33.101Z</time></trkpt><trkpt lat="42.7159301" lon="12.1232565"><ele>140.0</ele><time>2026-04-19T07:57:34.098Z</time></trkpt><trkpt lat="42.715772" lon="12.122979"><ele>145.5</ele><time>2026-04-19T07:57:35.084Z</time></trkpt><trkpt lat="42.7155887" lon="12.1227131"><ele>151.0</ele><time>2026-04-19T07:57:36.088Z</time></trkpt><trkpt lat="42.7153861" lon="12.1224378"><ele>151.5</ele><time>2026-04-19T07:57:37.103Z</time></trkpt><trkpt lat="42.7151904" lon="12.1221635"><ele>152.0</ele><time>2026-04-19T07:57:38.113Z</time></trkpt><trkpt lat="42.7149827" lon="12.1218833"><ele>152.0</ele><time>2026-04-19T07:57:39.107Z</time></trkpt><trkpt lat="42.7147736" lon="12.1216275"><ele>152.0</ele><time>2026-04-19T07:57:40.097Z</time></trkpt><trkpt lat="42.714573" lon="12.1213658"><ele>153.0</ele><time>2026-04-19T07:57:41.111Z</time></trkpt><trkpt lat="42.7143909" lon="12.1211244"><ele>154.0</ele><time>2026-04-19T07:57:42.102Z</time></trkpt><trkpt lat="42.7142394" lon="12.1208737"><ele>157.0</ele><time>2026-04-19T07:57:43.112Z</time></trkpt><trkpt lat="42.714094" lon="12.1206298"><ele>160.0</ele><time>2026-04-19T07:57:44.097Z</time></trkpt><trkpt lat="42.7139546" lon="12.1203798"><ele>160.0</ele><time>2026-04-19T07:57:45.102Z</time></trkpt><trkpt lat="42.7138236" lon="12.1200869"><ele>160.0</ele><time>2026-04-19T07:57:46.099Z</time></trkpt><trkpt lat="42.7137043" lon="12.1197613"><ele>157.5</ele><time>2026-04-19T07:57:47.089Z</time></trkpt><trkpt lat="42.7135896" lon="12.1194212"><ele>155.0</ele><time>2026-04-19T07:57:48.114Z</time></trkpt><trkpt lat="42.7134868" lon="12.1190918"><ele>159.0</ele><time>2026-04-19T07:57:49.102Z</time></trkpt><trkpt lat="42.7134011" lon="12.1187612"><ele>163.0</ele><time>2026-04-19T07:57:50.11Z</time></trkpt><trkpt lat="42.7133296" lon="12.1184166"><ele>167.0</ele><time>2026-04-19T07:57:51.108Z</time></trkpt><trkpt lat="42.7132574" lon="12.1180563"><ele>171.0</ele><time>2026-04-19T07:57:52.117Z</time></trkpt><trkpt lat="42.7131796" lon="12.1176863"><ele>173.5</ele><time>2026-04-19T07:57:53.11Z</time></trkpt><trkpt lat="42.7130938" lon="12.1173039"><ele>176.0</ele><time>2026-04-19T07:57:54.109Z</time></trkpt><trkpt lat="42.7130076" lon="12.1169143"><ele>177.5</ele><time>2026-04-19T07:57:55.094Z</time></trkpt><trkpt lat="42.7129271" lon="12.1165252"><ele>179.0</ele><time>2026-04-19T07:57:56.094Z</time></trkpt><trkpt lat="42.7128533" lon="12.1161468"><ele>179.0</ele><time>2026-04-19T07:57:57.111Z</time></trkpt><trkpt lat="42.712767" lon="12.1157853"><ele>179.0</ele><time>2026-04-19T07:57:58.087Z</time></trkpt><trkpt lat="42.7126578" lon="12.1154359"><ele>176.0</ele><time>2026-04-19T07:57:59.103Z</time></trkpt><trkpt lat="42.7125366" lon="12.1151014"><ele>173.0</ele><time>2026-04-19T07:58:00.092Z</time></trkpt><trkpt lat="42.7124186" lon="12.1147895"><ele>173.0</ele><time>2026-04-19T07:58:01.085Z</time></trkpt><trkpt lat="42.7123001" lon="12.1144965"><ele>173.0</ele><time>2026-04-19T07:58:02.094Z</time></trkpt><trkpt lat="42.7121897" lon="12.1142244"><ele>174.66666666666666</ele><time>2026-04-19T07:58:03.097Z</time></trkpt><trkpt lat="42.7120876" lon="12.1139759"><ele>176.33333333333334</ele><time>2026-04-19T07:58:04.096Z</time></trkpt><trkpt lat="42.7120086" lon="12.1137356"><ele>178.0</ele><time>2026-04-19T07:58:05.091Z</time></trkpt><trkpt lat="42.7119651" lon="12.1135045"><ele>178.0</ele><time>2026-04-19T07:58:06.081Z</time></trkpt><trkpt lat="42.7119692" lon="12.1132718"><ele>178.0</ele><time>2026-04-19T07:58:07.097Z</time></trkpt><trkpt lat="42.7120119" lon="12.1130289"><ele>178.0</ele><time>2026-04-19T07:58:08.1Z</time></trkpt><trkpt lat="42.712069" lon="12.1127701"><ele>180.33333333333334</ele><time>2026-04-19T07:58:09.098Z</time></trkpt><trkpt lat="42.7121355" lon="12.1124979"><ele>182.66666666666666</ele><time>2026-04-19T07:58:10.093Z</time></trkpt><trkpt lat="42.7121872" lon="12.1122344"><ele>185.0</ele><time>2026-04-19T07:58:11.086Z</time></trkpt><trkpt lat="42.7122131" lon="12.1119842"><ele>186.33333333333331</ele><time>2026-04-19T07:58:12.092Z</time></trkpt><trkpt lat="42.7122329" lon="12.1117415"><ele>187.66666666666666</ele><time>2026-04-19T07:58:13.09Z</time></trkpt><trkpt lat="42.7121773" lon="12.1114917"><ele>189.0</ele><time>2026-04-19T07:58:14.102Z</time></trkpt><trkpt lat="42.7121026" lon="12.1112138"><ele>190.0</ele><time>2026-04-19T07:58:15.132Z</time></trkpt><trkpt lat="42.7120587" lon="12.1109147"><ele>191.0</ele><time>2026-04-19T07:58:16.09Z</time></trkpt><trkpt lat="42.7120238" lon="12.1105784"><ele>192.5</ele><time>2026-04-19T07:58:17.098Z</time></trkpt><trkpt lat="42.7119977" lon="12.110224"><ele>194.0</ele><time>2026-04-19T07:58:18.093Z</time></trkpt><trkpt lat="42.711968" lon="12.1098681"><ele>194.5</ele><time>2026-04-19T07:58:19.098Z</time></trkpt><trkpt lat="42.7119649" lon="12.1095195"><ele>195.0</ele><time>2026-04-19T07:58:20.089Z</time></trkpt><trkpt lat="42.7119838" lon="12.1091754"><ele>194.5</ele><time>2026-04-19T07:58:21.096Z</time></trkpt><trkpt lat="42.712031" lon="12.1088173"><ele>194.0</ele><time>2026-04-19T07:58:22.08Z</time></trkpt><trkpt lat="42.7120942" lon="12.1084398"><ele>192.0</ele><time>2026-04-19T07:58:23.096Z</time></trkpt><trkpt lat="42.7121711" lon="12.1080449"><ele>190.0</ele><time>2026-04-19T07:58:24.104Z</time></trkpt><trkpt lat="42.7122556" lon="12.1076287"><ele>189.0</ele><time>2026-04-19T07:58:25.104Z</time></trkpt><trkpt lat="42.7123449" lon="12.1072338"><ele>188.0</ele><time>2026-04-19T07:58:26.103Z</time></trkpt><trkpt lat="42.7124248" lon="12.1068609"><ele>187.5</ele><time>2026-04-19T07:58:27.106Z</time></trkpt><trkpt lat="42.7124881" lon="12.1065108"><ele>187.0</ele><time>2026-04-19T07:58:28.103Z</time></trkpt><trkpt lat="42.7125513" lon="12.1061795"><ele>187.0</ele><time>2026-04-19T07:58:29.118Z</time></trkpt><trkpt lat="42.7125993" lon="12.1058685"><ele>187.0</ele><time>2026-04-19T07:58:30.104Z</time></trkpt><trkpt lat="42.7126758" lon="12.1055794"><ele>190.5</ele><time>2026-04-19T07:58:31.111Z</time></trkpt><trkpt lat="42.7128037" lon="12.1053016"><ele>194.0</ele><time>2026-04-19T07:58:32.11Z</time></trkpt><trkpt lat="42.7129363" lon="12.1050127"><ele>191.5</ele><time>2026-04-19T07:58:33.105Z</time></trkpt><trkpt lat="42.7130952" lon="12.1046947"><ele>189.0</ele><time>2026-04-19T07:58:34.106Z</time></trkpt><trkpt lat="42.7132522" lon="12.1043402"><ele>189.0</ele><time>2026-04-19T07:58:35.111Z</time></trkpt><trkpt lat="42.7134029" lon="12.1039697"><ele>189.0</ele><time>2026-04-19T07:58:36.107Z</time></trkpt><trkpt lat="42.7135394" lon="12.103578"><ele>190.0</ele><time>2026-04-19T07:58:37.115Z</time></trkpt><trkpt lat="42.7136525" lon="12.1031952"><ele>191.0</ele><time>2026-04-19T07:58:38.12Z</time></trkpt><trkpt lat="42.7137519" lon="12.1028223"><ele>191.0</ele><time>2026-04-19T07:58:39.094Z</time></trkpt><trkpt lat="42.7138447" lon="12.1024676"><ele>191.0</ele><time>2026-04-19T07:58:40.109Z</time></trkpt><trkpt lat="42.7139408" lon="12.1021378"><ele>191.0</ele><time>2026-04-19T07:58:41.102Z</time></trkpt><trkpt lat="42.7140195" lon="12.1018096"><ele>191.0</ele><time>2026-04-19T07:58:42.12Z</time></trkpt><trkpt lat="42.714101" lon="12.1014843"><ele>190.0</ele><time>2026-04-19T07:58:43.114Z</time></trkpt><trkpt lat="42.7141867" lon="12.1011485"><ele>189.0</ele><time>2026-04-19T07:58:44.1Z</time></trkpt><trkpt lat="42.7142671" lon="12.1008268"><ele>189.0</ele><time>2026-04-19T07:58:45.1Z</time></trkpt><trkpt lat="42.7143462" lon="12.1005023"><ele>189.0</ele><time>2026-04-19T07:58:46.095Z</time></trkpt><trkpt lat="42.7144309" lon="12.1001765"><ele>190.5</ele><time>2026-04-19T07:58:47.091Z</time></trkpt><trkpt lat="42.7145087" lon="12.0998643"><ele>192.0</ele><time>2026-04-19T07:58:48.102Z</time></trkpt><trkpt lat="42.7145797" lon="12.0995689"><ele>192.0</ele><time>2026-04-19T07:58:49.12Z</time></trkpt><trkpt lat="42.7146452" lon="12.0992906"><ele>192.0</ele><time>2026-04-19T07:58:50.111Z</time></trkpt><trkpt lat="42.7147147" lon="12.0990317"><ele>192.0</ele><time>2026-04-19T07:58:51.119Z</time></trkpt><trkpt lat="42.7148016" lon="12.0988047"><ele>192.0</ele><time>2026-04-19T07:58:52.119Z</time></trkpt><trkpt lat="42.7149106" lon="12.0986185"><ele>192.0</ele><time>2026-04-19T07:58:53.085Z</time></trkpt><trkpt lat="42.7150381" lon="12.0984866"><ele>192.0</ele><time>2026-04-19T07:58:54.105Z</time></trkpt><trkpt lat="42.7151774" lon="12.0983942"><ele>193.25</ele><time>2026-04-19T07:58:55.081Z</time></trkpt><trkpt lat="42.7153111" lon="12.0983283"><ele>194.5</ele><time>2026-04-19T07:58:56.08Z</time></trkpt><trkpt lat="42.7154317" lon="12.0982824"><ele>195.75</ele><time>2026-04-19T07:58:57.094Z</time></trkpt><trkpt lat="42.7155416" lon="12.0982578"><ele>197.0</ele><time>2026-04-19T07:58:58.09Z</time></trkpt><trkpt lat="42.7156463" lon="12.0982524"><ele>197.00000000000003</ele><time>2026-04-19T07:58:59.094Z</time></trkpt><trkpt lat="42.7157267" lon="12.0982578"><ele>197.0</ele><time>2026-04-19T07:59:00.12Z</time></trkpt><trkpt lat="42.7158227" lon="12.0982713"><ele>197.0</ele><time>2026-04-19T07:59:02.107Z</time></trkpt><trkpt lat="42.7158728" lon="12.0982155"><ele>197.0</ele><time>2026-04-19T07:59:04.107Z</time></trkpt><trkpt lat="42.7158544" lon="12.0981288"><ele>197.00000000000003</ele><time>2026-04-19T07:59:05.088Z</time></trkpt><trkpt lat="42.7157995" lon="12.0979916"><ele>197.0</ele><time>2026-04-19T07:59:06.092Z</time></trkpt><trkpt lat="42.7157352" lon="12.0978299"><ele>197.0</ele><time>2026-04-19T07:59:07.097Z</time></trkpt><trkpt lat="42.7156418" lon="12.0976346"><ele>197.0</ele><time>2026-04-19T07:59:08.093Z</time></trkpt><trkpt lat="42.715531" lon="12.0973946"><ele>197.0</ele><time>2026-04-19T07:59:09.102Z</time></trkpt><trkpt lat="42.7154332" lon="12.0971726"><ele>197.0</ele><time>2026-04-19T07:59:10.087Z</time></trkpt><trkpt lat="42.71534" lon="12.0969624"><ele>197.0</ele><time>2026-04-19T07:59:11.094Z</time></trkpt><trkpt lat="42.7152514" lon="12.0967619"><ele>197.0</ele><time>2026-04-19T07:59:12.077Z</time></trkpt><trkpt lat="42.7151627" lon="12.0965715"><ele>195.8</ele><time>2026-04-19T07:59:13.09Z</time></trkpt><trkpt lat="42.7150846" lon="12.0964016"><ele>194.6</ele><time>2026-04-19T07:59:14.104Z</time></trkpt><trkpt lat="42.7150237" lon="12.0962626"><ele>193.4</ele><time>2026-04-19T07:59:15.082Z</time></trkpt><trkpt lat="42.7149775" lon="12.0961536"><ele>192.20000000000002</ele><time>2026-04-19T07:59:16.091Z</time></trkpt><trkpt lat="42.714946" lon="12.0960791"><ele>191.0</ele><time>2026-04-19T07:59:17.1Z</time></trkpt><trkpt lat="42.7148978" lon="12.0959456"><ele>190.0</ele><time>2026-04-19T07:59:21.094Z</time></trkpt><trkpt lat="42.7147895" lon="12.0957406"><ele>189.0</ele><time>2026-04-19T07:59:23.099Z</time></trkpt><trkpt lat="42.7146993" lon="12.095556"><ele>188.0</ele><time>2026-04-19T07:59:24.106Z</time></trkpt><trkpt lat="42.7145935" lon="12.0953001"><ele>188.0</ele><time>2026-04-19T07:59:25.095Z</time></trkpt><trkpt lat="42.7144691" lon="12.0950086"><ele>188.0</ele><time>2026-04-19T07:59:26.111Z</time></trkpt><trkpt lat="42.7143373" lon="12.0946941"><ele>187.5</ele><time>2026-04-19T07:59:27.089Z</time></trkpt><trkpt lat="42.714202" lon="12.0943707"><ele>187.0</ele><time>2026-04-19T07:59:28.115Z</time></trkpt><trkpt lat="42.7140779" lon="12.0940751"><ele>187.0</ele><time>2026-04-19T07:59:29.098Z</time></trkpt><trkpt lat="42.7139614" lon="12.0938005"><ele>187.0</ele><time>2026-04-19T07:59:30.101Z</time></trkpt><trkpt lat="42.713859" lon="12.0935464"><ele>187.0</ele><time>2026-04-19T07:59:31.088Z</time></trkpt><trkpt lat="42.7137686" lon="12.0933148"><ele>187.33333333333334</ele><time>2026-04-19T07:59:32.083Z</time></trkpt><trkpt lat="42.7136894" lon="12.0931072"><ele>187.66666666666666</ele><time>2026-04-19T07:59:33.113Z</time></trkpt><trkpt lat="42.7136255" lon="12.0929177"><ele>188.0</ele><time>2026-04-19T07:59:34.103Z</time></trkpt><trkpt lat="42.713587" lon="12.0927427"><ele>188.0</ele><time>2026-04-19T07:59:35.102Z</time></trkpt><trkpt lat="42.7135768" lon="12.0925852"><ele>188.0</ele><time>2026-04-19T07:59:36.086Z</time></trkpt><trkpt lat="42.7135827" lon="12.092453"><ele>188.0</ele><time>2026-04-19T07:59:37.104Z</time></trkpt><trkpt lat="42.7135899" lon="12.0923513"><ele>188.0</ele><time>2026-04-19T07:59:38.109Z</time></trkpt><trkpt lat="42.7135922" lon="12.0922162"><ele>188.0</ele><time>2026-04-19T07:59:40.109Z</time></trkpt><trkpt lat="42.7135352" lon="12.0922581"><ele>190.75</ele><time>2026-04-19T07:59:43.119Z</time></trkpt><trkpt lat="42.7134847" lon="12.0924225"><ele>193.5</ele><time>2026-04-19T08:00:31.092Z</time></trkpt><trkpt lat="42.7135178" lon="12.0923349"><ele>196.25</ele><time>2026-04-19T08:17:49.181Z</time></trkpt><trkpt lat="42.713686" lon="12.0921038"><ele>199.0</ele><time>2026-04-19T08:17:51.101Z</time></trkpt><trkpt lat="42.7137852" lon="12.0920072"><ele>198.99999999999997</ele><time>2026-04-19T08:17:53.095Z</time></trkpt><trkpt lat="42.7138482" lon="12.0919608"><ele>199.0</ele><time>2026-04-19T08:17:54.089Z</time></trkpt><trkpt lat="42.7139182" lon="12.0919142"><ele>199.0</ele><time>2026-04-19T08:17:55.101Z</time></trkpt><trkpt lat="42.7139916" lon="12.0918636"><ele>199.0</ele><time>2026-04-19T08:17:56.104Z</time></trkpt><trkpt lat="42.7140689" lon="12.0918052"><ele>198.99999999999997</ele><time>2026-04-19T08:17:57.11Z</time></trkpt><trkpt lat="42.7141503" lon="12.0917354"><ele>199.0</ele><time>2026-04-19T08:17:58.115Z</time></trkpt><trkpt lat="42.7142338" lon="12.091655"><ele>199.79999999999998</ele><time>2026-04-19T08:17:59.098Z</time></trkpt><trkpt lat="42.7143173" lon="12.0915626"><ele>200.6</ele><time>2026-04-19T08:18:00.125Z</time></trkpt><trkpt lat="42.7143967" lon="12.0914659"><ele>201.4</ele><time>2026-04-19T08:18:01.113Z</time></trkpt><trkpt lat="42.7144763" lon="12.0913615"><ele>202.2</ele><time>2026-04-19T08:18:02.119Z</time></trkpt><trkpt lat="42.7145573" lon="12.0912489"><ele>203.0</ele><time>2026-04-19T08:18:03.096Z</time></trkpt><trkpt lat="42.7146411" lon="12.0911279"><ele>203.0</ele><time>2026-04-19T08:18:04.1Z</time></trkpt><trkpt lat="42.7147325" lon="12.0909945"><ele>203.0</ele><time>2026-04-19T08:18:05.114Z</time></trkpt><trkpt lat="42.7148314" lon="12.090851"><ele>203.0</ele><time>2026-04-19T08:18:06.104Z</time></trkpt><trkpt lat="42.714937" lon="12.090697"><ele>203.0</ele><time>2026-04-19T08:18:07.092Z</time></trkpt><trkpt lat="42.7150445" lon="12.0905406"><ele>202.33333333333334</ele><time>2026-04-19T08:18:08.092Z</time></trkpt><trkpt lat="42.7151489" lon="12.0903852"><ele>201.66666666666669</ele><time>2026-04-19T08:18:09.095Z</time></trkpt><trkpt lat="42.715251" lon="12.0902207"><ele>201.0</ele><time>2026-04-19T08:18:10.095Z</time></trkpt><trkpt lat="42.7153217" lon="12.090046"><ele>202.33333333333331</ele><time>2026-04-19T08:18:11.1Z</time></trkpt><trkpt lat="42.7153724" lon="12.0898465"><ele>203.66666666666666</ele><time>2026-04-19T08:18:12.113Z</time></trkpt><trkpt lat="42.7154054" lon="12.0896402"><ele>205.0</ele><time>2026-04-19T08:18:13.112Z</time></trkpt><trkpt lat="42.7154345" lon="12.0894275"><ele>205.0</ele><time>2026-04-19T08:18:14.115Z</time></trkpt><trkpt lat="42.7154472" lon="12.0892142"><ele>205.0</ele><time>2026-04-19T08:18:15.115Z</time></trkpt><trkpt lat="42.7154418" lon="12.0890109"><ele>205.0</ele><time>2026-04-19T08:18:16.107Z</time></trkpt><trkpt lat="42.7154193" lon="12.0888132"><ele>205.25</ele><time>2026-04-19T08:18:17.103Z</time></trkpt><trkpt lat="42.7153779" lon="12.0886235"><ele>205.5</ele><time>2026-04-19T08:18:18.113Z</time></trkpt><trkpt lat="42.7153206" lon="12.0884414"><ele>205.75</ele><time>2026-04-19T08:18:19.091Z</time></trkpt><trkpt lat="42.7152517" lon="12.0882673"><ele>206.0</ele><time>2026-04-19T08:18:20.092Z</time></trkpt><trkpt lat="42.7151799" lon="12.0880969"><ele>208.25</ele><time>2026-04-19T08:18:21.1Z</time></trkpt><trkpt lat="42.7151077" lon="12.0879252"><ele>210.5</ele><time>2026-04-19T08:18:22.105Z</time></trkpt><trkpt lat="42.7150361" lon="12.0877533"><ele>212.75</ele><time>2026-04-19T08:18:23.097Z</time></trkpt><trkpt lat="42.7149625" lon="12.0875817"><ele>215.0</ele><time>2026-04-19T08:18:24.123Z</time></trkpt><trkpt lat="42.7148883" lon="12.0874073"><ele>215.0</ele><time>2026-04-19T08:18:25.096Z</time></trkpt><trkpt lat="42.7148128" lon="12.087233"><ele>215.0</ele><time>2026-04-19T08:18:26.123Z</time></trkpt><trkpt lat="42.7147381" lon="12.0870604"><ele>215.0</ele><time>2026-04-19T08:18:27.11Z</time></trkpt><trkpt lat="42.7146625" lon="12.0868886"><ele>215.0</ele><time>2026-04-19T08:18:28.122Z</time></trkpt><trkpt lat="42.7145893" lon="12.0867206"><ele>215.75</ele><time>2026-04-19T08:18:29.121Z</time></trkpt><trkpt lat="42.7145158" lon="12.0865556"><ele>216.5</ele><time>2026-04-19T08:18:30.107Z</time></trkpt><trkpt lat="42.7144391" lon="12.0863944"><ele>217.25</ele><time>2026-04-19T08:18:31.1Z</time></trkpt><trkpt lat="42.7143627" lon="12.0862298"><ele>218.0</ele><time>2026-04-19T08:18:32.099Z</time></trkpt><trkpt lat="42.7143027" lon="12.0860447"><ele>222.33333333333334</ele><time>2026-04-19T08:18:33.105Z</time></trkpt><trkpt lat="42.7142774" lon="12.0858221"><ele>226.66666666666669</ele><time>2026-04-19T08:18:34.095Z</time></trkpt><trkpt lat="42.7142978" lon="12.0855801"><ele>231.0</ele><time>2026-04-19T08:18:35.095Z</time></trkpt><trkpt lat="42.7143565" lon="12.085348"><ele>229.66666666666669</ele><time>2026-04-19T08:18:36.1Z</time></trkpt><trkpt lat="42.714439" lon="12.0851357"><ele>228.33333333333334</ele><time>2026-04-19T08:18:37.11Z</time></trkpt><trkpt lat="42.7145276" lon="12.0849571"><ele>227.0</ele><time>2026-04-19T08:18:38.091Z</time></trkpt><trkpt lat="42.7146171" lon="12.0848071"><ele>228.8</ele><time>2026-04-19T08:18:39.09Z</time></trkpt><trkpt lat="42.7147038" lon="12.0846819"><ele>230.6</ele><time>2026-04-19T08:18:40.086Z</time></trkpt><trkpt lat="42.7147882" lon="12.0845659"><ele>232.40000000000003</ele><time>2026-04-19T08:18:41.083Z</time></trkpt><trkpt lat="42.7148623" lon="12.0844627"><ele>234.20000000000002</ele><time>2026-04-19T08:18:42.099Z</time></trkpt><trkpt lat="42.7149221" lon="12.0843719"><ele>236.0</ele><time>2026-04-19T08:18:43.118Z</time></trkpt><trkpt lat="42.7149722" lon="12.0842806"><ele>236.0</ele><time>2026-04-19T08:18:44.112Z</time></trkpt><trkpt lat="42.7150149" lon="12.0841785"><ele>236.00000000000003</ele><time>2026-04-19T08:18:45.091Z</time></trkpt><trkpt lat="42.7150444" lon="12.0840425"><ele>236.00000000000003</ele><time>2026-04-19T08:18:46.118Z</time></trkpt><trkpt lat="42.7150675" lon="12.0838916"><ele>236.0</ele><time>2026-04-19T08:18:47.103Z</time></trkpt><trkpt lat="42.7150688" lon="12.0837224"><ele>236.0</ele><time>2026-04-19T08:18:48.11Z</time></trkpt><trkpt lat="42.7150646" lon="12.0835508"><ele>237.0</ele><time>2026-04-19T08:18:49.099Z</time></trkpt><trkpt lat="42.7150611" lon="12.0833753"><ele>238.0</ele><time>2026-04-19T08:18:50.108Z</time></trkpt><trkpt lat="42.7150637" lon="12.0831947"><ele>239.0</ele><time>2026-04-19T08:18:51.089Z</time></trkpt><trkpt lat="42.7150703" lon="12.0829966"><ele>240.0</ele><time>2026-04-19T08:18:52.115Z</time></trkpt><trkpt lat="42.7150876" lon="12.0827747"><ele>239.33333333333331</ele><time>2026-04-19T08:18:53.118Z</time></trkpt><trkpt lat="42.7151273" lon="12.082516"><ele>238.66666666666666</ele><time>2026-04-19T08:18:54.116Z</time></trkpt><trkpt lat="42.715185" lon="12.0822377"><ele>238.0</ele><time>2026-04-19T08:18:55.099Z</time></trkpt><trkpt lat="42.7152413" lon="12.0819492"><ele>238.0</ele><time>2026-04-19T08:18:56.1Z</time></trkpt><trkpt lat="42.7152724" lon="12.0816639"><ele>238.0</ele><time>2026-04-19T08:18:57.116Z</time></trkpt><trkpt lat="42.7152703" lon="12.0813956"><ele>238.0</ele><time>2026-04-19T08:18:58.098Z</time></trkpt><trkpt lat="42.7152416" lon="12.0811568"><ele>239.0</ele><time>2026-04-19T08:18:59.102Z</time></trkpt><trkpt lat="42.7151945" lon="12.0809459"><ele>240.0</ele><time>2026-04-19T08:19:00.095Z</time></trkpt><trkpt lat="42.7151338" lon="12.080762"><ele>241.0</ele><time>2026-04-19T08:19:01.107Z</time></trkpt><trkpt lat="42.715063" lon="12.0806094"><ele>242.0</ele><time>2026-04-19T08:19:02.097Z</time></trkpt><trkpt lat="42.7149857" lon="12.0804905"><ele>242.0</ele><time>2026-04-19T08:19:03.098Z</time></trkpt><trkpt lat="42.7149007" lon="12.0804364"><ele>242.0</ele><time>2026-04-19T08:19:04.104Z</time></trkpt><trkpt lat="42.7148204" lon="12.0804501"><ele>242.0</ele><time>2026-04-19T08:19:05.092Z</time></trkpt><trkpt lat="42.7147627" lon="12.0805262"><ele>242.0</ele><time>2026-04-19T08:19:06.093Z</time></trkpt><trkpt lat="42.7147299" lon="12.0806575"><ele>242.0</ele><time>2026-04-19T08:19:07.098Z</time></trkpt><trkpt lat="42.7147057" lon="12.0808475"><ele>244.0</ele><time>2026-04-19T08:19:08.092Z</time></trkpt><trkpt lat="42.7146661" lon="12.08106"><ele>246.0</ele><time>2026-04-19T08:19:09.088Z</time></trkpt><trkpt lat="42.7146051" lon="12.0812687"><ele>248.0</ele><time>2026-04-19T08:19:10.104Z</time></trkpt><trkpt lat="42.7144982" lon="12.0814626"><ele>252.0</ele><time>2026-04-19T08:19:11.112Z</time></trkpt><trkpt lat="42.7143758" lon="12.0816525"><ele>256.0</ele><time>2026-04-19T08:19:12.092Z</time></trkpt><trkpt lat="42.7142497" lon="12.0818347"><ele>260.0</ele><time>2026-04-19T08:19:13.087Z</time></trkpt><trkpt lat="42.7141198" lon="12.0819821"><ele>260.0</ele><time>2026-04-19T08:19:14.119Z</time></trkpt><trkpt lat="42.713988" lon="12.0821249"><ele>260.0</ele><time>2026-04-19T08:19:15.11Z</time></trkpt><trkpt lat="42.713852" lon="12.082268"><ele>260.0</ele><time>2026-04-19T08:19:16.1Z</time></trkpt><trkpt lat="42.7137246" lon="12.08241"><ele>259.0</ele><time>2026-04-19T08:19:17.119Z</time></trkpt><trkpt lat="42.7135955" lon="12.0825271"><ele>258.0</ele><time>2026-04-19T08:19:18.1Z</time></trkpt><trkpt lat="42.7134819" lon="12.0826407"><ele>257.0</ele><time>2026-04-19T08:19:19.106Z</time></trkpt><trkpt lat="42.7133704" lon="12.0827385"><ele>256.0</ele><time>2026-04-19T08:19:20.116Z</time></trkpt><trkpt lat="42.7132576" lon="12.0828346"><ele>259.25</ele><time>2026-04-19T08:19:21.113Z</time></trkpt><trkpt lat="42.7131429" lon="12.0829266"><ele>262.5</ele><time>2026-04-19T08:19:22.089Z</time></trkpt><trkpt lat="42.7130345" lon="12.0830123"><ele>265.75</ele><time>2026-04-19T08:19:23.109Z</time></trkpt><trkpt lat="42.712939" lon="12.0830913"><ele>269.0</ele><time>2026-04-19T08:19:24.115Z</time></trkpt><trkpt lat="42.7128581" lon="12.0831535"><ele>269.0</ele><time>2026-04-19T08:19:25.095Z</time></trkpt><trkpt lat="42.7127878" lon="12.0832014"><ele>269.0</ele><time>2026-04-19T08:19:26.104Z</time></trkpt><trkpt lat="42.7127171" lon="12.0832448"><ele>269.0</ele><time>2026-04-19T08:19:27.101Z</time></trkpt><trkpt lat="42.7126474" lon="12.0832752"><ele>269.0</ele><time>2026-04-19T08:19:28.097Z</time></trkpt><trkpt lat="42.7125799" lon="12.083286"><ele>269.0</ele><time>2026-04-19T08:19:29.1Z</time></trkpt><trkpt lat="42.7125124" lon="12.0832613"><ele>269.0</ele><time>2026-04-19T08:19:30.113Z</time></trkpt><trkpt lat="42.7124621" lon="12.0831982"><ele>269.0</ele><time>2026-04-19T08:19:31.101Z</time></trkpt><trkpt lat="42.7124393" lon="12.0831035"><ele>271.5</ele><time>2026-04-19T08:19:32.122Z</time></trkpt><trkpt lat="42.71245" lon="12.0829883"><ele>274.0</ele><time>2026-04-19T08:19:33.099Z</time></trkpt><trkpt lat="42.7124951" lon="12.0828563"><ele>276.5</ele><time>2026-04-19T08:19:34.114Z</time></trkpt><trkpt lat="42.7125734" lon="12.082711"><ele>279.0</ele><time>2026-04-19T08:19:35.102Z</time></trkpt><trkpt lat="42.7126609" lon="12.0825561"><ele>277.25</ele><time>2026-04-19T08:19:36.1Z</time></trkpt><trkpt lat="42.7127396" lon="12.0824183"><ele>275.5</ele><time>2026-04-19T08:19:37.087Z</time></trkpt><trkpt lat="42.7128109" lon="12.0822934"><ele>273.75</ele><time>2026-04-19T08:19:38.111Z</time></trkpt><trkpt lat="42.7128821" lon="12.082172"><ele>272.0</ele><time>2026-04-19T08:19:39.091Z</time></trkpt><trkpt lat="42.7129595" lon="12.0820415"><ele>272.0</ele><time>2026-04-19T08:19:40.12Z</time></trkpt><trkpt lat="42.7130412" lon="12.0818977"><ele>272.0</ele><time>2026-04-19T08:19:41.11Z</time></trkpt><trkpt lat="42.7131331" lon="12.0817287"><ele>272.0</ele><time>2026-04-19T08:19:42.097Z</time></trkpt><trkpt lat="42.7132421" lon="12.0815222"><ele>270.6666666666667</ele><time>2026-04-19T08:19:43.098Z</time></trkpt><trkpt lat="42.7133741" lon="12.0812917"><ele>269.3333333333333</ele><time>2026-04-19T08:19:44.094Z</time></trkpt><trkpt lat="42.7135017" lon="12.0810905"><ele>268.0</ele><time>2026-04-19T08:19:45.116Z</time></trkpt><trkpt lat="42.7136059" lon="12.0809301"><ele>268.0</ele><time>2026-04-19T08:19:46.104Z</time></trkpt><trkpt lat="42.7136814" lon="12.0808009"><ele>268.0</ele><time>2026-04-19T08:19:47.095Z</time></trkpt><trkpt lat="42.7137185" lon="12.0806802"><ele>268.0</ele><time>2026-04-19T08:19:48.1Z</time></trkpt><trkpt lat="42.713736" lon="12.0805772"><ele>268.0</ele><time>2026-04-19T08:19:49.107Z</time></trkpt><trkpt lat="42.7136769" lon="12.0805132"><ele>268.0</ele><time>2026-04-19T08:19:50.108Z</time></trkpt><trkpt lat="42.7136061" lon="12.0805213"><ele>268.0</ele><time>2026-04-19T08:19:51.084Z</time></trkpt><trkpt lat="42.7135253" lon="12.0805954"><ele>272.3333333333333</ele><time>2026-04-19T08:19:52.106Z</time></trkpt><trkpt lat="42.7134256" lon="12.0807383"><ele>276.6666666666667</ele><time>2026-04-19T08:19:53.088Z</time></trkpt><trkpt lat="42.7133111" lon="12.080896"><ele>281.0</ele><time>2026-04-19T08:19:54.093Z</time></trkpt><trkpt lat="42.7131721" lon="12.0810589"><ele>281.0</ele><time>2026-04-19T08:19:55.099Z</time></trkpt><trkpt lat="42.7130004" lon="12.0812235"><ele>281.0</ele><time>2026-04-19T08:19:56.115Z</time></trkpt><trkpt lat="42.7127945" lon="12.0813636"><ele>281.0</ele><time>2026-04-19T08:19:57.097Z</time></trkpt><trkpt lat="42.7125708" lon="12.0815125"><ele>284.5</ele><time>2026-04-19T08:19:58.105Z</time></trkpt><trkpt lat="42.7123653" lon="12.0817113"><ele>288.0</ele><time>2026-04-19T08:19:59.11Z</time></trkpt><trkpt lat="42.7121627" lon="12.0819019"><ele>288.0</ele><time>2026-04-19T08:20:00.095Z</time></trkpt><trkpt lat="42.7119644" lon="12.0820774"><ele>288.0</ele><time>2026-04-19T08:20:01.113Z</time></trkpt><trkpt lat="42.7117411" lon="12.082161"><ele>295.0</ele><time>2026-04-19T08:20:02.094Z</time></trkpt><trkpt lat="42.7115114" lon="12.0822001"><ele>302.0</ele><time>2026-04-19T08:20:03.092Z</time></trkpt><trkpt lat="42.7112916" lon="12.0821988"><ele>302.0</ele><time>2026-04-19T08:20:04.08Z</time></trkpt><trkpt lat="42.7110904" lon="12.0821687"><ele>302.0</ele><time>2026-04-19T08:20:05.083Z</time></trkpt><trkpt lat="42.710903" lon="12.0820501"><ele>302.0</ele><time>2026-04-19T08:20:06.084Z</time></trkpt><trkpt lat="42.7107114" lon="12.0818864"><ele>302.5</ele><time>2026-04-19T08:20:07.097Z</time></trkpt><trkpt lat="42.7105247" lon="12.0817278"><ele>303.0</ele><time>2026-04-19T08:20:08.107Z</time></trkpt><trkpt lat="42.7102973" lon="12.0816694"><ele>302.3333333333333</ele><time>2026-04-19T08:20:09.101Z</time></trkpt><trkpt lat="42.7100993" lon="12.0816486"><ele>301.66666666666663</ele><time>2026-04-19T08:20:10.103Z</time></trkpt><trkpt lat="42.7099282" lon="12.0816366"><ele>301.0</ele><time>2026-04-19T08:20:11.107Z</time></trkpt><trkpt lat="42.7097855" lon="12.0815993"><ele>303.0</ele><time>2026-04-19T08:20:12.113Z</time></trkpt><trkpt lat="42.7096529" lon="12.0815352"><ele>305.0</ele><time>2026-04-19T08:20:13.11Z</time></trkpt><trkpt lat="42.7095967" lon="12.0813431"><ele>307.0</ele><time>2026-04-19T08:20:14.081Z</time></trkpt><trkpt lat="42.7096069" lon="12.0811318"><ele>309.0</ele><time>2026-04-19T08:20:15.101Z</time></trkpt><trkpt lat="42.7096814" lon="12.080956"><ele>309.0</ele><time>2026-04-19T08:20:16.087Z</time></trkpt><trkpt lat="42.7098123" lon="12.0808148"><ele>309.0</ele><time>2026-04-19T08:20:17.086Z</time></trkpt><trkpt lat="42.7099816" lon="12.0806989"><ele>309.0</ele><time>2026-04-19T08:20:18.081Z</time></trkpt><trkpt lat="42.7101639" lon="12.0806576"><ele>310.0</ele><time>2026-04-19T08:20:19.095Z</time></trkpt><trkpt lat="42.7103445" lon="12.0807073"><ele>311.0</ele><time>2026-04-19T08:20:20.106Z</time></trkpt><trkpt lat="42.7105187" lon="12.0807711"><ele>312.0</ele><time>2026-04-19T08:20:21.081Z</time></trkpt><trkpt lat="42.710673" lon="12.0807925"><ele>314.3333333333333</ele><time>2026-04-19T08:20:22.087Z</time></trkpt><trkpt lat="42.7108036" lon="12.0807113"><ele>316.66666666666663</ele><time>2026-04-19T08:20:23.079Z</time></trkpt><trkpt lat="42.7109317" lon="12.080592"><ele>319.0</ele><time>2026-04-19T08:20:24.099Z</time></trkpt><trkpt lat="42.7110025" lon="12.0804063"><ele>319.0</ele><time>2026-04-19T08:20:25.1Z</time></trkpt><trkpt lat="42.7110431" lon="12.0802114"><ele>319.0</ele><time>2026-04-19T08:20:26.077Z</time></trkpt><trkpt lat="42.7110115" lon="12.0800428"><ele>319.0</ele><time>2026-04-19T08:20:27.094Z</time></trkpt><trkpt lat="42.71092" lon="12.0799189"><ele>319.0</ele><time>2026-04-19T08:20:28.094Z</time></trkpt><trkpt lat="42.7107962" lon="12.0798667"><ele>321.66666666666663</ele><time>2026-04-19T08:20:29.105Z</time></trkpt><trkpt lat="42.7106273" lon="12.0798761"><ele>324.3333333333333</ele><time>2026-04-19T08:20:30.112Z</time></trkpt><trkpt lat="42.7104556" lon="12.0798808"><ele>327.0</ele><time>2026-04-19T08:20:31.083Z</time></trkpt><trkpt lat="42.7102609" lon="12.07984"><ele>329.5</ele><time>2026-04-19T08:20:32.103Z</time></trkpt><trkpt lat="42.71008" lon="12.0796701"><ele>332.0</ele><time>2026-04-19T08:20:33.105Z</time></trkpt><trkpt lat="42.7098715" lon="12.0795278"><ele>332.0</ele><time>2026-04-19T08:20:34.093Z</time></trkpt><trkpt lat="42.7096425" lon="12.0794829"><ele>332.0</ele><time>2026-04-19T08:20:35.08Z</time></trkpt><trkpt lat="42.709425" lon="12.0795084"><ele>333.33333333333337</ele><time>2026-04-19T08:20:36.102Z</time></trkpt><trkpt lat="42.7092457" lon="12.0795409"><ele>334.6666666666667</ele><time>2026-04-19T08:20:37.1Z</time></trkpt><trkpt lat="42.7091042" lon="12.0795988"><ele>336.0</ele><time>2026-04-19T08:20:38.088Z</time></trkpt><trkpt lat="42.7089839" lon="12.0796605"><ele>336.0</ele><time>2026-04-19T08:20:39.088Z</time></trkpt><trkpt lat="42.7088654" lon="12.0797069"><ele>336.0</ele><time>2026-04-19T08:20:40.108Z</time></trkpt><trkpt lat="42.7087535" lon="12.0796555"><ele>336.0</ele><time>2026-04-19T08:20:41.096Z</time></trkpt><trkpt lat="42.7086915" lon="12.0795151"><ele>336.0</ele><time>2026-04-19T08:20:42.098Z</time></trkpt><trkpt lat="42.7086903" lon="12.0793687"><ele>336.0</ele><time>2026-04-19T08:20:43.088Z</time></trkpt><trkpt lat="42.7087486" lon="12.0792486"><ele>336.0</ele><time>2026-04-19T08:20:44.098Z</time></trkpt><trkpt lat="42.7088681" lon="12.0791406"><ele>336.0</ele><time>2026-04-19T08:20:45.092Z</time></trkpt><trkpt lat="42.7090405" lon="12.0790145"><ele>336.0</ele><time>2026-04-19T08:20:46.087Z</time></trkpt><trkpt lat="42.7092506" lon="12.078846"><ele>338.5</ele><time>2026-04-19T08:20:47.111Z</time></trkpt><trkpt lat="42.709472" lon="12.0786341"><ele>341.0</ele><time>2026-04-19T08:20:48.102Z</time></trkpt><trkpt lat="42.7096913" lon="12.0783961"><ele>346.0</ele><time>2026-04-19T08:20:49.086Z</time></trkpt><trkpt lat="42.7098851" lon="12.0781646"><ele>351.0</ele><time>2026-04-19T08:20:50.084Z</time></trkpt><trkpt lat="42.7100522" lon="12.0779521"><ele>351.0</ele><time>2026-04-19T08:20:51.095Z</time></trkpt><trkpt lat="42.7101881" lon="12.0777736"><ele>351.0</ele><time>2026-04-19T08:20:52.1Z</time></trkpt><trkpt lat="42.7103047" lon="12.0776224"><ele>351.0</ele><time>2026-04-19T08:20:53.103Z</time></trkpt><trkpt lat="42.7103892" lon="12.0774718"><ele>351.75</ele><time>2026-04-19T08:20:54.12Z</time></trkpt><trkpt lat="42.710422" lon="12.077309"><ele>352.5</ele><time>2026-04-19T08:20:55.1Z</time></trkpt><trkpt lat="42.7103952" lon="12.0771532"><ele>353.25</ele><time>2026-04-19T08:20:56.096Z</time></trkpt><trkpt lat="42.7103165" lon="12.0770387"><ele>354.0</ele><time>2026-04-19T08:20:57.101Z</time></trkpt><trkpt lat="42.710203" lon="12.0769934"><ele>354.0</ele><time>2026-04-19T08:20:58.087Z</time></trkpt><trkpt lat="42.710083" lon="12.0770361"><ele>354.0</ele><time>2026-04-19T08:20:59.11Z</time></trkpt><trkpt lat="42.7099765" lon="12.0771582"><ele>354.0</ele><time>2026-04-19T08:21:00.095Z</time></trkpt><trkpt lat="42.709876" lon="12.0773482"><ele>354.0</ele><time>2026-04-19T08:21:01.088Z</time></trkpt><trkpt lat="42.7097699" lon="12.0775714"><ele>353.0</ele><time>2026-04-19T08:21:02.118Z</time></trkpt><trkpt lat="42.7096083" lon="12.0777525"><ele>352.0</ele><time>2026-04-19T08:21:03.101Z</time></trkpt><trkpt lat="42.7094019" lon="12.0778639"><ele>351.0</ele><time>2026-04-19T08:21:04.091Z</time></trkpt><trkpt lat="42.7091658" lon="12.0779492"><ele>360.0</ele><time>2026-04-19T08:21:05.098Z</time></trkpt><trkpt lat="42.7089028" lon="12.0780301"><ele>369.0</ele><time>2026-04-19T08:21:06.103Z</time></trkpt><trkpt lat="42.7086329" lon="12.0780745"><ele>374.0</ele><time>2026-04-19T08:21:07.116Z</time></trkpt><trkpt lat="42.7083508" lon="12.0780656"><ele>379.0</ele><time>2026-04-19T08:21:08.112Z</time></trkpt><trkpt lat="42.7080728" lon="12.0780638"><ele>379.0</ele><time>2026-04-19T08:21:09.107Z</time></trkpt><trkpt lat="42.7078043" lon="12.0781116"><ele>379.0</ele><time>2026-04-19T08:21:10.101Z</time></trkpt><trkpt lat="42.707549" lon="12.078183"><ele>384.0</ele><time>2026-04-19T08:21:11.109Z</time></trkpt><trkpt lat="42.7073142" lon="12.0782536"><ele>389.0</ele><time>2026-04-19T08:21:12.105Z</time></trkpt><trkpt lat="42.7071006" lon="12.0783374"><ele>389.66666666666663</ele><time>2026-04-19T08:21:13.103Z</time></trkpt><trkpt lat="42.7069197" lon="12.0784629"><ele>390.33333333333337</ele><time>2026-04-19T08:21:14.121Z</time></trkpt><trkpt lat="42.7067711" lon="12.078631"><ele>391.0</ele><time>2026-04-19T08:21:15.1Z</time></trkpt><trkpt lat="42.7066242" lon="12.0788436"><ele>391.0</ele><time>2026-04-19T08:21:16.095Z</time></trkpt><trkpt lat="42.7064497" lon="12.0790698"><ele>391.0</ele><time>2026-04-19T08:21:17.098Z</time></trkpt><trkpt lat="42.7062666" lon="12.0793098"><ele>392.0</ele><time>2026-04-19T08:21:18.107Z</time></trkpt><trkpt lat="42.7060936" lon="12.0796097"><ele>393.0</ele><time>2026-04-19T08:21:19.098Z</time></trkpt><trkpt lat="42.7059351" lon="12.079931"><ele>390.0</ele><time>2026-04-19T08:21:20.108Z</time></trkpt><trkpt lat="42.7057718" lon="12.0802397"><ele>387.0</ele><time>2026-04-19T08:21:21.116Z</time></trkpt><trkpt lat="42.7055811" lon="12.0804922"><ele>387.0</ele><time>2026-04-19T08:21:22.119Z</time></trkpt><trkpt lat="42.7053536" lon="12.0806904"><ele>387.0</ele><time>2026-04-19T08:21:23.093Z</time></trkpt><trkpt lat="42.7051068" lon="12.0808665"><ele>390.5</ele><time>2026-04-19T08:21:24.095Z</time></trkpt><trkpt lat="42.7048626" lon="12.0810327"><ele>394.0</ele><time>2026-04-19T08:21:25.093Z</time></trkpt><trkpt lat="42.7046365" lon="12.0811827"><ele>394.0</ele><time>2026-04-19T08:21:26.109Z</time></trkpt><trkpt lat="42.7044337" lon="12.0813145"><ele>394.0</ele><time>2026-04-19T08:21:27.1Z</time></trkpt><trkpt lat="42.7042501" lon="12.0814135"><ele>394.0</ele><time>2026-04-19T08:21:28.11Z</time></trkpt><trkpt lat="42.70407" lon="12.0814815"><ele>400.33333333333337</ele><time>2026-04-19T08:21:29.096Z</time></trkpt><trkpt lat="42.7038983" lon="12.0815229"><ele>406.66666666666663</ele><time>2026-04-19T08:21:30.084Z</time></trkpt><trkpt lat="42.7037395" lon="12.0815202"><ele>413.0</ele><time>2026-04-19T08:21:31.086Z</time></trkpt><trkpt lat="42.7035838" lon="12.0814646"><ele>413.0</ele><time>2026-04-19T08:21:32.078Z</time></trkpt><trkpt lat="42.7034252" lon="12.0813787"><ele>413.0</ele><time>2026-04-19T08:21:33.084Z</time></trkpt><trkpt lat="42.7032688" lon="12.0812918"><ele>413.0</ele><time>2026-04-19T08:21:34.08Z</time></trkpt><trkpt lat="42.7030788" lon="12.0812325"><ele>413.0</ele><time>2026-04-19T08:21:35.075Z</time></trkpt><trkpt lat="42.7028726" lon="12.0812037"><ele>413.0</ele><time>2026-04-19T08:21:36.1Z</time></trkpt><trkpt lat="42.7026642" lon="12.0811275"><ele>413.0</ele><time>2026-04-19T08:21:37.083Z</time></trkpt><trkpt lat="42.7024673" lon="12.0809776"><ele>411.66666666666663</ele><time>2026-04-19T08:21:38.081Z</time></trkpt><trkpt lat="42.7022783" lon="12.0807986"><ele>410.33333333333337</ele><time>2026-04-19T08:21:39.086Z</time></trkpt><trkpt lat="42.7021104" lon="12.0806164"><ele>409.0</ele><time>2026-04-19T08:21:40.087Z</time></trkpt><trkpt lat="42.7019419" lon="12.0804345"><ele>410.6666666666667</ele><time>2026-04-19T08:21:41.082Z</time></trkpt><trkpt lat="42.7017915" lon="12.0802333"><ele>412.33333333333337</ele><time>2026-04-19T08:21:42.1Z</time></trkpt><trkpt lat="42.7016943" lon="12.0799998"><ele>414.0</ele><time>2026-04-19T08:21:43.113Z</time></trkpt><trkpt lat="42.7016463" lon="12.0797312"><ele>416.5</ele><time>2026-04-19T08:21:44.094Z</time></trkpt><trkpt lat="42.7015995" lon="12.079447"><ele>419.0</ele><time>2026-04-19T08:21:45.1Z</time></trkpt><trkpt lat="42.7015902" lon="12.0791268"><ele>419.5</ele><time>2026-04-19T08:21:46.113Z</time></trkpt><trkpt lat="42.7015505" lon="12.0787946"><ele>420.0</ele><time>2026-04-19T08:21:47.119Z</time></trkpt><trkpt lat="42.7014879" lon="12.078437"><ele>422.0</ele><time>2026-04-19T08:21:48.095Z</time></trkpt><trkpt lat="42.7014215" lon="12.0780629"><ele>424.0</ele><time>2026-04-19T08:21:49.099Z</time></trkpt><trkpt lat="42.701348" lon="12.0776698"><ele>428.0</ele><time>2026-04-19T08:21:50.098Z</time></trkpt><trkpt lat="42.7012735" lon="12.0772721"><ele>432.0</ele><time>2026-04-19T08:21:51.099Z</time></trkpt><trkpt lat="42.7012031" lon="12.0768945"><ele>437.5</ele><time>2026-04-19T08:21:52.1Z</time></trkpt><trkpt lat="42.701143" lon="12.0765873"><ele>443.0</ele><time>2026-04-19T08:21:53.094Z</time></trkpt><trkpt lat="42.7010919" lon="12.0762971"><ele>443.3333333333333</ele><time>2026-04-19T08:21:54.092Z</time></trkpt><trkpt lat="42.701038" lon="12.0760073"><ele>443.66666666666663</ele><time>2026-04-19T08:21:55.093Z</time></trkpt><trkpt lat="42.7009831" lon="12.0757213"><ele>444.0</ele><time>2026-04-19T08:21:56.09Z</time></trkpt><trkpt lat="42.7009247" lon="12.0754413"><ele>444.0</ele><time>2026-04-19T08:21:57.084Z</time></trkpt><trkpt lat="42.7008634" lon="12.075167"><ele>444.0</ele><time>2026-04-19T08:21:58.106Z</time></trkpt><trkpt lat="42.7007992" lon="12.074894"><ele>444.0</ele><time>2026-04-19T08:21:59.095Z</time></trkpt><trkpt lat="42.7007336" lon="12.0746237"><ele>446.0</ele><time>2026-04-19T08:22:00.078Z</time></trkpt><trkpt lat="42.7006694" lon="12.0743495"><ele>448.0</ele><time>2026-04-19T08:22:01.102Z</time></trkpt><trkpt lat="42.7006088" lon="12.0740696"><ele>450.0</ele><time>2026-04-19T08:22:02.112Z</time></trkpt><trkpt lat="42.7005537" lon="12.0737881"><ele>452.66666666666663</ele><time>2026-04-19T08:22:03.084Z</time></trkpt><trkpt lat="42.7005007" lon="12.0735069"><ele>455.3333333333333</ele><time>2026-04-19T08:22:04.093Z</time></trkpt><trkpt lat="42.7004451" lon="12.0732261"><ele>458.0</ele><time>2026-04-19T08:22:05.078Z</time></trkpt><trkpt lat="42.7003913" lon="12.0729402"><ele>461.0</ele><time>2026-04-19T08:22:06.088Z</time></trkpt><trkpt lat="42.7003355" lon="12.0726395"><ele>464.0</ele><time>2026-04-19T08:22:07.089Z</time></trkpt><trkpt lat="42.7002778" lon="12.0723182"><ele>462.0</ele><time>2026-04-19T08:22:08.103Z</time></trkpt><trkpt lat="42.7002204" lon="12.0719803"><ele>460.0</ele><time>2026-04-19T08:22:09.084Z</time></trkpt><trkpt lat="42.7001601" lon="12.0716321"><ele>462.0</ele><time>2026-04-19T08:22:10.091Z</time></trkpt><trkpt lat="42.7000804" lon="12.0713137"><ele>464.0</ele><time>2026-04-19T08:22:11.098Z</time></trkpt><trkpt lat="42.6999997" lon="12.0710247"><ele>464.0</ele><time>2026-04-19T08:22:12.097Z</time></trkpt><trkpt lat="42.699857" lon="12.0707846"><ele>464.0</ele><time>2026-04-19T08:22:13.078Z</time></trkpt><trkpt lat="42.6996496" lon="12.0706206"><ele>464.0</ele><time>2026-04-19T08:22:14.082Z</time></trkpt><trkpt lat="42.6994277" lon="12.0704834"><ele>464.0</ele><time>2026-04-19T08:22:15.083Z</time></trkpt><trkpt lat="42.6991766" lon="12.0703846"><ele>464.0</ele><time>2026-04-19T08:22:16.081Z</time></trkpt><trkpt lat="42.6989074" lon="12.0702791"><ele>464.0</ele><time>2026-04-19T08:22:17.085Z</time></trkpt><trkpt lat="42.6986171" lon="12.0701809"><ele>465.5</ele><time>2026-04-19T08:22:18.099Z</time></trkpt><trkpt lat="42.6983342" lon="12.0700707"><ele>467.0</ele><time>2026-04-19T08:22:19.101Z</time></trkpt><trkpt lat="42.698057" lon="12.069946"><ele>468.5</ele><time>2026-04-19T08:22:20.104Z</time></trkpt><trkpt lat="42.6977948" lon="12.0697892"><ele>470.0</ele><time>2026-04-19T08:22:21.107Z</time></trkpt><trkpt lat="42.6975529" lon="12.0695934"><ele>472.0</ele><time>2026-04-19T08:22:22.112Z</time></trkpt><trkpt lat="42.6973399" lon="12.0693767"><ele>474.0</ele><time>2026-04-19T08:22:23.1Z</time></trkpt><trkpt lat="42.6971507" lon="12.0691554"><ele>474.5</ele><time>2026-04-19T08:22:24.107Z</time></trkpt><trkpt lat="42.6969736" lon="12.0689228"><ele>475.0</ele><time>2026-04-19T08:22:25.101Z</time></trkpt><trkpt lat="42.6968138" lon="12.0686833"><ele>475.33333333333337</ele><time>2026-04-19T08:22:26.114Z</time></trkpt><trkpt lat="42.6966539" lon="12.0684563"><ele>475.66666666666663</ele><time>2026-04-19T08:22:27.121Z</time></trkpt><trkpt lat="42.6965117" lon="12.068255"><ele>476.0</ele><time>2026-04-19T08:22:28.103Z</time></trkpt><trkpt lat="42.696382" lon="12.0680671"><ele>476.0</ele><time>2026-04-19T08:22:29.108Z</time></trkpt><trkpt lat="42.6962563" lon="12.0678784"><ele>476.0</ele><time>2026-04-19T08:22:30.126Z</time></trkpt><trkpt lat="42.6961357" lon="12.0676882"><ele>476.0</ele><time>2026-04-19T08:22:31.092Z</time></trkpt><trkpt lat="42.6960226" lon="12.0675"><ele>477.66666666666663</ele><time>2026-04-19T08:22:32.109Z</time></trkpt><trkpt lat="42.6959152" lon="12.06731"><ele>479.33333333333337</ele><time>2026-04-19T08:22:33.105Z</time></trkpt><trkpt lat="42.6958098" lon="12.0671195"><ele>481.0</ele><time>2026-04-19T08:22:34.103Z</time></trkpt><trkpt lat="42.6957025" lon="12.0669277"><ele>481.0</ele><time>2026-04-19T08:22:35.096Z</time></trkpt><trkpt lat="42.69559" lon="12.0667367"><ele>481.0</ele><time>2026-04-19T08:22:36.1Z</time></trkpt><trkpt lat="42.695468" lon="12.0665448"><ele>481.0</ele><time>2026-04-19T08:22:37.11Z</time></trkpt><trkpt lat="42.6953442" lon="12.0663393"><ele>482.0</ele><time>2026-04-19T08:22:38.103Z</time></trkpt><trkpt lat="42.6952262" lon="12.0661215"><ele>483.0</ele><time>2026-04-19T08:22:39.102Z</time></trkpt><trkpt lat="42.6951074" lon="12.0659037"><ele>484.0</ele><time>2026-04-19T08:22:40.102Z</time></trkpt><trkpt lat="42.6949755" lon="12.0656908"><ele>484.33333333333337</ele><time>2026-04-19T08:22:41.11Z</time></trkpt><trkpt lat="42.6948254" lon="12.0654867"><ele>484.66666666666663</ele><time>2026-04-19T08:22:42.091Z</time></trkpt><trkpt lat="42.6946626" lon="12.0652909"><ele>485.0</ele><time>2026-04-19T08:22:43.113Z</time></trkpt><trkpt lat="42.6944863" lon="12.0651077"><ele>485.0</ele><time>2026-04-19T08:22:44.106Z</time></trkpt><trkpt lat="42.6942884" lon="12.06495"><ele>485.0</ele><time>2026-04-19T08:22:45.11Z</time></trkpt><trkpt lat="42.6940676" lon="12.0648206"><ele>485.0</ele><time>2026-04-19T08:22:46.104Z</time></trkpt><trkpt lat="42.6938314" lon="12.064722"><ele>485.0</ele><time>2026-04-19T08:22:47.109Z</time></trkpt><trkpt lat="42.6935916" lon="12.064643"><ele>486.5</ele><time>2026-04-19T08:22:48.107Z</time></trkpt><trkpt lat="42.6933501" lon="12.0645728"><ele>488.0</ele><time>2026-04-19T08:22:49.102Z</time></trkpt><trkpt lat="42.6931113" lon="12.0645014"><ele>488.0</ele><time>2026-04-19T08:22:50.088Z</time></trkpt><trkpt lat="42.6928743" lon="12.0644189"><ele>488.0</ele><time>2026-04-19T08:22:51.122Z</time></trkpt><trkpt lat="42.6926402" lon="12.0643201"><ele>489.0</ele><time>2026-04-19T08:22:52.154Z</time></trkpt><trkpt lat="42.6924136" lon="12.0642081"><ele>490.0</ele><time>2026-04-19T08:22:53.098Z</time></trkpt><trkpt lat="42.6922029" lon="12.0640846"><ele>490.0</ele><time>2026-04-19T08:22:54.091Z</time></trkpt><trkpt lat="42.6920007" lon="12.0639419"><ele>490.0</ele><time>2026-04-19T08:22:55.09Z</time></trkpt><trkpt lat="42.6918044" lon="12.0637865"><ele>493.0</ele><time>2026-04-19T08:22:56.087Z</time></trkpt><trkpt lat="42.6916113" lon="12.0636257"><ele>496.0</ele><time>2026-04-19T08:22:57.099Z</time></trkpt><trkpt lat="42.6914197" lon="12.0634656"><ele>496.0</ele><time>2026-04-19T08:22:58.104Z</time></trkpt><trkpt lat="42.691228" lon="12.0633052"><ele>496.0</ele><time>2026-04-19T08:22:59.102Z</time></trkpt><trkpt lat="42.6910376" lon="12.0631426"><ele>497.33333333333337</ele><time>2026-04-19T08:23:00.108Z</time></trkpt><trkpt lat="42.6908472" lon="12.0629803"><ele>498.66666666666663</ele><time>2026-04-19T08:23:01.099Z</time></trkpt><trkpt lat="42.6906617" lon="12.062822"><ele>500.0</ele><time>2026-04-19T08:23:02.088Z</time></trkpt><trkpt lat="42.6904796" lon="12.0626655"><ele>500.0</ele><time>2026-04-19T08:23:03.096Z</time></trkpt><trkpt lat="42.6902928" lon="12.0625045"><ele>500.0</ele><time>2026-04-19T08:23:04.101Z</time></trkpt><trkpt lat="42.6901083" lon="12.0623355"><ele>500.0</ele><time>2026-04-19T08:23:05.106Z</time></trkpt><trkpt lat="42.6899318" lon="12.0621631"><ele>500.66666666666663</ele><time>2026-04-19T08:23:06.127Z</time></trkpt><trkpt lat="42.6897706" lon="12.061982"><ele>501.33333333333337</ele><time>2026-04-19T08:23:07.104Z</time></trkpt><trkpt lat="42.6896311" lon="12.061785"><ele>502.0</ele><time>2026-04-19T08:23:08.104Z</time></trkpt><trkpt lat="42.6895143" lon="12.0615819"><ele>503.25</ele><time>2026-04-19T08:23:09.104Z</time></trkpt><trkpt lat="42.6894238" lon="12.0613893"><ele>504.5</ele><time>2026-04-19T08:23:10.112Z</time></trkpt><trkpt lat="42.6893553" lon="12.0612174"><ele>505.75</ele><time>2026-04-19T08:23:11.097Z</time></trkpt><trkpt lat="42.6893008" lon="12.0610482"><ele>507.0</ele><time>2026-04-19T08:23:12.101Z</time></trkpt><trkpt lat="42.6892566" lon="12.0608865"><ele>507.75</ele><time>2026-04-19T08:23:13.105Z</time></trkpt><trkpt lat="42.689215" lon="12.0607378"><ele>508.5</ele><time>2026-04-19T08:23:14.099Z</time></trkpt><trkpt lat="42.6891717" lon="12.0605988"><ele>509.25</ele><time>2026-04-19T08:23:15.103Z</time></trkpt><trkpt lat="42.6891151" lon="12.0604605"><ele>510.0</ele><time>2026-04-19T08:23:16.103Z</time></trkpt><trkpt lat="42.6890335" lon="12.0603314"><ele>510.0</ele><time>2026-04-19T08:23:17.113Z</time></trkpt><trkpt lat="42.6889291" lon="12.0602019"><ele>510.0</ele><time>2026-04-19T08:23:18.108Z</time></trkpt><trkpt lat="42.6888155" lon="12.0600555"><ele>510.0</ele><time>2026-04-19T08:23:19.107Z</time></trkpt><trkpt lat="42.6887" lon="12.0599069"><ele>511.66666666666663</ele><time>2026-04-19T08:23:20.103Z</time></trkpt><trkpt lat="42.688583" lon="12.0597524"><ele>513.3333333333333</ele><time>2026-04-19T08:23:21.091Z</time></trkpt><trkpt lat="42.6884502" lon="12.0595989"><ele>515.0</ele><time>2026-04-19T08:23:22.102Z</time></trkpt><trkpt lat="42.6883242" lon="12.0594572"><ele>515.0</ele><time>2026-04-19T08:23:23.1Z</time></trkpt><trkpt lat="42.6881943" lon="12.0593111"><ele>515.0</ele><time>2026-04-19T08:23:24.109Z</time></trkpt><trkpt lat="42.6880678" lon="12.0591599"><ele>515.0</ele><time>2026-04-19T08:23:25.102Z</time></trkpt><trkpt lat="42.687938" lon="12.0590044"><ele>515.3333333333333</ele><time>2026-04-19T08:23:26.11Z</time></trkpt><trkpt lat="42.6878214" lon="12.0588425"><ele>515.6666666666666</ele><time>2026-04-19T08:23:27.098Z</time></trkpt><trkpt lat="42.6877214" lon="12.0586695"><ele>516.0</ele><time>2026-04-19T08:23:28.108Z</time></trkpt><trkpt lat="42.6876353" lon="12.0585006"><ele>515.5</ele><time>2026-04-19T08:23:29.084Z</time></trkpt><trkpt lat="42.6875727" lon="12.0583177"><ele>515.0</ele><time>2026-04-19T08:23:30.115Z</time></trkpt><trkpt lat="42.6875084" lon="12.0581319"><ele>514.5</ele><time>2026-04-19T08:23:31.094Z</time></trkpt><trkpt lat="42.6874539" lon="12.0579422"><ele>514.0</ele><time>2026-04-19T08:23:32.106Z</time></trkpt><trkpt lat="42.6874083" lon="12.0577721"><ele>514.0</ele><time>2026-04-19T08:23:33.11Z</time></trkpt><trkpt lat="42.6873561" lon="12.0576002"><ele>514.0</ele><time>2026-04-19T08:23:34.108Z</time></trkpt><trkpt lat="42.6872981" lon="12.0574385"><ele>514.0</ele><time>2026-04-19T08:23:35.096Z</time></trkpt><trkpt lat="42.6872373" lon="12.0572981"><ele>514.0</ele><time>2026-04-19T08:23:36.111Z</time></trkpt><trkpt lat="42.6871767" lon="12.0571823"><ele>514.0</ele><time>2026-04-19T08:23:37.118Z</time></trkpt><trkpt lat="42.687112" lon="12.057065"><ele>514.0</ele><time>2026-04-19T08:23:38.093Z</time></trkpt><trkpt lat="42.6870453" lon="12.0569383"><ele>514.0</ele><time>2026-04-19T08:23:39.106Z</time></trkpt><trkpt lat="42.6869611" lon="12.056809"><ele>514.0</ele><time>2026-04-19T08:23:40.103Z</time></trkpt><trkpt lat="42.686859" lon="12.0566688"><ele>514.6666666666667</ele><time>2026-04-19T08:23:41.099Z</time></trkpt><trkpt lat="42.6867638" lon="12.0565106"><ele>515.3333333333334</ele><time>2026-04-19T08:23:42.106Z</time></trkpt><trkpt lat="42.6866605" lon="12.0563296"><ele>516.0</ele><time>2026-04-19T08:23:43.098Z</time></trkpt><trkpt lat="42.6865489" lon="12.0561368"><ele>516.0</ele><time>2026-04-19T08:23:44.106Z</time></trkpt><trkpt lat="42.6864424" lon="12.0559542"><ele>516.0</ele><time>2026-04-19T08:23:45.112Z</time></trkpt><trkpt lat="42.686328" lon="12.0557383"><ele>516.0</ele><time>2026-04-19T08:23:46.101Z</time></trkpt><trkpt lat="42.6862006" lon="12.0555163"><ele>516.3333333333334</ele><time>2026-04-19T08:23:47.115Z</time></trkpt><trkpt lat="42.6860715" lon="12.0552741"><ele>516.6666666666667</ele><time>2026-04-19T08:23:48.102Z</time></trkpt><trkpt lat="42.6859296" lon="12.0550391"><ele>517.0</ele><time>2026-04-19T08:23:49.11Z</time></trkpt><trkpt lat="42.6857777" lon="12.0548133"><ele>516.3333333333334</ele><time>2026-04-19T08:23:50.12Z</time></trkpt><trkpt lat="42.6856204" lon="12.0546065"><ele>515.6666666666666</ele><time>2026-04-19T08:23:51.097Z</time></trkpt><trkpt lat="42.685464" lon="12.054396"><ele>515.0</ele><time>2026-04-19T08:23:52.097Z</time></trkpt><trkpt lat="42.6853162" lon="12.0541791"><ele>517.0</ele><time>2026-04-19T08:23:53.095Z</time></trkpt><trkpt lat="42.6852483" lon="12.0539171"><ele>519.0</ele><time>2026-04-19T08:23:54.109Z</time></trkpt><trkpt lat="42.6852222" lon="12.053621"><ele>521.0</ele><time>2026-04-19T08:23:55.109Z</time></trkpt><trkpt lat="42.6852078" lon="12.0533213"><ele>522.0</ele><time>2026-04-19T08:23:56.11Z</time></trkpt><trkpt lat="42.6852264" lon="12.0529779"><ele>523.0</ele><time>2026-04-19T08:23:57.124Z</time></trkpt><trkpt lat="42.6852346" lon="12.0526113"><ele>524.0</ele><time>2026-04-19T08:23:58.104Z</time></trkpt><trkpt lat="42.6852418" lon="12.0522577"><ele>525.0</ele><time>2026-04-19T08:23:59.096Z</time></trkpt><trkpt lat="42.6852001" lon="12.0519258"><ele>527.0</ele><time>2026-04-19T08:24:00.09Z</time></trkpt><trkpt lat="42.6851316" lon="12.0516068"><ele>529.0</ele><time>2026-04-19T08:24:01.087Z</time></trkpt><trkpt lat="42.6850381" lon="12.051323"><ele>529.0</ele><time>2026-04-19T08:24:02.098Z</time></trkpt><trkpt lat="42.68494" lon="12.05104"><ele>529.0</ele><time>2026-04-19T08:24:03.115Z</time></trkpt><trkpt lat="42.6848217" lon="12.0507711"><ele>528.6666666666667</ele><time>2026-04-19T08:24:04.113Z</time></trkpt><trkpt lat="42.6847062" lon="12.0505182"><ele>528.3333333333334</ele><time>2026-04-19T08:24:05.102Z</time></trkpt><trkpt lat="42.684584" lon="12.0503101"><ele>528.0</ele><time>2026-04-19T08:24:06.108Z</time></trkpt><trkpt lat="42.6844674" lon="12.0500956"><ele>528.6666666666666</ele><time>2026-04-19T08:24:07.106Z</time></trkpt><trkpt lat="42.684359" lon="12.0498821"><ele>529.3333333333333</ele><time>2026-04-19T08:24:08.102Z</time></trkpt><trkpt lat="42.684255" lon="12.0496865"><ele>530.0</ele><time>2026-04-19T08:24:09.098Z</time></trkpt><trkpt lat="42.6841562" lon="12.0495006"><ele>530.0</ele><time>2026-04-19T08:24:10.107Z</time></trkpt><trkpt lat="42.6840453" lon="12.0493122"><ele>530.0</ele><time>2026-04-19T08:24:11.087Z</time></trkpt><trkpt lat="42.683942" lon="12.0491292"><ele>530.0</ele><time>2026-04-19T08:24:12.108Z</time></trkpt><trkpt lat="42.6838325" lon="12.0489381"><ele>529.6666666666666</ele><time>2026-04-19T08:24:13.112Z</time></trkpt><trkpt lat="42.6837387" lon="12.0487728"><ele>529.3333333333334</ele><time>2026-04-19T08:24:14.1Z</time></trkpt><trkpt lat="42.6836328" lon="12.0485859"><ele>529.0</ele><time>2026-04-19T08:24:15.106Z</time></trkpt><trkpt lat="42.6835255" lon="12.048388"><ele>531.0</ele><time>2026-04-19T08:24:16.108Z</time></trkpt><trkpt lat="42.6834189" lon="12.0481827"><ele>533.0</ele><time>2026-04-19T08:24:17.104Z</time></trkpt><trkpt lat="42.6833163" lon="12.0479739"><ele>535.0</ele><time>2026-04-19T08:24:18.111Z</time></trkpt><trkpt lat="42.6832141" lon="12.0477664"><ele>535.0</ele><time>2026-04-19T08:24:19.102Z</time></trkpt><trkpt lat="42.6830982" lon="12.047571"><ele>535.0</ele><time>2026-04-19T08:24:20.103Z</time></trkpt><trkpt lat="42.6829737" lon="12.047387"><ele>535.0</ele><time>2026-04-19T08:24:21.113Z</time></trkpt><trkpt lat="42.6828424" lon="12.0472214"><ele>535.6666666666667</ele><time>2026-04-19T08:24:22.117Z</time></trkpt><trkpt lat="42.682706" lon="12.0470657"><ele>536.3333333333334</ele><time>2026-04-19T08:24:23.097Z</time></trkpt><trkpt lat="42.6825632" lon="12.0469137"><ele>537.0</ele><time>2026-04-19T08:24:24.1Z</time></trkpt><trkpt lat="42.6823973" lon="12.0467571"><ele>535.0</ele><time>2026-04-19T08:24:25.099Z</time></trkpt><trkpt lat="42.6822002" lon="12.0465482"><ele>533.0</ele><time>2026-04-19T08:24:26.099Z</time></trkpt><trkpt lat="42.6819843" lon="12.0463023"><ele>535.0</ele><time>2026-04-19T08:24:27.1Z</time></trkpt><trkpt lat="42.6817559" lon="12.046012"><ele>537.0</ele><time>2026-04-19T08:24:28.104Z</time></trkpt><trkpt lat="42.6815179" lon="12.0456863"><ele>537.0</ele><time>2026-04-19T08:24:29.109Z</time></trkpt><trkpt lat="42.6812746" lon="12.0453316"><ele>537.0</ele><time>2026-04-19T08:24:30.099Z</time></trkpt><trkpt lat="42.6810275" lon="12.044961"><ele>539.5</ele><time>2026-04-19T08:24:31.091Z</time></trkpt><trkpt lat="42.6807784" lon="12.044586"><ele>542.0</ele><time>2026-04-19T08:24:32.115Z</time></trkpt><trkpt lat="42.6805443" lon="12.0442211"><ele>542.5</ele><time>2026-04-19T08:24:33.11Z</time></trkpt><trkpt lat="42.6803283" lon="12.0438985"><ele>543.0</ele><time>2026-04-19T08:24:34.106Z</time></trkpt><trkpt lat="42.6801259" lon="12.0435902"><ele>544.5</ele><time>2026-04-19T08:24:35.102Z</time></trkpt><trkpt lat="42.679934" lon="12.0432931"><ele>546.0</ele><time>2026-04-19T08:24:36.107Z</time></trkpt><trkpt lat="42.6797727" lon="12.0430272"><ele>546.0</ele><time>2026-04-19T08:24:37.119Z</time></trkpt><trkpt lat="42.6796176" lon="12.0427313"><ele>546.0</ele><time>2026-04-19T08:24:38.105Z</time></trkpt><trkpt lat="42.6794828" lon="12.0423983"><ele>548.0</ele><time>2026-04-19T08:24:39.107Z</time></trkpt><trkpt lat="42.6793721" lon="12.0420198"><ele>550.0</ele><time>2026-04-19T08:24:40.098Z</time></trkpt><trkpt lat="42.6792925" lon="12.0416119"><ele>550.5</ele><time>2026-04-19T08:24:41.1Z</time></trkpt><trkpt lat="42.6792186" lon="12.0411689"><ele>551.0</ele><time>2026-04-19T08:24:42.102Z</time></trkpt><trkpt lat="42.6791402" lon="12.0407012"><ele>551.5</ele><time>2026-04-19T08:24:43.116Z</time></trkpt><trkpt lat="42.6790349" lon="12.040224"><ele>552.0</ele><time>2026-04-19T08:24:44.11Z</time></trkpt><trkpt lat="42.6789333" lon="12.0397405"><ele>552.0</ele><time>2026-04-19T08:24:45.1Z</time></trkpt><trkpt lat="42.6788347" lon="12.03928"><ele>552.0</ele><time>2026-04-19T08:24:46.106Z</time></trkpt><trkpt lat="42.6787411" lon="12.0388379"><ele>552.5</ele><time>2026-04-19T08:24:47.088Z</time></trkpt><trkpt lat="42.678688" lon="12.0384263"><ele>553.0</ele><time>2026-04-19T08:24:48.11Z</time></trkpt><trkpt lat="42.6786748" lon="12.037989"><ele>554.5</ele><time>2026-04-19T08:24:49.096Z</time></trkpt><trkpt lat="42.6786806" lon="12.0375624"><ele>556.0</ele><time>2026-04-19T08:24:50.09Z</time></trkpt><trkpt lat="42.6787476" lon="12.0371089"><ele>557.0</ele><time>2026-04-19T08:24:51.099Z</time></trkpt><trkpt lat="42.6788121" lon="12.0366473"><ele>558.0</ele><time>2026-04-19T08:24:52.098Z</time></trkpt><trkpt lat="42.6788705" lon="12.0361983"><ele>561.5</ele><time>2026-04-19T08:24:53.107Z</time></trkpt><trkpt lat="42.678924" lon="12.0357733"><ele>565.0</ele><time>2026-04-19T08:24:54.104Z</time></trkpt><trkpt lat="42.6789725" lon="12.0353704"><ele>565.0</ele><time>2026-04-19T08:24:55.106Z</time></trkpt><trkpt lat="42.6790151" lon="12.0349779"><ele>565.0</ele><time>2026-04-19T08:24:56.105Z</time></trkpt><trkpt lat="42.6790342" lon="12.0345927"><ele>565.5</ele><time>2026-04-19T08:24:57.107Z</time></trkpt><trkpt lat="42.6790179" lon="12.0342081"><ele>566.0</ele><time>2026-04-19T08:24:58.124Z</time></trkpt><trkpt lat="42.6789592" lon="12.0338319"><ele>566.0</ele><time>2026-04-19T08:24:59.099Z</time></trkpt><trkpt lat="42.678851" lon="12.0334753"><ele>566.0</ele><time>2026-04-19T08:25:00.106Z</time></trkpt><trkpt lat="42.6786992" lon="12.033169"><ele>568.5</ele><time>2026-04-19T08:25:01.103Z</time></trkpt><trkpt lat="42.6785112" lon="12.0329204"><ele>571.0</ele><time>2026-04-19T08:25:02.115Z</time></trkpt><trkpt lat="42.6782876" lon="12.0327208"><ele>571.0</ele><time>2026-04-19T08:25:03.106Z</time></trkpt><trkpt lat="42.6780305" lon="12.0325706"><ele>571.0</ele><time>2026-04-19T08:25:04.116Z</time></trkpt><trkpt lat="42.677745" lon="12.0324608"><ele>572.5</ele><time>2026-04-19T08:25:05.099Z</time></trkpt><trkpt lat="42.6774445" lon="12.0323653"><ele>574.0</ele><time>2026-04-19T08:25:06.093Z</time></trkpt><trkpt lat="42.6771334" lon="12.032265"><ele>576.0</ele><time>2026-04-19T08:25:07.108Z</time></trkpt><trkpt lat="42.6768086" lon="12.0321628"><ele>578.0</ele><time>2026-04-19T08:25:08.105Z</time></trkpt><trkpt lat="42.6764825" lon="12.0320606"><ele>578.0</ele><time>2026-04-19T08:25:09.11Z</time></trkpt><trkpt lat="42.6761602" lon="12.0319604"><ele>578.0</ele><time>2026-04-19T08:25:10.096Z</time></trkpt><trkpt lat="42.6758263" lon="12.0318806"><ele>577.0</ele><time>2026-04-19T08:25:11.109Z</time></trkpt><trkpt lat="42.6754883" lon="12.0318285"><ele>576.0</ele><time>2026-04-19T08:25:12.107Z</time></trkpt><trkpt lat="42.6751538" lon="12.0318005"><ele>573.5</ele><time>2026-04-19T08:25:13.101Z</time></trkpt><trkpt lat="42.6748205" lon="12.0317993"><ele>571.0</ele><time>2026-04-19T08:25:14.106Z</time></trkpt><trkpt lat="42.6744899" lon="12.0318201"><ele>568.0</ele><time>2026-04-19T08:25:15.117Z</time></trkpt><trkpt lat="42.6741622" lon="12.0318559"><ele>565.0</ele><time>2026-04-19T08:25:16.121Z</time></trkpt><trkpt lat="42.6738364" lon="12.0318879"><ele>563.5</ele><time>2026-04-19T08:25:17.11Z</time></trkpt><trkpt lat="42.6735071" lon="12.0318934"><ele>562.0</ele><time>2026-04-19T08:25:18.113Z</time></trkpt><trkpt lat="42.6731703" lon="12.0318692"><ele>562.0</ele><time>2026-04-19T08:25:19.108Z</time></trkpt><trkpt lat="42.6728301" lon="12.031824"><ele>562.0</ele><time>2026-04-19T08:25:20.093Z</time></trkpt><trkpt lat="42.6724924" lon="12.0317635"><ele>561.0</ele><time>2026-04-19T08:25:21.106Z</time></trkpt><trkpt lat="42.6721584" lon="12.0316949"><ele>560.0</ele><time>2026-04-19T08:25:22.091Z</time></trkpt><trkpt lat="42.6718281" lon="12.0316392"><ele>558.5</ele><time>2026-04-19T08:25:23.115Z</time></trkpt><trkpt lat="42.6714999" lon="12.0316279"><ele>557.0</ele><time>2026-04-19T08:25:24.102Z</time></trkpt><trkpt lat="42.6711732" lon="12.0316767"><ele>554.0</ele><time>2026-04-19T08:25:25.104Z</time></trkpt><trkpt lat="42.6708505" lon="12.0317812"><ele>551.0</ele><time>2026-04-19T08:25:26.091Z</time></trkpt><trkpt lat="42.6705485" lon="12.0319217"><ele>550.5</ele><time>2026-04-19T08:25:27.099Z</time></trkpt><trkpt lat="42.670268" lon="12.0320806"><ele>550.0</ele><time>2026-04-19T08:25:28.106Z</time></trkpt><trkpt lat="42.6700031" lon="12.03224"><ele>550.0</ele><time>2026-04-19T08:25:29.11Z</time></trkpt><trkpt lat="42.6697459" lon="12.0323847"><ele>550.0</ele><time>2026-04-19T08:25:30.11Z</time></trkpt><trkpt lat="42.6694892" lon="12.0325139"><ele>548.5</ele><time>2026-04-19T08:25:31.096Z</time></trkpt><trkpt lat="42.6692357" lon="12.032622"><ele>547.0</ele><time>2026-04-19T08:25:32.104Z</time></trkpt><trkpt lat="42.6689881" lon="12.032702"><ele>547.0</ele><time>2026-04-19T08:25:33.101Z</time></trkpt><trkpt lat="42.6687473" lon="12.0327539"><ele>547.0</ele><time>2026-04-19T08:25:34.107Z</time></trkpt><trkpt lat="42.6685129" lon="12.0327793"><ele>545.0</ele><time>2026-04-19T08:25:35.101Z</time></trkpt><trkpt lat="42.6682834" lon="12.032779"><ele>543.0</ele><time>2026-04-19T08:25:36.112Z</time></trkpt><trkpt lat="42.6680423" lon="12.0327553"><ele>543.0</ele><time>2026-04-19T08:25:37.099Z</time></trkpt><trkpt lat="42.6677895" lon="12.0327197"><ele>543.0</ele><time>2026-04-19T08:25:38.104Z</time></trkpt><trkpt lat="42.6675233" lon="12.0326763"><ele>539.0</ele><time>2026-04-19T08:25:39.087Z</time></trkpt><trkpt lat="42.6672285" lon="12.0326242"><ele>535.0</ele><time>2026-04-19T08:25:40.107Z</time></trkpt><trkpt lat="42.6669023" lon="12.0325632"><ele>535.0</ele><time>2026-04-19T08:25:41.114Z</time></trkpt><trkpt lat="42.6665492" lon="12.0324892"><ele>535.0</ele><time>2026-04-19T08:25:42.112Z</time></trkpt><trkpt lat="42.6661795" lon="12.0324073"><ele>533.0</ele><time>2026-04-19T08:25:43.105Z</time></trkpt><trkpt lat="42.665796" lon="12.0323239"><ele>531.0</ele><time>2026-04-19T08:25:44.106Z</time></trkpt><trkpt lat="42.6654265" lon="12.0322448"><ele>531.5</ele><time>2026-04-19T08:25:45.091Z</time></trkpt><trkpt lat="42.6650872" lon="12.0321708"><ele>532.0</ele><time>2026-04-19T08:25:46.099Z</time></trkpt><trkpt lat="42.6647781" lon="12.0321033"><ele>532.0</ele><time>2026-04-19T08:25:47.091Z</time></trkpt><trkpt lat="42.6644903" lon="12.0320415"><ele>532.0</ele><time>2026-04-19T08:25:48.093Z</time></trkpt><trkpt lat="42.6642203" lon="12.0319837"><ele>535.5</ele><time>2026-04-19T08:25:49.087Z</time></trkpt><trkpt lat="42.6639673" lon="12.0319294"><ele>539.0</ele><time>2026-04-19T08:25:50.084Z</time></trkpt><trkpt lat="42.6637277" lon="12.0318785"><ele>540.0</ele><time>2026-04-19T08:25:51.093Z</time></trkpt><trkpt lat="42.6635025" lon="12.0318307"><ele>541.0</ele><time>2026-04-19T08:25:52.1Z</time></trkpt><trkpt lat="42.6632867" lon="12.031787"><ele>542.0</ele><time>2026-04-19T08:25:53.098Z</time></trkpt><trkpt lat="42.6630745" lon="12.0317474"><ele>542.0</ele><time>2026-04-19T08:25:54.105Z</time></trkpt><trkpt lat="42.6628627" lon="12.0317128"><ele>542.0</ele><time>2026-04-19T08:25:55.105Z</time></trkpt><trkpt lat="42.6626582" lon="12.0316857"><ele>542.0</ele><time>2026-04-19T08:25:56.107Z</time></trkpt><trkpt lat="42.6624666" lon="12.0316664"><ele>541.6666666666666</ele><time>2026-04-19T08:25:57.111Z</time></trkpt><trkpt lat="42.6622883" lon="12.0316517"><ele>541.3333333333334</ele><time>2026-04-19T08:25:58.113Z</time></trkpt><trkpt lat="42.6621224" lon="12.0316347"><ele>541.0</ele><time>2026-04-19T08:25:59.096Z</time></trkpt><trkpt lat="42.6619681" lon="12.0315998"><ele>544.3333333333334</ele><time>2026-04-19T08:26:00.117Z</time></trkpt><trkpt lat="42.6618099" lon="12.0315155"><ele>547.6666666666666</ele><time>2026-04-19T08:26:01.118Z</time></trkpt><trkpt lat="42.6616398" lon="12.0313781"><ele>551.0</ele><time>2026-04-19T08:26:02.109Z</time></trkpt><trkpt lat="42.6614597" lon="12.0311996"><ele>551.0</ele><time>2026-04-19T08:26:03.102Z</time></trkpt><trkpt lat="42.6612849" lon="12.0310196"><ele>551.0</ele><time>2026-04-19T08:26:04.082Z</time></trkpt><trkpt lat="42.6611089" lon="12.0308902"><ele>551.0</ele><time>2026-04-19T08:26:05.083Z</time></trkpt><trkpt lat="42.6609328" lon="12.0308261"><ele>552.75</ele><time>2026-04-19T08:26:06.088Z</time></trkpt><trkpt lat="42.6607734" lon="12.0307738"><ele>554.5</ele><time>2026-04-19T08:26:07.094Z</time></trkpt><trkpt lat="42.6606451" lon="12.0306868"><ele>556.25</ele><time>2026-04-19T08:26:08.091Z</time></trkpt><trkpt lat="42.6605676" lon="12.0305443"><ele>558.0</ele><time>2026-04-19T08:26:09.076Z</time></trkpt><trkpt lat="42.6605312" lon="12.0303563"><ele>558.0</ele><time>2026-04-19T08:26:10.103Z</time></trkpt><trkpt lat="42.6605251" lon="12.0301171"><ele>558.0</ele><time>2026-04-19T08:26:11.082Z</time></trkpt><trkpt lat="42.6605128" lon="12.0298584"><ele>558.0</ele><time>2026-04-19T08:26:12.115Z</time></trkpt><trkpt lat="42.6605019" lon="12.029584"><ele>558.0</ele><time>2026-04-19T08:26:13.111Z</time></trkpt><trkpt lat="42.6604492" lon="12.0293566"><ele>558.0</ele><time>2026-04-19T08:26:14.089Z</time></trkpt><trkpt lat="42.6603512" lon="12.0291625"><ele>558.0</ele><time>2026-04-19T08:26:15.112Z</time></trkpt><trkpt lat="42.6601986" lon="12.029037"><ele>559.6666666666666</ele><time>2026-04-19T08:26:16.093Z</time></trkpt><trkpt lat="42.6600146" lon="12.0289474"><ele>561.3333333333333</ele><time>2026-04-19T08:26:17.104Z</time></trkpt><trkpt lat="42.6598183" lon="12.0288739"><ele>563.0</ele><time>2026-04-19T08:26:18.11Z</time></trkpt><trkpt lat="42.6596573" lon="12.0287788"><ele>563.0</ele><time>2026-04-19T08:26:19.108Z</time></trkpt><trkpt lat="42.6595417" lon="12.028643"><ele>563.0</ele><time>2026-04-19T08:26:20.112Z</time></trkpt><trkpt lat="42.6594557" lon="12.0284385"><ele>563.0</ele><time>2026-04-19T08:26:21.084Z</time></trkpt><trkpt lat="42.6593912" lon="12.0281788"><ele>563.0</ele><time>2026-04-19T08:26:22.083Z</time></trkpt><trkpt lat="42.6593363" lon="12.0279057"><ele>563.0</ele><time>2026-04-19T08:26:23.098Z</time></trkpt><trkpt lat="42.6592772" lon="12.0276266"><ele>563.0</ele><time>2026-04-19T08:26:24.111Z</time></trkpt><trkpt lat="42.6592066" lon="12.0273495"><ele>564.0</ele><time>2026-04-19T08:26:25.09Z</time></trkpt><trkpt lat="42.6591365" lon="12.0270684"><ele>565.0</ele><time>2026-04-19T08:26:26.113Z</time></trkpt><trkpt lat="42.659072" lon="12.0268077"><ele>566.0</ele><time>2026-04-19T08:26:27.103Z</time></trkpt><trkpt lat="42.6589994" lon="12.0265607"><ele>567.0</ele><time>2026-04-19T08:26:28.095Z</time></trkpt><trkpt lat="42.6589029" lon="12.0263232"><ele>568.0</ele><time>2026-04-19T08:26:29.089Z</time></trkpt><trkpt lat="42.6587879" lon="12.0260921"><ele>569.0</ele><time>2026-04-19T08:26:30.096Z</time></trkpt><trkpt lat="42.6586723" lon="12.0258535"><ele>570.0</ele><time>2026-04-19T08:26:31.1Z</time></trkpt><trkpt lat="42.6585696" lon="12.0256029"><ele>571.0</ele><time>2026-04-19T08:26:32.106Z</time></trkpt><trkpt lat="42.658484" lon="12.0253605"><ele>572.0</ele><time>2026-04-19T08:26:33.105Z</time></trkpt><trkpt lat="42.6584216" lon="12.0251427"><ele>572.3333333333333</ele><time>2026-04-19T08:26:34.095Z</time></trkpt><trkpt lat="42.658371" lon="12.0249221"><ele>572.6666666666666</ele><time>2026-04-19T08:26:35.095Z</time></trkpt><trkpt lat="42.6583699" lon="12.0247153"><ele>573.0</ele><time>2026-04-19T08:26:36.106Z</time></trkpt><trkpt lat="42.6583837" lon="12.0244947"><ele>573.0</ele><time>2026-04-19T08:26:37.103Z</time></trkpt><trkpt lat="42.6584767" lon="12.0243117"><ele>573.0</ele><time>2026-04-19T08:26:38.111Z</time></trkpt><trkpt lat="42.6585693" lon="12.0241348"><ele>573.0</ele><time>2026-04-19T08:26:39.084Z</time></trkpt><trkpt lat="42.6586367" lon="12.0239527"><ele>576.0</ele><time>2026-04-19T08:26:40.098Z</time></trkpt><trkpt lat="42.6586645" lon="12.023747"><ele>579.0</ele><time>2026-04-19T08:26:41.11Z</time></trkpt><trkpt lat="42.6586611" lon="12.023516"><ele>582.0</ele><time>2026-04-19T08:26:42.103Z</time></trkpt><trkpt lat="42.6586337" lon="12.0232735"><ele>580.6666666666666</ele><time>2026-04-19T08:26:43.103Z</time></trkpt><trkpt lat="42.6585879" lon="12.0230307"><ele>579.3333333333333</ele><time>2026-04-19T08:26:44.103Z</time></trkpt><trkpt lat="42.6585187" lon="12.0228033"><ele>578.0</ele><time>2026-04-19T08:26:45.12Z</time></trkpt><trkpt lat="42.6584171" lon="12.0226004"><ele>579.6666666666666</ele><time>2026-04-19T08:26:46.125Z</time></trkpt><trkpt lat="42.6582821" lon="12.0224582"><ele>581.3333333333334</ele><time>2026-04-19T08:26:47.096Z</time></trkpt><trkpt lat="42.6581309" lon="12.0223647"><ele>583.0</ele><time>2026-04-19T08:26:48.108Z</time></trkpt><trkpt lat="42.6579773" lon="12.0222814"><ele>583.0</ele><time>2026-04-19T08:26:49.088Z</time></trkpt><trkpt lat="42.6578396" lon="12.0221452"><ele>583.0</ele><time>2026-04-19T08:26:50.109Z</time></trkpt><trkpt lat="42.6577173" lon="12.02196"><ele>583.0</ele><time>2026-04-19T08:26:51.123Z</time></trkpt><trkpt lat="42.6576132" lon="12.0217507"><ele>582.0</ele><time>2026-04-19T08:26:52.109Z</time></trkpt><trkpt lat="42.6575231" lon="12.0215343"><ele>581.0</ele><time>2026-04-19T08:26:53.09Z</time></trkpt><trkpt lat="42.6574531" lon="12.0213381"><ele>580.0</ele><time>2026-04-19T08:26:54.092Z</time></trkpt><trkpt lat="42.6574169" lon="12.0211615"><ele>580.0</ele><time>2026-04-19T08:26:55.116Z</time></trkpt><trkpt lat="42.6574189" lon="12.0209927"><ele>580.0</ele><time>2026-04-19T08:26:56.091Z</time></trkpt><trkpt lat="42.6574414" lon="12.0208187"><ele>580.0</ele><time>2026-04-19T08:26:57.101Z</time></trkpt><trkpt lat="42.6574504" lon="12.020624"><ele>580.0</ele><time>2026-04-19T08:26:58.101Z</time></trkpt><trkpt lat="42.6574296" lon="12.0204049"><ele>579.6666666666667</ele><time>2026-04-19T08:26:59.108Z</time></trkpt><trkpt lat="42.6573829" lon="12.0201692"><ele>579.3333333333334</ele><time>2026-04-19T08:27:00.093Z</time></trkpt><trkpt lat="42.6573044" lon="12.019947"><ele>579.0</ele><time>2026-04-19T08:27:01.106Z</time></trkpt><trkpt lat="42.6571822" lon="12.0197559"><ele>577.3333333333334</ele><time>2026-04-19T08:27:02.096Z</time></trkpt><trkpt lat="42.6570305" lon="12.0195977"><ele>575.6666666666667</ele><time>2026-04-19T08:27:03.096Z</time></trkpt><trkpt lat="42.6568795" lon="12.0194532"><ele>574.0</ele><time>2026-04-19T08:27:04.106Z</time></trkpt><trkpt lat="42.6567422" lon="12.0192778"><ele>574.6666666666667</ele><time>2026-04-19T08:27:05.11Z</time></trkpt><trkpt lat="42.6566279" lon="12.0190723"><ele>575.3333333333334</ele><time>2026-04-19T08:27:06.1Z</time></trkpt><trkpt lat="42.6565214" lon="12.0188653"><ele>576.0</ele><time>2026-04-19T08:27:07.087Z</time></trkpt><trkpt lat="42.6563946" lon="12.0186921"><ele>576.0</ele><time>2026-04-19T08:27:08.079Z</time></trkpt><trkpt lat="42.656236" lon="12.0185752"><ele>576.0</ele><time>2026-04-19T08:27:09.098Z</time></trkpt><trkpt lat="42.6560628" lon="12.0184995"><ele>576.0</ele><time>2026-04-19T08:27:10.085Z</time></trkpt><trkpt lat="42.6558859" lon="12.0184382"><ele>575.6666666666666</ele><time>2026-04-19T08:27:11.095Z</time></trkpt><trkpt lat="42.655713" lon="12.0183583"><ele>575.3333333333333</ele><time>2026-04-19T08:27:12.102Z</time></trkpt><trkpt lat="42.655541" lon="12.0182728"><ele>575.0</ele><time>2026-04-19T08:27:13.103Z</time></trkpt><trkpt lat="42.6553647" lon="12.0181728"><ele>572.0</ele><time>2026-04-19T08:27:14.096Z</time></trkpt><trkpt lat="42.6551689" lon="12.0180955"><ele>569.0</ele><time>2026-04-19T08:27:15.093Z</time></trkpt><trkpt lat="42.6549546" lon="12.0180292"><ele>566.0</ele><time>2026-04-19T08:27:16.086Z</time></trkpt><trkpt lat="42.6547274" lon="12.0179722"><ele>566.0</ele><time>2026-04-19T08:27:17.094Z</time></trkpt><trkpt lat="42.6544973" lon="12.017922"><ele>566.0</ele><time>2026-04-19T08:27:18.097Z</time></trkpt><trkpt lat="42.6542712" lon="12.0178875"><ele>563.5</ele><time>2026-04-19T08:27:19.109Z</time></trkpt><trkpt lat="42.654038" lon="12.0178964"><ele>561.0</ele><time>2026-04-19T08:27:20.077Z</time></trkpt><trkpt lat="42.6537996" lon="12.0179463"><ele>559.0</ele><time>2026-04-19T08:27:21.08Z</time></trkpt><trkpt lat="42.6535629" lon="12.0180035"><ele>557.0</ele><time>2026-04-19T08:27:22.095Z</time></trkpt><trkpt lat="42.6533314" lon="12.0180493"><ele>557.0</ele><time>2026-04-19T08:27:23.09Z</time></trkpt><trkpt lat="42.6531097" lon="12.0180609"><ele>557.0</ele><time>2026-04-19T08:27:24.081Z</time></trkpt><trkpt lat="42.652886" lon="12.0180473"><ele>557.0</ele><time>2026-04-19T08:27:25.081Z</time></trkpt><trkpt lat="42.6526601" lon="12.0179415"><ele>555.5</ele><time>2026-04-19T08:27:26.08Z</time></trkpt><trkpt lat="42.6524435" lon="12.0178172"><ele>554.0</ele><time>2026-04-19T08:27:27.077Z</time></trkpt><trkpt lat="42.6522237" lon="12.0176905"><ele>554.0</ele><time>2026-04-19T08:27:28.077Z</time></trkpt><trkpt lat="42.6520133" lon="12.0175684"><ele>554.0</ele><time>2026-04-19T08:27:29.096Z</time></trkpt><trkpt lat="42.6518106" lon="12.0174485"><ele>552.6666666666666</ele><time>2026-04-19T08:27:30.081Z</time></trkpt><trkpt lat="42.6516072" lon="12.0173213"><ele>551.3333333333334</ele><time>2026-04-19T08:27:31.092Z</time></trkpt><trkpt lat="42.6514028" lon="12.0171922"><ele>550.0</ele><time>2026-04-19T08:27:32.101Z</time></trkpt><trkpt lat="42.65121" lon="12.0170638"><ele>549.0</ele><time>2026-04-19T08:27:33.105Z</time></trkpt><trkpt lat="42.6510265" lon="12.0169283"><ele>548.0</ele><time>2026-04-19T08:27:34.09Z</time></trkpt><trkpt lat="42.6508544" lon="12.0167859"><ele>547.0</ele><time>2026-04-19T08:27:35.086Z</time></trkpt><trkpt lat="42.6506991" lon="12.0166305"><ele>546.6666666666667</ele><time>2026-04-19T08:27:36.095Z</time></trkpt><trkpt lat="42.6505681" lon="12.0164466"><ele>546.3333333333334</ele><time>2026-04-19T08:27:37.079Z</time></trkpt><trkpt lat="42.6504689" lon="12.0162182"><ele>546.0</ele><time>2026-04-19T08:27:38.134Z</time></trkpt><trkpt lat="42.6503961" lon="12.0159582"><ele>545.6666666666666</ele><time>2026-04-19T08:27:39.077Z</time></trkpt><trkpt lat="42.6503298" lon="12.0157043"><ele>545.3333333333333</ele><time>2026-04-19T08:27:40.083Z</time></trkpt><trkpt lat="42.6502679" lon="12.0154775"><ele>545.0</ele><time>2026-04-19T08:27:41.11Z</time></trkpt><trkpt lat="42.6502133" lon="12.0152864"><ele>544.25</ele><time>2026-04-19T08:27:42.093Z</time></trkpt><trkpt lat="42.6501818" lon="12.0151193"><ele>543.5</ele><time>2026-04-19T08:27:43.084Z</time></trkpt><trkpt lat="42.6501841" lon="12.014958"><ele>542.75</ele><time>2026-04-19T08:27:44.112Z</time></trkpt><trkpt lat="42.6502174" lon="12.0148166"><ele>542.0</ele><time>2026-04-19T08:27:45.08Z</time></trkpt><trkpt lat="42.6502647" lon="12.0146884"><ele>542.75</ele><time>2026-04-19T08:27:46.077Z</time></trkpt><trkpt lat="42.6503096" lon="12.0145648"><ele>543.5</ele><time>2026-04-19T08:27:47.087Z</time></trkpt><trkpt lat="42.6503521" lon="12.0144122"><ele>544.25</ele><time>2026-04-19T08:27:48.087Z</time></trkpt><trkpt lat="42.6503786" lon="12.0142353"><ele>545.0</ele><time>2026-04-19T08:27:49.096Z</time></trkpt><trkpt lat="42.6503767" lon="12.0140345"><ele>546.6666666666666</ele><time>2026-04-19T08:27:50.108Z</time></trkpt><trkpt lat="42.6503499" lon="12.0138185"><ele>548.3333333333334</ele><time>2026-04-19T08:27:51.089Z</time></trkpt><trkpt lat="42.6503098" lon="12.0135838"><ele>550.0</ele><time>2026-04-19T08:27:52.102Z</time></trkpt><trkpt lat="42.6502605" lon="12.0133476"><ele>543.6666666666667</ele><time>2026-04-19T08:27:53.084Z</time></trkpt><trkpt lat="42.6502137" lon="12.0131101"><ele>537.3333333333334</ele><time>2026-04-19T08:27:54.096Z</time></trkpt><trkpt lat="42.6501623" lon="12.0128854"><ele>531.0</ele><time>2026-04-19T08:27:55.077Z</time></trkpt><trkpt lat="42.6500808" lon="12.0126946"><ele>531.0</ele><time>2026-04-19T08:27:56.087Z</time></trkpt><trkpt lat="42.6499562" lon="12.0125684"><ele>531.0</ele><time>2026-04-19T08:27:57.082Z</time></trkpt><trkpt lat="42.649821" lon="12.0124556"><ele>531.0</ele><time>2026-04-19T08:27:58.077Z</time></trkpt><trkpt lat="42.6496408" lon="12.0123945"><ele>526.3333333333334</ele><time>2026-04-19T08:27:59.086Z</time></trkpt><trkpt lat="42.649431" lon="12.0123457"><ele>521.6666666666667</ele><time>2026-04-19T08:28:00.085Z</time></trkpt><trkpt lat="42.6492067" lon="12.0122889"><ele>517.0</ele><time>2026-04-19T08:28:01.077Z</time></trkpt><trkpt lat="42.6489823" lon="12.0122382"><ele>517.0</ele><time>2026-04-19T08:28:02.08Z</time></trkpt><trkpt lat="42.6487816" lon="12.0121891"><ele>517.0</ele><time>2026-04-19T08:28:03.074Z</time></trkpt><trkpt lat="42.6486073" lon="12.0121518"><ele>517.0</ele><time>2026-04-19T08:28:04.072Z</time></trkpt><trkpt lat="42.6484526" lon="12.012123"><ele>516.25</ele><time>2026-04-19T08:28:05.072Z</time></trkpt><trkpt lat="42.6483064" lon="12.012115"><ele>515.5</ele><time>2026-04-19T08:28:06.087Z</time></trkpt><trkpt lat="42.6481649" lon="12.0121273"><ele>514.75</ele><time>2026-04-19T08:28:07.084Z</time></trkpt><trkpt lat="42.6480508" lon="12.0122272"><ele>514.0</ele><time>2026-04-19T08:28:08.074Z</time></trkpt><trkpt lat="42.647963" lon="12.0123732"><ele>514.0</ele><time>2026-04-19T08:28:09.096Z</time></trkpt><trkpt lat="42.6478999" lon="12.0125506"><ele>514.0</ele><time>2026-04-19T08:28:10.078Z</time></trkpt><trkpt lat="42.6478504" lon="12.0127153"><ele>514.0</ele><time>2026-04-19T08:28:11.084Z</time></trkpt><trkpt lat="42.6477882" lon="12.0128478"><ele>514.0</ele><time>2026-04-19T08:28:12.085Z</time></trkpt><trkpt lat="42.6477053" lon="12.012947"><ele>514.0</ele><time>2026-04-19T08:28:13.089Z</time></trkpt><trkpt lat="42.647611" lon="12.0130095"><ele>514.0</ele><time>2026-04-19T08:28:14.088Z</time></trkpt><trkpt lat="42.6475354" lon="12.0130681"><ele>514.0</ele><time>2026-04-19T08:28:15.094Z</time></trkpt><trkpt lat="42.6474197" lon="12.0130474"><ele>514.0</ele><time>2026-04-19T08:28:16.094Z</time></trkpt><trkpt lat="42.6473146" lon="12.0129669"><ele>514.0</ele><time>2026-04-19T08:28:17.094Z</time></trkpt><trkpt lat="42.6472076" lon="12.0128763"><ele>514.0</ele><time>2026-04-19T08:28:18.088Z</time></trkpt><trkpt lat="42.6471215" lon="12.0127455"><ele>514.0</ele><time>2026-04-19T08:28:19.11Z</time></trkpt><trkpt lat="42.647045" lon="12.0126044"><ele>514.0</ele><time>2026-04-19T08:28:20.098Z</time></trkpt><trkpt lat="42.6469768" lon="12.0124694"><ele>514.0</ele><time>2026-04-19T08:28:21.092Z</time></trkpt><trkpt lat="42.6469055" lon="12.0123417"><ele>512.0</ele><time>2026-04-19T08:28:22.098Z</time></trkpt><trkpt lat="42.6468333" lon="12.0122179"><ele>510.0</ele><time>2026-04-19T08:28:23.111Z</time></trkpt><trkpt lat="42.6467587" lon="12.0120842"><ele>508.0</ele><time>2026-04-19T08:28:24.086Z</time></trkpt><trkpt lat="42.6466798" lon="12.0119383"><ele>506.0</ele><time>2026-04-19T08:28:25.101Z</time></trkpt><trkpt lat="42.6465978" lon="12.0117789"><ele>508.0</ele><time>2026-04-19T08:28:26.08Z</time></trkpt><trkpt lat="42.6465055" lon="12.0116188"><ele>510.0</ele><time>2026-04-19T08:28:27.086Z</time></trkpt><trkpt lat="42.6463821" lon="12.0114625"><ele>512.0</ele><time>2026-04-19T08:28:28.088Z</time></trkpt><trkpt lat="42.6462261" lon="12.011346"><ele>511.66666666666663</ele><time>2026-04-19T08:28:29.085Z</time></trkpt><trkpt lat="42.6460453" lon="12.0112794"><ele>511.33333333333337</ele><time>2026-04-19T08:28:30.086Z</time></trkpt><trkpt lat="42.6458615" lon="12.0112533"><ele>511.0</ele><time>2026-04-19T08:28:31.079Z</time></trkpt><trkpt lat="42.6456863" lon="12.0112458"><ele>511.0</ele><time>2026-04-19T08:28:32.092Z</time></trkpt><trkpt lat="42.6455275" lon="12.0112405"><ele>511.0</ele><time>2026-04-19T08:28:33.079Z</time></trkpt><trkpt lat="42.6453855" lon="12.0112228"><ele>511.0</ele><time>2026-04-19T08:28:34.075Z</time></trkpt><trkpt lat="42.6452532" lon="12.0111891"><ele>511.0</ele><time>2026-04-19T08:28:35.103Z</time></trkpt><trkpt lat="42.6451363" lon="12.0111179"><ele>510.0</ele><time>2026-04-19T08:28:36.073Z</time></trkpt><trkpt lat="42.6450286" lon="12.0110104"><ele>509.0</ele><time>2026-04-19T08:28:37.068Z</time></trkpt><trkpt lat="42.6449262" lon="12.0108985"><ele>508.0</ele><time>2026-04-19T08:28:38.08Z</time></trkpt><trkpt lat="42.6448335" lon="12.0107905"><ele>507.0</ele><time>2026-04-19T08:28:39.094Z</time></trkpt><trkpt lat="42.6447431" lon="12.0106758"><ele>507.0</ele><time>2026-04-19T08:28:40.08Z</time></trkpt><trkpt lat="42.6446522" lon="12.0105571"><ele>507.0</ele><time>2026-04-19T08:28:41.096Z</time></trkpt><trkpt lat="42.644559" lon="12.0104313"><ele>507.0</ele><time>2026-04-19T08:28:42.093Z</time></trkpt><trkpt lat="42.644473" lon="12.0103103"><ele>507.0</ele><time>2026-04-19T08:28:43.1Z</time></trkpt><trkpt lat="42.6443971" lon="12.0101839"><ele>503.5</ele><time>2026-04-19T08:28:44.102Z</time></trkpt><trkpt lat="42.6443317" lon="12.0100472"><ele>500.0</ele><time>2026-04-19T08:28:45.093Z</time></trkpt><trkpt lat="42.6442777" lon="12.0098993"><ele>496.5</ele><time>2026-04-19T08:28:46.092Z</time></trkpt><trkpt lat="42.6442409" lon="12.0097418"><ele>493.0</ele><time>2026-04-19T08:28:47.094Z</time></trkpt><trkpt lat="42.6442198" lon="12.0095746"><ele>492.5</ele><time>2026-04-19T08:28:48.103Z</time></trkpt><trkpt lat="42.644213" lon="12.0093966"><ele>492.0</ele><time>2026-04-19T08:28:49.091Z</time></trkpt><trkpt lat="42.6442188" lon="12.0092038"><ele>491.5</ele><time>2026-04-19T08:28:50.085Z</time></trkpt><trkpt lat="42.644237" lon="12.0089687"><ele>491.0</ele><time>2026-04-19T08:28:51.105Z</time></trkpt><trkpt lat="42.6442673" lon="12.008699"><ele>489.3333333333333</ele><time>2026-04-19T08:28:52.104Z</time></trkpt><trkpt lat="42.6443125" lon="12.0084069"><ele>487.66666666666663</ele><time>2026-04-19T08:28:53.103Z</time></trkpt><trkpt lat="42.6443608" lon="12.0081044"><ele>486.0</ele><time>2026-04-19T08:28:54.101Z</time></trkpt><trkpt lat="42.6444146" lon="12.0077855"><ele>487.0</ele><time>2026-04-19T08:28:55.108Z</time></trkpt><trkpt lat="42.644462" lon="12.0074819"><ele>488.0</ele><time>2026-04-19T08:28:56.093Z</time></trkpt><trkpt lat="42.6445022" lon="12.0071897"><ele>489.0</ele><time>2026-04-19T08:28:57.098Z</time></trkpt><trkpt lat="42.6445389" lon="12.0069057"><ele>486.33333333333337</ele><time>2026-04-19T08:28:58.095Z</time></trkpt><trkpt lat="42.6445848" lon="12.0066368"><ele>483.6666666666667</ele><time>2026-04-19T08:28:59.095Z</time></trkpt><trkpt lat="42.6446539" lon="12.0063857"><ele>481.0</ele><time>2026-04-19T08:29:00.084Z</time></trkpt><trkpt lat="42.6447504" lon="12.0061657"><ele>481.0</ele><time>2026-04-19T08:29:01.08Z</time></trkpt><trkpt lat="42.6448658" lon="12.0059731"><ele>481.0</ele><time>2026-04-19T08:29:02.077Z</time></trkpt><trkpt lat="42.6449983" lon="12.0058123"><ele>481.0</ele><time>2026-04-19T08:29:03.087Z</time></trkpt><trkpt lat="42.6451509" lon="12.0056538"><ele>479.6666666666667</ele><time>2026-04-19T08:29:04.079Z</time></trkpt><trkpt lat="42.6453228" lon="12.0054778"><ele>478.33333333333337</ele><time>2026-04-19T08:29:05.089Z</time></trkpt><trkpt lat="42.6455039" lon="12.0053064"><ele>477.0</ele><time>2026-04-19T08:29:06.082Z</time></trkpt><trkpt lat="42.645702" lon="12.005129"><ele>480.33333333333337</ele><time>2026-04-19T08:29:07.073Z</time></trkpt><trkpt lat="42.6458967" lon="12.0049792"><ele>483.6666666666667</ele><time>2026-04-19T08:29:08.088Z</time></trkpt><trkpt lat="42.6460676" lon="12.004846"><ele>487.0</ele><time>2026-04-19T08:29:09.099Z</time></trkpt><trkpt lat="42.6462148" lon="12.0047349"><ele>487.0</ele><time>2026-04-19T08:29:10.094Z</time></trkpt><trkpt lat="42.6463481" lon="12.0046338"><ele>487.0</ele><time>2026-04-19T08:29:11.104Z</time></trkpt><trkpt lat="42.6464625" lon="12.0045352"><ele>487.0</ele><time>2026-04-19T08:29:12.099Z</time></trkpt><trkpt lat="42.646533" lon="12.0043694"><ele>487.0</ele><time>2026-04-19T08:29:13.101Z</time></trkpt><trkpt lat="42.6465735" lon="12.0041609"><ele>484.33333333333337</ele><time>2026-04-19T08:29:14.105Z</time></trkpt><trkpt lat="42.6465885" lon="12.0039297"><ele>481.66666666666663</ele><time>2026-04-19T08:29:15.092Z</time></trkpt><trkpt lat="42.6465929" lon="12.0036668"><ele>479.0</ele><time>2026-04-19T08:29:16.094Z</time></trkpt><trkpt lat="42.6465908" lon="12.0033942"><ele>476.66666666666663</ele><time>2026-04-19T08:29:17.075Z</time></trkpt><trkpt lat="42.6466011" lon="12.003101"><ele>474.33333333333337</ele><time>2026-04-19T08:29:18.103Z</time></trkpt><trkpt lat="42.6466304" lon="12.0028061"><ele>472.0</ele><time>2026-04-19T08:29:19.109Z</time></trkpt><trkpt lat="42.6466675" lon="12.0025225"><ele>467.5</ele><time>2026-04-19T08:29:20.083Z</time></trkpt><trkpt lat="42.6467257" lon="12.0022365"><ele>463.0</ele><time>2026-04-19T08:29:21.092Z</time></trkpt><trkpt lat="42.6468124" lon="12.0019431"><ele>461.0</ele><time>2026-04-19T08:29:22.078Z</time></trkpt><trkpt lat="42.6469209" lon="12.0016501"><ele>459.0</ele><time>2026-04-19T08:29:23.094Z</time></trkpt><trkpt lat="42.6470305" lon="12.0013758"><ele>463.66666666666663</ele><time>2026-04-19T08:29:24.105Z</time></trkpt><trkpt lat="42.6471268" lon="12.00114"><ele>468.3333333333333</ele><time>2026-04-19T08:29:25.095Z</time></trkpt><trkpt lat="42.6472054" lon="12.0009341"><ele>473.0</ele><time>2026-04-19T08:29:26.081Z</time></trkpt><trkpt lat="42.6472469" lon="12.0007313"><ele>473.0</ele><time>2026-04-19T08:29:27.1Z</time></trkpt><trkpt lat="42.6472311" lon="12.0005383"><ele>473.0</ele><time>2026-04-19T08:29:28.082Z</time></trkpt><trkpt lat="42.6471536" lon="12.0003727"><ele>473.0</ele><time>2026-04-19T08:29:29.1Z</time></trkpt><trkpt lat="42.6470229" lon="12.0002305"><ele>469.0</ele><time>2026-04-19T08:29:30.085Z</time></trkpt><trkpt lat="42.6468587" lon="12.000114"><ele>465.0</ele><time>2026-04-19T08:29:31.106Z</time></trkpt><trkpt lat="42.6466989" lon="12.0000009"><ele>461.0</ele><time>2026-04-19T08:29:32.085Z</time></trkpt><trkpt lat="42.6465726" lon="11.9998565"><ele>461.0</ele><time>2026-04-19T08:29:33.098Z</time></trkpt><trkpt lat="42.6464979" lon="11.99968"><ele>461.0</ele><time>2026-04-19T08:29:34.086Z</time></trkpt><trkpt lat="42.6464845" lon="11.999493"><ele>461.0</ele><time>2026-04-19T08:29:35.102Z</time></trkpt><trkpt lat="42.6465275" lon="11.999319"><ele>461.0</ele><time>2026-04-19T08:29:36.08Z</time></trkpt><trkpt lat="42.6466119" lon="11.9991756"><ele>460.66666666666663</ele><time>2026-04-19T08:29:37.103Z</time></trkpt><trkpt lat="42.6467238" lon="11.9990175"><ele>460.33333333333337</ele><time>2026-04-19T08:29:38.11Z</time></trkpt><trkpt lat="42.6468577" lon="11.9988391"><ele>460.0</ele><time>2026-04-19T08:29:39.097Z</time></trkpt><trkpt lat="42.6470054" lon="11.9986481"><ele>458.6666666666667</ele><time>2026-04-19T08:29:40.104Z</time></trkpt><trkpt lat="42.6471583" lon="11.9984504"><ele>457.33333333333337</ele><time>2026-04-19T08:29:41.088Z</time></trkpt><trkpt lat="42.6473139" lon="11.9982647"><ele>456.0</ele><time>2026-04-19T08:29:42.108Z</time></trkpt><trkpt lat="42.6474789" lon="11.9981124"><ele>456.0</ele><time>2026-04-19T08:29:43.097Z</time></trkpt><trkpt lat="42.6476534" lon="11.9980132"><ele>456.0</ele><time>2026-04-19T08:29:44.093Z</time></trkpt><trkpt lat="42.6478341" lon="11.9979914"><ele>456.0</ele><time>2026-04-19T08:29:45.118Z</time></trkpt><trkpt lat="42.6480214" lon="11.9980378"><ele>456.33333333333337</ele><time>2026-04-19T08:29:46.106Z</time></trkpt><trkpt lat="42.6482269" lon="11.9981135"><ele>456.6666666666667</ele><time>2026-04-19T08:29:47.086Z</time></trkpt><trkpt lat="42.6484368" lon="11.9981898"><ele>457.0</ele><time>2026-04-19T08:29:48.092Z</time></trkpt><trkpt lat="42.6486235" lon="11.9982596"><ele>457.0</ele><time>2026-04-19T08:29:49.086Z</time></trkpt><trkpt lat="42.648785" lon="11.9982994"><ele>457.0</ele><time>2026-04-19T08:29:50.096Z</time></trkpt><trkpt lat="42.6489353" lon="11.9983259"><ele>457.0</ele><time>2026-04-19T08:29:51.093Z</time></trkpt><trkpt lat="42.6490671" lon="11.9982517"><ele>457.0</ele><time>2026-04-19T08:29:52.07Z</time></trkpt><trkpt lat="42.6491803" lon="11.9981176"><ele>457.0</ele><time>2026-04-19T08:29:53.098Z</time></trkpt><trkpt lat="42.6492469" lon="11.9979273"><ele>457.0</ele><time>2026-04-19T08:29:54.107Z</time></trkpt><trkpt lat="42.6492701" lon="11.9976881"><ele>453.33333333333337</ele><time>2026-04-19T08:29:55.102Z</time></trkpt><trkpt lat="42.6492815" lon="11.9974167"><ele>449.66666666666663</ele><time>2026-04-19T08:29:56.116Z</time></trkpt><trkpt lat="42.6492414" lon="11.9971248"><ele>446.0</ele><time>2026-04-19T08:29:57.084Z</time></trkpt><trkpt lat="42.6491664" lon="11.9968441"><ele>444.66666666666663</ele><time>2026-04-19T08:29:58.082Z</time></trkpt><trkpt lat="42.6490586" lon="11.9965892"><ele>443.33333333333337</ele><time>2026-04-19T08:29:59.104Z</time></trkpt><trkpt lat="42.6489489" lon="11.9963732"><ele>442.0</ele><time>2026-04-19T08:30:00.096Z</time></trkpt><trkpt lat="42.6488834" lon="11.9961523"><ele>442.0</ele><time>2026-04-19T08:30:01.095Z</time></trkpt><trkpt lat="42.6488699" lon="11.9959258"><ele>442.0</ele><time>2026-04-19T08:30:02.102Z</time></trkpt><trkpt lat="42.6488957" lon="11.995703"><ele>442.0</ele><time>2026-04-19T08:30:03.088Z</time></trkpt><trkpt lat="42.6489398" lon="11.9954647"><ele>441.33333333333337</ele><time>2026-04-19T08:30:04.089Z</time></trkpt><trkpt lat="42.6489934" lon="11.9952098"><ele>440.66666666666663</ele><time>2026-04-19T08:30:05.081Z</time></trkpt><trkpt lat="42.6490497" lon="11.9949383"><ele>440.0</ele><time>2026-04-19T08:30:06.109Z</time></trkpt><trkpt lat="42.6491079" lon="11.9946697"><ele>437.66666666666663</ele><time>2026-04-19T08:30:07.1Z</time></trkpt><trkpt lat="42.6491637" lon="11.9944156"><ele>435.33333333333337</ele><time>2026-04-19T08:30:08.097Z</time></trkpt><trkpt lat="42.6492175" lon="11.9941707"><ele>433.0</ele><time>2026-04-19T08:30:09.092Z</time></trkpt><trkpt lat="42.6492688" lon="11.9939295"><ele>431.6666666666667</ele><time>2026-04-19T08:30:10.07Z</time></trkpt><trkpt lat="42.6493163" lon="11.993692"><ele>430.33333333333337</ele><time>2026-04-19T08:30:11.101Z</time></trkpt><trkpt lat="42.649361" lon="11.993457"><ele>429.0</ele><time>2026-04-19T08:30:12.092Z</time></trkpt><trkpt lat="42.6494047" lon="11.9932409"><ele>429.75</ele><time>2026-04-19T08:30:13.096Z</time></trkpt><trkpt lat="42.6494682" lon="11.9930498"><ele>430.5</ele><time>2026-04-19T08:30:14.117Z</time></trkpt><trkpt lat="42.6495682" lon="11.9929094"><ele>431.25</ele><time>2026-04-19T08:30:15.094Z</time></trkpt><trkpt lat="42.6496939" lon="11.9928333"><ele>432.0</ele><time>2026-04-19T08:30:16.113Z</time></trkpt><trkpt lat="42.6498358" lon="11.9928172"><ele>432.0</ele><time>2026-04-19T08:30:17.105Z</time></trkpt><trkpt lat="42.650001" lon="11.9928194"><ele>432.0</ele><time>2026-04-19T08:30:18.088Z</time></trkpt><trkpt lat="42.6501716" lon="11.9928269"><ele>432.0</ele><time>2026-04-19T08:30:19.107Z</time></trkpt><trkpt lat="42.6503352" lon="11.9928326"><ele>433.25</ele><time>2026-04-19T08:30:20.077Z</time></trkpt><trkpt lat="42.6504863" lon="11.9928074"><ele>434.5</ele><time>2026-04-19T08:30:21.09Z</time></trkpt><trkpt lat="42.6506119" lon="11.9927198"><ele>435.75</ele><time>2026-04-19T08:30:22.071Z</time></trkpt><trkpt lat="42.6506929" lon="11.9925822"><ele>437.0</ele><time>2026-04-19T08:30:23.072Z</time></trkpt><trkpt lat="42.6507201" lon="11.9924197"><ele>434.25</ele><time>2026-04-19T08:30:24.071Z</time></trkpt><trkpt lat="42.6506875" lon="11.99225"><ele>431.5</ele><time>2026-04-19T08:30:25.071Z</time></trkpt><trkpt lat="42.6506087" lon="11.9921127"><ele>428.75</ele><time>2026-04-19T08:30:26.092Z</time></trkpt><trkpt lat="42.65053" lon="11.9920016"><ele>426.0</ele><time>2026-04-19T08:30:27.109Z</time></trkpt><trkpt lat="42.6503747" lon="11.9920114"><ele>424.0</ele><time>2026-04-19T08:30:28.097Z</time></trkpt><trkpt lat="42.6502027" lon="11.9920381"><ele>422.0</ele><time>2026-04-19T08:30:29.098Z</time></trkpt><trkpt lat="42.6500375" lon="11.9920555"><ele>420.0</ele><time>2026-04-19T08:30:30.081Z</time></trkpt><trkpt lat="42.6498707" lon="11.9919404"><ele>420.0</ele><time>2026-04-19T08:30:31.075Z</time></trkpt><trkpt lat="42.6496906" lon="11.9917893"><ele>420.0</ele><time>2026-04-19T08:30:32.086Z</time></trkpt><trkpt lat="42.6495271" lon="11.9916151"><ele>420.0</ele><time>2026-04-19T08:30:33.094Z</time></trkpt><trkpt lat="42.6493915" lon="11.9914252"><ele>415.33333333333337</ele><time>2026-04-19T08:30:34.08Z</time></trkpt><trkpt lat="42.6492608" lon="11.9912204"><ele>410.6666666666667</ele><time>2026-04-19T08:30:35.084Z</time></trkpt><trkpt lat="42.6491757" lon="11.990983"><ele>406.0</ele><time>2026-04-19T08:30:36.084Z</time></trkpt><trkpt lat="42.6490629" lon="11.9907858"><ele>406.0</ele><time>2026-04-19T08:30:37.076Z</time></trkpt><trkpt lat="42.6489594" lon="11.9906311"><ele>406.0</ele><time>2026-04-19T08:30:38.093Z</time></trkpt><trkpt lat="42.6488895" lon="11.9904764"><ele>406.0</ele><time>2026-04-19T08:30:39.094Z</time></trkpt><trkpt lat="42.6488766" lon="11.9903096"><ele>406.0</ele><time>2026-04-19T08:30:40.112Z</time></trkpt><trkpt lat="42.6489221" lon="11.9901241"><ele>406.6666666666667</ele><time>2026-04-19T08:30:41.086Z</time></trkpt><trkpt lat="42.6489884" lon="11.9899164"><ele>407.33333333333337</ele><time>2026-04-19T08:30:42.103Z</time></trkpt><trkpt lat="42.6490796" lon="11.9896916"><ele>408.0</ele><time>2026-04-19T08:30:43.111Z</time></trkpt><trkpt lat="42.649199" lon="11.9894673"><ele>408.0</ele><time>2026-04-19T08:30:44.101Z</time></trkpt><trkpt lat="42.6493278" lon="11.9892429"><ele>408.0</ele><time>2026-04-19T08:30:45.104Z</time></trkpt><trkpt lat="42.6494975" lon="11.989029"><ele>408.0</ele><time>2026-04-19T08:30:46.105Z</time></trkpt><trkpt lat="42.649661" lon="11.9888178"><ele>407.66666666666663</ele><time>2026-04-19T08:30:47.09Z</time></trkpt><trkpt lat="42.6498175" lon="11.9886137"><ele>407.3333333333333</ele><time>2026-04-19T08:30:48.118Z</time></trkpt><trkpt lat="42.6499669" lon="11.9884143"><ele>407.0</ele><time>2026-04-19T08:30:49.103Z</time></trkpt><trkpt lat="42.6501086" lon="11.9882202"><ele>408.0</ele><time>2026-04-19T08:30:50.102Z</time></trkpt><trkpt lat="42.6502269" lon="11.9880403"><ele>409.0</ele><time>2026-04-19T08:30:51.096Z</time></trkpt><trkpt lat="42.6503096" lon="11.987853"><ele>410.0</ele><time>2026-04-19T08:30:52.097Z</time></trkpt><trkpt lat="42.6503429" lon="11.9876455"><ele>408.66666666666663</ele><time>2026-04-19T08:30:53.086Z</time></trkpt><trkpt lat="42.6503679" lon="11.9874303"><ele>407.33333333333337</ele><time>2026-04-19T08:30:54.094Z</time></trkpt><trkpt lat="42.6502982" lon="11.9872166"><ele>406.0</ele><time>2026-04-19T08:30:55.091Z</time></trkpt><trkpt lat="42.6502237" lon="11.9869945"><ele>401.0</ele><time>2026-04-19T08:30:56.081Z</time></trkpt><trkpt lat="42.6501588" lon="11.9867579"><ele>396.0</ele><time>2026-04-19T08:30:57.079Z</time></trkpt><trkpt lat="42.6500971" lon="11.9865435"><ele>391.0</ele><time>2026-04-19T08:30:58.102Z</time></trkpt><trkpt lat="42.6500435" lon="11.9863515"><ele>390.6666666666667</ele><time>2026-04-19T08:30:59.091Z</time></trkpt><trkpt lat="42.6500852" lon="11.9861582"><ele>390.33333333333337</ele><time>2026-04-19T08:31:00.079Z</time></trkpt><trkpt lat="42.6501767" lon="11.9859788"><ele>390.0</ele><time>2026-04-19T08:31:01.081Z</time></trkpt><trkpt lat="42.6502963" lon="11.9857984"><ele>390.66666666666663</ele><time>2026-04-19T08:31:02.106Z</time></trkpt><trkpt lat="42.6504331" lon="11.9856"><ele>391.3333333333333</ele><time>2026-04-19T08:31:03.106Z</time></trkpt><trkpt lat="42.6505779" lon="11.9854016"><ele>392.0</ele><time>2026-04-19T08:31:04.113Z</time></trkpt><trkpt lat="42.6507112" lon="11.9852208"><ele>392.0</ele><time>2026-04-19T08:31:05.097Z</time></trkpt><trkpt lat="42.6508349" lon="11.985056"><ele>392.0</ele><time>2026-04-19T08:31:06.091Z</time></trkpt><trkpt lat="42.650947" lon="11.9849017"><ele>392.0</ele><time>2026-04-19T08:31:07.113Z</time></trkpt><trkpt lat="42.6510174" lon="11.9847281"><ele>390.25</ele><time>2026-04-19T08:31:08.114Z</time></trkpt><trkpt lat="42.651006" lon="11.9845462"><ele>388.5</ele><time>2026-04-19T08:31:09.095Z</time></trkpt><trkpt lat="42.6509798" lon="11.9843723"><ele>386.75</ele><time>2026-04-19T08:31:10.093Z</time></trkpt><trkpt lat="42.6508722" lon="11.9843055"><ele>385.0</ele><time>2026-04-19T08:31:11.081Z</time></trkpt><trkpt lat="42.6507416" lon="11.9842962"><ele>385.0</ele><time>2026-04-19T08:31:12.095Z</time></trkpt><trkpt lat="42.650601" lon="11.9843394"><ele>385.0</ele><time>2026-04-19T08:31:13.074Z</time></trkpt><trkpt lat="42.6504773" lon="11.9844863"><ele>385.0</ele><time>2026-04-19T08:31:14.082Z</time></trkpt><trkpt lat="42.6503428" lon="11.9846646"><ele>385.0</ele><time>2026-04-19T08:31:15.099Z</time></trkpt><trkpt lat="42.650196" lon="11.9848383"><ele>385.0</ele><time>2026-04-19T08:31:16.093Z</time></trkpt><trkpt lat="42.6500415" lon="11.985022"><ele>385.0</ele><time>2026-04-19T08:31:17.088Z</time></trkpt><trkpt lat="42.6498981" lon="11.9851846"><ele>385.0</ele><time>2026-04-19T08:31:18.099Z</time></trkpt><trkpt lat="42.6497683" lon="11.98534"><ele>385.0</ele><time>2026-04-19T08:31:19.098Z</time></trkpt><trkpt lat="42.6496429" lon="11.9854764"><ele>385.0</ele><time>2026-04-19T08:31:20.11Z</time></trkpt><trkpt lat="42.6495111" lon="11.9856069"><ele>382.33333333333337</ele><time>2026-04-19T08:31:21.111Z</time></trkpt><trkpt lat="42.6493774" lon="11.9857396"><ele>379.6666666666667</ele><time>2026-04-19T08:31:22.083Z</time></trkpt><trkpt lat="42.6492386" lon="11.9858689"><ele>377.0</ele><time>2026-04-19T08:31:23.102Z</time></trkpt><trkpt lat="42.6490924" lon="11.9859952"><ele>377.0</ele><time>2026-04-19T08:31:24.082Z</time></trkpt><trkpt lat="42.6489584" lon="11.9861057"><ele>377.0</ele><time>2026-04-19T08:31:25.082Z</time></trkpt><trkpt lat="42.648821" lon="11.9862249"><ele>377.0</ele><time>2026-04-19T08:31:26.108Z</time></trkpt><trkpt lat="42.6486979" lon="11.9863389"><ele>375.5</ele><time>2026-04-19T08:31:27.104Z</time></trkpt><trkpt lat="42.6485816" lon="11.9864425"><ele>374.0</ele><time>2026-04-19T08:31:28.098Z</time></trkpt><trkpt lat="42.648473" lon="11.9865332"><ele>372.5</ele><time>2026-04-19T08:31:29.113Z</time></trkpt><trkpt lat="42.6483715" lon="11.9866248"><ele>371.0</ele><time>2026-04-19T08:31:30.097Z</time></trkpt><trkpt lat="42.6482785" lon="11.9866999"><ele>371.0</ele><time>2026-04-19T08:31:31.109Z</time></trkpt><trkpt lat="42.6481822" lon="11.9867773"><ele>371.0</ele><time>2026-04-19T08:31:32.102Z</time></trkpt><trkpt lat="42.6480746" lon="11.9868406"><ele>371.0</ele><time>2026-04-19T08:31:33.09Z</time></trkpt><trkpt lat="42.647969" lon="11.9868409"><ele>371.0</ele><time>2026-04-19T08:31:34.097Z</time></trkpt><trkpt lat="42.6478792" lon="11.9867574"><ele>371.0</ele><time>2026-04-19T08:31:35.101Z</time></trkpt><trkpt lat="42.6477743" lon="11.9866506"><ele>370.0</ele><time>2026-04-19T08:31:36.097Z</time></trkpt><trkpt lat="42.6476824" lon="11.9865461"><ele>369.0</ele><time>2026-04-19T08:31:37.099Z</time></trkpt><trkpt lat="42.6475968" lon="11.9864457"><ele>368.0</ele><time>2026-04-19T08:31:38.097Z</time></trkpt><trkpt lat="42.6475154" lon="11.9863398"><ele>367.0</ele><time>2026-04-19T08:31:39.119Z</time></trkpt><trkpt lat="42.6474415" lon="11.9862429"><ele>366.0</ele><time>2026-04-19T08:31:40.114Z</time></trkpt><trkpt lat="42.6473654" lon="11.986146"><ele>366.0</ele><time>2026-04-19T08:31:41.1Z</time></trkpt><trkpt lat="42.6472906" lon="11.986057"><ele>366.0</ele><time>2026-04-19T08:31:42.089Z</time></trkpt><trkpt lat="42.6472128" lon="11.9859762"><ele>366.0</ele><time>2026-04-19T08:31:43.083Z</time></trkpt><trkpt lat="42.6471294" lon="11.9859077"><ele>366.0</ele><time>2026-04-19T08:31:44.116Z</time></trkpt><trkpt lat="42.6470393" lon="11.9858469"><ele>366.0</ele><time>2026-04-19T08:31:45.099Z</time></trkpt><trkpt lat="42.6469476" lon="11.9858015"><ele>364.5</ele><time>2026-04-19T08:31:46.105Z</time></trkpt><trkpt lat="42.6468589" lon="11.985762"><ele>363.0</ele><time>2026-04-19T08:31:47.105Z</time></trkpt><trkpt lat="42.6467689" lon="11.9857324"><ele>361.5</ele><time>2026-04-19T08:31:48.091Z</time></trkpt><trkpt lat="42.646695" lon="11.9857087"><ele>360.0</ele><time>2026-04-19T08:31:49.099Z</time></trkpt><trkpt lat="42.6466117" lon="11.9856754"><ele>358.5</ele><time>2026-04-19T08:31:50.101Z</time></trkpt><trkpt lat="42.6465199" lon="11.9856792"><ele>357.0</ele><time>2026-04-19T08:31:51.095Z</time></trkpt><trkpt lat="42.6464409" lon="11.9857203"><ele>357.0</ele><time>2026-04-19T08:31:52.093Z</time></trkpt><trkpt lat="42.6463791" lon="11.9857957"><ele>357.0</ele><time>2026-04-19T08:31:53.096Z</time></trkpt><trkpt lat="42.6463267" lon="11.9858933"><ele>357.0</ele><time>2026-04-19T08:31:54.117Z</time></trkpt><trkpt lat="42.6462991" lon="11.986015"><ele>357.0</ele><time>2026-04-19T08:31:55.086Z</time></trkpt><trkpt lat="42.6462836" lon="11.9861501"><ele>357.0</ele><time>2026-04-19T08:31:56.077Z</time></trkpt><trkpt lat="42.6462619" lon="11.9862894"><ele>357.8</ele><time>2026-04-19T08:31:57.092Z</time></trkpt><trkpt lat="42.6462339" lon="11.986417"><ele>358.6</ele><time>2026-04-19T08:31:58.127Z</time></trkpt><trkpt lat="42.6462136" lon="11.9865549"><ele>359.40000000000003</ele><time>2026-04-19T08:31:59.114Z</time></trkpt><trkpt lat="42.6462023" lon="11.9866717"><ele>360.20000000000005</ele><time>2026-04-19T08:32:00.103Z</time></trkpt><trkpt lat="42.6462207" lon="11.9868048"><ele>361.0</ele><time>2026-04-19T08:32:01.095Z</time></trkpt><trkpt lat="42.646237" lon="11.9869335"><ele>361.0</ele><time>2026-04-19T08:32:02.095Z</time></trkpt><trkpt lat="42.6462459" lon="11.9870642"><ele>361.0</ele><time>2026-04-19T08:32:03.114Z</time></trkpt><trkpt lat="42.6462533" lon="11.9871909"><ele>361.0</ele><time>2026-04-19T08:32:04.114Z</time></trkpt><trkpt lat="42.6462638" lon="11.9873277"><ele>361.0</ele><time>2026-04-19T08:32:05.102Z</time></trkpt><trkpt lat="42.64627" lon="11.9874561"><ele>361.0</ele><time>2026-04-19T08:32:06.081Z</time></trkpt><trkpt lat="42.6462819" lon="11.9875807"><ele>360.0</ele><time>2026-04-19T08:32:07.103Z</time></trkpt><trkpt lat="42.6462934" lon="11.9876938"><ele>359.0</ele><time>2026-04-19T08:32:08.075Z</time></trkpt><trkpt lat="42.6463217" lon="11.9878122"><ele>358.0</ele><time>2026-04-19T08:32:09.111Z</time></trkpt><trkpt lat="42.6463732" lon="11.987917"><ele>357.0</ele><time>2026-04-19T08:32:10.098Z</time></trkpt><trkpt lat="42.6464397" lon="11.9880061"><ele>356.0</ele><time>2026-04-19T08:32:11.082Z</time></trkpt><trkpt lat="42.6465219" lon="11.9880711"><ele>355.99999999999994</ele><time>2026-04-19T08:32:12.096Z</time></trkpt><trkpt lat="42.646595" lon="11.9881381"><ele>356.0</ele><time>2026-04-19T08:32:13.087Z</time></trkpt><trkpt lat="42.6466629" lon="11.9881972"><ele>356.0</ele><time>2026-04-19T08:32:14.102Z</time></trkpt><trkpt lat="42.6467102" lon="11.9882736"><ele>356.0</ele><time>2026-04-19T08:32:15.094Z</time></trkpt><trkpt lat="42.6467365" lon="11.9883643"><ele>356.0</ele><time>2026-04-19T08:32:16.106Z</time></trkpt><trkpt lat="42.6467345" lon="11.9884565"><ele>355.99999999999994</ele><time>2026-04-19T08:32:17.105Z</time></trkpt><trkpt lat="42.6467077" lon="11.9885395"><ele>356.0</ele><time>2026-04-19T08:32:18.092Z</time></trkpt><trkpt lat="42.6466476" lon="11.9886052"><ele>356.0</ele><time>2026-04-19T08:32:19.09Z</time></trkpt><trkpt lat="42.646565" lon="11.9886243"><ele>356.0</ele><time>2026-04-19T08:32:20.09Z</time></trkpt><trkpt lat="42.6464703" lon="11.9885839"><ele>356.0</ele><time>2026-04-19T08:32:21.088Z</time></trkpt><trkpt lat="42.6463736" lon="11.9885014"><ele>356.0</ele><time>2026-04-19T08:32:22.082Z</time></trkpt><trkpt lat="42.646271" lon="11.9884053"><ele>356.0</ele><time>2026-04-19T08:32:23.094Z</time></trkpt><trkpt lat="42.6461729" lon="11.9883135"><ele>353.8</ele><time>2026-04-19T08:32:24.093Z</time></trkpt><trkpt lat="42.6461006" lon="11.9881917"><ele>351.6</ele><time>2026-04-19T08:32:25.082Z</time></trkpt><trkpt lat="42.6460632" lon="11.9880581"><ele>349.4</ele><time>2026-04-19T08:32:26.095Z</time></trkpt><trkpt lat="42.646054" lon="11.9879182"><ele>347.2</ele><time>2026-04-19T08:32:27.105Z</time></trkpt><trkpt lat="42.646067" lon="11.9877828"><ele>345.0</ele><time>2026-04-19T08:32:28.1Z</time></trkpt><trkpt lat="42.6460684" lon="11.9876544"><ele>345.0</ele><time>2026-04-19T08:32:29.106Z</time></trkpt><trkpt lat="42.6460848" lon="11.9875442"><ele>345.0</ele><time>2026-04-19T08:32:30.095Z</time></trkpt><trkpt lat="42.6460958" lon="11.9874117"><ele>345.0</ele><time>2026-04-19T08:32:31.087Z</time></trkpt><trkpt lat="42.6460755" lon="11.9872953"><ele>345.0</ele><time>2026-04-19T08:32:32.087Z</time></trkpt><trkpt lat="42.6460168" lon="11.9872091"><ele>345.0</ele><time>2026-04-19T08:32:33.092Z</time></trkpt><trkpt lat="42.6459419" lon="11.9871691"><ele>345.0</ele><time>2026-04-19T08:32:34.076Z</time></trkpt><trkpt lat="42.6458616" lon="11.9871878"><ele>345.0</ele><time>2026-04-19T08:32:35.085Z</time></trkpt><trkpt lat="42.6458018" lon="11.9872575"><ele>345.0</ele><time>2026-04-19T08:32:36.075Z</time></trkpt><trkpt lat="42.6457789" lon="11.9873512"><ele>345.0</ele><time>2026-04-19T08:32:37.082Z</time></trkpt><trkpt lat="42.6457815" lon="11.9874572"><ele>345.0</ele><time>2026-04-19T08:32:38.082Z</time></trkpt><trkpt lat="42.6457871" lon="11.9875626"><ele>345.0</ele><time>2026-04-19T08:32:39.082Z</time></trkpt><trkpt lat="42.6457906" lon="11.9876695"><ele>345.0</ele><time>2026-04-19T08:32:40.087Z</time></trkpt><trkpt lat="42.6457857" lon="11.9877748"><ele>345.0</ele><time>2026-04-19T08:32:41.091Z</time></trkpt><trkpt lat="42.6457455" lon="11.9878644"><ele>345.0</ele><time>2026-04-19T08:32:42.087Z</time></trkpt><trkpt lat="42.6456784" lon="11.9878994"><ele>345.0</ele><time>2026-04-19T08:32:43.102Z</time></trkpt><trkpt lat="42.6455917" lon="11.9878898"><ele>345.0</ele><time>2026-04-19T08:32:44.099Z</time></trkpt><trkpt lat="42.6455187" lon="11.9878357"><ele>345.0</ele><time>2026-04-19T08:32:45.086Z</time></trkpt><trkpt lat="42.6454604" lon="11.9877626"><ele>345.0</ele><time>2026-04-19T08:32:46.084Z</time></trkpt><trkpt lat="42.6454128" lon="11.987681"><ele>345.0</ele><time>2026-04-19T08:32:47.081Z</time></trkpt><trkpt lat="42.645364" lon="11.987611"><ele>345.0</ele><time>2026-04-19T08:32:48.082Z</time></trkpt><trkpt lat="42.6453081" lon="11.9875629"><ele>345.0</ele><time>2026-04-19T08:32:49.069Z</time></trkpt><trkpt lat="42.6452415" lon="11.9875546"><ele>345.0</ele><time>2026-04-19T08:32:50.086Z</time></trkpt><trkpt lat="42.6451659" lon="11.9875817"><ele>345.0</ele><time>2026-04-19T08:32:51.096Z</time></trkpt><trkpt lat="42.6450917" lon="11.9876402"><ele>345.0</ele><time>2026-04-19T08:32:52.09Z</time></trkpt><trkpt lat="42.6450209" lon="11.9877116"><ele>343.6666666666667</ele><time>2026-04-19T08:32:53.09Z</time></trkpt><trkpt lat="42.6449498" lon="11.9877836"><ele>342.3333333333333</ele><time>2026-04-19T08:32:54.12Z</time></trkpt><trkpt lat="42.6448866" lon="11.9878548"><ele>341.0</ele><time>2026-04-19T08:32:55.12Z</time></trkpt><trkpt lat="42.6448269" lon="11.9879233"><ele>339.66666666666663</ele><time>2026-04-19T08:32:56.087Z</time></trkpt><trkpt lat="42.6447702" lon="11.9879822"><ele>338.3333333333333</ele><time>2026-04-19T08:32:57.08Z</time></trkpt><trkpt lat="42.6447141" lon="11.9880233"><ele>337.0</ele><time>2026-04-19T08:32:58.081Z</time></trkpt><trkpt lat="42.6446456" lon="11.9880367"><ele>337.0</ele><time>2026-04-19T08:32:59.094Z</time></trkpt><trkpt lat="42.6445746" lon="11.9880117"><ele>337.0</ele><time>2026-04-19T08:33:00.074Z</time></trkpt><trkpt lat="42.6445197" lon="11.9879536"><ele>337.0</ele><time>2026-04-19T08:33:01.091Z</time></trkpt><trkpt lat="42.6444779" lon="11.9878848"><ele>337.0</ele><time>2026-04-19T08:33:02.095Z</time></trkpt><trkpt lat="42.6444519" lon="11.9877428"><ele>337.0</ele><time>2026-04-19T08:33:04.101Z</time></trkpt><trkpt lat="42.6444785" lon="11.9875877"><ele>337.0</ele><time>2026-04-19T08:33:06.12Z</time></trkpt><trkpt lat="42.6445027" lon="11.9874448"><ele>335.40000000000003</ele><time>2026-04-19T08:33:08.076Z</time></trkpt><trkpt lat="42.6445281" lon="11.987327"><ele>333.8</ele><time>2026-04-19T08:33:10.119Z</time></trkpt><trkpt lat="42.6445389" lon="11.9871991"><ele>332.2</ele><time>2026-04-19T08:33:12.082Z</time></trkpt><trkpt lat="42.6445146" lon="11.9870762"><ele>330.6</ele><time>2026-04-19T08:33:14.083Z</time></trkpt><trkpt lat="42.6444604" lon="11.9869591"><ele>329.0</ele><time>2026-04-19T08:33:16.087Z</time></trkpt><trkpt lat="42.6443994" lon="11.9868505"><ele>328.1666666666667</ele><time>2026-04-19T08:33:18.099Z</time></trkpt><trkpt lat="42.6443401" lon="11.9867561"><ele>327.33333333333337</ele><time>2026-04-19T08:33:20.082Z</time></trkpt><trkpt lat="42.6442907" lon="11.9866727"><ele>326.5</ele><time>2026-04-19T08:33:22.096Z</time></trkpt><trkpt lat="42.644246" lon="11.9865955"><ele>325.6666666666667</ele><time>2026-04-19T08:33:24.109Z</time></trkpt><trkpt lat="42.6441982" lon="11.9865384"><ele>324.8333333333333</ele><time>2026-04-19T08:34:01.09Z</time></trkpt><trkpt lat="42.6441278" lon="11.9864612"><ele>324.0</ele><time>2026-04-19T08:34:03.085Z</time></trkpt><trkpt lat="42.6440722" lon="11.9864152"><ele>323.3333333333333</ele><time>2026-04-19T08:34:04.096Z</time></trkpt><trkpt lat="42.6440122" lon="11.9863569"><ele>322.6666666666667</ele><time>2026-04-19T08:34:05.085Z</time></trkpt><trkpt lat="42.6439481" lon="11.9862848"><ele>322.0</ele><time>2026-04-19T08:34:06.088Z</time></trkpt><trkpt lat="42.6438887" lon="11.986203"><ele>321.33333333333337</ele><time>2026-04-19T08:34:07.112Z</time></trkpt><trkpt lat="42.6438328" lon="11.9861218"><ele>320.6666666666667</ele><time>2026-04-19T08:34:08.102Z</time></trkpt><trkpt lat="42.6437724" lon="11.9860382"><ele>320.0</ele><time>2026-04-19T08:34:09.09Z</time></trkpt><trkpt lat="42.6437131" lon="11.9859519"><ele>320.0</ele><time>2026-04-19T08:34:10.083Z</time></trkpt><trkpt lat="42.6436541" lon="11.9858706"><ele>320.0</ele><time>2026-04-19T08:34:11.083Z</time></trkpt><trkpt lat="42.6435943" lon="11.9857845"><ele>320.0</ele><time>2026-04-19T08:34:12.077Z</time></trkpt><trkpt lat="42.643538" lon="11.985705"><ele>320.0</ele><time>2026-04-19T08:34:13.091Z</time></trkpt><trkpt lat="42.6434808" lon="11.9856191"><ele>320.0</ele><time>2026-04-19T08:34:14.086Z</time></trkpt><trkpt lat="42.6434137" lon="11.9855311"><ele>320.0</ele><time>2026-04-19T08:34:15.085Z</time></trkpt><trkpt lat="42.6433476" lon="11.9854446"><ele>319.33333333333337</ele><time>2026-04-19T08:34:16.081Z</time></trkpt><trkpt lat="42.6432843" lon="11.9853624"><ele>318.6666666666667</ele><time>2026-04-19T08:34:17.089Z</time></trkpt><trkpt lat="42.6432238" lon="11.9852781"><ele>318.0</ele><time>2026-04-19T08:34:18.084Z</time></trkpt><trkpt lat="42.6431647" lon="11.9851958"><ele>317.3333333333333</ele><time>2026-04-19T08:34:19.09Z</time></trkpt><trkpt lat="42.6431055" lon="11.9851166"><ele>316.66666666666663</ele><time>2026-04-19T08:34:20.085Z</time></trkpt><trkpt lat="42.6430453" lon="11.9850266"><ele>316.0</ele><time>2026-04-19T08:34:21.086Z</time></trkpt><trkpt lat="42.6429796" lon="11.9849447"><ele>316.0</ele><time>2026-04-19T08:34:22.091Z</time></trkpt><trkpt lat="42.6429168" lon="11.9848618"><ele>316.0</ele><time>2026-04-19T08:34:23.083Z</time></trkpt><trkpt lat="42.6428542" lon="11.9847774"><ele>316.0</ele><time>2026-04-19T08:34:24.08Z</time></trkpt><trkpt lat="42.6427971" lon="11.9847013"><ele>316.0</ele><time>2026-04-19T08:34:25.087Z</time></trkpt><trkpt lat="42.642735" lon="11.9846227"><ele>316.0</ele><time>2026-04-19T08:34:26.087Z</time></trkpt><trkpt lat="42.6426727" lon="11.9845419"><ele>316.0</ele><time>2026-04-19T08:34:27.09Z</time></trkpt><trkpt lat="42.6426113" lon="11.9844646"><ele>315.3333333333333</ele><time>2026-04-19T08:34:28.084Z</time></trkpt><trkpt lat="42.6425521" lon="11.9843855"><ele>314.66666666666663</ele><time>2026-04-19T08:34:29.106Z</time></trkpt><trkpt lat="42.6424875" lon="11.984305"><ele>314.0</ele><time>2026-04-19T08:34:30.081Z</time></trkpt><trkpt lat="42.6424287" lon="11.9842271"><ele>313.3333333333333</ele><time>2026-04-19T08:34:31.081Z</time></trkpt><trkpt lat="42.6423708" lon="11.9841496"><ele>312.6666666666667</ele><time>2026-04-19T08:34:32.085Z</time></trkpt><trkpt lat="42.6423134" lon="11.9840689"><ele>312.0</ele><time>2026-04-19T08:34:33.096Z</time></trkpt><trkpt lat="42.6422572" lon="11.9840002"><ele>312.0</ele><time>2026-04-19T08:34:34.094Z</time></trkpt><trkpt lat="42.642208" lon="11.9839357"><ele>312.0</ele><time>2026-04-19T08:34:35.103Z</time></trkpt><trkpt lat="42.6421383" lon="11.9838505"><ele>312.0</ele><time>2026-04-19T08:34:36.1Z</time></trkpt><trkpt lat="42.6420273" lon="11.9837136"><ele>312.0</ele><time>2026-04-19T08:34:37.103Z</time></trkpt><trkpt lat="42.64193" lon="11.9835887"><ele>312.0</ele><time>2026-04-19T08:34:38.109Z</time></trkpt><trkpt lat="42.6418322" lon="11.9834599"><ele>311.25</ele><time>2026-04-19T08:34:39.084Z</time></trkpt><trkpt lat="42.6417374" lon="11.9833374"><ele>310.5</ele><time>2026-04-19T08:34:40.082Z</time></trkpt><trkpt lat="42.6416497" lon="11.9832181"><ele>309.75</ele><time>2026-04-19T08:34:41.097Z</time></trkpt><trkpt lat="42.6415724" lon="11.9831193"><ele>309.0</ele><time>2026-04-19T08:34:42.104Z</time></trkpt><trkpt lat="42.6415067" lon="11.9830329"><ele>309.00000000000006</ele><time>2026-04-19T08:34:43.096Z</time></trkpt><trkpt lat="42.6414577" lon="11.9829693"><ele>309.0</ele><time>2026-04-19T08:34:44.078Z</time></trkpt><trkpt lat="42.6413942" lon="11.9828831"><ele>309.0</ele><time>2026-04-19T08:34:46.097Z</time></trkpt><trkpt lat="42.6413415" lon="11.9828008"><ele>309.0</ele><time>2026-04-19T08:34:49.093Z</time></trkpt><trkpt lat="42.6413293" lon="11.9827119"><ele>309.0</ele><time>2026-04-19T08:34:52.098Z</time></trkpt><trkpt lat="42.641337" lon="11.9826251"><ele>309.00000000000006</ele><time>2026-04-19T08:34:54.088Z</time></trkpt><trkpt lat="42.6413541" lon="11.9825422"><ele>309.0</ele><time>2026-04-19T08:34:56.081Z</time></trkpt><trkpt lat="42.6413576" lon="11.9824323"><ele>309.0</ele><time>2026-04-19T08:34:59.093Z</time></trkpt><trkpt lat="42.641333" lon="11.9823518"><ele>309.0</ele><time>2026-04-19T08:35:01.089Z</time></trkpt><trkpt lat="42.6412835" lon="11.9822581"><ele>309.0</ele><time>2026-04-19T08:35:04.087Z</time></trkpt><trkpt lat="42.6412184" lon="11.982184"><ele>309.0</ele><time>2026-04-19T08:35:07.101Z</time></trkpt><trkpt lat="42.6411386" lon="11.9821675"><ele>309.0</ele><time>2026-04-19T08:35:10.105Z</time></trkpt><trkpt lat="42.6410758" lon="11.9821816"><ele>309.0</ele><time>2026-04-19T08:35:13.099Z</time></trkpt><trkpt lat="42.641012" lon="11.982225"><ele>309.0</ele><time>2026-04-19T08:35:17.098Z</time></trkpt><trkpt lat="42.6409423" lon="11.982297"><ele>309.0</ele><time>2026-04-19T08:35:26.083Z</time></trkpt><trkpt lat="42.6409051" lon="11.9823722"><ele>309.0</ele><time>2026-04-19T08:35:29.092Z</time></trkpt><trkpt lat="42.6408075" lon="11.9823564"><ele>309.0</ele><time>2026-04-19T08:37:38.106Z</time></trkpt><trkpt lat="42.6407519" lon="11.9824124"><ele>309.0</ele><time>2026-04-19T08:40:24.087Z</time></trkpt><trkpt lat="42.6407683" lon="11.9823215"><ele>309.0</ele><time>2026-04-19T09:03:04.172Z</time></trkpt><trkpt lat="42.6407637" lon="11.9822326"><ele>309.0</ele><time>2026-04-19T09:03:10.193Z</time></trkpt><trkpt lat="42.6408039" lon="11.9823069"><ele>309.0</ele><time>2026-04-19T09:03:32.106Z</time></trkpt><trkpt lat="42.6407987" lon="11.9823996"><ele>309.0</ele><time>2026-04-19T09:03:42.087Z</time></trkpt><trkpt lat="42.6408263" lon="11.9824921"><ele>309.0</ele><time>2026-04-19T09:09:55.137Z</time></trkpt><trkpt lat="42.6407846" lon="11.9825716"><ele>309.0</ele><time>2026-04-19T09:10:46.101Z</time></trkpt><trkpt lat="42.640692" lon="11.9826979"><ele>309.0</ele><time>2026-04-19T09:10:48.078Z</time></trkpt><trkpt lat="42.6406443" lon="11.982767"><ele>308.6666666666667</ele><time>2026-04-19T09:10:49.091Z</time></trkpt><trkpt lat="42.6405679" lon="11.9828573"><ele>308.3333333333333</ele><time>2026-04-19T09:10:51.094Z</time></trkpt><trkpt lat="42.6404958" lon="11.9829578"><ele>308.0</ele><time>2026-04-19T09:10:53.084Z</time></trkpt><trkpt lat="42.6404432" lon="11.9830169"><ele>307.66666666666663</ele><time>2026-04-19T09:10:55.077Z</time></trkpt><trkpt lat="42.6403826" lon="11.9831026"><ele>307.3333333333333</ele><time>2026-04-19T09:10:58.083Z</time></trkpt><trkpt lat="42.6403309" lon="11.9831856"><ele>307.0</ele><time>2026-04-19T09:11:00.082Z</time></trkpt><trkpt lat="42.6402809" lon="11.9832744"><ele>306.8333333333333</ele><time>2026-04-19T09:11:02.076Z</time></trkpt><trkpt lat="42.6402197" lon="11.9833488"><ele>306.66666666666663</ele><time>2026-04-19T09:11:04.081Z</time></trkpt><trkpt lat="42.6401433" lon="11.9834364"><ele>306.5</ele><time>2026-04-19T09:11:06.082Z</time></trkpt><trkpt lat="42.6400782" lon="11.9835266"><ele>306.3333333333333</ele><time>2026-04-19T09:11:08.076Z</time></trkpt><trkpt lat="42.6400187" lon="11.9835964"><ele>306.1666666666667</ele><time>2026-04-19T09:11:10.087Z</time></trkpt><trkpt lat="42.6399594" lon="11.9836819"><ele>306.0</ele><time>2026-04-19T09:11:12.079Z</time></trkpt><trkpt lat="42.6398949" lon="11.9837635"><ele>306.0</ele><time>2026-04-19T09:11:14.085Z</time></trkpt><trkpt lat="42.6398372" lon="11.9838259"><ele>306.0</ele><time>2026-04-19T09:11:16.087Z</time></trkpt><trkpt lat="42.6397884" lon="11.9838842"><ele>306.0</ele><time>2026-04-19T09:11:18.088Z</time></trkpt><trkpt lat="42.6397044" lon="11.9839865"><ele>306.0</ele><time>2026-04-19T09:11:20.092Z</time></trkpt><trkpt lat="42.6396316" lon="11.9840731"><ele>306.0</ele><time>2026-04-19T09:11:22.092Z</time></trkpt><trkpt lat="42.6395356" lon="11.9841793"><ele>306.0</ele><time>2026-04-19T09:11:24.074Z</time></trkpt><trkpt lat="42.639482" lon="11.9842419"><ele>306.0</ele><time>2026-04-19T09:11:25.086Z</time></trkpt><trkpt lat="42.6394302" lon="11.9842956"><ele>306.0</ele><time>2026-04-19T09:11:26.093Z</time></trkpt><trkpt lat="42.6393733" lon="11.9843454"><ele>306.0</ele><time>2026-04-19T09:11:27.085Z</time></trkpt><trkpt lat="42.6392611" lon="11.9844343"><ele>306.0</ele><time>2026-04-19T09:11:29.11Z</time></trkpt><trkpt lat="42.6391474" lon="11.9845126"><ele>306.0</ele><time>2026-04-19T09:11:31.1Z</time></trkpt><trkpt lat="42.6390859" lon="11.9845497"><ele>306.0</ele><time>2026-04-19T09:11:32.098Z</time></trkpt><trkpt lat="42.6389782" lon="11.9846033"><ele>306.0</ele><time>2026-04-19T09:11:34.1Z</time></trkpt><trkpt lat="42.6388674" lon="11.9846569"><ele>306.0</ele><time>2026-04-19T09:11:36.081Z</time></trkpt><trkpt lat="42.6387993" lon="11.9847253"><ele>306.0</ele><time>2026-04-19T09:11:38.079Z</time></trkpt><trkpt lat="42.638811" lon="11.9848616"><ele>306.25</ele><time>2026-04-19T09:11:40.082Z</time></trkpt><trkpt lat="42.6388616" lon="11.9850185"><ele>306.5</ele><time>2026-04-19T09:11:42.098Z</time></trkpt><trkpt lat="42.6389019" lon="11.9851545"><ele>306.75</ele><time>2026-04-19T09:11:43.092Z</time></trkpt><trkpt lat="42.6389461" lon="11.9853466"><ele>307.0</ele><time>2026-04-19T09:11:44.108Z</time></trkpt><trkpt lat="42.6390455" lon="11.9855625"><ele>307.0</ele><time>2026-04-19T09:11:45.092Z</time></trkpt><trkpt lat="42.6391528" lon="11.9857427"><ele>307.0</ele><time>2026-04-19T09:11:46.085Z</time></trkpt><trkpt lat="42.6392586" lon="11.9858887"><ele>307.0</ele><time>2026-04-19T09:11:47.095Z</time></trkpt><trkpt lat="42.6393628" lon="11.9860221"><ele>307.75</ele><time>2026-04-19T09:11:48.106Z</time></trkpt><trkpt lat="42.6394618" lon="11.9861519"><ele>308.5</ele><time>2026-04-19T09:11:49.079Z</time></trkpt><trkpt lat="42.6395522" lon="11.9862614"><ele>309.25</ele><time>2026-04-19T09:11:50.102Z</time></trkpt><trkpt lat="42.6396422" lon="11.9863715"><ele>310.0</ele><time>2026-04-19T09:11:51.102Z</time></trkpt><trkpt lat="42.6397337" lon="11.9864855"><ele>310.0</ele><time>2026-04-19T09:11:52.099Z</time></trkpt><trkpt lat="42.6398226" lon="11.9865996"><ele>310.0</ele><time>2026-04-19T09:11:53.083Z</time></trkpt><trkpt lat="42.6399092" lon="11.9867169"><ele>310.0</ele><time>2026-04-19T09:11:54.105Z</time></trkpt><trkpt lat="42.6399921" lon="11.9868321"><ele>310.0</ele><time>2026-04-19T09:11:55.094Z</time></trkpt><trkpt lat="42.640073" lon="11.9869344"><ele>310.2</ele><time>2026-04-19T09:11:56.085Z</time></trkpt><trkpt lat="42.6401529" lon="11.9870342"><ele>310.4</ele><time>2026-04-19T09:11:57.083Z</time></trkpt><trkpt lat="42.640231" lon="11.9871282"><ele>310.6</ele><time>2026-04-19T09:11:58.107Z</time></trkpt><trkpt lat="42.6403058" lon="11.9872172"><ele>310.8</ele><time>2026-04-19T09:11:59.096Z</time></trkpt><trkpt lat="42.6403819" lon="11.9873063"><ele>311.0</ele><time>2026-04-19T09:12:00.095Z</time></trkpt><trkpt lat="42.6404528" lon="11.9873964"><ele>311.2</ele><time>2026-04-19T09:12:01.077Z</time></trkpt><trkpt lat="42.6405228" lon="11.9874865"><ele>311.40000000000003</ele><time>2026-04-19T09:12:02.103Z</time></trkpt><trkpt lat="42.6405929" lon="11.9875794"><ele>311.6</ele><time>2026-04-19T09:12:03.092Z</time></trkpt><trkpt lat="42.6406635" lon="11.9876752"><ele>311.8</ele><time>2026-04-19T09:12:04.108Z</time></trkpt><trkpt lat="42.6407319" lon="11.9877719"><ele>312.0</ele><time>2026-04-19T09:12:05.089Z</time></trkpt><trkpt lat="42.6407991" lon="11.9878707"><ele>312.2</ele><time>2026-04-19T09:12:06.096Z</time></trkpt><trkpt lat="42.6408649" lon="11.9879711"><ele>312.4</ele><time>2026-04-19T09:12:07.074Z</time></trkpt><trkpt lat="42.6409302" lon="11.9880712"><ele>312.6</ele><time>2026-04-19T09:12:08.093Z</time></trkpt><trkpt lat="42.6409953" lon="11.9881709"><ele>312.8</ele><time>2026-04-19T09:12:09.083Z</time></trkpt><trkpt lat="42.6410609" lon="11.9882708"><ele>313.0</ele><time>2026-04-19T09:12:10.102Z</time></trkpt><trkpt lat="42.6411251" lon="11.9883702"><ele>313.8</ele><time>2026-04-19T09:12:11.082Z</time></trkpt><trkpt lat="42.6411895" lon="11.9884699"><ele>314.6</ele><time>2026-04-19T09:12:12.096Z</time></trkpt><trkpt lat="42.6412535" lon="11.9885707"><ele>315.4</ele><time>2026-04-19T09:12:13.106Z</time></trkpt><trkpt lat="42.6413182" lon="11.9886682"><ele>316.2</ele><time>2026-04-19T09:12:14.095Z</time></trkpt><trkpt lat="42.641382" lon="11.9887625"><ele>317.0</ele><time>2026-04-19T09:12:15.097Z</time></trkpt><trkpt lat="42.6414416" lon="11.9888573"><ele>317.0</ele><time>2026-04-19T09:12:16.09Z</time></trkpt><trkpt lat="42.6414997" lon="11.9889484"><ele>317.0</ele><time>2026-04-19T09:12:17.089Z</time></trkpt><trkpt lat="42.6415548" lon="11.9890368"><ele>317.0</ele><time>2026-04-19T09:12:18.084Z</time></trkpt><trkpt lat="42.6416027" lon="11.9891142"><ele>317.0</ele><time>2026-04-19T09:12:19.084Z</time></trkpt><trkpt lat="42.6416712" lon="11.989225"><ele>317.0</ele><time>2026-04-19T09:12:21.086Z</time></trkpt><trkpt lat="42.6417318" lon="11.9892828"><ele>317.0</ele><time>2026-04-19T09:12:24.084Z</time></trkpt><trkpt lat="42.6418123" lon="11.9892552"><ele>317.0</ele><time>2026-04-19T09:12:26.081Z</time></trkpt><trkpt lat="42.6419043" lon="11.9891315"><ele>317.0</ele><time>2026-04-19T09:12:28.1Z</time></trkpt><trkpt lat="42.6419451" lon="11.9890585"><ele>317.0</ele><time>2026-04-19T09:12:29.081Z</time></trkpt><trkpt lat="42.6420033" lon="11.9889202"><ele>317.0</ele><time>2026-04-19T09:12:31.074Z</time></trkpt><trkpt lat="42.6420192" lon="11.9887842"><ele>317.0</ele><time>2026-04-19T09:12:33.086Z</time></trkpt><trkpt lat="42.6419901" lon="11.9886667"><ele>317.33333333333337</ele><time>2026-04-19T09:12:35.098Z</time></trkpt><trkpt lat="42.6419982" lon="11.9885567"><ele>317.6666666666667</ele><time>2026-04-19T09:12:38.079Z</time></trkpt><trkpt lat="42.6420636" lon="11.9884869"><ele>318.0</ele><time>2026-04-19T09:12:41.078Z</time></trkpt><trkpt lat="42.6421365" lon="11.9884241"><ele>318.3333333333333</ele><time>2026-04-19T09:12:44.093Z</time></trkpt><trkpt lat="42.6422179" lon="11.9884172"><ele>318.66666666666663</ele><time>2026-04-19T09:12:47.089Z</time></trkpt><trkpt lat="42.6422921" lon="11.9884552"><ele>319.0</ele><time>2026-04-19T09:12:51.11Z</time></trkpt><trkpt lat="42.6423658" lon="11.9884043"><ele>318.0</ele><time>2026-04-19T09:12:53.095Z</time></trkpt><trkpt lat="42.6424665" lon="11.988305"><ele>317.0</ele><time>2026-04-19T09:12:55.079Z</time></trkpt><trkpt lat="42.6425407" lon="11.9882265"><ele>316.0</ele><time>2026-04-19T09:12:56.082Z</time></trkpt><trkpt lat="42.6426278" lon="11.988134"><ele>315.0</ele><time>2026-04-19T09:12:57.088Z</time></trkpt><trkpt lat="42.6427272" lon="11.9880298"><ele>316.5</ele><time>2026-04-19T09:12:58.078Z</time></trkpt><trkpt lat="42.6428249" lon="11.9879254"><ele>318.0</ele><time>2026-04-19T09:12:59.099Z</time></trkpt><trkpt lat="42.6429184" lon="11.9878246"><ele>319.5</ele><time>2026-04-19T09:13:00.101Z</time></trkpt><trkpt lat="42.6430109" lon="11.9877262"><ele>321.0</ele><time>2026-04-19T09:13:01.082Z</time></trkpt><trkpt lat="42.6431021" lon="11.9876314"><ele>321.0</ele><time>2026-04-19T09:13:02.083Z</time></trkpt><trkpt lat="42.643191" lon="11.9875375"><ele>321.0</ele><time>2026-04-19T09:13:03.089Z</time></trkpt><trkpt lat="42.6432781" lon="11.987445"><ele>321.0</ele><time>2026-04-19T09:13:04.086Z</time></trkpt><trkpt lat="42.6433631" lon="11.9873508"><ele>321.0</ele><time>2026-04-19T09:13:05.085Z</time></trkpt><trkpt lat="42.6434475" lon="11.9872613"><ele>321.0</ele><time>2026-04-19T09:13:06.098Z</time></trkpt><trkpt lat="42.6435295" lon="11.9871751"><ele>320.5</ele><time>2026-04-19T09:13:07.098Z</time></trkpt><trkpt lat="42.643607" lon="11.9870953"><ele>320.0</ele><time>2026-04-19T09:13:08.087Z</time></trkpt><trkpt lat="42.6436816" lon="11.9870183"><ele>319.5</ele><time>2026-04-19T09:13:09.096Z</time></trkpt><trkpt lat="42.6437479" lon="11.9869504"><ele>319.0</ele><time>2026-04-19T09:13:10.083Z</time></trkpt><trkpt lat="42.6438094" lon="11.9868884"><ele>318.5</ele><time>2026-04-19T09:13:11.078Z</time></trkpt><trkpt lat="42.6438647" lon="11.9868308"><ele>318.0</ele><time>2026-04-19T09:13:12.074Z</time></trkpt><trkpt lat="42.643953" lon="11.9867371"><ele>318.3333333333333</ele><time>2026-04-19T09:13:14.091Z</time></trkpt><trkpt lat="42.6440086" lon="11.9866738"><ele>318.6666666666667</ele><time>2026-04-19T09:13:16.083Z</time></trkpt><trkpt lat="42.6440624" lon="11.9866061"><ele>319.0</ele><time>2026-04-19T09:13:55.08Z</time></trkpt><trkpt lat="42.644154" lon="11.9865613"><ele>319.33333333333337</ele><time>2026-04-19T09:13:57.101Z</time></trkpt><trkpt lat="42.644254" lon="11.986643"><ele>319.6666666666667</ele><time>2026-04-19T09:13:59.092Z</time></trkpt><trkpt lat="42.6442972" lon="11.9867132"><ele>320.0</ele><time>2026-04-19T09:14:00.081Z</time></trkpt><trkpt lat="42.6443425" lon="11.9867969"><ele>320.8</ele><time>2026-04-19T09:14:01.106Z</time></trkpt><trkpt lat="42.6443927" lon="11.9868801"><ele>321.6</ele><time>2026-04-19T09:14:02.096Z</time></trkpt><trkpt lat="42.6444393" lon="11.986954"><ele>322.4</ele><time>2026-04-19T09:14:03.085Z</time></trkpt><trkpt lat="42.6445004" lon="11.9870768"><ele>323.2</ele><time>2026-04-19T09:14:05.114Z</time></trkpt><trkpt lat="42.6445303" lon="11.9872082"><ele>324.0</ele><time>2026-04-19T09:14:07.098Z</time></trkpt><trkpt lat="42.6445136" lon="11.9873788"><ele>324.5</ele><time>2026-04-19T09:14:09.122Z</time></trkpt><trkpt lat="42.6444902" lon="11.9874865"><ele>325.0</ele><time>2026-04-19T09:14:10.099Z</time></trkpt><trkpt lat="42.6444654" lon="11.9876008"><ele>325.5</ele><time>2026-04-19T09:14:11.087Z</time></trkpt><trkpt lat="42.6444355" lon="11.98771"><ele>326.0</ele><time>2026-04-19T09:14:12.085Z</time></trkpt><trkpt lat="42.644429" lon="11.9878192"><ele>326.5</ele><time>2026-04-19T09:14:13.084Z</time></trkpt><trkpt lat="42.6444235" lon="11.9879244"><ele>327.0</ele><time>2026-04-19T09:14:14.109Z</time></trkpt><trkpt lat="42.6444746" lon="11.9879968"><ele>328.6666666666667</ele><time>2026-04-19T09:14:15.085Z</time></trkpt><trkpt lat="42.6445436" lon="11.9880437"><ele>330.3333333333333</ele><time>2026-04-19T09:14:16.084Z</time></trkpt><trkpt lat="42.6446244" lon="11.9880654"><ele>332.0</ele><time>2026-04-19T09:14:17.084Z</time></trkpt><trkpt lat="42.6446973" lon="11.9880416"><ele>333.66666666666663</ele><time>2026-04-19T09:14:18.081Z</time></trkpt><trkpt lat="42.6447653" lon="11.9879858"><ele>335.3333333333333</ele><time>2026-04-19T09:14:19.09Z</time></trkpt><trkpt lat="42.6448394" lon="11.9879199"><ele>337.0</ele><time>2026-04-19T09:14:20.105Z</time></trkpt><trkpt lat="42.6449124" lon="11.9878414"><ele>337.0</ele><time>2026-04-19T09:14:21.098Z</time></trkpt><trkpt lat="42.6449851" lon="11.9877585"><ele>337.0</ele><time>2026-04-19T09:14:22.096Z</time></trkpt><trkpt lat="42.6450598" lon="11.987681"><ele>337.0</ele><time>2026-04-19T09:14:23.1Z</time></trkpt><trkpt lat="42.6451429" lon="11.9876108"><ele>337.0</ele><time>2026-04-19T09:14:24.093Z</time></trkpt><trkpt lat="42.645233" lon="11.9875816"><ele>337.0</ele><time>2026-04-19T09:14:25.091Z</time></trkpt><trkpt lat="42.6453101" lon="11.9876071"><ele>338.3333333333333</ele><time>2026-04-19T09:14:26.075Z</time></trkpt><trkpt lat="42.6453699" lon="11.9876771"><ele>339.66666666666663</ele><time>2026-04-19T09:14:27.1Z</time></trkpt><trkpt lat="42.6454114" lon="11.9877767"><ele>341.0</ele><time>2026-04-19T09:14:28.092Z</time></trkpt><trkpt lat="42.6454679" lon="11.9878719"><ele>342.3333333333333</ele><time>2026-04-19T09:14:29.088Z</time></trkpt><trkpt lat="42.6455444" lon="11.9879391"><ele>343.6666666666667</ele><time>2026-04-19T09:14:30.083Z</time></trkpt><trkpt lat="42.6456307" lon="11.9879676"><ele>345.0</ele><time>2026-04-19T09:14:31.084Z</time></trkpt><trkpt lat="42.6457114" lon="11.9879446"><ele>345.0</ele><time>2026-04-19T09:14:32.07Z</time></trkpt><trkpt lat="42.6457667" lon="11.9878775"><ele>345.0</ele><time>2026-04-19T09:14:33.094Z</time></trkpt><trkpt lat="42.6458242" lon="11.987807"><ele>345.0</ele><time>2026-04-19T09:14:34.074Z</time></trkpt><trkpt lat="42.6458263" lon="11.9876732"><ele>345.0</ele><time>2026-04-19T09:14:35.094Z</time></trkpt><trkpt lat="42.6458107" lon="11.9875278"><ele>345.0</ele><time>2026-04-19T09:14:36.078Z</time></trkpt><trkpt lat="42.6458233" lon="11.9873901"><ele>345.0</ele><time>2026-04-19T09:14:37.081Z</time></trkpt><trkpt lat="42.6458725" lon="11.9872998"><ele>345.0</ele><time>2026-04-19T09:14:38.086Z</time></trkpt><trkpt lat="42.6459458" lon="11.9872655"><ele>345.0</ele><time>2026-04-19T09:14:39.075Z</time></trkpt><trkpt lat="42.6460215" lon="11.9872928"><ele>345.0</ele><time>2026-04-19T09:14:40.076Z</time></trkpt><trkpt lat="42.6460774" lon="11.9873684"><ele>345.0</ele><time>2026-04-19T09:14:41.084Z</time></trkpt><trkpt lat="42.6461024" lon="11.9874793"><ele>345.0</ele><time>2026-04-19T09:14:42.091Z</time></trkpt><trkpt lat="42.6460964" lon="11.9876017"><ele>345.0</ele><time>2026-04-19T09:14:43.086Z</time></trkpt><trkpt lat="42.6460957" lon="11.9877361"><ele>345.0</ele><time>2026-04-19T09:14:44.087Z</time></trkpt><trkpt lat="42.6460826" lon="11.9878833"><ele>345.0</ele><time>2026-04-19T09:14:45.08Z</time></trkpt><trkpt lat="42.6460698" lon="11.9880208"><ele>345.0</ele><time>2026-04-19T09:14:46.094Z</time></trkpt><trkpt lat="42.6460815" lon="11.9881451"><ele>345.0</ele><time>2026-04-19T09:14:47.077Z</time></trkpt><trkpt lat="42.6460921" lon="11.9882692"><ele>348.6</ele><time>2026-04-19T09:14:48.105Z</time></trkpt><trkpt lat="42.646164" lon="11.9883618"><ele>352.2</ele><time>2026-04-19T09:14:49.101Z</time></trkpt><trkpt lat="42.6462408" lon="11.9884489"><ele>355.79999999999995</ele><time>2026-04-19T09:14:50.088Z</time></trkpt><trkpt lat="42.6463199" lon="11.9885321"><ele>359.4</ele><time>2026-04-19T09:14:51.101Z</time></trkpt><trkpt lat="42.6464003" lon="11.9886138"><ele>363.0</ele><time>2026-04-19T09:14:52.08Z</time></trkpt><trkpt lat="42.6464872" lon="11.9886768"><ele>363.0</ele><time>2026-04-19T09:14:53.077Z</time></trkpt><trkpt lat="42.6465692" lon="11.9887316"><ele>363.0</ele><time>2026-04-19T09:14:54.096Z</time></trkpt><trkpt lat="42.6466586" lon="11.9887336"><ele>363.0</ele><time>2026-04-19T09:14:55.105Z</time></trkpt><trkpt lat="42.6467337" lon="11.9886455"><ele>363.0</ele><time>2026-04-19T09:14:56.093Z</time></trkpt><trkpt lat="42.6467611" lon="11.9885251"><ele>363.0</ele><time>2026-04-19T09:14:57.088Z</time></trkpt><trkpt lat="42.6467371" lon="11.9883961"><ele>361.25</ele><time>2026-04-19T09:14:58.082Z</time></trkpt><trkpt lat="42.6467103" lon="11.9882647"><ele>359.5</ele><time>2026-04-19T09:14:59.087Z</time></trkpt><trkpt lat="42.64662" lon="11.988166"><ele>357.75</ele><time>2026-04-19T09:15:00.106Z</time></trkpt><trkpt lat="42.6465212" lon="11.988065"><ele>356.0</ele><time>2026-04-19T09:15:01.084Z</time></trkpt><trkpt lat="42.6464238" lon="11.9879622"><ele>356.0</ele><time>2026-04-19T09:15:02.078Z</time></trkpt><trkpt lat="42.6463701" lon="11.9877973"><ele>356.0</ele><time>2026-04-19T09:15:03.077Z</time></trkpt><trkpt lat="42.6463455" lon="11.9876101"><ele>356.0</ele><time>2026-04-19T09:15:04.085Z</time></trkpt><trkpt lat="42.6463267" lon="11.9874249"><ele>356.0</ele><time>2026-04-19T09:15:05.087Z</time></trkpt><trkpt lat="42.6463109" lon="11.9872405"><ele>357.25</ele><time>2026-04-19T09:15:06.078Z</time></trkpt><trkpt lat="42.6462986" lon="11.9870581"><ele>358.5</ele><time>2026-04-19T09:15:07.103Z</time></trkpt><trkpt lat="42.6462887" lon="11.9868894"><ele>359.75</ele><time>2026-04-19T09:15:08.091Z</time></trkpt><trkpt lat="42.6462795" lon="11.986723"><ele>361.0</ele><time>2026-04-19T09:15:09.081Z</time></trkpt><trkpt lat="42.6462821" lon="11.9865696"><ele>361.0</ele><time>2026-04-19T09:15:10.088Z</time></trkpt><trkpt lat="42.6462934" lon="11.9864211"><ele>361.0</ele><time>2026-04-19T09:15:11.082Z</time></trkpt><trkpt lat="42.6463095" lon="11.9862842"><ele>361.0</ele><time>2026-04-19T09:15:12.078Z</time></trkpt><trkpt lat="42.6463225" lon="11.986156"><ele>361.0</ele><time>2026-04-19T09:15:13.078Z</time></trkpt><trkpt lat="42.6463332" lon="11.9860311"><ele>361.0</ele><time>2026-04-19T09:15:14.081Z</time></trkpt><trkpt lat="42.6463431" lon="11.9859104"><ele>360.3333333333333</ele><time>2026-04-19T09:15:15.089Z</time></trkpt><trkpt lat="42.6463841" lon="11.985821"><ele>359.66666666666663</ele><time>2026-04-19T09:15:16.099Z</time></trkpt><trkpt lat="42.6464455" lon="11.9857472"><ele>359.0</ele><time>2026-04-19T09:15:17.094Z</time></trkpt><trkpt lat="42.6465262" lon="11.9857076"><ele>358.3333333333333</ele><time>2026-04-19T09:15:18.075Z</time></trkpt><trkpt lat="42.6466171" lon="11.9857044"><ele>357.6666666666667</ele><time>2026-04-19T09:15:19.101Z</time></trkpt><trkpt lat="42.6467209" lon="11.9857329"><ele>357.0</ele><time>2026-04-19T09:15:20.101Z</time></trkpt><trkpt lat="42.6468429" lon="11.9857839"><ele>359.25</ele><time>2026-04-19T09:15:21.109Z</time></trkpt><trkpt lat="42.6469802" lon="11.9858529"><ele>361.5</ele><time>2026-04-19T09:15:22.101Z</time></trkpt><trkpt lat="42.6471126" lon="11.9859364"><ele>363.75</ele><time>2026-04-19T09:15:23.099Z</time></trkpt><trkpt lat="42.6472407" lon="11.9860473"><ele>366.0</ele><time>2026-04-19T09:15:24.101Z</time></trkpt><trkpt lat="42.6473739" lon="11.9861887"><ele>366.0</ele><time>2026-04-19T09:15:25.094Z</time></trkpt><trkpt lat="42.647504" lon="11.9863393"><ele>366.0</ele><time>2026-04-19T09:15:26.093Z</time></trkpt><trkpt lat="42.6476262" lon="11.9864822"><ele>366.0</ele><time>2026-04-19T09:15:27.085Z</time></trkpt><trkpt lat="42.6477417" lon="11.9866124"><ele>367.25</ele><time>2026-04-19T09:15:28.097Z</time></trkpt><trkpt lat="42.647841" lon="11.9867283"><ele>368.5</ele><time>2026-04-19T09:15:29.079Z</time></trkpt><trkpt lat="42.647937" lon="11.9868183"><ele>369.75</ele><time>2026-04-19T09:15:30.071Z</time></trkpt><trkpt lat="42.6480235" lon="11.9868818"><ele>371.0</ele><time>2026-04-19T09:15:31.088Z</time></trkpt><trkpt lat="42.6481356" lon="11.9868528"><ele>371.0</ele><time>2026-04-19T09:15:32.078Z</time></trkpt><trkpt lat="42.6482724" lon="11.9867955"><ele>371.0</ele><time>2026-04-19T09:15:33.099Z</time></trkpt><trkpt lat="42.6483985" lon="11.9866596"><ele>371.0</ele><time>2026-04-19T09:15:34.098Z</time></trkpt><trkpt lat="42.6485391" lon="11.9864865"><ele>373.0</ele><time>2026-04-19T09:15:35.084Z</time></trkpt><trkpt lat="42.6486998" lon="11.9863527"><ele>375.0</ele><time>2026-04-19T09:15:36.075Z</time></trkpt><trkpt lat="42.6488418" lon="11.986236"><ele>377.0</ele><time>2026-04-19T09:15:37.096Z</time></trkpt><trkpt lat="42.6489569" lon="11.9861445"><ele>377.0</ele><time>2026-04-19T09:15:38.075Z</time></trkpt><trkpt lat="42.6490595" lon="11.9860626"><ele>377.0</ele><time>2026-04-19T09:15:39.091Z</time></trkpt><trkpt lat="42.6491546" lon="11.9859776"><ele>377.0</ele><time>2026-04-19T09:15:40.081Z</time></trkpt><trkpt lat="42.649256" lon="11.9858938"><ele>377.0</ele><time>2026-04-19T09:15:41.096Z</time></trkpt><trkpt lat="42.6493539" lon="11.98581"><ele>376.6</ele><time>2026-04-19T09:15:42.071Z</time></trkpt><trkpt lat="42.6494504" lon="11.9857273"><ele>376.20000000000005</ele><time>2026-04-19T09:15:43.091Z</time></trkpt><trkpt lat="42.6495422" lon="11.9856391"><ele>375.8</ele><time>2026-04-19T09:15:44.081Z</time></trkpt><trkpt lat="42.6496342" lon="11.9855559"><ele>375.4</ele><time>2026-04-19T09:15:45.074Z</time></trkpt><trkpt lat="42.6497188" lon="11.9854566"><ele>375.0</ele><time>2026-04-19T09:15:46.102Z</time></trkpt><trkpt lat="42.6498099" lon="11.9853541"><ele>375.5</ele><time>2026-04-19T09:15:47.092Z</time></trkpt><trkpt lat="42.6498999" lon="11.9852471"><ele>376.0</ele><time>2026-04-19T09:15:48.08Z</time></trkpt><trkpt lat="42.649988" lon="11.9851398"><ele>376.5</ele><time>2026-04-19T09:15:49.103Z</time></trkpt><trkpt lat="42.6500763" lon="11.9850333"><ele>377.0</ele><time>2026-04-19T09:15:50.099Z</time></trkpt><trkpt lat="42.6501673" lon="11.9849212"><ele>377.0</ele><time>2026-04-19T09:15:51.093Z</time></trkpt><trkpt lat="42.6502634" lon="11.9848043"><ele>377.0</ele><time>2026-04-19T09:15:52.088Z</time></trkpt><trkpt lat="42.6503567" lon="11.9846954"><ele>377.0</ele><time>2026-04-19T09:15:53.079Z</time></trkpt><trkpt lat="42.6504413" lon="11.9845935"><ele>377.0</ele><time>2026-04-19T09:15:54.089Z</time></trkpt><trkpt lat="42.6505156" lon="11.9845073"><ele>378.6</ele><time>2026-04-19T09:15:55.097Z</time></trkpt><trkpt lat="42.6505903" lon="11.984434"><ele>380.20000000000005</ele><time>2026-04-19T09:15:56.081Z</time></trkpt><trkpt lat="42.6506771" lon="11.9843742"><ele>381.8</ele><time>2026-04-19T09:15:57.1Z</time></trkpt><trkpt lat="42.6507755" lon="11.9843471"><ele>383.4</ele><time>2026-04-19T09:15:58.098Z</time></trkpt><trkpt lat="42.6508742" lon="11.9843709"><ele>385.0</ele><time>2026-04-19T09:15:59.101Z</time></trkpt><trkpt lat="42.6509573" lon="11.9844381"><ele>385.0</ele><time>2026-04-19T09:16:00.088Z</time></trkpt><trkpt lat="42.6510077" lon="11.9845393"><ele>385.0</ele><time>2026-04-19T09:16:01.116Z</time></trkpt><trkpt lat="42.6510192" lon="11.9846589"><ele>385.0</ele><time>2026-04-19T09:16:02.096Z</time></trkpt><trkpt lat="42.6509979" lon="11.9847806"><ele>385.0</ele><time>2026-04-19T09:16:03.105Z</time></trkpt><trkpt lat="42.6509533" lon="11.9848973"><ele>385.0</ele><time>2026-04-19T09:16:04.097Z</time></trkpt><trkpt lat="42.6508805" lon="11.9850391"><ele>387.33333333333337</ele><time>2026-04-19T09:16:05.091Z</time></trkpt><trkpt lat="42.6507712" lon="11.9851968"><ele>389.66666666666663</ele><time>2026-04-19T09:16:06.076Z</time></trkpt><trkpt lat="42.6506412" lon="11.9853691"><ele>392.0</ele><time>2026-04-19T09:16:07.083Z</time></trkpt><trkpt lat="42.6505028" lon="11.9855443"><ele>392.0</ele><time>2026-04-19T09:16:08.101Z</time></trkpt><trkpt lat="42.6503627" lon="11.9857324"><ele>392.0</ele><time>2026-04-19T09:16:09.101Z</time></trkpt><trkpt lat="42.6502351" lon="11.9859189"><ele>392.0</ele><time>2026-04-19T09:16:10.098Z</time></trkpt><trkpt lat="42.6501307" lon="11.9860872"><ele>391.66666666666663</ele><time>2026-04-19T09:16:11.093Z</time></trkpt><trkpt lat="42.6500764" lon="11.9862675"><ele>391.33333333333337</ele><time>2026-04-19T09:16:12.098Z</time></trkpt><trkpt lat="42.6500742" lon="11.9864679"><ele>391.0</ele><time>2026-04-19T09:16:13.08Z</time></trkpt><trkpt lat="42.6500902" lon="11.9866865"><ele>391.0</ele><time>2026-04-19T09:16:14.081Z</time></trkpt><trkpt lat="42.6501539" lon="11.9869378"><ele>391.0</ele><time>2026-04-19T09:16:15.079Z</time></trkpt><trkpt lat="42.6502266" lon="11.9871894"><ele>391.0</ele><time>2026-04-19T09:16:16.082Z</time></trkpt><trkpt lat="42.6503057" lon="11.9874181"><ele>393.6666666666667</ele><time>2026-04-19T09:16:17.093Z</time></trkpt><trkpt lat="42.6503579" lon="11.9876155"><ele>396.33333333333337</ele><time>2026-04-19T09:16:18.102Z</time></trkpt><trkpt lat="42.6503551" lon="11.9878212"><ele>399.0</ele><time>2026-04-19T09:16:19.079Z</time></trkpt><trkpt lat="42.6502648" lon="11.9880416"><ele>399.0</ele><time>2026-04-19T09:16:20.083Z</time></trkpt><trkpt lat="42.6501302" lon="11.9882665"><ele>399.0</ele><time>2026-04-19T09:16:21.102Z</time></trkpt><trkpt lat="42.6499512" lon="11.9884939"><ele>403.0</ele><time>2026-04-19T09:16:22.08Z</time></trkpt><trkpt lat="42.6497657" lon="11.9887461"><ele>407.0</ele><time>2026-04-19T09:16:23.077Z</time></trkpt><trkpt lat="42.649555" lon="11.9890018"><ele>407.5</ele><time>2026-04-19T09:16:24.097Z</time></trkpt><trkpt lat="42.6493698" lon="11.9892426"><ele>408.0</ele><time>2026-04-19T09:16:25.081Z</time></trkpt><trkpt lat="42.649214" lon="11.9894719"><ele>408.0</ele><time>2026-04-19T09:16:26.105Z</time></trkpt><trkpt lat="42.6490814" lon="11.9897249"><ele>408.0</ele><time>2026-04-19T09:16:27.08Z</time></trkpt><trkpt lat="42.6489757" lon="11.989973"><ele>408.0</ele><time>2026-04-19T09:16:28.095Z</time></trkpt><trkpt lat="42.6489" lon="11.990189"><ele>407.5</ele><time>2026-04-19T09:16:29.09Z</time></trkpt><trkpt lat="42.6488682" lon="11.9903795"><ele>407.0</ele><time>2026-04-19T09:16:30.095Z</time></trkpt><trkpt lat="42.6488929" lon="11.9905415"><ele>406.5</ele><time>2026-04-19T09:16:31.087Z</time></trkpt><trkpt lat="42.6489751" lon="11.9906857"><ele>406.0</ele><time>2026-04-19T09:16:32.099Z</time></trkpt><trkpt lat="42.6490969" lon="11.9908361"><ele>405.6666666666667</ele><time>2026-04-19T09:16:33.095Z</time></trkpt><trkpt lat="42.6491991" lon="11.9910278"><ele>405.33333333333337</ele><time>2026-04-19T09:16:34.081Z</time></trkpt><trkpt lat="42.6492884" lon="11.9912664"><ele>405.0</ele><time>2026-04-19T09:16:35.077Z</time></trkpt><trkpt lat="42.6494155" lon="11.9914944"><ele>412.5</ele><time>2026-04-19T09:16:36.095Z</time></trkpt><trkpt lat="42.6495873" lon="11.991694"><ele>420.0</ele><time>2026-04-19T09:16:37.099Z</time></trkpt><trkpt lat="42.6497724" lon="11.991871"><ele>420.0</ele><time>2026-04-19T09:16:38.085Z</time></trkpt><trkpt lat="42.6499523" lon="11.9920103"><ele>420.0</ele><time>2026-04-19T09:16:39.092Z</time></trkpt><trkpt lat="42.6501343" lon="11.9920801"><ele>420.0</ele><time>2026-04-19T09:16:40.075Z</time></trkpt><trkpt lat="42.6502968" lon="11.9920967"><ele>421.5</ele><time>2026-04-19T09:16:41.089Z</time></trkpt><trkpt lat="42.650439" lon="11.9920904"><ele>423.0</ele><time>2026-04-19T09:16:42.082Z</time></trkpt><trkpt lat="42.6505688" lon="11.9921396"><ele>424.5</ele><time>2026-04-19T09:16:43.106Z</time></trkpt><trkpt lat="42.6506708" lon="11.9922543"><ele>426.0</ele><time>2026-04-19T09:16:44.086Z</time></trkpt><trkpt lat="42.6507358" lon="11.9923962"><ele>428.75</ele><time>2026-04-19T09:16:45.097Z</time></trkpt><trkpt lat="42.65071" lon="11.9925715"><ele>431.5</ele><time>2026-04-19T09:16:46.102Z</time></trkpt><trkpt lat="42.650621" lon="11.9927126"><ele>434.25</ele><time>2026-04-19T09:16:47.094Z</time></trkpt><trkpt lat="42.6504864" lon="11.9928063"><ele>437.0</ele><time>2026-04-19T09:16:48.096Z</time></trkpt><trkpt lat="42.6503011" lon="11.9928358"><ele>435.3333333333333</ele><time>2026-04-19T09:16:49.09Z</time></trkpt><trkpt lat="42.6500932" lon="11.9928548"><ele>433.66666666666663</ele><time>2026-04-19T09:16:50.087Z</time></trkpt><trkpt lat="42.6499022" lon="11.992845"><ele>432.0</ele><time>2026-04-19T09:16:51.083Z</time></trkpt><trkpt lat="42.6497395" lon="11.9928301"><ele>432.0</ele><time>2026-04-19T09:16:52.097Z</time></trkpt><trkpt lat="42.6495963" lon="11.9928774"><ele>432.0</ele><time>2026-04-19T09:16:53.082Z</time></trkpt><trkpt lat="42.6494933" lon="11.9929968"><ele>432.0</ele><time>2026-04-19T09:16:54.077Z</time></trkpt><trkpt lat="42.6494131" lon="11.9931584"><ele>432.0</ele><time>2026-04-19T09:16:55.097Z</time></trkpt><trkpt lat="42.6493706" lon="11.9933791"><ele>432.33333333333337</ele><time>2026-04-19T09:16:56.09Z</time></trkpt><trkpt lat="42.6493119" lon="11.9936312"><ele>432.6666666666667</ele><time>2026-04-19T09:16:57.083Z</time></trkpt><trkpt lat="42.6492509" lon="11.9939064"><ele>433.0</ele><time>2026-04-19T09:16:58.088Z</time></trkpt><trkpt lat="42.6491989" lon="11.9942149"><ele>433.0</ele><time>2026-04-19T09:16:59.089Z</time></trkpt><trkpt lat="42.6491398" lon="11.9945429"><ele>433.0</ele><time>2026-04-19T09:17:00.083Z</time></trkpt><trkpt lat="42.6490639" lon="11.994882"><ele>436.5</ele><time>2026-04-19T09:17:01.122Z</time></trkpt><trkpt lat="42.6489913" lon="11.9951945"><ele>440.0</ele><time>2026-04-19T09:17:02.076Z</time></trkpt><trkpt lat="42.6489233" lon="11.9954896"><ele>440.0</ele><time>2026-04-19T09:17:03.1Z</time></trkpt><trkpt lat="42.6488629" lon="11.995754"><ele>440.0</ele><time>2026-04-19T09:17:04.085Z</time></trkpt><trkpt lat="42.6488412" lon="11.9960028"><ele>440.0</ele><time>2026-04-19T09:17:05.094Z</time></trkpt><trkpt lat="42.64888" lon="11.9962468"><ele>440.66666666666663</ele><time>2026-04-19T09:17:06.089Z</time></trkpt><trkpt lat="42.6489799" lon="11.9964837"><ele>441.33333333333337</ele><time>2026-04-19T09:17:07.072Z</time></trkpt><trkpt lat="42.6491004" lon="11.9967192"><ele>442.0</ele><time>2026-04-19T09:17:08.09Z</time></trkpt><trkpt lat="42.6492021" lon="11.9969886"><ele>443.33333333333337</ele><time>2026-04-19T09:17:09.078Z</time></trkpt><trkpt lat="42.6492556" lon="11.9972989"><ele>444.66666666666663</ele><time>2026-04-19T09:17:10.071Z</time></trkpt><trkpt lat="42.6492856" lon="11.9975674"><ele>446.0</ele><time>2026-04-19T09:17:11.096Z</time></trkpt><trkpt lat="42.6492983" lon="11.9978185"><ele>449.66666666666663</ele><time>2026-04-19T09:17:12.106Z</time></trkpt><trkpt lat="42.6492242" lon="11.9980353"><ele>453.33333333333337</ele><time>2026-04-19T09:17:13.1Z</time></trkpt><trkpt lat="42.6490989" lon="11.9981947"><ele>457.0</ele><time>2026-04-19T09:17:14.082Z</time></trkpt><trkpt lat="42.6489481" lon="11.9982758"><ele>457.0</ele><time>2026-04-19T09:17:15.11Z</time></trkpt><trkpt lat="42.6487695" lon="11.998275"><ele>457.0</ele><time>2026-04-19T09:17:16.102Z</time></trkpt><trkpt lat="42.648564" lon="11.998208"><ele>457.0</ele><time>2026-04-19T09:17:17.084Z</time></trkpt><trkpt lat="42.6483248" lon="11.9981176"><ele>457.0</ele><time>2026-04-19T09:17:18.093Z</time></trkpt><trkpt lat="42.6481092" lon="11.9980312"><ele>457.0</ele><time>2026-04-19T09:17:19.102Z</time></trkpt><trkpt lat="42.6479202" lon="11.9979791"><ele>457.0</ele><time>2026-04-19T09:17:20.084Z</time></trkpt><trkpt lat="42.6477397" lon="11.9979736"><ele>456.6666666666667</ele><time>2026-04-19T09:17:21.088Z</time></trkpt><trkpt lat="42.6475838" lon="11.9980268"><ele>456.33333333333337</ele><time>2026-04-19T09:17:22.077Z</time></trkpt><trkpt lat="42.6474372" lon="11.9981454"><ele>456.0</ele><time>2026-04-19T09:17:23.092Z</time></trkpt><trkpt lat="42.6472921" lon="11.9983175"><ele>457.33333333333337</ele><time>2026-04-19T09:17:24.08Z</time></trkpt><trkpt lat="42.6471367" lon="11.9985188"><ele>458.6666666666667</ele><time>2026-04-19T09:17:25.077Z</time></trkpt><trkpt lat="42.6469699" lon="11.998732"><ele>460.0</ele><time>2026-04-19T09:17:26.097Z</time></trkpt><trkpt lat="42.6468077" lon="11.9989284"><ele>460.0</ele><time>2026-04-19T09:17:27.094Z</time></trkpt><trkpt lat="42.6466606" lon="11.9991168"><ele>460.0</ele><time>2026-04-19T09:17:28.088Z</time></trkpt><trkpt lat="42.6465481" lon="11.9993146"><ele>460.0</ele><time>2026-04-19T09:17:29.091Z</time></trkpt><trkpt lat="42.6464922" lon="11.9995266"><ele>460.25</ele><time>2026-04-19T09:17:30.078Z</time></trkpt><trkpt lat="42.6465011" lon="11.9997327"><ele>460.5</ele><time>2026-04-19T09:17:31.088Z</time></trkpt><trkpt lat="42.6465673" lon="11.9998972"><ele>460.75</ele><time>2026-04-19T09:17:32.096Z</time></trkpt><trkpt lat="42.6466435" lon="12.0000452"><ele>461.0</ele><time>2026-04-19T09:17:33.096Z</time></trkpt><trkpt lat="42.6467951" lon="12.0001454"><ele>465.0</ele><time>2026-04-19T09:17:34.097Z</time></trkpt><trkpt lat="42.6469615" lon="12.0002482"><ele>469.0</ele><time>2026-04-19T09:17:35.075Z</time></trkpt><trkpt lat="42.6471068" lon="12.000394"><ele>473.0</ele><time>2026-04-19T09:17:36.087Z</time></trkpt><trkpt lat="42.6471937" lon="12.0005816"><ele>473.0</ele><time>2026-04-19T09:17:37.084Z</time></trkpt><trkpt lat="42.6472137" lon="12.0007854"><ele>473.0</ele><time>2026-04-19T09:17:38.089Z</time></trkpt><trkpt lat="42.6471664" lon="12.0009992"><ele>473.0</ele><time>2026-04-19T09:17:39.088Z</time></trkpt><trkpt lat="42.6470769" lon="12.0012396"><ele>473.5</ele><time>2026-04-19T09:17:40.081Z</time></trkpt><trkpt lat="42.6469668" lon="12.0015108"><ele>474.0</ele><time>2026-04-19T09:17:41.102Z</time></trkpt><trkpt lat="42.6468556" lon="12.0017883"><ele>468.5</ele><time>2026-04-19T09:17:42.087Z</time></trkpt><trkpt lat="42.6467489" lon="12.0020677"><ele>463.0</ele><time>2026-04-19T09:17:43.077Z</time></trkpt><trkpt lat="42.6466766" lon="12.0023908"><ele>467.5</ele><time>2026-04-19T09:17:44.084Z</time></trkpt><trkpt lat="42.6466276" lon="12.0027324"><ele>472.0</ele><time>2026-04-19T09:17:45.098Z</time></trkpt><trkpt lat="42.6466012" lon="12.0030926"><ele>475.5</ele><time>2026-04-19T09:17:46.082Z</time></trkpt><trkpt lat="42.6465966" lon="12.0034378"><ele>479.0</ele><time>2026-04-19T09:17:47.085Z</time></trkpt><trkpt lat="42.6465991" lon="12.0037574"><ele>479.0</ele><time>2026-04-19T09:17:48.085Z</time></trkpt><trkpt lat="42.6465965" lon="12.0040412"><ele>479.0</ele><time>2026-04-19T09:17:49.076Z</time></trkpt><trkpt lat="42.6465651" lon="12.0042874"><ele>479.0</ele><time>2026-04-19T09:17:50.075Z</time></trkpt><trkpt lat="42.6464843" lon="12.0044803"><ele>481.66666666666663</ele><time>2026-04-19T09:17:51.102Z</time></trkpt><trkpt lat="42.6463847" lon="12.0046586"><ele>484.33333333333337</ele><time>2026-04-19T09:17:52.086Z</time></trkpt><trkpt lat="42.6462118" lon="12.0047747"><ele>487.0</ele><time>2026-04-19T09:17:53.077Z</time></trkpt><trkpt lat="42.6460171" lon="12.0049177"><ele>482.0</ele><time>2026-04-19T09:17:54.075Z</time></trkpt><trkpt lat="42.6457981" lon="12.0051037"><ele>477.0</ele><time>2026-04-19T09:17:55.084Z</time></trkpt><trkpt lat="42.6455767" lon="12.0053026"><ele>477.0</ele><time>2026-04-19T09:17:56.08Z</time></trkpt><trkpt lat="42.6453654" lon="12.0054952"><ele>477.0</ele><time>2026-04-19T09:17:57.084Z</time></trkpt><trkpt lat="42.6451707" lon="12.0056723"><ele>479.0</ele><time>2026-04-19T09:17:58.078Z</time></trkpt><trkpt lat="42.6449911" lon="12.0058567"><ele>481.0</ele><time>2026-04-19T09:17:59.082Z</time></trkpt><trkpt lat="42.6448313" lon="12.0060751"><ele>481.0</ele><time>2026-04-19T09:18:00.086Z</time></trkpt><trkpt lat="42.6447008" lon="12.0063315"><ele>481.0</ele><time>2026-04-19T09:18:01.094Z</time></trkpt><trkpt lat="42.644612" lon="12.0066277"><ele>485.0</ele><time>2026-04-19T09:18:02.079Z</time></trkpt><trkpt lat="42.6445258" lon="12.0069368"><ele>489.0</ele><time>2026-04-19T09:18:03.082Z</time></trkpt><trkpt lat="42.6444724" lon="12.007298"><ele>486.5</ele><time>2026-04-19T09:18:04.086Z</time></trkpt><trkpt lat="42.6444198" lon="12.0076619"><ele>484.0</ele><time>2026-04-19T09:18:05.08Z</time></trkpt><trkpt lat="42.6443706" lon="12.00802"><ele>485.0</ele><time>2026-04-19T09:18:06.101Z</time></trkpt><trkpt lat="42.644329" lon="12.0083753"><ele>486.0</ele><time>2026-04-19T09:18:07.096Z</time></trkpt><trkpt lat="42.6442769" lon="12.0087124"><ele>486.0</ele><time>2026-04-19T09:18:08.075Z</time></trkpt><trkpt lat="42.6442268" lon="12.0090281"><ele>486.0</ele><time>2026-04-19T09:18:09.095Z</time></trkpt><trkpt lat="42.6441937" lon="12.0093315"><ele>487.66666666666663</ele><time>2026-04-19T09:18:10.091Z</time></trkpt><trkpt lat="42.6441976" lon="12.0096372"><ele>489.3333333333333</ele><time>2026-04-19T09:18:11.107Z</time></trkpt><trkpt lat="42.6442481" lon="12.0099224"><ele>491.0</ele><time>2026-04-19T09:18:12.109Z</time></trkpt><trkpt lat="42.6443496" lon="12.0101772"><ele>499.0</ele><time>2026-04-19T09:18:13.092Z</time></trkpt><trkpt lat="42.6444969" lon="12.010411"><ele>507.0</ele><time>2026-04-19T09:18:14.077Z</time></trkpt><trkpt lat="42.6446744" lon="12.0106412"><ele>504.5</ele><time>2026-04-19T09:18:15.103Z</time></trkpt><trkpt lat="42.6448547" lon="12.0108638"><ele>502.0</ele><time>2026-04-19T09:18:16.098Z</time></trkpt><trkpt lat="42.6450345" lon="12.0110559"><ele>502.0</ele><time>2026-04-19T09:18:17.096Z</time></trkpt><trkpt lat="42.6452072" lon="12.0111846"><ele>502.0</ele><time>2026-04-19T09:18:18.093Z</time></trkpt><trkpt lat="42.6454037" lon="12.0112564"><ele>502.0</ele><time>2026-04-19T09:18:19.08Z</time></trkpt><trkpt lat="42.6456131" lon="12.011277"><ele>505.0</ele><time>2026-04-19T09:18:20.099Z</time></trkpt><trkpt lat="42.6458216" lon="12.0112672"><ele>508.0</ele><time>2026-04-19T09:18:21.089Z</time></trkpt><trkpt lat="42.6460252" lon="12.011289"><ele>511.0</ele><time>2026-04-19T09:18:22.08Z</time></trkpt><trkpt lat="42.6462155" lon="12.0113638"><ele>511.33333333333337</ele><time>2026-04-19T09:18:23.091Z</time></trkpt><trkpt lat="42.6463837" lon="12.0115046"><ele>511.66666666666663</ele><time>2026-04-19T09:18:24.081Z</time></trkpt><trkpt lat="42.6465271" lon="12.0117046"><ele>512.0</ele><time>2026-04-19T09:18:25.081Z</time></trkpt><trkpt lat="42.6466491" lon="12.0119448"><ele>511.66666666666663</ele><time>2026-04-19T09:18:26.077Z</time></trkpt><trkpt lat="42.646737" lon="12.0122137"><ele>511.33333333333337</ele><time>2026-04-19T09:18:27.098Z</time></trkpt><trkpt lat="42.6467797" lon="12.0125112"><ele>511.0</ele><time>2026-04-19T09:18:28.101Z</time></trkpt><trkpt lat="42.6468078" lon="12.0128352"><ele>511.0</ele><time>2026-04-19T09:18:29.082Z</time></trkpt><trkpt lat="42.6468506" lon="12.013176"><ele>511.0</ele><time>2026-04-19T09:18:30.075Z</time></trkpt><trkpt lat="42.646911" lon="12.0135259"><ele>516.0</ele><time>2026-04-19T09:18:31.084Z</time></trkpt><trkpt lat="42.6469677" lon="12.0138586"><ele>521.0</ele><time>2026-04-19T09:18:32.08Z</time></trkpt><trkpt lat="42.6469956" lon="12.0141965"><ele>521.5</ele><time>2026-04-19T09:18:33.076Z</time></trkpt><trkpt lat="42.6469862" lon="12.014537"><ele>522.0</ele><time>2026-04-19T09:18:34.078Z</time></trkpt><trkpt lat="42.646942" lon="12.0148867"><ele>523.0</ele><time>2026-04-19T09:18:35.098Z</time></trkpt><trkpt lat="42.6468648" lon="12.0152429"><ele>524.0</ele><time>2026-04-19T09:18:36.105Z</time></trkpt><trkpt lat="42.6467522" lon="12.0155979"><ele>526.5</ele><time>2026-04-19T09:18:37.091Z</time></trkpt><trkpt lat="42.6466094" lon="12.0159266"><ele>529.0</ele><time>2026-04-19T09:18:38.087Z</time></trkpt><trkpt lat="42.6464526" lon="12.0162075"><ele>529.0</ele><time>2026-04-19T09:18:39.072Z</time></trkpt><trkpt lat="42.6462762" lon="12.0164284"><ele>529.0</ele><time>2026-04-19T09:18:40.095Z</time></trkpt><trkpt lat="42.6460937" lon="12.0166148"><ele>530.0</ele><time>2026-04-19T09:18:41.098Z</time></trkpt><trkpt lat="42.6458853" lon="12.0167326"><ele>531.0</ele><time>2026-04-19T09:18:42.098Z</time></trkpt><trkpt lat="42.6456974" lon="12.0168707"><ele>532.0</ele><time>2026-04-19T09:18:43.068Z</time></trkpt><trkpt lat="42.645532" lon="12.0170531"><ele>532.0</ele><time>2026-04-19T09:18:44.075Z</time></trkpt><trkpt lat="42.6454086" lon="12.0172916"><ele>532.0</ele><time>2026-04-19T09:18:45.095Z</time></trkpt><trkpt lat="42.6453279" lon="12.0175818"><ele>532.0</ele><time>2026-04-19T09:18:46.087Z</time></trkpt><trkpt lat="42.6452995" lon="12.0179191"><ele>530.5</ele><time>2026-04-19T09:18:47.079Z</time></trkpt><trkpt lat="42.6452918" lon="12.0182757"><ele>529.0</ele><time>2026-04-19T09:18:48.072Z</time></trkpt><trkpt lat="42.6452916" lon="12.0186434"><ele>532.0</ele><time>2026-04-19T09:18:49.087Z</time></trkpt><trkpt lat="42.6452901" lon="12.0190166"><ele>535.0</ele><time>2026-04-19T09:18:50.092Z</time></trkpt><trkpt lat="42.6452924" lon="12.0193943"><ele>537.5</ele><time>2026-04-19T09:18:51.097Z</time></trkpt><trkpt lat="42.6452843" lon="12.0197502"><ele>540.0</ele><time>2026-04-19T09:18:52.102Z</time></trkpt><trkpt lat="42.6452393" lon="12.0200715"><ele>542.3333333333334</ele><time>2026-04-19T09:18:53.088Z</time></trkpt><trkpt lat="42.6451458" lon="12.020351"><ele>544.6666666666667</ele><time>2026-04-19T09:18:54.08Z</time></trkpt><trkpt lat="42.6450084" lon="12.0205845"><ele>547.0</ele><time>2026-04-19T09:18:55.084Z</time></trkpt><trkpt lat="42.644839" lon="12.0207537"><ele>548.3333333333334</ele><time>2026-04-19T09:18:56.072Z</time></trkpt><trkpt lat="42.6446504" lon="12.0208956"><ele>549.6666666666666</ele><time>2026-04-19T09:18:57.07Z</time></trkpt><trkpt lat="42.6444787" lon="12.0210492"><ele>551.0</ele><time>2026-04-19T09:18:58.082Z</time></trkpt><trkpt lat="42.6443353" lon="12.021216"><ele>554.3333333333333</ele><time>2026-04-19T09:18:59.08Z</time></trkpt><trkpt lat="42.6442146" lon="12.0213999"><ele>557.6666666666666</ele><time>2026-04-19T09:19:00.087Z</time></trkpt><trkpt lat="42.6441187" lon="12.021595"><ele>561.0</ele><time>2026-04-19T09:19:01.078Z</time></trkpt><trkpt lat="42.6440449" lon="12.0217904"><ele>562.0</ele><time>2026-04-19T09:19:02.099Z</time></trkpt><trkpt lat="42.6439748" lon="12.0219828"><ele>563.0</ele><time>2026-04-19T09:19:03.098Z</time></trkpt><trkpt lat="42.6439526" lon="12.0222253"><ele>564.0</ele><time>2026-04-19T09:19:04.094Z</time></trkpt><trkpt lat="42.643939" lon="12.0225069"><ele>565.5</ele><time>2026-04-19T09:19:05.089Z</time></trkpt><trkpt lat="42.6439029" lon="12.0228192"><ele>567.0</ele><time>2026-04-19T09:19:06.09Z</time></trkpt><trkpt lat="42.6438685" lon="12.0231688"><ele>569.0</ele><time>2026-04-19T09:19:07.097Z</time></trkpt><trkpt lat="42.6438422" lon="12.0235396"><ele>571.0</ele><time>2026-04-19T09:19:08.103Z</time></trkpt><trkpt lat="42.6438133" lon="12.0239377"><ele>573.0</ele><time>2026-04-19T09:19:09.113Z</time></trkpt><trkpt lat="42.6437823" lon="12.024352"><ele>575.0</ele><time>2026-04-19T09:19:10.093Z</time></trkpt><trkpt lat="42.6437514" lon="12.0247779"><ele>578.0</ele><time>2026-04-19T09:19:11.073Z</time></trkpt><trkpt lat="42.6437186" lon="12.025202"><ele>581.0</ele><time>2026-04-19T09:19:12.067Z</time></trkpt><trkpt lat="42.643687" lon="12.0255993"><ele>581.0</ele><time>2026-04-19T09:19:13.069Z</time></trkpt><trkpt lat="42.6436607" lon="12.0259705"><ele>581.0</ele><time>2026-04-19T09:19:14.072Z</time></trkpt><trkpt lat="42.6436355" lon="12.0263175"><ele>582.5</ele><time>2026-04-19T09:19:15.104Z</time></trkpt><trkpt lat="42.6436001" lon="12.0266603"><ele>584.0</ele><time>2026-04-19T09:19:16.079Z</time></trkpt><trkpt lat="42.6435486" lon="12.0270143"><ele>584.0</ele><time>2026-04-19T09:19:17.079Z</time></trkpt><trkpt lat="42.6434732" lon="12.0273781"><ele>584.0</ele><time>2026-04-19T09:19:18.083Z</time></trkpt><trkpt lat="42.6433788" lon="12.0277397"><ele>587.0</ele><time>2026-04-19T09:19:19.096Z</time></trkpt><trkpt lat="42.6432789" lon="12.0280738"><ele>590.0</ele><time>2026-04-19T09:19:20.087Z</time></trkpt><trkpt lat="42.6431797" lon="12.0283994"><ele>590.5</ele><time>2026-04-19T09:19:21.08Z</time></trkpt><trkpt lat="42.6430883" lon="12.0287085"><ele>591.0</ele><time>2026-04-19T09:19:22.087Z</time></trkpt><trkpt lat="42.6429932" lon="12.0290024"><ele>590.6666666666666</ele><time>2026-04-19T09:19:23.08Z</time></trkpt><trkpt lat="42.6429072" lon="12.0292891"><ele>590.3333333333333</ele><time>2026-04-19T09:19:24.107Z</time></trkpt><trkpt lat="42.6428328" lon="12.0295644"><ele>590.0</ele><time>2026-04-19T09:19:25.085Z</time></trkpt><trkpt lat="42.6427793" lon="12.0298376"><ele>590.0</ele><time>2026-04-19T09:19:26.104Z</time></trkpt><trkpt lat="42.6427615" lon="12.030105"><ele>590.0</ele><time>2026-04-19T09:19:27.103Z</time></trkpt><trkpt lat="42.6427887" lon="12.0303591"><ele>590.0</ele><time>2026-04-19T09:19:28.093Z</time></trkpt><trkpt lat="42.6428545" lon="12.0306022"><ele>587.3333333333333</ele><time>2026-04-19T09:19:29.095Z</time></trkpt><trkpt lat="42.6429446" lon="12.030844"><ele>584.6666666666666</ele><time>2026-04-19T09:19:30.093Z</time></trkpt><trkpt lat="42.6430377" lon="12.0310944"><ele>582.0</ele><time>2026-04-19T09:19:31.102Z</time></trkpt><trkpt lat="42.6431191" lon="12.0313604"><ele>581.6666666666666</ele><time>2026-04-19T09:19:32.089Z</time></trkpt><trkpt lat="42.643183" lon="12.0316405"><ele>581.3333333333333</ele><time>2026-04-19T09:19:33.111Z</time></trkpt><trkpt lat="42.6432301" lon="12.0319318"><ele>581.0</ele><time>2026-04-19T09:19:34.074Z</time></trkpt><trkpt lat="42.643269" lon="12.0322294"><ele>580.3333333333333</ele><time>2026-04-19T09:19:35.076Z</time></trkpt><trkpt lat="42.6433081" lon="12.0325278"><ele>579.6666666666666</ele><time>2026-04-19T09:19:36.085Z</time></trkpt><trkpt lat="42.6433447" lon="12.0328079"><ele>579.0</ele><time>2026-04-19T09:19:37.071Z</time></trkpt><trkpt lat="42.6433754" lon="12.0330634"><ele>579.0</ele><time>2026-04-19T09:19:38.106Z</time></trkpt><trkpt lat="42.6434029" lon="12.0332975"><ele>579.0</ele><time>2026-04-19T09:19:39.084Z</time></trkpt><trkpt lat="42.6434263" lon="12.0335118"><ele>579.0</ele><time>2026-04-19T09:19:40.088Z</time></trkpt><trkpt lat="42.6434418" lon="12.0337004"><ele>578.0</ele><time>2026-04-19T09:19:41.086Z</time></trkpt><trkpt lat="42.6434478" lon="12.0338589"><ele>577.0</ele><time>2026-04-19T09:19:42.096Z</time></trkpt><trkpt lat="42.6434509" lon="12.0339803"><ele>576.0</ele><time>2026-04-19T09:19:43.088Z</time></trkpt><trkpt lat="42.6435051" lon="12.0341184"><ele>575.0</ele><time>2026-04-19T09:19:58.101Z</time></trkpt><trkpt lat="42.6436365" lon="12.0341483"><ele>574.5</ele><time>2026-04-19T09:20:00.082Z</time></trkpt><trkpt lat="42.6437444" lon="12.0341236"><ele>574.0</ele><time>2026-04-19T09:20:01.099Z</time></trkpt><trkpt lat="42.6438984" lon="12.0340841"><ele>573.5</ele><time>2026-04-19T09:20:02.092Z</time></trkpt><trkpt lat="42.6440759" lon="12.0340376"><ele>573.0</ele><time>2026-04-19T09:20:03.109Z</time></trkpt><trkpt lat="42.6442651" lon="12.0339695"><ele>573.0</ele><time>2026-04-19T09:20:04.099Z</time></trkpt><trkpt lat="42.6444311" lon="12.033892"><ele>573.0</ele><time>2026-04-19T09:20:05.107Z</time></trkpt><trkpt lat="42.6446065" lon="12.0338113"><ele>573.0</ele><time>2026-04-19T09:20:06.089Z</time></trkpt><trkpt lat="42.6448016" lon="12.0337147"><ele>571.5</ele><time>2026-04-19T09:20:07.074Z</time></trkpt><trkpt lat="42.6450249" lon="12.0335884"><ele>570.0</ele><time>2026-04-19T09:20:08.098Z</time></trkpt><trkpt lat="42.6452773" lon="12.0334252"><ele>568.5</ele><time>2026-04-19T09:20:09.08Z</time></trkpt><trkpt lat="42.645565" lon="12.0332395"><ele>567.0</ele><time>2026-04-19T09:20:10.085Z</time></trkpt><trkpt lat="42.6458788" lon="12.0330375"><ele>566.5</ele><time>2026-04-19T09:20:11.098Z</time></trkpt><trkpt lat="42.6462144" lon="12.0328299"><ele>566.0</ele><time>2026-04-19T09:20:12.091Z</time></trkpt><trkpt lat="42.6465718" lon="12.0326026"><ele>565.0</ele><time>2026-04-19T09:20:13.099Z</time></trkpt><trkpt lat="42.6469385" lon="12.0323553"><ele>564.0</ele><time>2026-04-19T09:20:14.1Z</time></trkpt><trkpt lat="42.6473128" lon="12.0320849"><ele>564.0</ele><time>2026-04-19T09:20:15.103Z</time></trkpt><trkpt lat="42.6476915" lon="12.031793"><ele>564.0</ele><time>2026-04-19T09:20:16.099Z</time></trkpt><trkpt lat="42.6480614" lon="12.0314977"><ele>562.5</ele><time>2026-04-19T09:20:17.101Z</time></trkpt><trkpt lat="42.6484207" lon="12.0312401"><ele>561.0</ele><time>2026-04-19T09:20:18.102Z</time></trkpt><trkpt lat="42.648782" lon="12.0310153"><ele>561.0</ele><time>2026-04-19T09:20:19.087Z</time></trkpt><trkpt lat="42.6491462" lon="12.0308621"><ele>561.0</ele><time>2026-04-19T09:20:20.105Z</time></trkpt><trkpt lat="42.6495356" lon="12.030756"><ele>561.0</ele><time>2026-04-19T09:20:21.086Z</time></trkpt><trkpt lat="42.6499421" lon="12.030704"><ele>561.0</ele><time>2026-04-19T09:20:22.096Z</time></trkpt><trkpt lat="42.6503636" lon="12.0307063"><ele>560.5</ele><time>2026-04-19T09:20:23.091Z</time></trkpt><trkpt lat="42.6507891" lon="12.0307623"><ele>560.0</ele><time>2026-04-19T09:20:24.08Z</time></trkpt><trkpt lat="42.6512221" lon="12.0308361"><ele>560.0</ele><time>2026-04-19T09:20:25.091Z</time></trkpt><trkpt lat="42.6516606" lon="12.0309204"><ele>560.0</ele><time>2026-04-19T09:20:26.113Z</time></trkpt><trkpt lat="42.6521079" lon="12.0310076"><ele>559.0</ele><time>2026-04-19T09:20:27.091Z</time></trkpt><trkpt lat="42.6525601" lon="12.0310948"><ele>556.0</ele><time>2026-04-19T09:20:28.091Z</time></trkpt><trkpt lat="42.6530027" lon="12.0311774"><ele>553.0</ele><time>2026-04-19T09:20:29.097Z</time></trkpt><trkpt lat="42.6534362" lon="12.0312606"><ele>551.5</ele><time>2026-04-19T09:20:30.105Z</time></trkpt><trkpt lat="42.6538645" lon="12.031344"><ele>550.0</ele><time>2026-04-19T09:20:31.117Z</time></trkpt><trkpt lat="42.6542912" lon="12.0314277"><ele>548.0</ele><time>2026-04-19T09:20:32.092Z</time></trkpt><trkpt lat="42.6547165" lon="12.0315067"><ele>546.0</ele><time>2026-04-19T09:20:33.102Z</time></trkpt><trkpt lat="42.6551439" lon="12.0315771"><ele>546.0</ele><time>2026-04-19T09:20:34.081Z</time></trkpt><trkpt lat="42.6555779" lon="12.0316318"><ele>546.0</ele><time>2026-04-19T09:20:35.091Z</time></trkpt><trkpt lat="42.6560236" lon="12.0316657"><ele>545.0</ele><time>2026-04-19T09:20:36.088Z</time></trkpt><trkpt lat="42.6564808" lon="12.0316815"><ele>545.0</ele><time>2026-04-19T09:20:37.102Z</time></trkpt><trkpt lat="42.6569475" lon="12.0316858"><ele>541.0</ele><time>2026-04-19T09:20:38.079Z</time></trkpt><trkpt lat="42.6574228" lon="12.0316848"><ele>540.0</ele><time>2026-04-19T09:20:39.082Z</time></trkpt><trkpt lat="42.6578944" lon="12.031683"><ele>540.0</ele><time>2026-04-19T09:20:40.085Z</time></trkpt><trkpt lat="42.6583461" lon="12.0316818"><ele>540.5</ele><time>2026-04-19T09:20:41.077Z</time></trkpt><trkpt lat="42.6587671" lon="12.0316814"><ele>541.0</ele><time>2026-04-19T09:20:42.092Z</time></trkpt><trkpt lat="42.6591683" lon="12.031686"><ele>543.0</ele><time>2026-04-19T09:20:43.074Z</time></trkpt><trkpt lat="42.6595549" lon="12.0316856"><ele>545.0</ele><time>2026-04-19T09:20:44.103Z</time></trkpt><trkpt lat="42.659916" lon="12.0316821"><ele>545.0</ele><time>2026-04-19T09:20:45.091Z</time></trkpt><trkpt lat="42.6602601" lon="12.0316779"><ele>545.0</ele><time>2026-04-19T09:20:46.067Z</time></trkpt><trkpt lat="42.660606" lon="12.0316709"><ele>545.5</ele><time>2026-04-19T09:20:47.082Z</time></trkpt><trkpt lat="42.6609618" lon="12.0316615"><ele>546.0</ele><time>2026-04-19T09:20:48.087Z</time></trkpt><trkpt lat="42.6613341" lon="12.0316526"><ele>546.0</ele><time>2026-04-19T09:20:49.099Z</time></trkpt><trkpt lat="42.6617203" lon="12.0316493"><ele>546.0</ele><time>2026-04-19T09:20:50.083Z</time></trkpt><trkpt lat="42.6621222" lon="12.0316664"><ele>544.0</ele><time>2026-04-19T09:20:51.076Z</time></trkpt><trkpt lat="42.6625246" lon="12.0316977"><ele>542.0</ele><time>2026-04-19T09:20:52.089Z</time></trkpt><trkpt lat="42.6629043" lon="12.0317574"><ele>542.0</ele><time>2026-04-19T09:20:53.089Z</time></trkpt><trkpt lat="42.6632654" lon="12.0318287"><ele>542.0</ele><time>2026-04-19T09:20:54.079Z</time></trkpt><trkpt lat="42.6635958" lon="12.0318923"><ele>540.5</ele><time>2026-04-19T09:20:55.07Z</time></trkpt><trkpt lat="42.6639317" lon="12.0319624"><ele>539.0</ele><time>2026-04-19T09:20:56.102Z</time></trkpt><trkpt lat="42.6642803" lon="12.0320257"><ele>535.5</ele><time>2026-04-19T09:20:57.096Z</time></trkpt><trkpt lat="42.6646429" lon="12.0320962"><ele>532.0</ele><time>2026-04-19T09:20:58.085Z</time></trkpt><trkpt lat="42.6650217" lon="12.032172"><ele>531.5</ele><time>2026-04-19T09:20:59.089Z</time></trkpt><trkpt lat="42.6654159" lon="12.0322547"><ele>531.0</ele><time>2026-04-19T09:21:00.082Z</time></trkpt><trkpt lat="42.6658211" lon="12.0323431"><ele>530.5</ele><time>2026-04-19T09:21:01.079Z</time></trkpt><trkpt lat="42.6662368" lon="12.0324304"><ele>530.0</ele><time>2026-04-19T09:21:02.093Z</time></trkpt><trkpt lat="42.6666596" lon="12.0325197"><ele>532.5</ele><time>2026-04-19T09:21:03.09Z</time></trkpt><trkpt lat="42.6670618" lon="12.0326042"><ele>535.0</ele><time>2026-04-19T09:21:04.08Z</time></trkpt><trkpt lat="42.6674397" lon="12.0326846"><ele>539.0</ele><time>2026-04-19T09:21:05.084Z</time></trkpt><trkpt lat="42.6677977" lon="12.0327509"><ele>543.0</ele><time>2026-04-19T09:21:06.075Z</time></trkpt><trkpt lat="42.6681491" lon="12.0327962"><ele>543.0</ele><time>2026-04-19T09:21:07.083Z</time></trkpt><trkpt lat="42.6684979" lon="12.0328008"><ele>543.0</ele><time>2026-04-19T09:21:08.083Z</time></trkpt><trkpt lat="42.6688416" lon="12.0327572"><ele>545.0</ele><time>2026-04-19T09:21:09.062Z</time></trkpt><trkpt lat="42.6691865" lon="12.0326645"><ele>547.0</ele><time>2026-04-19T09:21:10.076Z</time></trkpt><trkpt lat="42.6695348" lon="12.032521"><ele>548.5</ele><time>2026-04-19T09:21:11.079Z</time></trkpt><trkpt lat="42.6698885" lon="12.0323325"><ele>550.0</ele><time>2026-04-19T09:21:12.08Z</time></trkpt><trkpt lat="42.6702369" lon="12.0321247"><ele>550.5</ele><time>2026-04-19T09:21:13.078Z</time></trkpt><trkpt lat="42.6705812" lon="12.0319362"><ele>551.0</ele><time>2026-04-19T09:21:14.086Z</time></trkpt><trkpt lat="42.6709243" lon="12.0317946"><ele>554.0</ele><time>2026-04-19T09:21:15.089Z</time></trkpt><trkpt lat="42.671264" lon="12.0317128"><ele>557.0</ele><time>2026-04-19T09:21:16.092Z</time></trkpt><trkpt lat="42.6715996" lon="12.0316929"><ele>557.0</ele><time>2026-04-19T09:21:17.079Z</time></trkpt><trkpt lat="42.6719363" lon="12.0317296"><ele>557.0</ele><time>2026-04-19T09:21:18.066Z</time></trkpt><trkpt lat="42.6722799" lon="12.031798"><ele>558.5</ele><time>2026-04-19T09:21:19.078Z</time></trkpt><trkpt lat="42.6726364" lon="12.03187"><ele>560.0</ele><time>2026-04-19T09:21:20.076Z</time></trkpt><trkpt lat="42.6730077" lon="12.0319182"><ele>561.0</ele><time>2026-04-19T09:21:21.1Z</time></trkpt><trkpt lat="42.6733888" lon="12.0319396"><ele>562.0</ele><time>2026-04-19T09:21:22.097Z</time></trkpt><trkpt lat="42.6737826" lon="12.0319341"><ele>563.5</ele><time>2026-04-19T09:21:23.083Z</time></trkpt><trkpt lat="42.6741842" lon="12.0318993"><ele>565.0</ele><time>2026-04-19T09:21:24.06Z</time></trkpt><trkpt lat="42.6745846" lon="12.0318602"><ele>568.0</ele><time>2026-04-19T09:21:25.07Z</time></trkpt><trkpt lat="42.6749603" lon="12.0318448"><ele>571.0</ele><time>2026-04-19T09:21:26.085Z</time></trkpt><trkpt lat="42.6753068" lon="12.0318599"><ele>573.5</ele><time>2026-04-19T09:21:27.084Z</time></trkpt><trkpt lat="42.6756299" lon="12.0319057"><ele>576.0</ele><time>2026-04-19T09:21:28.086Z</time></trkpt><trkpt lat="42.6759316" lon="12.0319713"><ele>577.0</ele><time>2026-04-19T09:21:29.08Z</time></trkpt><trkpt lat="42.6762205" lon="12.0320487"><ele>578.0</ele><time>2026-04-19T09:21:30.083Z</time></trkpt><trkpt lat="42.676503" lon="12.0321328"><ele>578.0</ele><time>2026-04-19T09:21:31.086Z</time></trkpt><trkpt lat="42.6767799" lon="12.0322164"><ele>578.0</ele><time>2026-04-19T09:21:32.079Z</time></trkpt><trkpt lat="42.6770547" lon="12.0322982"><ele>576.0</ele><time>2026-04-19T09:21:33.085Z</time></trkpt><trkpt lat="42.6773304" lon="12.0323807"><ele>574.0</ele><time>2026-04-19T09:21:34.081Z</time></trkpt><trkpt lat="42.6776074" lon="12.0324643"><ele>572.5</ele><time>2026-04-19T09:21:35.083Z</time></trkpt><trkpt lat="42.6778751" lon="12.032554"><ele>571.0</ele><time>2026-04-19T09:21:36.075Z</time></trkpt><trkpt lat="42.6781231" lon="12.0326702"><ele>571.0</ele><time>2026-04-19T09:21:37.076Z</time></trkpt><trkpt lat="42.678351" lon="12.0328233"><ele>571.0</ele><time>2026-04-19T09:21:38.086Z</time></trkpt><trkpt lat="42.6785576" lon="12.033032"><ele>570.0</ele><time>2026-04-19T09:21:39.085Z</time></trkpt><trkpt lat="42.6787368" lon="12.0332974"><ele>569.0</ele><time>2026-04-19T09:21:40.081Z</time></trkpt><trkpt lat="42.6788721" lon="12.0336105"><ele>568.0</ele><time>2026-04-19T09:21:41.086Z</time></trkpt><trkpt lat="42.6789621" lon="12.0339574"><ele>567.0</ele><time>2026-04-19T09:21:42.071Z</time></trkpt><trkpt lat="42.6790055" lon="12.0343384"><ele>567.0</ele><time>2026-04-19T09:21:43.09Z</time></trkpt><trkpt lat="42.6790025" lon="12.0347489"><ele>567.0</ele><time>2026-04-19T09:21:44.083Z</time></trkpt><trkpt lat="42.678963" lon="12.0351797"><ele>566.0</ele><time>2026-04-19T09:21:45.078Z</time></trkpt><trkpt lat="42.6789111" lon="12.035624"><ele>565.0</ele><time>2026-04-19T09:21:46.087Z</time></trkpt><trkpt lat="42.6788586" lon="12.0360743"><ele>563.0</ele><time>2026-04-19T09:21:47.08Z</time></trkpt><trkpt lat="42.6788019" lon="12.0365174"><ele>561.0</ele><time>2026-04-19T09:21:48.083Z</time></trkpt><trkpt lat="42.6787453" lon="12.0369503"><ele>559.5</ele><time>2026-04-19T09:21:49.078Z</time></trkpt><trkpt lat="42.6786938" lon="12.0373773"><ele>558.0</ele><time>2026-04-19T09:21:50.074Z</time></trkpt><trkpt lat="42.6786635" lon="12.0378012"><ele>557.0</ele><time>2026-04-19T09:21:51.075Z</time></trkpt><trkpt lat="42.678671" lon="12.038229"><ele>556.0</ele><time>2026-04-19T09:21:52.085Z</time></trkpt><trkpt lat="42.6787152" lon="12.0386651"><ele>554.5</ele><time>2026-04-19T09:21:53.063Z</time></trkpt><trkpt lat="42.6787897" lon="12.0391054"><ele>553.0</ele><time>2026-04-19T09:21:54.093Z</time></trkpt><trkpt lat="42.6788768" lon="12.0395461"><ele>553.0</ele><time>2026-04-19T09:21:55.084Z</time></trkpt><trkpt lat="42.6789641" lon="12.0399822"><ele>553.0</ele><time>2026-04-19T09:21:56.079Z</time></trkpt><trkpt lat="42.6790511" lon="12.0404094"><ele>552.0</ele><time>2026-04-19T09:21:57.08Z</time></trkpt><trkpt lat="42.6791343" lon="12.0408173"><ele>551.0</ele><time>2026-04-19T09:21:58.1Z</time></trkpt><trkpt lat="42.6792153" lon="12.0412043"><ele>551.0</ele><time>2026-04-19T09:21:59.095Z</time></trkpt><trkpt lat="42.6792857" lon="12.0415741"><ele>551.0</ele><time>2026-04-19T09:22:00.077Z</time></trkpt><trkpt lat="42.6793507" lon="12.0419366"><ele>550.0</ele><time>2026-04-19T09:22:01.083Z</time></trkpt><trkpt lat="42.6794432" lon="12.0422904"><ele>549.0</ele><time>2026-04-19T09:22:02.089Z</time></trkpt><trkpt lat="42.6795684" lon="12.0426357"><ele>547.5</ele><time>2026-04-19T09:22:03.067Z</time></trkpt><trkpt lat="42.6797225" lon="12.0429672"><ele>546.0</ele><time>2026-04-19T09:22:04.064Z</time></trkpt><trkpt lat="42.6798969" lon="12.0432821"><ele>547.0</ele><time>2026-04-19T09:22:05.088Z</time></trkpt><trkpt lat="42.6800853" lon="12.0435899"><ele>548.0</ele><time>2026-04-19T09:22:06.096Z</time></trkpt><trkpt lat="42.6802814" lon="12.0438954"><ele>545.0</ele><time>2026-04-19T09:22:07.06Z</time></trkpt><trkpt lat="42.6804824" lon="12.0442017"><ele>542.0</ele><time>2026-04-19T09:22:08.09Z</time></trkpt><trkpt lat="42.6806849" lon="12.0445133"><ele>542.0</ele><time>2026-04-19T09:22:09.09Z</time></trkpt><trkpt lat="42.6808879" lon="12.0448299"><ele>542.0</ele><time>2026-04-19T09:22:10.089Z</time></trkpt><trkpt lat="42.6810922" lon="12.0451486"><ele>539.5</ele><time>2026-04-19T09:22:11.078Z</time></trkpt><trkpt lat="42.6812957" lon="12.0454443"><ele>537.0</ele><time>2026-04-19T09:22:12.081Z</time></trkpt><trkpt lat="42.6815015" lon="12.0457298"><ele>537.0</ele><time>2026-04-19T09:22:13.084Z</time></trkpt><trkpt lat="42.6817137" lon="12.0460005"><ele>537.0</ele><time>2026-04-19T09:22:14.085Z</time></trkpt><trkpt lat="42.6819191" lon="12.0462445"><ele>537.0</ele><time>2026-04-19T09:22:15.075Z</time></trkpt><trkpt lat="42.6821207" lon="12.046472"><ele>537.0</ele><time>2026-04-19T09:22:16.068Z</time></trkpt><trkpt lat="42.6823137" lon="12.0466886"><ele>537.0</ele><time>2026-04-19T09:22:17.079Z</time></trkpt><trkpt lat="42.6825022" lon="12.0468935"><ele>537.0</ele><time>2026-04-19T09:22:18.08Z</time></trkpt><trkpt lat="42.6826786" lon="12.0470865"><ele>536.3333333333334</ele><time>2026-04-19T09:22:19.09Z</time></trkpt><trkpt lat="42.6828345" lon="12.0472725"><ele>535.6666666666667</ele><time>2026-04-19T09:22:20.076Z</time></trkpt><trkpt lat="42.6829664" lon="12.0474472"><ele>535.0</ele><time>2026-04-19T09:22:21.078Z</time></trkpt><trkpt lat="42.6830801" lon="12.0476167"><ele>535.0</ele><time>2026-04-19T09:22:22.093Z</time></trkpt><trkpt lat="42.68319" lon="12.0477918"><ele>535.0</ele><time>2026-04-19T09:22:23.088Z</time></trkpt><trkpt lat="42.6833033" lon="12.0479859"><ele>535.0</ele><time>2026-04-19T09:22:24.105Z</time></trkpt><trkpt lat="42.6834144" lon="12.0482215"><ele>534.5</ele><time>2026-04-19T09:22:25.106Z</time></trkpt><trkpt lat="42.6835344" lon="12.048489"><ele>534.0</ele><time>2026-04-19T09:22:26.093Z</time></trkpt><trkpt lat="42.6836793" lon="12.0487723"><ele>532.0</ele><time>2026-04-19T09:22:27.085Z</time></trkpt><trkpt lat="42.6838397" lon="12.0490646"><ele>530.0</ele><time>2026-04-19T09:22:28.073Z</time></trkpt><trkpt lat="42.6840177" lon="12.0493695"><ele>530.0</ele><time>2026-04-19T09:22:29.09Z</time></trkpt><trkpt lat="42.6842" lon="12.0496868"><ele>530.0</ele><time>2026-04-19T09:22:30.089Z</time></trkpt><trkpt lat="42.6843826" lon="12.0500336"><ele>529.0</ele><time>2026-04-19T09:22:31.087Z</time></trkpt><trkpt lat="42.6845666" lon="12.0503719"><ele>528.0</ele><time>2026-04-19T09:22:32.091Z</time></trkpt><trkpt lat="42.6847336" lon="12.0506952"><ele>528.5</ele><time>2026-04-19T09:22:33.085Z</time></trkpt><trkpt lat="42.6848832" lon="12.0510095"><ele>529.0</ele><time>2026-04-19T09:22:34.073Z</time></trkpt><trkpt lat="42.6850044" lon="12.051325"><ele>527.0</ele><time>2026-04-19T09:22:35.092Z</time></trkpt><trkpt lat="42.6851021" lon="12.05164"><ele>525.0</ele><time>2026-04-19T09:22:36.086Z</time></trkpt><trkpt lat="42.6851683" lon="12.0519681"><ele>525.0</ele><time>2026-04-19T09:22:37.069Z</time></trkpt><trkpt lat="42.6852174" lon="12.0523145"><ele>525.0</ele><time>2026-04-19T09:22:38.078Z</time></trkpt><trkpt lat="42.6852232" lon="12.052663"><ele>524.0</ele><time>2026-04-19T09:22:39.092Z</time></trkpt><trkpt lat="42.6852227" lon="12.0530018"><ele>523.0</ele><time>2026-04-19T09:22:40.094Z</time></trkpt><trkpt lat="42.6852165" lon="12.0533271"><ele>522.3333333333334</ele><time>2026-04-19T09:22:41.086Z</time></trkpt><trkpt lat="42.6852171" lon="12.053634"><ele>521.6666666666666</ele><time>2026-04-19T09:22:42.072Z</time></trkpt><trkpt lat="42.6852436" lon="12.0539133"><ele>521.0</ele><time>2026-04-19T09:22:43.081Z</time></trkpt><trkpt lat="42.6853056" lon="12.0541752"><ele>518.0</ele><time>2026-04-19T09:22:44.079Z</time></trkpt><trkpt lat="42.6854019" lon="12.054424"><ele>515.0</ele><time>2026-04-19T09:22:45.086Z</time></trkpt><trkpt lat="42.6855794" lon="12.0546505"><ele>515.0</ele><time>2026-04-19T09:22:46.066Z</time></trkpt><trkpt lat="42.6857647" lon="12.0549076"><ele>515.0</ele><time>2026-04-19T09:22:47.085Z</time></trkpt><trkpt lat="42.6859529" lon="12.0551954"><ele>515.5</ele><time>2026-04-19T09:22:48.08Z</time></trkpt><trkpt lat="42.6861495" lon="12.0554838"><ele>516.0</ele><time>2026-04-19T09:22:49.075Z</time></trkpt><trkpt lat="42.6863245" lon="12.0558044"><ele>516.0</ele><time>2026-04-19T09:22:50.074Z</time></trkpt><trkpt lat="42.6864963" lon="12.0561649"><ele>516.0</ele><time>2026-04-19T09:22:51.073Z</time></trkpt><trkpt lat="42.6866766" lon="12.0564781"><ele>516.0</ele><time>2026-04-19T09:22:52.085Z</time></trkpt><trkpt lat="42.6868704" lon="12.056761"><ele>516.0</ele><time>2026-04-19T09:22:53.098Z</time></trkpt><trkpt lat="42.6870478" lon="12.0570432"><ele>515.0</ele><time>2026-04-19T09:22:54.083Z</time></trkpt><trkpt lat="42.6872051" lon="12.0573495"><ele>514.0</ele><time>2026-04-19T09:22:55.08Z</time></trkpt><trkpt lat="42.6873323" lon="12.0576781"><ele>514.0</ele><time>2026-04-19T09:22:56.071Z</time></trkpt><trkpt lat="42.6874491" lon="12.05801"><ele>514.0</ele><time>2026-04-19T09:22:57.089Z</time></trkpt><trkpt lat="42.6875474" lon="12.0583453"><ele>514.0</ele><time>2026-04-19T09:22:58.078Z</time></trkpt><trkpt lat="42.6876419" lon="12.0586518"><ele>514.0</ele><time>2026-04-19T09:22:59.078Z</time></trkpt><trkpt lat="42.6877905" lon="12.0589153"><ele>514.5</ele><time>2026-04-19T09:23:00.091Z</time></trkpt><trkpt lat="42.6879771" lon="12.0591674"><ele>515.0</ele><time>2026-04-19T09:23:01.087Z</time></trkpt><trkpt lat="42.6881949" lon="12.0594208"><ele>515.0</ele><time>2026-04-19T09:23:02.082Z</time></trkpt><trkpt lat="42.6884318" lon="12.0596709"><ele>515.0</ele><time>2026-04-19T09:23:03.088Z</time></trkpt><trkpt lat="42.6886638" lon="12.0599241"><ele>512.5</ele><time>2026-04-19T09:23:04.078Z</time></trkpt><trkpt lat="42.6888766" lon="12.0601706"><ele>510.0</ele><time>2026-04-19T09:23:05.081Z</time></trkpt><trkpt lat="42.6890482" lon="12.0604422"><ele>510.0</ele><time>2026-04-19T09:23:06.09Z</time></trkpt><trkpt lat="42.6891937" lon="12.0607315"><ele>510.0</ele><time>2026-04-19T09:23:07.076Z</time></trkpt><trkpt lat="42.6892801" lon="12.061046"><ele>508.5</ele><time>2026-04-19T09:23:08.08Z</time></trkpt><trkpt lat="42.6893857" lon="12.0613595"><ele>507.0</ele><time>2026-04-19T09:23:09.084Z</time></trkpt><trkpt lat="42.6895138" lon="12.0616522"><ele>505.33333333333337</ele><time>2026-04-19T09:23:10.082Z</time></trkpt><trkpt lat="42.6896548" lon="12.0618901"><ele>503.6666666666667</ele><time>2026-04-19T09:23:11.092Z</time></trkpt><trkpt lat="42.6897788" lon="12.0620756"><ele>502.0</ele><time>2026-04-19T09:23:12.071Z</time></trkpt><trkpt lat="42.6899032" lon="12.0622201"><ele>502.0</ele><time>2026-04-19T09:23:13.087Z</time></trkpt><trkpt lat="42.6900279" lon="12.0623449"><ele>502.0</ele><time>2026-04-19T09:23:14.087Z</time></trkpt><trkpt lat="42.6901517" lon="12.0624594"><ele>502.0</ele><time>2026-04-19T09:23:15.078Z</time></trkpt><trkpt lat="42.6902718" lon="12.062564"><ele>502.0</ele><time>2026-04-19T09:23:16.083Z</time></trkpt><trkpt lat="42.6904005" lon="12.0626716"><ele>501.33333333333337</ele><time>2026-04-19T09:23:17.08Z</time></trkpt><trkpt lat="42.6905306" lon="12.0627821"><ele>500.66666666666663</ele><time>2026-04-19T09:23:18.086Z</time></trkpt><trkpt lat="42.6906625" lon="12.0628873"><ele>500.0</ele><time>2026-04-19T09:23:19.077Z</time></trkpt><trkpt lat="42.6907922" lon="12.0629909"><ele>500.0</ele><time>2026-04-19T09:23:20.094Z</time></trkpt><trkpt lat="42.6908985" lon="12.063092"><ele>500.0</ele><time>2026-04-19T09:23:21.087Z</time></trkpt><trkpt lat="42.6909965" lon="12.0631818"><ele>500.0</ele><time>2026-04-19T09:23:22.089Z</time></trkpt><trkpt lat="42.6910913" lon="12.0632574"><ele>500.0</ele><time>2026-04-19T09:23:23.087Z</time></trkpt><trkpt lat="42.6911861" lon="12.0633348"><ele>498.66666666666663</ele><time>2026-04-19T09:23:24.084Z</time></trkpt><trkpt lat="42.6913069" lon="12.0634235"><ele>497.33333333333337</ele><time>2026-04-19T09:23:25.077Z</time></trkpt><trkpt lat="42.6914464" lon="12.0635442"><ele>496.0</ele><time>2026-04-19T09:23:26.081Z</time></trkpt><trkpt lat="42.6915984" lon="12.0636897"><ele>496.0</ele><time>2026-04-19T09:23:27.075Z</time></trkpt><trkpt lat="42.6917772" lon="12.0638478"><ele>496.0</ele><time>2026-04-19T09:23:28.077Z</time></trkpt><trkpt lat="42.6919732" lon="12.0640076"><ele>496.0</ele><time>2026-04-19T09:23:29.088Z</time></trkpt><trkpt lat="42.6921955" lon="12.0641622"><ele>494.0</ele><time>2026-04-19T09:23:30.076Z</time></trkpt><trkpt lat="42.6924262" lon="12.0643122"><ele>492.0</ele><time>2026-04-19T09:23:31.081Z</time></trkpt><trkpt lat="42.6926962" lon="12.064426"><ele>490.0</ele><time>2026-04-19T09:23:32.087Z</time></trkpt><trkpt lat="42.6929824" lon="12.0645221"><ele>488.0</ele><time>2026-04-19T09:23:33.078Z</time></trkpt><trkpt lat="42.693267" lon="12.0646073"><ele>488.0</ele><time>2026-04-19T09:23:34.082Z</time></trkpt><trkpt lat="42.6935493" lon="12.0646928"><ele>488.0</ele><time>2026-04-19T09:23:35.082Z</time></trkpt><trkpt lat="42.693822" lon="12.064787"><ele>487.0</ele><time>2026-04-19T09:23:36.074Z</time></trkpt><trkpt lat="42.6940752" lon="12.0649002"><ele>486.0</ele><time>2026-04-19T09:23:37.077Z</time></trkpt><trkpt lat="42.6943086" lon="12.065038"><ele>485.5</ele><time>2026-04-19T09:23:38.063Z</time></trkpt><trkpt lat="42.6945158" lon="12.0652132"><ele>485.0</ele><time>2026-04-19T09:23:39.068Z</time></trkpt><trkpt lat="42.6946985" lon="12.065408"><ele>485.0</ele><time>2026-04-19T09:23:40.06Z</time></trkpt><trkpt lat="42.6948648" lon="12.0656184"><ele>485.0</ele><time>2026-04-19T09:23:41.061Z</time></trkpt><trkpt lat="42.6950222" lon="12.0658499"><ele>484.5</ele><time>2026-04-19T09:23:42.059Z</time></trkpt><trkpt lat="42.6951723" lon="12.0660938"><ele>484.0</ele><time>2026-04-19T09:23:43.058Z</time></trkpt><trkpt lat="42.695314" lon="12.066335"><ele>483.0</ele><time>2026-04-19T09:23:44.059Z</time></trkpt><trkpt lat="42.6954487" lon="12.0665704"><ele>482.0</ele><time>2026-04-19T09:23:45.066Z</time></trkpt><trkpt lat="42.6955806" lon="12.0668019"><ele>481.0</ele><time>2026-04-19T09:23:46.065Z</time></trkpt><trkpt lat="42.6957103" lon="12.067031"><ele>481.0</ele><time>2026-04-19T09:23:47.068Z</time></trkpt><trkpt lat="42.6958398" lon="12.067256"><ele>481.0</ele><time>2026-04-19T09:23:48.061Z</time></trkpt><trkpt lat="42.6959762" lon="12.067494"><ele>481.0</ele><time>2026-04-19T09:23:49.061Z</time></trkpt><trkpt lat="42.6961331" lon="12.0677431"><ele>478.5</ele><time>2026-04-19T09:23:50.064Z</time></trkpt><trkpt lat="42.6963004" lon="12.0679907"><ele>476.0</ele><time>2026-04-19T09:23:51.08Z</time></trkpt><trkpt lat="42.6964695" lon="12.0682417"><ele>477.0</ele><time>2026-04-19T09:23:52.074Z</time></trkpt><trkpt lat="42.6966396" lon="12.0684985"><ele>478.0</ele><time>2026-04-19T09:23:53.059Z</time></trkpt><trkpt lat="42.6968067" lon="12.0687415"><ele>476.5</ele><time>2026-04-19T09:23:54.072Z</time></trkpt><trkpt lat="42.6969767" lon="12.0689826"><ele>475.0</ele><time>2026-04-19T09:23:55.073Z</time></trkpt><trkpt lat="42.6971519" lon="12.0692204"><ele>474.5</ele><time>2026-04-19T09:23:56.062Z</time></trkpt><trkpt lat="42.6973421" lon="12.0694431"><ele>474.0</ele><time>2026-04-19T09:23:57.059Z</time></trkpt><trkpt lat="42.6975406" lon="12.0696446"><ele>474.0</ele><time>2026-04-19T09:23:58.086Z</time></trkpt><trkpt lat="42.6977484" lon="12.0698142"><ele>474.0</ele><time>2026-04-19T09:23:59.079Z</time></trkpt><trkpt lat="42.697965" lon="12.0699504"><ele>471.66666666666663</ele><time>2026-04-19T09:24:00.076Z</time></trkpt><trkpt lat="42.6981664" lon="12.0700512"><ele>469.3333333333333</ele><time>2026-04-19T09:24:01.095Z</time></trkpt><trkpt lat="42.6983669" lon="12.0701363"><ele>467.0</ele><time>2026-04-19T09:24:02.082Z</time></trkpt><trkpt lat="42.6985653" lon="12.0702186"><ele>466.0</ele><time>2026-04-19T09:24:03.083Z</time></trkpt><trkpt lat="42.6987614" lon="12.070296"><ele>465.0</ele><time>2026-04-19T09:24:04.082Z</time></trkpt><trkpt lat="42.698955" lon="12.0703692"><ele>464.0</ele><time>2026-04-19T09:24:05.091Z</time></trkpt><trkpt lat="42.6991452" lon="12.0704412"><ele>464.0</ele><time>2026-04-19T09:24:06.076Z</time></trkpt><trkpt lat="42.6993347" lon="12.0705192"><ele>464.0</ele><time>2026-04-19T09:24:07.081Z</time></trkpt><trkpt lat="42.6995225" lon="12.0706151"><ele>464.0</ele><time>2026-04-19T09:24:08.077Z</time></trkpt><trkpt lat="42.6996997" lon="12.0707436"><ele>464.0</ele><time>2026-04-19T09:24:09.058Z</time></trkpt><trkpt lat="42.6998526" lon="12.0709112"><ele>464.0</ele><time>2026-04-19T09:24:10.069Z</time></trkpt><trkpt lat="42.6999801" lon="12.071133"><ele>464.0</ele><time>2026-04-19T09:24:11.067Z</time></trkpt><trkpt lat="42.7000778" lon="12.0714121"><ele>462.0</ele><time>2026-04-19T09:24:12.073Z</time></trkpt><trkpt lat="42.7001711" lon="12.0717076"><ele>460.0</ele><time>2026-04-19T09:24:13.08Z</time></trkpt><trkpt lat="42.7002363" lon="12.0720503"><ele>462.0</ele><time>2026-04-19T09:24:14.074Z</time></trkpt><trkpt lat="42.7002997" lon="12.0723915"><ele>464.0</ele><time>2026-04-19T09:24:15.091Z</time></trkpt><trkpt lat="42.7003628" lon="12.0727174"><ele>464.0</ele><time>2026-04-19T09:24:16.095Z</time></trkpt><trkpt lat="42.7004301" lon="12.0730424"><ele>464.0</ele><time>2026-04-19T09:24:17.067Z</time></trkpt><trkpt lat="42.7004924" lon="12.0734008"><ele>461.0</ele><time>2026-04-19T09:24:18.067Z</time></trkpt><trkpt lat="42.7005624" lon="12.0737778"><ele>458.0</ele><time>2026-04-19T09:24:19.067Z</time></trkpt><trkpt lat="42.7006364" lon="12.0741606"><ele>454.0</ele><time>2026-04-19T09:24:20.08Z</time></trkpt><trkpt lat="42.7007201" lon="12.0745469"><ele>450.0</ele><time>2026-04-19T09:24:21.087Z</time></trkpt><trkpt lat="42.7008028" lon="12.0749088"><ele>447.0</ele><time>2026-04-19T09:24:22.079Z</time></trkpt><trkpt lat="42.7008863" lon="12.0752563"><ele>444.0</ele><time>2026-04-19T09:24:23.077Z</time></trkpt><trkpt lat="42.700966" lon="12.0755987"><ele>443.5</ele><time>2026-04-19T09:24:24.077Z</time></trkpt><trkpt lat="42.7010393" lon="12.0759655"><ele>443.0</ele><time>2026-04-19T09:24:25.081Z</time></trkpt><trkpt lat="42.7011085" lon="12.0763587"><ele>437.5</ele><time>2026-04-19T09:24:26.073Z</time></trkpt><trkpt lat="42.7011813" lon="12.0767749"><ele>432.0</ele><time>2026-04-19T09:24:27.066Z</time></trkpt><trkpt lat="42.7012587" lon="12.077202"><ele>428.0</ele><time>2026-04-19T09:24:28.075Z</time></trkpt><trkpt lat="42.7013459" lon="12.0776294"><ele>424.0</ele><time>2026-04-19T09:24:29.08Z</time></trkpt><trkpt lat="42.7014153" lon="12.0780448"><ele>422.0</ele><time>2026-04-19T09:24:30.069Z</time></trkpt><trkpt lat="42.701477" lon="12.0784319"><ele>420.0</ele><time>2026-04-19T09:24:31.067Z</time></trkpt><trkpt lat="42.7015366" lon="12.0788038"><ele>419.5</ele><time>2026-04-19T09:24:32.085Z</time></trkpt><trkpt lat="42.7015718" lon="12.0791529"><ele>419.0</ele><time>2026-04-19T09:24:33.076Z</time></trkpt><trkpt lat="42.7015941" lon="12.0794896"><ele>419.0</ele><time>2026-04-19T09:24:34.074Z</time></trkpt><trkpt lat="42.7016218" lon="12.0797994"><ele>419.0</ele><time>2026-04-19T09:24:35.073Z</time></trkpt><trkpt lat="42.701686" lon="12.0800764"><ele>419.0</ele><time>2026-04-19T09:24:36.058Z</time></trkpt><trkpt lat="42.7018013" lon="12.0803206"><ele>420.0</ele><time>2026-04-19T09:24:37.054Z</time></trkpt><trkpt lat="42.7019583" lon="12.0805229"><ele>421.0</ele><time>2026-04-19T09:24:38.057Z</time></trkpt><trkpt lat="42.7021424" lon="12.0807167"><ele>422.0</ele><time>2026-04-19T09:24:39.061Z</time></trkpt><trkpt lat="42.702329" lon="12.0809092"><ele>415.5</ele><time>2026-04-19T09:24:40.062Z</time></trkpt><trkpt lat="42.702526" lon="12.0810733"><ele>409.0</ele><time>2026-04-19T09:24:41.056Z</time></trkpt><trkpt lat="42.7027473" lon="12.0811922"><ele>411.0</ele><time>2026-04-19T09:24:42.066Z</time></trkpt><trkpt lat="42.7029765" lon="12.0812926"><ele>413.0</ele><time>2026-04-19T09:24:43.062Z</time></trkpt><trkpt lat="42.7032164" lon="12.0813554"><ele>413.0</ele><time>2026-04-19T09:24:44.054Z</time></trkpt><trkpt lat="42.7034301" lon="12.0814368"><ele>413.0</ele><time>2026-04-19T09:24:45.061Z</time></trkpt><trkpt lat="42.7036342" lon="12.0815456"><ele>413.0</ele><time>2026-04-19T09:24:46.063Z</time></trkpt><trkpt lat="42.7038236" lon="12.0815757"><ele>413.0</ele><time>2026-04-19T09:24:47.067Z</time></trkpt><trkpt lat="42.704011" lon="12.081555"><ele>413.0</ele><time>2026-04-19T09:24:48.082Z</time></trkpt><trkpt lat="42.7042044" lon="12.0814755"><ele>413.0</ele><time>2026-04-19T09:24:49.058Z</time></trkpt><trkpt lat="42.704405" lon="12.0813469"><ele>403.5</ele><time>2026-04-19T09:24:50.076Z</time></trkpt><trkpt lat="42.7046299" lon="12.0812015"><ele>394.0</ele><time>2026-04-19T09:24:51.083Z</time></trkpt><trkpt lat="42.7048528" lon="12.0810492"><ele>394.0</ele><time>2026-04-19T09:24:52.094Z</time></trkpt><trkpt lat="42.705086" lon="12.0808936"><ele>394.0</ele><time>2026-04-19T09:24:53.09Z</time></trkpt><trkpt lat="42.7053152" lon="12.0807476"><ele>390.5</ele><time>2026-04-19T09:24:54.079Z</time></trkpt><trkpt lat="42.7055286" lon="12.0805886"><ele>387.0</ele><time>2026-04-19T09:24:55.084Z</time></trkpt><trkpt lat="42.7057177" lon="12.0803749"><ele>387.0</ele><time>2026-04-19T09:24:56.088Z</time></trkpt><trkpt lat="42.7058813" lon="12.0800903"><ele>387.0</ele><time>2026-04-19T09:24:57.075Z</time></trkpt><trkpt lat="42.706042" lon="12.0797853"><ele>380.0</ele><time>2026-04-19T09:24:58.091Z</time></trkpt><trkpt lat="42.7062003" lon="12.0794874"><ele>373.0</ele><time>2026-04-19T09:24:59.082Z</time></trkpt><trkpt lat="42.7063752" lon="12.0792314"><ele>382.0</ele><time>2026-04-19T09:25:00.077Z</time></trkpt><trkpt lat="42.7065438" lon="12.0790085"><ele>391.0</ele><time>2026-04-19T09:25:01.06Z</time></trkpt><trkpt lat="42.7067003" lon="12.0788076"><ele>391.0</ele><time>2026-04-19T09:25:02.072Z</time></trkpt><trkpt lat="42.7068351" lon="12.0786096"><ele>391.0</ele><time>2026-04-19T09:25:03.067Z</time></trkpt><trkpt lat="42.7069728" lon="12.0784196"><ele>391.0</ele><time>2026-04-19T09:25:04.064Z</time></trkpt><trkpt lat="42.7071651" lon="12.0783195"><ele>390.33333333333337</ele><time>2026-04-19T09:25:05.066Z</time></trkpt><trkpt lat="42.7073482" lon="12.0782432"><ele>389.66666666666663</ele><time>2026-04-19T09:25:06.077Z</time></trkpt><trkpt lat="42.707522" lon="12.0781837"><ele>389.0</ele><time>2026-04-19T09:25:07.083Z</time></trkpt><trkpt lat="42.7076799" lon="12.0781293"><ele>385.66666666666663</ele><time>2026-04-19T09:25:08.068Z</time></trkpt><trkpt lat="42.7078313" lon="12.0780822"><ele>382.3333333333333</ele><time>2026-04-19T09:25:09.062Z</time></trkpt><trkpt lat="42.7079799" lon="12.0780564"><ele>379.0</ele><time>2026-04-19T09:25:10.068Z</time></trkpt><trkpt lat="42.7081292" lon="12.078054"><ele>379.0</ele><time>2026-04-19T09:25:11.077Z</time></trkpt><trkpt lat="42.7082821" lon="12.0780677"><ele>379.0</ele><time>2026-04-19T09:25:12.067Z</time></trkpt><trkpt lat="42.7084365" lon="12.0780861"><ele>379.0</ele><time>2026-04-19T09:25:13.064Z</time></trkpt><trkpt lat="42.708606" lon="12.0780813"><ele>375.66666666666663</ele><time>2026-04-19T09:25:14.062Z</time></trkpt><trkpt lat="42.7088024" lon="12.0780448"><ele>372.3333333333333</ele><time>2026-04-19T09:25:15.06Z</time></trkpt><trkpt lat="42.7090114" lon="12.0779963"><ele>369.0</ele><time>2026-04-19T09:25:16.065Z</time></trkpt><trkpt lat="42.7092162" lon="12.0779449"><ele>363.0</ele><time>2026-04-19T09:25:17.069Z</time></trkpt><trkpt lat="42.7094176" lon="12.0778861"><ele>357.0</ele><time>2026-04-19T09:25:18.087Z</time></trkpt><trkpt lat="42.7095985" lon="12.0777807"><ele>351.0</ele><time>2026-04-19T09:25:19.068Z</time></trkpt><trkpt lat="42.7097513" lon="12.0776126"><ele>352.0</ele><time>2026-04-19T09:25:20.073Z</time></trkpt><trkpt lat="42.7098832" lon="12.0774164"><ele>353.0</ele><time>2026-04-19T09:25:21.08Z</time></trkpt><trkpt lat="42.7099686" lon="12.0772295"><ele>354.0</ele><time>2026-04-19T09:25:22.09Z</time></trkpt><trkpt lat="42.7100727" lon="12.077109"><ele>354.0</ele><time>2026-04-19T09:25:23.088Z</time></trkpt><trkpt lat="42.7101882" lon="12.0770704"><ele>354.0</ele><time>2026-04-19T09:25:24.074Z</time></trkpt><trkpt lat="42.7102982" lon="12.0771173"><ele>354.0</ele><time>2026-04-19T09:25:25.062Z</time></trkpt><trkpt lat="42.7103706" lon="12.0772243"><ele>354.0</ele><time>2026-04-19T09:25:26.09Z</time></trkpt><trkpt lat="42.7103811" lon="12.0773699"><ele>354.0</ele><time>2026-04-19T09:25:27.067Z</time></trkpt><trkpt lat="42.7103479" lon="12.0775108"><ele>353.0</ele><time>2026-04-19T09:25:28.068Z</time></trkpt><trkpt lat="42.7102642" lon="12.0776515"><ele>352.0</ele><time>2026-04-19T09:25:29.093Z</time></trkpt><trkpt lat="42.7101523" lon="12.077802"><ele>351.0</ele><time>2026-04-19T09:25:30.087Z</time></trkpt><trkpt lat="42.7100252" lon="12.077977"><ele>351.0</ele><time>2026-04-19T09:25:31.076Z</time></trkpt><trkpt lat="42.7098893" lon="12.0781681"><ele>351.0</ele><time>2026-04-19T09:25:32.077Z</time></trkpt><trkpt lat="42.7097323" lon="12.0783683"><ele>351.0</ele><time>2026-04-19T09:25:33.087Z</time></trkpt><trkpt lat="42.7095589" lon="12.0785555"><ele>351.6666666666667</ele><time>2026-04-19T09:25:34.075Z</time></trkpt><trkpt lat="42.7093902" lon="12.078714"><ele>352.33333333333337</ele><time>2026-04-19T09:25:35.094Z</time></trkpt><trkpt lat="42.7092295" lon="12.0788522"><ele>353.0</ele><time>2026-04-19T09:25:36.076Z</time></trkpt><trkpt lat="42.709077" lon="12.0789681"><ele>353.0</ele><time>2026-04-19T09:25:37.086Z</time></trkpt><trkpt lat="42.7089378" lon="12.0790656"><ele>353.0</ele><time>2026-04-19T09:25:38.087Z</time></trkpt><trkpt lat="42.7088198" lon="12.0791467"><ele>353.0</ele><time>2026-04-19T09:25:39.09Z</time></trkpt><trkpt lat="42.7087276" lon="12.0792301"><ele>353.0</ele><time>2026-04-19T09:25:40.085Z</time></trkpt><trkpt lat="42.7086625" lon="12.0793364"><ele>349.59999999999997</ele><time>2026-04-19T09:25:41.075Z</time></trkpt><trkpt lat="42.7086381" lon="12.0794612"><ele>346.2</ele><time>2026-04-19T09:25:42.08Z</time></trkpt><trkpt lat="42.7086605" lon="12.0795813"><ele>342.8</ele><time>2026-04-19T09:25:43.074Z</time></trkpt><trkpt lat="42.7087249" lon="12.0796737"><ele>339.4</ele><time>2026-04-19T09:25:44.069Z</time></trkpt><trkpt lat="42.7088271" lon="12.0797099"><ele>336.0</ele><time>2026-04-19T09:25:45.065Z</time></trkpt><trkpt lat="42.7089493" lon="12.0796793"><ele>336.0</ele><time>2026-04-19T09:25:46.069Z</time></trkpt><trkpt lat="42.7090835" lon="12.0796211"><ele>336.0</ele><time>2026-04-19T09:25:47.073Z</time></trkpt><trkpt lat="42.7092284" lon="12.079569"><ele>336.0</ele><time>2026-04-19T09:25:48.071Z</time></trkpt><trkpt lat="42.7093859" lon="12.0795193"><ele>334.6666666666667</ele><time>2026-04-19T09:25:49.068Z</time></trkpt><trkpt lat="42.7095701" lon="12.0795274"><ele>333.33333333333337</ele><time>2026-04-19T09:25:50.077Z</time></trkpt><trkpt lat="42.7097244" lon="12.0795287"><ele>332.0</ele><time>2026-04-19T09:25:51.07Z</time></trkpt><trkpt lat="42.7098799" lon="12.0795714"><ele>332.0</ele><time>2026-04-19T09:25:52.081Z</time></trkpt><trkpt lat="42.7100234" lon="12.0796543"><ele>332.0</ele><time>2026-04-19T09:25:53.081Z</time></trkpt><trkpt lat="42.7101551" lon="12.0797598"><ele>332.0</ele><time>2026-04-19T09:25:54.072Z</time></trkpt><trkpt lat="42.7102881" lon="12.0798575"><ele>330.75</ele><time>2026-04-19T09:25:55.061Z</time></trkpt><trkpt lat="42.7104195" lon="12.0799175"><ele>329.5</ele><time>2026-04-19T09:25:56.067Z</time></trkpt><trkpt lat="42.7105527" lon="12.0799392"><ele>328.25</ele><time>2026-04-19T09:25:57.06Z</time></trkpt><trkpt lat="42.7106792" lon="12.0799379"><ele>327.0</ele><time>2026-04-19T09:25:58.076Z</time></trkpt><trkpt lat="42.7108015" lon="12.0799268"><ele>325.40000000000003</ele><time>2026-04-19T09:25:59.059Z</time></trkpt><trkpt lat="42.7109061" lon="12.0799742"><ele>323.8</ele><time>2026-04-19T09:26:00.068Z</time></trkpt><trkpt lat="42.7109738" lon="12.0800839"><ele>322.2</ele><time>2026-04-19T09:26:01.06Z</time></trkpt><trkpt lat="42.7109863" lon="12.0802255"><ele>320.6</ele><time>2026-04-19T09:26:02.072Z</time></trkpt><trkpt lat="42.7109559" lon="12.0803831"><ele>319.0</ele><time>2026-04-19T09:26:03.065Z</time></trkpt><trkpt lat="42.7109147" lon="12.0805436"><ele>319.0</ele><time>2026-04-19T09:26:04.062Z</time></trkpt><trkpt lat="42.7108191" lon="12.0806812"><ele>319.0</ele><time>2026-04-19T09:26:05.074Z</time></trkpt><trkpt lat="42.7107165" lon="12.0807642"><ele>319.0</ele><time>2026-04-19T09:26:06.063Z</time></trkpt><trkpt lat="42.7105969" lon="12.0807736"><ele>319.0</ele><time>2026-04-19T09:26:07.07Z</time></trkpt><trkpt lat="42.710475" lon="12.0807267"><ele>319.0</ele><time>2026-04-19T09:26:08.07Z</time></trkpt><trkpt lat="42.7103499" lon="12.0806658"><ele>319.0</ele><time>2026-04-19T09:26:09.063Z</time></trkpt><trkpt lat="42.7102131" lon="12.0806252"><ele>319.0</ele><time>2026-04-19T09:26:10.067Z</time></trkpt><trkpt lat="42.7100704" lon="12.0806484"><ele>319.0</ele><time>2026-04-19T09:26:11.069Z</time></trkpt><trkpt lat="42.7099288" lon="12.0807163"><ele>316.5</ele><time>2026-04-19T09:26:12.06Z</time></trkpt><trkpt lat="42.7097987" lon="12.0808008"><ele>314.0</ele><time>2026-04-19T09:26:13.059Z</time></trkpt><trkpt lat="42.7096883" lon="12.0809038"><ele>311.5</ele><time>2026-04-19T09:26:14.082Z</time></trkpt><trkpt lat="42.7096058" lon="12.0810382"><ele>309.0</ele><time>2026-04-19T09:26:15.061Z</time></trkpt><trkpt lat="42.7095649" lon="12.0812036"><ele>309.0</ele><time>2026-04-19T09:26:16.069Z</time></trkpt><trkpt lat="42.7095793" lon="12.0813749"><ele>309.0</ele><time>2026-04-19T09:26:17.069Z</time></trkpt><trkpt lat="42.7096437" lon="12.081528"><ele>309.0</ele><time>2026-04-19T09:26:18.066Z</time></trkpt><trkpt lat="42.7097413" lon="12.081634"><ele>309.0</ele><time>2026-04-19T09:26:19.066Z</time></trkpt><trkpt lat="42.7098642" lon="12.0816818"><ele>307.5</ele><time>2026-04-19T09:26:20.071Z</time></trkpt><trkpt lat="42.7100056" lon="12.0816933"><ele>306.0</ele><time>2026-04-19T09:26:21.068Z</time></trkpt><trkpt lat="42.7101558" lon="12.0816881"><ele>304.5</ele><time>2026-04-19T09:26:22.081Z</time></trkpt><trkpt lat="42.7103095" lon="12.0816954"><ele>303.0</ele><time>2026-04-19T09:26:23.06Z</time></trkpt><trkpt lat="42.7104695" lon="12.0817386"><ele>303.0</ele><time>2026-04-19T09:26:24.069Z</time></trkpt><trkpt lat="42.7106247" lon="12.0818367"><ele>303.0</ele><time>2026-04-19T09:26:25.061Z</time></trkpt><trkpt lat="42.7107656" lon="12.0819661"><ele>303.0</ele><time>2026-04-19T09:26:26.074Z</time></trkpt><trkpt lat="42.7109046" lon="12.0820903"><ele>303.0</ele><time>2026-04-19T09:26:27.076Z</time></trkpt><trkpt lat="42.711045" lon="12.0821798"><ele>303.0</ele><time>2026-04-19T09:26:28.063Z</time></trkpt><trkpt lat="42.7111937" lon="12.0822097"><ele>303.0</ele><time>2026-04-19T09:26:29.063Z</time></trkpt><trkpt lat="42.7113519" lon="12.0822025"><ele>302.6666666666667</ele><time>2026-04-19T09:26:30.071Z</time></trkpt><trkpt lat="42.7115188" lon="12.0821947"><ele>302.33333333333337</ele><time>2026-04-19T09:26:31.071Z</time></trkpt><trkpt lat="42.7116942" lon="12.0821827"><ele>302.0</ele><time>2026-04-19T09:26:32.064Z</time></trkpt><trkpt lat="42.7118752" lon="12.0821333"><ele>297.33333333333337</ele><time>2026-04-19T09:26:33.071Z</time></trkpt><trkpt lat="42.712056" lon="12.082031"><ele>292.6666666666667</ele><time>2026-04-19T09:26:34.083Z</time></trkpt><trkpt lat="42.7122235" lon="12.0818832"><ele>288.0</ele><time>2026-04-19T09:26:35.071Z</time></trkpt><trkpt lat="42.7123814" lon="12.0817181"><ele>285.6666666666667</ele><time>2026-04-19T09:26:36.075Z</time></trkpt><trkpt lat="42.7125354" lon="12.081544"><ele>283.33333333333337</ele><time>2026-04-19T09:26:37.075Z</time></trkpt><trkpt lat="42.7127243" lon="12.0814042"><ele>281.0</ele><time>2026-04-19T09:26:38.067Z</time></trkpt><trkpt lat="42.7129124" lon="12.0812771"><ele>281.0</ele><time>2026-04-19T09:26:39.084Z</time></trkpt><trkpt lat="42.713082" lon="12.0811402"><ele>281.0</ele><time>2026-04-19T09:26:40.079Z</time></trkpt><trkpt lat="42.7132271" lon="12.0809981"><ele>281.0</ele><time>2026-04-19T09:26:41.072Z</time></trkpt><trkpt lat="42.7133441" lon="12.0808671"><ele>281.40000000000003</ele><time>2026-04-19T09:26:42.075Z</time></trkpt><trkpt lat="42.7134431" lon="12.0807522"><ele>281.8</ele><time>2026-04-19T09:26:43.07Z</time></trkpt><trkpt lat="42.7135158" lon="12.0806622"><ele>282.20000000000005</ele><time>2026-04-19T09:26:44.082Z</time></trkpt><trkpt lat="42.7135743" lon="12.080601"><ele>282.6</ele><time>2026-04-19T09:26:45.089Z</time></trkpt><trkpt lat="42.7136772" lon="12.0806339"><ele>283.0</ele><time>2026-04-19T09:26:47.073Z</time></trkpt><trkpt lat="42.7136828" lon="12.0807421"><ele>282.3333333333333</ele><time>2026-04-19T09:26:48.063Z</time></trkpt><trkpt lat="42.7136424" lon="12.0808918"><ele>281.6666666666667</ele><time>2026-04-19T09:26:49.059Z</time></trkpt><trkpt lat="42.7135388" lon="12.0810894"><ele>281.0</ele><time>2026-04-19T09:26:50.064Z</time></trkpt><trkpt lat="42.7133874" lon="12.0813404"><ele>276.5</ele><time>2026-04-19T09:26:51.07Z</time></trkpt><trkpt lat="42.7132102" lon="12.0816273"><ele>272.0</ele><time>2026-04-19T09:26:52.075Z</time></trkpt><trkpt lat="42.7130264" lon="12.0819199"><ele>272.0</ele><time>2026-04-19T09:26:53.07Z</time></trkpt><trkpt lat="42.7128669" lon="12.0821811"><ele>272.0</ele><time>2026-04-19T09:26:54.074Z</time></trkpt><trkpt lat="42.7127318" lon="12.0824035"><ele>274.33333333333337</ele><time>2026-04-19T09:26:55.076Z</time></trkpt><trkpt lat="42.7126082" lon="12.082607"><ele>276.6666666666667</ele><time>2026-04-19T09:26:56.068Z</time></trkpt><trkpt lat="42.7125031" lon="12.0827841"><ele>279.0</ele><time>2026-04-19T09:26:57.074Z</time></trkpt><trkpt lat="42.7124272" lon="12.0829466"><ele>279.0</ele><time>2026-04-19T09:26:58.078Z</time></trkpt><trkpt lat="42.7124014" lon="12.0831074"><ele>279.0</ele><time>2026-04-19T09:26:59.061Z</time></trkpt><trkpt lat="42.7124348" lon="12.0832466"><ele>279.0</ele><time>2026-04-19T09:27:00.066Z</time></trkpt><trkpt lat="42.7125158" lon="12.0833269"><ele>279.0</ele><time>2026-04-19T09:27:01.061Z</time></trkpt><trkpt lat="42.7126336" lon="12.0833397"><ele>279.0</ele><time>2026-04-19T09:27:02.071Z</time></trkpt><trkpt lat="42.712776" lon="12.0832782"><ele>275.6666666666667</ele><time>2026-04-19T09:27:03.059Z</time></trkpt><trkpt lat="42.7129228" lon="12.0831789"><ele>272.33333333333337</ele><time>2026-04-19T09:27:04.065Z</time></trkpt><trkpt lat="42.7130565" lon="12.0830798"><ele>269.0</ele><time>2026-04-19T09:27:05.068Z</time></trkpt><trkpt lat="42.7131834" lon="12.082977"><ele>269.0</ele><time>2026-04-19T09:27:06.067Z</time></trkpt><trkpt lat="42.7133149" lon="12.0828671"><ele>269.0</ele><time>2026-04-19T09:27:07.08Z</time></trkpt><trkpt lat="42.7134514" lon="12.0827468"><ele>269.0</ele><time>2026-04-19T09:27:08.069Z</time></trkpt><trkpt lat="42.7135859" lon="12.0826172"><ele>266.0</ele><time>2026-04-19T09:27:09.073Z</time></trkpt><trkpt lat="42.7137148" lon="12.0824804"><ele>263.0</ele><time>2026-04-19T09:27:10.064Z</time></trkpt><trkpt lat="42.713838" lon="12.0823457"><ele>260.0</ele><time>2026-04-19T09:27:11.076Z</time></trkpt><trkpt lat="42.7139565" lon="12.0822122"><ele>260.0</ele><time>2026-04-19T09:27:12.071Z</time></trkpt><trkpt lat="42.714072" lon="12.0820784"><ele>260.0</ele><time>2026-04-19T09:27:13.071Z</time></trkpt><trkpt lat="42.7141899" lon="12.0819423"><ele>260.0</ele><time>2026-04-19T09:27:14.058Z</time></trkpt><trkpt lat="42.714304" lon="12.0818052"><ele>257.25</ele><time>2026-04-19T09:27:15.073Z</time></trkpt><trkpt lat="42.7144103" lon="12.0816638"><ele>254.5</ele><time>2026-04-19T09:27:16.063Z</time></trkpt><trkpt lat="42.7145076" lon="12.0815168"><ele>251.75</ele><time>2026-04-19T09:27:17.072Z</time></trkpt><trkpt lat="42.7145979" lon="12.0813607"><ele>249.0</ele><time>2026-04-19T09:27:18.063Z</time></trkpt><trkpt lat="42.7146728" lon="12.0811955"><ele>248.75</ele><time>2026-04-19T09:27:19.077Z</time></trkpt><trkpt lat="42.7147204" lon="12.0810203"><ele>248.5</ele><time>2026-04-19T09:27:20.066Z</time></trkpt><trkpt lat="42.7147507" lon="12.0808465"><ele>248.25</ele><time>2026-04-19T09:27:21.067Z</time></trkpt><trkpt lat="42.7147489" lon="12.0806842"><ele>248.0</ele><time>2026-04-19T09:27:22.062Z</time></trkpt><trkpt lat="42.7147839" lon="12.0805562"><ele>248.0</ele><time>2026-04-19T09:27:23.072Z</time></trkpt><trkpt lat="42.7148507" lon="12.0804892"><ele>248.0</ele><time>2026-04-19T09:27:24.069Z</time></trkpt><trkpt lat="42.7149286" lon="12.0804943"><ele>248.0</ele><time>2026-04-19T09:27:25.068Z</time></trkpt><trkpt lat="42.7150067" lon="12.0805729"><ele>248.0</ele><time>2026-04-19T09:27:26.075Z</time></trkpt><trkpt lat="42.7150958" lon="12.0806982"><ele>248.0</ele><time>2026-04-19T09:27:27.074Z</time></trkpt><trkpt lat="42.7151662" lon="12.080887"><ele>248.0</ele><time>2026-04-19T09:27:28.063Z</time></trkpt><trkpt lat="42.7152155" lon="12.0811098"><ele>248.0</ele><time>2026-04-19T09:27:29.08Z</time></trkpt><trkpt lat="42.7152514" lon="12.0813461"><ele>248.0</ele><time>2026-04-19T09:27:30.07Z</time></trkpt><trkpt lat="42.7152734" lon="12.0815871"><ele>248.33333333333334</ele><time>2026-04-19T09:27:31.079Z</time></trkpt><trkpt lat="42.7152414" lon="12.0818526"><ele>248.66666666666669</ele><time>2026-04-19T09:27:32.076Z</time></trkpt><trkpt lat="42.7151968" lon="12.0820966"><ele>249.0</ele><time>2026-04-19T09:27:33.084Z</time></trkpt><trkpt lat="42.7151512" lon="12.0823464"><ele>247.33333333333331</ele><time>2026-04-19T09:27:34.089Z</time></trkpt><trkpt lat="42.7151183" lon="12.0825908"><ele>245.66666666666666</ele><time>2026-04-19T09:27:35.069Z</time></trkpt><trkpt lat="42.7150912" lon="12.0828291"><ele>244.0</ele><time>2026-04-19T09:27:36.083Z</time></trkpt><trkpt lat="42.7150666" lon="12.0830634"><ele>242.66666666666666</ele><time>2026-04-19T09:27:37.072Z</time></trkpt><trkpt lat="42.7150564" lon="12.0832898"><ele>241.33333333333331</ele><time>2026-04-19T09:27:38.075Z</time></trkpt><trkpt lat="42.7150579" lon="12.0835031"><ele>240.0</ele><time>2026-04-19T09:27:39.081Z</time></trkpt><trkpt lat="42.7150476" lon="12.0837179"><ele>240.0</ele><time>2026-04-19T09:27:40.068Z</time></trkpt><trkpt lat="42.71504" lon="12.0839221"><ele>240.0</ele><time>2026-04-19T09:27:41.086Z</time></trkpt><trkpt lat="42.7150114" lon="12.084113"><ele>240.0</ele><time>2026-04-19T09:27:42.082Z</time></trkpt><trkpt lat="42.7149446" lon="12.0842834"><ele>240.0</ele><time>2026-04-19T09:27:43.079Z</time></trkpt><trkpt lat="42.714852" lon="12.084442"><ele>238.66666666666669</ele><time>2026-04-19T09:27:44.08Z</time></trkpt><trkpt lat="42.7147489" lon="12.0846014"><ele>237.33333333333334</ele><time>2026-04-19T09:27:45.068Z</time></trkpt><trkpt lat="42.7146446" lon="12.0847666"><ele>236.0</ele><time>2026-04-19T09:27:46.069Z</time></trkpt><trkpt lat="42.7145447" lon="12.0849315"><ele>236.5</ele><time>2026-04-19T09:27:47.067Z</time></trkpt><trkpt lat="42.7144563" lon="12.0851004"><ele>237.0</ele><time>2026-04-19T09:27:48.065Z</time></trkpt><trkpt lat="42.7143805" lon="12.0852714"><ele>237.5</ele><time>2026-04-19T09:27:49.069Z</time></trkpt><trkpt lat="42.7143167" lon="12.0854447"><ele>238.0</ele><time>2026-04-19T09:27:50.064Z</time></trkpt><trkpt lat="42.714269" lon="12.0856289"><ele>235.66666666666666</ele><time>2026-04-19T09:27:51.063Z</time></trkpt><trkpt lat="42.7142481" lon="12.0858334"><ele>233.33333333333331</ele><time>2026-04-19T09:27:52.073Z</time></trkpt><trkpt lat="42.7142393" lon="12.0860426"><ele>231.0</ele><time>2026-04-19T09:27:53.076Z</time></trkpt><trkpt lat="42.714315" lon="12.0862593"><ele>231.0</ele><time>2026-04-19T09:27:54.067Z</time></trkpt><trkpt lat="42.7143982" lon="12.0864638"><ele>231.0</ele><time>2026-04-19T09:27:55.058Z</time></trkpt><trkpt lat="42.7144805" lon="12.0866646"><ele>231.0</ele><time>2026-04-19T09:27:56.082Z</time></trkpt><trkpt lat="42.7145652" lon="12.0868621"><ele>225.66666666666669</ele><time>2026-04-19T09:27:57.067Z</time></trkpt><trkpt lat="42.7146502" lon="12.0870533"><ele>220.33333333333334</ele><time>2026-04-19T09:27:58.064Z</time></trkpt><trkpt lat="42.7147321" lon="12.08724"><ele>215.0</ele><time>2026-04-19T09:27:59.076Z</time></trkpt><trkpt lat="42.7148136" lon="12.0874259"><ele>215.66666666666669</ele><time>2026-04-19T09:28:00.062Z</time></trkpt><trkpt lat="42.7149002" lon="12.0876183"><ele>216.33333333333331</ele><time>2026-04-19T09:28:01.062Z</time></trkpt><trkpt lat="42.714987" lon="12.0878109"><ele>217.0</ele><time>2026-04-19T09:28:02.056Z</time></trkpt><trkpt lat="42.715065" lon="12.0879848"><ele>217.0</ele><time>2026-04-19T09:28:03.072Z</time></trkpt><trkpt lat="42.7151361" lon="12.0881423"><ele>217.0</ele><time>2026-04-19T09:28:04.058Z</time></trkpt><trkpt lat="42.7152042" lon="12.0882939"><ele>217.0</ele><time>2026-04-19T09:28:05.066Z</time></trkpt><trkpt lat="42.7152699" lon="12.0884414"><ele>217.0</ele><time>2026-04-19T09:28:06.06Z</time></trkpt><trkpt lat="42.7153288" lon="12.0885912"><ele>214.25</ele><time>2026-04-19T09:28:07.071Z</time></trkpt><trkpt lat="42.7153785" lon="12.0887609"><ele>211.5</ele><time>2026-04-19T09:28:08.068Z</time></trkpt><trkpt lat="42.7154089" lon="12.0889569"><ele>208.75</ele><time>2026-04-19T09:28:09.072Z</time></trkpt><trkpt lat="42.7154327" lon="12.0891528"><ele>206.0</ele><time>2026-04-19T09:28:10.078Z</time></trkpt><trkpt lat="42.7154245" lon="12.0893489"><ele>205.75</ele><time>2026-04-19T09:28:11.066Z</time></trkpt><trkpt lat="42.7154136" lon="12.0895343"><ele>205.5</ele><time>2026-04-19T09:28:12.067Z</time></trkpt><trkpt lat="42.7153931" lon="12.089718"><ele>205.25</ele><time>2026-04-19T09:28:13.071Z</time></trkpt><trkpt lat="42.7153616" lon="12.0898926"><ele>205.0</ele><time>2026-04-19T09:28:14.061Z</time></trkpt><trkpt lat="42.7153119" lon="12.0900686"><ele>203.66666666666666</ele><time>2026-04-19T09:28:15.069Z</time></trkpt><trkpt lat="42.7152462" lon="12.0902415"><ele>202.33333333333331</ele><time>2026-04-19T09:28:16.068Z</time></trkpt><trkpt lat="42.7151519" lon="12.0904126"><ele>201.0</ele><time>2026-04-19T09:28:17.054Z</time></trkpt><trkpt lat="42.7150412" lon="12.090566"><ele>201.66666666666669</ele><time>2026-04-19T09:28:18.059Z</time></trkpt><trkpt lat="42.7149337" lon="12.0907246"><ele>202.33333333333334</ele><time>2026-04-19T09:28:19.071Z</time></trkpt><trkpt lat="42.7148252" lon="12.0908753"><ele>203.0</ele><time>2026-04-19T09:28:20.076Z</time></trkpt><trkpt lat="42.7147182" lon="12.0910255"><ele>203.0</ele><time>2026-04-19T09:28:21.064Z</time></trkpt><trkpt lat="42.7146115" lon="12.0911735"><ele>203.0</ele><time>2026-04-19T09:28:22.064Z</time></trkpt><trkpt lat="42.7145071" lon="12.0913148"><ele>203.0</ele><time>2026-04-19T09:28:23.079Z</time></trkpt><trkpt lat="42.7144021" lon="12.0914515"><ele>203.0</ele><time>2026-04-19T09:28:24.079Z</time></trkpt><trkpt lat="42.7142963" lon="12.091579"><ele>202.0</ele><time>2026-04-19T09:28:25.075Z</time></trkpt><trkpt lat="42.7141859" lon="12.0916882"><ele>201.0</ele><time>2026-04-19T09:28:26.075Z</time></trkpt><trkpt lat="42.7140691" lon="12.091782"><ele>200.0</ele><time>2026-04-19T09:28:27.065Z</time></trkpt><trkpt lat="42.713957" lon="12.0918664"><ele>199.0</ele><time>2026-04-19T09:28:28.058Z</time></trkpt><trkpt lat="42.7138555" lon="12.0919426"><ele>199.0</ele><time>2026-04-19T09:28:29.081Z</time></trkpt><trkpt lat="42.713765" lon="12.092019"><ele>199.0</ele><time>2026-04-19T09:28:30.063Z</time></trkpt><trkpt lat="42.7136881" lon="12.0920976"><ele>199.0</ele><time>2026-04-19T09:28:31.066Z</time></trkpt><trkpt lat="42.7136292" lon="12.0921871"><ele>199.0</ele><time>2026-04-19T09:28:32.067Z</time></trkpt><trkpt lat="42.7135926" lon="12.0922895"><ele>199.0</ele><time>2026-04-19T09:28:33.061Z</time></trkpt><trkpt lat="42.713573" lon="12.0923985"><ele>199.2</ele><time>2026-04-19T09:28:34.088Z</time></trkpt><trkpt lat="42.7135614" lon="12.0925164"><ele>199.39999999999998</ele><time>2026-04-19T09:28:35.071Z</time></trkpt><trkpt lat="42.7135557" lon="12.0926464"><ele>199.6</ele><time>2026-04-19T09:28:36.069Z</time></trkpt><trkpt lat="42.7135632" lon="12.0927826"><ele>199.8</ele><time>2026-04-19T09:28:37.06Z</time></trkpt><trkpt lat="42.7135906" lon="12.0929241"><ele>200.0</ele><time>2026-04-19T09:28:38.064Z</time></trkpt><trkpt lat="42.7136412" lon="12.0930673"><ele>197.0</ele><time>2026-04-19T09:28:39.076Z</time></trkpt><trkpt lat="42.7137064" lon="12.0932226"><ele>194.0</ele><time>2026-04-19T09:28:40.09Z</time></trkpt><trkpt lat="42.7137703" lon="12.0933905"><ele>191.0</ele><time>2026-04-19T09:28:41.068Z</time></trkpt><trkpt lat="42.7138396" lon="12.0935719"><ele>188.0</ele><time>2026-04-19T09:28:42.065Z</time></trkpt><trkpt lat="42.7139108" lon="12.0937551"><ele>187.75</ele><time>2026-04-19T09:28:43.066Z</time></trkpt><trkpt lat="42.7139802" lon="12.0939318"><ele>187.5</ele><time>2026-04-19T09:28:44.079Z</time></trkpt><trkpt lat="42.714048" lon="12.0940968"><ele>187.25</ele><time>2026-04-19T09:28:45.068Z</time></trkpt><trkpt lat="42.7141117" lon="12.0942478"><ele>187.0</ele><time>2026-04-19T09:28:46.073Z</time></trkpt><trkpt lat="42.7141707" lon="12.0943865"><ele>187.0</ele><time>2026-04-19T09:28:47.078Z</time></trkpt><trkpt lat="42.7142251" lon="12.0945117"><ele>187.0</ele><time>2026-04-19T09:28:48.065Z</time></trkpt><trkpt lat="42.7142767" lon="12.0946284"><ele>187.0</ele><time>2026-04-19T09:28:49.06Z</time></trkpt><trkpt lat="42.7143263" lon="12.0947388"><ele>187.0</ele><time>2026-04-19T09:28:50.074Z</time></trkpt><trkpt lat="42.7143719" lon="12.0948405"><ele>187.0</ele><time>2026-04-19T09:28:51.075Z</time></trkpt><trkpt lat="42.7144159" lon="12.0949369"><ele>187.16666666666669</ele><time>2026-04-19T09:28:52.079Z</time></trkpt><trkpt lat="42.7144593" lon="12.0950314"><ele>187.33333333333334</ele><time>2026-04-19T09:28:53.064Z</time></trkpt><trkpt lat="42.7145023" lon="12.0951255"><ele>187.5</ele><time>2026-04-19T09:28:54.065Z</time></trkpt><trkpt lat="42.7145446" lon="12.0952189"><ele>187.66666666666666</ele><time>2026-04-19T09:28:55.064Z</time></trkpt><trkpt lat="42.7145868" lon="12.095311"><ele>187.83333333333331</ele><time>2026-04-19T09:28:56.065Z</time></trkpt><trkpt lat="42.7146256" lon="12.0953962"><ele>188.0</ele><time>2026-04-19T09:28:57.07Z</time></trkpt><trkpt lat="42.7146818" lon="12.0955176"><ele>188.0</ele><time>2026-04-19T09:28:59.068Z</time></trkpt><trkpt lat="42.7147239" lon="12.095607"><ele>188.0</ele><time>2026-04-19T09:29:01.059Z</time></trkpt><trkpt lat="42.714761" lon="12.0956819"><ele>188.0</ele><time>2026-04-19T09:29:03.07Z</time></trkpt><trkpt lat="42.7148019" lon="12.0957627"><ele>188.0</ele><time>2026-04-19T09:29:05.08Z</time></trkpt><trkpt lat="42.7148456" lon="12.0958494"><ele>188.0</ele><time>2026-04-19T09:29:07.065Z</time></trkpt><trkpt lat="42.7149" lon="12.0959768"><ele>188.0</ele><time>2026-04-19T09:29:09.071Z</time></trkpt><trkpt lat="42.7149337" lon="12.0960638"><ele>188.60000000000002</ele><time>2026-04-19T09:29:10.068Z</time></trkpt><trkpt lat="42.7149751" lon="12.0961619"><ele>189.20000000000002</ele><time>2026-04-19T09:29:11.068Z</time></trkpt><trkpt lat="42.7150227" lon="12.0962742"><ele>189.8</ele><time>2026-04-19T09:29:12.067Z</time></trkpt><trkpt lat="42.7150736" lon="12.0963944"><ele>190.4</ele><time>2026-04-19T09:29:13.074Z</time></trkpt><trkpt lat="42.7151271" lon="12.0965223"><ele>191.0</ele><time>2026-04-19T09:29:14.08Z</time></trkpt><trkpt lat="42.7151778" lon="12.0966476"><ele>191.16666666666666</ele><time>2026-04-19T09:29:15.059Z</time></trkpt><trkpt lat="42.7152241" lon="12.0967622"><ele>191.33333333333331</ele><time>2026-04-19T09:29:16.078Z</time></trkpt><trkpt lat="42.7152691" lon="12.0968698"><ele>191.5</ele><time>2026-04-19T09:29:17.07Z</time></trkpt><trkpt lat="42.7153137" lon="12.0969747"><ele>191.66666666666666</ele><time>2026-04-19T09:29:18.074Z</time></trkpt><trkpt lat="42.7153601" lon="12.0970748"><ele>191.83333333333334</ele><time>2026-04-19T09:29:19.077Z</time></trkpt><trkpt lat="42.7154036" lon="12.0971681"><ele>192.0</ele><time>2026-04-19T09:29:20.069Z</time></trkpt><trkpt lat="42.7154438" lon="12.0972596"><ele>192.83333333333334</ele><time>2026-04-19T09:29:21.077Z</time></trkpt><trkpt lat="42.7154822" lon="12.0973483"><ele>193.66666666666669</ele><time>2026-04-19T09:29:22.065Z</time></trkpt><trkpt lat="42.7155169" lon="12.0974255"><ele>194.5</ele><time>2026-04-19T09:29:23.066Z</time></trkpt><trkpt lat="42.7155848" lon="12.0975722"><ele>195.33333333333334</ele><time>2026-04-19T09:29:25.078Z</time></trkpt><trkpt lat="42.7156224" lon="12.0976505"><ele>196.16666666666669</ele><time>2026-04-19T09:29:26.073Z</time></trkpt><trkpt lat="42.7156616" lon="12.0977316"><ele>197.0</ele><time>2026-04-19T09:29:27.066Z</time></trkpt><trkpt lat="42.7157044" lon="12.0978159"><ele>197.16666666666669</ele><time>2026-04-19T09:29:28.083Z</time></trkpt><trkpt lat="42.7157632" lon="12.0979476"><ele>197.33333333333334</ele><time>2026-04-19T09:29:30.075Z</time></trkpt><trkpt lat="42.7157893" lon="12.098054"><ele>197.5</ele><time>2026-04-19T09:29:32.077Z</time></trkpt><trkpt lat="42.7157725" lon="12.098148"><ele>197.66666666666669</ele><time>2026-04-19T09:29:34.06Z</time></trkpt><trkpt lat="42.715723" lon="12.0982124"><ele>197.83333333333334</ele><time>2026-04-19T09:29:36.057Z</time></trkpt><trkpt lat="42.715648" lon="12.0982272"><ele>198.0</ele><time>2026-04-19T09:29:38.068Z</time></trkpt><trkpt lat="42.71548" lon="12.0982493"><ele>197.66666666666669</ele><time>2026-04-19T09:29:40.064Z</time></trkpt><trkpt lat="42.7153504" lon="12.0982858"><ele>197.33333333333334</ele><time>2026-04-19T09:29:41.067Z</time></trkpt><trkpt lat="42.7151975" lon="12.0983512"><ele>197.0</ele><time>2026-04-19T09:29:42.07Z</time></trkpt><trkpt lat="42.7150538" lon="12.0984422"><ele>195.33333333333334</ele><time>2026-04-19T09:29:43.069Z</time></trkpt><trkpt lat="42.7149279" lon="12.0985574"><ele>193.66666666666669</ele><time>2026-04-19T09:29:44.07Z</time></trkpt><trkpt lat="42.7148228" lon="12.0987133"><ele>192.0</ele><time>2026-04-19T09:29:45.057Z</time></trkpt><trkpt lat="42.7147417" lon="12.098915"><ele>192.0</ele><time>2026-04-19T09:29:46.066Z</time></trkpt><trkpt lat="42.7146792" lon="12.0991626"><ele>192.0</ele><time>2026-04-19T09:29:47.075Z</time></trkpt><trkpt lat="42.7146184" lon="12.0994502"><ele>192.0</ele><time>2026-04-19T09:29:48.059Z</time></trkpt><trkpt lat="42.714547" lon="12.099745"><ele>192.0</ele><time>2026-04-19T09:29:49.077Z</time></trkpt><trkpt lat="42.7144664" lon="12.1000214"><ele>192.0</ele><time>2026-04-19T09:29:50.071Z</time></trkpt><trkpt lat="42.7143888" lon="12.1002843"><ele>192.0</ele><time>2026-04-19T09:29:51.071Z</time></trkpt><trkpt lat="42.7143238" lon="12.1005383"><ele>191.0</ele><time>2026-04-19T09:29:52.063Z</time></trkpt><trkpt lat="42.7142658" lon="12.1007754"><ele>190.0</ele><time>2026-04-19T09:29:53.071Z</time></trkpt><trkpt lat="42.7142098" lon="12.1009981"><ele>189.0</ele><time>2026-04-19T09:29:54.076Z</time></trkpt><trkpt lat="42.7141587" lon="12.1012071"><ele>189.0</ele><time>2026-04-19T09:29:55.065Z</time></trkpt><trkpt lat="42.7141102" lon="12.101409"><ele>189.0</ele><time>2026-04-19T09:29:56.071Z</time></trkpt><trkpt lat="42.7140618" lon="12.1016094"><ele>189.0</ele><time>2026-04-19T09:29:57.088Z</time></trkpt><trkpt lat="42.7140152" lon="12.101825"><ele>189.66666666666666</ele><time>2026-04-19T09:29:58.063Z</time></trkpt><trkpt lat="42.7139657" lon="12.102061"><ele>190.33333333333331</ele><time>2026-04-19T09:29:59.057Z</time></trkpt><trkpt lat="42.713909" lon="12.1023076"><ele>191.0</ele><time>2026-04-19T09:30:00.06Z</time></trkpt><trkpt lat="42.7138362" lon="12.102574"><ele>191.0</ele><time>2026-04-19T09:30:01.052Z</time></trkpt><trkpt lat="42.7137573" lon="12.10286"><ele>191.0</ele><time>2026-04-19T09:30:02.075Z</time></trkpt><trkpt lat="42.7136816" lon="12.1031402"><ele>191.0</ele><time>2026-04-19T09:30:03.059Z</time></trkpt><trkpt lat="42.7136014" lon="12.1034012"><ele>190.33333333333331</ele><time>2026-04-19T09:30:04.071Z</time></trkpt><trkpt lat="42.7135229" lon="12.1036417"><ele>189.66666666666666</ele><time>2026-04-19T09:30:05.063Z</time></trkpt><trkpt lat="42.713441" lon="12.1038675"><ele>189.0</ele><time>2026-04-19T09:30:06.079Z</time></trkpt><trkpt lat="42.7133615" lon="12.1040725"><ele>189.0</ele><time>2026-04-19T09:30:07.064Z</time></trkpt><trkpt lat="42.7132828" lon="12.1042621"><ele>189.0</ele><time>2026-04-19T09:30:08.063Z</time></trkpt><trkpt lat="42.7132051" lon="12.1044432"><ele>189.0</ele><time>2026-04-19T09:30:09.064Z</time></trkpt><trkpt lat="42.7131326" lon="12.1046174"><ele>189.0</ele><time>2026-04-19T09:30:10.07Z</time></trkpt><trkpt lat="42.7130619" lon="12.1047824"><ele>189.0</ele><time>2026-04-19T09:30:11.066Z</time></trkpt><trkpt lat="42.7129872" lon="12.10494"><ele>189.0</ele><time>2026-04-19T09:30:12.064Z</time></trkpt><trkpt lat="42.7129058" lon="12.1050869"><ele>189.0</ele><time>2026-04-19T09:30:13.063Z</time></trkpt><trkpt lat="42.7128206" lon="12.1052299"><ele>188.5</ele><time>2026-04-19T09:30:14.074Z</time></trkpt><trkpt lat="42.712739" lon="12.1053793"><ele>188.0</ele><time>2026-04-19T09:30:15.066Z</time></trkpt><trkpt lat="42.7126693" lon="12.1055469"><ele>187.5</ele><time>2026-04-19T09:30:16.061Z</time></trkpt><trkpt lat="42.7126193" lon="12.1057272"><ele>187.0</ele><time>2026-04-19T09:30:17.07Z</time></trkpt><trkpt lat="42.7125815" lon="12.1059181"><ele>187.0</ele><time>2026-04-19T09:30:18.068Z</time></trkpt><trkpt lat="42.7125493" lon="12.1061168"><ele>187.0</ele><time>2026-04-19T09:30:19.068Z</time></trkpt><trkpt lat="42.7125151" lon="12.1063197"><ele>187.0</ele><time>2026-04-19T09:30:20.062Z</time></trkpt><trkpt lat="42.7124769" lon="12.106527"><ele>187.33333333333334</ele><time>2026-04-19T09:30:21.065Z</time></trkpt><trkpt lat="42.7124361" lon="12.106739"><ele>187.66666666666666</ele><time>2026-04-19T09:30:22.061Z</time></trkpt><trkpt lat="42.7123913" lon="12.1069572"><ele>188.0</ele><time>2026-04-19T09:30:23.066Z</time></trkpt><trkpt lat="42.7123436" lon="12.1071787"><ele>188.0</ele><time>2026-04-19T09:30:24.053Z</time></trkpt><trkpt lat="42.7122931" lon="12.1074024"><ele>188.0</ele><time>2026-04-19T09:30:25.055Z</time></trkpt><trkpt lat="42.7122407" lon="12.107627"><ele>188.0</ele><time>2026-04-19T09:30:26.063Z</time></trkpt><trkpt lat="42.7121937" lon="12.1078523"><ele>188.66666666666666</ele><time>2026-04-19T09:30:27.064Z</time></trkpt><trkpt lat="42.7121518" lon="12.1080811"><ele>189.33333333333334</ele><time>2026-04-19T09:30:28.063Z</time></trkpt><trkpt lat="42.7121109" lon="12.1083105"><ele>190.0</ele><time>2026-04-19T09:30:29.069Z</time></trkpt><trkpt lat="42.7120674" lon="12.1085381"><ele>191.33333333333334</ele><time>2026-04-19T09:30:30.067Z</time></trkpt><trkpt lat="42.7120252" lon="12.1087598"><ele>192.66666666666669</ele><time>2026-04-19T09:30:31.061Z</time></trkpt><trkpt lat="42.7119826" lon="12.1089672"><ele>194.0</ele><time>2026-04-19T09:30:32.066Z</time></trkpt><trkpt lat="42.7119642" lon="12.1091633"><ele>194.33333333333334</ele><time>2026-04-19T09:30:33.061Z</time></trkpt><trkpt lat="42.7119528" lon="12.1093622"><ele>194.66666666666669</ele><time>2026-04-19T09:30:34.068Z</time></trkpt><trkpt lat="42.71195" lon="12.1095707"><ele>195.0</ele><time>2026-04-19T09:30:35.061Z</time></trkpt><trkpt lat="42.7119587" lon="12.1097891"><ele>194.66666666666669</ele><time>2026-04-19T09:30:36.059Z</time></trkpt><trkpt lat="42.7119735" lon="12.1100048"><ele>194.33333333333334</ele><time>2026-04-19T09:30:37.066Z</time></trkpt><trkpt lat="42.7119909" lon="12.1102254"><ele>194.0</ele><time>2026-04-19T09:30:38.081Z</time></trkpt><trkpt lat="42.71201" lon="12.1104406"><ele>194.0</ele><time>2026-04-19T09:30:39.068Z</time></trkpt><trkpt lat="42.7120201" lon="12.1106426"><ele>194.0</ele><time>2026-04-19T09:30:40.066Z</time></trkpt><trkpt lat="42.712033" lon="12.1108313"><ele>194.0</ele><time>2026-04-19T09:30:41.061Z</time></trkpt><trkpt lat="42.71205" lon="12.1110039"><ele>194.0</ele><time>2026-04-19T09:30:42.064Z</time></trkpt><trkpt lat="42.7120745" lon="12.1111729"><ele>193.25</ele><time>2026-04-19T09:30:43.07Z</time></trkpt><trkpt lat="42.7121072" lon="12.1113323"><ele>192.5</ele><time>2026-04-19T09:30:44.073Z</time></trkpt><trkpt lat="42.712146" lon="12.111496"><ele>191.75</ele><time>2026-04-19T09:30:45.075Z</time></trkpt><trkpt lat="42.7121839" lon="12.1116521"><ele>191.0</ele><time>2026-04-19T09:30:46.056Z</time></trkpt><trkpt lat="42.7122109" lon="12.1118079"><ele>190.5</ele><time>2026-04-19T09:30:47.082Z</time></trkpt><trkpt lat="42.7122243" lon="12.1119609"><ele>190.0</ele><time>2026-04-19T09:30:48.066Z</time></trkpt><trkpt lat="42.7122157" lon="12.1121131"><ele>189.5</ele><time>2026-04-19T09:30:49.06Z</time></trkpt><trkpt lat="42.7121898" lon="12.1122639"><ele>189.0</ele><time>2026-04-19T09:30:50.058Z</time></trkpt><trkpt lat="42.7121584" lon="12.1124139"><ele>188.0</ele><time>2026-04-19T09:30:51.071Z</time></trkpt><trkpt lat="42.712124" lon="12.1125686"><ele>187.0</ele><time>2026-04-19T09:30:52.061Z</time></trkpt><trkpt lat="42.7120852" lon="12.1127194"><ele>186.0</ele><time>2026-04-19T09:30:53.061Z</time></trkpt><trkpt lat="42.7120391" lon="12.1128792"><ele>185.0</ele><time>2026-04-19T09:30:54.059Z</time></trkpt><trkpt lat="42.7119941" lon="12.1130653"><ele>185.0</ele><time>2026-04-19T09:30:55.059Z</time></trkpt><trkpt lat="42.7119666" lon="12.1132299"><ele>185.0</ele><time>2026-04-19T09:30:56.059Z</time></trkpt><trkpt lat="42.7119584" lon="12.1133933"><ele>185.0</ele><time>2026-04-19T09:30:57.05Z</time></trkpt><trkpt lat="42.7119717" lon="12.1135576"><ele>185.0</ele><time>2026-04-19T09:30:58.057Z</time></trkpt><trkpt lat="42.7120071" lon="12.113721"><ele>183.25</ele><time>2026-04-19T09:30:59.054Z</time></trkpt><trkpt lat="42.7120542" lon="12.1138836"><ele>181.5</ele><time>2026-04-19T09:31:00.061Z</time></trkpt><trkpt lat="42.7121162" lon="12.1140446"><ele>179.75</ele><time>2026-04-19T09:31:01.062Z</time></trkpt><trkpt lat="42.7121824" lon="12.114211"><ele>178.0</ele><time>2026-04-19T09:31:02.071Z</time></trkpt><trkpt lat="42.7122485" lon="12.1143818"><ele>176.33333333333334</ele><time>2026-04-19T09:31:03.067Z</time></trkpt><trkpt lat="42.7123192" lon="12.1145578"><ele>174.66666666666666</ele><time>2026-04-19T09:31:04.063Z</time></trkpt><trkpt lat="42.7123937" lon="12.1147413"><ele>173.0</ele><time>2026-04-19T09:31:05.059Z</time></trkpt><trkpt lat="42.7124689" lon="12.1149319"><ele>171.66666666666666</ele><time>2026-04-19T09:31:06.058Z</time></trkpt><trkpt lat="42.7125444" lon="12.1151302"><ele>170.33333333333334</ele><time>2026-04-19T09:31:07.057Z</time></trkpt><trkpt lat="42.7126209" lon="12.1153379"><ele>169.0</ele><time>2026-04-19T09:31:08.063Z</time></trkpt><trkpt lat="42.7126945" lon="12.1155564"><ele>172.33333333333334</ele><time>2026-04-19T09:31:09.077Z</time></trkpt><trkpt lat="42.7127575" lon="12.1157804"><ele>175.66666666666666</ele><time>2026-04-19T09:31:10.056Z</time></trkpt><trkpt lat="42.7128055" lon="12.1159987"><ele>179.0</ele><time>2026-04-19T09:31:11.057Z</time></trkpt><trkpt lat="42.7128473" lon="12.1162088"><ele>179.0</ele><time>2026-04-19T09:31:12.065Z</time></trkpt><trkpt lat="42.7128868" lon="12.1164108"><ele>179.0</ele><time>2026-04-19T09:31:13.056Z</time></trkpt><trkpt lat="42.7129219" lon="12.1166039"><ele>179.0</ele><time>2026-04-19T09:31:14.059Z</time></trkpt><trkpt lat="42.7129509" lon="12.1167689"><ele>179.0</ele><time>2026-04-19T09:31:15.058Z</time></trkpt><trkpt lat="42.7129661" lon="12.1169061"><ele>178.5</ele><time>2026-04-19T09:31:16.062Z</time></trkpt><trkpt lat="42.7129737" lon="12.1170254"><ele>178.0</ele><time>2026-04-19T09:31:17.068Z</time></trkpt><trkpt lat="42.7129565" lon="12.1171317"><ele>177.5</ele><time>2026-04-19T09:31:18.058Z</time></trkpt><trkpt lat="42.7129447" lon="12.1172163"><ele>177.0</ele><time>2026-04-19T09:31:19.069Z</time></trkpt><trkpt lat="42.7129722" lon="12.1173799"><ele>176.5</ele><time>2026-04-19T09:32:46.058Z</time></trkpt><trkpt lat="42.7130289" lon="12.1174734"><ele>176.0</ele><time>2026-04-19T09:32:48.06Z</time></trkpt><trkpt lat="42.7131168" lon="12.117607"><ele>174.75</ele><time>2026-04-19T09:32:54.054Z</time></trkpt><trkpt lat="42.7131935" lon="12.1177756"><ele>173.5</ele><time>2026-04-19T09:32:56.058Z</time></trkpt><trkpt lat="42.7132354" lon="12.117932"><ele>172.25</ele><time>2026-04-19T09:32:57.071Z</time></trkpt><trkpt lat="42.713279" lon="12.1181335"><ele>171.0</ele><time>2026-04-19T09:32:58.057Z</time></trkpt><trkpt lat="42.7133331" lon="12.1183608"><ele>168.33333333333334</ele><time>2026-04-19T09:32:59.049Z</time></trkpt><trkpt lat="42.7133852" lon="12.1185794"><ele>165.66666666666669</ele><time>2026-04-19T09:33:00.052Z</time></trkpt><trkpt lat="42.7134421" lon="12.1188148"><ele>163.0</ele><time>2026-04-19T09:33:01.06Z</time></trkpt><trkpt lat="42.7135213" lon="12.1190494"><ele>165.0</ele><time>2026-04-19T09:33:02.059Z</time></trkpt><trkpt lat="42.7135956" lon="12.1192676"><ele>167.0</ele><time>2026-04-19T09:33:03.069Z</time></trkpt><trkpt lat="42.7136614" lon="12.1194899"><ele>169.0</ele><time>2026-04-19T09:33:04.055Z</time></trkpt><trkpt lat="42.713729" lon="12.1197093"><ele>166.0</ele><time>2026-04-19T09:33:05.054Z</time></trkpt><trkpt lat="42.7137937" lon="12.1199202"><ele>163.0</ele><time>2026-04-19T09:33:06.062Z</time></trkpt><trkpt lat="42.713859" lon="12.1201207"><ele>160.0</ele><time>2026-04-19T09:33:07.067Z</time></trkpt><trkpt lat="42.7139403" lon="12.1203297"><ele>160.0</ele><time>2026-04-19T09:33:08.068Z</time></trkpt><trkpt lat="42.7140187" lon="12.1205454"><ele>160.0</ele><time>2026-04-19T09:33:09.051Z</time></trkpt><trkpt lat="42.7141073" lon="12.1207403"><ele>160.0</ele><time>2026-04-19T09:33:10.06Z</time></trkpt><trkpt lat="42.714198" lon="12.120931"><ele>160.66666666666669</ele><time>2026-04-19T09:33:11.056Z</time></trkpt><trkpt lat="42.7142973" lon="12.1211237"><ele>161.33333333333334</ele><time>2026-04-19T09:33:12.06Z</time></trkpt><trkpt lat="42.7144122" lon="12.1212812"><ele>162.0</ele><time>2026-04-19T09:33:13.06Z</time></trkpt><trkpt lat="42.7145395" lon="12.1214401"><ele>158.66666666666666</ele><time>2026-04-19T09:33:14.067Z</time></trkpt><trkpt lat="42.714672" lon="12.1216155"><ele>155.33333333333331</ele><time>2026-04-19T09:33:15.052Z</time></trkpt><trkpt lat="42.7148061" lon="12.1217859"><ele>152.0</ele><time>2026-04-19T09:33:16.058Z</time></trkpt><trkpt lat="42.7149381" lon="12.1219601"><ele>152.0</ele><time>2026-04-19T09:33:17.058Z</time></trkpt><trkpt lat="42.7150746" lon="12.122131"><ele>152.0</ele><time>2026-04-19T09:33:18.056Z</time></trkpt><trkpt lat="42.7152118" lon="12.1222984"><ele>152.0</ele><time>2026-04-19T09:33:19.048Z</time></trkpt><trkpt lat="42.7153519" lon="12.1224582"><ele>151.66666666666666</ele><time>2026-04-19T09:33:20.053Z</time></trkpt><trkpt lat="42.7154844" lon="12.1226217"><ele>151.33333333333334</ele><time>2026-04-19T09:33:21.067Z</time></trkpt><trkpt lat="42.7156092" lon="12.12278"><ele>151.0</ele><time>2026-04-19T09:33:22.056Z</time></trkpt><trkpt lat="42.7157308" lon="12.1229407"><ele>151.0</ele><time>2026-04-19T09:33:23.063Z</time></trkpt><trkpt lat="42.7158449" lon="12.1231172"><ele>151.0</ele><time>2026-04-19T09:33:24.064Z</time></trkpt><trkpt lat="42.7159326" lon="12.1233205"><ele>151.0</ele><time>2026-04-19T09:33:25.058Z</time></trkpt><trkpt lat="42.7160281" lon="12.1235271"><ele>147.66666666666669</ele><time>2026-04-19T09:33:26.059Z</time></trkpt><trkpt lat="42.7161243" lon="12.1237311"><ele>144.33333333333334</ele><time>2026-04-19T09:33:27.057Z</time></trkpt><trkpt lat="42.7162235" lon="12.1239321"><ele>141.0</ele><time>2026-04-19T09:33:28.061Z</time></trkpt><trkpt lat="42.7163427" lon="12.1241099"><ele>140.0</ele><time>2026-04-19T09:33:29.051Z</time></trkpt><trkpt lat="42.71648" lon="12.1242839"><ele>139.0</ele><time>2026-04-19T09:33:30.059Z</time></trkpt><trkpt lat="42.716629" lon="12.1244368"><ele>138.0</ele><time>2026-04-19T09:33:31.058Z</time></trkpt><trkpt lat="42.7167837" lon="12.1245769"><ele>138.33333333333334</ele><time>2026-04-19T09:33:32.059Z</time></trkpt><trkpt lat="42.7169465" lon="12.1247343"><ele>138.66666666666669</ele><time>2026-04-19T09:33:33.05Z</time></trkpt><trkpt lat="42.717117" lon="12.1248795"><ele>139.0</ele><time>2026-04-19T09:33:34.054Z</time></trkpt><trkpt lat="42.7172843" lon="12.1250419"><ele>139.0</ele><time>2026-04-19T09:33:35.066Z</time></trkpt><trkpt lat="42.7174581" lon="12.1252161"><ele>139.0</ele><time>2026-04-19T09:33:36.054Z</time></trkpt><trkpt lat="42.7176399" lon="12.1253907"><ele>139.0</ele><time>2026-04-19T09:33:37.053Z</time></trkpt><trkpt lat="42.7178361" lon="12.1255768"><ele>139.0</ele><time>2026-04-19T09:33:38.058Z</time></trkpt><trkpt lat="42.7180376" lon="12.1257694"><ele>139.0</ele><time>2026-04-19T09:33:39.063Z</time></trkpt><trkpt lat="42.7182395" lon="12.1259703"><ele>139.0</ele><time>2026-04-19T09:33:40.06Z</time></trkpt><trkpt lat="42.7184349" lon="12.1261832"><ele>139.0</ele><time>2026-04-19T09:33:41.063Z</time></trkpt><trkpt lat="42.7186304" lon="12.1264025"><ele>136.0</ele><time>2026-04-19T09:33:42.073Z</time></trkpt><trkpt lat="42.7188246" lon="12.1266166"><ele>133.0</ele><time>2026-04-19T09:33:43.06Z</time></trkpt><trkpt lat="42.7190129" lon="12.1268303"><ele>133.0</ele><time>2026-04-19T09:33:44.051Z</time></trkpt><trkpt lat="42.7191962" lon="12.1270364"><ele>133.0</ele><time>2026-04-19T09:33:45.052Z</time></trkpt><trkpt lat="42.7193698" lon="12.1272525"><ele>132.33333333333334</ele><time>2026-04-19T09:33:46.072Z</time></trkpt><trkpt lat="42.7195182" lon="12.1274802"><ele>131.66666666666666</ele><time>2026-04-19T09:33:47.063Z</time></trkpt><trkpt lat="42.719655" lon="12.1277176"><ele>131.0</ele><time>2026-04-19T09:33:48.058Z</time></trkpt><trkpt lat="42.7197772" lon="12.1279479"><ele>131.0</ele><time>2026-04-19T09:33:49.062Z</time></trkpt><trkpt lat="42.7198738" lon="12.128179"><ele>131.0</ele><time>2026-04-19T09:33:50.057Z</time></trkpt><trkpt lat="42.7199422" lon="12.1284127"><ele>131.0</ele><time>2026-04-19T09:33:51.066Z</time></trkpt><trkpt lat="42.7199823" lon="12.1286585"><ele>131.0</ele><time>2026-04-19T09:33:52.055Z</time></trkpt><trkpt lat="42.7199763" lon="12.1289232"><ele>131.0</ele><time>2026-04-19T09:33:53.05Z</time></trkpt><trkpt lat="42.7199586" lon="12.129195"><ele>131.0</ele><time>2026-04-19T09:33:54.048Z</time></trkpt><trkpt lat="42.7199508" lon="12.1294639"><ele>130.33333333333331</ele><time>2026-04-19T09:33:55.049Z</time></trkpt><trkpt lat="42.7199317" lon="12.1297392"><ele>129.66666666666666</ele><time>2026-04-19T09:33:56.056Z</time></trkpt><trkpt lat="42.719909" lon="12.1300199"><ele>129.0</ele><time>2026-04-19T09:33:57.062Z</time></trkpt><trkpt lat="42.7198791" lon="12.1302954"><ele>127.66666666666666</ele><time>2026-04-19T09:33:58.054Z</time></trkpt><trkpt lat="42.7198566" lon="12.1305778"><ele>126.33333333333333</ele><time>2026-04-19T09:33:59.055Z</time></trkpt><trkpt lat="42.7198391" lon="12.1308374"><ele>125.0</ele><time>2026-04-19T09:34:00.071Z</time></trkpt><trkpt lat="42.719825" lon="12.1310764"><ele>125.0</ele><time>2026-04-19T09:34:01.06Z</time></trkpt><trkpt lat="42.7198114" lon="12.1313161"><ele>125.0</ele><time>2026-04-19T09:34:02.054Z</time></trkpt><trkpt lat="42.719795" lon="12.1315411"><ele>125.0</ele><time>2026-04-19T09:34:03.055Z</time></trkpt><trkpt lat="42.7197922" lon="12.1317578"><ele>125.0</ele><time>2026-04-19T09:34:04.054Z</time></trkpt><trkpt lat="42.7198071" lon="12.1319684"><ele>125.0</ele><time>2026-04-19T09:34:05.051Z</time></trkpt><trkpt lat="42.7198319" lon="12.1321907"><ele>125.0</ele><time>2026-04-19T09:34:06.057Z</time></trkpt><trkpt lat="42.7198743" lon="12.132424"><ele>125.0</ele><time>2026-04-19T09:34:07.051Z</time></trkpt><trkpt lat="42.719923" lon="12.1326474"><ele>125.0</ele><time>2026-04-19T09:34:08.054Z</time></trkpt><trkpt lat="42.7199867" lon="12.1328548"><ele>125.0</ele><time>2026-04-19T09:34:09.055Z</time></trkpt><trkpt lat="42.720059" lon="12.1330507"><ele>124.66666666666666</ele><time>2026-04-19T09:34:10.059Z</time></trkpt><trkpt lat="42.7201413" lon="12.1332298"><ele>124.33333333333334</ele><time>2026-04-19T09:34:11.062Z</time></trkpt><trkpt lat="42.7202243" lon="12.1334053"><ele>124.0</ele><time>2026-04-19T09:34:12.062Z</time></trkpt><trkpt lat="42.7203104" lon="12.1335615"><ele>122.5</ele><time>2026-04-19T09:34:13.063Z</time></trkpt><trkpt lat="42.7203862" lon="12.1337077"><ele>121.0</ele><time>2026-04-19T09:34:14.056Z</time></trkpt><trkpt lat="42.7204643" lon="12.1338521"><ele>119.5</ele><time>2026-04-19T09:34:15.054Z</time></trkpt><trkpt lat="42.720558" lon="12.1339819"><ele>118.0</ele><time>2026-04-19T09:34:16.052Z</time></trkpt><trkpt lat="42.7206469" lon="12.1340697"><ele>118.0</ele><time>2026-04-19T09:34:17.059Z</time></trkpt><trkpt lat="42.7207416" lon="12.1341306"><ele>118.00000000000001</ele><time>2026-04-19T09:34:18.068Z</time></trkpt><trkpt lat="42.720842" lon="12.1341806"><ele>118.00000000000001</ele><time>2026-04-19T09:34:19.055Z</time></trkpt><trkpt lat="42.7209291" lon="12.1342271"><ele>118.0</ele><time>2026-04-19T09:34:20.059Z</time></trkpt><trkpt lat="42.7210047" lon="12.1342642"><ele>118.0</ele><time>2026-04-19T09:34:21.063Z</time></trkpt><trkpt lat="42.7210743" lon="12.1342925"><ele>117.66666666666667</ele><time>2026-04-19T09:34:22.065Z</time></trkpt><trkpt lat="42.7211421" lon="12.1343263"><ele>117.33333333333334</ele><time>2026-04-19T09:34:23.057Z</time></trkpt><trkpt lat="42.7212337" lon="12.1344463"><ele>117.0</ele><time>2026-04-19T09:34:25.058Z</time></trkpt><trkpt lat="42.7212865" lon="12.1345316"><ele>116.66666666666666</ele><time>2026-04-19T09:34:26.06Z</time></trkpt><trkpt lat="42.7213419" lon="12.1346275"><ele>116.33333333333333</ele><time>2026-04-19T09:34:27.062Z</time></trkpt><trkpt lat="42.7213731" lon="12.1347196"><ele>116.0</ele><time>2026-04-19T09:34:28.067Z</time></trkpt><trkpt lat="42.7214141" lon="12.1348211"><ele>116.0</ele><time>2026-04-19T09:34:29.068Z</time></trkpt><trkpt lat="42.7214717" lon="12.134916"><ele>116.0</ele><time>2026-04-19T09:34:30.056Z</time></trkpt><trkpt lat="42.7215753" lon="12.1349661"><ele>116.0</ele><time>2026-04-19T09:34:31.064Z</time></trkpt><trkpt lat="42.7216911" lon="12.1349744"><ele>116.0</ele><time>2026-04-19T09:34:32.056Z</time></trkpt><trkpt lat="42.7218021" lon="12.1350237"><ele>116.0</ele><time>2026-04-19T09:34:33.059Z</time></trkpt><trkpt lat="42.721906" lon="12.1350818"><ele>116.5</ele><time>2026-04-19T09:34:34.065Z</time></trkpt><trkpt lat="42.7220176" lon="12.1351392"><ele>117.0</ele><time>2026-04-19T09:34:35.059Z</time></trkpt><trkpt lat="42.7221187" lon="12.1352039"><ele>117.5</ele><time>2026-04-19T09:34:36.054Z</time></trkpt><trkpt lat="42.7222251" lon="12.1352777"><ele>118.0</ele><time>2026-04-19T09:34:37.057Z</time></trkpt><trkpt lat="42.7223332" lon="12.1353441"><ele>118.0</ele><time>2026-04-19T09:34:38.063Z</time></trkpt><trkpt lat="42.7224343" lon="12.1354045"><ele>118.00000000000001</ele><time>2026-04-19T09:34:39.061Z</time></trkpt><trkpt lat="42.7225333" lon="12.1354626"><ele>118.00000000000001</ele><time>2026-04-19T09:34:40.06Z</time></trkpt><trkpt lat="42.722629" lon="12.1355152"><ele>118.0</ele><time>2026-04-19T09:34:41.066Z</time></trkpt><trkpt lat="42.722724" lon="12.1355604"><ele>118.0</ele><time>2026-04-19T09:34:42.056Z</time></trkpt><trkpt lat="42.7228174" lon="12.135602"><ele>117.80000000000001</ele><time>2026-04-19T09:34:43.063Z</time></trkpt><trkpt lat="42.7229091" lon="12.1356396"><ele>117.60000000000001</ele><time>2026-04-19T09:34:44.059Z</time></trkpt><trkpt lat="42.7229931" lon="12.1356775"><ele>117.39999999999999</ele><time>2026-04-19T09:34:45.058Z</time></trkpt><trkpt lat="42.7230617" lon="12.1357046"><ele>117.19999999999999</ele><time>2026-04-19T09:34:46.063Z</time></trkpt><trkpt lat="42.7231594" lon="12.1357335"><ele>117.0</ele><time>2026-04-19T09:34:48.058Z</time></trkpt><trkpt lat="42.7232611" lon="12.1358388"><ele>116.5</ele><time>2026-04-19T09:34:50.065Z</time></trkpt><trkpt lat="42.7233162" lon="12.1359181"><ele>116.0</ele><time>2026-04-19T09:34:51.071Z</time></trkpt><trkpt lat="42.7233723" lon="12.1359864"><ele>115.5</ele><time>2026-04-19T09:34:52.078Z</time></trkpt><trkpt lat="42.7234159" lon="12.1360486"><ele>115.0</ele><time>2026-04-19T09:34:53.064Z</time></trkpt><trkpt lat="42.7235283" lon="12.1360474"><ele>114.5</ele><time>2026-04-19T09:34:55.083Z</time></trkpt><trkpt lat="42.7235906" lon="12.1359817"><ele>114.0</ele><time>2026-04-19T09:34:56.077Z</time></trkpt><trkpt lat="42.7236381" lon="12.1359019"><ele>113.4</ele><time>2026-04-19T09:34:57.073Z</time></trkpt><trkpt lat="42.723696" lon="12.1358417"><ele>112.80000000000001</ele><time>2026-04-19T09:34:58.076Z</time></trkpt><trkpt lat="42.7238192" lon="12.1358061"><ele>112.19999999999999</ele><time>2026-04-19T09:35:00.071Z</time></trkpt><trkpt lat="42.7239152" lon="12.1358313"><ele>111.6</ele><time>2026-04-19T09:35:01.06Z</time></trkpt><trkpt lat="42.7240253" lon="12.1358564"><ele>111.0</ele><time>2026-04-19T09:35:02.061Z</time></trkpt><trkpt lat="42.7241266" lon="12.1358748"><ele>111.0</ele><time>2026-04-19T09:35:03.055Z</time></trkpt><trkpt lat="42.7242482" lon="12.1358875"><ele>111.0</ele><time>2026-04-19T09:35:04.068Z</time></trkpt><trkpt lat="42.7243765" lon="12.1359034"><ele>111.0</ele><time>2026-04-19T09:35:05.059Z</time></trkpt><trkpt lat="42.7245023" lon="12.1359235"><ele>111.0</ele><time>2026-04-19T09:35:06.053Z</time></trkpt><trkpt lat="42.7246281" lon="12.1359411"><ele>110.75</ele><time>2026-04-19T09:35:07.059Z</time></trkpt><trkpt lat="42.7247536" lon="12.1359609"><ele>110.5</ele><time>2026-04-19T09:35:08.064Z</time></trkpt><trkpt lat="42.7248789" lon="12.1359788"><ele>110.25</ele><time>2026-04-19T09:35:09.074Z</time></trkpt><trkpt lat="42.7250099" lon="12.1359968"><ele>110.0</ele><time>2026-04-19T09:35:10.061Z</time></trkpt><trkpt lat="42.7251395" lon="12.1360159"><ele>110.5</ele><time>2026-04-19T09:35:11.067Z</time></trkpt><trkpt lat="42.7252675" lon="12.1360319"><ele>111.0</ele><time>2026-04-19T09:35:12.06Z</time></trkpt><trkpt lat="42.7253927" lon="12.1360507"><ele>111.5</ele><time>2026-04-19T09:35:13.074Z</time></trkpt><trkpt lat="42.7255148" lon="12.136071"><ele>112.0</ele><time>2026-04-19T09:35:14.062Z</time></trkpt><trkpt lat="42.7256334" lon="12.1360916"><ele>112.0</ele><time>2026-04-19T09:35:15.078Z</time></trkpt><trkpt lat="42.7257467" lon="12.1361106"><ele>111.99999999999999</ele><time>2026-04-19T09:35:16.064Z</time></trkpt><trkpt lat="42.7258566" lon="12.1361272"><ele>111.99999999999999</ele><time>2026-04-19T09:35:17.067Z</time></trkpt><trkpt lat="42.7259712" lon="12.1361449"><ele>112.0</ele><time>2026-04-19T09:35:18.069Z</time></trkpt><trkpt lat="42.7260795" lon="12.1361594"><ele>112.0</ele><time>2026-04-19T09:35:19.069Z</time></trkpt><trkpt lat="42.7261803" lon="12.1361773"><ele>113.0</ele><time>2026-04-19T09:35:20.052Z</time></trkpt><trkpt lat="42.7262736" lon="12.1362015"><ele>113.99999999999999</ele><time>2026-04-19T09:35:21.058Z</time></trkpt><trkpt lat="42.7263617" lon="12.1362374"><ele>114.99999999999999</ele><time>2026-04-19T09:35:22.061Z</time></trkpt><trkpt lat="42.7264433" lon="12.1362793"><ele>116.0</ele><time>2026-04-19T09:35:23.062Z</time></trkpt><trkpt lat="42.7265239" lon="12.1363288"><ele>117.0</ele><time>2026-04-19T09:35:24.061Z</time></trkpt><trkpt lat="42.7265991" lon="12.1363956"><ele>117.0</ele><time>2026-04-19T09:35:25.057Z</time></trkpt><trkpt lat="42.7266669" lon="12.1364731"><ele>116.99999999999999</ele><time>2026-04-19T09:35:26.07Z</time></trkpt><trkpt lat="42.7267447" lon="12.1365506"><ele>116.99999999999999</ele><time>2026-04-19T09:35:27.058Z</time></trkpt><trkpt lat="42.726823" lon="12.1366313"><ele>117.0</ele><time>2026-04-19T09:35:28.058Z</time></trkpt><trkpt lat="42.7269293" lon="12.1367016"><ele>117.0</ele><time>2026-04-19T09:35:29.075Z</time></trkpt><trkpt lat="42.7270374" lon="12.1367733"><ele>117.5</ele><time>2026-04-19T09:35:30.054Z</time></trkpt><trkpt lat="42.7271504" lon="12.136844"><ele>118.0</ele><time>2026-04-19T09:35:31.06Z</time></trkpt><trkpt lat="42.7272661" lon="12.1369181"><ele>118.5</ele><time>2026-04-19T09:35:32.071Z</time></trkpt><trkpt lat="42.7273853" lon="12.1370001"><ele>119.0</ele><time>2026-04-19T09:35:33.081Z</time></trkpt><trkpt lat="42.7275033" lon="12.1370798"><ele>119.0</ele><time>2026-04-19T09:35:34.077Z</time></trkpt><trkpt lat="42.7276222" lon="12.1371599"><ele>119.0</ele><time>2026-04-19T09:35:35.06Z</time></trkpt><trkpt lat="42.7277445" lon="12.1372456"><ele>119.0</ele><time>2026-04-19T09:35:36.073Z</time></trkpt><trkpt lat="42.7278695" lon="12.1373345"><ele>119.0</ele><time>2026-04-19T09:35:37.077Z</time></trkpt><trkpt lat="42.7279976" lon="12.1374329"><ele>119.5</ele><time>2026-04-19T09:35:38.08Z</time></trkpt><trkpt lat="42.7281264" lon="12.1375248"><ele>120.0</ele><time>2026-04-19T09:35:39.088Z</time></trkpt><trkpt lat="42.7282505" lon="12.1375943"><ele>120.5</ele><time>2026-04-19T09:35:40.057Z</time></trkpt><trkpt lat="42.7283755" lon="12.1376723"><ele>121.0</ele><time>2026-04-19T09:35:41.063Z</time></trkpt><trkpt lat="42.7284935" lon="12.1377529"><ele>121.75</ele><time>2026-04-19T09:35:42.062Z</time></trkpt><trkpt lat="42.7286084" lon="12.1378346"><ele>122.5</ele><time>2026-04-19T09:35:43.072Z</time></trkpt><trkpt lat="42.7287249" lon="12.1379044"><ele>123.25</ele><time>2026-04-19T09:35:44.08Z</time></trkpt><trkpt lat="42.7288526" lon="12.1379623"><ele>124.0</ele><time>2026-04-19T09:35:45.069Z</time></trkpt><trkpt lat="42.7289675" lon="12.1380424"><ele>124.0</ele><time>2026-04-19T09:35:46.08Z</time></trkpt><trkpt lat="42.7290847" lon="12.1381183"><ele>124.0</ele><time>2026-04-19T09:35:47.072Z</time></trkpt><trkpt lat="42.7291934" lon="12.1382059"><ele>124.0</ele><time>2026-04-19T09:35:48.098Z</time></trkpt><trkpt lat="42.7293094" lon="12.1382975"><ele>124.0</ele><time>2026-04-19T09:35:49.075Z</time></trkpt><trkpt lat="42.7294086" lon="12.1383921"><ele>124.75</ele><time>2026-04-19T09:35:50.067Z</time></trkpt><trkpt lat="42.7295074" lon="12.1384823"><ele>125.5</ele><time>2026-04-19T09:35:51.067Z</time></trkpt><trkpt lat="42.7296082" lon="12.1385684"><ele>126.25</ele><time>2026-04-19T09:35:52.056Z</time></trkpt><trkpt lat="42.7297036" lon="12.1386528"><ele>127.0</ele><time>2026-04-19T09:35:53.067Z</time></trkpt><trkpt lat="42.7297918" lon="12.1387359"><ele>127.0</ele><time>2026-04-19T09:35:54.065Z</time></trkpt><trkpt lat="42.7298824" lon="12.1388118"><ele>126.99999999999999</ele><time>2026-04-19T09:35:55.064Z</time></trkpt><trkpt lat="42.7299694" lon="12.1388925"><ele>126.99999999999999</ele><time>2026-04-19T09:35:56.064Z</time></trkpt><trkpt lat="42.7300556" lon="12.1389691"><ele>127.0</ele><time>2026-04-19T09:35:57.057Z</time></trkpt><trkpt lat="42.7301376" lon="12.1390431"><ele>127.0</ele><time>2026-04-19T09:35:58.066Z</time></trkpt><trkpt lat="42.7302083" lon="12.1391062"><ele>127.57142857142858</ele><time>2026-04-19T09:35:59.061Z</time></trkpt><trkpt lat="42.7302808" lon="12.1391664"><ele>128.14285714285714</ele><time>2026-04-19T09:36:00.064Z</time></trkpt><trkpt lat="42.7303498" lon="12.1392281"><ele>128.71428571428572</ele><time>2026-04-19T09:36:01.064Z</time></trkpt><trkpt lat="42.7304148" lon="12.1392839"><ele>129.28571428571428</ele><time>2026-04-19T09:36:02.059Z</time></trkpt><trkpt lat="42.7304781" lon="12.1393379"><ele>129.85714285714286</ele><time>2026-04-19T09:36:03.069Z</time></trkpt><trkpt lat="42.7305319" lon="12.1393903"><ele>130.42857142857144</ele><time>2026-04-19T09:36:04.065Z</time></trkpt><trkpt lat="42.7305831" lon="12.1394405"><ele>131.0</ele><time>2026-04-19T09:36:05.062Z</time></trkpt><trkpt lat="42.7306022" lon="12.1395425"><ele>131.0</ele><time>2026-04-19T09:36:07.067Z</time></trkpt><trkpt lat="42.7306336" lon="12.1396631"><ele>131.0</ele><time>2026-04-19T09:36:09.063Z</time></trkpt><trkpt lat="42.7306837" lon="12.1397672"><ele>131.0</ele><time>2026-04-19T09:36:11.058Z</time></trkpt><trkpt lat="42.7307731" lon="12.1397378"><ele>131.0</ele><time>2026-04-19T09:36:13.066Z</time></trkpt><trkpt lat="42.7308214" lon="12.139678"><ele>131.0</ele><time>2026-04-19T09:36:14.063Z</time></trkpt><trkpt lat="42.7308698" lon="12.1396191"><ele>131.0</ele><time>2026-04-19T09:36:15.056Z</time></trkpt><trkpt lat="42.7309535" lon="12.1395948"><ele>131.0</ele><time>2026-04-19T09:36:16.068Z</time></trkpt><trkpt lat="42.7310533" lon="12.1395911"><ele>131.0</ele><time>2026-04-19T09:36:17.05Z</time></trkpt><trkpt lat="42.7311576" lon="12.1395979"><ele>131.0</ele><time>2026-04-19T09:36:18.069Z</time></trkpt><trkpt lat="42.7312688" lon="12.1396141"><ele>131.0</ele><time>2026-04-19T09:36:19.075Z</time></trkpt><trkpt lat="42.7313875" lon="12.139646"><ele>131.0</ele><time>2026-04-19T09:36:20.06Z</time></trkpt><trkpt lat="42.7315119" lon="12.1396858"><ele>131.25</ele><time>2026-04-19T09:36:21.062Z</time></trkpt><trkpt lat="42.7316383" lon="12.1397344"><ele>131.5</ele><time>2026-04-19T09:36:22.056Z</time></trkpt><trkpt lat="42.7317656" lon="12.1397844"><ele>131.75</ele><time>2026-04-19T09:36:23.062Z</time></trkpt><trkpt lat="42.7318931" lon="12.1398352"><ele>132.0</ele><time>2026-04-19T09:36:24.061Z</time></trkpt><trkpt lat="42.7320249" lon="12.1398857"><ele>133.25</ele><time>2026-04-19T09:36:25.057Z</time></trkpt><trkpt lat="42.7321587" lon="12.1399436"><ele>134.5</ele><time>2026-04-19T09:36:26.056Z</time></trkpt><trkpt lat="42.7322879" lon="12.1400012"><ele>135.75</ele><time>2026-04-19T09:36:27.052Z</time></trkpt><trkpt lat="42.7324182" lon="12.1400704"><ele>137.0</ele><time>2026-04-19T09:36:28.056Z</time></trkpt><trkpt lat="42.7325469" lon="12.1401436"><ele>137.0</ele><time>2026-04-19T09:36:29.066Z</time></trkpt><trkpt lat="42.7326707" lon="12.1402218"><ele>137.0</ele><time>2026-04-19T09:36:30.054Z</time></trkpt><trkpt lat="42.7327878" lon="12.1403026"><ele>137.0</ele><time>2026-04-19T09:36:31.062Z</time></trkpt><trkpt lat="42.732899" lon="12.1403905"><ele>137.0</ele><time>2026-04-19T09:36:32.06Z</time></trkpt><trkpt lat="42.7329892" lon="12.1404886"><ele>137.4</ele><time>2026-04-19T09:36:33.056Z</time></trkpt><trkpt lat="42.7330588" lon="12.1406011"><ele>137.79999999999998</ele><time>2026-04-19T09:36:34.057Z</time></trkpt><trkpt lat="42.733115" lon="12.1407075"><ele>138.2</ele><time>2026-04-19T09:36:35.06Z</time></trkpt><trkpt lat="42.7331484" lon="12.1408221"><ele>138.6</ele><time>2026-04-19T09:36:36.071Z</time></trkpt><trkpt lat="42.7331685" lon="12.1409396"><ele>139.0</ele><time>2026-04-19T09:36:37.06Z</time></trkpt><trkpt lat="42.7332071" lon="12.141028"><ele>139.4</ele><time>2026-04-19T09:36:38.081Z</time></trkpt><trkpt lat="42.7333409" lon="12.1410577"><ele>139.8</ele><time>2026-04-19T09:36:40.068Z</time></trkpt><trkpt lat="42.7334362" lon="12.1410277"><ele>140.2</ele><time>2026-04-19T09:36:41.057Z</time></trkpt><trkpt lat="42.7335353" lon="12.1409968"><ele>140.6</ele><time>2026-04-19T09:36:42.062Z</time></trkpt><trkpt lat="42.7336345" lon="12.1409903"><ele>141.0</ele><time>2026-04-19T09:36:43.068Z</time></trkpt><trkpt lat="42.7337452" lon="12.1410153"><ele>143.0</ele><time>2026-04-19T09:36:44.049Z</time></trkpt><trkpt lat="42.7338518" lon="12.1410698"><ele>145.0</ele><time>2026-04-19T09:36:45.061Z</time></trkpt><trkpt lat="42.7339585" lon="12.1411446"><ele>147.0</ele><time>2026-04-19T09:36:46.051Z</time></trkpt><trkpt lat="42.7340643" lon="12.1412272"><ele>149.0</ele><time>2026-04-19T09:36:47.054Z</time></trkpt><trkpt lat="42.7341654" lon="12.1413237"><ele>149.0</ele><time>2026-04-19T09:36:48.061Z</time></trkpt><trkpt lat="42.7342683" lon="12.1414363"><ele>149.0</ele><time>2026-04-19T09:36:49.059Z</time></trkpt><trkpt lat="42.7343695" lon="12.1415542"><ele>149.0</ele><time>2026-04-19T09:36:50.06Z</time></trkpt><trkpt lat="42.734473" lon="12.1416778"><ele>149.0</ele><time>2026-04-19T09:36:51.064Z</time></trkpt><trkpt lat="42.734572" lon="12.141797"><ele>152.66666666666666</ele><time>2026-04-19T09:36:52.055Z</time></trkpt><trkpt lat="42.7346849" lon="12.1419355"><ele>156.33333333333334</ele><time>2026-04-19T09:36:53.062Z</time></trkpt><trkpt lat="42.7347962" lon="12.1420747"><ele>160.0</ele><time>2026-04-19T09:36:54.064Z</time></trkpt><trkpt lat="42.734897" lon="12.1422241"><ele>159.66666666666669</ele><time>2026-04-19T09:36:55.044Z</time></trkpt><trkpt lat="42.7350003" lon="12.1423853"><ele>159.33333333333334</ele><time>2026-04-19T09:36:56.059Z</time></trkpt><trkpt lat="42.735106" lon="12.1425434"><ele>159.0</ele><time>2026-04-19T09:36:57.062Z</time></trkpt><trkpt lat="42.7352126" lon="12.1427124"><ele>163.0</ele><time>2026-04-19T09:36:58.056Z</time></trkpt><trkpt lat="42.7353183" lon="12.1428813"><ele>167.0</ele><time>2026-04-19T09:36:59.066Z</time></trkpt><trkpt lat="42.7354255" lon="12.1430451"><ele>171.0</ele><time>2026-04-19T09:37:00.058Z</time></trkpt><trkpt lat="42.7355036" lon="12.1432227"><ele>171.33333333333334</ele><time>2026-04-19T09:37:01.057Z</time></trkpt><trkpt lat="42.7355481" lon="12.1434093"><ele>171.66666666666669</ele><time>2026-04-19T09:37:02.064Z</time></trkpt><trkpt lat="42.735583" lon="12.1436112"><ele>172.0</ele><time>2026-04-19T09:37:03.055Z</time></trkpt><trkpt lat="42.7355876" lon="12.1438447"><ele>171.66666666666669</ele><time>2026-04-19T09:37:04.062Z</time></trkpt><trkpt lat="42.7355867" lon="12.1440596"><ele>171.33333333333334</ele><time>2026-04-19T09:37:05.07Z</time></trkpt><trkpt lat="42.7355944" lon="12.1442733"><ele>171.0</ele><time>2026-04-19T09:37:06.063Z</time></trkpt><trkpt lat="42.7356151" lon="12.1444976"><ele>171.0</ele><time>2026-04-19T09:37:07.059Z</time></trkpt><trkpt lat="42.7356746" lon="12.1447033"><ele>171.0</ele><time>2026-04-19T09:37:08.07Z</time></trkpt><trkpt lat="42.7357471" lon="12.1448846"><ele>171.0</ele><time>2026-04-19T09:37:09.059Z</time></trkpt><trkpt lat="42.7358936" lon="12.1449936"><ele>174.0</ele><time>2026-04-19T09:37:10.05Z</time></trkpt><trkpt lat="42.7360607" lon="12.1450677"><ele>177.0</ele><time>2026-04-19T09:37:11.058Z</time></trkpt><trkpt lat="42.7362206" lon="12.1451534"><ele>180.0</ele><time>2026-04-19T09:37:12.051Z</time></trkpt><trkpt lat="42.7363822" lon="12.1452398"><ele>180.0</ele><time>2026-04-19T09:37:13.06Z</time></trkpt><trkpt lat="42.7365451" lon="12.145344"><ele>180.0</ele><time>2026-04-19T09:37:14.057Z</time></trkpt><trkpt lat="42.7366965" lon="12.145455"><ele>180.0</ele><time>2026-04-19T09:37:15.062Z</time></trkpt><trkpt lat="42.7368632" lon="12.1455649"><ele>180.33333333333334</ele><time>2026-04-19T09:37:16.062Z</time></trkpt><trkpt lat="42.7370313" lon="12.1456786"><ele>180.66666666666669</ele><time>2026-04-19T09:37:17.065Z</time></trkpt><trkpt lat="42.7371959" lon="12.1457835"><ele>181.0</ele><time>2026-04-19T09:37:18.062Z</time></trkpt><trkpt lat="42.7373556" lon="12.1458983"><ele>181.33333333333334</ele><time>2026-04-19T09:37:19.057Z</time></trkpt><trkpt lat="42.7375184" lon="12.1460326"><ele>181.66666666666666</ele><time>2026-04-19T09:37:20.066Z</time></trkpt><trkpt lat="42.7376812" lon="12.1461697"><ele>182.0</ele><time>2026-04-19T09:37:21.05Z</time></trkpt><trkpt lat="42.7378448" lon="12.1462876"><ele>183.0</ele><time>2026-04-19T09:37:22.072Z</time></trkpt><trkpt lat="42.7380001" lon="12.1463915"><ele>184.0</ele><time>2026-04-19T09:37:23.056Z</time></trkpt><trkpt lat="42.7381738" lon="12.1465011"><ele>185.0</ele><time>2026-04-19T09:37:24.062Z</time></trkpt><trkpt lat="42.7383455" lon="12.1466105"><ele>186.0</ele><time>2026-04-19T09:37:25.068Z</time></trkpt><trkpt lat="42.7385193" lon="12.1467204"><ele>187.0</ele><time>2026-04-19T09:37:26.071Z</time></trkpt><trkpt lat="42.738701" lon="12.1468288"><ele>188.0</ele><time>2026-04-19T09:37:27.066Z</time></trkpt><trkpt lat="42.7388775" lon="12.1469384"><ele>189.33333333333331</ele><time>2026-04-19T09:37:28.062Z</time></trkpt><trkpt lat="42.739058" lon="12.1470489"><ele>190.66666666666666</ele><time>2026-04-19T09:37:29.071Z</time></trkpt><trkpt lat="42.7392359" lon="12.1471553"><ele>192.0</ele><time>2026-04-19T09:37:30.058Z</time></trkpt><trkpt lat="42.7394128" lon="12.1472732"><ele>194.66666666666669</ele><time>2026-04-19T09:37:31.059Z</time></trkpt><trkpt lat="42.739596" lon="12.147387"><ele>197.33333333333334</ele><time>2026-04-19T09:37:32.057Z</time></trkpt><trkpt lat="42.7397735" lon="12.1474977"><ele>200.0</ele><time>2026-04-19T09:37:33.055Z</time></trkpt><trkpt lat="42.7399527" lon="12.1476137"><ele>200.0</ele><time>2026-04-19T09:37:34.07Z</time></trkpt><trkpt lat="42.740132" lon="12.1477279"><ele>200.0</ele><time>2026-04-19T09:37:35.059Z</time></trkpt><trkpt lat="42.7403022" lon="12.1478309"><ele>200.0</ele><time>2026-04-19T09:37:36.063Z</time></trkpt><trkpt lat="42.740468" lon="12.1479276"><ele>201.66666666666669</ele><time>2026-04-19T09:37:37.061Z</time></trkpt><trkpt lat="42.7406273" lon="12.1480167"><ele>203.33333333333331</ele><time>2026-04-19T09:37:38.082Z</time></trkpt><trkpt lat="42.740795" lon="12.1481133"><ele>205.0</ele><time>2026-04-19T09:37:39.063Z</time></trkpt><trkpt lat="42.7409678" lon="12.1482065"><ele>207.0</ele><time>2026-04-19T09:37:40.058Z</time></trkpt><trkpt lat="42.7411424" lon="12.1482773"><ele>209.0</ele><time>2026-04-19T09:37:41.057Z</time></trkpt><trkpt lat="42.7413182" lon="12.1483361"><ele>211.0</ele><time>2026-04-19T09:37:42.064Z</time></trkpt><trkpt lat="42.7414907" lon="12.1483774"><ele>211.0</ele><time>2026-04-19T09:37:43.061Z</time></trkpt><trkpt lat="42.741663" lon="12.1484193"><ele>211.0</ele><time>2026-04-19T09:37:44.063Z</time></trkpt><trkpt lat="42.741819" lon="12.1484482"><ele>211.0</ele><time>2026-04-19T09:37:45.074Z</time></trkpt><trkpt lat="42.741974" lon="12.1484673"><ele>211.5</ele><time>2026-04-19T09:37:46.084Z</time></trkpt><trkpt lat="42.7421237" lon="12.14849"><ele>212.0</ele><time>2026-04-19T09:37:47.065Z</time></trkpt><trkpt lat="42.7422632" lon="12.1485075"><ele>212.5</ele><time>2026-04-19T09:37:48.067Z</time></trkpt><trkpt lat="42.7424126" lon="12.1485291"><ele>213.0</ele><time>2026-04-19T09:37:49.072Z</time></trkpt><trkpt lat="42.7425633" lon="12.1485549"><ele>213.0</ele><time>2026-04-19T09:37:50.058Z</time></trkpt><trkpt lat="42.7427241" lon="12.1485862"><ele>213.0</ele><time>2026-04-19T09:37:51.069Z</time></trkpt><trkpt lat="42.7428827" lon="12.1486296"><ele>213.0</ele><time>2026-04-19T09:37:52.071Z</time></trkpt><trkpt lat="42.7430442" lon="12.1486794"><ele>213.0</ele><time>2026-04-19T09:37:53.077Z</time></trkpt><trkpt lat="42.7432039" lon="12.1487368"><ele>213.0</ele><time>2026-04-19T09:37:54.076Z</time></trkpt><trkpt lat="42.743378" lon="12.1487975"><ele>213.0</ele><time>2026-04-19T09:37:55.08Z</time></trkpt><trkpt lat="42.7435601" lon="12.1488612"><ele>211.33333333333331</ele><time>2026-04-19T09:37:56.068Z</time></trkpt><trkpt lat="42.7437465" lon="12.1489317"><ele>209.66666666666666</ele><time>2026-04-19T09:37:57.054Z</time></trkpt><trkpt lat="42.7439449" lon="12.1490014"><ele>208.0</ele><time>2026-04-19T09:37:58.079Z</time></trkpt><trkpt lat="42.7441513" lon="12.1490735"><ele>211.66666666666666</ele><time>2026-04-19T09:37:59.07Z</time></trkpt><trkpt lat="42.7443629" lon="12.149148"><ele>215.33333333333331</ele><time>2026-04-19T09:38:00.071Z</time></trkpt><trkpt lat="42.7445723" lon="12.1492248"><ele>219.0</ele><time>2026-04-19T09:38:01.07Z</time></trkpt><trkpt lat="42.7447813" lon="12.1493081"><ele>220.0</ele><time>2026-04-19T09:38:02.066Z</time></trkpt><trkpt lat="42.7449872" lon="12.1493893"><ele>221.0</ele><time>2026-04-19T09:38:03.059Z</time></trkpt><trkpt lat="42.7451771" lon="12.149491"><ele>222.0</ele><time>2026-04-19T09:38:04.054Z</time></trkpt><trkpt lat="42.7453651" lon="12.1496222"><ele>223.33333333333331</ele><time>2026-04-19T09:38:05.056Z</time></trkpt><trkpt lat="42.7455123" lon="12.1498211"><ele>224.66666666666666</ele><time>2026-04-19T09:38:06.063Z</time></trkpt><trkpt lat="42.7456447" lon="12.1500395"><ele>226.0</ele><time>2026-04-19T09:38:07.058Z</time></trkpt><trkpt lat="42.7457423" lon="12.1502602"><ele>227.0</ele><time>2026-04-19T09:38:08.059Z</time></trkpt><trkpt lat="42.7458171" lon="12.1505076"><ele>228.0</ele><time>2026-04-19T09:38:09.068Z</time></trkpt><trkpt lat="42.7459157" lon="12.150704"><ele>229.0</ele><time>2026-04-19T09:38:10.053Z</time></trkpt><trkpt lat="42.7459884" lon="12.1509129"><ele>226.25</ele><time>2026-04-19T09:38:11.052Z</time></trkpt><trkpt lat="42.7460707" lon="12.1510966"><ele>223.5</ele><time>2026-04-19T09:38:12.071Z</time></trkpt><trkpt lat="42.746135" lon="12.1512456"><ele>220.75</ele><time>2026-04-19T09:38:13.066Z</time></trkpt><trkpt lat="42.7461698" lon="12.1513979"><ele>218.0</ele><time>2026-04-19T09:38:14.059Z</time></trkpt><trkpt lat="42.7461268" lon="12.1515653"><ele>222.66666666666669</ele><time>2026-04-19T09:38:15.056Z</time></trkpt><trkpt lat="42.7460063" lon="12.1516955"><ele>227.33333333333331</ele><time>2026-04-19T09:38:16.058Z</time></trkpt><trkpt lat="42.7458469" lon="12.1518269"><ele>232.0</ele><time>2026-04-19T09:38:17.051Z</time></trkpt><trkpt lat="42.745748" lon="12.151972"><ele>232.0</ele><time>2026-04-19T09:38:18.052Z</time></trkpt><trkpt lat="42.745688" lon="12.1521972"><ele>232.0</ele><time>2026-04-19T09:38:19.059Z</time></trkpt><trkpt lat="42.7456408" lon="12.152417"><ele>232.0</ele><time>2026-04-19T09:38:20.067Z</time></trkpt><trkpt lat="42.7456413" lon="12.1526613"><ele>233.0</ele><time>2026-04-19T09:38:21.052Z</time></trkpt><trkpt lat="42.7456665" lon="12.1529189"><ele>234.0</ele><time>2026-04-19T09:38:22.065Z</time></trkpt><trkpt lat="42.7457164" lon="12.1531366"><ele>235.0</ele><time>2026-04-19T09:38:23.052Z</time></trkpt><trkpt lat="42.7457694" lon="12.153334"><ele>237.25</ele><time>2026-04-19T09:38:24.056Z</time></trkpt><trkpt lat="42.7458058" lon="12.1535253"><ele>239.5</ele><time>2026-04-19T09:38:25.051Z</time></trkpt><trkpt lat="42.7458246" lon="12.153696"><ele>241.75</ele><time>2026-04-19T09:38:26.055Z</time></trkpt><trkpt lat="42.7457612" lon="12.153841"><ele>244.0</ele><time>2026-04-19T09:38:27.053Z</time></trkpt><trkpt lat="42.7456532" lon="12.1539617"><ele>242.66666666666666</ele><time>2026-04-19T09:38:28.055Z</time></trkpt><trkpt lat="42.7455409" lon="12.1540807"><ele>241.33333333333331</ele><time>2026-04-19T09:38:29.053Z</time></trkpt><trkpt lat="42.7454039" lon="12.1541997"><ele>240.0</ele><time>2026-04-19T09:38:30.073Z</time></trkpt><trkpt lat="42.7452975" lon="12.1543864"><ele>240.0</ele><time>2026-04-19T09:38:31.059Z</time></trkpt><trkpt lat="42.7452367" lon="12.1546168"><ele>240.0</ele><time>2026-04-19T09:38:32.059Z</time></trkpt><trkpt lat="42.7452123" lon="12.1548858"><ele>240.0</ele><time>2026-04-19T09:38:33.053Z</time></trkpt><trkpt lat="42.7452248" lon="12.1551375"><ele>239.66666666666669</ele><time>2026-04-19T09:38:34.053Z</time></trkpt><trkpt lat="42.7452848" lon="12.1554146"><ele>239.33333333333334</ele><time>2026-04-19T09:38:35.052Z</time></trkpt><trkpt lat="42.7453845" lon="12.155703"><ele>239.0</ele><time>2026-04-19T09:38:36.059Z</time></trkpt><trkpt lat="42.7455344" lon="12.1559797"><ele>244.5</ele><time>2026-04-19T09:38:37.058Z</time></trkpt><trkpt lat="42.7457236" lon="12.1562367"><ele>250.0</ele><time>2026-04-19T09:38:38.056Z</time></trkpt><trkpt lat="42.7459153" lon="12.1564929"><ele>254.0</ele><time>2026-04-19T09:38:39.076Z</time></trkpt><trkpt lat="42.7461382" lon="12.1567092"><ele>258.0</ele><time>2026-04-19T09:38:40.072Z</time></trkpt><trkpt lat="42.7463821" lon="12.1568667"><ele>258.0</ele><time>2026-04-19T09:38:41.073Z</time></trkpt><trkpt lat="42.746616" lon="12.1569793"><ele>258.0</ele><time>2026-04-19T09:38:42.079Z</time></trkpt><trkpt lat="42.74683" lon="12.1570591"><ele>257.3333333333333</ele><time>2026-04-19T09:38:43.078Z</time></trkpt><trkpt lat="42.7470397" lon="12.1571331"><ele>256.66666666666663</ele><time>2026-04-19T09:38:44.067Z</time></trkpt><trkpt lat="42.7472305" lon="12.1572191"><ele>256.0</ele><time>2026-04-19T09:38:45.064Z</time></trkpt><trkpt lat="42.7473725" lon="12.1573632"><ele>258.0</ele><time>2026-04-19T09:38:46.053Z</time></trkpt><trkpt lat="42.7474444" lon="12.1575944"><ele>260.0</ele><time>2026-04-19T09:38:47.053Z</time></trkpt><trkpt lat="42.7474769" lon="12.1578456"><ele>262.0</ele><time>2026-04-19T09:38:48.057Z</time></trkpt><trkpt lat="42.7474634" lon="12.1580955"><ele>262.3333333333333</ele><time>2026-04-19T09:38:49.075Z</time></trkpt><trkpt lat="42.7474571" lon="12.1583144"><ele>262.6666666666667</ele><time>2026-04-19T09:38:50.062Z</time></trkpt><trkpt lat="42.7474121" lon="12.1585207"><ele>263.0</ele><time>2026-04-19T09:38:51.06Z</time></trkpt><trkpt lat="42.7473487" lon="12.1587111"><ele>263.0</ele><time>2026-04-19T09:38:52.062Z</time></trkpt><trkpt lat="42.7473152" lon="12.1588914"><ele>263.0</ele><time>2026-04-19T09:38:53.067Z</time></trkpt><trkpt lat="42.7472914" lon="12.1590723"><ele>263.0</ele><time>2026-04-19T09:38:54.076Z</time></trkpt><trkpt lat="42.7472799" lon="12.159232"><ele>263.0</ele><time>2026-04-19T09:38:55.062Z</time></trkpt><trkpt lat="42.7472943" lon="12.1593811"><ele>263.75</ele><time>2026-04-19T09:38:56.065Z</time></trkpt><trkpt lat="42.7473421" lon="12.1594947"><ele>264.5</ele><time>2026-04-19T09:38:57.065Z</time></trkpt><trkpt lat="42.7474382" lon="12.159586"><ele>265.25</ele><time>2026-04-19T09:38:58.053Z</time></trkpt><trkpt lat="42.7475613" lon="12.1596629"><ele>266.0</ele><time>2026-04-19T09:38:59.062Z</time></trkpt><trkpt lat="42.747714" lon="12.1597355"><ele>266.33333333333337</ele><time>2026-04-19T09:39:00.059Z</time></trkpt><trkpt lat="42.7478749" lon="12.1598228"><ele>266.6666666666667</ele><time>2026-04-19T09:39:01.064Z</time></trkpt><trkpt lat="42.748028" lon="12.1599254"><ele>267.0</ele><time>2026-04-19T09:39:02.049Z</time></trkpt><trkpt lat="42.7481549" lon="12.1600518"><ele>268.3333333333333</ele><time>2026-04-19T09:39:03.053Z</time></trkpt><trkpt lat="42.7482823" lon="12.1601841"><ele>269.66666666666663</ele><time>2026-04-19T09:39:04.054Z</time></trkpt><trkpt lat="42.7483998" lon="12.1603083"><ele>271.0</ele><time>2026-04-19T09:39:05.065Z</time></trkpt><trkpt lat="42.7485076" lon="12.1604572"><ele>270.0</ele><time>2026-04-19T09:39:06.06Z</time></trkpt><trkpt lat="42.7486019" lon="12.1606228"><ele>269.0</ele><time>2026-04-19T09:39:07.058Z</time></trkpt><trkpt lat="42.7486731" lon="12.1607844"><ele>268.0</ele><time>2026-04-19T09:39:08.06Z</time></trkpt><trkpt lat="42.7487404" lon="12.1609534"><ele>267.0</ele><time>2026-04-19T09:39:09.059Z</time></trkpt><trkpt lat="42.7487881" lon="12.1611494"><ele>267.0</ele><time>2026-04-19T09:39:10.057Z</time></trkpt><trkpt lat="42.7488357" lon="12.1613712"><ele>267.0</ele><time>2026-04-19T09:39:11.062Z</time></trkpt><trkpt lat="42.7488827" lon="12.1615791"><ele>267.0</ele><time>2026-04-19T09:39:12.059Z</time></trkpt><trkpt lat="42.7489126" lon="12.1618235"><ele>269.0</ele><time>2026-04-19T09:39:13.06Z</time></trkpt><trkpt lat="42.7489223" lon="12.1620636"><ele>271.0</ele><time>2026-04-19T09:39:14.057Z</time></trkpt><trkpt lat="42.748923" lon="12.1622706"><ele>273.0</ele><time>2026-04-19T09:39:15.048Z</time></trkpt><trkpt lat="42.7489115" lon="12.1624775"><ele>275.0</ele><time>2026-04-19T09:39:16.057Z</time></trkpt><trkpt lat="42.748827" lon="12.1626723"><ele>277.0</ele><time>2026-04-19T09:39:17.051Z</time></trkpt><trkpt lat="42.7487035" lon="12.162765"><ele>279.0</ele><time>2026-04-19T09:39:18.058Z</time></trkpt><trkpt lat="42.7485863" lon="12.16287"><ele>281.0</ele><time>2026-04-19T09:39:19.061Z</time></trkpt><trkpt lat="42.7484929" lon="12.162991"><ele>281.0</ele><time>2026-04-19T09:39:20.056Z</time></trkpt><trkpt lat="42.7484204" lon="12.1631288"><ele>281.0</ele><time>2026-04-19T09:39:21.047Z</time></trkpt><trkpt lat="42.7483749" lon="12.1632495"><ele>281.0</ele><time>2026-04-19T09:39:22.06Z</time></trkpt><trkpt lat="42.7483311" lon="12.1633792"><ele>281.0</ele><time>2026-04-19T09:39:23.052Z</time></trkpt><trkpt lat="42.7482818" lon="12.1635197"><ele>281.0</ele><time>2026-04-19T09:39:24.052Z</time></trkpt><trkpt lat="42.7482201" lon="12.163652"><ele>283.0</ele><time>2026-04-19T09:39:25.056Z</time></trkpt><trkpt lat="42.748163" lon="12.1637755"><ele>285.0</ele><time>2026-04-19T09:39:26.05Z</time></trkpt><trkpt lat="42.7480995" lon="12.1638618"><ele>287.0</ele><time>2026-04-19T09:39:27.053Z</time></trkpt><trkpt lat="42.7480226" lon="12.1639225"><ele>289.0</ele><time>2026-04-19T09:39:28.055Z</time></trkpt><trkpt lat="42.7479617" lon="12.1639708"><ele>291.0</ele><time>2026-04-19T09:39:29.053Z</time></trkpt><trkpt lat="42.7478771" lon="12.1639516"><ele>293.0</ele><time>2026-04-19T09:39:30.05Z</time></trkpt><trkpt lat="42.747779" lon="12.1639288"><ele>295.0</ele><time>2026-04-19T09:39:31.054Z</time></trkpt><trkpt lat="42.7476689" lon="12.1638492"><ele>297.0</ele><time>2026-04-19T09:39:32.048Z</time></trkpt><trkpt lat="42.7475326" lon="12.1636918"><ele>299.0</ele><time>2026-04-19T09:39:33.06Z</time></trkpt><trkpt lat="42.7474069" lon="12.1635495"><ele>299.0</ele><time>2026-04-19T09:39:34.053Z</time></trkpt><trkpt lat="42.747297" lon="12.1634883"><ele>299.0</ele><time>2026-04-19T09:39:35.057Z</time></trkpt><trkpt lat="42.7472209" lon="12.1634906"><ele>299.0</ele><time>2026-04-19T09:39:36.052Z</time></trkpt><trkpt lat="42.7471472" lon="12.1635291"><ele>299.0</ele><time>2026-04-19T09:39:37.052Z</time></trkpt><trkpt lat="42.7471267" lon="12.1634396"><ele>299.0</ele><time>2026-04-19T09:39:38.058Z</time></trkpt><trkpt lat="42.7472478" lon="12.1635023"><ele>299.0</ele><time>2026-04-19T09:39:42.057Z</time></trkpt><trkpt lat="42.7473327" lon="12.1635386"><ele>299.0</ele><time>2026-04-19T09:39:43.061Z</time></trkpt><trkpt lat="42.7474344" lon="12.1635994"><ele>299.0</ele><time>2026-04-19T09:39:44.052Z</time></trkpt><trkpt lat="42.7475343" lon="12.1636561"><ele>299.0</ele><time>2026-04-19T09:39:45.052Z</time></trkpt><trkpt lat="42.7476804" lon="12.1637781"><ele>299.6666666666667</ele><time>2026-04-19T09:39:46.053Z</time></trkpt><trkpt lat="42.7478266" lon="12.1639363"><ele>300.3333333333333</ele><time>2026-04-19T09:39:47.052Z</time></trkpt><trkpt lat="42.747948" lon="12.1640977"><ele>301.0</ele><time>2026-04-19T09:39:48.048Z</time></trkpt><trkpt lat="42.7480489" lon="12.1642581"><ele>301.0</ele><time>2026-04-19T09:39:49.064Z</time></trkpt><trkpt lat="42.748124" lon="12.1643983"><ele>301.0</ele><time>2026-04-19T09:39:50.047Z</time></trkpt><trkpt lat="42.7481999" lon="12.1645136"><ele>301.0</ele><time>2026-04-19T09:39:51.056Z</time></trkpt><trkpt lat="42.7482755" lon="12.1646062"><ele>301.0</ele><time>2026-04-19T09:39:52.052Z</time></trkpt><trkpt lat="42.7483708" lon="12.1646342"><ele>301.0</ele><time>2026-04-19T09:39:53.061Z</time></trkpt><trkpt lat="42.7484774" lon="12.1646713"><ele>300.8</ele><time>2026-04-19T09:39:54.066Z</time></trkpt><trkpt lat="42.7485629" lon="12.1647102"><ele>300.6</ele><time>2026-04-19T09:39:55.05Z</time></trkpt><trkpt lat="42.7486239" lon="12.1647748"><ele>300.4</ele><time>2026-04-19T09:39:56.05Z</time></trkpt><trkpt lat="42.7486974" lon="12.1648599"><ele>300.2</ele><time>2026-04-19T09:39:57.065Z</time></trkpt><trkpt lat="42.7487903" lon="12.1650104"><ele>300.0</ele><time>2026-04-19T09:39:58.052Z</time></trkpt><trkpt lat="42.748769" lon="12.1651087"><ele>300.4</ele><time>2026-04-19T09:39:59.053Z</time></trkpt><trkpt lat="42.7487641" lon="12.1652025"><ele>300.8</ele><time>2026-04-19T09:40:00.056Z</time></trkpt><trkpt lat="42.7487195" lon="12.1653004"><ele>301.2</ele><time>2026-04-19T09:40:01.054Z</time></trkpt><trkpt lat="42.7486104" lon="12.1653541"><ele>301.6</ele><time>2026-04-19T09:40:02.061Z</time></trkpt><trkpt lat="42.7484913" lon="12.1653461"><ele>302.0</ele><time>2026-04-19T09:40:03.054Z</time></trkpt><trkpt lat="42.7483777" lon="12.1653"><ele>301.75</ele><time>2026-04-19T09:40:04.054Z</time></trkpt><trkpt lat="42.7482743" lon="12.1652135"><ele>301.5</ele><time>2026-04-19T09:40:05.058Z</time></trkpt><trkpt lat="42.7481796" lon="12.1650913"><ele>301.25</ele><time>2026-04-19T09:40:06.063Z</time></trkpt><trkpt lat="42.7480876" lon="12.1649706"><ele>301.0</ele><time>2026-04-19T09:40:07.057Z</time></trkpt><trkpt lat="42.7480182" lon="12.1648363"><ele>301.0</ele><time>2026-04-19T09:40:08.062Z</time></trkpt><trkpt lat="42.7479949" lon="12.1646856"><ele>301.0</ele><time>2026-04-19T09:40:09.055Z</time></trkpt><trkpt lat="42.7479656" lon="12.1645431"><ele>301.0</ele><time>2026-04-19T09:40:10.061Z</time></trkpt><trkpt lat="42.7479188" lon="12.1644423"><ele>301.0</ele><time>2026-04-19T09:40:11.056Z</time></trkpt><trkpt lat="42.747861" lon="12.1643583"><ele>301.0</ele><time>2026-04-19T09:40:12.063Z</time></trkpt><trkpt lat="42.7477912" lon="12.1642992"><ele>303.0</ele><time>2026-04-19T09:40:13.058Z</time></trkpt><trkpt lat="42.7477051" lon="12.1643029"><ele>305.0</ele><time>2026-04-19T09:40:14.066Z</time></trkpt><trkpt lat="42.7476188" lon="12.1643195"><ele>307.0</ele><time>2026-04-19T09:40:15.067Z</time></trkpt><trkpt lat="42.7475308" lon="12.1644796"><ele>309.0</ele><time>2026-04-19T09:40:16.062Z</time></trkpt><trkpt lat="42.7474526" lon="12.1646366"><ele>309.0</ele><time>2026-04-19T09:40:17.062Z</time></trkpt><trkpt lat="42.7473801" lon="12.1647828"><ele>309.0</ele><time>2026-04-19T09:40:18.061Z</time></trkpt><trkpt lat="42.7472866" lon="12.1649394"><ele>309.0</ele><time>2026-04-19T09:40:19.078Z</time></trkpt><trkpt lat="42.7471905" lon="12.1651295"><ele>309.0</ele><time>2026-04-19T09:40:20.058Z</time></trkpt><trkpt lat="42.7470963" lon="12.1653148"><ele>311.3333333333333</ele><time>2026-04-19T09:40:21.074Z</time></trkpt><trkpt lat="42.7470016" lon="12.1655003"><ele>313.66666666666663</ele><time>2026-04-19T09:40:22.074Z</time></trkpt><trkpt lat="42.7469096" lon="12.1656691"><ele>316.0</ele><time>2026-04-19T09:40:23.058Z</time></trkpt><trkpt lat="42.7468296" lon="12.1658092"><ele>317.5</ele><time>2026-04-19T09:40:24.063Z</time></trkpt><trkpt lat="42.7467291" lon="12.1659334"><ele>319.0</ele><time>2026-04-19T09:40:25.056Z</time></trkpt><trkpt lat="42.7466202" lon="12.166061"><ele>320.5</ele><time>2026-04-19T09:40:26.069Z</time></trkpt><trkpt lat="42.7464876" lon="12.1661865"><ele>322.0</ele><time>2026-04-19T09:40:27.062Z</time></trkpt><trkpt lat="42.7463409" lon="12.166299"><ele>322.0</ele><time>2026-04-19T09:40:28.051Z</time></trkpt><trkpt lat="42.7461681" lon="12.1663887"><ele>322.0</ele><time>2026-04-19T09:40:29.058Z</time></trkpt><trkpt lat="42.7459708" lon="12.1664729"><ele>322.0</ele><time>2026-04-19T09:40:30.058Z</time></trkpt><trkpt lat="42.7457638" lon="12.166513"><ele>320.66666666666663</ele><time>2026-04-19T09:40:31.054Z</time></trkpt><trkpt lat="42.7455739" lon="12.1665291"><ele>319.3333333333333</ele><time>2026-04-19T09:40:32.07Z</time></trkpt><trkpt lat="42.7453952" lon="12.1665254"><ele>318.0</ele><time>2026-04-19T09:40:33.055Z</time></trkpt><trkpt lat="42.7452444" lon="12.1665623"><ele>320.25</ele><time>2026-04-19T09:40:34.068Z</time></trkpt><trkpt lat="42.7451111" lon="12.1666361"><ele>322.5</ele><time>2026-04-19T09:40:35.056Z</time></trkpt><trkpt lat="42.7450218" lon="12.1667749"><ele>324.75</ele><time>2026-04-19T09:40:36.073Z</time></trkpt><trkpt lat="42.7449974" lon="12.1669778"><ele>327.0</ele><time>2026-04-19T09:40:37.065Z</time></trkpt><trkpt lat="42.7450034" lon="12.1671927"><ele>328.0</ele><time>2026-04-19T09:40:38.066Z</time></trkpt><trkpt lat="42.745014" lon="12.1673873"><ele>329.0</ele><time>2026-04-19T09:40:39.057Z</time></trkpt><trkpt lat="42.7450276" lon="12.1675705"><ele>330.0</ele><time>2026-04-19T09:40:40.058Z</time></trkpt><trkpt lat="42.7450785" lon="12.1677307"><ele>331.0</ele><time>2026-04-19T09:40:41.054Z</time></trkpt><trkpt lat="42.7451322" lon="12.167895"><ele>331.0</ele><time>2026-04-19T09:40:42.065Z</time></trkpt><trkpt lat="42.7452077" lon="12.1680324"><ele>331.0</ele><time>2026-04-19T09:40:43.049Z</time></trkpt><trkpt lat="42.7452795" lon="12.1681847"><ele>331.0</ele><time>2026-04-19T09:40:44.052Z</time></trkpt><trkpt lat="42.7453745" lon="12.1683406"><ele>331.0</ele><time>2026-04-19T09:40:45.058Z</time></trkpt><trkpt lat="42.7454746" lon="12.1684848"><ele>333.25</ele><time>2026-04-19T09:40:46.055Z</time></trkpt><trkpt lat="42.7455708" lon="12.1686329"><ele>335.5</ele><time>2026-04-19T09:40:47.068Z</time></trkpt><trkpt lat="42.7456686" lon="12.1687935"><ele>337.75</ele><time>2026-04-19T09:40:48.059Z</time></trkpt><trkpt lat="42.7457587" lon="12.1689516"><ele>340.0</ele><time>2026-04-19T09:40:49.065Z</time></trkpt><trkpt lat="42.7458645" lon="12.1691154"><ele>340.0</ele><time>2026-04-19T09:40:50.059Z</time></trkpt><trkpt lat="42.7459755" lon="12.1692936"><ele>340.0</ele><time>2026-04-19T09:40:51.056Z</time></trkpt><trkpt lat="42.746094" lon="12.1694692"><ele>340.0</ele><time>2026-04-19T09:40:52.064Z</time></trkpt><trkpt lat="42.7462217" lon="12.1696712"><ele>345.0</ele><time>2026-04-19T09:40:53.057Z</time></trkpt><trkpt lat="42.7463638" lon="12.1698891"><ele>350.0</ele><time>2026-04-19T09:40:54.053Z</time></trkpt><trkpt lat="42.7465424" lon="12.170116"><ele>350.0</ele><time>2026-04-19T09:40:55.063Z</time></trkpt><trkpt lat="42.746741" lon="12.1703137"><ele>350.0</ele><time>2026-04-19T09:40:56.065Z</time></trkpt><trkpt lat="42.7469492" lon="12.1705069"><ele>351.5</ele><time>2026-04-19T09:40:57.055Z</time></trkpt><trkpt lat="42.747153" lon="12.1706949"><ele>353.0</ele><time>2026-04-19T09:40:58.058Z</time></trkpt><trkpt lat="42.747346" lon="12.1708673"><ele>353.0</ele><time>2026-04-19T09:40:59.062Z</time></trkpt><trkpt lat="42.7475362" lon="12.1710447"><ele>353.0</ele><time>2026-04-19T09:41:00.059Z</time></trkpt><trkpt lat="42.7477269" lon="12.171222"><ele>354.0</ele><time>2026-04-19T09:41:01.06Z</time></trkpt><trkpt lat="42.7478932" lon="12.1714219"><ele>355.0</ele><time>2026-04-19T09:41:02.073Z</time></trkpt><trkpt lat="42.7480329" lon="12.1716314"><ele>356.0</ele><time>2026-04-19T09:41:03.054Z</time></trkpt><trkpt lat="42.7480995" lon="12.1718591"><ele>356.0</ele><time>2026-04-19T09:41:04.059Z</time></trkpt><trkpt lat="42.7481912" lon="12.1720767"><ele>356.0</ele><time>2026-04-19T09:41:05.06Z</time></trkpt><trkpt lat="42.7482498" lon="12.1722674"><ele>356.0</ele><time>2026-04-19T09:41:06.056Z</time></trkpt><trkpt lat="42.7482947" lon="12.1724294"><ele>355.75</ele><time>2026-04-19T09:41:07.066Z</time></trkpt><trkpt lat="42.7483818" lon="12.1725598"><ele>355.5</ele><time>2026-04-19T09:41:08.055Z</time></trkpt><trkpt lat="42.7484908" lon="12.1726819"><ele>355.25</ele><time>2026-04-19T09:41:09.059Z</time></trkpt><trkpt lat="42.7486283" lon="12.1728033"><ele>355.0</ele><time>2026-04-19T09:41:10.071Z</time></trkpt><trkpt lat="42.7487561" lon="12.1729378"><ele>355.0</ele><time>2026-04-19T09:41:11.055Z</time></trkpt><trkpt lat="42.7488832" lon="12.173119"><ele>355.0</ele><time>2026-04-19T09:41:12.055Z</time></trkpt><trkpt lat="42.7490209" lon="12.1733657"><ele>355.0</ele><time>2026-04-19T09:41:13.056Z</time></trkpt><trkpt lat="42.7491778" lon="12.1736124"><ele>352.5</ele><time>2026-04-19T09:41:14.06Z</time></trkpt><trkpt lat="42.7492961" lon="12.1739003"><ele>350.0</ele><time>2026-04-19T09:41:15.052Z</time></trkpt><trkpt lat="42.7493872" lon="12.174207"><ele>350.0</ele><time>2026-04-19T09:41:16.049Z</time></trkpt><trkpt lat="42.7494626" lon="12.1744822"><ele>350.0</ele><time>2026-04-19T09:41:17.058Z</time></trkpt><trkpt lat="42.7495381" lon="12.1747033"><ele>350.0</ele><time>2026-04-19T09:41:18.06Z</time></trkpt><trkpt lat="42.7495602" lon="12.1748742"><ele>350.5</ele><time>2026-04-19T09:41:19.063Z</time></trkpt><trkpt lat="42.7494784" lon="12.1750097"><ele>351.0</ele><time>2026-04-19T09:41:20.055Z</time></trkpt><trkpt lat="42.7493593" lon="12.1751265"><ele>351.5</ele><time>2026-04-19T09:41:21.062Z</time></trkpt><trkpt lat="42.7492024" lon="12.1751952"><ele>352.0</ele><time>2026-04-19T09:41:22.053Z</time></trkpt><trkpt lat="42.7489382" lon="12.1752217"><ele>366.5</ele><time>2026-04-19T09:41:23.06Z</time></trkpt><trkpt lat="42.7486668" lon="12.1752392"><ele>381.0</ele><time>2026-04-19T09:41:24.08Z</time></trkpt><trkpt lat="42.748399" lon="12.1752433"><ele>384.5</ele><time>2026-04-19T09:41:25.054Z</time></trkpt><trkpt lat="42.7481201" lon="12.175182"><ele>388.0</ele><time>2026-04-19T09:41:26.06Z</time></trkpt><trkpt lat="42.7478345" lon="12.1750209"><ele>386.0</ele><time>2026-04-19T09:41:27.058Z</time></trkpt><trkpt lat="42.7475691" lon="12.1747877"><ele>384.0</ele><time>2026-04-19T09:41:28.068Z</time></trkpt><trkpt lat="42.7473275" lon="12.1746153"><ele>384.0</ele><time>2026-04-19T09:41:29.057Z</time></trkpt><trkpt lat="42.7471053" lon="12.1744472"><ele>384.0</ele><time>2026-04-19T09:41:30.065Z</time></trkpt><trkpt lat="42.746879" lon="12.1743145"><ele>386.33333333333337</ele><time>2026-04-19T09:41:31.052Z</time></trkpt><trkpt lat="42.7466579" lon="12.1742311"><ele>388.6666666666667</ele><time>2026-04-19T09:41:32.07Z</time></trkpt><trkpt lat="42.7464387" lon="12.174212"><ele>391.0</ele><time>2026-04-19T09:41:33.061Z</time></trkpt><trkpt lat="42.7462603" lon="12.1742717"><ele>391.0</ele><time>2026-04-19T09:41:34.058Z</time></trkpt><trkpt lat="42.7461225" lon="12.1744287"><ele>391.0</ele><time>2026-04-19T09:41:35.046Z</time></trkpt><trkpt lat="42.7460193" lon="12.1746369"><ele>391.0</ele><time>2026-04-19T09:41:36.051Z</time></trkpt><trkpt lat="42.7459603" lon="12.1749726"><ele>390.5</ele><time>2026-04-19T09:41:37.054Z</time></trkpt><trkpt lat="42.7459458" lon="12.1753449"><ele>390.0</ele><time>2026-04-19T09:41:38.061Z</time></trkpt><trkpt lat="42.745877" lon="12.175678"><ele>394.0</ele><time>2026-04-19T09:41:39.05Z</time></trkpt><trkpt lat="42.7457732" lon="12.1759837"><ele>398.0</ele><time>2026-04-19T09:41:40.051Z</time></trkpt><trkpt lat="42.7456651" lon="12.1762518"><ele>402.0</ele><time>2026-04-19T09:41:41.053Z</time></trkpt><trkpt lat="42.7456174" lon="12.1765652"><ele>406.0</ele><time>2026-04-19T09:41:42.065Z</time></trkpt><trkpt lat="42.7455347" lon="12.1768236"><ele>410.0</ele><time>2026-04-19T09:41:43.057Z</time></trkpt><trkpt lat="42.7455209" lon="12.1770835"><ele>410.0</ele><time>2026-04-19T09:41:44.059Z</time></trkpt><trkpt lat="42.745562" lon="12.1773359"><ele>410.0</ele><time>2026-04-19T09:41:45.053Z</time></trkpt><trkpt lat="42.7455964" lon="12.1775752"><ele>410.0</ele><time>2026-04-19T09:41:46.066Z</time></trkpt><trkpt lat="42.7456197" lon="12.1778095"><ele>412.3333333333333</ele><time>2026-04-19T09:41:47.051Z</time></trkpt><trkpt lat="42.7456503" lon="12.1780068"><ele>414.66666666666663</ele><time>2026-04-19T09:41:48.052Z</time></trkpt><trkpt lat="42.7456949" lon="12.1782181"><ele>417.0</ele><time>2026-04-19T09:41:49.054Z</time></trkpt><trkpt lat="42.7457658" lon="12.1784397"><ele>418.0</ele><time>2026-04-19T09:41:50.06Z</time></trkpt><trkpt lat="42.7458523" lon="12.1786123"><ele>419.0</ele><time>2026-04-19T09:41:51.053Z</time></trkpt><trkpt lat="42.7459498" lon="12.1788002"><ele>420.0</ele><time>2026-04-19T09:41:52.076Z</time></trkpt><trkpt lat="42.7460733" lon="12.1789755"><ele>427.33333333333337</ele><time>2026-04-19T09:41:53.063Z</time></trkpt><trkpt lat="42.7462192" lon="12.1791698"><ele>434.6666666666667</ele><time>2026-04-19T09:41:54.055Z</time></trkpt><trkpt lat="42.7464093" lon="12.1793695"><ele>442.0</ele><time>2026-04-19T09:41:55.055Z</time></trkpt><trkpt lat="42.7465978" lon="12.179574"><ele>442.0</ele><time>2026-04-19T09:41:56.059Z</time></trkpt><trkpt lat="42.7467665" lon="12.179763"><ele>442.0</ele><time>2026-04-19T09:41:57.057Z</time></trkpt><trkpt lat="42.7468977" lon="12.1799241"><ele>442.0</ele><time>2026-04-19T09:41:58.047Z</time></trkpt><trkpt lat="42.7469595" lon="12.1800639"><ele>441.25</ele><time>2026-04-19T09:41:59.057Z</time></trkpt><trkpt lat="42.7469691" lon="12.180219"><ele>440.5</ele><time>2026-04-19T09:42:00.051Z</time></trkpt><trkpt lat="42.7468664" lon="12.180315"><ele>439.75</ele><time>2026-04-19T09:42:01.052Z</time></trkpt><trkpt lat="42.7467369" lon="12.1803393"><ele>439.0</ele><time>2026-04-19T09:42:02.055Z</time></trkpt><trkpt lat="42.7466009" lon="12.1803345"><ele>439.0</ele><time>2026-04-19T09:42:03.078Z</time></trkpt><trkpt lat="42.7463858" lon="12.1803132"><ele>439.0</ele><time>2026-04-19T09:42:04.054Z</time></trkpt><trkpt lat="42.7461939" lon="12.1802321"><ele>439.0</ele><time>2026-04-19T09:42:05.069Z</time></trkpt><trkpt lat="42.7459736" lon="12.1801245"><ele>439.5</ele><time>2026-04-19T09:42:06.045Z</time></trkpt><trkpt lat="42.7457262" lon="12.1800099"><ele>440.0</ele><time>2026-04-19T09:42:07.071Z</time></trkpt><trkpt lat="42.7454787" lon="12.1799224"><ele>440.0</ele><time>2026-04-19T09:42:08.07Z</time></trkpt><trkpt lat="42.7452198" lon="12.1798504"><ele>440.0</ele><time>2026-04-19T09:42:09.051Z</time></trkpt><trkpt lat="42.7449666" lon="12.1798092"><ele>441.3333333333333</ele><time>2026-04-19T09:42:10.065Z</time></trkpt><trkpt lat="42.7447985" lon="12.1798621"><ele>442.66666666666663</ele><time>2026-04-19T09:42:11.06Z</time></trkpt><trkpt lat="42.7446756" lon="12.1799781"><ele>444.0</ele><time>2026-04-19T09:42:12.063Z</time></trkpt><trkpt lat="42.7446158" lon="12.1801477"><ele>444.0</ele><time>2026-04-19T09:42:13.059Z</time></trkpt><trkpt lat="42.7445687" lon="12.1803199"><ele>444.0</ele><time>2026-04-19T09:42:14.065Z</time></trkpt><trkpt lat="42.7445362" lon="12.1804738"><ele>444.0</ele><time>2026-04-19T09:42:15.062Z</time></trkpt><trkpt lat="42.7445248" lon="12.1806294"><ele>444.0</ele><time>2026-04-19T09:42:16.057Z</time></trkpt><trkpt lat="42.7444787" lon="12.1807584"><ele>445.5</ele><time>2026-04-19T09:42:17.055Z</time></trkpt><trkpt lat="42.7444506" lon="12.1808804"><ele>447.0</ele><time>2026-04-19T09:42:18.051Z</time></trkpt><trkpt lat="42.7444018" lon="12.1811998"><ele>448.5</ele><time>2026-04-19T09:42:20.062Z</time></trkpt><trkpt lat="42.7444203" lon="12.1813064"><ele>450.0</ele><time>2026-04-19T09:42:21.044Z</time></trkpt><trkpt lat="42.7445091" lon="12.181557"><ele>450.0</ele><time>2026-04-19T09:42:22.059Z</time></trkpt><trkpt lat="42.7446756" lon="12.1818381"><ele>450.0</ele><time>2026-04-19T09:42:23.06Z</time></trkpt><trkpt lat="42.745186" lon="12.1821507"><ele>455.5</ele><time>2026-04-19T09:42:25.057Z</time></trkpt><trkpt lat="42.7453819" lon="12.1823409"><ele>461.0</ele><time>2026-04-19T09:42:26.078Z</time></trkpt><trkpt lat="42.7456015" lon="12.1825568"><ele>461.0</ele><time>2026-04-19T09:42:27.063Z</time></trkpt><trkpt lat="42.7458357" lon="12.1827283"><ele>461.0</ele><time>2026-04-19T09:42:28.062Z</time></trkpt><trkpt lat="42.7460431" lon="12.1828898"><ele>466.0</ele><time>2026-04-19T09:42:29.077Z</time></trkpt><trkpt lat="42.7462395" lon="12.183023"><ele>471.0</ele><time>2026-04-19T09:42:30.073Z</time></trkpt><trkpt lat="42.7487506" lon="12.1802676"><ele>471.0</ele><time>2026-04-19T09:42:47.067Z</time></trkpt><trkpt lat="42.7488858" lon="12.1803231"><ele>471.0</ele><time>2026-04-19T09:42:48.077Z</time></trkpt><trkpt lat="42.7489815" lon="12.1804262"><ele>471.0</ele><time>2026-04-19T09:42:49.071Z</time></trkpt><trkpt lat="42.7490094" lon="12.180625"><ele>471.0</ele><time>2026-04-19T09:42:50.08Z</time></trkpt><trkpt lat="42.7490117" lon="12.1808838"><ele>472.66666666666663</ele><time>2026-04-19T09:42:51.085Z</time></trkpt><trkpt lat="42.7490155" lon="12.1811704"><ele>474.3333333333333</ele><time>2026-04-19T09:42:52.075Z</time></trkpt><trkpt lat="42.7490641" lon="12.181448"><ele>476.0</ele><time>2026-04-19T09:42:53.082Z</time></trkpt><trkpt lat="42.7491141" lon="12.1817124"><ele>477.75</ele><time>2026-04-19T09:42:54.061Z</time></trkpt><trkpt lat="42.7491936" lon="12.1819089"><ele>479.5</ele><time>2026-04-19T09:42:55.058Z</time></trkpt><trkpt lat="42.7492713" lon="12.1820857"><ele>481.25</ele><time>2026-04-19T09:42:56.055Z</time></trkpt><trkpt lat="42.7493081" lon="12.1822384"><ele>483.0</ele><time>2026-04-19T09:42:57.068Z</time></trkpt><trkpt lat="42.7492782" lon="12.1824371"><ele>485.66666666666663</ele><time>2026-04-19T09:42:58.081Z</time></trkpt><trkpt lat="42.7491436" lon="12.1825185"><ele>488.3333333333333</ele><time>2026-04-19T09:42:59.054Z</time></trkpt><trkpt lat="42.7488967" lon="12.1827458"><ele>491.0</ele><time>2026-04-19T09:43:00.072Z</time></trkpt><trkpt lat="42.7486711" lon="12.1829135"><ele>491.66666666666663</ele><time>2026-04-19T09:43:01.065Z</time></trkpt><trkpt lat="42.7484674" lon="12.1830588"><ele>492.33333333333337</ele><time>2026-04-19T09:43:02.083Z</time></trkpt><trkpt lat="42.7483194" lon="12.1831959"><ele>493.0</ele><time>2026-04-19T09:43:03.078Z</time></trkpt><trkpt lat="42.7482091" lon="12.1833577"><ele>493.0</ele><time>2026-04-19T09:43:04.053Z</time></trkpt><trkpt lat="42.7481486" lon="12.183548"><ele>493.0</ele><time>2026-04-19T09:43:05.052Z</time></trkpt><trkpt lat="42.7480921" lon="12.1837404"><ele>493.0</ele><time>2026-04-19T09:43:06.055Z</time></trkpt><trkpt lat="42.7480814" lon="12.1839231"><ele>493.0</ele><time>2026-04-19T09:43:07.058Z</time></trkpt><trkpt lat="42.7481285" lon="12.1841185"><ele>492.0</ele><time>2026-04-19T09:43:08.063Z</time></trkpt><trkpt lat="42.748234" lon="12.1842958"><ele>491.0</ele><time>2026-04-19T09:43:09.062Z</time></trkpt><trkpt lat="42.7484008" lon="12.1844641"><ele>490.0</ele><time>2026-04-19T09:43:10.063Z</time></trkpt><trkpt lat="42.748607" lon="12.1846083"><ele>488.0</ele><time>2026-04-19T09:43:11.076Z</time></trkpt><trkpt lat="42.7489115" lon="12.1847702"><ele>486.0</ele><time>2026-04-19T09:43:12.073Z</time></trkpt><trkpt lat="42.7491616" lon="12.1848858"><ele>492.0</ele><time>2026-04-19T09:43:13.061Z</time></trkpt><trkpt lat="42.749411" lon="12.1849761"><ele>498.0</ele><time>2026-04-19T09:43:14.071Z</time></trkpt><trkpt lat="42.7497001" lon="12.1850584"><ele>498.0</ele><time>2026-04-19T09:43:15.064Z</time></trkpt><trkpt lat="42.7500415" lon="12.1850836"><ele>498.0</ele><time>2026-04-19T09:43:16.076Z</time></trkpt><trkpt lat="42.750349" lon="12.1851294"><ele>501.5</ele><time>2026-04-19T09:43:17.063Z</time></trkpt><trkpt lat="42.7507129" lon="12.1851341"><ele>505.0</ele><time>2026-04-19T09:43:18.067Z</time></trkpt><trkpt lat="42.7510822" lon="12.1851479"><ele>507.0</ele><time>2026-04-19T09:43:19.066Z</time></trkpt><trkpt lat="42.7513629" lon="12.1851969"><ele>509.0</ele><time>2026-04-19T09:43:20.085Z</time></trkpt><trkpt lat="42.7516332" lon="12.1852701"><ele>509.0</ele><time>2026-04-19T09:43:21.065Z</time></trkpt><trkpt lat="42.7518663" lon="12.1853815"><ele>509.0</ele><time>2026-04-19T09:43:22.064Z</time></trkpt><trkpt lat="42.752053" lon="12.1855342"><ele>511.3333333333333</ele><time>2026-04-19T09:43:23.067Z</time></trkpt><trkpt lat="42.752195" lon="12.1857552"><ele>513.6666666666666</ele><time>2026-04-19T09:43:24.073Z</time></trkpt><trkpt lat="42.7522235" lon="12.1860495"><ele>516.0</ele><time>2026-04-19T09:43:25.049Z</time></trkpt><trkpt lat="42.7522043" lon="12.1863771"><ele>516.5</ele><time>2026-04-19T09:43:26.084Z</time></trkpt><trkpt lat="42.7522366" lon="12.1866903"><ele>517.0</ele><time>2026-04-19T09:43:27.066Z</time></trkpt><trkpt lat="42.7522686" lon="12.1870159"><ele>517.0</ele><time>2026-04-19T09:43:28.068Z</time></trkpt><trkpt lat="42.7523249" lon="12.1873206"><ele>517.0</ele><time>2026-04-19T09:43:29.064Z</time></trkpt><trkpt lat="42.7524205" lon="12.1876281"><ele>516.0</ele><time>2026-04-19T09:43:30.071Z</time></trkpt><trkpt lat="42.7526118" lon="12.1878751"><ele>515.0</ele><time>2026-04-19T09:43:31.066Z</time></trkpt><trkpt lat="42.7528296" lon="12.1881213"><ele>518.0</ele><time>2026-04-19T09:43:32.06Z</time></trkpt><trkpt lat="42.7530636" lon="12.1883688"><ele>521.0</ele><time>2026-04-19T09:43:33.068Z</time></trkpt><trkpt lat="42.7532999" lon="12.1885943"><ele>521.5</ele><time>2026-04-19T09:43:34.061Z</time></trkpt><trkpt lat="42.7535516" lon="12.1888488"><ele>522.0</ele><time>2026-04-19T09:43:35.068Z</time></trkpt><trkpt lat="42.753805" lon="12.1891381"><ele>522.5</ele><time>2026-04-19T09:43:36.075Z</time></trkpt><trkpt lat="42.7540559" lon="12.1894402"><ele>523.0</ele><time>2026-04-19T09:43:37.073Z</time></trkpt><trkpt lat="42.7542966" lon="12.1897707"><ele>522.5</ele><time>2026-04-19T09:43:38.068Z</time></trkpt><trkpt lat="42.754522" lon="12.1900846"><ele>522.0</ele><time>2026-04-19T09:43:39.065Z</time></trkpt><trkpt lat="42.7547126" lon="12.1903898"><ele>522.0</ele><time>2026-04-19T09:43:40.071Z</time></trkpt><trkpt lat="42.7548774" lon="12.1906563"><ele>522.0</ele><time>2026-04-19T09:43:41.068Z</time></trkpt><trkpt lat="42.7550175" lon="12.1908571"><ele>523.75</ele><time>2026-04-19T09:43:42.049Z</time></trkpt><trkpt lat="42.7551169" lon="12.1910351"><ele>525.5</ele><time>2026-04-19T09:43:43.078Z</time></trkpt><trkpt lat="42.7551824" lon="12.1912049"><ele>527.25</ele><time>2026-04-19T09:43:44.072Z</time></trkpt><trkpt lat="42.7551828" lon="12.1913943"><ele>529.0</ele><time>2026-04-19T09:43:45.052Z</time></trkpt><trkpt lat="42.7551068" lon="12.1916061"><ele>529.6666666666667</ele><time>2026-04-19T09:43:46.052Z</time></trkpt><trkpt lat="42.7550401" lon="12.1918114"><ele>530.3333333333334</ele><time>2026-04-19T09:43:47.07Z</time></trkpt><trkpt lat="42.7549993" lon="12.1920294"><ele>531.0</ele><time>2026-04-19T09:43:48.055Z</time></trkpt><trkpt lat="42.7550012" lon="12.1922541"><ele>531.6666666666666</ele><time>2026-04-19T09:43:49.066Z</time></trkpt><trkpt lat="42.7549874" lon="12.192479"><ele>532.3333333333333</ele><time>2026-04-19T09:43:50.067Z</time></trkpt><trkpt lat="42.7549482" lon="12.1926962"><ele>533.0</ele><time>2026-04-19T09:43:51.065Z</time></trkpt><trkpt lat="42.7547987" lon="12.1929283"><ele>533.0</ele><time>2026-04-19T09:43:52.068Z</time></trkpt><trkpt lat="42.7546697" lon="12.1931719"><ele>533.0</ele><time>2026-04-19T09:43:53.085Z</time></trkpt><trkpt lat="42.7545391" lon="12.1934272"><ele>533.0</ele><time>2026-04-19T09:43:54.074Z</time></trkpt><trkpt lat="42.7543816" lon="12.1936928"><ele>534.3333333333333</ele><time>2026-04-19T09:43:55.063Z</time></trkpt><trkpt lat="42.7542347" lon="12.1939331"><ele>535.6666666666666</ele><time>2026-04-19T09:43:56.074Z</time></trkpt><trkpt lat="42.7540664" lon="12.1940817"><ele>537.0</ele><time>2026-04-19T09:43:57.063Z</time></trkpt><trkpt lat="42.7539226" lon="12.1942127"><ele>538.5</ele><time>2026-04-19T09:43:58.071Z</time></trkpt><trkpt lat="42.7538462" lon="12.1943828"><ele>540.0</ele><time>2026-04-19T09:43:59.055Z</time></trkpt><trkpt lat="42.7537999" lon="12.1945253"><ele>541.5</ele><time>2026-04-19T09:44:00.064Z</time></trkpt><trkpt lat="42.7538207" lon="12.194668"><ele>543.0</ele><time>2026-04-19T09:44:01.06Z</time></trkpt><trkpt lat="42.7539054" lon="12.1947973"><ele>543.0</ele><time>2026-04-19T09:44:02.061Z</time></trkpt><trkpt lat="42.7540262" lon="12.1948877"><ele>543.0</ele><time>2026-04-19T09:44:03.072Z</time></trkpt><trkpt lat="42.7541829" lon="12.194963"><ele>543.0</ele><time>2026-04-19T09:44:04.067Z</time></trkpt><trkpt lat="42.7543224" lon="12.1950152"><ele>543.0</ele><time>2026-04-19T09:44:05.07Z</time></trkpt><trkpt lat="42.7544376" lon="12.1950949"><ele>546.0</ele><time>2026-04-19T09:44:06.071Z</time></trkpt><trkpt lat="42.7545047" lon="12.1951932"><ele>549.0</ele><time>2026-04-19T09:44:07.06Z</time></trkpt><trkpt lat="42.7545394" lon="12.1953273"><ele>552.0</ele><time>2026-04-19T09:44:08.078Z</time></trkpt><trkpt lat="42.7544958" lon="12.1954844"><ele>555.0</ele><time>2026-04-19T09:44:09.075Z</time></trkpt><trkpt lat="42.7544485" lon="12.1956518"><ele>555.2</ele><time>2026-04-19T09:44:10.067Z</time></trkpt><trkpt lat="42.7544178" lon="12.1958402"><ele>555.4</ele><time>2026-04-19T09:44:11.067Z</time></trkpt><trkpt lat="42.754401" lon="12.1959887"><ele>555.6</ele><time>2026-04-19T09:44:12.056Z</time></trkpt><trkpt lat="42.7543884" lon="12.1961311"><ele>555.8</ele><time>2026-04-19T09:44:13.073Z</time></trkpt><trkpt lat="42.7543775" lon="12.1962489"><ele>556.0</ele><time>2026-04-19T09:44:14.076Z</time></trkpt><trkpt lat="42.7544051" lon="12.1963729"><ele>556.0</ele><time>2026-04-19T09:44:16.059Z</time></trkpt><trkpt lat="42.7545131" lon="12.196394"><ele>556.0</ele><time>2026-04-19T09:45:24.064Z</time></trkpt><trkpt lat="42.7545848" lon="12.1964073"><ele>556.0</ele><time>2026-04-19T09:45:25.066Z</time></trkpt><trkpt lat="42.7546855" lon="12.1964259"><ele>556.0</ele><time>2026-04-19T09:45:26.067Z</time></trkpt><trkpt lat="42.7548092" lon="12.1964579"><ele>556.0</ele><time>2026-04-19T09:45:27.068Z</time></trkpt><trkpt lat="42.7549525" lon="12.1965044"><ele>556.6666666666667</ele><time>2026-04-19T09:45:28.054Z</time></trkpt><trkpt lat="42.755106" lon="12.1965623"><ele>557.3333333333334</ele><time>2026-04-19T09:45:29.065Z</time></trkpt><trkpt lat="42.7552809" lon="12.1966383"><ele>558.0</ele><time>2026-04-19T09:45:30.07Z</time></trkpt><trkpt lat="42.7554781" lon="12.196719"><ele>558.0</ele><time>2026-04-19T09:45:31.07Z</time></trkpt><trkpt lat="42.7556795" lon="12.1968206"><ele>558.0</ele><time>2026-04-19T09:45:32.064Z</time></trkpt><trkpt lat="42.7558906" lon="12.1969448"><ele>558.0</ele><time>2026-04-19T09:45:33.07Z</time></trkpt><trkpt lat="42.7560733" lon="12.1970595"><ele>560.0</ele><time>2026-04-19T09:45:34.066Z</time></trkpt><trkpt lat="42.7562613" lon="12.1971538"><ele>562.0</ele><time>2026-04-19T09:45:35.057Z</time></trkpt><trkpt lat="42.7564381" lon="12.1972146"><ele>564.0</ele><time>2026-04-19T09:45:36.063Z</time></trkpt><trkpt lat="42.7566046" lon="12.1972047"><ele>564.0</ele><time>2026-04-19T09:45:37.074Z</time></trkpt><trkpt lat="42.7567803" lon="12.1971315"><ele>564.0</ele><time>2026-04-19T09:45:38.071Z</time></trkpt><trkpt lat="42.7569776" lon="12.1970315"><ele>564.0</ele><time>2026-04-19T09:45:39.067Z</time></trkpt><trkpt lat="42.7571892" lon="12.1969469"><ele>563.0</ele><time>2026-04-19T09:45:40.07Z</time></trkpt><trkpt lat="42.7574146" lon="12.1968606"><ele>562.0</ele><time>2026-04-19T09:45:41.07Z</time></trkpt><trkpt lat="42.7576151" lon="12.1967986"><ele>561.0</ele><time>2026-04-19T09:45:42.074Z</time></trkpt><trkpt lat="42.7578225" lon="12.1967954"><ele>559.3333333333334</ele><time>2026-04-19T09:45:43.061Z</time></trkpt><trkpt lat="42.7580087" lon="12.1968487"><ele>557.6666666666667</ele><time>2026-04-19T09:45:44.065Z</time></trkpt><trkpt lat="42.7581955" lon="12.196913"><ele>556.0</ele><time>2026-04-19T09:45:45.07Z</time></trkpt><trkpt lat="42.7583688" lon="12.196996"><ele>554.6666666666667</ele><time>2026-04-19T09:45:46.073Z</time></trkpt><trkpt lat="42.7585521" lon="12.1970686"><ele>553.3333333333334</ele><time>2026-04-19T09:45:47.075Z</time></trkpt><trkpt lat="42.758718" lon="12.1971323"><ele>552.0</ele><time>2026-04-19T09:45:48.07Z</time></trkpt><trkpt lat="42.7588829" lon="12.1971895"><ele>552.0</ele><time>2026-04-19T09:45:49.068Z</time></trkpt><trkpt lat="42.7590603" lon="12.1972122"><ele>552.0</ele><time>2026-04-19T09:45:50.072Z</time></trkpt><trkpt lat="42.7592456" lon="12.1972076"><ele>552.0</ele><time>2026-04-19T09:45:51.064Z</time></trkpt><trkpt lat="42.7594295" lon="12.1971941"><ele>554.0</ele><time>2026-04-19T09:45:52.069Z</time></trkpt><trkpt lat="42.759619" lon="12.1971675"><ele>556.0</ele><time>2026-04-19T09:45:53.066Z</time></trkpt><trkpt lat="42.7598098" lon="12.197158"><ele>558.0</ele><time>2026-04-19T09:45:54.072Z</time></trkpt><trkpt lat="42.7599986" lon="12.1971747"><ele>558.0</ele><time>2026-04-19T09:45:55.064Z</time></trkpt><trkpt lat="42.7601777" lon="12.1972024"><ele>558.0</ele><time>2026-04-19T09:45:56.068Z</time></trkpt><trkpt lat="42.760359" lon="12.1972661"><ele>558.0</ele><time>2026-04-19T09:45:57.066Z</time></trkpt><trkpt lat="42.7605427" lon="12.1973789"><ele>559.3333333333334</ele><time>2026-04-19T09:45:58.085Z</time></trkpt><trkpt lat="42.7607201" lon="12.1975065"><ele>560.6666666666667</ele><time>2026-04-19T09:45:59.059Z</time></trkpt><trkpt lat="42.7608962" lon="12.1976449"><ele>562.0</ele><time>2026-04-19T09:46:00.071Z</time></trkpt><trkpt lat="42.7610558" lon="12.1977748"><ele>565.0</ele><time>2026-04-19T09:46:01.07Z</time></trkpt><trkpt lat="42.7612077" lon="12.1979028"><ele>568.0</ele><time>2026-04-19T09:46:02.059Z</time></trkpt><trkpt lat="42.7613214" lon="12.1980914"><ele>571.0</ele><time>2026-04-19T09:46:03.07Z</time></trkpt><trkpt lat="42.7614021" lon="12.1983095"><ele>573.0</ele><time>2026-04-19T09:46:04.06Z</time></trkpt><trkpt lat="42.7614673" lon="12.1985417"><ele>575.0</ele><time>2026-04-19T09:46:05.059Z</time></trkpt><trkpt lat="42.7615117" lon="12.1987511"><ele>577.0</ele><time>2026-04-19T09:46:06.073Z</time></trkpt><trkpt lat="42.7615453" lon="12.1989857"><ele>578.3333333333334</ele><time>2026-04-19T09:46:07.077Z</time></trkpt><trkpt lat="42.7615614" lon="12.1992216"><ele>579.6666666666666</ele><time>2026-04-19T09:46:08.068Z</time></trkpt><trkpt lat="42.7615354" lon="12.1994106"><ele>581.0</ele><time>2026-04-19T09:46:09.062Z</time></trkpt><trkpt lat="42.7614453" lon="12.1995947"><ele>581.0</ele><time>2026-04-19T09:46:10.061Z</time></trkpt><trkpt lat="42.761339" lon="12.199701"><ele>581.0</ele><time>2026-04-19T09:46:11.066Z</time></trkpt><trkpt lat="42.761207" lon="12.1997799"><ele>581.0</ele><time>2026-04-19T09:46:12.076Z</time></trkpt><trkpt lat="42.7610651" lon="12.1997942"><ele>581.0</ele><time>2026-04-19T09:46:13.063Z</time></trkpt><trkpt lat="42.7609364" lon="12.1998136"><ele>579.3333333333333</ele><time>2026-04-19T09:46:14.083Z</time></trkpt><trkpt lat="42.7608383" lon="12.199849"><ele>577.6666666666666</ele><time>2026-04-19T09:46:15.062Z</time></trkpt><trkpt lat="42.7607756" lon="12.1998888"><ele>576.0</ele><time>2026-04-19T09:46:16.056Z</time></trkpt><trkpt lat="42.7607361" lon="12.1999754"><ele>574.3333333333334</ele><time>2026-04-19T09:46:17.065Z</time></trkpt><trkpt lat="42.7607153" lon="12.2000754"><ele>572.6666666666667</ele><time>2026-04-19T09:46:18.066Z</time></trkpt><trkpt lat="42.7607473" lon="12.2001774"><ele>571.0</ele><time>2026-04-19T09:46:19.061Z</time></trkpt><trkpt lat="42.7608345" lon="12.2002836"><ele>571.0</ele><time>2026-04-19T09:46:20.066Z</time></trkpt><trkpt lat="42.7609866" lon="12.2003429"><ele>571.0</ele><time>2026-04-19T09:46:21.058Z</time></trkpt><trkpt lat="42.7611332" lon="12.2003727"><ele>571.0</ele><time>2026-04-19T09:46:22.054Z</time></trkpt><trkpt lat="42.7612646" lon="12.2002923"><ele>576.0</ele><time>2026-04-19T09:46:23.066Z</time></trkpt><trkpt lat="42.7613798" lon="12.2001345"><ele>581.0</ele><time>2026-04-19T09:46:24.057Z</time></trkpt><trkpt lat="42.7615715" lon="12.1998038"><ele>581.0</ele><time>2026-04-19T09:46:26.065Z</time></trkpt><trkpt lat="42.7616471" lon="12.199623"><ele>581.0</ele><time>2026-04-19T09:46:27.065Z</time></trkpt><trkpt lat="42.761703" lon="12.1994143"><ele>581.0</ele><time>2026-04-19T09:46:28.056Z</time></trkpt><trkpt lat="42.7617384" lon="12.1991617"><ele>580.0</ele><time>2026-04-19T09:46:29.055Z</time></trkpt><trkpt lat="42.761761" lon="12.1989596"><ele>579.0</ele><time>2026-04-19T09:46:30.066Z</time></trkpt><trkpt lat="42.7617882" lon="12.1987699"><ele>578.0</ele><time>2026-04-19T09:46:31.067Z</time></trkpt><trkpt lat="42.7618425" lon="12.1986"><ele>577.0</ele><time>2026-04-19T09:46:32.07Z</time></trkpt><trkpt lat="42.761931" lon="12.1984639"><ele>580.0</ele><time>2026-04-19T09:46:33.068Z</time></trkpt><trkpt lat="42.7620639" lon="12.1983442"><ele>583.0</ele><time>2026-04-19T09:46:34.068Z</time></trkpt><trkpt lat="42.7621598" lon="12.1981459"><ele>586.0</ele><time>2026-04-19T09:46:35.065Z</time></trkpt><trkpt lat="42.7622496" lon="12.1979273"><ele>586.0</ele><time>2026-04-19T09:46:36.071Z</time></trkpt><trkpt lat="42.7623181" lon="12.1976985"><ele>586.0</ele><time>2026-04-19T09:46:37.074Z</time></trkpt><trkpt lat="42.7624294" lon="12.1974748"><ele>586.0</ele><time>2026-04-19T09:46:38.062Z</time></trkpt><trkpt lat="42.7625648" lon="12.1972775"><ele>585.6666666666667</ele><time>2026-04-19T09:46:39.058Z</time></trkpt><trkpt lat="42.7627117" lon="12.1971451"><ele>585.3333333333334</ele><time>2026-04-19T09:46:40.065Z</time></trkpt><trkpt lat="42.7628801" lon="12.1970661"><ele>585.0</ele><time>2026-04-19T09:46:41.061Z</time></trkpt><trkpt lat="42.7630776" lon="12.197036"><ele>585.0</ele><time>2026-04-19T09:46:42.059Z</time></trkpt><trkpt lat="42.763267" lon="12.1970859"><ele>585.0</ele><time>2026-04-19T09:46:43.061Z</time></trkpt><trkpt lat="42.7634751" lon="12.197204"><ele>585.0</ele><time>2026-04-19T09:46:44.072Z</time></trkpt><trkpt lat="42.7636904" lon="12.1973001"><ele>587.3333333333334</ele><time>2026-04-19T09:46:45.063Z</time></trkpt><trkpt lat="42.7638639" lon="12.1973238"><ele>589.6666666666667</ele><time>2026-04-19T09:46:46.06Z</time></trkpt><trkpt lat="42.7640416" lon="12.1972903"><ele>592.0</ele><time>2026-04-19T09:46:47.062Z</time></trkpt><trkpt lat="42.7642243" lon="12.1972295"><ele>596.0</ele><time>2026-04-19T09:46:48.066Z</time></trkpt><trkpt lat="42.764415" lon="12.197152"><ele>600.0</ele><time>2026-04-19T09:46:49.072Z</time></trkpt><trkpt lat="42.7646214" lon="12.1970593"><ele>604.0</ele><time>2026-04-19T09:46:50.075Z</time></trkpt><trkpt lat="42.7648383" lon="12.1969581"><ele>604.0</ele><time>2026-04-19T09:46:51.075Z</time></trkpt><trkpt lat="42.7650685" lon="12.1968395"><ele>604.0</ele><time>2026-04-19T09:46:52.071Z</time></trkpt><trkpt lat="42.7653038" lon="12.1967019"><ele>607.5</ele><time>2026-04-19T09:46:53.069Z</time></trkpt><trkpt lat="42.7655314" lon="12.1965684"><ele>611.0</ele><time>2026-04-19T09:46:54.062Z</time></trkpt><trkpt lat="42.7657553" lon="12.1964359"><ele>611.0</ele><time>2026-04-19T09:46:55.063Z</time></trkpt><trkpt lat="42.7659521" lon="12.1963034"><ele>611.0</ele><time>2026-04-19T09:46:56.067Z</time></trkpt><trkpt lat="42.7661354" lon="12.1961779"><ele>611.0</ele><time>2026-04-19T09:46:57.065Z</time></trkpt><trkpt lat="42.7663122" lon="12.1960736"><ele>613.3333333333333</ele><time>2026-04-19T09:46:58.067Z</time></trkpt><trkpt lat="42.7665155" lon="12.1960231"><ele>615.6666666666666</ele><time>2026-04-19T09:46:59.064Z</time></trkpt><trkpt lat="42.7667331" lon="12.196017"><ele>618.0</ele><time>2026-04-19T09:47:00.065Z</time></trkpt><trkpt lat="42.7669366" lon="12.1960446"><ele>620.0</ele><time>2026-04-19T09:47:01.071Z</time></trkpt><trkpt lat="42.7671541" lon="12.1960743"><ele>622.0</ele><time>2026-04-19T09:47:02.066Z</time></trkpt><trkpt lat="42.7673921" lon="12.1960491"><ele>622.0</ele><time>2026-04-19T09:47:03.063Z</time></trkpt><trkpt lat="42.7676264" lon="12.1960085"><ele>622.0</ele><time>2026-04-19T09:47:04.071Z</time></trkpt><trkpt lat="42.7678513" lon="12.1959453"><ele>623.0</ele><time>2026-04-19T09:47:05.064Z</time></trkpt><trkpt lat="42.7680556" lon="12.1958723"><ele>624.0</ele><time>2026-04-19T09:47:06.073Z</time></trkpt><trkpt lat="42.7682099" lon="12.1957403"><ele>625.0</ele><time>2026-04-19T09:47:07.058Z</time></trkpt><trkpt lat="42.7682956" lon="12.1955406"><ele>625.0</ele><time>2026-04-19T09:47:08.072Z</time></trkpt><trkpt lat="42.7683522" lon="12.1953171"><ele>625.0</ele><time>2026-04-19T09:47:09.057Z</time></trkpt><trkpt lat="42.7684294" lon="12.195117"><ele>625.0</ele><time>2026-04-19T09:47:10.068Z</time></trkpt><trkpt lat="42.7685587" lon="12.1949498"><ele>625.3333333333334</ele><time>2026-04-19T09:47:11.069Z</time></trkpt><trkpt lat="42.7687286" lon="12.1948439"><ele>625.6666666666666</ele><time>2026-04-19T09:47:12.067Z</time></trkpt><trkpt lat="42.7689367" lon="12.1948409"><ele>626.0</ele><time>2026-04-19T09:47:13.064Z</time></trkpt><trkpt lat="42.7691617" lon="12.1949128"><ele>617.0</ele><time>2026-04-19T09:47:14.081Z</time></trkpt><trkpt lat="42.7693737" lon="12.1950057"><ele>608.0</ele><time>2026-04-19T09:47:15.06Z</time></trkpt><trkpt lat="42.7695739" lon="12.1951715"><ele>608.0</ele><time>2026-04-19T09:47:16.056Z</time></trkpt><trkpt lat="42.7697628" lon="12.1953583"><ele>608.0</ele><time>2026-04-19T09:47:17.059Z</time></trkpt><trkpt lat="42.7699304" lon="12.1955501"><ele>603.0</ele><time>2026-04-19T09:47:18.058Z</time></trkpt><trkpt lat="42.770074" lon="12.1957623"><ele>598.0</ele><time>2026-04-19T09:47:19.067Z</time></trkpt><trkpt lat="42.77018" lon="12.195994"><ele>593.0</ele><time>2026-04-19T09:47:20.072Z</time></trkpt><trkpt lat="42.7702784" lon="12.1961934"><ele>593.0</ele><time>2026-04-19T09:47:21.066Z</time></trkpt><trkpt lat="42.7703747" lon="12.196414"><ele>593.0</ele><time>2026-04-19T09:47:22.067Z</time></trkpt><trkpt lat="42.7704425" lon="12.1966511"><ele>593.0</ele><time>2026-04-19T09:47:23.067Z</time></trkpt><trkpt lat="42.770489" lon="12.1968967"><ele>592.3333333333333</ele><time>2026-04-19T09:47:24.091Z</time></trkpt><trkpt lat="42.7705448" lon="12.1971586"><ele>591.6666666666666</ele><time>2026-04-19T09:47:25.059Z</time></trkpt><trkpt lat="42.7705953" lon="12.1974057"><ele>591.0</ele><time>2026-04-19T09:47:26.061Z</time></trkpt><trkpt lat="42.7706374" lon="12.1976784"><ele>594.0</ele><time>2026-04-19T09:47:27.082Z</time></trkpt><trkpt lat="42.7706793" lon="12.197911"><ele>597.0</ele><time>2026-04-19T09:47:28.059Z</time></trkpt><trkpt lat="42.7706671" lon="12.198113"><ele>600.0</ele><time>2026-04-19T09:47:29.054Z</time></trkpt><trkpt lat="42.7706106" lon="12.1983042"><ele>603.0</ele><time>2026-04-19T09:47:30.048Z</time></trkpt><trkpt lat="42.7702202" lon="12.198676"><ele>609.5</ele><time>2026-04-19T09:47:32.069Z</time></trkpt><trkpt lat="42.7699878" lon="12.19885"><ele>616.0</ele><time>2026-04-19T09:47:33.052Z</time></trkpt><trkpt lat="42.7697616" lon="12.1990199"><ele>616.0</ele><time>2026-04-19T09:47:34.063Z</time></trkpt><trkpt lat="42.769599" lon="12.199153"><ele>616.0</ele><time>2026-04-19T09:47:35.052Z</time></trkpt><trkpt lat="42.7694601" lon="12.1993056"><ele>616.0</ele><time>2026-04-19T09:47:36.053Z</time></trkpt><trkpt lat="42.7693343" lon="12.1994656"><ele>628.0</ele><time>2026-04-19T09:47:37.065Z</time></trkpt><trkpt lat="42.7692365" lon="12.1996789"><ele>640.0</ele><time>2026-04-19T09:47:38.071Z</time></trkpt><trkpt lat="42.769232" lon="12.1999356"><ele>652.0</ele><time>2026-04-19T09:47:39.077Z</time></trkpt><trkpt lat="42.7692568" lon="12.2001995"><ele>652.0</ele><time>2026-04-19T09:47:40.074Z</time></trkpt><trkpt lat="42.7692747" lon="12.2004463"><ele>652.0</ele><time>2026-04-19T09:47:41.065Z</time></trkpt><trkpt lat="42.7692776" lon="12.2006966"><ele>652.0</ele><time>2026-04-19T09:47:42.075Z</time></trkpt><trkpt lat="42.7692608" lon="12.2009228"><ele>652.0</ele><time>2026-04-19T09:47:43.067Z</time></trkpt><trkpt lat="42.7692495" lon="12.2011891"><ele>652.0</ele><time>2026-04-19T09:47:44.066Z</time></trkpt><trkpt lat="42.7692243" lon="12.2014164"><ele>652.0</ele><time>2026-04-19T09:47:45.067Z</time></trkpt><trkpt lat="42.7691957" lon="12.201655"><ele>651.3333333333334</ele><time>2026-04-19T09:47:46.058Z</time></trkpt><trkpt lat="42.7691681" lon="12.2018768"><ele>650.6666666666666</ele><time>2026-04-19T09:47:47.071Z</time></trkpt><trkpt lat="42.7691704" lon="12.2021212"><ele>650.0</ele><time>2026-04-19T09:47:48.073Z</time></trkpt><trkpt lat="42.7692077" lon="12.2023277"><ele>651.75</ele><time>2026-04-19T09:47:49.064Z</time></trkpt><trkpt lat="42.769259" lon="12.2025135"><ele>653.5</ele><time>2026-04-19T09:47:50.065Z</time></trkpt><trkpt lat="42.7693025" lon="12.2026991"><ele>655.25</ele><time>2026-04-19T09:47:51.072Z</time></trkpt><trkpt lat="42.7693288" lon="12.2028601"><ele>657.0</ele><time>2026-04-19T09:47:52.065Z</time></trkpt><trkpt lat="42.7693493" lon="12.2030314"><ele>655.75</ele><time>2026-04-19T09:47:53.065Z</time></trkpt><trkpt lat="42.7693451" lon="12.2031783"><ele>654.5</ele><time>2026-04-19T09:47:54.064Z</time></trkpt><trkpt lat="42.7693617" lon="12.2033306"><ele>653.25</ele><time>2026-04-19T09:47:55.069Z</time></trkpt><trkpt lat="42.7694045" lon="12.2034727"><ele>652.0</ele><time>2026-04-19T09:47:56.073Z</time></trkpt><trkpt lat="42.7694744" lon="12.2036287"><ele>644.6666666666667</ele><time>2026-04-19T09:47:57.067Z</time></trkpt><trkpt lat="42.7695929" lon="12.2037511"><ele>637.3333333333334</ele><time>2026-04-19T09:47:58.062Z</time></trkpt><trkpt lat="42.7697259" lon="12.2038459"><ele>630.0</ele><time>2026-04-19T09:47:59.07Z</time></trkpt><trkpt lat="42.7698754" lon="12.2039794"><ele>631.6666666666666</ele><time>2026-04-19T09:48:00.07Z</time></trkpt><trkpt lat="42.770041" lon="12.2041124"><ele>633.3333333333333</ele><time>2026-04-19T09:48:01.072Z</time></trkpt><trkpt lat="42.7702306" lon="12.2042644"><ele>635.0</ele><time>2026-04-19T09:48:02.066Z</time></trkpt><trkpt lat="42.7704386" lon="12.2044228"><ele>629.0</ele><time>2026-04-19T09:48:03.063Z</time></trkpt><trkpt lat="42.7706377" lon="12.2045687"><ele>623.0</ele><time>2026-04-19T09:48:04.059Z</time></trkpt><trkpt lat="42.7708416" lon="12.2047148"><ele>623.6666666666666</ele><time>2026-04-19T09:48:05.067Z</time></trkpt><trkpt lat="42.7710026" lon="12.2048476"><ele>624.3333333333334</ele><time>2026-04-19T09:48:06.083Z</time></trkpt><trkpt lat="42.7711296" lon="12.2050127"><ele>625.0</ele><time>2026-04-19T09:48:07.068Z</time></trkpt><trkpt lat="42.7712297" lon="12.2051857"><ele>627.3333333333334</ele><time>2026-04-19T09:48:08.062Z</time></trkpt><trkpt lat="42.7713042" lon="12.2053591"><ele>629.6666666666666</ele><time>2026-04-19T09:48:09.067Z</time></trkpt><trkpt lat="42.7713328" lon="12.2055617"><ele>632.0</ele><time>2026-04-19T09:48:10.069Z</time></trkpt><trkpt lat="42.7714288" lon="12.2057419"><ele>633.0</ele><time>2026-04-19T09:48:11.067Z</time></trkpt><trkpt lat="42.7715438" lon="12.2059215"><ele>634.0</ele><time>2026-04-19T09:48:12.071Z</time></trkpt><trkpt lat="42.7716566" lon="12.2061092"><ele>635.0</ele><time>2026-04-19T09:48:13.066Z</time></trkpt><trkpt lat="42.7717684" lon="12.2062843"><ele>634.0</ele><time>2026-04-19T09:48:14.063Z</time></trkpt><trkpt lat="42.7718723" lon="12.2064715"><ele>633.0</ele><time>2026-04-19T09:48:15.077Z</time></trkpt><trkpt lat="42.7719813" lon="12.2066497"><ele>632.0</ele><time>2026-04-19T09:48:16.067Z</time></trkpt><trkpt lat="42.7721015" lon="12.206797"><ele>632.0</ele><time>2026-04-19T09:48:17.068Z</time></trkpt><trkpt lat="42.7722624" lon="12.2068565"><ele>632.0</ele><time>2026-04-19T09:48:18.057Z</time></trkpt><trkpt lat="42.7724224" lon="12.2068308"><ele>632.0</ele><time>2026-04-19T09:48:19.057Z</time></trkpt><trkpt lat="42.7725661" lon="12.2067181"><ele>630.0</ele><time>2026-04-19T09:48:20.071Z</time></trkpt><trkpt lat="42.7726636" lon="12.2064897"><ele>628.0</ele><time>2026-04-19T09:48:21.073Z</time></trkpt><trkpt lat="42.7727427" lon="12.2062322"><ele>626.0</ele><time>2026-04-19T09:48:22.083Z</time></trkpt><trkpt lat="42.7727955" lon="12.2059558"><ele>626.0</ele><time>2026-04-19T09:48:23.072Z</time></trkpt><trkpt lat="42.7728694" lon="12.2056883"><ele>626.0</ele><time>2026-04-19T09:48:24.076Z</time></trkpt><trkpt lat="42.7729529" lon="12.2054534"><ele>626.0</ele><time>2026-04-19T09:48:25.071Z</time></trkpt><trkpt lat="42.7731073" lon="12.205299"><ele>626.3333333333333</ele><time>2026-04-19T09:48:26.061Z</time></trkpt><trkpt lat="42.7732889" lon="12.2051775"><ele>626.6666666666666</ele><time>2026-04-19T09:48:27.073Z</time></trkpt><trkpt lat="42.7734969" lon="12.2050867"><ele>627.0</ele><time>2026-04-19T09:48:28.066Z</time></trkpt><trkpt lat="42.7737169" lon="12.2050528"><ele>622.5</ele><time>2026-04-19T09:48:29.062Z</time></trkpt><trkpt lat="42.7739575" lon="12.2050718"><ele>618.0</ele><time>2026-04-19T09:48:30.072Z</time></trkpt><trkpt lat="42.7741664" lon="12.2051102"><ele>618.0</ele><time>2026-04-19T09:48:31.066Z</time></trkpt><trkpt lat="42.7743417" lon="12.2052417"><ele>618.0</ele><time>2026-04-19T09:48:32.062Z</time></trkpt><trkpt lat="42.774486" lon="12.2054002"><ele>618.0</ele><time>2026-04-19T09:48:33.07Z</time></trkpt><trkpt lat="42.7746422" lon="12.2055409"><ele>620.0</ele><time>2026-04-19T09:48:34.065Z</time></trkpt><trkpt lat="42.7747585" lon="12.2055898"><ele>622.0</ele><time>2026-04-19T09:48:35.068Z</time></trkpt><trkpt lat="42.7748909" lon="12.2056032"><ele>624.0</ele><time>2026-04-19T09:48:36.074Z</time></trkpt><trkpt lat="42.7750135" lon="12.2055725"><ele>626.0</ele><time>2026-04-19T09:48:37.056Z</time></trkpt><trkpt lat="42.775132" lon="12.205531"><ele>628.5</ele><time>2026-04-19T09:48:38.068Z</time></trkpt><trkpt lat="42.775255" lon="12.2055489"><ele>631.0</ele><time>2026-04-19T09:48:39.062Z</time></trkpt><trkpt lat="42.7753879" lon="12.2055658"><ele>633.5</ele><time>2026-04-19T09:48:40.062Z</time></trkpt><trkpt lat="42.7755258" lon="12.2055962"><ele>636.0</ele><time>2026-04-19T09:48:41.066Z</time></trkpt><trkpt lat="42.7756582" lon="12.2056722"><ele>636.0</ele><time>2026-04-19T09:48:42.086Z</time></trkpt><trkpt lat="42.7758056" lon="12.2057649"><ele>636.0</ele><time>2026-04-19T09:48:43.062Z</time></trkpt><trkpt lat="42.7759513" lon="12.2058664"><ele>636.0</ele><time>2026-04-19T09:48:44.071Z</time></trkpt><trkpt lat="42.7761154" lon="12.205984"><ele>636.0</ele><time>2026-04-19T09:48:45.07Z</time></trkpt><trkpt lat="42.7762663" lon="12.2060327"><ele>636.0</ele><time>2026-04-19T09:48:46.073Z</time></trkpt><trkpt lat="42.7764186" lon="12.2060606"><ele>636.0</ele><time>2026-04-19T09:48:47.061Z</time></trkpt><trkpt lat="42.7765851" lon="12.2060097"><ele>636.0</ele><time>2026-04-19T09:48:48.072Z</time></trkpt><trkpt lat="42.7767386" lon="12.2058399"><ele>636.0</ele><time>2026-04-19T09:48:49.065Z</time></trkpt><trkpt lat="42.7768637" lon="12.2055764"><ele>636.0</ele><time>2026-04-19T09:48:50.072Z</time></trkpt><trkpt lat="42.7769824" lon="12.2052926"><ele>638.0</ele><time>2026-04-19T09:48:51.066Z</time></trkpt><trkpt lat="42.7771269" lon="12.2050203"><ele>640.0</ele><time>2026-04-19T09:48:52.071Z</time></trkpt><trkpt lat="42.7772598" lon="12.2047636"><ele>640.0</ele><time>2026-04-19T09:48:53.071Z</time></trkpt><trkpt lat="42.7774081" lon="12.2045161"><ele>640.0</ele><time>2026-04-19T09:48:54.064Z</time></trkpt><trkpt lat="42.777542" lon="12.2042752"><ele>640.0</ele><time>2026-04-19T09:48:55.071Z</time></trkpt><trkpt lat="42.7776687" lon="12.2040248"><ele>640.0</ele><time>2026-04-19T09:48:56.086Z</time></trkpt><trkpt lat="42.7777818" lon="12.2038101"><ele>640.0</ele><time>2026-04-19T09:48:57.072Z</time></trkpt><trkpt lat="42.7779025" lon="12.2036144"><ele>636.6666666666667</ele><time>2026-04-19T09:48:58.063Z</time></trkpt><trkpt lat="42.7780259" lon="12.2034334"><ele>633.3333333333334</ele><time>2026-04-19T09:48:59.065Z</time></trkpt><trkpt lat="42.7781541" lon="12.2032537"><ele>630.0</ele><time>2026-04-19T09:49:00.074Z</time></trkpt><trkpt lat="42.7783529" lon="12.2031852"><ele>631.3333333333334</ele><time>2026-04-19T09:49:01.068Z</time></trkpt><trkpt lat="42.7785557" lon="12.2031549"><ele>632.6666666666667</ele><time>2026-04-19T09:49:02.057Z</time></trkpt><trkpt lat="42.7787438" lon="12.2031363"><ele>634.0</ele><time>2026-04-19T09:49:03.075Z</time></trkpt><trkpt lat="42.7789302" lon="12.2031163"><ele>634.0</ele><time>2026-04-19T09:49:04.068Z</time></trkpt><trkpt lat="42.7790978" lon="12.2030035"><ele>634.0</ele><time>2026-04-19T09:49:05.072Z</time></trkpt><trkpt lat="42.7792433" lon="12.2028145"><ele>634.0</ele><time>2026-04-19T09:49:06.076Z</time></trkpt><trkpt lat="42.779368" lon="12.2025806"><ele>636.3333333333334</ele><time>2026-04-19T09:49:07.069Z</time></trkpt><trkpt lat="42.7795078" lon="12.2023772"><ele>638.6666666666666</ele><time>2026-04-19T09:49:08.063Z</time></trkpt><trkpt lat="42.7796691" lon="12.2021709"><ele>641.0</ele><time>2026-04-19T09:49:09.08Z</time></trkpt><trkpt lat="42.7798002" lon="12.2019611"><ele>641.0</ele><time>2026-04-19T09:49:10.072Z</time></trkpt><trkpt lat="42.7799093" lon="12.2017613"><ele>641.0</ele><time>2026-04-19T09:49:11.057Z</time></trkpt><trkpt lat="42.7800256" lon="12.2015714"><ele>641.0</ele><time>2026-04-19T09:49:12.067Z</time></trkpt><trkpt lat="42.7801316" lon="12.2014002"><ele>637.6666666666666</ele><time>2026-04-19T09:49:13.069Z</time></trkpt><trkpt lat="42.7802799" lon="12.2012854"><ele>634.3333333333334</ele><time>2026-04-19T09:49:14.073Z</time></trkpt><trkpt lat="42.7804926" lon="12.2012589"><ele>631.0</ele><time>2026-04-19T09:49:15.066Z</time></trkpt><trkpt lat="42.7807062" lon="12.2012946"><ele>631.0</ele><time>2026-04-19T09:49:16.066Z</time></trkpt><trkpt lat="42.7809261" lon="12.2012955"><ele>631.0</ele><time>2026-04-19T09:49:17.073Z</time></trkpt><trkpt lat="42.7811622" lon="12.2012635"><ele>635.5</ele><time>2026-04-19T09:49:18.064Z</time></trkpt><trkpt lat="42.7814075" lon="12.2011771"><ele>640.0</ele><time>2026-04-19T09:49:19.065Z</time></trkpt><trkpt lat="42.7816798" lon="12.2010881"><ele>647.5</ele><time>2026-04-19T09:49:20.064Z</time></trkpt><trkpt lat="42.7819245" lon="12.2009461"><ele>655.0</ele><time>2026-04-19T09:49:21.07Z</time></trkpt><trkpt lat="42.7821555" lon="12.2007581"><ele>646.5</ele><time>2026-04-19T09:49:22.067Z</time></trkpt><trkpt lat="42.7823571" lon="12.2005716"><ele>638.0</ele><time>2026-04-19T09:49:23.052Z</time></trkpt><trkpt lat="42.7825645" lon="12.2004456"><ele>644.3333333333333</ele><time>2026-04-19T09:49:24.077Z</time></trkpt><trkpt lat="42.7827701" lon="12.2003391"><ele>650.6666666666666</ele><time>2026-04-19T09:49:25.074Z</time></trkpt><trkpt lat="42.7829475" lon="12.2001754"><ele>657.0</ele><time>2026-04-19T09:49:26.058Z</time></trkpt><trkpt lat="42.7830828" lon="12.1999436"><ele>653.6666666666666</ele><time>2026-04-19T09:49:27.067Z</time></trkpt><trkpt lat="42.7831692" lon="12.1996938"><ele>650.3333333333333</ele><time>2026-04-19T09:49:28.071Z</time></trkpt><trkpt lat="42.7832314" lon="12.1994522"><ele>647.0</ele><time>2026-04-19T09:49:29.071Z</time></trkpt><trkpt lat="42.7832897" lon="12.1992274"><ele>647.0</ele><time>2026-04-19T09:49:30.064Z</time></trkpt><trkpt lat="42.783384" lon="12.1990579"><ele>647.0</ele><time>2026-04-19T09:49:31.063Z</time></trkpt><trkpt lat="42.7835225" lon="12.1989689"><ele>647.0</ele><time>2026-04-19T09:49:32.055Z</time></trkpt><trkpt lat="42.7837" lon="12.1989961"><ele>647.6666666666666</ele><time>2026-04-19T09:49:33.075Z</time></trkpt><trkpt lat="42.7838933" lon="12.1990215"><ele>648.3333333333334</ele><time>2026-04-19T09:49:34.062Z</time></trkpt><trkpt lat="42.7841083" lon="12.1990349"><ele>649.0</ele><time>2026-04-19T09:49:35.058Z</time></trkpt><trkpt lat="42.7843236" lon="12.1990427"><ele>649.6666666666667</ele><time>2026-04-19T09:49:36.068Z</time></trkpt><trkpt lat="42.7845252" lon="12.1990546"><ele>650.3333333333334</ele><time>2026-04-19T09:49:37.065Z</time></trkpt><trkpt lat="42.7847352" lon="12.1989988"><ele>651.0</ele><time>2026-04-19T09:49:38.066Z</time></trkpt><trkpt lat="42.7849424" lon="12.1989332"><ele>645.6666666666666</ele><time>2026-04-19T09:49:39.075Z</time></trkpt><trkpt lat="42.7851653" lon="12.1988802"><ele>640.3333333333333</ele><time>2026-04-19T09:49:40.084Z</time></trkpt><trkpt lat="42.7853802" lon="12.1988179"><ele>635.0</ele><time>2026-04-19T09:49:41.07Z</time></trkpt><trkpt lat="42.785595" lon="12.1986873"><ele>635.0</ele><time>2026-04-19T09:49:42.063Z</time></trkpt><trkpt lat="42.7858135" lon="12.1985331"><ele>635.0</ele><time>2026-04-19T09:49:43.069Z</time></trkpt><trkpt lat="42.786" lon="12.1984008"><ele>635.6666666666666</ele><time>2026-04-19T09:49:44.06Z</time></trkpt><trkpt lat="42.7862061" lon="12.1983556"><ele>636.3333333333334</ele><time>2026-04-19T09:49:45.057Z</time></trkpt><trkpt lat="42.7864194" lon="12.1983311"><ele>637.0</ele><time>2026-04-19T09:49:46.064Z</time></trkpt><trkpt lat="42.7866349" lon="12.1983331"><ele>637.0</ele><time>2026-04-19T09:49:47.066Z</time></trkpt><trkpt lat="42.7868311" lon="12.1983415"><ele>637.0</ele><time>2026-04-19T09:49:48.054Z</time></trkpt><trkpt lat="42.7870071" lon="12.1983862"><ele>637.0</ele><time>2026-04-19T09:49:49.051Z</time></trkpt><trkpt lat="42.7871679" lon="12.1984347"><ele>633.0</ele><time>2026-04-19T09:49:50.058Z</time></trkpt><trkpt lat="42.7872916" lon="12.1985609"><ele>629.0</ele><time>2026-04-19T09:49:51.061Z</time></trkpt><trkpt lat="42.7873932" lon="12.1987702"><ele>625.0</ele><time>2026-04-19T09:49:52.053Z</time></trkpt><trkpt lat="42.7874854" lon="12.1989948"><ele>626.6666666666667</ele><time>2026-04-19T09:49:53.05Z</time></trkpt><trkpt lat="42.7876587" lon="12.1991572"><ele>628.3333333333334</ele><time>2026-04-19T09:49:54.059Z</time></trkpt><trkpt lat="42.7878541" lon="12.1992899"><ele>630.0</ele><time>2026-04-19T09:49:55.061Z</time></trkpt><trkpt lat="42.7880804" lon="12.1994047"><ele>630.0</ele><time>2026-04-19T09:49:56.063Z</time></trkpt><trkpt lat="42.7882763" lon="12.1995256"><ele>630.0</ele><time>2026-04-19T09:49:57.071Z</time></trkpt><trkpt lat="42.7884677" lon="12.1996969"><ele>630.0</ele><time>2026-04-19T09:49:58.071Z</time></trkpt><trkpt lat="42.788637" lon="12.1999005"><ele>633.3333333333334</ele><time>2026-04-19T09:49:59.072Z</time></trkpt><trkpt lat="42.7888334" lon="12.2000542"><ele>636.6666666666667</ele><time>2026-04-19T09:50:00.065Z</time></trkpt><trkpt lat="42.789045" lon="12.200143"><ele>640.0</ele><time>2026-04-19T09:50:01.064Z</time></trkpt><trkpt lat="42.7892359" lon="12.2001941"><ele>641.75</ele><time>2026-04-19T09:50:02.059Z</time></trkpt><trkpt lat="42.7894057" lon="12.20022"><ele>643.5</ele><time>2026-04-19T09:50:03.084Z</time></trkpt><trkpt lat="42.7895465" lon="12.2001668"><ele>645.25</ele><time>2026-04-19T09:50:04.063Z</time></trkpt><trkpt lat="42.7896319" lon="12.200036"><ele>647.0</ele><time>2026-04-19T09:50:05.061Z</time></trkpt><trkpt lat="42.7896564" lon="12.1998674"><ele>647.6666666666666</ele><time>2026-04-19T09:50:06.056Z</time></trkpt><trkpt lat="42.7896074" lon="12.1996527"><ele>648.3333333333334</ele><time>2026-04-19T09:50:07.065Z</time></trkpt><trkpt lat="42.7895148" lon="12.1994357"><ele>649.0</ele><time>2026-04-19T09:50:08.061Z</time></trkpt><trkpt lat="42.7894103" lon="12.1992075"><ele>644.6666666666667</ele><time>2026-04-19T09:50:09.073Z</time></trkpt><trkpt lat="42.7893358" lon="12.1989573"><ele>640.3333333333334</ele><time>2026-04-19T09:50:10.061Z</time></trkpt><trkpt lat="42.7893173" lon="12.1987383"><ele>636.0</ele><time>2026-04-19T09:50:11.079Z</time></trkpt><trkpt lat="42.7893567" lon="12.1985802"><ele>636.0</ele><time>2026-04-19T09:50:12.063Z</time></trkpt><trkpt lat="42.7894541" lon="12.1984661"><ele>636.0</ele><time>2026-04-19T09:50:13.062Z</time></trkpt><trkpt lat="42.7895829" lon="12.1984289"><ele>636.0</ele><time>2026-04-19T09:50:14.061Z</time></trkpt><trkpt lat="42.7896929" lon="12.198395"><ele>636.0</ele><time>2026-04-19T09:50:15.059Z</time></trkpt><trkpt lat="42.7898188" lon="12.1983941"><ele>636.0</ele><time>2026-04-19T09:50:16.059Z</time></trkpt><trkpt lat="42.7899854" lon="12.1985198"><ele>636.0</ele><time>2026-04-19T09:50:17.06Z</time></trkpt><trkpt lat="42.7901354" lon="12.1986888"><ele>636.0</ele><time>2026-04-19T09:50:18.057Z</time></trkpt><trkpt lat="42.7902843" lon="12.198865"><ele>641.6666666666666</ele><time>2026-04-19T09:50:19.06Z</time></trkpt><trkpt lat="42.7904143" lon="12.1990289"><ele>647.3333333333333</ele><time>2026-04-19T09:50:20.059Z</time></trkpt><trkpt lat="42.7905316" lon="12.1991833"><ele>653.0</ele><time>2026-04-19T09:50:21.064Z</time></trkpt><trkpt lat="42.7906855" lon="12.1992548"><ele>653.0</ele><time>2026-04-19T09:50:22.065Z</time></trkpt><trkpt lat="42.7908249" lon="12.1993202"><ele>653.0</ele><time>2026-04-19T09:50:23.062Z</time></trkpt><trkpt lat="42.7909573" lon="12.1992602"><ele>653.0</ele><time>2026-04-19T09:50:24.076Z</time></trkpt><trkpt lat="42.7910979" lon="12.1991789"><ele>653.0</ele><time>2026-04-19T09:50:25.064Z</time></trkpt><trkpt lat="42.7912478" lon="12.1991122"><ele>656.5</ele><time>2026-04-19T09:50:26.062Z</time></trkpt><trkpt lat="42.791552" lon="12.1991163"><ele>660.0</ele><time>2026-04-19T09:50:28.058Z</time></trkpt><trkpt lat="42.7917211" lon="12.1991526"><ele>665.0</ele><time>2026-04-19T09:50:29.051Z</time></trkpt><trkpt lat="42.791876" lon="12.1992729"><ele>670.0</ele><time>2026-04-19T09:50:30.066Z</time></trkpt><trkpt lat="42.7920445" lon="12.1993679"><ele>675.0</ele><time>2026-04-19T09:50:31.056Z</time></trkpt><trkpt lat="42.7922396" lon="12.1994743"><ele>675.0</ele><time>2026-04-19T09:50:32.051Z</time></trkpt><trkpt lat="42.7924182" lon="12.1995267"><ele>675.0</ele><time>2026-04-19T09:50:33.064Z</time></trkpt><trkpt lat="42.7925921" lon="12.1996119"><ele>675.0</ele><time>2026-04-19T09:50:34.068Z</time></trkpt><trkpt lat="42.7927799" lon="12.1997107"><ele>678.0</ele><time>2026-04-19T09:50:35.063Z</time></trkpt><trkpt lat="42.7929475" lon="12.1998043"><ele>681.0</ele><time>2026-04-19T09:50:36.067Z</time></trkpt><trkpt lat="42.793095" lon="12.1998806"><ele>684.0</ele><time>2026-04-19T09:50:37.071Z</time></trkpt><trkpt lat="42.7932332" lon="12.1999546"><ele>684.0</ele><time>2026-04-19T09:50:38.071Z</time></trkpt><trkpt lat="42.7933511" lon="12.200041"><ele>684.0</ele><time>2026-04-19T09:50:39.076Z</time></trkpt><trkpt lat="42.7934746" lon="12.200109"><ele>684.0</ele><time>2026-04-19T09:50:40.071Z</time></trkpt><trkpt lat="42.7935836" lon="12.2001959"><ele>684.0</ele><time>2026-04-19T09:50:41.076Z</time></trkpt><trkpt lat="42.7936915" lon="12.2002854"><ele>686.25</ele><time>2026-04-19T09:50:42.067Z</time></trkpt><trkpt lat="42.7938119" lon="12.2003667"><ele>688.5</ele><time>2026-04-19T09:50:43.069Z</time></trkpt><trkpt lat="42.7939527" lon="12.2004644"><ele>690.75</ele><time>2026-04-19T09:50:44.059Z</time></trkpt><trkpt lat="42.7940937" lon="12.2005483"><ele>693.0</ele><time>2026-04-19T09:50:45.068Z</time></trkpt><trkpt lat="42.794246" lon="12.2006258"><ele>694.6666666666666</ele><time>2026-04-19T09:50:46.069Z</time></trkpt><trkpt lat="42.7944071" lon="12.200667"><ele>696.3333333333333</ele><time>2026-04-19T09:50:47.07Z</time></trkpt><trkpt lat="42.7945561" lon="12.2006658"><ele>698.0</ele><time>2026-04-19T09:50:48.064Z</time></trkpt><trkpt lat="42.794712" lon="12.2006283"><ele>698.0</ele><time>2026-04-19T09:50:49.07Z</time></trkpt><trkpt lat="42.7948784" lon="12.2006229"><ele>698.0</ele><time>2026-04-19T09:50:50.083Z</time></trkpt><trkpt lat="42.7950411" lon="12.200637"><ele>698.0</ele><time>2026-04-19T09:50:51.08Z</time></trkpt><trkpt lat="42.7951938" lon="12.2006682"><ele>697.0</ele><time>2026-04-19T09:50:52.08Z</time></trkpt><trkpt lat="42.79535" lon="12.2006819"><ele>696.0</ele><time>2026-04-19T09:50:53.082Z</time></trkpt><trkpt lat="42.7954953" lon="12.2006979"><ele>695.0</ele><time>2026-04-19T09:50:54.055Z</time></trkpt><trkpt lat="42.7956622" lon="12.2007128"><ele>695.0</ele><time>2026-04-19T09:50:55.064Z</time></trkpt><trkpt lat="42.7958146" lon="12.2007512"><ele>695.0</ele><time>2026-04-19T09:50:56.07Z</time></trkpt><trkpt lat="42.7959681" lon="12.2008267"><ele>695.0</ele><time>2026-04-19T09:50:57.061Z</time></trkpt><trkpt lat="42.7960847" lon="12.2009347"><ele>697.6666666666666</ele><time>2026-04-19T09:50:58.062Z</time></trkpt><trkpt lat="42.7961659" lon="12.2010914"><ele>700.3333333333334</ele><time>2026-04-19T09:50:59.061Z</time></trkpt><trkpt lat="42.7962482" lon="12.2012525"><ele>703.0</ele><time>2026-04-19T09:51:00.062Z</time></trkpt><trkpt lat="42.796379" lon="12.2013931"><ele>703.0</ele><time>2026-04-19T09:51:01.063Z</time></trkpt><trkpt lat="42.7965347" lon="12.201456"><ele>703.0</ele><time>2026-04-19T09:51:02.06Z</time></trkpt><trkpt lat="42.7966955" lon="12.2015202"><ele>703.0</ele><time>2026-04-19T09:51:03.059Z</time></trkpt><trkpt lat="42.796856" lon="12.2015866"><ele>705.6666666666667</ele><time>2026-04-19T09:51:04.067Z</time></trkpt><trkpt lat="42.7969938" lon="12.2016617"><ele>708.3333333333334</ele><time>2026-04-19T09:51:05.072Z</time></trkpt><trkpt lat="42.7971283" lon="12.2017451"><ele>711.0</ele><time>2026-04-19T09:51:06.064Z</time></trkpt><trkpt lat="42.7972552" lon="12.2018798"><ele>711.0</ele><time>2026-04-19T09:51:07.069Z</time></trkpt><trkpt lat="42.7973809" lon="12.2020466"><ele>711.0</ele><time>2026-04-19T09:51:08.066Z</time></trkpt><trkpt lat="42.7974854" lon="12.2022459"><ele>711.0</ele><time>2026-04-19T09:51:09.064Z</time></trkpt><trkpt lat="42.7975277" lon="12.2024453"><ele>709.25</ele><time>2026-04-19T09:51:10.064Z</time></trkpt><trkpt lat="42.7975757" lon="12.202627"><ele>707.5</ele><time>2026-04-19T09:51:11.065Z</time></trkpt><trkpt lat="42.797695" lon="12.2027197"><ele>705.75</ele><time>2026-04-19T09:51:12.062Z</time></trkpt><trkpt lat="42.7977922" lon="12.2027961"><ele>704.0</ele><time>2026-04-19T09:51:13.062Z</time></trkpt><trkpt lat="42.7979247" lon="12.202787"><ele>703.3333333333333</ele><time>2026-04-19T09:51:14.064Z</time></trkpt><trkpt lat="42.7980639" lon="12.2027532"><ele>702.6666666666666</ele><time>2026-04-19T09:51:15.059Z</time></trkpt><trkpt lat="42.7982131" lon="12.2027572"><ele>702.0</ele><time>2026-04-19T09:51:16.061Z</time></trkpt><trkpt lat="42.7983922" lon="12.2027725"><ele>696.3333333333334</ele><time>2026-04-19T09:51:17.068Z</time></trkpt><trkpt lat="42.798554" lon="12.2028514"><ele>690.6666666666667</ele><time>2026-04-19T09:51:18.062Z</time></trkpt><trkpt lat="42.798705" lon="12.2029588"><ele>685.0</ele><time>2026-04-19T09:51:19.061Z</time></trkpt><trkpt lat="42.7988556" lon="12.2030852"><ele>688.0</ele><time>2026-04-19T09:51:20.067Z</time></trkpt><trkpt lat="42.7990151" lon="12.2032347"><ele>691.0</ele><time>2026-04-19T09:51:21.066Z</time></trkpt><trkpt lat="42.7991482" lon="12.2034171"><ele>694.0</ele><time>2026-04-19T09:51:22.055Z</time></trkpt><trkpt lat="42.7991778" lon="12.2036802"><ele>694.0</ele><time>2026-04-19T09:51:23.065Z</time></trkpt><trkpt lat="42.7991838" lon="12.2039608"><ele>694.0</ele><time>2026-04-19T09:51:24.084Z</time></trkpt><trkpt lat="42.7991746" lon="12.2042672"><ele>694.0</ele><time>2026-04-19T09:51:25.066Z</time></trkpt><trkpt lat="42.7991872" lon="12.2045959"><ele>694.0</ele><time>2026-04-19T09:51:26.06Z</time></trkpt><trkpt lat="42.7992387" lon="12.2049098"><ele>694.0</ele><time>2026-04-19T09:51:27.061Z</time></trkpt><trkpt lat="42.7993459" lon="12.2052152"><ele>691.6666666666667</ele><time>2026-04-19T09:51:28.067Z</time></trkpt><trkpt lat="42.7995009" lon="12.205375"><ele>689.3333333333334</ele><time>2026-04-19T09:51:29.066Z</time></trkpt><trkpt lat="42.7996866" lon="12.2054905"><ele>687.0</ele><time>2026-04-19T09:51:30.061Z</time></trkpt><trkpt lat="42.7998848" lon="12.2055768"><ele>687.0</ele><time>2026-04-19T09:51:31.066Z</time></trkpt><trkpt lat="42.8000803" lon="12.2056463"><ele>687.0</ele><time>2026-04-19T09:51:32.062Z</time></trkpt><trkpt lat="42.8002976" lon="12.205677"><ele>687.0</ele><time>2026-04-19T09:51:33.064Z</time></trkpt><trkpt lat="42.8007033" lon="12.2057024"><ele>685.3333333333334</ele><time>2026-04-19T09:51:35.083Z</time></trkpt><trkpt lat="42.8008882" lon="12.2057284"><ele>683.6666666666667</ele><time>2026-04-19T09:51:36.067Z</time></trkpt><trkpt lat="42.8010656" lon="12.2057549"><ele>682.0</ele><time>2026-04-19T09:51:37.071Z</time></trkpt><trkpt lat="42.8012228" lon="12.2058161"><ele>682.0</ele><time>2026-04-19T09:51:38.063Z</time></trkpt><trkpt lat="42.8013304" lon="12.2059277"><ele>682.0</ele><time>2026-04-19T09:51:39.069Z</time></trkpt><trkpt lat="42.8013861" lon="12.2061162"><ele>682.0</ele><time>2026-04-19T09:51:40.062Z</time></trkpt><trkpt lat="42.8014333" lon="12.2063419"><ele>686.6666666666667</ele><time>2026-04-19T09:51:41.085Z</time></trkpt><trkpt lat="42.8014863" lon="12.2065752"><ele>691.3333333333334</ele><time>2026-04-19T09:51:42.061Z</time></trkpt><trkpt lat="42.8015866" lon="12.2067759"><ele>696.0</ele><time>2026-04-19T09:51:43.073Z</time></trkpt><trkpt lat="42.8016938" lon="12.2069529"><ele>696.0</ele><time>2026-04-19T09:51:44.066Z</time></trkpt><trkpt lat="42.8018144" lon="12.207106"><ele>696.0</ele><time>2026-04-19T09:51:45.069Z</time></trkpt><trkpt lat="42.8019438" lon="12.2072322"><ele>696.0</ele><time>2026-04-19T09:51:46.065Z</time></trkpt><trkpt lat="42.8020936" lon="12.2073683"><ele>699.3333333333334</ele><time>2026-04-19T09:51:47.067Z</time></trkpt><trkpt lat="42.8022571" lon="12.2075279"><ele>702.6666666666667</ele><time>2026-04-19T09:51:48.063Z</time></trkpt><trkpt lat="42.8024334" lon="12.2077079"><ele>706.0</ele><time>2026-04-19T09:51:49.072Z</time></trkpt><trkpt lat="42.8026186" lon="12.2079028"><ele>708.5</ele><time>2026-04-19T09:51:50.071Z</time></trkpt><trkpt lat="42.8028306" lon="12.2080549"><ele>711.0</ele><time>2026-04-19T09:51:51.085Z</time></trkpt><trkpt lat="42.8030742" lon="12.2081312"><ele>711.0</ele><time>2026-04-19T09:51:52.059Z</time></trkpt><trkpt lat="42.8033426" lon="12.2081341"><ele>711.0</ele><time>2026-04-19T09:51:53.074Z</time></trkpt><trkpt lat="42.8036479" lon="12.2080364"><ele>710.5</ele><time>2026-04-19T09:51:54.071Z</time></trkpt><trkpt lat="42.8039157" lon="12.2079839"><ele>710.0</ele><time>2026-04-19T09:51:55.068Z</time></trkpt><trkpt lat="42.80417" lon="12.2079569"><ele>715.0</ele><time>2026-04-19T09:51:56.075Z</time></trkpt><trkpt lat="42.8044124" lon="12.2079536"><ele>720.0</ele><time>2026-04-19T09:51:57.076Z</time></trkpt><trkpt lat="42.804624" lon="12.2079932"><ele>720.0</ele><time>2026-04-19T09:51:58.066Z</time></trkpt><trkpt lat="42.804833" lon="12.2080803"><ele>720.0</ele><time>2026-04-19T09:51:59.069Z</time></trkpt><trkpt lat="42.8050521" lon="12.208213"><ele>723.5</ele><time>2026-04-19T09:52:00.1Z</time></trkpt><trkpt lat="42.8052801" lon="12.2083532"><ele>727.0</ele><time>2026-04-19T09:52:01.084Z</time></trkpt><trkpt lat="42.8055257" lon="12.2084939"><ele>727.0</ele><time>2026-04-19T09:52:02.083Z</time></trkpt><trkpt lat="42.8057682" lon="12.2086436"><ele>727.0</ele><time>2026-04-19T09:52:03.086Z</time></trkpt><trkpt lat="42.8060053" lon="12.2087978"><ele>725.5</ele><time>2026-04-19T09:52:04.06Z</time></trkpt><trkpt lat="42.8062214" lon="12.2089408"><ele>724.0</ele><time>2026-04-19T09:52:05.072Z</time></trkpt><trkpt lat="42.806437" lon="12.2090972"><ele>730.0</ele><time>2026-04-19T09:52:06.074Z</time></trkpt><trkpt lat="42.8066342" lon="12.2092966"><ele>736.0</ele><time>2026-04-19T09:52:07.074Z</time></trkpt><trkpt lat="42.8067821" lon="12.2095303"><ele>736.3333333333334</ele><time>2026-04-19T09:52:08.073Z</time></trkpt><trkpt lat="42.8069479" lon="12.2097079"><ele>736.6666666666666</ele><time>2026-04-19T09:52:09.058Z</time></trkpt><trkpt lat="42.8071297" lon="12.2098739"><ele>737.0</ele><time>2026-04-19T09:52:10.07Z</time></trkpt><trkpt lat="42.8073222" lon="12.2100724"><ele>737.0</ele><time>2026-04-19T09:52:11.057Z</time></trkpt><trkpt lat="42.8075341" lon="12.2102814"><ele>737.0</ele><time>2026-04-19T09:52:12.052Z</time></trkpt><trkpt lat="42.8077541" lon="12.210489"><ele>740.0</ele><time>2026-04-19T09:52:13.053Z</time></trkpt><trkpt lat="42.8079736" lon="12.2107125"><ele>743.0</ele><time>2026-04-19T09:52:14.08Z</time></trkpt><trkpt lat="42.8082016" lon="12.2109506"><ele>743.0</ele><time>2026-04-19T09:52:15.076Z</time></trkpt><trkpt lat="42.8084427" lon="12.2111773"><ele>743.0</ele><time>2026-04-19T09:52:16.072Z</time></trkpt><trkpt lat="42.808681" lon="12.2113679"><ele>749.5</ele><time>2026-04-19T09:52:17.067Z</time></trkpt><trkpt lat="42.8089349" lon="12.2115575"><ele>756.0</ele><time>2026-04-19T09:52:18.079Z</time></trkpt><trkpt lat="42.809179" lon="12.2117387"><ele>757.5</ele><time>2026-04-19T09:52:19.079Z</time></trkpt><trkpt lat="42.8094362" lon="12.2118846"><ele>759.0</ele><time>2026-04-19T09:52:20.071Z</time></trkpt><trkpt lat="42.8096848" lon="12.2120108"><ele>759.0</ele><time>2026-04-19T09:52:21.073Z</time></trkpt><trkpt lat="42.8099268" lon="12.2121376"><ele>759.0</ele><time>2026-04-19T09:52:22.081Z</time></trkpt><trkpt lat="42.8101621" lon="12.2122324"><ele>761.0</ele><time>2026-04-19T09:52:23.073Z</time></trkpt><trkpt lat="42.8104085" lon="12.2122981"><ele>763.0</ele><time>2026-04-19T09:52:24.086Z</time></trkpt><trkpt lat="42.8106645" lon="12.2123295"><ele>763.0</ele><time>2026-04-19T09:52:25.073Z</time></trkpt><trkpt lat="42.8109058" lon="12.2123538"><ele>763.0</ele><time>2026-04-19T09:52:26.084Z</time></trkpt><trkpt lat="42.8111212" lon="12.2123625"><ele>763.0</ele><time>2026-04-19T09:52:27.069Z</time></trkpt><trkpt lat="42.8115311" lon="12.212429"><ele>763.0</ele><time>2026-04-19T09:52:29.069Z</time></trkpt><trkpt lat="42.8117231" lon="12.2125132"><ele>767.6666666666667</ele><time>2026-04-19T09:52:30.066Z</time></trkpt><trkpt lat="42.81189" lon="12.2126842"><ele>772.3333333333334</ele><time>2026-04-19T09:52:31.066Z</time></trkpt><trkpt lat="42.8119911" lon="12.2128578"><ele>777.0</ele><time>2026-04-19T09:52:32.087Z</time></trkpt><trkpt lat="42.8120647" lon="12.2130749"><ele>778.6666666666667</ele><time>2026-04-19T09:52:33.065Z</time></trkpt><trkpt lat="42.8120602" lon="12.2133272"><ele>780.3333333333334</ele><time>2026-04-19T09:52:34.079Z</time></trkpt><trkpt lat="42.8119899" lon="12.2135638"><ele>782.0</ele><time>2026-04-19T09:52:35.065Z</time></trkpt><trkpt lat="42.8118833" lon="12.2138044"><ele>778.3333333333334</ele><time>2026-04-19T09:52:36.071Z</time></trkpt><trkpt lat="42.8118043" lon="12.2140759"><ele>774.6666666666667</ele><time>2026-04-19T09:52:37.076Z</time></trkpt><trkpt lat="42.8117707" lon="12.2143783"><ele>771.0</ele><time>2026-04-19T09:52:38.07Z</time></trkpt><trkpt lat="42.8117853" lon="12.2146938"><ele>778.5</ele><time>2026-04-19T09:52:39.064Z</time></trkpt><trkpt lat="42.8118382" lon="12.2150125"><ele>786.0</ele><time>2026-04-19T09:52:40.066Z</time></trkpt><trkpt lat="42.8118748" lon="12.2153243"><ele>786.0</ele><time>2026-04-19T09:52:41.075Z</time></trkpt><trkpt lat="42.8119018" lon="12.2156134"><ele>786.0</ele><time>2026-04-19T09:52:42.069Z</time></trkpt><trkpt lat="42.8119483" lon="12.2158744"><ele>786.0</ele><time>2026-04-19T09:52:43.067Z</time></trkpt><trkpt lat="42.8120656" lon="12.2160963"><ele>783.0</ele><time>2026-04-19T09:52:44.076Z</time></trkpt><trkpt lat="42.8122388" lon="12.2162427"><ele>780.0</ele><time>2026-04-19T09:52:45.068Z</time></trkpt><trkpt lat="42.8124241" lon="12.2163508"><ele>777.0</ele><time>2026-04-19T09:52:46.072Z</time></trkpt><trkpt lat="42.8126681" lon="12.2163834"><ele>776.5</ele><time>2026-04-19T09:52:47.067Z</time></trkpt><trkpt lat="42.8128936" lon="12.216373"><ele>776.0</ele><time>2026-04-19T09:52:48.059Z</time></trkpt><trkpt lat="42.8131292" lon="12.2162786"><ele>776.0</ele><time>2026-04-19T09:52:49.067Z</time></trkpt><trkpt lat="42.8134275" lon="12.2160913"><ele>776.0</ele><time>2026-04-19T09:52:50.068Z</time></trkpt><trkpt lat="42.8136825" lon="12.2157684"><ele>774.5</ele><time>2026-04-19T09:52:51.076Z</time></trkpt><trkpt lat="42.813846" lon="12.2154723"><ele>773.0</ele><time>2026-04-19T09:52:52.065Z</time></trkpt><trkpt lat="42.8139542" lon="12.215134"><ele>778.0</ele><time>2026-04-19T09:52:53.072Z</time></trkpt><trkpt lat="42.8140199" lon="12.2147831"><ele>783.0</ele><time>2026-04-19T09:52:54.049Z</time></trkpt><trkpt lat="42.8140374" lon="12.2143836"><ele>785.5</ele><time>2026-04-19T09:52:55.071Z</time></trkpt><trkpt lat="42.814056" lon="12.2139867"><ele>788.0</ele><time>2026-04-19T09:52:56.067Z</time></trkpt><trkpt lat="42.814074" lon="12.2136778"><ele>788.0</ele><time>2026-04-19T09:52:57.068Z</time></trkpt><trkpt lat="42.8140862" lon="12.2133932"><ele>788.0</ele><time>2026-04-19T09:52:58.061Z</time></trkpt><trkpt lat="42.8141103" lon="12.2132122"><ele>788.0</ele><time>2026-04-19T09:52:59.062Z</time></trkpt><trkpt lat="42.8141997" lon="12.2130771"><ele>788.3333333333334</ele><time>2026-04-19T09:53:01.07Z</time></trkpt><trkpt lat="42.8143206" lon="12.2130222"><ele>788.6666666666667</ele><time>2026-04-19T09:53:02.066Z</time></trkpt><trkpt lat="42.814479" lon="12.2129699"><ele>789.0</ele><time>2026-04-19T09:53:03.068Z</time></trkpt><trkpt lat="42.8146283" lon="12.2128201"><ele>789.0</ele><time>2026-04-19T09:53:04.074Z</time></trkpt><trkpt lat="42.8148012" lon="12.2126654"><ele>789.0</ele><time>2026-04-19T09:53:05.078Z</time></trkpt><trkpt lat="42.8149593" lon="12.2124406"><ele>789.0</ele><time>2026-04-19T09:53:06.081Z</time></trkpt><trkpt lat="42.8151228" lon="12.2121717"><ele>788.5</ele><time>2026-04-19T09:53:07.093Z</time></trkpt><trkpt lat="42.8152595" lon="12.2118786"><ele>788.0</ele><time>2026-04-19T09:53:08.078Z</time></trkpt><trkpt lat="42.8153869" lon="12.2115851"><ele>791.0</ele><time>2026-04-19T09:53:09.07Z</time></trkpt><trkpt lat="42.8155342" lon="12.2113197"><ele>794.0</ele><time>2026-04-19T09:53:10.073Z</time></trkpt><trkpt lat="42.8156589" lon="12.2111053"><ele>797.0</ele><time>2026-04-19T09:53:11.086Z</time></trkpt><trkpt lat="42.8157792" lon="12.2109071"><ele>797.0</ele><time>2026-04-19T09:53:12.067Z</time></trkpt><trkpt lat="42.815873" lon="12.2107941"><ele>797.0</ele><time>2026-04-19T09:53:13.069Z</time></trkpt><trkpt lat="42.8160176" lon="12.2107702"><ele>797.0</ele><time>2026-04-19T09:53:14.071Z</time></trkpt><trkpt lat="42.8161775" lon="12.2108872"><ele>798.3333333333334</ele><time>2026-04-19T09:53:15.062Z</time></trkpt><trkpt lat="42.8163551" lon="12.2110137"><ele>799.6666666666667</ele><time>2026-04-19T09:53:16.055Z</time></trkpt><trkpt lat="42.8165605" lon="12.2111517"><ele>801.0</ele><time>2026-04-19T09:53:17.069Z</time></trkpt><trkpt lat="42.8167782" lon="12.2112942"><ele>801.0</ele><time>2026-04-19T09:53:18.092Z</time></trkpt><trkpt lat="42.8169905" lon="12.2114384"><ele>801.0</ele><time>2026-04-19T09:53:19.068Z</time></trkpt><trkpt lat="42.8172277" lon="12.2115921"><ele>801.0</ele><time>2026-04-19T09:53:20.063Z</time></trkpt><trkpt lat="42.8174659" lon="12.211722"><ele>801.0</ele><time>2026-04-19T09:53:21.066Z</time></trkpt><trkpt lat="42.8177081" lon="12.2118424"><ele>804.0</ele><time>2026-04-19T09:53:22.079Z</time></trkpt><trkpt lat="42.8179379" lon="12.2119195"><ele>807.0</ele><time>2026-04-19T09:53:23.082Z</time></trkpt><trkpt lat="42.8181607" lon="12.2119463"><ele>807.0</ele><time>2026-04-19T09:53:24.074Z</time></trkpt><trkpt lat="42.8183568" lon="12.2119197"><ele>807.0</ele><time>2026-04-19T09:53:25.077Z</time></trkpt><trkpt lat="42.8185405" lon="12.2118347"><ele>807.0</ele><time>2026-04-19T09:53:26.068Z</time></trkpt><trkpt lat="42.8187201" lon="12.2117234"><ele>810.0</ele><time>2026-04-19T09:53:27.091Z</time></trkpt><trkpt lat="42.8188843" lon="12.2115953"><ele>813.0</ele><time>2026-04-19T09:53:28.067Z</time></trkpt><trkpt lat="42.8190606" lon="12.2114793"><ele>816.0</ele><time>2026-04-19T09:53:29.073Z</time></trkpt><trkpt lat="42.8192394" lon="12.2113848"><ele>814.0</ele><time>2026-04-19T09:53:30.064Z</time></trkpt><trkpt lat="42.819402" lon="12.2113392"><ele>812.0</ele><time>2026-04-19T09:53:31.071Z</time></trkpt><trkpt lat="42.8195791" lon="12.2113194"><ele>810.0</ele><time>2026-04-19T09:53:32.068Z</time></trkpt><trkpt lat="42.8197916" lon="12.2113263"><ele>810.0</ele><time>2026-04-19T09:53:33.061Z</time></trkpt><trkpt lat="42.8199912" lon="12.2114754"><ele>810.0</ele><time>2026-04-19T09:53:34.052Z</time></trkpt><trkpt lat="42.8201972" lon="12.2116225"><ele>810.0</ele><time>2026-04-19T09:53:35.068Z</time></trkpt><trkpt lat="42.8204133" lon="12.2117802"><ele>810.0</ele><time>2026-04-19T09:53:36.071Z</time></trkpt><trkpt lat="42.8206383" lon="12.2119346"><ele>810.0</ele><time>2026-04-19T09:53:37.07Z</time></trkpt><trkpt lat="42.8208545" lon="12.2120674"><ele>810.0</ele><time>2026-04-19T09:53:38.063Z</time></trkpt><trkpt lat="42.8210753" lon="12.2121752"><ele>810.3333333333333</ele><time>2026-04-19T09:53:39.073Z</time></trkpt><trkpt lat="42.821295" lon="12.2122594"><ele>810.6666666666666</ele><time>2026-04-19T09:53:40.068Z</time></trkpt><trkpt lat="42.8214942" lon="12.2123062"><ele>811.0</ele><time>2026-04-19T09:53:41.068Z</time></trkpt><trkpt lat="42.8216734" lon="12.2122968"><ele>810.0</ele><time>2026-04-19T09:53:42.066Z</time></trkpt><trkpt lat="42.8218357" lon="12.2122614"><ele>809.0</ele><time>2026-04-19T09:53:43.066Z</time></trkpt><trkpt lat="42.8220094" lon="12.2122259"><ele>808.0</ele><time>2026-04-19T09:53:44.064Z</time></trkpt><trkpt lat="42.8221424" lon="12.2121523"><ele>808.0</ele><time>2026-04-19T09:53:45.096Z</time></trkpt><trkpt lat="42.8222651" lon="12.2120797"><ele>808.0</ele><time>2026-04-19T09:53:46.076Z</time></trkpt><trkpt lat="42.8223697" lon="12.2120405"><ele>808.0</ele><time>2026-04-19T09:53:47.064Z</time></trkpt><trkpt lat="42.8224945" lon="12.2120397"><ele>808.0</ele><time>2026-04-19T09:53:49.069Z</time></trkpt><trkpt lat="42.8226017" lon="12.2119552"><ele>806.4</ele><time>2026-04-19T09:55:35.073Z</time></trkpt><trkpt lat="42.8227176" lon="12.2119086"><ele>804.8</ele><time>2026-04-19T09:55:37.056Z</time></trkpt><trkpt lat="42.8227956" lon="12.2119197"><ele>803.2</ele><time>2026-04-19T09:55:38.065Z</time></trkpt><trkpt lat="42.8228821" lon="12.2119273"><ele>801.6</ele><time>2026-04-19T09:55:39.069Z</time></trkpt><trkpt lat="42.8230206" lon="12.2119596"><ele>800.0</ele><time>2026-04-19T09:55:40.064Z</time></trkpt><trkpt lat="42.823152" lon="12.2120797"><ele>800.0</ele><time>2026-04-19T09:55:41.08Z</time></trkpt><trkpt lat="42.8232972" lon="12.2122873"><ele>800.0</ele><time>2026-04-19T09:55:42.063Z</time></trkpt><trkpt lat="42.8234867" lon="12.2124861"><ele>800.0</ele><time>2026-04-19T09:55:43.075Z</time></trkpt><trkpt lat="42.8237124" lon="12.2126424"><ele>801.5</ele><time>2026-04-19T09:55:44.069Z</time></trkpt><trkpt lat="42.8239225" lon="12.2128306"><ele>803.0</ele><time>2026-04-19T09:55:45.065Z</time></trkpt><trkpt lat="42.8241181" lon="12.2130355"><ele>802.3333333333334</ele><time>2026-04-19T09:55:46.072Z</time></trkpt><trkpt lat="42.8243033" lon="12.2132447"><ele>801.6666666666667</ele><time>2026-04-19T09:55:47.074Z</time></trkpt><trkpt lat="42.8244605" lon="12.2134174"><ele>801.0</ele><time>2026-04-19T09:55:48.065Z</time></trkpt><trkpt lat="42.8245962" lon="12.2135752"><ele>801.0</ele><time>2026-04-19T09:55:49.062Z</time></trkpt><trkpt lat="42.8247436" lon="12.2136259"><ele>801.0</ele><time>2026-04-19T09:55:50.073Z</time></trkpt><trkpt lat="42.8248922" lon="12.2135686"><ele>801.0</ele><time>2026-04-19T09:55:51.064Z</time></trkpt><trkpt lat="42.8250175" lon="12.2134827"><ele>801.0</ele><time>2026-04-19T09:55:52.066Z</time></trkpt><trkpt lat="42.8251544" lon="12.2133989"><ele>800.0</ele><time>2026-04-19T09:55:53.067Z</time></trkpt><trkpt lat="42.8252983" lon="12.2133325"><ele>799.0</ele><time>2026-04-19T09:55:54.066Z</time></trkpt><trkpt lat="42.8254656" lon="12.2133562"><ele>798.0</ele><time>2026-04-19T09:55:55.058Z</time></trkpt><trkpt lat="42.8256359" lon="12.213481"><ele>798.0</ele><time>2026-04-19T09:55:56.059Z</time></trkpt><trkpt lat="42.8258199" lon="12.2136175"><ele>798.0</ele><time>2026-04-19T09:55:57.062Z</time></trkpt><trkpt lat="42.8259863" lon="12.2136856"><ele>798.0</ele><time>2026-04-19T09:55:58.063Z</time></trkpt><trkpt lat="42.8261421" lon="12.2136711"><ele>793.0</ele><time>2026-04-19T09:55:59.063Z</time></trkpt><trkpt lat="42.826315" lon="12.2135911"><ele>788.0</ele><time>2026-04-19T09:56:00.053Z</time></trkpt><trkpt lat="42.8264339" lon="12.2134238"><ele>783.0</ele><time>2026-04-19T09:56:01.07Z</time></trkpt><trkpt lat="42.8265255" lon="12.2132514"><ele>785.0</ele><time>2026-04-19T09:56:02.063Z</time></trkpt><trkpt lat="42.8266178" lon="12.2131144"><ele>787.0</ele><time>2026-04-19T09:56:03.059Z</time></trkpt><trkpt lat="42.8267337" lon="12.2130304"><ele>789.0</ele><time>2026-04-19T09:56:04.061Z</time></trkpt><trkpt lat="42.8268606" lon="12.2130014"><ele>791.0</ele><time>2026-04-19T09:56:05.059Z</time></trkpt><trkpt lat="42.826994" lon="12.213055"><ele>787.0</ele><time>2026-04-19T09:56:06.07Z</time></trkpt><trkpt lat="42.8271206" lon="12.2131569"><ele>783.0</ele><time>2026-04-19T09:56:07.063Z</time></trkpt><trkpt lat="42.8271949" lon="12.2133083"><ele>779.0</ele><time>2026-04-19T09:56:08.058Z</time></trkpt><trkpt lat="42.8273243" lon="12.213436"><ele>775.0</ele><time>2026-04-19T09:56:09.079Z</time></trkpt><trkpt lat="42.8274656" lon="12.2134832"><ele>775.0</ele><time>2026-04-19T09:56:10.087Z</time></trkpt><trkpt lat="42.8276001" lon="12.2134545"><ele>775.0</ele><time>2026-04-19T09:56:11.067Z</time></trkpt><trkpt lat="42.8277211" lon="12.2134261"><ele>775.0</ele><time>2026-04-19T09:56:12.061Z</time></trkpt><trkpt lat="42.827804" lon="12.2132926"><ele>775.0</ele><time>2026-04-19T09:56:13.07Z</time></trkpt><trkpt lat="42.8277926" lon="12.2131741"><ele>771.25</ele><time>2026-04-19T09:56:14.054Z</time></trkpt><trkpt lat="42.8277387" lon="12.2130582"><ele>767.5</ele><time>2026-04-19T09:56:15.066Z</time></trkpt><trkpt lat="42.8276875" lon="12.2129115"><ele>763.75</ele><time>2026-04-19T09:56:16.064Z</time></trkpt><trkpt lat="42.827677" lon="12.2127121"><ele>760.0</ele><time>2026-04-19T09:56:17.062Z</time></trkpt><trkpt lat="42.8277052" lon="12.2125442"><ele>760.0</ele><time>2026-04-19T09:56:18.06Z</time></trkpt><trkpt lat="42.827735" lon="12.2123961"><ele>760.0</ele><time>2026-04-19T09:56:19.072Z</time></trkpt><trkpt lat="42.8277855" lon="12.2123127"><ele>760.0</ele><time>2026-04-19T09:56:20.065Z</time></trkpt><trkpt lat="42.8278513" lon="12.2122478"><ele>760.0</ele><time>2026-04-19T09:56:21.067Z</time></trkpt><trkpt lat="42.8279622" lon="12.2121887"><ele>760.0</ele><time>2026-04-19T09:56:22.07Z</time></trkpt><trkpt lat="42.8280439" lon="12.2120631"><ele>758.4</ele><time>2026-04-19T09:56:23.074Z</time></trkpt><trkpt lat="42.8280705" lon="12.211909"><ele>756.8</ele><time>2026-04-19T09:56:24.082Z</time></trkpt><trkpt lat="42.8281108" lon="12.2117718"><ele>755.2</ele><time>2026-04-19T09:56:25.066Z</time></trkpt><trkpt lat="42.8281627" lon="12.2116437"><ele>753.6</ele><time>2026-04-19T09:56:26.067Z</time></trkpt><trkpt lat="42.8282206" lon="12.2115935"><ele>752.0</ele><time>2026-04-19T09:56:27.061Z</time></trkpt><trkpt lat="42.828341" lon="12.2116664"><ele>752.0</ele><time>2026-04-19T09:56:29.055Z</time></trkpt><trkpt lat="42.8284064" lon="12.2117485"><ele>752.0</ele><time>2026-04-19T09:56:30.069Z</time></trkpt><trkpt lat="42.828558" lon="12.2118492"><ele>752.0</ele><time>2026-04-19T09:56:31.063Z</time></trkpt><trkpt lat="42.8286915" lon="12.211996"><ele>752.0</ele><time>2026-04-19T09:56:32.06Z</time></trkpt><trkpt lat="42.8288478" lon="12.2121636"><ele>751.0</ele><time>2026-04-19T09:56:33.063Z</time></trkpt><trkpt lat="42.8290283" lon="12.2123585"><ele>750.0</ele><time>2026-04-19T09:56:34.067Z</time></trkpt><trkpt lat="42.8291888" lon="12.2125216"><ele>749.0</ele><time>2026-04-19T09:56:35.059Z</time></trkpt><trkpt lat="42.8293435" lon="12.2126385"><ele>742.0</ele><time>2026-04-19T09:56:36.05Z</time></trkpt><trkpt lat="42.8295262" lon="12.2128245"><ele>735.0</ele><time>2026-04-19T09:56:37.063Z</time></trkpt><trkpt lat="42.8297021" lon="12.2130356"><ele>738.5</ele><time>2026-04-19T09:56:38.062Z</time></trkpt><trkpt lat="42.8299469" lon="12.2133253"><ele>742.0</ele><time>2026-04-19T09:56:39.052Z</time></trkpt><trkpt lat="42.8301425" lon="12.2135652"><ele>735.0</ele><time>2026-04-19T09:56:40.07Z</time></trkpt><trkpt lat="42.8303076" lon="12.2137659"><ele>728.0</ele><time>2026-04-19T09:56:41.047Z</time></trkpt><trkpt lat="42.8304942" lon="12.2138921"><ele>721.0</ele><time>2026-04-19T09:56:42.055Z</time></trkpt><trkpt lat="42.8307251" lon="12.2139418"><ele>722.6666666666667</ele><time>2026-04-19T09:56:43.07Z</time></trkpt><trkpt lat="42.8309451" lon="12.2140029"><ele>724.3333333333334</ele><time>2026-04-19T09:56:44.067Z</time></trkpt><trkpt lat="42.8311426" lon="12.2140595"><ele>726.0</ele><time>2026-04-19T09:56:45.065Z</time></trkpt><trkpt lat="42.8313029" lon="12.2141554"><ele>726.0</ele><time>2026-04-19T09:56:46.063Z</time></trkpt><trkpt lat="42.8314564" lon="12.2142751"><ele>726.0</ele><time>2026-04-19T09:56:47.063Z</time></trkpt><trkpt lat="42.8315454" lon="12.2144694"><ele>726.0</ele><time>2026-04-19T09:56:48.063Z</time></trkpt><trkpt lat="42.8316234" lon="12.2146726"><ele>724.3333333333334</ele><time>2026-04-19T09:56:49.064Z</time></trkpt><trkpt lat="42.8317403" lon="12.2148583"><ele>722.6666666666667</ele><time>2026-04-19T09:56:50.072Z</time></trkpt><trkpt lat="42.8318709" lon="12.2149599"><ele>721.0</ele><time>2026-04-19T09:56:51.066Z</time></trkpt><trkpt lat="42.8320317" lon="12.2149978"><ele>721.0</ele><time>2026-04-19T09:56:52.069Z</time></trkpt><trkpt lat="42.8322303" lon="12.2149711"><ele>721.0</ele><time>2026-04-19T09:56:53.075Z</time></trkpt><trkpt lat="42.8324332" lon="12.2149542"><ele>721.0</ele><time>2026-04-19T09:56:54.073Z</time></trkpt><trkpt lat="42.8326332" lon="12.2149538"><ele>717.3333333333334</ele><time>2026-04-19T09:56:55.065Z</time></trkpt><trkpt lat="42.8328272" lon="12.2149948"><ele>713.6666666666666</ele><time>2026-04-19T09:56:56.071Z</time></trkpt><trkpt lat="42.8330166" lon="12.2150419"><ele>710.0</ele><time>2026-04-19T09:56:57.065Z</time></trkpt><trkpt lat="42.8331699" lon="12.2151022"><ele>710.0</ele><time>2026-04-19T09:56:58.069Z</time></trkpt><trkpt lat="42.8333101" lon="12.2152273"><ele>710.0</ele><time>2026-04-19T09:56:59.067Z</time></trkpt><trkpt lat="42.8334073" lon="12.2154384"><ele>710.0</ele><time>2026-04-19T09:57:00.067Z</time></trkpt><trkpt lat="42.8335211" lon="12.2156652"><ele>704.6666666666666</ele><time>2026-04-19T09:57:01.071Z</time></trkpt><trkpt lat="42.8336375" lon="12.2158894"><ele>699.3333333333334</ele><time>2026-04-19T09:57:02.069Z</time></trkpt><trkpt lat="42.833767" lon="12.216099"><ele>694.0</ele><time>2026-04-19T09:57:03.084Z</time></trkpt><trkpt lat="42.8338861" lon="12.2163287"><ele>697.6666666666667</ele><time>2026-04-19T09:57:04.072Z</time></trkpt><trkpt lat="42.8340002" lon="12.2165439"><ele>701.3333333333334</ele><time>2026-04-19T09:57:05.07Z</time></trkpt><trkpt lat="42.8341078" lon="12.2167795"><ele>705.0</ele><time>2026-04-19T09:57:06.071Z</time></trkpt><trkpt lat="42.8342274" lon="12.217026"><ele>702.0</ele><time>2026-04-19T09:57:07.07Z</time></trkpt><trkpt lat="42.834346" lon="12.2172629"><ele>699.0</ele><time>2026-04-19T09:57:08.07Z</time></trkpt><trkpt lat="42.834471" lon="12.2175081"><ele>696.0</ele><time>2026-04-19T09:57:09.061Z</time></trkpt><trkpt lat="42.8346035" lon="12.2177702"><ele>696.0</ele><time>2026-04-19T09:57:10.082Z</time></trkpt><trkpt lat="42.8347328" lon="12.2180279"><ele>696.0</ele><time>2026-04-19T09:57:11.084Z</time></trkpt><trkpt lat="42.8348534" lon="12.2182994"><ele>698.3333333333334</ele><time>2026-04-19T09:57:12.074Z</time></trkpt><trkpt lat="42.83495" lon="12.2185356"><ele>700.6666666666667</ele><time>2026-04-19T09:57:13.07Z</time></trkpt><trkpt lat="42.8350215" lon="12.21877"><ele>703.0</ele><time>2026-04-19T09:57:14.066Z</time></trkpt><trkpt lat="42.8350656" lon="12.2190267"><ele>705.3333333333334</ele><time>2026-04-19T09:57:15.066Z</time></trkpt><trkpt lat="42.8350871" lon="12.2192731"><ele>707.6666666666666</ele><time>2026-04-19T09:57:16.066Z</time></trkpt><trkpt lat="42.8351096" lon="12.2194836"><ele>710.0</ele><time>2026-04-19T09:57:17.072Z</time></trkpt><trkpt lat="42.8351193" lon="12.2196854"><ele>708.25</ele><time>2026-04-19T09:57:18.074Z</time></trkpt><trkpt lat="42.8351482" lon="12.2198774"><ele>706.5</ele><time>2026-04-19T09:57:19.074Z</time></trkpt><trkpt lat="42.835205" lon="12.2200342"><ele>704.75</ele><time>2026-04-19T09:57:20.062Z</time></trkpt><trkpt lat="42.8353234" lon="12.2201281"><ele>703.0</ele><time>2026-04-19T09:57:21.058Z</time></trkpt><trkpt lat="42.8354389" lon="12.2202354"><ele>703.0</ele><time>2026-04-19T09:57:22.069Z</time></trkpt><trkpt lat="42.8355608" lon="12.2203662"><ele>703.0</ele><time>2026-04-19T09:57:23.069Z</time></trkpt><trkpt lat="42.8356786" lon="12.2205315"><ele>703.0</ele><time>2026-04-19T09:57:24.071Z</time></trkpt><trkpt lat="42.8357895" lon="12.2207215"><ele>706.6666666666667</ele><time>2026-04-19T09:57:25.068Z</time></trkpt><trkpt lat="42.8359041" lon="12.2209159"><ele>710.3333333333334</ele><time>2026-04-19T09:57:26.06Z</time></trkpt><trkpt lat="42.836026" lon="12.2211176"><ele>714.0</ele><time>2026-04-19T09:57:27.076Z</time></trkpt><trkpt lat="42.8361615" lon="12.2213391"><ele>713.0</ele><time>2026-04-19T09:57:28.066Z</time></trkpt><trkpt lat="42.8363062" lon="12.2215942"><ele>712.0</ele><time>2026-04-19T09:57:29.073Z</time></trkpt><trkpt lat="42.8364538" lon="12.2218318"><ele>712.0</ele><time>2026-04-19T09:57:30.087Z</time></trkpt><trkpt lat="42.8366089" lon="12.2220555"><ele>712.0</ele><time>2026-04-19T09:57:31.075Z</time></trkpt><trkpt lat="42.8367726" lon="12.2222786"><ele>716.0</ele><time>2026-04-19T09:57:32.06Z</time></trkpt><trkpt lat="42.8369395" lon="12.2224982"><ele>720.0</ele><time>2026-04-19T09:57:33.069Z</time></trkpt><trkpt lat="42.8371128" lon="12.2227175"><ele>720.0</ele><time>2026-04-19T09:57:34.064Z</time></trkpt><trkpt lat="42.8372755" lon="12.2229416"><ele>720.0</ele><time>2026-04-19T09:57:35.068Z</time></trkpt><trkpt lat="42.837456" lon="12.2231416"><ele>721.5</ele><time>2026-04-19T09:57:36.074Z</time></trkpt><trkpt lat="42.8376413" lon="12.223337"><ele>723.0</ele><time>2026-04-19T09:57:37.083Z</time></trkpt><trkpt lat="42.8378491" lon="12.2234993"><ele>723.0</ele><time>2026-04-19T09:57:38.083Z</time></trkpt><trkpt lat="42.8380725" lon="12.2236525"><ele>723.0</ele><time>2026-04-19T09:57:39.068Z</time></trkpt><trkpt lat="42.8382857" lon="12.2238113"><ele>721.5</ele><time>2026-04-19T09:57:40.069Z</time></trkpt><trkpt lat="42.8385006" lon="12.2239725"><ele>720.0</ele><time>2026-04-19T09:57:41.058Z</time></trkpt><trkpt lat="42.8387191" lon="12.2241378"><ele>720.0</ele><time>2026-04-19T09:57:42.06Z</time></trkpt><trkpt lat="42.8389232" lon="12.2242978"><ele>720.0</ele><time>2026-04-19T09:57:43.078Z</time></trkpt><trkpt lat="42.8391176" lon="12.2244542"><ele>720.6666666666666</ele><time>2026-04-19T09:57:44.058Z</time></trkpt><trkpt lat="42.8393107" lon="12.2246102"><ele>721.3333333333333</ele><time>2026-04-19T09:57:45.061Z</time></trkpt><trkpt lat="42.8394875" lon="12.2247585"><ele>722.0</ele><time>2026-04-19T09:57:46.058Z</time></trkpt><trkpt lat="42.8396627" lon="12.2248957"><ele>724.0</ele><time>2026-04-19T09:57:47.054Z</time></trkpt><trkpt lat="42.8398303" lon="12.2249944"><ele>726.0</ele><time>2026-04-19T09:57:48.063Z</time></trkpt><trkpt lat="42.8399923" lon="12.2250397"><ele>728.0</ele><time>2026-04-19T09:57:49.063Z</time></trkpt><trkpt lat="42.8401752" lon="12.2249646"><ele>725.6666666666666</ele><time>2026-04-19T09:57:50.065Z</time></trkpt><trkpt lat="42.8403439" lon="12.224791"><ele>723.3333333333334</ele><time>2026-04-19T09:57:51.065Z</time></trkpt><trkpt lat="42.8404915" lon="12.2245727"><ele>721.0</ele><time>2026-04-19T09:57:52.057Z</time></trkpt><trkpt lat="42.8406184" lon="12.2243376"><ele>721.0</ele><time>2026-04-19T09:57:53.051Z</time></trkpt><trkpt lat="42.8407373" lon="12.224116"><ele>721.0</ele><time>2026-04-19T09:57:54.069Z</time></trkpt><trkpt lat="42.8408672" lon="12.2239179"><ele>721.0</ele><time>2026-04-19T09:57:55.061Z</time></trkpt><trkpt lat="42.8410197" lon="12.2237327"><ele>718.6666666666667</ele><time>2026-04-19T09:57:56.071Z</time></trkpt><trkpt lat="42.8411798" lon="12.2235786"><ele>716.3333333333334</ele><time>2026-04-19T09:57:57.065Z</time></trkpt><trkpt lat="42.8413375" lon="12.2234531"><ele>714.0</ele><time>2026-04-19T09:57:58.066Z</time></trkpt><trkpt lat="42.8414901" lon="12.2233495"><ele>714.0</ele><time>2026-04-19T09:57:59.076Z</time></trkpt><trkpt lat="42.8416358" lon="12.2232768"><ele>714.0</ele><time>2026-04-19T09:58:00.068Z</time></trkpt><trkpt lat="42.8417759" lon="12.2232594"><ele>714.0</ele><time>2026-04-19T09:58:01.066Z</time></trkpt><trkpt lat="42.8419027" lon="12.2233352"><ele>714.0</ele><time>2026-04-19T09:58:02.059Z</time></trkpt><trkpt lat="42.8420162" lon="12.2234451"><ele>710.3333333333334</ele><time>2026-04-19T09:58:03.068Z</time></trkpt><trkpt lat="42.8421318" lon="12.223549"><ele>706.6666666666667</ele><time>2026-04-19T09:58:04.067Z</time></trkpt><trkpt lat="42.8422724" lon="12.2236814"><ele>703.0</ele><time>2026-04-19T09:58:05.057Z</time></trkpt><trkpt lat="42.8424344" lon="12.2238004"><ele>703.0</ele><time>2026-04-19T09:58:06.057Z</time></trkpt><trkpt lat="42.8426031" lon="12.2239277"><ele>703.0</ele><time>2026-04-19T09:58:07.069Z</time></trkpt><trkpt lat="42.8427535" lon="12.2240575"><ele>703.0</ele><time>2026-04-19T09:58:08.067Z</time></trkpt><trkpt lat="42.8429076" lon="12.2241653"><ele>704.3333333333334</ele><time>2026-04-19T09:58:09.074Z</time></trkpt><trkpt lat="42.8430516" lon="12.2242398"><ele>705.6666666666666</ele><time>2026-04-19T09:58:10.06Z</time></trkpt><trkpt lat="42.8431894" lon="12.2242326"><ele>707.0</ele><time>2026-04-19T09:58:11.066Z</time></trkpt><trkpt lat="42.8433493" lon="12.224142"><ele>708.0</ele><time>2026-04-19T09:58:12.069Z</time></trkpt><trkpt lat="42.8434778" lon="12.2239579"><ele>709.0</ele><time>2026-04-19T09:58:13.068Z</time></trkpt><trkpt lat="42.8435984" lon="12.2237493"><ele>710.0</ele><time>2026-04-19T09:58:14.067Z</time></trkpt><trkpt lat="42.8437256" lon="12.2235498"><ele>710.0</ele><time>2026-04-19T09:58:15.058Z</time></trkpt><trkpt lat="42.8438473" lon="12.2233776"><ele>710.0</ele><time>2026-04-19T09:58:16.069Z</time></trkpt><trkpt lat="42.8439791" lon="12.2232056"><ele>710.0</ele><time>2026-04-19T09:58:17.072Z</time></trkpt><trkpt lat="42.8441014" lon="12.2230766"><ele>710.75</ele><time>2026-04-19T09:58:18.071Z</time></trkpt><trkpt lat="42.8442171" lon="12.2229899"><ele>711.5</ele><time>2026-04-19T09:58:19.069Z</time></trkpt><trkpt lat="42.8443525" lon="12.2229938"><ele>712.25</ele><time>2026-04-19T09:58:20.075Z</time></trkpt><trkpt lat="42.8444912" lon="12.2231422"><ele>713.0</ele><time>2026-04-19T09:58:21.067Z</time></trkpt><trkpt lat="42.8445923" lon="12.2233628"><ele>714.75</ele><time>2026-04-19T09:58:22.079Z</time></trkpt><trkpt lat="42.8447084" lon="12.2235463"><ele>716.5</ele><time>2026-04-19T09:58:23.087Z</time></trkpt><trkpt lat="42.8448201" lon="12.2236711"><ele>718.25</ele><time>2026-04-19T09:58:24.081Z</time></trkpt><trkpt lat="42.8449325" lon="12.2237296"><ele>720.0</ele><time>2026-04-19T09:58:25.058Z</time></trkpt><trkpt lat="42.8450328" lon="12.2237218"><ele>720.0</ele><time>2026-04-19T09:58:26.068Z</time></trkpt><trkpt lat="42.8451134" lon="12.2236464"><ele>720.0</ele><time>2026-04-19T09:58:27.06Z</time></trkpt><trkpt lat="42.8451714" lon="12.2235164"><ele>720.0</ele><time>2026-04-19T09:58:28.051Z</time></trkpt><trkpt lat="42.8451597" lon="12.223315"><ele>720.0</ele><time>2026-04-19T09:58:29.067Z</time></trkpt><trkpt lat="42.8451098" lon="12.2230886"><ele>717.6666666666666</ele><time>2026-04-19T09:58:30.076Z</time></trkpt><trkpt lat="42.8450531" lon="12.2228531"><ele>715.3333333333333</ele><time>2026-04-19T09:58:31.07Z</time></trkpt><trkpt lat="42.8450195" lon="12.2226501"><ele>713.0</ele><time>2026-04-19T09:58:32.066Z</time></trkpt><trkpt lat="42.8450209" lon="12.2224764"><ele>713.0</ele><time>2026-04-19T09:58:33.056Z</time></trkpt><trkpt lat="42.8450489" lon="12.2223323"><ele>713.0</ele><time>2026-04-19T09:58:34.069Z</time></trkpt><trkpt lat="42.8451177" lon="12.2222372"><ele>713.0</ele><time>2026-04-19T09:58:35.066Z</time></trkpt><trkpt lat="42.8452117" lon="12.2221666"><ele>713.0</ele><time>2026-04-19T09:58:36.067Z</time></trkpt><trkpt lat="42.8453488" lon="12.2221466"><ele>712.6666666666666</ele><time>2026-04-19T09:58:37.064Z</time></trkpt><trkpt lat="42.845494" lon="12.2222905"><ele>712.3333333333334</ele><time>2026-04-19T09:58:38.052Z</time></trkpt><trkpt lat="42.8456404" lon="12.2225053"><ele>712.0</ele><time>2026-04-19T09:58:39.049Z</time></trkpt><trkpt lat="42.8458148" lon="12.2227083"><ele>714.0</ele><time>2026-04-19T09:58:40.061Z</time></trkpt><trkpt lat="42.8460041" lon="12.2228586"><ele>716.0</ele><time>2026-04-19T09:58:41.05Z</time></trkpt><trkpt lat="42.8461904" lon="12.2229482"><ele>718.0</ele><time>2026-04-19T09:58:42.062Z</time></trkpt><trkpt lat="42.8463803" lon="12.2229344"><ele>718.0</ele><time>2026-04-19T09:58:43.064Z</time></trkpt><trkpt lat="42.8465376" lon="12.2228507"><ele>718.0</ele><time>2026-04-19T09:58:44.072Z</time></trkpt><trkpt lat="42.846643" lon="12.2226923"><ele>718.0</ele><time>2026-04-19T09:58:45.069Z</time></trkpt><trkpt lat="42.8466742" lon="12.222496"><ele>717.0</ele><time>2026-04-19T09:58:46.067Z</time></trkpt><trkpt lat="42.8466554" lon="12.2222901"><ele>716.0</ele><time>2026-04-19T09:58:47.054Z</time></trkpt><trkpt lat="42.8465904" lon="12.2220926"><ele>715.0</ele><time>2026-04-19T09:58:48.057Z</time></trkpt><trkpt lat="42.8464783" lon="12.2219157"><ele>715.0</ele><time>2026-04-19T09:58:49.068Z</time></trkpt><trkpt lat="42.8463882" lon="12.2217516"><ele>715.0</ele><time>2026-04-19T09:58:50.049Z</time></trkpt><trkpt lat="42.8463716" lon="12.221553"><ele>715.0</ele><time>2026-04-19T09:58:51.068Z</time></trkpt><trkpt lat="42.8464018" lon="12.2213523"><ele>715.0</ele><time>2026-04-19T09:58:52.057Z</time></trkpt><trkpt lat="42.8464277" lon="12.2211828"><ele>713.4</ele><time>2026-04-19T09:58:53.055Z</time></trkpt><trkpt lat="42.8464757" lon="12.2210807"><ele>711.8</ele><time>2026-04-19T09:58:54.056Z</time></trkpt><trkpt lat="42.8465375" lon="12.2209881"><ele>710.2</ele><time>2026-04-19T09:58:55.065Z</time></trkpt><trkpt lat="42.8466262" lon="12.2209605"><ele>708.6</ele><time>2026-04-19T09:58:56.06Z</time></trkpt><trkpt lat="42.8467563" lon="12.2209764"><ele>707.0</ele><time>2026-04-19T09:58:57.069Z</time></trkpt><trkpt lat="42.8469707" lon="12.2210222"><ele>707.0</ele><time>2026-04-19T09:58:58.07Z</time></trkpt><trkpt lat="42.8472246" lon="12.2210966"><ele>707.0</ele><time>2026-04-19T09:58:59.069Z</time></trkpt><trkpt lat="42.847528" lon="12.2212379"><ele>707.0</ele><time>2026-04-19T09:59:00.071Z</time></trkpt><trkpt lat="42.8478496" lon="12.2213693"><ele>707.0</ele><time>2026-04-19T09:59:01.066Z</time></trkpt><trkpt lat="42.8481347" lon="12.2213864"><ele>707.0</ele><time>2026-04-19T09:59:02.062Z</time></trkpt><trkpt lat="42.8484332" lon="12.221363"><ele>707.0</ele><time>2026-04-19T09:59:03.073Z</time></trkpt><trkpt lat="42.8487383" lon="12.2212756"><ele>709.0</ele><time>2026-04-19T09:59:04.068Z</time></trkpt><trkpt lat="42.8490351" lon="12.2211669"><ele>711.0</ele><time>2026-04-19T09:59:05.064Z</time></trkpt><trkpt lat="42.8493317" lon="12.2210602"><ele>711.0</ele><time>2026-04-19T09:59:06.073Z</time></trkpt><trkpt lat="42.8495928" lon="12.2209794"><ele>711.0</ele><time>2026-04-19T09:59:07.07Z</time></trkpt><trkpt lat="42.8498534" lon="12.2208905"><ele>711.0</ele><time>2026-04-19T09:59:08.065Z</time></trkpt><trkpt lat="42.8501116" lon="12.2208184"><ele>711.0</ele><time>2026-04-19T09:59:09.063Z</time></trkpt><trkpt lat="42.8503562" lon="12.2207343"><ele>709.0</ele><time>2026-04-19T09:59:10.071Z</time></trkpt><trkpt lat="42.8505646" lon="12.220611"><ele>707.0</ele><time>2026-04-19T09:59:11.082Z</time></trkpt><trkpt lat="42.8507373" lon="12.2204457"><ele>705.0</ele><time>2026-04-19T09:59:12.093Z</time></trkpt><trkpt lat="42.8508569" lon="12.2202325"><ele>705.0</ele><time>2026-04-19T09:59:13.078Z</time></trkpt><trkpt lat="42.8509117" lon="12.2199949"><ele>705.0</ele><time>2026-04-19T09:59:14.067Z</time></trkpt><trkpt lat="42.8508911" lon="12.2197477"><ele>705.0</ele><time>2026-04-19T09:59:15.07Z</time></trkpt><trkpt lat="42.8508677" lon="12.2195138"><ele>704.6666666666666</ele><time>2026-04-19T09:59:16.08Z</time></trkpt><trkpt lat="42.8508477" lon="12.2192885"><ele>704.3333333333333</ele><time>2026-04-19T09:59:17.079Z</time></trkpt><trkpt lat="42.850846" lon="12.2190688"><ele>704.0</ele><time>2026-04-19T09:59:18.067Z</time></trkpt><trkpt lat="42.8508898" lon="12.2189015"><ele>702.3333333333333</ele><time>2026-04-19T09:59:19.054Z</time></trkpt><trkpt lat="42.8510054" lon="12.2188077"><ele>700.6666666666666</ele><time>2026-04-19T09:59:20.067Z</time></trkpt><trkpt lat="42.8511589" lon="12.2187905"><ele>699.0</ele><time>2026-04-19T09:59:21.055Z</time></trkpt><trkpt lat="42.8513528" lon="12.2188281"><ele>699.0</ele><time>2026-04-19T09:59:22.067Z</time></trkpt><trkpt lat="42.8515674" lon="12.2188861"><ele>699.0</ele><time>2026-04-19T09:59:23.066Z</time></trkpt><trkpt lat="42.8517887" lon="12.2189478"><ele>699.0</ele><time>2026-04-19T09:59:24.071Z</time></trkpt><trkpt lat="42.8520138" lon="12.2190088"><ele>705.5</ele><time>2026-04-19T09:59:25.064Z</time></trkpt><trkpt lat="42.8522497" lon="12.2190797"><ele>712.0</ele><time>2026-04-19T09:59:26.061Z</time></trkpt><trkpt lat="42.8524909" lon="12.2191597"><ele>709.0</ele><time>2026-04-19T09:59:27.072Z</time></trkpt><trkpt lat="42.8527498" lon="12.2192343"><ele>706.0</ele><time>2026-04-19T09:59:28.076Z</time></trkpt><trkpt lat="42.8530148" lon="12.2193046"><ele>706.0</ele><time>2026-04-19T09:59:29.065Z</time></trkpt><trkpt lat="42.8532736" lon="12.2193726"><ele>706.0</ele><time>2026-04-19T09:59:30.078Z</time></trkpt><trkpt lat="42.8535055" lon="12.2194224"><ele>704.6666666666667</ele><time>2026-04-19T09:59:31.072Z</time></trkpt><trkpt lat="42.853702" lon="12.2194615"><ele>703.3333333333334</ele><time>2026-04-19T09:59:32.059Z</time></trkpt><trkpt lat="42.8538485" lon="12.2194839"><ele>702.0</ele><time>2026-04-19T09:59:33.072Z</time></trkpt><trkpt lat="42.8539616" lon="12.2195846"><ele>702.0</ele><time>2026-04-19T09:59:34.063Z</time></trkpt><trkpt lat="42.8540375" lon="12.2197665"><ele>702.0</ele><time>2026-04-19T09:59:35.057Z</time></trkpt><trkpt lat="42.854111" lon="12.2199575"><ele>702.0</ele><time>2026-04-19T09:59:36.061Z</time></trkpt><trkpt lat="42.8541983" lon="12.2201171"><ele>702.6666666666666</ele><time>2026-04-19T09:59:37.057Z</time></trkpt><trkpt lat="42.8543295" lon="12.2202262"><ele>703.3333333333333</ele><time>2026-04-19T09:59:38.064Z</time></trkpt><trkpt lat="42.8544711" lon="12.2203015"><ele>704.0</ele><time>2026-04-19T09:59:39.067Z</time></trkpt><trkpt lat="42.8546651" lon="12.2203373"><ele>704.0</ele><time>2026-04-19T09:59:40.07Z</time></trkpt><trkpt lat="42.8548455" lon="12.2202176"><ele>704.0</ele><time>2026-04-19T09:59:41.071Z</time></trkpt><trkpt lat="42.8550288" lon="12.22012"><ele>704.0</ele><time>2026-04-19T09:59:42.062Z</time></trkpt><trkpt lat="42.8551551" lon="12.2199298"><ele>702.0</ele><time>2026-04-19T09:59:43.066Z</time></trkpt><trkpt lat="42.8553379" lon="12.2198206"><ele>700.0</ele><time>2026-04-19T09:59:44.063Z</time></trkpt><trkpt lat="42.8555171" lon="12.2198256"><ele>698.0</ele><time>2026-04-19T09:59:45.056Z</time></trkpt><trkpt lat="42.8556979" lon="12.2198556"><ele>698.0</ele><time>2026-04-19T09:59:46.052Z</time></trkpt><trkpt lat="42.8558336" lon="12.2198888"><ele>698.0</ele><time>2026-04-19T09:59:47.074Z</time></trkpt><trkpt lat="42.8559611" lon="12.2199448"><ele>698.0</ele><time>2026-04-19T09:59:48.051Z</time></trkpt><trkpt lat="42.8561066" lon="12.2200445"><ele>698.0</ele><time>2026-04-19T09:59:49.062Z</time></trkpt><trkpt lat="42.8562031" lon="12.2202351"><ele>695.3333333333333</ele><time>2026-04-19T09:59:50.075Z</time></trkpt><trkpt lat="42.8562549" lon="12.2204656"><ele>692.6666666666666</ele><time>2026-04-19T09:59:51.059Z</time></trkpt><trkpt lat="42.8563457" lon="12.2206706"><ele>690.0</ele><time>2026-04-19T09:59:52.079Z</time></trkpt><trkpt lat="42.8564675" lon="12.2207922"><ele>690.0</ele><time>2026-04-19T09:59:53.056Z</time></trkpt><trkpt lat="42.8566013" lon="12.2208039"><ele>690.0</ele><time>2026-04-19T09:59:54.058Z</time></trkpt><trkpt lat="42.8567116" lon="12.220751"><ele>690.0</ele><time>2026-04-19T09:59:55.069Z</time></trkpt><trkpt lat="42.8568454" lon="12.2206216"><ele>690.0</ele><time>2026-04-19T09:59:56.063Z</time></trkpt><trkpt lat="42.8569371" lon="12.2204386"><ele>689.3333333333334</ele><time>2026-04-19T09:59:57.079Z</time></trkpt><trkpt lat="42.8570091" lon="12.2202371"><ele>688.6666666666667</ele><time>2026-04-19T09:59:58.079Z</time></trkpt><trkpt lat="42.8570899" lon="12.2200927"><ele>688.0</ele><time>2026-04-19T09:59:59.064Z</time></trkpt><trkpt lat="42.85723" lon="12.2199912"><ele>688.0</ele><time>2026-04-19T10:00:00.072Z</time></trkpt><trkpt lat="42.8573786" lon="12.2199564"><ele>688.0</ele><time>2026-04-19T10:00:01.075Z</time></trkpt><trkpt lat="42.8575145" lon="12.2199654"><ele>688.0</ele><time>2026-04-19T10:00:02.054Z</time></trkpt><trkpt lat="42.857634" lon="12.2199878"><ele>688.0</ele><time>2026-04-19T10:00:03.054Z</time></trkpt><trkpt lat="42.857733" lon="12.2200286"><ele>687.75</ele><time>2026-04-19T10:00:04.057Z</time></trkpt><trkpt lat="42.8578268" lon="12.2200573"><ele>687.5</ele><time>2026-04-19T10:00:05.055Z</time></trkpt><trkpt lat="42.8578662" lon="12.2201757"><ele>687.25</ele><time>2026-04-19T10:00:06.055Z</time></trkpt><trkpt lat="42.8579405" lon="12.2203243"><ele>687.0</ele><time>2026-04-19T10:00:07.091Z</time></trkpt><trkpt lat="42.8579541" lon="12.2205148"><ele>686.3333333333334</ele><time>2026-04-19T10:00:08.068Z</time></trkpt><trkpt lat="42.8579107" lon="12.2207688"><ele>685.6666666666667</ele><time>2026-04-19T10:00:09.066Z</time></trkpt><trkpt lat="42.8577974" lon="12.2210571"><ele>685.0</ele><time>2026-04-19T10:00:10.082Z</time></trkpt><trkpt lat="42.8576655" lon="12.2214357"><ele>683.6666666666667</ele><time>2026-04-19T10:00:11.071Z</time></trkpt><trkpt lat="42.8575694" lon="12.2217276"><ele>682.3333333333334</ele><time>2026-04-19T10:00:12.065Z</time></trkpt><trkpt lat="42.8575333" lon="12.2219274"><ele>681.0</ele><time>2026-04-19T10:00:13.091Z</time></trkpt><trkpt lat="42.8575422" lon="12.2221153"><ele>681.0</ele><time>2026-04-19T10:00:14.068Z</time></trkpt><trkpt lat="42.8575916" lon="12.2222163"><ele>681.0</ele><time>2026-04-19T10:00:15.073Z</time></trkpt><trkpt lat="42.8576552" lon="12.22231"><ele>681.0</ele><time>2026-04-19T10:00:16.06Z</time></trkpt><trkpt lat="42.8577566" lon="12.2223612"><ele>681.0</ele><time>2026-04-19T10:00:17.06Z</time></trkpt><trkpt lat="42.857859" lon="12.2223375"><ele>681.0</ele><time>2026-04-19T10:00:18.063Z</time></trkpt><trkpt lat="42.8579643" lon="12.2222972"><ele>678.25</ele><time>2026-04-19T10:00:19.065Z</time></trkpt><trkpt lat="42.8580699" lon="12.2221883"><ele>675.5</ele><time>2026-04-19T10:00:20.061Z</time></trkpt><trkpt lat="42.8581562" lon="12.2220302"><ele>672.75</ele><time>2026-04-19T10:00:21.067Z</time></trkpt><trkpt lat="42.8582238" lon="12.2218718"><ele>670.0</ele><time>2026-04-19T10:00:22.075Z</time></trkpt><trkpt lat="42.8583018" lon="12.2216943"><ele>670.0</ele><time>2026-04-19T10:00:23.066Z</time></trkpt><trkpt lat="42.8583912" lon="12.2215748"><ele>670.0</ele><time>2026-04-19T10:00:24.064Z</time></trkpt><trkpt lat="42.8584738" lon="12.2214614"><ele>670.0</ele><time>2026-04-19T10:00:25.064Z</time></trkpt><trkpt lat="42.8585771" lon="12.2214053"><ele>670.0</ele><time>2026-04-19T10:00:26.061Z</time></trkpt><trkpt lat="42.8586491" lon="12.2214103"><ele>670.0</ele><time>2026-04-19T10:00:27.066Z</time></trkpt><trkpt lat="42.8587619" lon="12.2214609"><ele>670.25</ele><time>2026-04-19T10:00:28.067Z</time></trkpt><trkpt lat="42.8588656" lon="12.2215605"><ele>670.5</ele><time>2026-04-19T10:00:29.059Z</time></trkpt><trkpt lat="42.858977" lon="12.2216002"><ele>670.75</ele><time>2026-04-19T10:00:30.064Z</time></trkpt><trkpt lat="42.8590795" lon="12.221577"><ele>671.0</ele><time>2026-04-19T10:00:31.063Z</time></trkpt><trkpt lat="42.859175" lon="12.2215204"><ele>671.0</ele><time>2026-04-19T10:00:32.068Z</time></trkpt><trkpt lat="42.859281" lon="12.2214868"><ele>671.0</ele><time>2026-04-19T10:00:33.061Z</time></trkpt><trkpt lat="42.8593916" lon="12.2214455"><ele>671.0</ele><time>2026-04-19T10:00:34.065Z</time></trkpt><trkpt lat="42.8594959" lon="12.2214298"><ele>671.0</ele><time>2026-04-19T10:00:35.06Z</time></trkpt><trkpt lat="42.8596131" lon="12.221455"><ele>671.0</ele><time>2026-04-19T10:00:36.066Z</time></trkpt><trkpt lat="42.85977" lon="12.2215591"><ele>672.3333333333333</ele><time>2026-04-19T10:00:37.076Z</time></trkpt><trkpt lat="42.8598746" lon="12.2217155"><ele>673.6666666666666</ele><time>2026-04-19T10:00:38.069Z</time></trkpt><trkpt lat="42.8600301" lon="12.2218658"><ele>675.0</ele><time>2026-04-19T10:00:39.07Z</time></trkpt><trkpt lat="42.8602064" lon="12.221972"><ele>677.0</ele><time>2026-04-19T10:00:40.065Z</time></trkpt><trkpt lat="42.860396" lon="12.2220335"><ele>679.0</ele><time>2026-04-19T10:00:41.08Z</time></trkpt><trkpt lat="42.8607563" lon="12.2220292"><ele>679.0</ele><time>2026-04-19T10:00:43.074Z</time></trkpt><trkpt lat="42.8609466" lon="12.222058"><ele>679.0</ele><time>2026-04-19T10:00:44.079Z</time></trkpt><trkpt lat="42.8611103" lon="12.2221152"><ele>679.0</ele><time>2026-04-19T10:00:45.058Z</time></trkpt><trkpt lat="42.8612737" lon="12.2222861"><ele>678.3333333333334</ele><time>2026-04-19T10:00:46.056Z</time></trkpt><trkpt lat="42.8614209" lon="12.2224692"><ele>677.6666666666666</ele><time>2026-04-19T10:00:47.056Z</time></trkpt><trkpt lat="42.8615758" lon="12.2226161"><ele>677.0</ele><time>2026-04-19T10:00:48.07Z</time></trkpt><trkpt lat="42.8617165" lon="12.2227126"><ele>678.0</ele><time>2026-04-19T10:00:49.058Z</time></trkpt><trkpt lat="42.8618755" lon="12.2227342"><ele>679.0</ele><time>2026-04-19T10:00:50.067Z</time></trkpt><trkpt lat="42.8620476" lon="12.2226943"><ele>680.0</ele><time>2026-04-19T10:00:51.067Z</time></trkpt><trkpt lat="42.8621938" lon="12.222697"><ele>680.0</ele><time>2026-04-19T10:00:52.067Z</time></trkpt><trkpt lat="42.8623516" lon="12.2227918"><ele>680.0</ele><time>2026-04-19T10:00:53.064Z</time></trkpt><trkpt lat="42.8625313" lon="12.2229079"><ele>680.0</ele><time>2026-04-19T10:00:54.078Z</time></trkpt><trkpt lat="42.8626909" lon="12.2230772"><ele>668.0</ele><time>2026-04-19T10:00:55.069Z</time></trkpt><trkpt lat="42.8628487" lon="12.2232791"><ele>656.0</ele><time>2026-04-19T10:00:56.071Z</time></trkpt><trkpt lat="42.8629386" lon="12.2234428"><ele>644.0</ele><time>2026-04-19T10:00:57.074Z</time></trkpt><trkpt lat="42.8630661" lon="12.2235309"><ele>644.0</ele><time>2026-04-19T10:00:58.064Z</time></trkpt><trkpt lat="42.8631226" lon="12.2236305"><ele>644.0</ele><time>2026-04-19T10:00:59.07Z</time></trkpt><trkpt lat="42.8632212" lon="12.223551"><ele>644.0</ele><time>2026-04-19T10:01:00.071Z</time></trkpt><trkpt lat="42.8633311" lon="12.2234809"><ele>644.0</ele><time>2026-04-19T10:01:01.065Z</time></trkpt><trkpt lat="42.8634341" lon="12.2234007"><ele>644.0</ele><time>2026-04-19T10:01:02.071Z</time></trkpt><trkpt lat="42.8635513" lon="12.2233424"><ele>643.0</ele><time>2026-04-19T10:01:03.062Z</time></trkpt><trkpt lat="42.8636485" lon="12.2233083"><ele>642.0</ele><time>2026-04-19T10:01:04.08Z</time></trkpt><trkpt lat="42.8638055" lon="12.2233245"><ele>641.0</ele><time>2026-04-19T10:01:05.074Z</time></trkpt><trkpt lat="42.8639975" lon="12.2233567"><ele>641.0</ele><time>2026-04-19T10:01:06.062Z</time></trkpt><trkpt lat="42.8642058" lon="12.2234377"><ele>641.0</ele><time>2026-04-19T10:01:07.063Z</time></trkpt><trkpt lat="42.8644122" lon="12.2235405"><ele>641.0</ele><time>2026-04-19T10:01:08.086Z</time></trkpt><trkpt lat="42.8646322" lon="12.2236443"><ele>642.5</ele><time>2026-04-19T10:01:09.072Z</time></trkpt><trkpt lat="42.8647976" lon="12.2238308"><ele>644.0</ele><time>2026-04-19T10:01:10.085Z</time></trkpt><trkpt lat="42.8649567" lon="12.2240951"><ele>645.0</ele><time>2026-04-19T10:01:11.069Z</time></trkpt><trkpt lat="42.8650758" lon="12.2243458"><ele>646.0</ele><time>2026-04-19T10:01:12.059Z</time></trkpt><trkpt lat="42.8651674" lon="12.2246147"><ele>647.0</ele><time>2026-04-19T10:01:13.064Z</time></trkpt><trkpt lat="42.8652375" lon="12.2249301"><ele>647.0</ele><time>2026-04-19T10:01:14.081Z</time></trkpt><trkpt lat="42.8652703" lon="12.2251847"><ele>647.0</ele><time>2026-04-19T10:01:15.077Z</time></trkpt><trkpt lat="42.8653065" lon="12.2254414"><ele>647.0</ele><time>2026-04-19T10:01:16.061Z</time></trkpt><trkpt lat="42.8653841" lon="12.2256308"><ele>641.5</ele><time>2026-04-19T10:01:17.062Z</time></trkpt><trkpt lat="42.8654795" lon="12.2257686"><ele>636.0</ele><time>2026-04-19T10:01:18.057Z</time></trkpt><trkpt lat="42.8655774" lon="12.2258765"><ele>630.5</ele><time>2026-04-19T10:01:19.056Z</time></trkpt><trkpt lat="42.8656921" lon="12.2258987"><ele>625.0</ele><time>2026-04-19T10:01:20.072Z</time></trkpt><trkpt lat="42.8658202" lon="12.2258632"><ele>624.6666666666667</ele><time>2026-04-19T10:01:21.069Z</time></trkpt><trkpt lat="42.8659667" lon="12.2258415"><ele>624.3333333333334</ele><time>2026-04-19T10:01:22.086Z</time></trkpt><trkpt lat="42.8661199" lon="12.2258195"><ele>624.0</ele><time>2026-04-19T10:01:23.082Z</time></trkpt><trkpt lat="42.8662738" lon="12.2258025"><ele>624.0</ele><time>2026-04-19T10:01:24.069Z</time></trkpt><trkpt lat="42.8664381" lon="12.2258121"><ele>624.0</ele><time>2026-04-19T10:01:25.062Z</time></trkpt><trkpt lat="42.8666021" lon="12.2258774"><ele>624.0</ele><time>2026-04-19T10:01:26.067Z</time></trkpt><trkpt lat="42.8667391" lon="12.2260039"><ele>626.0</ele><time>2026-04-19T10:01:27.055Z</time></trkpt><trkpt lat="42.8668163" lon="12.2261922"><ele>628.0</ele><time>2026-04-19T10:01:28.049Z</time></trkpt><trkpt lat="42.8668462" lon="12.2264199"><ele>630.0</ele><time>2026-04-19T10:01:29.066Z</time></trkpt><trkpt lat="42.8668843" lon="12.2266346"><ele>630.0</ele><time>2026-04-19T10:01:30.071Z</time></trkpt><trkpt lat="42.866876" lon="12.226899"><ele>630.0</ele><time>2026-04-19T10:01:31.06Z</time></trkpt><trkpt lat="42.8668213" lon="12.2271411"><ele>630.0</ele><time>2026-04-19T10:01:32.057Z</time></trkpt><trkpt lat="42.8667921" lon="12.2274202"><ele>626.6666666666666</ele><time>2026-04-19T10:01:33.067Z</time></trkpt><trkpt lat="42.8667766" lon="12.2277028"><ele>623.3333333333333</ele><time>2026-04-19T10:01:34.069Z</time></trkpt><trkpt lat="42.8667899" lon="12.2279669"><ele>620.0</ele><time>2026-04-19T10:01:35.056Z</time></trkpt><trkpt lat="42.8668298" lon="12.2282253"><ele>614.3333333333333</ele><time>2026-04-19T10:01:36.061Z</time></trkpt><trkpt lat="42.8668967" lon="12.2284323"><ele>608.6666666666666</ele><time>2026-04-19T10:01:37.077Z</time></trkpt><trkpt lat="42.8669809" lon="12.2286259"><ele>603.0</ele><time>2026-04-19T10:01:38.06Z</time></trkpt><trkpt lat="42.8670859" lon="12.2287734"><ele>603.0</ele><time>2026-04-19T10:01:39.066Z</time></trkpt><trkpt lat="42.8671721" lon="12.2289174"><ele>603.0</ele><time>2026-04-19T10:01:40.058Z</time></trkpt><trkpt lat="42.8672442" lon="12.2290297"><ele>603.0</ele><time>2026-04-19T10:01:41.071Z</time></trkpt><trkpt lat="42.8673062" lon="12.2291315"><ele>603.0</ele><time>2026-04-19T10:01:42.081Z</time></trkpt><trkpt lat="42.8673703" lon="12.229204"><ele>603.0</ele><time>2026-04-19T10:01:43.066Z</time></trkpt><trkpt lat="42.8674609" lon="12.2292835"><ele>600.75</ele><time>2026-04-19T10:01:45.052Z</time></trkpt><trkpt lat="42.8675804" lon="12.2293312"><ele>598.5</ele><time>2026-04-19T10:01:47.065Z</time></trkpt><trkpt lat="42.867682" lon="12.22928"><ele>596.25</ele><time>2026-04-19T10:01:48.06Z</time></trkpt><trkpt lat="42.8678369" lon="12.229233"><ele>594.0</ele><time>2026-04-19T10:01:49.08Z</time></trkpt><trkpt lat="42.867962" lon="12.2290851"><ele>592.6666666666666</ele><time>2026-04-19T10:01:50.074Z</time></trkpt><trkpt lat="42.8680941" lon="12.2289931"><ele>591.3333333333333</ele><time>2026-04-19T10:01:51.058Z</time></trkpt><trkpt lat="42.868244" lon="12.2288767"><ele>590.0</ele><time>2026-04-19T10:01:52.058Z</time></trkpt><trkpt lat="42.8683956" lon="12.2287719"><ele>589.0</ele><time>2026-04-19T10:01:53.061Z</time></trkpt><trkpt lat="42.868553" lon="12.2286581"><ele>588.0</ele><time>2026-04-19T10:01:54.058Z</time></trkpt><trkpt lat="42.8687108" lon="12.2285325"><ele>587.0</ele><time>2026-04-19T10:01:55.047Z</time></trkpt><trkpt lat="42.8689" lon="12.2285066"><ele>587.0</ele><time>2026-04-19T10:01:56.072Z</time></trkpt><trkpt lat="42.8690877" lon="12.2284395"><ele>587.0</ele><time>2026-04-19T10:01:57.065Z</time></trkpt><trkpt lat="42.8693058" lon="12.2283726"><ele>587.0</ele><time>2026-04-19T10:01:58.062Z</time></trkpt><trkpt lat="42.8695219" lon="12.2282585"><ele>596.5</ele><time>2026-04-19T10:01:59.059Z</time></trkpt><trkpt lat="42.8697636" lon="12.2280917"><ele>606.0</ele><time>2026-04-19T10:02:00.058Z</time></trkpt><trkpt lat="42.869978" lon="12.2279136"><ele>603.0</ele><time>2026-04-19T10:02:01.065Z</time></trkpt><trkpt lat="42.8701496" lon="12.2276932"><ele>600.0</ele><time>2026-04-19T10:02:02.068Z</time></trkpt><trkpt lat="42.8702959" lon="12.2274938"><ele>597.0</ele><time>2026-04-19T10:02:03.076Z</time></trkpt><trkpt lat="42.8704286" lon="12.2273233"><ele>602.3333333333334</ele><time>2026-04-19T10:02:04.07Z</time></trkpt><trkpt lat="42.8705569" lon="12.2271663"><ele>607.6666666666667</ele><time>2026-04-19T10:02:05.058Z</time></trkpt><trkpt lat="42.8707262" lon="12.227124"><ele>613.0</ele><time>2026-04-19T10:02:06.066Z</time></trkpt><trkpt lat="42.8708996" lon="12.2271357"><ele>615.6666666666667</ele><time>2026-04-19T10:02:07.071Z</time></trkpt><trkpt lat="42.8710779" lon="12.2271804"><ele>618.3333333333334</ele><time>2026-04-19T10:02:08.062Z</time></trkpt><trkpt lat="42.8712599" lon="12.2272317"><ele>621.0</ele><time>2026-04-19T10:02:09.065Z</time></trkpt><trkpt lat="42.8714351" lon="12.2272464"><ele>621.0</ele><time>2026-04-19T10:02:10.074Z</time></trkpt><trkpt lat="42.8716314" lon="12.2272271"><ele>621.0</ele><time>2026-04-19T10:02:11.062Z</time></trkpt><trkpt lat="42.8718364" lon="12.2271951"><ele>621.0</ele><time>2026-04-19T10:02:12.081Z</time></trkpt><trkpt lat="42.8720537" lon="12.2271715"><ele>622.3333333333334</ele><time>2026-04-19T10:02:13.084Z</time></trkpt><trkpt lat="42.8722249" lon="12.2272064"><ele>623.6666666666667</ele><time>2026-04-19T10:02:14.063Z</time></trkpt><trkpt lat="42.8724018" lon="12.2273065"><ele>625.0</ele><time>2026-04-19T10:02:15.062Z</time></trkpt><trkpt lat="42.8725452" lon="12.2274307"><ele>617.6666666666667</ele><time>2026-04-19T10:02:16.068Z</time></trkpt><trkpt lat="42.8726784" lon="12.2275197"><ele>610.3333333333334</ele><time>2026-04-19T10:02:17.064Z</time></trkpt><trkpt lat="42.8728351" lon="12.2275466"><ele>603.0</ele><time>2026-04-19T10:02:18.063Z</time></trkpt><trkpt lat="42.8730161" lon="12.2275351"><ele>603.0</ele><time>2026-04-19T10:02:19.062Z</time></trkpt><trkpt lat="42.87318" lon="12.2274916"><ele>603.0</ele><time>2026-04-19T10:02:20.06Z</time></trkpt><trkpt lat="42.8733403" lon="12.227481"><ele>603.0</ele><time>2026-04-19T10:02:21.063Z</time></trkpt><trkpt lat="42.8734829" lon="12.2274641"><ele>602.75</ele><time>2026-04-19T10:02:22.075Z</time></trkpt><trkpt lat="42.8736279" lon="12.2275055"><ele>602.5</ele><time>2026-04-19T10:02:23.06Z</time></trkpt><trkpt lat="42.8737579" lon="12.2276079"><ele>602.25</ele><time>2026-04-19T10:02:24.066Z</time></trkpt><trkpt lat="42.8738708" lon="12.2276925"><ele>602.0</ele><time>2026-04-19T10:02:25.074Z</time></trkpt><trkpt lat="42.8739747" lon="12.2277793"><ele>602.0</ele><time>2026-04-19T10:02:26.061Z</time></trkpt><trkpt lat="42.8741018" lon="12.2278117"><ele>602.0</ele><time>2026-04-19T10:02:27.063Z</time></trkpt><trkpt lat="42.8742313" lon="12.2278433"><ele>602.0</ele><time>2026-04-19T10:02:28.077Z</time></trkpt><trkpt lat="42.8743828" lon="12.2278042"><ele>602.0</ele><time>2026-04-19T10:02:29.062Z</time></trkpt><trkpt lat="42.8745243" lon="12.2277054"><ele>601.6666666666666</ele><time>2026-04-19T10:02:30.06Z</time></trkpt><trkpt lat="42.874648" lon="12.2275576"><ele>601.3333333333334</ele><time>2026-04-19T10:02:31.069Z</time></trkpt><trkpt lat="42.8747508" lon="12.2273955"><ele>601.0</ele><time>2026-04-19T10:02:32.055Z</time></trkpt><trkpt lat="42.8748575" lon="12.227296"><ele>601.5</ele><time>2026-04-19T10:02:33.055Z</time></trkpt><trkpt lat="42.8749697" lon="12.2272341"><ele>602.0</ele><time>2026-04-19T10:02:34.068Z</time></trkpt><trkpt lat="42.8750923" lon="12.227186"><ele>602.5</ele><time>2026-04-19T10:02:35.07Z</time></trkpt><trkpt lat="42.8751983" lon="12.2271403"><ele>603.0</ele><time>2026-04-19T10:02:36.07Z</time></trkpt><trkpt lat="42.8752886" lon="12.2271042"><ele>601.6</ele><time>2026-04-19T10:02:37.065Z</time></trkpt><trkpt lat="42.8753753" lon="12.227073"><ele>600.1999999999999</ele><time>2026-04-19T10:02:38.074Z</time></trkpt><trkpt lat="42.875455" lon="12.227023"><ele>598.8</ele><time>2026-04-19T10:02:39.078Z</time></trkpt><trkpt lat="42.8755105" lon="12.226939"><ele>597.4</ele><time>2026-04-19T10:02:40.058Z</time></trkpt><trkpt lat="42.8755224" lon="12.2268192"><ele>596.0</ele><time>2026-04-19T10:02:41.062Z</time></trkpt><trkpt lat="42.8755049" lon="12.2266795"><ele>596.0</ele><time>2026-04-19T10:02:42.063Z</time></trkpt><trkpt lat="42.875466" lon="12.226528"><ele>596.0</ele><time>2026-04-19T10:02:43.067Z</time></trkpt><trkpt lat="42.8753969" lon="12.2263445"><ele>596.0</ele><time>2026-04-19T10:02:44.066Z</time></trkpt><trkpt lat="42.8753357" lon="12.2261447"><ele>596.0</ele><time>2026-04-19T10:02:45.071Z</time></trkpt><trkpt lat="42.8752684" lon="12.2259077"><ele>594.3333333333333</ele><time>2026-04-19T10:02:46.06Z</time></trkpt><trkpt lat="42.8752294" lon="12.2256498"><ele>592.6666666666666</ele><time>2026-04-19T10:02:47.063Z</time></trkpt><trkpt lat="42.8751931" lon="12.2253934"><ele>591.0</ele><time>2026-04-19T10:02:48.072Z</time></trkpt><trkpt lat="42.8751382" lon="12.2251641"><ele>592.5</ele><time>2026-04-19T10:02:49.078Z</time></trkpt><trkpt lat="42.875077" lon="12.2249727"><ele>594.0</ele><time>2026-04-19T10:02:50.056Z</time></trkpt><trkpt lat="42.8749954" lon="12.2248533"><ele>595.5</ele><time>2026-04-19T10:02:51.067Z</time></trkpt><trkpt lat="42.874897" lon="12.2247795"><ele>597.0</ele><time>2026-04-19T10:02:52.064Z</time></trkpt><trkpt lat="42.8747594" lon="12.224792"><ele>597.0</ele><time>2026-04-19T10:02:53.062Z</time></trkpt><trkpt lat="42.8746284" lon="12.2248958"><ele>597.0</ele><time>2026-04-19T10:02:54.071Z</time></trkpt><trkpt lat="42.8744905" lon="12.2250144"><ele>597.0</ele><time>2026-04-19T10:02:55.072Z</time></trkpt><trkpt lat="42.8743257" lon="12.2250903"><ele>598.0</ele><time>2026-04-19T10:02:56.063Z</time></trkpt><trkpt lat="42.8741522" lon="12.2251333"><ele>599.0</ele><time>2026-04-19T10:02:57.061Z</time></trkpt><trkpt lat="42.8739777" lon="12.2251002"><ele>600.0</ele><time>2026-04-19T10:02:58.069Z</time></trkpt><trkpt lat="42.8738032" lon="12.2250472"><ele>600.0</ele><time>2026-04-19T10:02:59.071Z</time></trkpt><trkpt lat="42.8736175" lon="12.2249736"><ele>600.0</ele><time>2026-04-19T10:03:00.069Z</time></trkpt><trkpt lat="42.8734576" lon="12.2248373"><ele>600.0</ele><time>2026-04-19T10:03:01.058Z</time></trkpt><trkpt lat="42.8732934" lon="12.2247284"><ele>596.5</ele><time>2026-04-19T10:03:02.09Z</time></trkpt><trkpt lat="42.8731103" lon="12.2245915"><ele>593.0</ele><time>2026-04-19T10:03:03.056Z</time></trkpt><trkpt lat="42.8729032" lon="12.2243992"><ele>593.0</ele><time>2026-04-19T10:03:04.07Z</time></trkpt><trkpt lat="42.8727192" lon="12.2242265"><ele>593.0</ele><time>2026-04-19T10:03:05.051Z</time></trkpt><trkpt lat="42.8725812" lon="12.2239607"><ele>591.5</ele><time>2026-04-19T10:03:06.083Z</time></trkpt><trkpt lat="42.8724659" lon="12.223708"><ele>590.0</ele><time>2026-04-19T10:03:07.065Z</time></trkpt><trkpt lat="42.8723024" lon="12.2234717"><ele>590.0</ele><time>2026-04-19T10:03:08.073Z</time></trkpt><trkpt lat="42.8721171" lon="12.2232755"><ele>590.0</ele><time>2026-04-19T10:03:09.064Z</time></trkpt><trkpt lat="42.8718767" lon="12.223157"><ele>588.0</ele><time>2026-04-19T10:03:10.079Z</time></trkpt><trkpt lat="42.8716361" lon="12.2230517"><ele>586.0</ele><time>2026-04-19T10:03:11.096Z</time></trkpt><trkpt lat="42.8714131" lon="12.222962"><ele>586.0</ele><time>2026-04-19T10:03:12.071Z</time></trkpt><trkpt lat="42.8712048" lon="12.2228905"><ele>586.0</ele><time>2026-04-19T10:03:13.067Z</time></trkpt><trkpt lat="42.8710365" lon="12.222813"><ele>586.0</ele><time>2026-04-19T10:03:14.063Z</time></trkpt><trkpt lat="42.8709199" lon="12.2227046"><ele>585.75</ele><time>2026-04-19T10:03:15.068Z</time></trkpt><trkpt lat="42.8708546" lon="12.2225638"><ele>585.5</ele><time>2026-04-19T10:03:16.053Z</time></trkpt><trkpt lat="42.8708645" lon="12.2223801"><ele>585.25</ele><time>2026-04-19T10:03:17.058Z</time></trkpt><trkpt lat="42.8709651" lon="12.2221725"><ele>585.0</ele><time>2026-04-19T10:03:18.072Z</time></trkpt><trkpt lat="42.8710724" lon="12.2219766"><ele>585.0</ele><time>2026-04-19T10:03:19.086Z</time></trkpt><trkpt lat="42.8711383" lon="12.221762"><ele>585.0</ele><time>2026-04-19T10:03:20.074Z</time></trkpt><trkpt lat="42.8711618" lon="12.2215908"><ele>585.0</ele><time>2026-04-19T10:03:21.054Z</time></trkpt><trkpt lat="42.8711154" lon="12.2214302"><ele>585.0</ele><time>2026-04-19T10:03:22.07Z</time></trkpt><trkpt lat="42.8710266" lon="12.2212998"><ele>590.25</ele><time>2026-04-19T10:03:23.06Z</time></trkpt><trkpt lat="42.8709364" lon="12.2211682"><ele>595.5</ele><time>2026-04-19T10:03:24.067Z</time></trkpt><trkpt lat="42.8708683" lon="12.2210024"><ele>600.75</ele><time>2026-04-19T10:03:25.064Z</time></trkpt><trkpt lat="42.8708098" lon="12.2208024"><ele>606.0</ele><time>2026-04-19T10:03:26.056Z</time></trkpt><trkpt lat="42.8708268" lon="12.2205273"><ele>608.3333333333334</ele><time>2026-04-19T10:03:27.066Z</time></trkpt><trkpt lat="42.8709408" lon="12.2202724"><ele>610.6666666666667</ele><time>2026-04-19T10:03:28.066Z</time></trkpt><trkpt lat="42.8710719" lon="12.2200668"><ele>613.0</ele><time>2026-04-19T10:03:29.058Z</time></trkpt><trkpt lat="42.8711823" lon="12.2198888"><ele>607.4</ele><time>2026-04-19T10:03:30.068Z</time></trkpt><trkpt lat="42.8712729" lon="12.2197524"><ele>601.8</ele><time>2026-04-19T10:03:31.075Z</time></trkpt><trkpt lat="42.8713017" lon="12.2196215"><ele>596.2</ele><time>2026-04-19T10:03:32.067Z</time></trkpt><trkpt lat="42.8712642" lon="12.2194886"><ele>590.6</ele><time>2026-04-19T10:03:33.071Z</time></trkpt><trkpt lat="42.8712051" lon="12.2193636"><ele>585.0</ele><time>2026-04-19T10:03:34.066Z</time></trkpt><trkpt lat="42.8711483" lon="12.2192116"><ele>585.0</ele><time>2026-04-19T10:03:35.07Z</time></trkpt><trkpt lat="42.8711168" lon="12.2190273"><ele>585.0</ele><time>2026-04-19T10:03:36.059Z</time></trkpt><trkpt lat="42.8711431" lon="12.2188153"><ele>585.0</ele><time>2026-04-19T10:03:37.076Z</time></trkpt><trkpt lat="42.8711783" lon="12.2186049"><ele>586.3333333333334</ele><time>2026-04-19T10:03:38.059Z</time></trkpt><trkpt lat="42.8712228" lon="12.2183893"><ele>587.6666666666667</ele><time>2026-04-19T10:03:39.066Z</time></trkpt><trkpt lat="42.8712587" lon="12.2181759"><ele>589.0</ele><time>2026-04-19T10:03:40.075Z</time></trkpt><trkpt lat="42.8713089" lon="12.2179607"><ele>591.0</ele><time>2026-04-19T10:03:41.067Z</time></trkpt><trkpt lat="42.871371" lon="12.2177388"><ele>593.0</ele><time>2026-04-19T10:03:42.088Z</time></trkpt><trkpt lat="42.8714432" lon="12.2175098"><ele>595.0</ele><time>2026-04-19T10:03:43.072Z</time></trkpt><trkpt lat="42.8715225" lon="12.2172671"><ele>598.6666666666667</ele><time>2026-04-19T10:03:44.071Z</time></trkpt><trkpt lat="42.8716164" lon="12.216999"><ele>602.3333333333334</ele><time>2026-04-19T10:03:45.07Z</time></trkpt><trkpt lat="42.8717231" lon="12.2167473"><ele>606.0</ele><time>2026-04-19T10:03:46.071Z</time></trkpt><trkpt lat="42.8718369" lon="12.2165065"><ele>599.3333333333334</ele><time>2026-04-19T10:03:47.062Z</time></trkpt><trkpt lat="42.8719774" lon="12.2162948"><ele>592.6666666666667</ele><time>2026-04-19T10:03:48.068Z</time></trkpt><trkpt lat="42.8721061" lon="12.2161234"><ele>586.0</ele><time>2026-04-19T10:03:49.075Z</time></trkpt><trkpt lat="42.8722264" lon="12.2159996"><ele>586.0</ele><time>2026-04-19T10:03:50.061Z</time></trkpt><trkpt lat="42.8723156" lon="12.2158659"><ele>586.0</ele><time>2026-04-19T10:03:51.088Z</time></trkpt><trkpt lat="42.8723372" lon="12.2156978"><ele>586.0</ele><time>2026-04-19T10:03:52.058Z</time></trkpt><trkpt lat="42.8723364" lon="12.2154962"><ele>586.0</ele><time>2026-04-19T10:03:53.085Z</time></trkpt><trkpt lat="42.8722882" lon="12.2152846"><ele>586.25</ele><time>2026-04-19T10:03:54.073Z</time></trkpt><trkpt lat="42.8722716" lon="12.2150849"><ele>586.5</ele><time>2026-04-19T10:03:55.065Z</time></trkpt><trkpt lat="42.8722899" lon="12.2148981"><ele>586.75</ele><time>2026-04-19T10:03:56.072Z</time></trkpt><trkpt lat="42.8723675" lon="12.2147411"><ele>587.0</ele><time>2026-04-19T10:03:57.072Z</time></trkpt><trkpt lat="42.8725028" lon="12.2146346"><ele>586.25</ele><time>2026-04-19T10:03:58.054Z</time></trkpt><trkpt lat="42.8726052" lon="12.2145415"><ele>585.5</ele><time>2026-04-19T10:03:59.063Z</time></trkpt><trkpt lat="42.8727009" lon="12.2144135"><ele>584.75</ele><time>2026-04-19T10:04:00.051Z</time></trkpt><trkpt lat="42.8727262" lon="12.2142807"><ele>584.0</ele><time>2026-04-19T10:04:01.065Z</time></trkpt><trkpt lat="42.8727059" lon="12.2141567"><ele>581.5</ele><time>2026-04-19T10:04:02.075Z</time></trkpt><trkpt lat="42.8726418" lon="12.2140343"><ele>579.0</ele><time>2026-04-19T10:04:03.068Z</time></trkpt><trkpt lat="42.8725134" lon="12.2139131"><ele>576.5</ele><time>2026-04-19T10:04:04.082Z</time></trkpt><trkpt lat="42.8724098" lon="12.2137079"><ele>574.0</ele><time>2026-04-19T10:04:05.055Z</time></trkpt><trkpt lat="42.8723084" lon="12.2134589"><ele>574.0</ele><time>2026-04-19T10:04:06.069Z</time></trkpt><trkpt lat="42.8722053" lon="12.2132034"><ele>574.0</ele><time>2026-04-19T10:04:07.079Z</time></trkpt><trkpt lat="42.8721215" lon="12.2129532"><ele>574.0</ele><time>2026-04-19T10:04:08.064Z</time></trkpt><trkpt lat="42.872031" lon="12.2127016"><ele>575.0</ele><time>2026-04-19T10:04:09.069Z</time></trkpt><trkpt lat="42.8719478" lon="12.2124681"><ele>576.0</ele><time>2026-04-19T10:04:10.065Z</time></trkpt><trkpt lat="42.8718875" lon="12.2122444"><ele>577.0</ele><time>2026-04-19T10:04:11.068Z</time></trkpt><trkpt lat="42.8718651" lon="12.212057"><ele>577.0</ele><time>2026-04-19T10:04:12.057Z</time></trkpt><trkpt lat="42.8719179" lon="12.2118904"><ele>577.0</ele><time>2026-04-19T10:04:13.09Z</time></trkpt><trkpt lat="42.8720292" lon="12.2117971"><ele>577.0</ele><time>2026-04-19T10:04:14.067Z</time></trkpt><trkpt lat="42.8721613" lon="12.2116995"><ele>577.0</ele><time>2026-04-19T10:04:15.06Z</time></trkpt><trkpt lat="42.8723136" lon="12.2116439"><ele>577.0</ele><time>2026-04-19T10:04:16.081Z</time></trkpt><trkpt lat="42.872488" lon="12.211582"><ele>577.0</ele><time>2026-04-19T10:04:17.059Z</time></trkpt><trkpt lat="42.8726908" lon="12.211565"><ele>577.0</ele><time>2026-04-19T10:04:18.062Z</time></trkpt><trkpt lat="42.8728981" lon="12.2115523"><ele>575.3333333333334</ele><time>2026-04-19T10:04:19.074Z</time></trkpt><trkpt lat="42.8731212" lon="12.2115308"><ele>573.6666666666666</ele><time>2026-04-19T10:04:20.052Z</time></trkpt><trkpt lat="42.8733371" lon="12.2114924"><ele>572.0</ele><time>2026-04-19T10:04:21.069Z</time></trkpt><trkpt lat="42.8735283" lon="12.2114136"><ele>569.5</ele><time>2026-04-19T10:04:22.054Z</time></trkpt><trkpt lat="42.8736897" lon="12.2113356"><ele>567.0</ele><time>2026-04-19T10:04:23.065Z</time></trkpt><trkpt lat="42.873811" lon="12.2112552"><ele>564.5</ele><time>2026-04-19T10:04:24.052Z</time></trkpt><trkpt lat="42.8739072" lon="12.2111158"><ele>562.0</ele><time>2026-04-19T10:04:25.057Z</time></trkpt><trkpt lat="42.8739383" lon="12.2109069"><ele>562.0</ele><time>2026-04-19T10:04:26.055Z</time></trkpt><trkpt lat="42.8739266" lon="12.2106726"><ele>562.0</ele><time>2026-04-19T10:04:27.061Z</time></trkpt><trkpt lat="42.8739297" lon="12.2104391"><ele>562.0</ele><time>2026-04-19T10:04:28.068Z</time></trkpt><trkpt lat="42.8739864" lon="12.2102338"><ele>562.6666666666667</ele><time>2026-04-19T10:04:29.054Z</time></trkpt><trkpt lat="42.8740815" lon="12.2100574"><ele>563.3333333333334</ele><time>2026-04-19T10:04:30.068Z</time></trkpt><trkpt lat="42.874207" lon="12.2099312"><ele>564.0</ele><time>2026-04-19T10:04:31.064Z</time></trkpt><trkpt lat="42.8743664" lon="12.2098932"><ele>560.75</ele><time>2026-04-19T10:04:32.058Z</time></trkpt><trkpt lat="42.8745135" lon="12.2098531"><ele>557.5</ele><time>2026-04-19T10:04:33.059Z</time></trkpt><trkpt lat="42.8746147" lon="12.2097625"><ele>554.25</ele><time>2026-04-19T10:04:34.067Z</time></trkpt><trkpt lat="42.8746909" lon="12.2096252"><ele>551.0</ele><time>2026-04-19T10:04:35.068Z</time></trkpt><trkpt lat="42.8746779" lon="12.2094762"><ele>549.6666666666666</ele><time>2026-04-19T10:04:36.069Z</time></trkpt><trkpt lat="42.8746261" lon="12.2092927"><ele>548.3333333333334</ele><time>2026-04-19T10:04:37.07Z</time></trkpt><trkpt lat="42.8744735" lon="12.2091855"><ele>547.0</ele><time>2026-04-19T10:04:38.084Z</time></trkpt><trkpt lat="42.8742779" lon="12.2090937"><ele>549.3333333333334</ele><time>2026-04-19T10:04:39.057Z</time></trkpt><trkpt lat="42.8740791" lon="12.2090138"><ele>551.6666666666666</ele><time>2026-04-19T10:04:40.066Z</time></trkpt><trkpt lat="42.8738914" lon="12.2088973"><ele>554.0</ele><time>2026-04-19T10:04:41.062Z</time></trkpt><trkpt lat="42.8737053" lon="12.208757"><ele>552.5</ele><time>2026-04-19T10:04:42.063Z</time></trkpt><trkpt lat="42.873556" lon="12.2085354"><ele>551.0</ele><time>2026-04-19T10:04:43.049Z</time></trkpt><trkpt lat="42.8734216" lon="12.2082669"><ele>544.0</ele><time>2026-04-19T10:04:44.071Z</time></trkpt><trkpt lat="42.8732621" lon="12.2079954"><ele>537.0</ele><time>2026-04-19T10:04:45.067Z</time></trkpt><trkpt lat="42.8730956" lon="12.2077293"><ele>537.0</ele><time>2026-04-19T10:04:46.068Z</time></trkpt><trkpt lat="42.8729429" lon="12.2074766"><ele>537.0</ele><time>2026-04-19T10:04:47.079Z</time></trkpt><trkpt lat="42.8727999" lon="12.2072334"><ele>535.3333333333334</ele><time>2026-04-19T10:04:48.086Z</time></trkpt><trkpt lat="42.8726784" lon="12.2070182"><ele>533.6666666666667</ele><time>2026-04-19T10:04:49.087Z</time></trkpt><trkpt lat="42.8725866" lon="12.2067844"><ele>532.0</ele><time>2026-04-19T10:04:50.089Z</time></trkpt><trkpt lat="42.8725778" lon="12.2065094"><ele>525.5</ele><time>2026-04-19T10:04:51.081Z</time></trkpt><trkpt lat="42.8726403" lon="12.2062273"><ele>519.0</ele><time>2026-04-19T10:04:52.082Z</time></trkpt><trkpt lat="42.8727368" lon="12.2059239"><ele>518.0</ele><time>2026-04-19T10:04:53.063Z</time></trkpt><trkpt lat="42.8728444" lon="12.205585"><ele>517.0</ele><time>2026-04-19T10:04:54.086Z</time></trkpt><trkpt lat="42.8729539" lon="12.2052209"><ele>517.0</ele><time>2026-04-19T10:04:55.066Z</time></trkpt><trkpt lat="42.8730892" lon="12.204863"><ele>517.0</ele><time>2026-04-19T10:04:56.057Z</time></trkpt><trkpt lat="42.8732438" lon="12.2044941"><ele>516.0</ele><time>2026-04-19T10:04:57.078Z</time></trkpt><trkpt lat="42.8734106" lon="12.2041251"><ele>515.0</ele><time>2026-04-19T10:04:58.062Z</time></trkpt><trkpt lat="42.873575" lon="12.2037484"><ele>511.5</ele><time>2026-04-19T10:04:59.078Z</time></trkpt><trkpt lat="42.8737433" lon="12.203373"><ele>508.0</ele><time>2026-04-19T10:05:00.079Z</time></trkpt><trkpt lat="42.8739036" lon="12.202996"><ele>508.0</ele><time>2026-04-19T10:05:01.093Z</time></trkpt><trkpt lat="42.874066" lon="12.2026381"><ele>508.0</ele><time>2026-04-19T10:05:02.086Z</time></trkpt><trkpt lat="42.8742416" lon="12.2022711"><ele>508.0</ele><time>2026-04-19T10:05:03.08Z</time></trkpt><trkpt lat="42.8744194" lon="12.2019029"><ele>508.0</ele><time>2026-04-19T10:05:04.084Z</time></trkpt><trkpt lat="42.8745993" lon="12.2015558"><ele>509.0</ele><time>2026-04-19T10:05:05.057Z</time></trkpt><trkpt lat="42.8747653" lon="12.2012298"><ele>510.0</ele><time>2026-04-19T10:05:06.072Z</time></trkpt><trkpt lat="42.8749197" lon="12.2009304"><ele>510.0</ele><time>2026-04-19T10:05:07.078Z</time></trkpt><trkpt lat="42.8750642" lon="12.2006587"><ele>510.0</ele><time>2026-04-19T10:05:08.058Z</time></trkpt><trkpt lat="42.8751943" lon="12.2003862"><ele>512.0</ele><time>2026-04-19T10:05:09.084Z</time></trkpt><trkpt lat="42.8753168" lon="12.2001238"><ele>514.0</ele><time>2026-04-19T10:05:10.067Z</time></trkpt><trkpt lat="42.8754397" lon="12.1998634"><ele>512.0</ele><time>2026-04-19T10:05:11.063Z</time></trkpt><trkpt lat="42.8755424" lon="12.1995657"><ele>510.0</ele><time>2026-04-19T10:05:12.084Z</time></trkpt><trkpt lat="42.87562" lon="12.199242"><ele>509.0</ele><time>2026-04-19T10:05:13.068Z</time></trkpt><trkpt lat="42.8756777" lon="12.1989003"><ele>508.0</ele><time>2026-04-19T10:05:14.075Z</time></trkpt><trkpt lat="42.8757267" lon="12.1985597"><ele>508.0</ele><time>2026-04-19T10:05:15.081Z</time></trkpt><trkpt lat="42.8757423" lon="12.1982416"><ele>508.0</ele><time>2026-04-19T10:05:16.081Z</time></trkpt><trkpt lat="42.8757293" lon="12.1979488"><ele>508.0</ele><time>2026-04-19T10:05:17.071Z</time></trkpt><trkpt lat="42.8756627" lon="12.1976648"><ele>507.0</ele><time>2026-04-19T10:05:18.092Z</time></trkpt><trkpt lat="42.8755475" lon="12.1973521"><ele>506.0</ele><time>2026-04-19T10:05:19.072Z</time></trkpt><trkpt lat="42.8754314" lon="12.1970245"><ele>501.5</ele><time>2026-04-19T10:05:20.071Z</time></trkpt><trkpt lat="42.8753195" lon="12.1966791"><ele>497.0</ele><time>2026-04-19T10:05:21.08Z</time></trkpt><trkpt lat="42.8752043" lon="12.1963458"><ele>497.5</ele><time>2026-04-19T10:05:22.079Z</time></trkpt><trkpt lat="42.8751029" lon="12.1960249"><ele>498.0</ele><time>2026-04-19T10:05:23.076Z</time></trkpt><trkpt lat="42.8749924" lon="12.1957286"><ele>497.5</ele><time>2026-04-19T10:05:24.081Z</time></trkpt><trkpt lat="42.8748884" lon="12.1954433"><ele>497.0</ele><time>2026-04-19T10:05:25.061Z</time></trkpt><trkpt lat="42.8748056" lon="12.1951484"><ele>497.0</ele><time>2026-04-19T10:05:26.072Z</time></trkpt><trkpt lat="42.8748211" lon="12.1948414"><ele>497.0</ele><time>2026-04-19T10:05:27.061Z</time></trkpt><trkpt lat="42.8749019" lon="12.1945586"><ele>497.0</ele><time>2026-04-19T10:05:28.067Z</time></trkpt><trkpt lat="42.8750002" lon="12.1943064"><ele>497.66666666666663</ele><time>2026-04-19T10:05:29.062Z</time></trkpt><trkpt lat="42.8750803" lon="12.1940567"><ele>498.33333333333337</ele><time>2026-04-19T10:05:30.055Z</time></trkpt><trkpt lat="42.8751058" lon="12.1937752"><ele>499.0</ele><time>2026-04-19T10:05:31.071Z</time></trkpt><trkpt lat="42.8751147" lon="12.1934685"><ele>496.0</ele><time>2026-04-19T10:05:32.089Z</time></trkpt><trkpt lat="42.8751067" lon="12.1931572"><ele>493.0</ele><time>2026-04-19T10:05:33.059Z</time></trkpt><trkpt lat="42.8751013" lon="12.1928453"><ele>493.0</ele><time>2026-04-19T10:05:34.069Z</time></trkpt><trkpt lat="42.875084" lon="12.1925509"><ele>493.0</ele><time>2026-04-19T10:05:35.062Z</time></trkpt><trkpt lat="42.8750503" lon="12.1922662"><ele>493.0</ele><time>2026-04-19T10:05:36.057Z</time></trkpt><trkpt lat="42.8749957" lon="12.191995"><ele>490.6666666666667</ele><time>2026-04-19T10:05:37.08Z</time></trkpt><trkpt lat="42.8749213" lon="12.1917364"><ele>488.33333333333337</ele><time>2026-04-19T10:05:38.064Z</time></trkpt><trkpt lat="42.8748097" lon="12.1915024"><ele>486.0</ele><time>2026-04-19T10:05:39.061Z</time></trkpt><trkpt lat="42.8747224" lon="12.1912754"><ele>483.0</ele><time>2026-04-19T10:05:40.066Z</time></trkpt><trkpt lat="42.8746587" lon="12.1910416"><ele>480.0</ele><time>2026-04-19T10:05:41.064Z</time></trkpt><trkpt lat="42.8746968" lon="12.1907718"><ele>477.0</ele><time>2026-04-19T10:05:42.061Z</time></trkpt><trkpt lat="42.8747851" lon="12.1904836"><ele>474.5</ele><time>2026-04-19T10:05:43.065Z</time></trkpt><trkpt lat="42.874907" lon="12.1901892"><ele>472.0</ele><time>2026-04-19T10:05:44.064Z</time></trkpt><trkpt lat="42.8750533" lon="12.1898894"><ele>472.0</ele><time>2026-04-19T10:05:45.081Z</time></trkpt><trkpt lat="42.8752164" lon="12.1895646"><ele>472.0</ele><time>2026-04-19T10:05:46.074Z</time></trkpt><trkpt lat="42.8753808" lon="12.1892586"><ele>474.5</ele><time>2026-04-19T10:05:47.068Z</time></trkpt><trkpt lat="42.8755535" lon="12.188963"><ele>477.0</ele><time>2026-04-19T10:05:48.071Z</time></trkpt><trkpt lat="42.8757303" lon="12.18869"><ele>477.0</ele><time>2026-04-19T10:05:49.08Z</time></trkpt><trkpt lat="42.8758905" lon="12.1884132"><ele>477.0</ele><time>2026-04-19T10:05:50.077Z</time></trkpt><trkpt lat="42.8760269" lon="12.188101"><ele>473.5</ele><time>2026-04-19T10:05:51.064Z</time></trkpt><trkpt lat="42.8761484" lon="12.1877946"><ele>470.0</ele><time>2026-04-19T10:05:52.064Z</time></trkpt><trkpt lat="42.8762571" lon="12.1875131"><ele>472.3333333333333</ele><time>2026-04-19T10:05:53.077Z</time></trkpt><trkpt lat="42.8763712" lon="12.1872516"><ele>474.66666666666663</ele><time>2026-04-19T10:05:54.058Z</time></trkpt><trkpt lat="42.8765085" lon="12.1870197"><ele>477.0</ele><time>2026-04-19T10:05:55.071Z</time></trkpt><trkpt lat="42.876662" lon="12.1868282"><ele>471.0</ele><time>2026-04-19T10:05:56.072Z</time></trkpt><trkpt lat="42.8768359" lon="12.186674"><ele>465.0</ele><time>2026-04-19T10:05:57.059Z</time></trkpt><trkpt lat="42.8769974" lon="12.1865223"><ele>459.0</ele><time>2026-04-19T10:05:58.074Z</time></trkpt><trkpt lat="42.8771214" lon="12.1863309"><ele>459.0</ele><time>2026-04-19T10:05:59.059Z</time></trkpt><trkpt lat="42.8772291" lon="12.1861027"><ele>459.0</ele><time>2026-04-19T10:06:00.079Z</time></trkpt><trkpt lat="42.8773425" lon="12.1859067"><ele>459.0</ele><time>2026-04-19T10:06:01.058Z</time></trkpt><trkpt lat="42.8774623" lon="12.185737"><ele>457.66666666666663</ele><time>2026-04-19T10:06:02.06Z</time></trkpt><trkpt lat="42.8775884" lon="12.1856022"><ele>456.3333333333333</ele><time>2026-04-19T10:06:03.062Z</time></trkpt><trkpt lat="42.8777301" lon="12.1855549"><ele>455.0</ele><time>2026-04-19T10:06:04.064Z</time></trkpt><trkpt lat="42.8779262" lon="12.1855941"><ele>450.0</ele><time>2026-04-19T10:06:05.057Z</time></trkpt><trkpt lat="42.8781159" lon="12.1857699"><ele>445.0</ele><time>2026-04-19T10:06:06.065Z</time></trkpt><trkpt lat="42.8783105" lon="12.1859306"><ele>442.5</ele><time>2026-04-19T10:06:07.074Z</time></trkpt><trkpt lat="42.8785523" lon="12.1861208"><ele>440.0</ele><time>2026-04-19T10:06:08.064Z</time></trkpt><trkpt lat="42.8788079" lon="12.1862167"><ele>440.0</ele><time>2026-04-19T10:06:09.072Z</time></trkpt><trkpt lat="42.8790722" lon="12.1863124"><ele>440.0</ele><time>2026-04-19T10:06:10.067Z</time></trkpt><trkpt lat="42.8793502" lon="12.186386"><ele>439.5</ele><time>2026-04-19T10:06:11.078Z</time></trkpt><trkpt lat="42.8796479" lon="12.1864359"><ele>439.0</ele><time>2026-04-19T10:06:12.075Z</time></trkpt><trkpt lat="42.8799612" lon="12.1864442"><ele>438.0</ele><time>2026-04-19T10:06:13.082Z</time></trkpt><trkpt lat="42.8802769" lon="12.1864012"><ele>437.0</ele><time>2026-04-19T10:06:14.084Z</time></trkpt><trkpt lat="42.8806108" lon="12.186333"><ele>436.5</ele><time>2026-04-19T10:06:15.062Z</time></trkpt><trkpt lat="42.8809395" lon="12.1862474"><ele>436.0</ele><time>2026-04-19T10:06:16.058Z</time></trkpt><trkpt lat="42.8812619" lon="12.1861721"><ele>436.0</ele><time>2026-04-19T10:06:17.061Z</time></trkpt><trkpt lat="42.881575" lon="12.1861074"><ele>436.0</ele><time>2026-04-19T10:06:18.059Z</time></trkpt><trkpt lat="42.8818744" lon="12.1860455"><ele>436.5</ele><time>2026-04-19T10:06:19.063Z</time></trkpt><trkpt lat="42.8821552" lon="12.1859807"><ele>437.0</ele><time>2026-04-19T10:06:20.074Z</time></trkpt><trkpt lat="42.8824208" lon="12.1859228"><ele>437.5</ele><time>2026-04-19T10:06:21.073Z</time></trkpt><trkpt lat="42.8826748" lon="12.1858788"><ele>438.0</ele><time>2026-04-19T10:06:22.062Z</time></trkpt><trkpt lat="42.8829299" lon="12.1858189"><ele>438.0</ele><time>2026-04-19T10:06:23.058Z</time></trkpt><trkpt lat="42.8831768" lon="12.1857547"><ele>438.0</ele><time>2026-04-19T10:06:24.092Z</time></trkpt><trkpt lat="42.8834299" lon="12.1856648"><ele>434.5</ele><time>2026-04-19T10:06:25.071Z</time></trkpt><trkpt lat="42.8836679" lon="12.1855633"><ele>431.0</ele><time>2026-04-19T10:06:26.05Z</time></trkpt><trkpt lat="42.8838862" lon="12.185447"><ele>431.0</ele><time>2026-04-19T10:06:27.059Z</time></trkpt><trkpt lat="42.884094" lon="12.1853459"><ele>431.0</ele><time>2026-04-19T10:06:28.07Z</time></trkpt><trkpt lat="42.8842971" lon="12.1852528"><ele>431.0</ele><time>2026-04-19T10:06:29.059Z</time></trkpt><trkpt lat="42.8844991" lon="12.1852051"><ele>432.0</ele><time>2026-04-19T10:06:30.067Z</time></trkpt><trkpt lat="42.8846861" lon="12.1851779"><ele>433.0</ele><time>2026-04-19T10:06:31.058Z</time></trkpt><trkpt lat="42.8848766" lon="12.1851909"><ele>434.0</ele><time>2026-04-19T10:06:32.067Z</time></trkpt><trkpt lat="42.885097" lon="12.1852738"><ele>431.0</ele><time>2026-04-19T10:06:33.064Z</time></trkpt><trkpt lat="42.885329" lon="12.1854234"><ele>428.0</ele><time>2026-04-19T10:06:34.067Z</time></trkpt><trkpt lat="42.8855335" lon="12.1854971"><ele>428.0</ele><time>2026-04-19T10:06:35.062Z</time></trkpt><trkpt lat="42.885748" lon="12.1855237"><ele>428.0</ele><time>2026-04-19T10:06:36.063Z</time></trkpt><trkpt lat="42.885954" lon="12.1854884"><ele>428.0</ele><time>2026-04-19T10:06:37.083Z</time></trkpt><trkpt lat="42.8861394" lon="12.185431"><ele>426.0</ele><time>2026-04-19T10:06:38.078Z</time></trkpt><trkpt lat="42.8863008" lon="12.1853391"><ele>424.0</ele><time>2026-04-19T10:06:39.078Z</time></trkpt><trkpt lat="42.8864296" lon="12.185186"><ele>422.0</ele><time>2026-04-19T10:06:40.069Z</time></trkpt><trkpt lat="42.8865246" lon="12.185064"><ele>422.0</ele><time>2026-04-19T10:06:41.088Z</time></trkpt><trkpt lat="42.8866246" lon="12.1849846"><ele>422.0</ele><time>2026-04-19T10:06:42.067Z</time></trkpt><trkpt lat="42.8867242" lon="12.1849673"><ele>422.0</ele><time>2026-04-19T10:06:43.053Z</time></trkpt><trkpt lat="42.8868189" lon="12.1849601"><ele>422.0</ele><time>2026-04-19T10:06:44.074Z</time></trkpt><trkpt lat="42.8869248" lon="12.1849644"><ele>422.0</ele><time>2026-04-19T10:06:45.06Z</time></trkpt><trkpt lat="42.8870314" lon="12.1849572"><ele>420.25</ele><time>2026-04-19T10:06:46.066Z</time></trkpt><trkpt lat="42.8871606" lon="12.1849634"><ele>418.5</ele><time>2026-04-19T10:06:47.07Z</time></trkpt><trkpt lat="42.8872853" lon="12.1849563"><ele>416.75</ele><time>2026-04-19T10:06:48.062Z</time></trkpt><trkpt lat="42.8874171" lon="12.1849706"><ele>415.0</ele><time>2026-04-19T10:06:49.07Z</time></trkpt><trkpt lat="42.8875536" lon="12.1850153"><ele>410.33333333333337</ele><time>2026-04-19T10:06:50.077Z</time></trkpt><trkpt lat="42.8876988" lon="12.1850954"><ele>405.66666666666663</ele><time>2026-04-19T10:06:51.065Z</time></trkpt><trkpt lat="42.8878329" lon="12.1852303"><ele>401.0</ele><time>2026-04-19T10:06:52.065Z</time></trkpt><trkpt lat="42.8879775" lon="12.1853532"><ele>401.0</ele><time>2026-04-19T10:06:53.06Z</time></trkpt><trkpt lat="42.8881448" lon="12.1854297"><ele>401.0</ele><time>2026-04-19T10:06:54.066Z</time></trkpt><trkpt lat="42.8883179" lon="12.1854365"><ele>401.0</ele><time>2026-04-19T10:06:55.077Z</time></trkpt><trkpt lat="42.8884617" lon="12.1853958"><ele>392.5</ele><time>2026-04-19T10:06:56.07Z</time></trkpt><trkpt lat="42.8887798" lon="12.1854117"><ele>384.0</ele><time>2026-04-19T10:06:58.055Z</time></trkpt><trkpt lat="42.8888894" lon="12.1855285"><ele>384.0</ele><time>2026-04-19T10:06:59.07Z</time></trkpt><trkpt lat="42.8889785" lon="12.1856654"><ele>384.0</ele><time>2026-04-19T10:07:00.062Z</time></trkpt><trkpt lat="42.8890696" lon="12.1858617"><ele>384.0</ele><time>2026-04-19T10:07:01.06Z</time></trkpt><trkpt lat="42.8891278" lon="12.1860833"><ele>383.0</ele><time>2026-04-19T10:07:02.058Z</time></trkpt><trkpt lat="42.8892041" lon="12.1863215"><ele>382.0</ele><time>2026-04-19T10:07:03.064Z</time></trkpt><trkpt lat="42.8893167" lon="12.1864946"><ele>381.0</ele><time>2026-04-19T10:07:04.07Z</time></trkpt><trkpt lat="42.8894659" lon="12.1865822"><ele>381.0</ele><time>2026-04-19T10:07:05.071Z</time></trkpt><trkpt lat="42.8896279" lon="12.1866056"><ele>381.0</ele><time>2026-04-19T10:07:06.051Z</time></trkpt><trkpt lat="42.8897707" lon="12.1865534"><ele>381.0</ele><time>2026-04-19T10:07:07.072Z</time></trkpt><trkpt lat="42.8898727" lon="12.1864448"><ele>381.0</ele><time>2026-04-19T10:07:08.07Z</time></trkpt><trkpt lat="42.889942" lon="12.186278"><ele>379.75</ele><time>2026-04-19T10:07:09.061Z</time></trkpt><trkpt lat="42.8899993" lon="12.1861109"><ele>378.5</ele><time>2026-04-19T10:07:10.061Z</time></trkpt><trkpt lat="42.8900074" lon="12.1859455"><ele>377.25</ele><time>2026-04-19T10:07:11.069Z</time></trkpt><trkpt lat="42.8899566" lon="12.1857977"><ele>376.0</ele><time>2026-04-19T10:07:12.062Z</time></trkpt><trkpt lat="42.8898185" lon="12.1857313"><ele>370.0</ele><time>2026-04-19T10:07:13.058Z</time></trkpt><trkpt lat="42.889679" lon="12.1856438"><ele>364.0</ele><time>2026-04-19T10:07:14.055Z</time></trkpt><trkpt lat="42.8895422" lon="12.18554"><ele>358.0</ele><time>2026-04-19T10:07:15.067Z</time></trkpt><trkpt lat="42.8894148" lon="12.185408"><ele>358.0</ele><time>2026-04-19T10:07:16.068Z</time></trkpt><trkpt lat="42.8893322" lon="12.1851977"><ele>358.0</ele><time>2026-04-19T10:07:17.071Z</time></trkpt><trkpt lat="42.8892461" lon="12.1850053"><ele>358.0</ele><time>2026-04-19T10:07:18.084Z</time></trkpt><trkpt lat="42.8891767" lon="12.1847791"><ele>359.66666666666663</ele><time>2026-04-19T10:07:19.067Z</time></trkpt><trkpt lat="42.8890647" lon="12.1846067"><ele>361.3333333333333</ele><time>2026-04-19T10:07:20.074Z</time></trkpt><trkpt lat="42.8889188" lon="12.1844709"><ele>363.0</ele><time>2026-04-19T10:07:21.056Z</time></trkpt><trkpt lat="42.8887512" lon="12.1843949"><ele>363.0</ele><time>2026-04-19T10:07:22.058Z</time></trkpt><trkpt lat="42.8886183" lon="12.1843201"><ele>363.0</ele><time>2026-04-19T10:07:23.056Z</time></trkpt><trkpt lat="42.8885101" lon="12.1841711"><ele>363.0</ele><time>2026-04-19T10:07:24.059Z</time></trkpt><trkpt lat="42.888437" lon="12.1839228"><ele>363.6666666666667</ele><time>2026-04-19T10:07:25.071Z</time></trkpt><trkpt lat="42.8883966" lon="12.183665"><ele>364.33333333333337</ele><time>2026-04-19T10:07:26.085Z</time></trkpt><trkpt lat="42.8883423" lon="12.1833656"><ele>365.0</ele><time>2026-04-19T10:07:27.058Z</time></trkpt><trkpt lat="42.8882619" lon="12.1830653"><ele>357.5</ele><time>2026-04-19T10:07:28.071Z</time></trkpt><trkpt lat="42.8881256" lon="12.1827567"><ele>350.0</ele><time>2026-04-19T10:07:29.061Z</time></trkpt><trkpt lat="42.8879369" lon="12.182498"><ele>350.5</ele><time>2026-04-19T10:07:30.063Z</time></trkpt><trkpt lat="42.8877238" lon="12.1822592"><ele>351.0</ele><time>2026-04-19T10:07:31.072Z</time></trkpt><trkpt lat="42.887536" lon="12.1820498"><ele>351.0</ele><time>2026-04-19T10:07:32.067Z</time></trkpt><trkpt lat="42.8873759" lon="12.1818238"><ele>351.0</ele><time>2026-04-19T10:07:33.06Z</time></trkpt><trkpt lat="42.8872514" lon="12.1815686"><ele>346.0</ele><time>2026-04-19T10:07:34.066Z</time></trkpt><trkpt lat="42.8871785" lon="12.1812444"><ele>341.0</ele><time>2026-04-19T10:07:35.064Z</time></trkpt><trkpt lat="42.8871689" lon="12.1809084"><ele>340.5</ele><time>2026-04-19T10:07:36.069Z</time></trkpt><trkpt lat="42.8872208" lon="12.1805469"><ele>340.0</ele><time>2026-04-19T10:07:37.066Z</time></trkpt><trkpt lat="42.8873075" lon="12.1801859"><ele>340.0</ele><time>2026-04-19T10:07:38.063Z</time></trkpt><trkpt lat="42.8874355" lon="12.1798327"><ele>340.0</ele><time>2026-04-19T10:07:39.07Z</time></trkpt><trkpt lat="42.8875895" lon="12.1794666"><ele>340.0</ele><time>2026-04-19T10:07:40.067Z</time></trkpt><trkpt lat="42.8877674" lon="12.1791287"><ele>340.0</ele><time>2026-04-19T10:07:41.065Z</time></trkpt><trkpt lat="42.8879619" lon="12.1788126"><ele>342.5</ele><time>2026-04-19T10:07:42.063Z</time></trkpt><trkpt lat="42.8881693" lon="12.1785139"><ele>345.0</ele><time>2026-04-19T10:07:43.073Z</time></trkpt><trkpt lat="42.8883929" lon="12.1782428"><ele>345.5</ele><time>2026-04-19T10:07:44.07Z</time></trkpt><trkpt lat="42.8886366" lon="12.1779836"><ele>346.0</ele><time>2026-04-19T10:07:45.062Z</time></trkpt><trkpt lat="42.8888922" lon="12.1777499"><ele>346.0</ele><time>2026-04-19T10:07:46.066Z</time></trkpt><trkpt lat="42.889159" lon="12.177519"><ele>346.0</ele><time>2026-04-19T10:07:47.065Z</time></trkpt><trkpt lat="42.8894165" lon="12.1773083"><ele>349.0</ele><time>2026-04-19T10:07:48.065Z</time></trkpt><trkpt lat="42.8896957" lon="12.1770936"><ele>352.0</ele><time>2026-04-19T10:07:49.069Z</time></trkpt><trkpt lat="42.889956" lon="12.1768655"><ele>357.5</ele><time>2026-04-19T10:07:50.063Z</time></trkpt><trkpt lat="42.8902004" lon="12.1766275"><ele>363.0</ele><time>2026-04-19T10:07:51.071Z</time></trkpt><trkpt lat="42.8904323" lon="12.1763861"><ele>363.0</ele><time>2026-04-19T10:07:52.079Z</time></trkpt><trkpt lat="42.8906284" lon="12.176153"><ele>363.0</ele><time>2026-04-19T10:07:53.062Z</time></trkpt><trkpt lat="42.8907807" lon="12.175945"><ele>363.0</ele><time>2026-04-19T10:07:54.066Z</time></trkpt><trkpt lat="42.8908971" lon="12.1757595"><ele>363.0</ele><time>2026-04-19T10:07:55.066Z</time></trkpt><trkpt lat="42.8909902" lon="12.1755519"><ele>363.0</ele><time>2026-04-19T10:07:56.072Z</time></trkpt><trkpt lat="42.891057" lon="12.1753396"><ele>364.3333333333333</ele><time>2026-04-19T10:07:57.061Z</time></trkpt><trkpt lat="42.8910748" lon="12.175109"><ele>365.66666666666663</ele><time>2026-04-19T10:07:58.058Z</time></trkpt><trkpt lat="42.891067" lon="12.1749085"><ele>367.0</ele><time>2026-04-19T10:07:59.058Z</time></trkpt><trkpt lat="42.8910552" lon="12.1747253"><ele>367.0</ele><time>2026-04-19T10:08:00.065Z</time></trkpt><trkpt lat="42.8910766" lon="12.17456"><ele>367.0</ele><time>2026-04-19T10:08:01.059Z</time></trkpt><trkpt lat="42.8911181" lon="12.1744194"><ele>367.0</ele><time>2026-04-19T10:08:02.056Z</time></trkpt><trkpt lat="42.8911832" lon="12.1743433"><ele>367.0</ele><time>2026-04-19T10:08:03.062Z</time></trkpt><trkpt lat="42.8913067" lon="12.1742862"><ele>367.0</ele><time>2026-04-19T10:08:04.048Z</time></trkpt><trkpt lat="42.8914702" lon="12.1743951"><ele>367.0</ele><time>2026-04-19T10:08:05.07Z</time></trkpt><trkpt lat="42.8916135" lon="12.1745317"><ele>367.0</ele><time>2026-04-19T10:08:06.075Z</time></trkpt><trkpt lat="42.8917307" lon="12.1745687"><ele>371.75</ele><time>2026-04-19T10:08:07.085Z</time></trkpt><trkpt lat="42.8918439" lon="12.1745208"><ele>376.5</ele><time>2026-04-19T10:08:08.072Z</time></trkpt><trkpt lat="42.8919265" lon="12.1744002"><ele>381.25</ele><time>2026-04-19T10:08:09.071Z</time></trkpt><trkpt lat="42.8919591" lon="12.1742178"><ele>386.0</ele><time>2026-04-19T10:08:10.063Z</time></trkpt><trkpt lat="42.8920063" lon="12.1740437"><ele>381.3333333333333</ele><time>2026-04-19T10:08:11.062Z</time></trkpt><trkpt lat="42.892103" lon="12.173922"><ele>376.66666666666663</ele><time>2026-04-19T10:08:12.079Z</time></trkpt><trkpt lat="42.8922486" lon="12.1738231"><ele>372.0</ele><time>2026-04-19T10:08:13.066Z</time></trkpt><trkpt lat="42.8924611" lon="12.1737635"><ele>377.33333333333337</ele><time>2026-04-19T10:08:14.059Z</time></trkpt><trkpt lat="42.8926621" lon="12.1737316"><ele>382.6666666666667</ele><time>2026-04-19T10:08:15.067Z</time></trkpt><trkpt lat="42.8928703" lon="12.1737258"><ele>388.0</ele><time>2026-04-19T10:08:16.052Z</time></trkpt><trkpt lat="42.8931075" lon="12.1737405"><ele>388.0</ele><time>2026-04-19T10:08:17.086Z</time></trkpt><trkpt lat="42.8933379" lon="12.1737848"><ele>388.0</ele><time>2026-04-19T10:08:18.072Z</time></trkpt><trkpt lat="42.8935635" lon="12.1738419"><ele>390.75</ele><time>2026-04-19T10:08:19.059Z</time></trkpt><trkpt lat="42.8937569" lon="12.1738694"><ele>393.5</ele><time>2026-04-19T10:08:20.071Z</time></trkpt><trkpt lat="42.8939092" lon="12.1738869"><ele>396.25</ele><time>2026-04-19T10:08:21.073Z</time></trkpt><trkpt lat="42.8939687" lon="12.1738471"><ele>399.0</ele><time>2026-04-19T10:08:22.062Z</time></trkpt><trkpt lat="42.8940155" lon="12.1737127"><ele>399.0</ele><time>2026-04-19T10:08:24.069Z</time></trkpt><trkpt lat="42.8939461" lon="12.1735945"><ele>399.0</ele><time>2026-04-19T10:08:25.072Z</time></trkpt><trkpt lat="42.8938335" lon="12.1734893"><ele>399.0</ele><time>2026-04-19T10:08:26.066Z</time></trkpt><trkpt lat="42.8937026" lon="12.1734142"><ele>399.0</ele><time>2026-04-19T10:08:27.068Z</time></trkpt><trkpt lat="42.8935635" lon="12.1733091"><ele>397.66666666666663</ele><time>2026-04-19T10:08:28.055Z</time></trkpt><trkpt lat="42.8934196" lon="12.1731618"><ele>396.3333333333333</ele><time>2026-04-19T10:08:29.054Z</time></trkpt><trkpt lat="42.8933399" lon="12.1729316"><ele>395.0</ele><time>2026-04-19T10:08:30.063Z</time></trkpt><trkpt lat="42.8933037" lon="12.1726506"><ele>395.0</ele><time>2026-04-19T10:08:31.07Z</time></trkpt><trkpt lat="42.8932775" lon="12.1724044"><ele>395.0</ele><time>2026-04-19T10:08:32.063Z</time></trkpt><trkpt lat="42.8932658" lon="12.1721907"><ele>395.0</ele><time>2026-04-19T10:08:33.074Z</time></trkpt><trkpt lat="42.8932695" lon="12.1720146"><ele>395.3333333333333</ele><time>2026-04-19T10:08:34.056Z</time></trkpt><trkpt lat="42.8933124" lon="12.1718474"><ele>395.66666666666663</ele><time>2026-04-19T10:08:35.062Z</time></trkpt><trkpt lat="42.8934547" lon="12.1717572"><ele>396.0</ele><time>2026-04-19T10:08:36.067Z</time></trkpt><trkpt lat="42.8936405" lon="12.1716928"><ele>394.33333333333337</ele><time>2026-04-19T10:08:37.058Z</time></trkpt><trkpt lat="42.8938455" lon="12.171616"><ele>392.6666666666667</ele><time>2026-04-19T10:08:38.06Z</time></trkpt><trkpt lat="42.8940261" lon="12.1715449"><ele>391.0</ele><time>2026-04-19T10:08:39.064Z</time></trkpt><trkpt lat="42.8942156" lon="12.171494"><ele>393.6666666666667</ele><time>2026-04-19T10:08:40.071Z</time></trkpt><trkpt lat="42.8944216" lon="12.1714954"><ele>396.33333333333337</ele><time>2026-04-19T10:08:41.073Z</time></trkpt><trkpt lat="42.8946447" lon="12.1715469"><ele>399.0</ele><time>2026-04-19T10:08:42.069Z</time></trkpt><trkpt lat="42.8948914" lon="12.1716434"><ele>408.0</ele><time>2026-04-19T10:08:43.082Z</time></trkpt><trkpt lat="42.8951592" lon="12.1717373"><ele>417.0</ele><time>2026-04-19T10:08:44.076Z</time></trkpt><trkpt lat="42.8954215" lon="12.1718454"><ele>417.0</ele><time>2026-04-19T10:08:45.06Z</time></trkpt><trkpt lat="42.8956701" lon="12.1719297"><ele>417.0</ele><time>2026-04-19T10:08:46.077Z</time></trkpt><trkpt lat="42.8958894" lon="12.1719808"><ele>419.33333333333337</ele><time>2026-04-19T10:08:47.07Z</time></trkpt><trkpt lat="42.8961004" lon="12.1719894"><ele>421.6666666666667</ele><time>2026-04-19T10:08:48.073Z</time></trkpt><trkpt lat="42.8963164" lon="12.1719467"><ele>424.0</ele><time>2026-04-19T10:08:49.065Z</time></trkpt><trkpt lat="42.8965082" lon="12.1718478"><ele>424.0</ele><time>2026-04-19T10:08:50.084Z</time></trkpt><trkpt lat="42.8966926" lon="12.1717285"><ele>424.0</ele><time>2026-04-19T10:08:51.074Z</time></trkpt><trkpt lat="42.8968618" lon="12.1716344"><ele>424.0</ele><time>2026-04-19T10:08:52.065Z</time></trkpt><trkpt lat="42.8970366" lon="12.1715676"><ele>424.33333333333337</ele><time>2026-04-19T10:08:53.083Z</time></trkpt><trkpt lat="42.8972001" lon="12.1715518"><ele>424.66666666666663</ele><time>2026-04-19T10:08:54.083Z</time></trkpt><trkpt lat="42.8973578" lon="12.1715814"><ele>425.0</ele><time>2026-04-19T10:08:55.075Z</time></trkpt><trkpt lat="42.8974913" lon="12.1717202"><ele>425.3333333333333</ele><time>2026-04-19T10:08:56.083Z</time></trkpt><trkpt lat="42.8976296" lon="12.1718859"><ele>425.66666666666663</ele><time>2026-04-19T10:08:57.069Z</time></trkpt><trkpt lat="42.8977604" lon="12.1719975"><ele>426.0</ele><time>2026-04-19T10:08:58.081Z</time></trkpt><trkpt lat="42.897881" lon="12.1720606"><ele>426.0</ele><time>2026-04-19T10:08:59.073Z</time></trkpt><trkpt lat="42.8980116" lon="12.1720401"><ele>426.0</ele><time>2026-04-19T10:09:00.065Z</time></trkpt><trkpt lat="42.8981233" lon="12.1719024"><ele>426.0</ele><time>2026-04-19T10:09:01.066Z</time></trkpt><trkpt lat="42.8982075" lon="12.1717163"><ele>426.0</ele><time>2026-04-19T10:09:02.077Z</time></trkpt><trkpt lat="42.8982676" lon="12.1714994"><ele>425.66666666666663</ele><time>2026-04-19T10:09:03.068Z</time></trkpt><trkpt lat="42.8982679" lon="12.1712935"><ele>425.3333333333333</ele><time>2026-04-19T10:09:04.061Z</time></trkpt><trkpt lat="42.8982078" lon="12.1710937"><ele>425.0</ele><time>2026-04-19T10:09:05.073Z</time></trkpt><trkpt lat="42.8981604" lon="12.1708591"><ele>423.66666666666663</ele><time>2026-04-19T10:09:06.081Z</time></trkpt><trkpt lat="42.8981721" lon="12.1705978"><ele>422.33333333333337</ele><time>2026-04-19T10:09:07.075Z</time></trkpt><trkpt lat="42.8982331" lon="12.1702927"><ele>421.0</ele><time>2026-04-19T10:09:08.069Z</time></trkpt><trkpt lat="42.8982833" lon="12.1699882"><ele>420.5</ele><time>2026-04-19T10:09:09.067Z</time></trkpt><trkpt lat="42.8983702" lon="12.1696743"><ele>420.0</ele><time>2026-04-19T10:09:10.067Z</time></trkpt><trkpt lat="42.8984578" lon="12.1693486"><ele>418.66666666666663</ele><time>2026-04-19T10:09:11.067Z</time></trkpt><trkpt lat="42.8985638" lon="12.1690766"><ele>417.3333333333333</ele><time>2026-04-19T10:09:12.087Z</time></trkpt><trkpt lat="42.8986604" lon="12.1688105"><ele>416.0</ele><time>2026-04-19T10:09:13.061Z</time></trkpt><trkpt lat="42.8987418" lon="12.1685794"><ele>416.0</ele><time>2026-04-19T10:09:14.066Z</time></trkpt><trkpt lat="42.8987783" lon="12.1683867"><ele>416.0</ele><time>2026-04-19T10:09:15.068Z</time></trkpt><trkpt lat="42.8987854" lon="12.168205"><ele>416.0</ele><time>2026-04-19T10:09:16.073Z</time></trkpt><trkpt lat="42.8987384" lon="12.1679959"><ele>416.0</ele><time>2026-04-19T10:09:17.069Z</time></trkpt><trkpt lat="42.8986175" lon="12.1678185"><ele>418.0</ele><time>2026-04-19T10:09:18.064Z</time></trkpt><trkpt lat="42.8985547" lon="12.1676013"><ele>420.0</ele><time>2026-04-19T10:09:19.074Z</time></trkpt><trkpt lat="42.89857" lon="12.1673711"><ele>422.0</ele><time>2026-04-19T10:09:20.066Z</time></trkpt><trkpt lat="42.8986321" lon="12.1671799"><ele>423.5</ele><time>2026-04-19T10:09:21.066Z</time></trkpt><trkpt lat="42.898709" lon="12.1670263"><ele>425.0</ele><time>2026-04-19T10:09:22.066Z</time></trkpt><trkpt lat="42.8988116" lon="12.1668958"><ele>426.5</ele><time>2026-04-19T10:09:23.077Z</time></trkpt><trkpt lat="42.8989633" lon="12.1668062"><ele>428.0</ele><time>2026-04-19T10:09:24.067Z</time></trkpt><trkpt lat="42.8991204" lon="12.1667014"><ele>428.0</ele><time>2026-04-19T10:09:25.076Z</time></trkpt><trkpt lat="42.8992998" lon="12.1666144"><ele>428.0</ele><time>2026-04-19T10:09:26.064Z</time></trkpt><trkpt lat="42.8994768" lon="12.1665513"><ele>428.0</ele><time>2026-04-19T10:09:27.064Z</time></trkpt><trkpt lat="42.8996609" lon="12.1665372"><ele>428.0</ele><time>2026-04-19T10:09:28.076Z</time></trkpt><trkpt lat="42.8998766" lon="12.1665545"><ele>428.0</ele><time>2026-04-19T10:09:29.064Z</time></trkpt><trkpt lat="42.9001071" lon="12.1665568"><ele>428.0</ele><time>2026-04-19T10:09:30.056Z</time></trkpt><trkpt lat="42.9003564" lon="12.1665794"><ele>429.0</ele><time>2026-04-19T10:09:31.075Z</time></trkpt><trkpt lat="42.9005889" lon="12.1665881"><ele>430.0</ele><time>2026-04-19T10:09:32.061Z</time></trkpt><trkpt lat="42.9008293" lon="12.1665669"><ele>434.5</ele><time>2026-04-19T10:09:33.094Z</time></trkpt><trkpt lat="42.9010836" lon="12.1664612"><ele>439.0</ele><time>2026-04-19T10:09:34.069Z</time></trkpt><trkpt lat="42.9013347" lon="12.1663373"><ele>439.0</ele><time>2026-04-19T10:09:35.059Z</time></trkpt><trkpt lat="42.9015777" lon="12.1662008"><ele>439.0</ele><time>2026-04-19T10:09:36.06Z</time></trkpt><trkpt lat="42.901819" lon="12.1660604"><ele>439.0</ele><time>2026-04-19T10:09:37.069Z</time></trkpt><trkpt lat="42.9020607" lon="12.165931"><ele>439.0</ele><time>2026-04-19T10:09:38.078Z</time></trkpt><trkpt lat="42.9023171" lon="12.1658036"><ele>440.0</ele><time>2026-04-19T10:09:39.075Z</time></trkpt><trkpt lat="42.9025693" lon="12.1656822"><ele>441.0</ele><time>2026-04-19T10:09:40.069Z</time></trkpt><trkpt lat="42.9027858" lon="12.1655689"><ele>441.0</ele><time>2026-04-19T10:09:41.086Z</time></trkpt><trkpt lat="42.902999" lon="12.1654631"><ele>441.0</ele><time>2026-04-19T10:09:42.092Z</time></trkpt><trkpt lat="42.9032001" lon="12.1653319"><ele>443.5</ele><time>2026-04-19T10:09:43.063Z</time></trkpt><trkpt lat="42.903414" lon="12.165169"><ele>446.0</ele><time>2026-04-19T10:09:44.076Z</time></trkpt><trkpt lat="42.9036232" lon="12.1649574"><ele>447.0</ele><time>2026-04-19T10:09:45.078Z</time></trkpt><trkpt lat="42.9038333" lon="12.1647378"><ele>448.0</ele><time>2026-04-19T10:09:46.07Z</time></trkpt><trkpt lat="42.9040445" lon="12.1645125"><ele>446.5</ele><time>2026-04-19T10:09:47.09Z</time></trkpt><trkpt lat="42.9042467" lon="12.1643083"><ele>445.0</ele><time>2026-04-19T10:09:48.074Z</time></trkpt><trkpt lat="42.9044288" lon="12.1641046"><ele>447.5</ele><time>2026-04-19T10:09:49.072Z</time></trkpt><trkpt lat="42.9046006" lon="12.1638892"><ele>450.0</ele><time>2026-04-19T10:09:50.063Z</time></trkpt><trkpt lat="42.9047666" lon="12.1636785"><ele>450.0</ele><time>2026-04-19T10:09:51.072Z</time></trkpt><trkpt lat="42.9049003" lon="12.1634485"><ele>450.0</ele><time>2026-04-19T10:09:52.074Z</time></trkpt><trkpt lat="42.9050262" lon="12.163223"><ele>450.0</ele><time>2026-04-19T10:09:53.091Z</time></trkpt><trkpt lat="42.905147" lon="12.1630103"><ele>448.66666666666663</ele><time>2026-04-19T10:09:54.078Z</time></trkpt><trkpt lat="42.9052687" lon="12.1628095"><ele>447.3333333333333</ele><time>2026-04-19T10:09:55.055Z</time></trkpt><trkpt lat="42.9054245" lon="12.1626441"><ele>446.0</ele><time>2026-04-19T10:09:56.075Z</time></trkpt><trkpt lat="42.9056389" lon="12.1625486"><ele>446.0</ele><time>2026-04-19T10:09:57.072Z</time></trkpt><trkpt lat="42.9058899" lon="12.1624599"><ele>446.0</ele><time>2026-04-19T10:09:58.066Z</time></trkpt><trkpt lat="42.9061492" lon="12.1623531"><ele>443.5</ele><time>2026-04-19T10:09:59.056Z</time></trkpt><trkpt lat="42.9064069" lon="12.1622466"><ele>441.0</ele><time>2026-04-19T10:10:00.072Z</time></trkpt><trkpt lat="42.9066753" lon="12.1622034"><ele>441.5</ele><time>2026-04-19T10:10:01.058Z</time></trkpt><trkpt lat="42.9069054" lon="12.1621244"><ele>442.0</ele><time>2026-04-19T10:10:02.066Z</time></trkpt><trkpt lat="42.907107" lon="12.1619916"><ele>442.0</ele><time>2026-04-19T10:10:03.067Z</time></trkpt><trkpt lat="42.9072783" lon="12.1617979"><ele>442.0</ele><time>2026-04-19T10:10:04.065Z</time></trkpt><trkpt lat="42.9074109" lon="12.1615718"><ele>442.0</ele><time>2026-04-19T10:10:05.068Z</time></trkpt><trkpt lat="42.9074841" lon="12.161274"><ele>442.6666666666667</ele><time>2026-04-19T10:10:06.06Z</time></trkpt><trkpt lat="42.9075717" lon="12.1610215"><ele>443.33333333333337</ele><time>2026-04-19T10:10:07.067Z</time></trkpt><trkpt lat="42.907671" lon="12.1607681"><ele>444.0</ele><time>2026-04-19T10:10:08.065Z</time></trkpt><trkpt lat="42.9077697" lon="12.1604916"><ele>443.33333333333337</ele><time>2026-04-19T10:10:09.071Z</time></trkpt><trkpt lat="42.9078723" lon="12.1602544"><ele>442.6666666666667</ele><time>2026-04-19T10:10:10.058Z</time></trkpt><trkpt lat="42.9080041" lon="12.1600159"><ele>442.0</ele><time>2026-04-19T10:10:11.069Z</time></trkpt><trkpt lat="42.9082119" lon="12.1598282"><ele>446.5</ele><time>2026-04-19T10:10:12.068Z</time></trkpt><trkpt lat="42.9084425" lon="12.1596923"><ele>451.0</ele><time>2026-04-19T10:10:13.074Z</time></trkpt><trkpt lat="42.9086861" lon="12.1595467"><ele>451.0</ele><time>2026-04-19T10:10:14.081Z</time></trkpt><trkpt lat="42.9089519" lon="12.159417"><ele>451.0</ele><time>2026-04-19T10:10:15.063Z</time></trkpt><trkpt lat="42.909213" lon="12.1592758"><ele>451.5</ele><time>2026-04-19T10:10:16.066Z</time></trkpt><trkpt lat="42.9094751" lon="12.1591428"><ele>452.0</ele><time>2026-04-19T10:10:17.089Z</time></trkpt><trkpt lat="42.9097317" lon="12.1590035"><ele>452.0</ele><time>2026-04-19T10:10:18.06Z</time></trkpt><trkpt lat="42.9099473" lon="12.1588396"><ele>452.0</ele><time>2026-04-19T10:10:19.087Z</time></trkpt><trkpt lat="42.9101514" lon="12.1586835"><ele>453.0</ele><time>2026-04-19T10:10:20.077Z</time></trkpt><trkpt lat="42.9103512" lon="12.1585497"><ele>454.0</ele><time>2026-04-19T10:10:21.09Z</time></trkpt><trkpt lat="42.9105506" lon="12.1584523"><ele>455.0</ele><time>2026-04-19T10:10:22.07Z</time></trkpt><trkpt lat="42.9107343" lon="12.158403"><ele>455.0</ele><time>2026-04-19T10:10:23.073Z</time></trkpt><trkpt lat="42.9108924" lon="12.1583937"><ele>455.0</ele><time>2026-04-19T10:10:24.061Z</time></trkpt><trkpt lat="42.9110151" lon="12.1584335"><ele>455.0</ele><time>2026-04-19T10:10:25.059Z</time></trkpt><trkpt lat="42.9111266" lon="12.1584222"><ele>455.0</ele><time>2026-04-19T10:10:26.059Z</time></trkpt><trkpt lat="42.9112246" lon="12.1583417"><ele>455.0</ele><time>2026-04-19T10:10:27.063Z</time></trkpt><trkpt lat="42.9113007" lon="12.1581868"><ele>455.0</ele><time>2026-04-19T10:10:28.056Z</time></trkpt><trkpt lat="42.9113745" lon="12.1580063"><ele>455.0</ele><time>2026-04-19T10:10:29.062Z</time></trkpt><trkpt lat="42.9114711" lon="12.1578035"><ele>455.0</ele><time>2026-04-19T10:10:30.065Z</time></trkpt><trkpt lat="42.9115574" lon="12.1575968"><ele>455.0</ele><time>2026-04-19T10:10:31.078Z</time></trkpt><trkpt lat="42.9116557" lon="12.1573601"><ele>455.0</ele><time>2026-04-19T10:10:32.089Z</time></trkpt><trkpt lat="42.9117514" lon="12.1571095"><ele>447.5</ele><time>2026-04-19T10:10:33.062Z</time></trkpt><trkpt lat="42.911885" lon="12.156825"><ele>440.0</ele><time>2026-04-19T10:10:34.064Z</time></trkpt><trkpt lat="42.9120494" lon="12.1565496"><ele>441.0</ele><time>2026-04-19T10:10:35.062Z</time></trkpt><trkpt lat="42.9122162" lon="12.1562865"><ele>442.0</ele><time>2026-04-19T10:10:36.069Z</time></trkpt><trkpt lat="42.9123753" lon="12.156041"><ele>442.0</ele><time>2026-04-19T10:10:37.069Z</time></trkpt><trkpt lat="42.9125252" lon="12.1558285"><ele>442.0</ele><time>2026-04-19T10:10:38.076Z</time></trkpt><trkpt lat="42.9126559" lon="12.1556233"><ele>442.0</ele><time>2026-04-19T10:10:39.094Z</time></trkpt><trkpt lat="42.9127508" lon="12.1554297"><ele>442.0</ele><time>2026-04-19T10:10:40.076Z</time></trkpt><trkpt lat="42.9127729" lon="12.1552012"><ele>442.0</ele><time>2026-04-19T10:10:41.061Z</time></trkpt><trkpt lat="42.9127447" lon="12.1549393"><ele>442.0</ele><time>2026-04-19T10:10:42.059Z</time></trkpt><trkpt lat="42.9126743" lon="12.1546594"><ele>442.0</ele><time>2026-04-19T10:10:43.085Z</time></trkpt><trkpt lat="42.9125913" lon="12.1544162"><ele>442.0</ele><time>2026-04-19T10:10:44.055Z</time></trkpt><trkpt lat="42.9125013" lon="12.1542471"><ele>442.0</ele><time>2026-04-19T10:10:45.071Z</time></trkpt><trkpt lat="42.9123775" lon="12.1541515"><ele>443.33333333333337</ele><time>2026-04-19T10:10:46.055Z</time></trkpt><trkpt lat="42.9122324" lon="12.1541387"><ele>444.66666666666663</ele><time>2026-04-19T10:10:47.071Z</time></trkpt><trkpt lat="42.9120841" lon="12.1542427"><ele>446.0</ele><time>2026-04-19T10:10:48.072Z</time></trkpt><trkpt lat="42.9119339" lon="12.1544055"><ele>446.0</ele><time>2026-04-19T10:10:49.067Z</time></trkpt><trkpt lat="42.9117885" lon="12.1545832"><ele>446.0</ele><time>2026-04-19T10:10:50.07Z</time></trkpt><trkpt lat="42.9116466" lon="12.1547275"><ele>446.0</ele><time>2026-04-19T10:10:51.062Z</time></trkpt><trkpt lat="42.9114882" lon="12.154832"><ele>444.66666666666663</ele><time>2026-04-19T10:10:52.057Z</time></trkpt><trkpt lat="42.9113179" lon="12.1548863"><ele>443.33333333333337</ele><time>2026-04-19T10:10:53.082Z</time></trkpt><trkpt lat="42.9111275" lon="12.1548483"><ele>442.0</ele><time>2026-04-19T10:10:54.065Z</time></trkpt><trkpt lat="42.9109404" lon="12.1547741"><ele>448.0</ele><time>2026-04-19T10:10:55.069Z</time></trkpt><trkpt lat="42.9107582" lon="12.1547066"><ele>454.0</ele><time>2026-04-19T10:10:56.07Z</time></trkpt><trkpt lat="42.9105837" lon="12.1546523"><ele>460.0</ele><time>2026-04-19T10:10:57.072Z</time></trkpt><trkpt lat="42.9104044" lon="12.1545956"><ele>460.0</ele><time>2026-04-19T10:10:58.067Z</time></trkpt><trkpt lat="42.9102411" lon="12.1544772"><ele>460.0</ele><time>2026-04-19T10:10:59.068Z</time></trkpt><trkpt lat="42.9101658" lon="12.1543048"><ele>460.0</ele><time>2026-04-19T10:11:00.061Z</time></trkpt><trkpt lat="42.910139" lon="12.1541375"><ele>462.25</ele><time>2026-04-19T10:11:01.07Z</time></trkpt><trkpt lat="42.9101754" lon="12.1539604"><ele>464.5</ele><time>2026-04-19T10:11:02.057Z</time></trkpt><trkpt lat="42.9102801" lon="12.1538132"><ele>466.75</ele><time>2026-04-19T10:11:03.067Z</time></trkpt><trkpt lat="42.910389" lon="12.153656"><ele>469.0</ele><time>2026-04-19T10:11:04.081Z</time></trkpt><trkpt lat="42.9105201" lon="12.153486"><ele>469.0</ele><time>2026-04-19T10:11:05.087Z</time></trkpt><trkpt lat="42.910653" lon="12.1533016"><ele>469.0</ele><time>2026-04-19T10:11:06.066Z</time></trkpt><trkpt lat="42.9107954" lon="12.153095"><ele>469.0</ele><time>2026-04-19T10:11:07.085Z</time></trkpt><trkpt lat="42.9109252" lon="12.1528593"><ele>471.0</ele><time>2026-04-19T10:11:08.07Z</time></trkpt><trkpt lat="42.9110678" lon="12.1526007"><ele>473.0</ele><time>2026-04-19T10:11:09.092Z</time></trkpt><trkpt lat="42.9111595" lon="12.1522992"><ele>475.5</ele><time>2026-04-19T10:11:10.076Z</time></trkpt><trkpt lat="42.9112311" lon="12.1519824"><ele>478.0</ele><time>2026-04-19T10:11:11.076Z</time></trkpt><trkpt lat="42.9113182" lon="12.1516648"><ele>480.5</ele><time>2026-04-19T10:11:12.079Z</time></trkpt><trkpt lat="42.9114102" lon="12.1513457"><ele>483.0</ele><time>2026-04-19T10:11:13.08Z</time></trkpt><trkpt lat="42.9114949" lon="12.1510527"><ele>483.0</ele><time>2026-04-19T10:11:14.084Z</time></trkpt><trkpt lat="42.9115713" lon="12.1507588"><ele>483.0</ele><time>2026-04-19T10:11:15.076Z</time></trkpt><trkpt lat="42.9116511" lon="12.1504625"><ele>485.0</ele><time>2026-04-19T10:11:16.091Z</time></trkpt><trkpt lat="42.9116564" lon="12.1501361"><ele>487.0</ele><time>2026-04-19T10:11:17.09Z</time></trkpt><trkpt lat="42.9116627" lon="12.1498279"><ele>487.0</ele><time>2026-04-19T10:11:18.07Z</time></trkpt><trkpt lat="42.9116835" lon="12.1495404"><ele>487.0</ele><time>2026-04-19T10:11:19.066Z</time></trkpt><trkpt lat="42.9117339" lon="12.1492787"><ele>487.0</ele><time>2026-04-19T10:11:20.072Z</time></trkpt><trkpt lat="42.9117816" lon="12.1490111"><ele>490.0</ele><time>2026-04-19T10:11:21.07Z</time></trkpt><trkpt lat="42.9118659" lon="12.1487593"><ele>493.0</ele><time>2026-04-19T10:11:22.072Z</time></trkpt><trkpt lat="42.9119895" lon="12.1485212"><ele>496.0</ele><time>2026-04-19T10:11:23.068Z</time></trkpt><trkpt lat="42.9121481" lon="12.1483065"><ele>501.0</ele><time>2026-04-19T10:11:24.068Z</time></trkpt><trkpt lat="42.9123179" lon="12.1480844"><ele>506.0</ele><time>2026-04-19T10:11:25.072Z</time></trkpt><trkpt lat="42.9125177" lon="12.1478882"><ele>508.0</ele><time>2026-04-19T10:11:26.066Z</time></trkpt><trkpt lat="42.9127484" lon="12.1477334"><ele>510.0</ele><time>2026-04-19T10:11:27.061Z</time></trkpt><trkpt lat="42.913012" lon="12.1476301"><ele>510.0</ele><time>2026-04-19T10:11:28.077Z</time></trkpt><trkpt lat="42.9132738" lon="12.147503"><ele>510.0</ele><time>2026-04-19T10:11:29.055Z</time></trkpt><trkpt lat="42.9135459" lon="12.1473889"><ele>520.5</ele><time>2026-04-19T10:11:30.063Z</time></trkpt><trkpt lat="42.9138395" lon="12.1473008"><ele>531.0</ele><time>2026-04-19T10:11:31.067Z</time></trkpt><trkpt lat="42.914134" lon="12.1471983"><ele>531.0</ele><time>2026-04-19T10:11:32.07Z</time></trkpt><trkpt lat="42.9144092" lon="12.1471096"><ele>531.0</ele><time>2026-04-19T10:11:33.071Z</time></trkpt><trkpt lat="42.9146832" lon="12.1470133"><ele>531.0</ele><time>2026-04-19T10:11:34.06Z</time></trkpt><trkpt lat="42.9149545" lon="12.1469251"><ele>531.0</ele><time>2026-04-19T10:11:35.085Z</time></trkpt><trkpt lat="42.9152083" lon="12.1468402"><ele>530.3333333333334</ele><time>2026-04-19T10:11:36.058Z</time></trkpt><trkpt lat="42.9154283" lon="12.1467617"><ele>529.6666666666667</ele><time>2026-04-19T10:11:37.075Z</time></trkpt><trkpt lat="42.915623" lon="12.1466926"><ele>529.0</ele><time>2026-04-19T10:11:38.067Z</time></trkpt><trkpt lat="42.9157972" lon="12.1466558"><ele>530.75</ele><time>2026-04-19T10:11:39.062Z</time></trkpt><trkpt lat="42.9159575" lon="12.1466387"><ele>532.5</ele><time>2026-04-19T10:11:40.068Z</time></trkpt><trkpt lat="42.9160761" lon="12.1466584"><ele>534.25</ele><time>2026-04-19T10:11:41.065Z</time></trkpt><trkpt lat="42.9161879" lon="12.1466774"><ele>536.0</ele><time>2026-04-19T10:11:42.059Z</time></trkpt><trkpt lat="42.9162724" lon="12.1466549"><ele>536.0</ele><time>2026-04-19T10:11:43.069Z</time></trkpt><trkpt lat="42.9163098" lon="12.1465749"><ele>536.0</ele><time>2026-04-19T10:11:44.076Z</time></trkpt><trkpt lat="42.9162944" lon="12.1463945"><ele>536.0</ele><time>2026-04-19T10:11:46.054Z</time></trkpt><trkpt lat="42.9162058" lon="12.1463188"><ele>536.0</ele><time>2026-04-19T10:11:47.056Z</time></trkpt><trkpt lat="42.91609" lon="12.1462778"><ele>536.0</ele><time>2026-04-19T10:11:48.076Z</time></trkpt><trkpt lat="42.9159364" lon="12.1462526"><ele>541.0</ele><time>2026-04-19T10:11:49.084Z</time></trkpt><trkpt lat="42.9157301" lon="12.1462668"><ele>546.0</ele><time>2026-04-19T10:11:50.066Z</time></trkpt><trkpt lat="42.9155072" lon="12.1462635"><ele>551.0</ele><time>2026-04-19T10:11:51.074Z</time></trkpt><trkpt lat="42.9152681" lon="12.1462177"><ele>551.0</ele><time>2026-04-19T10:11:52.051Z</time></trkpt><trkpt lat="42.9150214" lon="12.1461494"><ele>551.0</ele><time>2026-04-19T10:11:53.052Z</time></trkpt><trkpt lat="42.9147644" lon="12.1460565"><ele>551.0</ele><time>2026-04-19T10:11:54.06Z</time></trkpt><trkpt lat="42.9145202" lon="12.1459175"><ele>551.0</ele><time>2026-04-19T10:11:55.071Z</time></trkpt><trkpt lat="42.9143214" lon="12.1457855"><ele>553.3333333333333</ele><time>2026-04-19T10:11:56.087Z</time></trkpt><trkpt lat="42.914123" lon="12.1456692"><ele>555.6666666666666</ele><time>2026-04-19T10:11:57.074Z</time></trkpt><trkpt lat="42.9139419" lon="12.145557"><ele>558.0</ele><time>2026-04-19T10:11:58.09Z</time></trkpt><trkpt lat="42.9138275" lon="12.1454333"><ele>558.0</ele><time>2026-04-19T10:11:59.068Z</time></trkpt><trkpt lat="42.9137653" lon="12.1452836"><ele>558.0</ele><time>2026-04-19T10:12:00.066Z</time></trkpt><trkpt lat="42.9137551" lon="12.1451073"><ele>558.0</ele><time>2026-04-19T10:12:01.053Z</time></trkpt><trkpt lat="42.9138342" lon="12.1449151"><ele>558.0</ele><time>2026-04-19T10:12:02.059Z</time></trkpt><trkpt lat="42.9139411" lon="12.1447447"><ele>560.3333333333334</ele><time>2026-04-19T10:12:03.057Z</time></trkpt><trkpt lat="42.9140714" lon="12.1445957"><ele>562.6666666666667</ele><time>2026-04-19T10:12:04.057Z</time></trkpt><trkpt lat="42.914221" lon="12.1444888"><ele>565.0</ele><time>2026-04-19T10:12:05.062Z</time></trkpt><trkpt lat="42.914398" lon="12.144403"><ele>565.0</ele><time>2026-04-19T10:12:06.059Z</time></trkpt><trkpt lat="42.9145914" lon="12.144314"><ele>565.0</ele><time>2026-04-19T10:12:07.071Z</time></trkpt><trkpt lat="42.9147584" lon="12.1442247"><ele>565.0</ele><time>2026-04-19T10:12:08.075Z</time></trkpt><trkpt lat="42.9149383" lon="12.14414"><ele>566.0</ele><time>2026-04-19T10:12:09.066Z</time></trkpt><trkpt lat="42.9151226" lon="12.1440802"><ele>567.0</ele><time>2026-04-19T10:12:10.071Z</time></trkpt><trkpt lat="42.9153173" lon="12.1440146"><ele>568.0</ele><time>2026-04-19T10:12:11.075Z</time></trkpt><trkpt lat="42.9155113" lon="12.1439395"><ele>568.0</ele><time>2026-04-19T10:12:12.061Z</time></trkpt><trkpt lat="42.9156994" lon="12.1438364"><ele>568.0</ele><time>2026-04-19T10:12:13.07Z</time></trkpt><trkpt lat="42.9158709" lon="12.143707"><ele>568.0</ele><time>2026-04-19T10:12:14.057Z</time></trkpt><trkpt lat="42.9160234" lon="12.1435566"><ele>567.3333333333334</ele><time>2026-04-19T10:12:15.077Z</time></trkpt><trkpt lat="42.9161732" lon="12.1434186"><ele>566.6666666666666</ele><time>2026-04-19T10:12:16.066Z</time></trkpt><trkpt lat="42.9163133" lon="12.1433046"><ele>566.0</ele><time>2026-04-19T10:12:17.069Z</time></trkpt><trkpt lat="42.9164525" lon="12.1432114"><ele>566.0</ele><time>2026-04-19T10:12:18.072Z</time></trkpt><trkpt lat="42.9165914" lon="12.1431286"><ele>566.0</ele><time>2026-04-19T10:12:19.077Z</time></trkpt><trkpt lat="42.9167151" lon="12.1430608"><ele>566.0</ele><time>2026-04-19T10:12:20.067Z</time></trkpt><trkpt lat="42.9168237" lon="12.1430106"><ele>566.0</ele><time>2026-04-19T10:12:21.072Z</time></trkpt><trkpt lat="42.9169089" lon="12.1429794"><ele>568.5</ele><time>2026-04-19T10:12:22.074Z</time></trkpt><trkpt lat="42.916981" lon="12.1429715"><ele>571.0</ele><time>2026-04-19T10:12:23.074Z</time></trkpt><trkpt lat="42.9170893" lon="12.1429653"><ele>573.5</ele><time>2026-04-19T10:12:25.074Z</time></trkpt><trkpt lat="42.9171607" lon="12.1429267"><ele>576.0</ele><time>2026-04-19T10:12:27.061Z</time></trkpt><trkpt lat="42.917337" lon="12.1428147"><ele>576.0</ele><time>2026-04-19T10:12:52.072Z</time></trkpt><trkpt lat="42.9174636" lon="12.1426932"><ele>576.0</ele><time>2026-04-19T10:12:53.058Z</time></trkpt><trkpt lat="42.9176167" lon="12.1425766"><ele>576.0</ele><time>2026-04-19T10:12:54.059Z</time></trkpt><trkpt lat="42.9177922" lon="12.1424641"><ele>570.6666666666666</ele><time>2026-04-19T10:12:55.054Z</time></trkpt><trkpt lat="42.9179828" lon="12.1423436"><ele>565.3333333333333</ele><time>2026-04-19T10:12:56.058Z</time></trkpt><trkpt lat="42.9181947" lon="12.1422094"><ele>560.0</ele><time>2026-04-19T10:12:57.06Z</time></trkpt><trkpt lat="42.9183994" lon="12.142089"><ele>561.0</ele><time>2026-04-19T10:12:58.063Z</time></trkpt><trkpt lat="42.9185975" lon="12.1419879"><ele>562.0</ele><time>2026-04-19T10:12:59.066Z</time></trkpt><trkpt lat="42.918799" lon="12.1418847"><ele>563.0</ele><time>2026-04-19T10:13:00.059Z</time></trkpt><trkpt lat="42.9190061" lon="12.1417707"><ele>563.0</ele><time>2026-04-19T10:13:01.071Z</time></trkpt><trkpt lat="42.919228" lon="12.1416503"><ele>563.0</ele><time>2026-04-19T10:13:02.078Z</time></trkpt><trkpt lat="42.9194211" lon="12.1414777"><ele>566.0</ele><time>2026-04-19T10:13:03.08Z</time></trkpt><trkpt lat="42.9195451" lon="12.141288"><ele>569.0</ele><time>2026-04-19T10:13:04.075Z</time></trkpt><trkpt lat="42.919623" lon="12.1411099"><ele>572.0</ele><time>2026-04-19T10:13:05.058Z</time></trkpt><trkpt lat="42.9196893" lon="12.1408985"><ele>574.6666666666666</ele><time>2026-04-19T10:13:06.071Z</time></trkpt><trkpt lat="42.9197308" lon="12.140661"><ele>577.3333333333334</ele><time>2026-04-19T10:13:07.057Z</time></trkpt><trkpt lat="42.9196986" lon="12.1403997"><ele>580.0</ele><time>2026-04-19T10:13:08.069Z</time></trkpt><trkpt lat="42.9196468" lon="12.1401241"><ele>585.6666666666667</ele><time>2026-04-19T10:13:09.06Z</time></trkpt><trkpt lat="42.9195803" lon="12.1398534"><ele>591.3333333333334</ele><time>2026-04-19T10:13:10.062Z</time></trkpt><trkpt lat="42.9195206" lon="12.1395772"><ele>597.0</ele><time>2026-04-19T10:13:11.059Z</time></trkpt><trkpt lat="42.9194579" lon="12.1393093"><ele>597.0</ele><time>2026-04-19T10:13:12.067Z</time></trkpt><trkpt lat="42.9194042" lon="12.1390732"><ele>597.0</ele><time>2026-04-19T10:13:13.062Z</time></trkpt><trkpt lat="42.9193078" lon="12.1388431"><ele>597.0</ele><time>2026-04-19T10:13:14.074Z</time></trkpt><trkpt lat="42.9191943" lon="12.138647"><ele>599.3333333333334</ele><time>2026-04-19T10:13:15.07Z</time></trkpt><trkpt lat="42.9190797" lon="12.1384695"><ele>601.6666666666667</ele><time>2026-04-19T10:13:16.064Z</time></trkpt><trkpt lat="42.9189672" lon="12.1383085"><ele>604.0</ele><time>2026-04-19T10:13:17.07Z</time></trkpt><trkpt lat="42.9188704" lon="12.138174"><ele>608.25</ele><time>2026-04-19T10:13:18.057Z</time></trkpt><trkpt lat="42.9187697" lon="12.1381399"><ele>612.5</ele><time>2026-04-19T10:13:19.054Z</time></trkpt><trkpt lat="42.9186617" lon="12.1380744"><ele>616.75</ele><time>2026-04-19T10:13:20.062Z</time></trkpt><trkpt lat="42.9185249" lon="12.138061"><ele>621.0</ele><time>2026-04-19T10:13:21.059Z</time></trkpt><trkpt lat="42.9183697" lon="12.1380563"><ele>621.0</ele><time>2026-04-19T10:13:22.054Z</time></trkpt><trkpt lat="42.9182237" lon="12.1380722"><ele>621.0</ele><time>2026-04-19T10:13:23.071Z</time></trkpt><trkpt lat="42.9181082" lon="12.1380525"><ele>621.0</ele><time>2026-04-19T10:13:24.059Z</time></trkpt><trkpt lat="42.9178598" lon="12.1378963"><ele>621.0</ele><time>2026-04-19T10:13:26.074Z</time></trkpt><trkpt lat="42.9177428" lon="12.1377909"><ele>621.0</ele><time>2026-04-19T10:13:27.07Z</time></trkpt><trkpt lat="42.9176702" lon="12.1376885"><ele>621.0</ele><time>2026-04-19T10:13:28.069Z</time></trkpt><trkpt lat="42.9176416" lon="12.1375071"><ele>621.0</ele><time>2026-04-19T10:13:29.061Z</time></trkpt><trkpt lat="42.9176234" lon="12.1373336"><ele>619.6666666666666</ele><time>2026-04-19T10:13:30.075Z</time></trkpt><trkpt lat="42.9175851" lon="12.137137"><ele>618.3333333333333</ele><time>2026-04-19T10:13:31.071Z</time></trkpt><trkpt lat="42.917523" lon="12.1369306"><ele>617.0</ele><time>2026-04-19T10:13:32.079Z</time></trkpt><trkpt lat="42.9173907" lon="12.1367534"><ele>617.0</ele><time>2026-04-19T10:13:33.085Z</time></trkpt><trkpt lat="42.9172451" lon="12.1365786"><ele>617.0</ele><time>2026-04-19T10:13:34.068Z</time></trkpt><trkpt lat="42.9170926" lon="12.1363762"><ele>617.0</ele><time>2026-04-19T10:13:35.057Z</time></trkpt><trkpt lat="42.9169152" lon="12.1362136"><ele>615.6666666666666</ele><time>2026-04-19T10:13:36.071Z</time></trkpt><trkpt lat="42.9167465" lon="12.1360496"><ele>614.3333333333334</ele><time>2026-04-19T10:13:37.076Z</time></trkpt><trkpt lat="42.916605" lon="12.1358699"><ele>613.0</ele><time>2026-04-19T10:13:38.06Z</time></trkpt><trkpt lat="42.9164658" lon="12.1356657"><ele>608.0</ele><time>2026-04-19T10:13:39.078Z</time></trkpt><trkpt lat="42.916343" lon="12.1354672"><ele>603.0</ele><time>2026-04-19T10:13:40.061Z</time></trkpt><trkpt lat="42.9162182" lon="12.1352267"><ele>598.0</ele><time>2026-04-19T10:13:41.069Z</time></trkpt><trkpt lat="42.9161002" lon="12.1349485"><ele>599.3333333333334</ele><time>2026-04-19T10:13:42.07Z</time></trkpt><trkpt lat="42.9159873" lon="12.1346912"><ele>600.6666666666666</ele><time>2026-04-19T10:13:43.061Z</time></trkpt><trkpt lat="42.9158662" lon="12.13444"><ele>602.0</ele><time>2026-04-19T10:13:44.056Z</time></trkpt><trkpt lat="42.9157357" lon="12.1342034"><ele>597.3333333333333</ele><time>2026-04-19T10:13:45.058Z</time></trkpt><trkpt lat="42.9156079" lon="12.1339783"><ele>592.6666666666666</ele><time>2026-04-19T10:13:46.064Z</time></trkpt><trkpt lat="42.9155096" lon="12.1337441"><ele>588.0</ele><time>2026-04-19T10:13:47.062Z</time></trkpt><trkpt lat="42.915428" lon="12.1335084"><ele>588.0</ele><time>2026-04-19T10:13:48.059Z</time></trkpt><trkpt lat="42.9153856" lon="12.1332409"><ele>588.0</ele><time>2026-04-19T10:13:49.062Z</time></trkpt><trkpt lat="42.9153559" lon="12.1329649"><ele>588.0</ele><time>2026-04-19T10:13:50.065Z</time></trkpt><trkpt lat="42.9153296" lon="12.1326765"><ele>585.6666666666666</ele><time>2026-04-19T10:13:51.062Z</time></trkpt><trkpt lat="42.9153044" lon="12.1323926"><ele>583.3333333333333</ele><time>2026-04-19T10:13:52.06Z</time></trkpt><trkpt lat="42.915283" lon="12.1321095"><ele>581.0</ele><time>2026-04-19T10:13:53.061Z</time></trkpt><trkpt lat="42.9152832" lon="12.1318376"><ele>579.3333333333333</ele><time>2026-04-19T10:13:54.075Z</time></trkpt><trkpt lat="42.9153131" lon="12.1315893"><ele>577.6666666666666</ele><time>2026-04-19T10:13:55.083Z</time></trkpt><trkpt lat="42.9153624" lon="12.1313828"><ele>576.0</ele><time>2026-04-19T10:13:56.074Z</time></trkpt><trkpt lat="42.9154011" lon="12.1312217"><ele>575.0</ele><time>2026-04-19T10:13:57.064Z</time></trkpt><trkpt lat="42.9154173" lon="12.1310824"><ele>574.0</ele><time>2026-04-19T10:13:58.07Z</time></trkpt><trkpt lat="42.9154153" lon="12.1309297"><ele>573.0</ele><time>2026-04-19T10:13:59.064Z</time></trkpt><trkpt lat="42.9153985" lon="12.1307404"><ele>572.0</ele><time>2026-04-19T10:14:00.062Z</time></trkpt><trkpt lat="42.9153731" lon="12.1305163"><ele>569.0</ele><time>2026-04-19T10:14:01.067Z</time></trkpt><trkpt lat="42.9153564" lon="12.1302209"><ele>566.0</ele><time>2026-04-19T10:14:02.072Z</time></trkpt><trkpt lat="42.9153048" lon="12.1299209"><ele>563.0</ele><time>2026-04-19T10:14:03.054Z</time></trkpt><trkpt lat="42.9152605" lon="12.1296417"><ele>559.6666666666666</ele><time>2026-04-19T10:14:04.067Z</time></trkpt><trkpt lat="42.9151998" lon="12.1293862"><ele>556.3333333333334</ele><time>2026-04-19T10:14:05.058Z</time></trkpt><trkpt lat="42.9151368" lon="12.1291652"><ele>553.0</ele><time>2026-04-19T10:14:06.056Z</time></trkpt><trkpt lat="42.9150238" lon="12.1289796"><ele>552.6666666666667</ele><time>2026-04-19T10:14:07.058Z</time></trkpt><trkpt lat="42.9148782" lon="12.1288768"><ele>552.3333333333334</ele><time>2026-04-19T10:14:08.063Z</time></trkpt><trkpt lat="42.9147231" lon="12.1288732"><ele>552.0</ele><time>2026-04-19T10:14:09.066Z</time></trkpt><trkpt lat="42.9145704" lon="12.1289422"><ele>552.0</ele><time>2026-04-19T10:14:10.058Z</time></trkpt><trkpt lat="42.9144081" lon="12.129028"><ele>552.0</ele><time>2026-04-19T10:14:11.08Z</time></trkpt><trkpt lat="42.9142392" lon="12.1290862"><ele>552.0</ele><time>2026-04-19T10:14:12.076Z</time></trkpt><trkpt lat="42.9141337" lon="12.1290308"><ele>550.8000000000001</ele><time>2026-04-19T10:14:13.071Z</time></trkpt><trkpt lat="42.9140363" lon="12.1290206"><ele>549.6</ele><time>2026-04-19T10:14:14.054Z</time></trkpt><trkpt lat="42.913974" lon="12.128962"><ele>548.4000000000001</ele><time>2026-04-19T10:14:15.06Z</time></trkpt><trkpt lat="42.9139477" lon="12.1288458"><ele>547.2</ele><time>2026-04-19T10:14:16.056Z</time></trkpt><trkpt lat="42.9139254" lon="12.1287247"><ele>546.0</ele><time>2026-04-19T10:14:17.064Z</time></trkpt><trkpt lat="42.9139316" lon="12.1285448"><ele>546.0</ele><time>2026-04-19T10:14:18.077Z</time></trkpt><trkpt lat="42.913933" lon="12.1283649"><ele>546.0</ele><time>2026-04-19T10:14:19.05Z</time></trkpt><trkpt lat="42.9139898" lon="12.1281474"><ele>546.0</ele><time>2026-04-19T10:14:20.055Z</time></trkpt><trkpt lat="42.9141003" lon="12.1279217"><ele>543.5</ele><time>2026-04-19T10:14:21.064Z</time></trkpt><trkpt lat="42.9142356" lon="12.1277158"><ele>541.0</ele><time>2026-04-19T10:14:22.068Z</time></trkpt><trkpt lat="42.9144241" lon="12.1274898"><ele>537.0</ele><time>2026-04-19T10:14:23.085Z</time></trkpt><trkpt lat="42.9145814" lon="12.1272552"><ele>533.0</ele><time>2026-04-19T10:14:24.063Z</time></trkpt><trkpt lat="42.9147258" lon="12.1270172"><ele>533.0</ele><time>2026-04-19T10:14:25.051Z</time></trkpt><trkpt lat="42.9147726" lon="12.1268023"><ele>533.0</ele><time>2026-04-19T10:14:26.06Z</time></trkpt><trkpt lat="42.9148025" lon="12.1265295"><ele>533.0</ele><time>2026-04-19T10:14:27.084Z</time></trkpt><trkpt lat="42.9148689" lon="12.1262598"><ele>530.5</ele><time>2026-04-19T10:14:28.094Z</time></trkpt><trkpt lat="42.9149307" lon="12.1259439"><ele>528.0</ele><time>2026-04-19T10:14:29.095Z</time></trkpt><trkpt lat="42.9150117" lon="12.125644"><ele>524.5</ele><time>2026-04-19T10:14:30.085Z</time></trkpt><trkpt lat="42.9151135" lon="12.1253117"><ele>521.0</ele><time>2026-04-19T10:14:31.096Z</time></trkpt><trkpt lat="42.9152392" lon="12.1250149"><ele>519.3333333333333</ele><time>2026-04-19T10:14:32.072Z</time></trkpt><trkpt lat="42.9153181" lon="12.124766"><ele>517.6666666666666</ele><time>2026-04-19T10:14:33.068Z</time></trkpt><trkpt lat="42.9153264" lon="12.1245295"><ele>516.0</ele><time>2026-04-19T10:14:34.069Z</time></trkpt><trkpt lat="42.9152881" lon="12.1242932"><ele>516.0</ele><time>2026-04-19T10:14:35.073Z</time></trkpt><trkpt lat="42.915213" lon="12.1240717"><ele>516.0</ele><time>2026-04-19T10:14:36.061Z</time></trkpt><trkpt lat="42.9151267" lon="12.1238792"><ele>516.0</ele><time>2026-04-19T10:14:37.085Z</time></trkpt><trkpt lat="42.915065" lon="12.123685"><ele>513.75</ele><time>2026-04-19T10:14:38.071Z</time></trkpt><trkpt lat="42.9150149" lon="12.1234988"><ele>511.5</ele><time>2026-04-19T10:14:39.073Z</time></trkpt><trkpt lat="42.914997" lon="12.123329"><ele>509.25</ele><time>2026-04-19T10:14:40.078Z</time></trkpt><trkpt lat="42.9150014" lon="12.1231745"><ele>507.0</ele><time>2026-04-19T10:14:41.062Z</time></trkpt><trkpt lat="42.915004" lon="12.123044"><ele>506.3333333333333</ele><time>2026-04-19T10:14:42.062Z</time></trkpt><trkpt lat="42.9150172" lon="12.1229255"><ele>505.66666666666663</ele><time>2026-04-19T10:14:43.062Z</time></trkpt><trkpt lat="42.915029" lon="12.1228124"><ele>505.0</ele><time>2026-04-19T10:14:44.057Z</time></trkpt><trkpt lat="42.9150496" lon="12.1227084"><ele>504.3333333333333</ele><time>2026-04-19T10:14:45.068Z</time></trkpt><trkpt lat="42.915077" lon="12.1225988"><ele>503.66666666666663</ele><time>2026-04-19T10:14:46.057Z</time></trkpt><trkpt lat="42.9150721" lon="12.1225099"><ele>503.0</ele><time>2026-04-19T10:14:47.068Z</time></trkpt><trkpt lat="42.9167285" lon="12.1216117"><ele>504.66666666666663</ele><time>2026-04-19T10:15:05.032Z</time></trkpt><trkpt lat="42.9168053" lon="12.12138"><ele>506.33333333333337</ele><time>2026-04-19T10:15:06.053Z</time></trkpt><trkpt lat="42.9168156" lon="12.1211329"><ele>508.0</ele><time>2026-04-19T10:15:07.091Z</time></trkpt><trkpt lat="42.9167794" lon="12.1209287"><ele>506.0</ele><time>2026-04-19T10:15:08.069Z</time></trkpt><trkpt lat="42.9167057" lon="12.1207394"><ele>504.0</ele><time>2026-04-19T10:15:09.066Z</time></trkpt><trkpt lat="42.9166736" lon="12.1205502"><ele>502.0</ele><time>2026-04-19T10:15:10.09Z</time></trkpt><trkpt lat="42.9166129" lon="12.1203471"><ele>502.0</ele><time>2026-04-19T10:15:11.067Z</time></trkpt><trkpt lat="42.9165639" lon="12.1201453"><ele>502.0</ele><time>2026-04-19T10:15:12.089Z</time></trkpt><trkpt lat="42.9165126" lon="12.1199403"><ele>502.0</ele><time>2026-04-19T10:15:13.072Z</time></trkpt><trkpt lat="42.9164666" lon="12.1197245"><ele>500.0</ele><time>2026-04-19T10:15:14.09Z</time></trkpt><trkpt lat="42.9164459" lon="12.1195359"><ele>498.0</ele><time>2026-04-19T10:15:15.068Z</time></trkpt><trkpt lat="42.9164466" lon="12.119336"><ele>496.0</ele><time>2026-04-19T10:15:16.091Z</time></trkpt><trkpt lat="42.9164548" lon="12.1191604"><ele>494.0</ele><time>2026-04-19T10:15:17.068Z</time></trkpt><trkpt lat="42.9165" lon="12.1190311"><ele>494.0</ele><time>2026-04-19T10:15:18.07Z</time></trkpt><trkpt lat="42.9165948" lon="12.1188723"><ele>494.0</ele><time>2026-04-19T10:15:19.072Z</time></trkpt><trkpt lat="42.9167288" lon="12.1187709"><ele>494.0</ele><time>2026-04-19T10:15:20.069Z</time></trkpt><trkpt lat="42.9168887" lon="12.1186784"><ele>495.5</ele><time>2026-04-19T10:15:21.084Z</time></trkpt><trkpt lat="42.9169887" lon="12.1185356"><ele>497.0</ele><time>2026-04-19T10:15:22.085Z</time></trkpt><trkpt lat="42.9170432" lon="12.1183948"><ele>498.5</ele><time>2026-04-19T10:15:23.061Z</time></trkpt><trkpt lat="42.9170357" lon="12.1182456"><ele>500.0</ele><time>2026-04-19T10:15:24.068Z</time></trkpt><trkpt lat="42.9169603" lon="12.1181078"><ele>501.0</ele><time>2026-04-19T10:15:25.055Z</time></trkpt><trkpt lat="42.9169178" lon="12.1179198"><ele>502.0</ele><time>2026-04-19T10:15:26.057Z</time></trkpt><trkpt lat="42.9168666" lon="12.117717"><ele>503.0</ele><time>2026-04-19T10:15:27.075Z</time></trkpt><trkpt lat="42.9167943" lon="12.1174683"><ele>502.3333333333333</ele><time>2026-04-19T10:15:28.09Z</time></trkpt><trkpt lat="42.9167262" lon="12.1171907"><ele>501.66666666666663</ele><time>2026-04-19T10:15:29.076Z</time></trkpt><trkpt lat="42.916636" lon="12.1169008"><ele>501.0</ele><time>2026-04-19T10:15:30.098Z</time></trkpt><trkpt lat="42.9165638" lon="12.1166213"><ele>504.5</ele><time>2026-04-19T10:15:31.082Z</time></trkpt><trkpt lat="42.916477" lon="12.1163133"><ele>508.0</ele><time>2026-04-19T10:15:32.085Z</time></trkpt><trkpt lat="42.9163632" lon="12.1160394"><ele>508.0</ele><time>2026-04-19T10:15:33.084Z</time></trkpt><trkpt lat="42.9162133" lon="12.1157751"><ele>508.0</ele><time>2026-04-19T10:15:34.1Z</time></trkpt><trkpt lat="42.9160343" lon="12.1155351"><ele>509.0</ele><time>2026-04-19T10:15:35.093Z</time></trkpt><trkpt lat="42.9158316" lon="12.1153168"><ele>510.0</ele><time>2026-04-19T10:15:36.079Z</time></trkpt><trkpt lat="42.9156381" lon="12.1151077"><ele>510.0</ele><time>2026-04-19T10:15:37.068Z</time></trkpt><trkpt lat="42.915447" lon="12.1149056"><ele>510.0</ele><time>2026-04-19T10:15:38.073Z</time></trkpt><trkpt lat="42.9152707" lon="12.1146813"><ele>510.0</ele><time>2026-04-19T10:15:39.078Z</time></trkpt><trkpt lat="42.9151163" lon="12.1144644"><ele>510.0</ele><time>2026-04-19T10:15:40.086Z</time></trkpt><trkpt lat="42.9149852" lon="12.1142444"><ele>510.0</ele><time>2026-04-19T10:15:41.071Z</time></trkpt><trkpt lat="42.9148699" lon="12.1139881"><ele>507.33333333333337</ele><time>2026-04-19T10:15:42.069Z</time></trkpt><trkpt lat="42.9147919" lon="12.1137234"><ele>504.6666666666667</ele><time>2026-04-19T10:15:43.074Z</time></trkpt><trkpt lat="42.9147727" lon="12.1134464"><ele>502.0</ele><time>2026-04-19T10:15:44.074Z</time></trkpt><trkpt lat="42.9148012" lon="12.1131493"><ele>501.0</ele><time>2026-04-19T10:15:45.078Z</time></trkpt><trkpt lat="42.9148389" lon="12.1128734"><ele>500.0</ele><time>2026-04-19T10:15:46.083Z</time></trkpt><trkpt lat="42.9148724" lon="12.1126161"><ele>499.0</ele><time>2026-04-19T10:15:47.073Z</time></trkpt><trkpt lat="42.9149608" lon="12.1124627"><ele>498.5</ele><time>2026-04-19T10:15:48.069Z</time></trkpt><trkpt lat="42.9150337" lon="12.1123468"><ele>498.0</ele><time>2026-04-19T10:15:49.074Z</time></trkpt><trkpt lat="42.9151266" lon="12.1122356"><ele>497.5</ele><time>2026-04-19T10:15:50.072Z</time></trkpt><trkpt lat="42.9152471" lon="12.1121444"><ele>497.0</ele><time>2026-04-19T10:15:51.075Z</time></trkpt><trkpt lat="42.9155864" lon="12.1120834"><ele>494.0</ele><time>2026-04-19T10:15:53.069Z</time></trkpt><trkpt lat="42.91579" lon="12.1121613"><ele>491.0</ele><time>2026-04-19T10:15:54.071Z</time></trkpt><trkpt lat="42.9160254" lon="12.11221"><ele>489.0</ele><time>2026-04-19T10:15:55.071Z</time></trkpt><trkpt lat="42.9162569" lon="12.1122984"><ele>487.0</ele><time>2026-04-19T10:15:56.081Z</time></trkpt><trkpt lat="42.9164915" lon="12.1123465"><ele>487.0</ele><time>2026-04-19T10:15:57.076Z</time></trkpt><trkpt lat="42.9166639" lon="12.1123662"><ele>487.0</ele><time>2026-04-19T10:15:58.07Z</time></trkpt><trkpt lat="42.9168138" lon="12.1123303"><ele>487.0</ele><time>2026-04-19T10:15:59.073Z</time></trkpt><trkpt lat="42.9169215" lon="12.1122612"><ele>487.0</ele><time>2026-04-19T10:16:00.065Z</time></trkpt><trkpt lat="42.916963" lon="12.1121529"><ele>487.0</ele><time>2026-04-19T10:16:01.066Z</time></trkpt><trkpt lat="42.9169677" lon="12.1120536"><ele>487.0</ele><time>2026-04-19T10:16:02.075Z</time></trkpt><trkpt lat="42.9169402" lon="12.1119581"><ele>487.0</ele><time>2026-04-19T10:16:03.085Z</time></trkpt><trkpt lat="42.9168395" lon="12.1118242"><ele>487.0</ele><time>2026-04-19T10:16:04.061Z</time></trkpt><trkpt lat="42.9166611" lon="12.1116762"><ele>487.33333333333337</ele><time>2026-04-19T10:16:05.079Z</time></trkpt><trkpt lat="42.9165226" lon="12.1115115"><ele>487.66666666666663</ele><time>2026-04-19T10:16:06.069Z</time></trkpt><trkpt lat="42.9163597" lon="12.1113571"><ele>488.0</ele><time>2026-04-19T10:16:07.071Z</time></trkpt><trkpt lat="42.9162688" lon="12.1110463"><ele>489.5</ele><time>2026-04-19T10:16:08.074Z</time></trkpt><trkpt lat="42.9162133" lon="12.1106923"><ele>491.0</ele><time>2026-04-19T10:16:09.073Z</time></trkpt><trkpt lat="42.916178" lon="12.1103368"><ele>491.0</ele><time>2026-04-19T10:16:10.073Z</time></trkpt><trkpt lat="42.9161137" lon="12.1099851"><ele>491.0</ele><time>2026-04-19T10:16:11.071Z</time></trkpt><trkpt lat="42.9160457" lon="12.10965"><ele>492.5</ele><time>2026-04-19T10:16:12.067Z</time></trkpt><trkpt lat="42.9159653" lon="12.1093286"><ele>494.0</ele><time>2026-04-19T10:16:13.072Z</time></trkpt><trkpt lat="42.9158797" lon="12.1090396"><ele>494.0</ele><time>2026-04-19T10:16:14.072Z</time></trkpt><trkpt lat="42.9157571" lon="12.1088021"><ele>494.0</ele><time>2026-04-19T10:16:15.071Z</time></trkpt><trkpt lat="42.9155915" lon="12.1085977"><ele>494.0</ele><time>2026-04-19T10:16:16.068Z</time></trkpt><trkpt lat="42.9154045" lon="12.1083977"><ele>493.0</ele><time>2026-04-19T10:16:17.069Z</time></trkpt><trkpt lat="42.9151749" lon="12.108213"><ele>492.0</ele><time>2026-04-19T10:16:18.07Z</time></trkpt><trkpt lat="42.9149375" lon="12.1080489"><ele>490.5</ele><time>2026-04-19T10:16:19.065Z</time></trkpt><trkpt lat="42.9147222" lon="12.1078831"><ele>489.0</ele><time>2026-04-19T10:16:20.067Z</time></trkpt><trkpt lat="42.9145132" lon="12.1077494"><ele>489.0</ele><time>2026-04-19T10:16:21.072Z</time></trkpt><trkpt lat="42.9143004" lon="12.1075629"><ele>489.0</ele><time>2026-04-19T10:16:22.079Z</time></trkpt><trkpt lat="42.9141414" lon="12.1073635"><ele>488.0</ele><time>2026-04-19T10:16:23.07Z</time></trkpt><trkpt lat="42.9140177" lon="12.1071368"><ele>487.0</ele><time>2026-04-19T10:16:24.073Z</time></trkpt><trkpt lat="42.9139485" lon="12.10688"><ele>486.0</ele><time>2026-04-19T10:16:25.081Z</time></trkpt><trkpt lat="42.9138888" lon="12.1066494"><ele>483.66666666666663</ele><time>2026-04-19T10:16:26.068Z</time></trkpt><trkpt lat="42.9138542" lon="12.1064307"><ele>481.3333333333333</ele><time>2026-04-19T10:16:27.079Z</time></trkpt><trkpt lat="42.9138812" lon="12.1062064"><ele>479.0</ele><time>2026-04-19T10:16:28.076Z</time></trkpt><trkpt lat="42.9139854" lon="12.1059998"><ele>479.0</ele><time>2026-04-19T10:16:29.062Z</time></trkpt><trkpt lat="42.9141028" lon="12.1058338"><ele>479.0</ele><time>2026-04-19T10:16:30.072Z</time></trkpt><trkpt lat="42.914227" lon="12.1056971"><ele>479.0</ele><time>2026-04-19T10:16:31.07Z</time></trkpt><trkpt lat="42.9144024" lon="12.1056079"><ele>473.0</ele><time>2026-04-19T10:16:32.061Z</time></trkpt><trkpt lat="42.9145948" lon="12.1056053"><ele>467.0</ele><time>2026-04-19T10:16:33.072Z</time></trkpt><trkpt lat="42.9148121" lon="12.1056325"><ele>461.0</ele><time>2026-04-19T10:16:34.061Z</time></trkpt><trkpt lat="42.9150028" lon="12.1056643"><ele>462.0</ele><time>2026-04-19T10:16:35.071Z</time></trkpt><trkpt lat="42.9151998" lon="12.1057037"><ele>463.0</ele><time>2026-04-19T10:16:36.071Z</time></trkpt><trkpt lat="42.9153811" lon="12.105768"><ele>464.0</ele><time>2026-04-19T10:16:37.069Z</time></trkpt><trkpt lat="42.9155803" lon="12.1058632"><ele>464.0</ele><time>2026-04-19T10:16:38.071Z</time></trkpt><trkpt lat="42.9157841" lon="12.106075"><ele>464.0</ele><time>2026-04-19T10:16:39.076Z</time></trkpt><trkpt lat="42.9159494" lon="12.1063307"><ele>464.0</ele><time>2026-04-19T10:16:40.075Z</time></trkpt><trkpt lat="42.9161224" lon="12.1065288"><ele>464.0</ele><time>2026-04-19T10:16:41.072Z</time></trkpt><trkpt lat="42.9162835" lon="12.1067019"><ele>464.0</ele><time>2026-04-19T10:16:42.072Z</time></trkpt><trkpt lat="42.9164505" lon="12.106847"><ele>464.0</ele><time>2026-04-19T10:16:43.062Z</time></trkpt><trkpt lat="42.9166432" lon="12.1069709"><ele>464.0</ele><time>2026-04-19T10:16:44.078Z</time></trkpt><trkpt lat="42.9168473" lon="12.1070028"><ele>464.0</ele><time>2026-04-19T10:16:45.067Z</time></trkpt><trkpt lat="42.9170097" lon="12.106976"><ele>464.0</ele><time>2026-04-19T10:16:46.071Z</time></trkpt><trkpt lat="42.9171128" lon="12.1068912"><ele>464.0</ele><time>2026-04-19T10:16:47.085Z</time></trkpt><trkpt lat="42.917189" lon="12.1067855"><ele>464.0</ele><time>2026-04-19T10:16:48.071Z</time></trkpt><trkpt lat="42.9172159" lon="12.1066479"><ele>464.0</ele><time>2026-04-19T10:16:49.078Z</time></trkpt><trkpt lat="42.9171865" lon="12.1064668"><ele>466.3333333333333</ele><time>2026-04-19T10:16:50.076Z</time></trkpt><trkpt lat="42.9171202" lon="12.1062905"><ele>468.66666666666663</ele><time>2026-04-19T10:16:51.072Z</time></trkpt><trkpt lat="42.9170324" lon="12.1060793"><ele>471.0</ele><time>2026-04-19T10:16:52.066Z</time></trkpt><trkpt lat="42.9169061" lon="12.1058303"><ele>473.0</ele><time>2026-04-19T10:16:53.069Z</time></trkpt><trkpt lat="42.9167569" lon="12.1055548"><ele>475.0</ele><time>2026-04-19T10:16:54.076Z</time></trkpt><trkpt lat="42.9165815" lon="12.1052874"><ele>475.0</ele><time>2026-04-19T10:16:55.078Z</time></trkpt><trkpt lat="42.9163941" lon="12.1050018"><ele>475.0</ele><time>2026-04-19T10:16:56.079Z</time></trkpt><trkpt lat="42.9162289" lon="12.1046671"><ele>483.0</ele><time>2026-04-19T10:16:57.077Z</time></trkpt><trkpt lat="42.9160954" lon="12.1043636"><ele>491.0</ele><time>2026-04-19T10:16:58.073Z</time></trkpt><trkpt lat="42.915959" lon="12.1040489"><ele>491.5</ele><time>2026-04-19T10:16:59.082Z</time></trkpt><trkpt lat="42.9158072" lon="12.1037745"><ele>492.0</ele><time>2026-04-19T10:17:00.07Z</time></trkpt><trkpt lat="42.9156525" lon="12.1035295"><ele>492.0</ele><time>2026-04-19T10:17:01.074Z</time></trkpt><trkpt lat="42.915501" lon="12.1033066"><ele>492.0</ele><time>2026-04-19T10:17:02.067Z</time></trkpt><trkpt lat="42.9153259" lon="12.1030758"><ele>495.5</ele><time>2026-04-19T10:17:03.072Z</time></trkpt><trkpt lat="42.9151442" lon="12.1028651"><ele>499.0</ele><time>2026-04-19T10:17:04.08Z</time></trkpt><trkpt lat="42.9149523" lon="12.1026837"><ele>499.0</ele><time>2026-04-19T10:17:05.067Z</time></trkpt><trkpt lat="42.9147486" lon="12.1025183"><ele>499.0</ele><time>2026-04-19T10:17:06.07Z</time></trkpt><trkpt lat="42.9145494" lon="12.1023689"><ele>498.6666666666667</ele><time>2026-04-19T10:17:07.07Z</time></trkpt><trkpt lat="42.9143587" lon="12.1022113"><ele>498.33333333333337</ele><time>2026-04-19T10:17:08.063Z</time></trkpt><trkpt lat="42.914203" lon="12.1020872"><ele>498.0</ele><time>2026-04-19T10:17:09.066Z</time></trkpt><trkpt lat="42.9140535" lon="12.1019481"><ele>498.0</ele><time>2026-04-19T10:17:10.076Z</time></trkpt><trkpt lat="42.9139209" lon="12.1018282"><ele>498.0</ele><time>2026-04-19T10:17:11.056Z</time></trkpt><trkpt lat="42.9138152" lon="12.1016992"><ele>498.0</ele><time>2026-04-19T10:17:12.065Z</time></trkpt><trkpt lat="42.9137502" lon="12.1015037"><ele>499.0</ele><time>2026-04-19T10:17:13.061Z</time></trkpt><trkpt lat="42.9137191" lon="12.1012702"><ele>500.0</ele><time>2026-04-19T10:17:14.06Z</time></trkpt><trkpt lat="42.9137005" lon="12.1010385"><ele>501.0</ele><time>2026-04-19T10:17:15.083Z</time></trkpt><trkpt lat="42.9136787" lon="12.1008037"><ele>501.0</ele><time>2026-04-19T10:17:16.072Z</time></trkpt><trkpt lat="42.9136531" lon="12.1005999"><ele>501.0</ele><time>2026-04-19T10:17:17.067Z</time></trkpt><trkpt lat="42.9136484" lon="12.1003832"><ele>501.0</ele><time>2026-04-19T10:17:18.078Z</time></trkpt><trkpt lat="42.9136789" lon="12.100238"><ele>501.0</ele><time>2026-04-19T10:17:19.066Z</time></trkpt><trkpt lat="42.9137037" lon="12.1001189"><ele>501.0</ele><time>2026-04-19T10:17:20.078Z</time></trkpt><trkpt lat="42.9137456" lon="12.0999776"><ele>501.0</ele><time>2026-04-19T10:17:21.077Z</time></trkpt><trkpt lat="42.9138036" lon="12.0998787"><ele>501.0</ele><time>2026-04-19T10:17:22.073Z</time></trkpt><trkpt lat="42.9139424" lon="12.099849"><ele>501.0</ele><time>2026-04-19T10:17:23.067Z</time></trkpt><trkpt lat="42.9141311" lon="12.0998581"><ele>496.0</ele><time>2026-04-19T10:17:24.078Z</time></trkpt><trkpt lat="42.9143752" lon="12.0999357"><ele>491.0</ele><time>2026-04-19T10:17:25.073Z</time></trkpt><trkpt lat="42.9146229" lon="12.0999925"><ele>491.0</ele><time>2026-04-19T10:17:26.069Z</time></trkpt><trkpt lat="42.9148974" lon="12.1000531"><ele>491.0</ele><time>2026-04-19T10:17:27.072Z</time></trkpt><trkpt lat="42.9151757" lon="12.1000984"><ele>485.5</ele><time>2026-04-19T10:17:28.086Z</time></trkpt><trkpt lat="42.9154451" lon="12.1001468"><ele>480.0</ele><time>2026-04-19T10:17:29.073Z</time></trkpt><trkpt lat="42.9157011" lon="12.1001635"><ele>479.0</ele><time>2026-04-19T10:17:30.079Z</time></trkpt><trkpt lat="42.9159541" lon="12.100181"><ele>478.0</ele><time>2026-04-19T10:17:31.061Z</time></trkpt><trkpt lat="42.9161907" lon="12.1001947"><ele>478.0</ele><time>2026-04-19T10:17:32.072Z</time></trkpt><trkpt lat="42.9164224" lon="12.1002224"><ele>478.0</ele><time>2026-04-19T10:17:33.075Z</time></trkpt><trkpt lat="42.9166211" lon="12.1002414"><ele>478.0</ele><time>2026-04-19T10:17:34.063Z</time></trkpt><trkpt lat="42.9167945" lon="12.1002501"><ele>479.25</ele><time>2026-04-19T10:17:35.068Z</time></trkpt><trkpt lat="42.9169426" lon="12.1002187"><ele>480.5</ele><time>2026-04-19T10:17:36.067Z</time></trkpt><trkpt lat="42.9170585" lon="12.1001465"><ele>481.75</ele><time>2026-04-19T10:17:37.067Z</time></trkpt><trkpt lat="42.9171353" lon="12.1000441"><ele>483.0</ele><time>2026-04-19T10:17:38.076Z</time></trkpt><trkpt lat="42.9171875" lon="12.0999072"><ele>485.0</ele><time>2026-04-19T10:17:39.068Z</time></trkpt><trkpt lat="42.9171819" lon="12.0997352"><ele>487.0</ele><time>2026-04-19T10:17:40.074Z</time></trkpt><trkpt lat="42.9171863" lon="12.0995869"><ele>489.0</ele><time>2026-04-19T10:17:41.081Z</time></trkpt><trkpt lat="42.9171093" lon="12.0994957"><ele>491.0</ele><time>2026-04-19T10:17:42.075Z</time></trkpt><trkpt lat="42.9169958" lon="12.0994329"><ele>491.0</ele><time>2026-04-19T10:17:43.08Z</time></trkpt><trkpt lat="42.9168778" lon="12.0993758"><ele>491.0</ele><time>2026-04-19T10:17:44.079Z</time></trkpt><trkpt lat="42.9167995" lon="12.0993033"><ele>491.0</ele><time>2026-04-19T10:17:45.077Z</time></trkpt><trkpt lat="42.9166983" lon="12.0992416"><ele>491.0</ele><time>2026-04-19T10:17:46.069Z</time></trkpt><trkpt lat="42.916596" lon="12.0991651"><ele>491.0</ele><time>2026-04-19T10:17:47.079Z</time></trkpt><trkpt lat="42.9165533" lon="12.0990234"><ele>490.5</ele><time>2026-04-19T10:17:48.075Z</time></trkpt><trkpt lat="42.916513" lon="12.0988783"><ele>490.0</ele><time>2026-04-19T10:17:49.062Z</time></trkpt><trkpt lat="42.916518" lon="12.098703"><ele>489.5</ele><time>2026-04-19T10:17:50.075Z</time></trkpt><trkpt lat="42.9166101" lon="12.0985175"><ele>489.0</ele><time>2026-04-19T10:17:51.078Z</time></trkpt><trkpt lat="42.9167706" lon="12.0983283"><ele>491.0</ele><time>2026-04-19T10:17:52.081Z</time></trkpt><trkpt lat="42.9169528" lon="12.0981308"><ele>493.0</ele><time>2026-04-19T10:17:53.062Z</time></trkpt><trkpt lat="42.917143" lon="12.097959"><ele>493.0</ele><time>2026-04-19T10:17:54.082Z</time></trkpt><trkpt lat="42.9173706" lon="12.0977977"><ele>493.0</ele><time>2026-04-19T10:17:55.061Z</time></trkpt><trkpt lat="42.9175729" lon="12.0976956"><ele>493.5</ele><time>2026-04-19T10:17:56.083Z</time></trkpt><trkpt lat="42.917808" lon="12.0976917"><ele>494.0</ele><time>2026-04-19T10:17:57.064Z</time></trkpt><trkpt lat="42.9180424" lon="12.0976878"><ele>494.0</ele><time>2026-04-19T10:17:58.079Z</time></trkpt><trkpt lat="42.9182517" lon="12.0976843"><ele>494.0</ele><time>2026-04-19T10:17:59.074Z</time></trkpt><trkpt lat="42.918486" lon="12.0976609"><ele>494.0</ele><time>2026-04-19T10:18:00.07Z</time></trkpt><trkpt lat="42.9187174" lon="12.0975954"><ele>495.5</ele><time>2026-04-19T10:18:01.087Z</time></trkpt><trkpt lat="42.9189712" lon="12.0975423"><ele>497.0</ele><time>2026-04-19T10:18:02.081Z</time></trkpt><trkpt lat="42.9192325" lon="12.0974752"><ele>499.66666666666663</ele><time>2026-04-19T10:18:03.073Z</time></trkpt><trkpt lat="42.9194569" lon="12.0974055"><ele>502.33333333333337</ele><time>2026-04-19T10:18:04.076Z</time></trkpt><trkpt lat="42.9196493" lon="12.0973312"><ele>505.0</ele><time>2026-04-19T10:18:05.082Z</time></trkpt><trkpt lat="42.9198196" lon="12.0972388"><ele>505.0</ele><time>2026-04-19T10:18:06.073Z</time></trkpt><trkpt lat="42.9199447" lon="12.0971279"><ele>505.0</ele><time>2026-04-19T10:18:07.085Z</time></trkpt><trkpt lat="42.9200438" lon="12.0970004"><ele>505.0</ele><time>2026-04-19T10:18:08.066Z</time></trkpt><trkpt lat="42.9200937" lon="12.096819"><ele>505.0</ele><time>2026-04-19T10:18:09.059Z</time></trkpt><trkpt lat="42.9200342" lon="12.0966076"><ele>508.33333333333337</ele><time>2026-04-19T10:18:10.06Z</time></trkpt><trkpt lat="42.9199256" lon="12.0964029"><ele>511.66666666666663</ele><time>2026-04-19T10:18:11.073Z</time></trkpt><trkpt lat="42.9198001" lon="12.0962171"><ele>515.0</ele><time>2026-04-19T10:18:12.067Z</time></trkpt><trkpt lat="42.9196574" lon="12.0960688"><ele>515.0</ele><time>2026-04-19T10:18:13.073Z</time></trkpt><trkpt lat="42.9194866" lon="12.0960132"><ele>515.0</ele><time>2026-04-19T10:18:14.063Z</time></trkpt><trkpt lat="42.9192657" lon="12.0960167"><ele>515.0</ele><time>2026-04-19T10:18:15.074Z</time></trkpt><trkpt lat="42.9190254" lon="12.0960334"><ele>515.0</ele><time>2026-04-19T10:18:16.067Z</time></trkpt><trkpt lat="42.9188046" lon="12.0960393"><ele>515.0</ele><time>2026-04-19T10:18:17.086Z</time></trkpt><trkpt lat="42.9185951" lon="12.0959838"><ele>515.0</ele><time>2026-04-19T10:18:18.066Z</time></trkpt><trkpt lat="42.9183918" lon="12.0958986"><ele>515.3333333333333</ele><time>2026-04-19T10:18:19.085Z</time></trkpt><trkpt lat="42.9182003" lon="12.0957979"><ele>515.6666666666666</ele><time>2026-04-19T10:18:20.066Z</time></trkpt><trkpt lat="42.9180372" lon="12.0956727"><ele>516.0</ele><time>2026-04-19T10:18:21.071Z</time></trkpt><trkpt lat="42.9178895" lon="12.0955487"><ele>517.25</ele><time>2026-04-19T10:18:22.079Z</time></trkpt><trkpt lat="42.9177881" lon="12.0954467"><ele>518.5</ele><time>2026-04-19T10:18:23.082Z</time></trkpt><trkpt lat="42.9177616" lon="12.0952624"><ele>519.75</ele><time>2026-04-19T10:18:25.081Z</time></trkpt><trkpt lat="42.9177848" lon="12.0951276"><ele>521.0</ele><time>2026-04-19T10:18:26.094Z</time></trkpt><trkpt lat="42.9178443" lon="12.0949922"><ele>522.6666666666666</ele><time>2026-04-19T10:18:27.067Z</time></trkpt><trkpt lat="42.9179229" lon="12.0948219"><ele>524.3333333333334</ele><time>2026-04-19T10:18:28.075Z</time></trkpt><trkpt lat="42.9180085" lon="12.0946326"><ele>526.0</ele><time>2026-04-19T10:18:29.083Z</time></trkpt><trkpt lat="42.9180782" lon="12.094407"><ele>526.0</ele><time>2026-04-19T10:18:30.081Z</time></trkpt><trkpt lat="42.9181574" lon="12.0941632"><ele>526.0</ele><time>2026-04-19T10:18:31.082Z</time></trkpt><trkpt lat="42.9182318" lon="12.0939149"><ele>526.0</ele><time>2026-04-19T10:18:32.086Z</time></trkpt><trkpt lat="42.9183056" lon="12.0936481"><ele>526.6666666666667</ele><time>2026-04-19T10:18:33.077Z</time></trkpt><trkpt lat="42.9183631" lon="12.0933592"><ele>527.3333333333334</ele><time>2026-04-19T10:18:34.086Z</time></trkpt><trkpt lat="42.9184133" lon="12.0930716"><ele>528.0</ele><time>2026-04-19T10:18:35.083Z</time></trkpt><trkpt lat="42.9184722" lon="12.0927864"><ele>531.3333333333334</ele><time>2026-04-19T10:18:36.086Z</time></trkpt><trkpt lat="42.9185233" lon="12.0925053"><ele>534.6666666666667</ele><time>2026-04-19T10:18:37.087Z</time></trkpt><trkpt lat="42.9185752" lon="12.0922373"><ele>538.0</ele><time>2026-04-19T10:18:38.099Z</time></trkpt><trkpt lat="42.9186309" lon="12.0919692"><ele>538.0</ele><time>2026-04-19T10:18:39.079Z</time></trkpt><trkpt lat="42.9187035" lon="12.0917111"><ele>538.0</ele><time>2026-04-19T10:18:40.079Z</time></trkpt><trkpt lat="42.9188158" lon="12.0914778"><ele>538.0</ele><time>2026-04-19T10:18:41.072Z</time></trkpt><trkpt lat="42.9189352" lon="12.0912657"><ele>537.0</ele><time>2026-04-19T10:18:42.082Z</time></trkpt><trkpt lat="42.919062" lon="12.0910502"><ele>536.0</ele><time>2026-04-19T10:18:43.08Z</time></trkpt><trkpt lat="42.9191983" lon="12.0908478"><ele>535.0</ele><time>2026-04-19T10:18:44.079Z</time></trkpt><trkpt lat="42.9193311" lon="12.0906464"><ele>535.0</ele><time>2026-04-19T10:18:45.075Z</time></trkpt><trkpt lat="42.9194825" lon="12.0904907"><ele>535.0</ele><time>2026-04-19T10:18:46.077Z</time></trkpt><trkpt lat="42.9196431" lon="12.090349"><ele>535.0</ele><time>2026-04-19T10:18:47.075Z</time></trkpt><trkpt lat="42.91981" lon="12.0902245"><ele>535.0</ele><time>2026-04-19T10:18:48.076Z</time></trkpt><trkpt lat="42.9199714" lon="12.0901044"><ele>535.0</ele><time>2026-04-19T10:18:49.075Z</time></trkpt><trkpt lat="42.9201535" lon="12.0900043"><ele>535.0</ele><time>2026-04-19T10:18:50.086Z</time></trkpt><trkpt lat="42.9203375" lon="12.089913"><ele>534.6666666666667</ele><time>2026-04-19T10:18:51.078Z</time></trkpt><trkpt lat="42.9205259" lon="12.0898254"><ele>534.3333333333334</ele><time>2026-04-19T10:18:52.064Z</time></trkpt><trkpt lat="42.9207214" lon="12.0897411"><ele>534.0</ele><time>2026-04-19T10:18:53.072Z</time></trkpt><trkpt lat="42.9209166" lon="12.0896546"><ele>534.0</ele><time>2026-04-19T10:18:54.078Z</time></trkpt><trkpt lat="42.9211076" lon="12.089569"><ele>534.0</ele><time>2026-04-19T10:18:55.105Z</time></trkpt><trkpt lat="42.9212945" lon="12.0894886"><ele>534.0</ele><time>2026-04-19T10:18:56.065Z</time></trkpt><trkpt lat="42.9214782" lon="12.0894103"><ele>534.0</ele><time>2026-04-19T10:18:57.061Z</time></trkpt><trkpt lat="42.9216678" lon="12.0893642"><ele>534.0</ele><time>2026-04-19T10:18:58.086Z</time></trkpt><trkpt lat="42.9218545" lon="12.0893667"><ele>534.0</ele><time>2026-04-19T10:18:59.077Z</time></trkpt><trkpt lat="42.9220507" lon="12.0893825"><ele>532.0</ele><time>2026-04-19T10:19:00.081Z</time></trkpt><trkpt lat="42.9222612" lon="12.0894336"><ele>530.0</ele><time>2026-04-19T10:19:01.088Z</time></trkpt><trkpt lat="42.9224894" lon="12.089508"><ele>528.0</ele><time>2026-04-19T10:19:02.07Z</time></trkpt><trkpt lat="42.9227233" lon="12.0896024"><ele>526.5</ele><time>2026-04-19T10:19:03.091Z</time></trkpt><trkpt lat="42.9229701" lon="12.0897147"><ele>525.0</ele><time>2026-04-19T10:19:04.081Z</time></trkpt><trkpt lat="42.9231991" lon="12.0898177"><ele>528.3333333333334</ele><time>2026-04-19T10:19:05.065Z</time></trkpt><trkpt lat="42.9233992" lon="12.0899182"><ele>531.6666666666667</ele><time>2026-04-19T10:19:06.068Z</time></trkpt><trkpt lat="42.9235875" lon="12.0899741"><ele>535.0</ele><time>2026-04-19T10:19:07.071Z</time></trkpt><trkpt lat="42.9237451" lon="12.0899875"><ele>535.0</ele><time>2026-04-19T10:19:08.088Z</time></trkpt><trkpt lat="42.9238904" lon="12.0899329"><ele>535.0</ele><time>2026-04-19T10:19:09.063Z</time></trkpt><trkpt lat="42.9240228" lon="12.0898006"><ele>535.0</ele><time>2026-04-19T10:19:10.071Z</time></trkpt><trkpt lat="42.9241301" lon="12.0896462"><ele>536.0</ele><time>2026-04-19T10:19:11.077Z</time></trkpt><trkpt lat="42.9242485" lon="12.0894512"><ele>537.0</ele><time>2026-04-19T10:19:12.061Z</time></trkpt><trkpt lat="42.924362" lon="12.0892203"><ele>538.0</ele><time>2026-04-19T10:19:13.074Z</time></trkpt><trkpt lat="42.9244533" lon="12.0889622"><ele>538.0</ele><time>2026-04-19T10:19:14.064Z</time></trkpt><trkpt lat="42.9245432" lon="12.0886871"><ele>538.0</ele><time>2026-04-19T10:19:15.058Z</time></trkpt><trkpt lat="42.9246441" lon="12.088393"><ele>530.5</ele><time>2026-04-19T10:19:16.071Z</time></trkpt><trkpt lat="42.9247666" lon="12.0880797"><ele>523.0</ele><time>2026-04-19T10:19:17.087Z</time></trkpt><trkpt lat="42.9248992" lon="12.0877699"><ele>523.0</ele><time>2026-04-19T10:19:18.084Z</time></trkpt><trkpt lat="42.9250406" lon="12.0874603"><ele>523.0</ele><time>2026-04-19T10:19:19.081Z</time></trkpt><trkpt lat="42.9251884" lon="12.0871739"><ele>521.5</ele><time>2026-04-19T10:19:20.067Z</time></trkpt><trkpt lat="42.9253517" lon="12.086887"><ele>520.0</ele><time>2026-04-19T10:19:21.074Z</time></trkpt><trkpt lat="42.9255278" lon="12.0865903"><ele>516.0</ele><time>2026-04-19T10:19:22.065Z</time></trkpt><trkpt lat="42.9257137" lon="12.0863091"><ele>512.0</ele><time>2026-04-19T10:19:23.057Z</time></trkpt><trkpt lat="42.9259007" lon="12.0860374"><ele>512.0</ele><time>2026-04-19T10:19:24.077Z</time></trkpt><trkpt lat="42.9260852" lon="12.0857689"><ele>512.0</ele><time>2026-04-19T10:19:25.06Z</time></trkpt><trkpt lat="42.9262586" lon="12.0855112"><ele>511.0</ele><time>2026-04-19T10:19:26.074Z</time></trkpt><trkpt lat="42.9264218" lon="12.0852806"><ele>510.0</ele><time>2026-04-19T10:19:27.095Z</time></trkpt><trkpt lat="42.9265639" lon="12.085071"><ele>509.0</ele><time>2026-04-19T10:19:28.059Z</time></trkpt><trkpt lat="42.9267027" lon="12.0848968"><ele>506.0</ele><time>2026-04-19T10:19:29.064Z</time></trkpt><trkpt lat="42.926834" lon="12.0847589"><ele>503.0</ele><time>2026-04-19T10:19:30.119Z</time></trkpt><trkpt lat="42.9269487" lon="12.0846338"><ele>500.0</ele><time>2026-04-19T10:19:31.073Z</time></trkpt><trkpt lat="42.9270611" lon="12.0845464"><ele>497.0</ele><time>2026-04-19T10:19:32.06Z</time></trkpt><trkpt lat="42.9271901" lon="12.0845414"><ele>497.0</ele><time>2026-04-19T10:19:33.062Z</time></trkpt><trkpt lat="42.9273322" lon="12.0846369"><ele>497.0</ele><time>2026-04-19T10:19:34.055Z</time></trkpt><trkpt lat="42.9274565" lon="12.084776"><ele>497.0</ele><time>2026-04-19T10:19:35.063Z</time></trkpt><trkpt lat="42.9275892" lon="12.0849348"><ele>494.0</ele><time>2026-04-19T10:19:36.062Z</time></trkpt><trkpt lat="42.9277182" lon="12.0851145"><ele>491.0</ele><time>2026-04-19T10:19:37.081Z</time></trkpt><trkpt lat="42.927843" lon="12.0853183"><ele>488.0</ele><time>2026-04-19T10:19:38.071Z</time></trkpt><trkpt lat="42.9279519" lon="12.0855494"><ele>488.0</ele><time>2026-04-19T10:19:39.07Z</time></trkpt><trkpt lat="42.9280444" lon="12.0857243"><ele>488.0</ele><time>2026-04-19T10:19:40.066Z</time></trkpt><trkpt lat="42.9281291" lon="12.0858708"><ele>488.0</ele><time>2026-04-19T10:19:41.072Z</time></trkpt><trkpt lat="42.9282097" lon="12.0859983"><ele>488.0</ele><time>2026-04-19T10:19:42.066Z</time></trkpt><trkpt lat="42.9283139" lon="12.0861108"><ele>490.4</ele><time>2026-04-19T10:19:43.067Z</time></trkpt><trkpt lat="42.9284059" lon="12.0861583"><ele>492.79999999999995</ele><time>2026-04-19T10:19:44.066Z</time></trkpt><trkpt lat="42.9284929" lon="12.0861556"><ele>495.2</ele><time>2026-04-19T10:19:45.072Z</time></trkpt><trkpt lat="42.9285781" lon="12.0860027"><ele>497.6</ele><time>2026-04-19T10:19:47.074Z</time></trkpt><trkpt lat="42.9286556" lon="12.0859236"><ele>500.0</ele><time>2026-04-19T10:19:48.06Z</time></trkpt><trkpt lat="42.9287372" lon="12.0858107"><ele>499.0</ele><time>2026-04-19T10:19:49.072Z</time></trkpt><trkpt lat="42.9288212" lon="12.0856384"><ele>498.0</ele><time>2026-04-19T10:19:50.07Z</time></trkpt><trkpt lat="42.9289068" lon="12.0854391"><ele>497.0</ele><time>2026-04-19T10:19:51.071Z</time></trkpt><trkpt lat="42.9290052" lon="12.0852397"><ele>497.0</ele><time>2026-04-19T10:19:52.066Z</time></trkpt><trkpt lat="42.9291076" lon="12.0850595"><ele>497.0</ele><time>2026-04-19T10:19:53.097Z</time></trkpt><trkpt lat="42.9292169" lon="12.0848993"><ele>497.0</ele><time>2026-04-19T10:19:54.078Z</time></trkpt><trkpt lat="42.9293305" lon="12.0847326"><ele>496.3333333333333</ele><time>2026-04-19T10:19:55.078Z</time></trkpt><trkpt lat="42.92947" lon="12.0845957"><ele>495.66666666666663</ele><time>2026-04-19T10:19:56.065Z</time></trkpt><trkpt lat="42.9296502" lon="12.0844904"><ele>495.0</ele><time>2026-04-19T10:19:57.066Z</time></trkpt><trkpt lat="42.9298846" lon="12.0844276"><ele>496.0</ele><time>2026-04-19T10:19:58.06Z</time></trkpt><trkpt lat="42.9301358" lon="12.0843964"><ele>497.0</ele><time>2026-04-19T10:19:59.077Z</time></trkpt><trkpt lat="42.9303797" lon="12.0843778"><ele>497.0</ele><time>2026-04-19T10:20:00.068Z</time></trkpt><trkpt lat="42.930627" lon="12.0843631"><ele>497.0</ele><time>2026-04-19T10:20:01.066Z</time></trkpt><trkpt lat="42.9308597" lon="12.0843588"><ele>495.0</ele><time>2026-04-19T10:20:02.068Z</time></trkpt><trkpt lat="42.9310824" lon="12.0843943"><ele>493.0</ele><time>2026-04-19T10:20:03.064Z</time></trkpt><trkpt lat="42.9312755" lon="12.0844704"><ele>491.0</ele><time>2026-04-19T10:20:04.091Z</time></trkpt><trkpt lat="42.9314515" lon="12.084579"><ele>491.0</ele><time>2026-04-19T10:20:05.067Z</time></trkpt><trkpt lat="42.9315808" lon="12.0847066"><ele>491.0</ele><time>2026-04-19T10:20:06.071Z</time></trkpt><trkpt lat="42.9316696" lon="12.0848905"><ele>491.0</ele><time>2026-04-19T10:20:07.074Z</time></trkpt><trkpt lat="42.9317332" lon="12.0850615"><ele>490.3333333333333</ele><time>2026-04-19T10:20:08.063Z</time></trkpt><trkpt lat="42.931791" lon="12.0851945"><ele>489.66666666666663</ele><time>2026-04-19T10:20:09.076Z</time></trkpt><trkpt lat="42.9318468" lon="12.0852914"><ele>489.0</ele><time>2026-04-19T10:20:10.068Z</time></trkpt><trkpt lat="42.931913" lon="12.085378"><ele>488.33333333333337</ele><time>2026-04-19T10:20:11.071Z</time></trkpt><trkpt lat="42.9319609" lon="12.0854637"><ele>487.6666666666667</ele><time>2026-04-19T10:20:12.071Z</time></trkpt><trkpt lat="42.9320148" lon="12.0855105"><ele>487.0</ele><time>2026-04-19T10:20:13.075Z</time></trkpt><trkpt lat="42.9320743" lon="12.0855508"><ele>487.00000000000006</ele><time>2026-04-19T10:20:14.075Z</time></trkpt><trkpt lat="42.9321441" lon="12.0855165"><ele>487.0</ele><time>2026-04-19T10:20:15.07Z</time></trkpt><trkpt lat="42.932189" lon="12.0854365"><ele>487.0</ele><time>2026-04-19T10:20:16.075Z</time></trkpt><trkpt lat="42.9322114" lon="12.085318"><ele>487.0</ele><time>2026-04-19T10:20:17.073Z</time></trkpt><trkpt lat="42.9322263" lon="12.0851796"><ele>487.00000000000006</ele><time>2026-04-19T10:20:18.067Z</time></trkpt><trkpt lat="42.9322415" lon="12.0850339"><ele>487.0</ele><time>2026-04-19T10:20:19.078Z</time></trkpt><trkpt lat="42.9322651" lon="12.084892"><ele>485.75</ele><time>2026-04-19T10:20:20.078Z</time></trkpt><trkpt lat="42.932299" lon="12.084748"><ele>484.5</ele><time>2026-04-19T10:20:21.075Z</time></trkpt><trkpt lat="42.9323417" lon="12.0845953"><ele>483.25</ele><time>2026-04-19T10:20:22.071Z</time></trkpt><trkpt lat="42.9323992" lon="12.0844464"><ele>482.0</ele><time>2026-04-19T10:20:23.074Z</time></trkpt><trkpt lat="42.9324738" lon="12.0842973"><ele>482.0</ele><time>2026-04-19T10:20:24.076Z</time></trkpt><trkpt lat="42.9325603" lon="12.0841523"><ele>482.0</ele><time>2026-04-19T10:20:25.078Z</time></trkpt><trkpt lat="42.9326605" lon="12.0840012"><ele>482.0</ele><time>2026-04-19T10:20:26.074Z</time></trkpt><trkpt lat="42.9327786" lon="12.0838527"><ele>482.0</ele><time>2026-04-19T10:20:27.074Z</time></trkpt><trkpt lat="42.9329484" lon="12.083713"><ele>478.3333333333333</ele><time>2026-04-19T10:20:28.077Z</time></trkpt><trkpt lat="42.9331495" lon="12.0836117"><ele>474.66666666666663</ele><time>2026-04-19T10:20:29.07Z</time></trkpt><trkpt lat="42.9333619" lon="12.0835728"><ele>471.0</ele><time>2026-04-19T10:20:30.076Z</time></trkpt><trkpt lat="42.9336133" lon="12.0836374"><ele>469.5</ele><time>2026-04-19T10:20:31.075Z</time></trkpt><trkpt lat="42.9338741" lon="12.0837174"><ele>468.0</ele><time>2026-04-19T10:20:32.099Z</time></trkpt><trkpt lat="42.9341282" lon="12.0838012"><ele>470.0</ele><time>2026-04-19T10:20:33.073Z</time></trkpt><trkpt lat="42.9343753" lon="12.0838889"><ele>472.0</ele><time>2026-04-19T10:20:34.073Z</time></trkpt><trkpt lat="42.9346101" lon="12.0839858"><ele>472.0</ele><time>2026-04-19T10:20:35.058Z</time></trkpt><trkpt lat="42.9348444" lon="12.0840871"><ele>472.0</ele><time>2026-04-19T10:20:36.077Z</time></trkpt><trkpt lat="42.9350736" lon="12.0842067"><ele>475.0</ele><time>2026-04-19T10:20:37.068Z</time></trkpt><trkpt lat="42.9352872" lon="12.0843805"><ele>478.0</ele><time>2026-04-19T10:20:38.058Z</time></trkpt><trkpt lat="42.9354671" lon="12.0845668"><ele>478.0</ele><time>2026-04-19T10:20:39.087Z</time></trkpt><trkpt lat="42.9356013" lon="12.0847361"><ele>478.0</ele><time>2026-04-19T10:20:40.081Z</time></trkpt><trkpt lat="42.9357096" lon="12.0848659"><ele>478.0</ele><time>2026-04-19T10:20:41.074Z</time></trkpt><trkpt lat="42.9357924" lon="12.0849978"><ele>477.75</ele><time>2026-04-19T10:20:42.072Z</time></trkpt><trkpt lat="42.9358828" lon="12.0850838"><ele>477.5</ele><time>2026-04-19T10:20:43.069Z</time></trkpt><trkpt lat="42.935968" lon="12.0851375"><ele>477.25</ele><time>2026-04-19T10:20:44.088Z</time></trkpt><trkpt lat="42.9360969" lon="12.0850963"><ele>477.0</ele><time>2026-04-19T10:20:45.074Z</time></trkpt><trkpt lat="42.9361942" lon="12.0850095"><ele>481.75</ele><time>2026-04-19T10:20:46.085Z</time></trkpt><trkpt lat="42.9362553" lon="12.0848867"><ele>486.5</ele><time>2026-04-19T10:20:47.072Z</time></trkpt><trkpt lat="42.9362698" lon="12.0847689"><ele>491.25</ele><time>2026-04-19T10:20:48.088Z</time></trkpt><trkpt lat="42.9362615" lon="12.0846047"><ele>496.0</ele><time>2026-04-19T10:20:49.076Z</time></trkpt><trkpt lat="42.9362086" lon="12.0844063"><ele>496.0</ele><time>2026-04-19T10:20:50.074Z</time></trkpt><trkpt lat="42.9361122" lon="12.0842233"><ele>496.0</ele><time>2026-04-19T10:20:51.07Z</time></trkpt><trkpt lat="42.9360099" lon="12.084036"><ele>496.0</ele><time>2026-04-19T10:20:52.071Z</time></trkpt><trkpt lat="42.9359258" lon="12.0838695"><ele>496.6</ele><time>2026-04-19T10:20:53.087Z</time></trkpt><trkpt lat="42.9358618" lon="12.083728"><ele>497.20000000000005</ele><time>2026-04-19T10:20:54.083Z</time></trkpt><trkpt lat="42.9358426" lon="12.0836072"><ele>497.79999999999995</ele><time>2026-04-19T10:20:55.079Z</time></trkpt><trkpt lat="42.9358345" lon="12.0834966"><ele>498.4</ele><time>2026-04-19T10:20:56.079Z</time></trkpt><trkpt lat="42.9359237" lon="12.0834171"><ele>499.0</ele><time>2026-04-19T10:20:58.078Z</time></trkpt><trkpt lat="42.9360471" lon="12.083486"><ele>499.0</ele><time>2026-04-19T10:21:00.058Z</time></trkpt><trkpt lat="42.9361049" lon="12.0835498"><ele>499.0</ele><time>2026-04-19T10:21:01.057Z</time></trkpt><trkpt lat="42.9361455" lon="12.0836761"><ele>499.0</ele><time>2026-04-19T10:21:02.072Z</time></trkpt><trkpt lat="42.9361771" lon="12.0837858"><ele>499.0</ele><time>2026-04-19T10:21:03.075Z</time></trkpt><trkpt lat="42.9362243" lon="12.0839019"><ele>499.0</ele><time>2026-04-19T10:21:04.076Z</time></trkpt><trkpt lat="42.9363256" lon="12.0841059"><ele>498.0</ele><time>2026-04-19T10:21:05.089Z</time></trkpt><trkpt lat="42.9364709" lon="12.0842842"><ele>497.0</ele><time>2026-04-19T10:21:06.081Z</time></trkpt><trkpt lat="42.9366737" lon="12.0844776"><ele>496.0</ele><time>2026-04-19T10:21:07.062Z</time></trkpt><trkpt lat="42.9370409" lon="12.0845784"><ele>500.5</ele><time>2026-04-19T10:21:08.08Z</time></trkpt><trkpt lat="42.937391" lon="12.0846306"><ele>505.0</ele><time>2026-04-19T10:21:09.09Z</time></trkpt><trkpt lat="42.9377345" lon="12.0846804"><ele>505.5</ele><time>2026-04-19T10:21:10.078Z</time></trkpt><trkpt lat="42.9380522" lon="12.0847217"><ele>506.0</ele><time>2026-04-19T10:21:11.064Z</time></trkpt><trkpt lat="42.9383711" lon="12.0847531"><ele>503.0</ele><time>2026-04-19T10:21:12.065Z</time></trkpt><trkpt lat="42.9386709" lon="12.0847984"><ele>500.0</ele><time>2026-04-19T10:21:13.07Z</time></trkpt><trkpt lat="42.9389684" lon="12.0848454"><ele>499.0</ele><time>2026-04-19T10:21:14.075Z</time></trkpt><trkpt lat="42.9392583" lon="12.0849232"><ele>498.0</ele><time>2026-04-19T10:21:15.088Z</time></trkpt><trkpt lat="42.9396295" lon="12.0850481"><ele>500.5</ele><time>2026-04-19T10:21:16.07Z</time></trkpt><trkpt lat="42.9399248" lon="12.0851626"><ele>503.0</ele><time>2026-04-19T10:21:17.068Z</time></trkpt><trkpt lat="42.9401648" lon="12.0852768"><ele>505.0</ele><time>2026-04-19T10:21:18.073Z</time></trkpt><trkpt lat="42.9403807" lon="12.0853842"><ele>507.0</ele><time>2026-04-19T10:21:19.063Z</time></trkpt><trkpt lat="42.940592" lon="12.0854418"><ele>509.0</ele><time>2026-04-19T10:21:20.081Z</time></trkpt><trkpt lat="42.9408013" lon="12.0854861"><ele>509.66666666666663</ele><time>2026-04-19T10:21:21.066Z</time></trkpt><trkpt lat="42.9410046" lon="12.0854963"><ele>510.33333333333337</ele><time>2026-04-19T10:21:22.072Z</time></trkpt><trkpt lat="42.9412131" lon="12.0854664"><ele>511.0</ele><time>2026-04-19T10:21:23.082Z</time></trkpt><trkpt lat="42.9414271" lon="12.0854439"><ele>511.0</ele><time>2026-04-19T10:21:24.073Z</time></trkpt><trkpt lat="42.9416308" lon="12.0854079"><ele>511.0</ele><time>2026-04-19T10:21:25.079Z</time></trkpt><trkpt lat="42.9418263" lon="12.0854032"><ele>511.0</ele><time>2026-04-19T10:21:26.073Z</time></trkpt><trkpt lat="42.942039" lon="12.0854579"><ele>510.6666666666667</ele><time>2026-04-19T10:21:27.079Z</time></trkpt><trkpt lat="42.9422558" lon="12.0855002"><ele>510.33333333333337</ele><time>2026-04-19T10:21:28.066Z</time></trkpt><trkpt lat="42.9424657" lon="12.0855713"><ele>510.0</ele><time>2026-04-19T10:21:29.075Z</time></trkpt><trkpt lat="42.9426617" lon="12.0856468"><ele>510.0</ele><time>2026-04-19T10:21:30.078Z</time></trkpt><trkpt lat="42.9428475" lon="12.0857495"><ele>510.0</ele><time>2026-04-19T10:21:31.082Z</time></trkpt><trkpt lat="42.9430638" lon="12.0858268"><ele>510.0</ele><time>2026-04-19T10:21:32.075Z</time></trkpt><trkpt lat="42.9432479" lon="12.085868"><ele>505.66666666666663</ele><time>2026-04-19T10:21:33.095Z</time></trkpt><trkpt lat="42.9434412" lon="12.0858825"><ele>501.3333333333333</ele><time>2026-04-19T10:21:34.083Z</time></trkpt><trkpt lat="42.943609" lon="12.0858397"><ele>497.0</ele><time>2026-04-19T10:21:35.076Z</time></trkpt><trkpt lat="42.94376" lon="12.0857118"><ele>497.0</ele><time>2026-04-19T10:21:36.075Z</time></trkpt><trkpt lat="42.9439133" lon="12.0855427"><ele>497.0</ele><time>2026-04-19T10:21:37.083Z</time></trkpt><trkpt lat="42.944065" lon="12.0853146"><ele>497.0</ele><time>2026-04-19T10:21:38.074Z</time></trkpt><trkpt lat="42.9442283" lon="12.0850928"><ele>493.5</ele><time>2026-04-19T10:21:39.074Z</time></trkpt><trkpt lat="42.944406" lon="12.0848851"><ele>490.0</ele><time>2026-04-19T10:21:40.071Z</time></trkpt><trkpt lat="42.9445984" lon="12.084691"><ele>490.0</ele><time>2026-04-19T10:21:41.075Z</time></trkpt><trkpt lat="42.9448125" lon="12.084528"><ele>490.0</ele><time>2026-04-19T10:21:42.081Z</time></trkpt><trkpt lat="42.9450215" lon="12.084404"><ele>484.33333333333337</ele><time>2026-04-19T10:21:43.083Z</time></trkpt><trkpt lat="42.9451959" lon="12.0842873"><ele>478.66666666666663</ele><time>2026-04-19T10:21:44.075Z</time></trkpt><trkpt lat="42.9454093" lon="12.0842083"><ele>473.0</ele><time>2026-04-19T10:21:45.073Z</time></trkpt><trkpt lat="42.9455898" lon="12.0841046"><ele>476.0</ele><time>2026-04-19T10:21:46.088Z</time></trkpt><trkpt lat="42.9457527" lon="12.0839712"><ele>479.0</ele><time>2026-04-19T10:21:47.086Z</time></trkpt><trkpt lat="42.9458809" lon="12.0837894"><ele>482.0</ele><time>2026-04-19T10:21:48.083Z</time></trkpt><trkpt lat="42.9459721" lon="12.0835541"><ele>477.0</ele><time>2026-04-19T10:21:49.075Z</time></trkpt><trkpt lat="42.9460647" lon="12.0833587"><ele>472.0</ele><time>2026-04-19T10:21:50.064Z</time></trkpt><trkpt lat="42.9462167" lon="12.0832606"><ele>467.0</ele><time>2026-04-19T10:21:51.067Z</time></trkpt><trkpt lat="42.9463358" lon="12.083172"><ele>467.0</ele><time>2026-04-19T10:21:52.074Z</time></trkpt><trkpt lat="42.946421" lon="12.0830888"><ele>467.00000000000006</ele><time>2026-04-19T10:21:53.07Z</time></trkpt><trkpt lat="42.9464886" lon="12.0829968"><ele>467.00000000000006</ele><time>2026-04-19T10:21:54.074Z</time></trkpt><trkpt lat="42.9465413" lon="12.0828809"><ele>467.0</ele><time>2026-04-19T10:21:55.071Z</time></trkpt><trkpt lat="42.9465272" lon="12.0827552"><ele>467.0</ele><time>2026-04-19T10:21:56.073Z</time></trkpt><trkpt lat="42.9465342" lon="12.0826264"><ele>467.0</ele><time>2026-04-19T10:21:57.077Z</time></trkpt><trkpt lat="42.9465634" lon="12.0824961"><ele>467.00000000000006</ele><time>2026-04-19T10:21:58.065Z</time></trkpt><trkpt lat="42.9465955" lon="12.0823819"><ele>467.00000000000006</ele><time>2026-04-19T10:21:59.075Z</time></trkpt><trkpt lat="42.9466517" lon="12.0823039"><ele>467.0</ele><time>2026-04-19T10:22:00.07Z</time></trkpt><trkpt lat="42.9467599" lon="12.0822811"><ele>467.0</ele><time>2026-04-19T10:22:01.081Z</time></trkpt><trkpt lat="42.9468936" lon="12.0823203"><ele>465.0</ele><time>2026-04-19T10:22:02.063Z</time></trkpt><trkpt lat="42.947026" lon="12.0823559"><ele>463.0</ele><time>2026-04-19T10:22:03.064Z</time></trkpt><trkpt lat="42.9471882" lon="12.0824153"><ele>461.0</ele><time>2026-04-19T10:22:04.073Z</time></trkpt><trkpt lat="42.9473664" lon="12.0825019"><ele>457.3333333333333</ele><time>2026-04-19T10:22:05.071Z</time></trkpt><trkpt lat="42.947551" lon="12.0826396"><ele>453.66666666666663</ele><time>2026-04-19T10:22:06.076Z</time></trkpt><trkpt lat="42.9477174" lon="12.0827663"><ele>450.0</ele><time>2026-04-19T10:22:07.057Z</time></trkpt><trkpt lat="42.9479053" lon="12.0828579"><ele>450.0</ele><time>2026-04-19T10:22:08.089Z</time></trkpt><trkpt lat="42.9480895" lon="12.0828997"><ele>450.0</ele><time>2026-04-19T10:22:09.068Z</time></trkpt><trkpt lat="42.9482571" lon="12.0829507"><ele>450.0</ele><time>2026-04-19T10:22:10.07Z</time></trkpt><trkpt lat="42.9484354" lon="12.0830286"><ele>448.66666666666663</ele><time>2026-04-19T10:22:11.072Z</time></trkpt><trkpt lat="42.9486257" lon="12.0831197"><ele>447.3333333333333</ele><time>2026-04-19T10:22:12.073Z</time></trkpt><trkpt lat="42.9487991" lon="12.0832159"><ele>446.0</ele><time>2026-04-19T10:22:13.079Z</time></trkpt><trkpt lat="42.9489403" lon="12.0832872"><ele>446.0</ele><time>2026-04-19T10:22:14.065Z</time></trkpt><trkpt lat="42.9491048" lon="12.0833444"><ele>446.0</ele><time>2026-04-19T10:22:15.08Z</time></trkpt><trkpt lat="42.9492578" lon="12.0833883"><ele>446.0</ele><time>2026-04-19T10:22:16.089Z</time></trkpt><trkpt lat="42.9494062" lon="12.0834271"><ele>445.0</ele><time>2026-04-19T10:22:17.074Z</time></trkpt><trkpt lat="42.9495502" lon="12.0834427"><ele>444.0</ele><time>2026-04-19T10:22:18.086Z</time></trkpt><trkpt lat="42.9496386" lon="12.0834344"><ele>443.0</ele><time>2026-04-19T10:22:19.076Z</time></trkpt><trkpt lat="42.9497354" lon="12.0833779"><ele>442.0</ele><time>2026-04-19T10:22:20.069Z</time></trkpt><trkpt lat="42.9497898" lon="12.0833086"><ele>441.0</ele><time>2026-04-19T10:22:21.078Z</time></trkpt><trkpt lat="42.9498367" lon="12.0832037"><ele>439.8</ele><time>2026-04-19T10:22:22.082Z</time></trkpt><trkpt lat="42.9498489" lon="12.0830831"><ele>438.6</ele><time>2026-04-19T10:22:23.082Z</time></trkpt><trkpt lat="42.9498415" lon="12.0829734"><ele>437.4</ele><time>2026-04-19T10:22:24.072Z</time></trkpt><trkpt lat="42.949828" lon="12.082841"><ele>436.2</ele><time>2026-04-19T10:22:25.083Z</time></trkpt><trkpt lat="42.9498219" lon="12.0826868"><ele>435.0</ele><time>2026-04-19T10:22:26.075Z</time></trkpt><trkpt lat="42.9498351" lon="12.0825304"><ele>434.0</ele><time>2026-04-19T10:22:27.083Z</time></trkpt><trkpt lat="42.94986" lon="12.0823701"><ele>433.0</ele><time>2026-04-19T10:22:28.078Z</time></trkpt><trkpt lat="42.949892" lon="12.0822154"><ele>432.0</ele><time>2026-04-19T10:22:29.087Z</time></trkpt><trkpt lat="42.9499226" lon="12.0820583"><ele>431.0</ele><time>2026-04-19T10:22:30.074Z</time></trkpt><trkpt lat="42.9499566" lon="12.0818911"><ele>431.0</ele><time>2026-04-19T10:22:31.08Z</time></trkpt><trkpt lat="42.9500008" lon="12.0817211"><ele>431.0</ele><time>2026-04-19T10:22:32.075Z</time></trkpt><trkpt lat="42.9500612" lon="12.0815694"><ele>431.0</ele><time>2026-04-19T10:22:33.073Z</time></trkpt><trkpt lat="42.9501296" lon="12.081406"><ele>431.0</ele><time>2026-04-19T10:22:34.068Z</time></trkpt><trkpt lat="42.9502016" lon="12.081236"><ele>428.66666666666663</ele><time>2026-04-19T10:22:35.087Z</time></trkpt><trkpt lat="42.9502891" lon="12.0810329"><ele>426.33333333333337</ele><time>2026-04-19T10:22:36.079Z</time></trkpt><trkpt lat="42.9503836" lon="12.0808099"><ele>424.0</ele><time>2026-04-19T10:22:37.075Z</time></trkpt><trkpt lat="42.9504857" lon="12.0806021"><ele>422.33333333333337</ele><time>2026-04-19T10:22:38.084Z</time></trkpt><trkpt lat="42.9505972" lon="12.080429"><ele>420.66666666666663</ele><time>2026-04-19T10:22:39.08Z</time></trkpt><trkpt lat="42.9507051" lon="12.080271"><ele>419.0</ele><time>2026-04-19T10:22:40.083Z</time></trkpt><trkpt lat="42.9507988" lon="12.0801298"><ele>418.5</ele><time>2026-04-19T10:22:41.074Z</time></trkpt><trkpt lat="42.9509096" lon="12.0800455"><ele>418.0</ele><time>2026-04-19T10:22:42.08Z</time></trkpt><trkpt lat="42.9510107" lon="12.0800222"><ele>417.5</ele><time>2026-04-19T10:22:43.07Z</time></trkpt><trkpt lat="42.9512135" lon="12.0800389"><ele>417.0</ele><time>2026-04-19T10:22:45.068Z</time></trkpt><trkpt lat="42.9513092" lon="12.0800445"><ele>417.0</ele><time>2026-04-19T10:22:46.09Z</time></trkpt><trkpt lat="42.9514829" lon="12.0800484"><ele>417.0</ele><time>2026-04-19T10:22:48.076Z</time></trkpt><trkpt lat="42.9515802" lon="12.0800614"><ele>417.0</ele><time>2026-04-19T10:22:49.074Z</time></trkpt><trkpt lat="42.9516541" lon="12.0801043"><ele>417.0</ele><time>2026-04-19T10:22:50.067Z</time></trkpt><trkpt lat="42.9517448" lon="12.0801866"><ele>414.25</ele><time>2026-04-19T10:22:51.082Z</time></trkpt><trkpt lat="42.9517791" lon="12.0803119"><ele>411.5</ele><time>2026-04-19T10:22:52.07Z</time></trkpt><trkpt lat="42.9518948" lon="12.0803603"><ele>408.75</ele><time>2026-04-19T10:22:53.081Z</time></trkpt><trkpt lat="42.951953" lon="12.0804453"><ele>406.0</ele><time>2026-04-19T10:22:54.072Z</time></trkpt><trkpt lat="42.9520987" lon="12.080501"><ele>406.0</ele><time>2026-04-19T10:22:55.076Z</time></trkpt><trkpt lat="42.9522758" lon="12.0805339"><ele>406.0</ele><time>2026-04-19T10:22:56.072Z</time></trkpt><trkpt lat="42.952468" lon="12.080626"><ele>406.0</ele><time>2026-04-19T10:22:57.072Z</time></trkpt><trkpt lat="42.952622" lon="12.0807045"><ele>403.5</ele><time>2026-04-19T10:22:58.079Z</time></trkpt><trkpt lat="42.9528378" lon="12.0807564"><ele>401.0</ele><time>2026-04-19T10:22:59.066Z</time></trkpt><trkpt lat="42.9530738" lon="12.0808606"><ele>401.0</ele><time>2026-04-19T10:23:00.072Z</time></trkpt><trkpt lat="42.9532872" lon="12.0810365"><ele>401.0</ele><time>2026-04-19T10:23:01.08Z</time></trkpt><trkpt lat="42.9535045" lon="12.0811971"><ele>398.5</ele><time>2026-04-19T10:23:02.071Z</time></trkpt><trkpt lat="42.9537226" lon="12.0813348"><ele>396.0</ele><time>2026-04-19T10:23:03.072Z</time></trkpt><trkpt lat="42.9539544" lon="12.0814341"><ele>396.0</ele><time>2026-04-19T10:23:04.074Z</time></trkpt><trkpt lat="42.954196" lon="12.0815448"><ele>396.0</ele><time>2026-04-19T10:23:05.074Z</time></trkpt><trkpt lat="42.9544314" lon="12.0816336"><ele>393.0</ele><time>2026-04-19T10:23:06.072Z</time></trkpt><trkpt lat="42.9546463" lon="12.0817066"><ele>390.0</ele><time>2026-04-19T10:23:07.071Z</time></trkpt><trkpt lat="42.9548395" lon="12.081781"><ele>387.0</ele><time>2026-04-19T10:23:08.056Z</time></trkpt><trkpt lat="42.955038" lon="12.0818392"><ele>386.66666666666663</ele><time>2026-04-19T10:23:09.07Z</time></trkpt><trkpt lat="42.9552187" lon="12.0818733"><ele>386.3333333333333</ele><time>2026-04-19T10:23:10.066Z</time></trkpt><trkpt lat="42.9553789" lon="12.0818684"><ele>386.0</ele><time>2026-04-19T10:23:11.073Z</time></trkpt><trkpt lat="42.9555079" lon="12.0818189"><ele>386.0</ele><time>2026-04-19T10:23:12.073Z</time></trkpt><trkpt lat="42.9556073" lon="12.0817141"><ele>386.0</ele><time>2026-04-19T10:23:13.078Z</time></trkpt><trkpt lat="42.9557413" lon="12.0815339"><ele>386.0</ele><time>2026-04-19T10:23:14.063Z</time></trkpt><trkpt lat="42.9558831" lon="12.0813163"><ele>383.66666666666663</ele><time>2026-04-19T10:23:15.07Z</time></trkpt><trkpt lat="42.956023" lon="12.0811154"><ele>381.3333333333333</ele><time>2026-04-19T10:23:16.07Z</time></trkpt><trkpt lat="42.9561584" lon="12.0809173"><ele>379.0</ele><time>2026-04-19T10:23:17.07Z</time></trkpt><trkpt lat="42.9562979" lon="12.0807601"><ele>374.66666666666663</ele><time>2026-04-19T10:23:18.08Z</time></trkpt><trkpt lat="42.956449" lon="12.0806621"><ele>370.3333333333333</ele><time>2026-04-19T10:23:19.073Z</time></trkpt><trkpt lat="42.9566163" lon="12.0805818"><ele>366.0</ele><time>2026-04-19T10:23:20.072Z</time></trkpt><trkpt lat="42.9567823" lon="12.0805392"><ele>365.6666666666667</ele><time>2026-04-19T10:23:21.074Z</time></trkpt><trkpt lat="42.9569423" lon="12.0805911"><ele>365.33333333333337</ele><time>2026-04-19T10:23:22.071Z</time></trkpt><trkpt lat="42.9570756" lon="12.0807516"><ele>365.0</ele><time>2026-04-19T10:23:23.071Z</time></trkpt><trkpt lat="42.9571549" lon="12.0809658"><ele>365.0</ele><time>2026-04-19T10:23:24.069Z</time></trkpt><trkpt lat="42.957307" lon="12.0811162"><ele>365.0</ele><time>2026-04-19T10:23:25.065Z</time></trkpt><trkpt lat="42.957459" lon="12.0813062"><ele>365.0</ele><time>2026-04-19T10:23:26.072Z</time></trkpt><trkpt lat="42.9576117" lon="12.0814935"><ele>364.0</ele><time>2026-04-19T10:23:27.067Z</time></trkpt><trkpt lat="42.9577836" lon="12.0816646"><ele>363.0</ele><time>2026-04-19T10:23:28.079Z</time></trkpt><trkpt lat="42.9579876" lon="12.0818061"><ele>362.0</ele><time>2026-04-19T10:23:29.073Z</time></trkpt><trkpt lat="42.9581963" lon="12.0819914"><ele>357.0</ele><time>2026-04-19T10:23:30.067Z</time></trkpt><trkpt lat="42.9583973" lon="12.0821818"><ele>352.0</ele><time>2026-04-19T10:23:31.068Z</time></trkpt><trkpt lat="42.9586054" lon="12.0823401"><ele>352.0</ele><time>2026-04-19T10:23:32.071Z</time></trkpt><trkpt lat="42.958839" lon="12.0823887"><ele>352.0</ele><time>2026-04-19T10:23:33.076Z</time></trkpt><trkpt lat="42.9590718" lon="12.0824754"><ele>358.5</ele><time>2026-04-19T10:23:34.085Z</time></trkpt><trkpt lat="42.9592897" lon="12.0825867"><ele>365.0</ele><time>2026-04-19T10:23:35.078Z</time></trkpt><trkpt lat="42.9595094" lon="12.0826481"><ele>365.0</ele><time>2026-04-19T10:23:36.077Z</time></trkpt><trkpt lat="42.959725" lon="12.0827234"><ele>365.0</ele><time>2026-04-19T10:23:37.072Z</time></trkpt><trkpt lat="42.9599439" lon="12.0827866"><ele>365.0</ele><time>2026-04-19T10:23:38.096Z</time></trkpt><trkpt lat="42.9601601" lon="12.0828422"><ele>363.0</ele><time>2026-04-19T10:23:39.072Z</time></trkpt><trkpt lat="42.9603877" lon="12.0828782"><ele>361.0</ele><time>2026-04-19T10:23:40.078Z</time></trkpt><trkpt lat="42.9606114" lon="12.0829097"><ele>361.0</ele><time>2026-04-19T10:23:41.08Z</time></trkpt><trkpt lat="42.9608247" lon="12.0829423"><ele>361.0</ele><time>2026-04-19T10:23:42.074Z</time></trkpt><trkpt lat="42.9610364" lon="12.0829713"><ele>361.0</ele><time>2026-04-19T10:23:43.072Z</time></trkpt><trkpt lat="42.9612538" lon="12.0830061"><ele>360.3333333333333</ele><time>2026-04-19T10:23:44.069Z</time></trkpt><trkpt lat="42.9614654" lon="12.0830362"><ele>359.6666666666667</ele><time>2026-04-19T10:23:45.068Z</time></trkpt><trkpt lat="42.961667" lon="12.0830675"><ele>359.0</ele><time>2026-04-19T10:23:46.066Z</time></trkpt><trkpt lat="42.9618616" lon="12.0830925"><ele>358.33333333333337</ele><time>2026-04-19T10:23:47.073Z</time></trkpt><trkpt lat="42.9620527" lon="12.0830845"><ele>357.6666666666667</ele><time>2026-04-19T10:23:48.063Z</time></trkpt><trkpt lat="42.9622183" lon="12.0829934"><ele>357.0</ele><time>2026-04-19T10:23:49.082Z</time></trkpt><trkpt lat="42.9623702" lon="12.0828422"><ele>357.0</ele><time>2026-04-19T10:23:50.075Z</time></trkpt><trkpt lat="42.9625278" lon="12.0826598"><ele>357.0</ele><time>2026-04-19T10:23:51.078Z</time></trkpt><trkpt lat="42.9626786" lon="12.0824835"><ele>357.0</ele><time>2026-04-19T10:23:52.075Z</time></trkpt><trkpt lat="42.9628288" lon="12.0823291"><ele>356.6666666666667</ele><time>2026-04-19T10:23:53.073Z</time></trkpt><trkpt lat="42.9630043" lon="12.08221"><ele>356.33333333333337</ele><time>2026-04-19T10:23:54.07Z</time></trkpt><trkpt lat="42.9631955" lon="12.0821422"><ele>356.0</ele><time>2026-04-19T10:23:55.069Z</time></trkpt><trkpt lat="42.9633891" lon="12.0820834"><ele>355.0</ele><time>2026-04-19T10:23:56.072Z</time></trkpt><trkpt lat="42.9635941" lon="12.0820683"><ele>354.0</ele><time>2026-04-19T10:23:57.076Z</time></trkpt><trkpt lat="42.9638074" lon="12.0820641"><ele>353.0</ele><time>2026-04-19T10:23:58.08Z</time></trkpt><trkpt lat="42.9640157" lon="12.0820652"><ele>352.0</ele><time>2026-04-19T10:23:59.068Z</time></trkpt><trkpt lat="42.9642069" lon="12.082117"><ele>351.0</ele><time>2026-04-19T10:24:00.072Z</time></trkpt><trkpt lat="42.9643966" lon="12.0822147"><ele>350.0</ele><time>2026-04-19T10:24:01.07Z</time></trkpt><trkpt lat="42.9645654" lon="12.0823254"><ele>349.33333333333337</ele><time>2026-04-19T10:24:02.096Z</time></trkpt><trkpt lat="42.964737" lon="12.0824461"><ele>348.6666666666667</ele><time>2026-04-19T10:24:03.081Z</time></trkpt><trkpt lat="42.9649073" lon="12.0825709"><ele>348.0</ele><time>2026-04-19T10:24:04.071Z</time></trkpt><trkpt lat="42.9650869" lon="12.0827172"><ele>348.0</ele><time>2026-04-19T10:24:05.088Z</time></trkpt><trkpt lat="42.9652664" lon="12.0828697"><ele>348.0</ele><time>2026-04-19T10:24:06.074Z</time></trkpt><trkpt lat="42.9654487" lon="12.0830271"><ele>348.0</ele><time>2026-04-19T10:24:07.073Z</time></trkpt><trkpt lat="42.9656318" lon="12.0831771"><ele>352.0</ele><time>2026-04-19T10:24:08.066Z</time></trkpt><trkpt lat="42.9658119" lon="12.0833308"><ele>356.0</ele><time>2026-04-19T10:24:09.071Z</time></trkpt><trkpt lat="42.9659868" lon="12.0834665"><ele>360.0</ele><time>2026-04-19T10:24:10.08Z</time></trkpt><trkpt lat="42.9661699" lon="12.0835616"><ele>360.0</ele><time>2026-04-19T10:24:11.073Z</time></trkpt><trkpt lat="42.966347" lon="12.0836279"><ele>360.0</ele><time>2026-04-19T10:24:12.077Z</time></trkpt><trkpt lat="42.9665219" lon="12.0836862"><ele>360.0</ele><time>2026-04-19T10:24:13.085Z</time></trkpt><trkpt lat="42.9666584" lon="12.0837209"><ele>359.6</ele><time>2026-04-19T10:24:14.069Z</time></trkpt><trkpt lat="42.9667802" lon="12.083757"><ele>359.2</ele><time>2026-04-19T10:24:15.076Z</time></trkpt><trkpt lat="42.9668893" lon="12.0837905"><ele>358.79999999999995</ele><time>2026-04-19T10:24:16.089Z</time></trkpt><trkpt lat="42.966963" lon="12.0838078"><ele>358.4</ele><time>2026-04-19T10:24:17.094Z</time></trkpt><trkpt lat="42.9670706" lon="12.0838318"><ele>358.0</ele><time>2026-04-19T10:24:19.092Z</time></trkpt><trkpt lat="42.9672424" lon="12.0839047"><ele>358.0</ele><time>2026-04-19T10:24:32.082Z</time></trkpt><trkpt lat="42.9673763" lon="12.083969"><ele>358.0</ele><time>2026-04-19T10:24:34.068Z</time></trkpt><trkpt lat="42.9674899" lon="12.0840227"><ele>358.0</ele><time>2026-04-19T10:24:35.074Z</time></trkpt><trkpt lat="42.9676225" lon="12.0840851"><ele>358.0</ele><time>2026-04-19T10:24:36.071Z</time></trkpt><trkpt lat="42.967756" lon="12.0841482"><ele>358.0</ele><time>2026-04-19T10:24:37.072Z</time></trkpt><trkpt lat="42.9679092" lon="12.0842205"><ele>358.0</ele><time>2026-04-19T10:24:38.072Z</time></trkpt><trkpt lat="42.9680912" lon="12.0843089"><ele>358.0</ele><time>2026-04-19T10:24:39.075Z</time></trkpt><trkpt lat="42.9682942" lon="12.0844062"><ele>353.0</ele><time>2026-04-19T10:24:40.074Z</time></trkpt><trkpt lat="42.9684809" lon="12.084494"><ele>348.0</ele><time>2026-04-19T10:24:41.082Z</time></trkpt><trkpt lat="42.968681" lon="12.0846053"><ele>343.0</ele><time>2026-04-19T10:24:42.075Z</time></trkpt><trkpt lat="42.9688778" lon="12.0847431"><ele>343.0</ele><time>2026-04-19T10:24:43.07Z</time></trkpt><trkpt lat="42.9690483" lon="12.0848672"><ele>343.0</ele><time>2026-04-19T10:24:44.067Z</time></trkpt><trkpt lat="42.9692071" lon="12.0849888"><ele>343.0</ele><time>2026-04-19T10:24:45.071Z</time></trkpt><trkpt lat="42.9693294" lon="12.0851146"><ele>344.0</ele><time>2026-04-19T10:24:46.085Z</time></trkpt><trkpt lat="42.9694229" lon="12.0852435"><ele>345.0</ele><time>2026-04-19T10:24:47.072Z</time></trkpt><trkpt lat="42.9694714" lon="12.0853773"><ele>346.0</ele><time>2026-04-19T10:24:48.07Z</time></trkpt><trkpt lat="42.9695014" lon="12.0855072"><ele>347.0</ele><time>2026-04-19T10:24:49.064Z</time></trkpt><trkpt lat="42.9694989" lon="12.0856508"><ele>348.0</ele><time>2026-04-19T10:24:50.076Z</time></trkpt><trkpt lat="42.9694403" lon="12.085852"><ele>347.0</ele><time>2026-04-19T10:24:51.083Z</time></trkpt><trkpt lat="42.9693353" lon="12.0860074"><ele>346.0</ele><time>2026-04-19T10:24:52.077Z</time></trkpt><trkpt lat="42.9692421" lon="12.0861623"><ele>345.0</ele><time>2026-04-19T10:24:53.083Z</time></trkpt><trkpt lat="42.9691674" lon="12.0862996"><ele>344.0</ele><time>2026-04-19T10:24:54.078Z</time></trkpt><trkpt lat="42.9690975" lon="12.0864542"><ele>345.0</ele><time>2026-04-19T10:24:55.075Z</time></trkpt><trkpt lat="42.9690892" lon="12.0866175"><ele>346.0</ele><time>2026-04-19T10:24:56.07Z</time></trkpt><trkpt lat="42.9691404" lon="12.0867472"><ele>347.0</ele><time>2026-04-19T10:24:57.073Z</time></trkpt><trkpt lat="42.9692273" lon="12.0868597"><ele>348.0</ele><time>2026-04-19T10:24:58.086Z</time></trkpt><trkpt lat="42.9693512" lon="12.0869045"><ele>348.0</ele><time>2026-04-19T10:24:59.081Z</time></trkpt><trkpt lat="42.9695089" lon="12.0869481"><ele>348.0</ele><time>2026-04-19T10:25:00.083Z</time></trkpt><trkpt lat="42.969691" lon="12.0870162"><ele>348.0</ele><time>2026-04-19T10:25:01.075Z</time></trkpt><trkpt lat="42.9698898" lon="12.0870903"><ele>347.5</ele><time>2026-04-19T10:25:02.085Z</time></trkpt><trkpt lat="42.97011" lon="12.0871579"><ele>347.0</ele><time>2026-04-19T10:25:03.078Z</time></trkpt><trkpt lat="42.970352" lon="12.0872358"><ele>347.0</ele><time>2026-04-19T10:25:04.081Z</time></trkpt><trkpt lat="42.9706063" lon="12.0873224"><ele>347.0</ele><time>2026-04-19T10:25:05.08Z</time></trkpt><trkpt lat="42.9708534" lon="12.0873995"><ele>337.6666666666667</ele><time>2026-04-19T10:25:06.082Z</time></trkpt><trkpt lat="42.9710884" lon="12.0874611"><ele>328.3333333333333</ele><time>2026-04-19T10:25:07.081Z</time></trkpt><trkpt lat="42.9712864" lon="12.0875152"><ele>319.0</ele><time>2026-04-19T10:25:08.096Z</time></trkpt><trkpt lat="42.9714637" lon="12.0875428"><ele>319.0</ele><time>2026-04-19T10:25:09.094Z</time></trkpt><trkpt lat="42.9716118" lon="12.0875373"><ele>319.0</ele><time>2026-04-19T10:25:10.071Z</time></trkpt><trkpt lat="42.9717273" lon="12.0874476"><ele>319.0</ele><time>2026-04-19T10:25:11.083Z</time></trkpt><trkpt lat="42.9718069" lon="12.0872774"><ele>319.0</ele><time>2026-04-19T10:25:12.085Z</time></trkpt><trkpt lat="42.9718623" lon="12.0870941"><ele>309.66666666666663</ele><time>2026-04-19T10:25:13.08Z</time></trkpt><trkpt lat="42.971863" lon="12.0868829"><ele>300.3333333333333</ele><time>2026-04-19T10:25:14.081Z</time></trkpt><trkpt lat="42.9718351" lon="12.0866793"><ele>291.0</ele><time>2026-04-19T10:25:15.086Z</time></trkpt><trkpt lat="42.9717665" lon="12.0864641"><ele>296.6666666666667</ele><time>2026-04-19T10:25:16.082Z</time></trkpt><trkpt lat="42.9716692" lon="12.0862444"><ele>302.33333333333337</ele><time>2026-04-19T10:25:17.074Z</time></trkpt><trkpt lat="42.9715582" lon="12.0860356"><ele>308.0</ele><time>2026-04-19T10:25:18.082Z</time></trkpt><trkpt lat="42.9714594" lon="12.0858736"><ele>304.6</ele><time>2026-04-19T10:25:19.08Z</time></trkpt><trkpt lat="42.9713791" lon="12.0857368"><ele>301.20000000000005</ele><time>2026-04-19T10:25:20.08Z</time></trkpt><trkpt lat="42.9713312" lon="12.0856733"><ele>297.8</ele><time>2026-04-19T10:25:21.066Z</time></trkpt><trkpt lat="42.9713255" lon="12.0855559"><ele>294.40000000000003</ele><time>2026-04-19T10:25:23.092Z</time></trkpt><trkpt lat="42.9713939" lon="12.085464"><ele>291.0</ele><time>2026-04-19T10:25:25.066Z</time></trkpt><trkpt lat="42.9714867" lon="12.0854537"><ele>291.0</ele><time>2026-04-19T10:25:26.07Z</time></trkpt><trkpt lat="42.9715803" lon="12.0855767"><ele>291.0</ele><time>2026-04-19T10:25:27.065Z</time></trkpt><trkpt lat="42.9717093" lon="12.0857704"><ele>291.0</ele><time>2026-04-19T10:25:28.087Z</time></trkpt><trkpt lat="42.9718221" lon="12.0859781"><ele>291.0</ele><time>2026-04-19T10:25:29.064Z</time></trkpt><trkpt lat="42.9719032" lon="12.0861862"><ele>291.0</ele><time>2026-04-19T10:25:30.072Z</time></trkpt><trkpt lat="42.9719754" lon="12.0863974"><ele>291.0</ele><time>2026-04-19T10:25:31.07Z</time></trkpt><trkpt lat="42.9720232" lon="12.0866184"><ele>291.0</ele><time>2026-04-19T10:25:32.085Z</time></trkpt><trkpt lat="42.9720278" lon="12.0868395"><ele>291.0</ele><time>2026-04-19T10:25:33.067Z</time></trkpt><trkpt lat="42.9719832" lon="12.087018"><ele>291.0</ele><time>2026-04-19T10:25:34.084Z</time></trkpt><trkpt lat="42.9719414" lon="12.0871932"><ele>291.0</ele><time>2026-04-19T10:25:35.089Z</time></trkpt><trkpt lat="42.9719029" lon="12.087372"><ele>291.8</ele><time>2026-04-19T10:25:36.076Z</time></trkpt><trkpt lat="42.9718819" lon="12.0875383"><ele>292.6</ele><time>2026-04-19T10:25:37.083Z</time></trkpt><trkpt lat="42.971897" lon="12.0876647"><ele>293.4</ele><time>2026-04-19T10:25:38.079Z</time></trkpt><trkpt lat="42.9719253" lon="12.0878044"><ele>294.2</ele><time>2026-04-19T10:25:39.072Z</time></trkpt><trkpt lat="42.97192" lon="12.0879061"><ele>295.0</ele><time>2026-04-19T10:25:40.073Z</time></trkpt><trkpt lat="42.9720232" lon="12.0877987"><ele>295.0</ele><time>2026-04-19T10:25:43.067Z</time></trkpt><trkpt lat="42.9719502" lon="12.0877235"><ele>295.0</ele><time>2026-04-19T10:25:45.095Z</time></trkpt><trkpt lat="42.9718935" lon="12.0876743"><ele>295.0</ele><time>2026-04-19T10:25:46.067Z</time></trkpt><trkpt lat="42.971752" lon="12.0875755"><ele>295.0</ele><time>2026-04-19T10:25:48.061Z</time></trkpt><trkpt lat="42.9716467" lon="12.0875031"><ele>295.0</ele><time>2026-04-19T10:25:49.058Z</time></trkpt><trkpt lat="42.9715642" lon="12.0874774"><ele>299.8</ele><time>2026-04-19T10:25:50.063Z</time></trkpt><trkpt lat="42.9714802" lon="12.0874319"><ele>304.6</ele><time>2026-04-19T10:25:51.074Z</time></trkpt><trkpt lat="42.9713963" lon="12.0873561"><ele>309.4</ele><time>2026-04-19T10:25:52.073Z</time></trkpt><trkpt lat="42.9713247" lon="12.0872698"><ele>314.2</ele><time>2026-04-19T10:25:53.06Z</time></trkpt><trkpt lat="42.971291" lon="12.0871511"><ele>319.0</ele><time>2026-04-19T10:25:54.078Z</time></trkpt><trkpt lat="42.9712513" lon="12.0870179"><ele>321.0</ele><time>2026-04-19T10:25:55.067Z</time></trkpt><trkpt lat="42.971231" lon="12.0868635"><ele>323.0</ele><time>2026-04-19T10:25:56.08Z</time></trkpt><trkpt lat="42.9712757" lon="12.0866828"><ele>325.0</ele><time>2026-04-19T10:25:57.073Z</time></trkpt><trkpt lat="42.9713665" lon="12.0864401"><ele>320.75</ele><time>2026-04-19T10:25:58.066Z</time></trkpt><trkpt lat="42.9714861" lon="12.0862259"><ele>316.5</ele><time>2026-04-19T10:25:59.076Z</time></trkpt><trkpt lat="42.971574" lon="12.0860992"><ele>312.25</ele><time>2026-04-19T10:26:00.07Z</time></trkpt><trkpt lat="42.9716487" lon="12.0859983"><ele>308.0</ele><time>2026-04-19T10:26:01.058Z</time></trkpt><trkpt lat="42.9717995" lon="12.0857473"><ele>296.0</ele><time>2026-04-19T10:26:02.067Z</time></trkpt><trkpt lat="42.9719847" lon="12.0854575"><ele>284.0</ele><time>2026-04-19T10:26:03.067Z</time></trkpt><trkpt lat="42.9721002" lon="12.0852785"><ele>284.0</ele><time>2026-04-19T10:26:04.065Z</time></trkpt><trkpt lat="42.9722516" lon="12.0850297"><ele>284.0</ele><time>2026-04-19T10:26:05.075Z</time></trkpt><trkpt lat="42.9723746" lon="12.0847905"><ele>284.25</ele><time>2026-04-19T10:26:06.07Z</time></trkpt><trkpt lat="42.9724331" lon="12.0846395"><ele>284.5</ele><time>2026-04-19T10:26:07.067Z</time></trkpt><trkpt lat="42.9724341" lon="12.0844962"><ele>284.75</ele><time>2026-04-19T10:26:08.09Z</time></trkpt><trkpt lat="42.9724405" lon="12.0843356"><ele>285.0</ele><time>2026-04-19T10:26:09.09Z</time></trkpt><trkpt lat="42.972408" lon="12.0841663"><ele>287.0</ele><time>2026-04-19T10:26:10.067Z</time></trkpt><trkpt lat="42.9723682" lon="12.0839684"><ele>289.0</ele><time>2026-04-19T10:26:11.059Z</time></trkpt><trkpt lat="42.972207" lon="12.0837876"><ele>291.0</ele><time>2026-04-19T10:26:12.078Z</time></trkpt><trkpt lat="42.9720747" lon="12.0835966"><ele>291.0</ele><time>2026-04-19T10:26:13.063Z</time></trkpt><trkpt lat="42.9719347" lon="12.0833814"><ele>291.0</ele><time>2026-04-19T10:26:14.084Z</time></trkpt><trkpt lat="42.971796" lon="12.0831716"><ele>291.0</ele><time>2026-04-19T10:26:15.072Z</time></trkpt><trkpt lat="42.9716802" lon="12.0829636"><ele>292.0</ele><time>2026-04-19T10:26:16.081Z</time></trkpt><trkpt lat="42.9715964" lon="12.082706"><ele>293.0</ele><time>2026-04-19T10:26:17.063Z</time></trkpt><trkpt lat="42.9714795" lon="12.0824537"><ele>294.0</ele><time>2026-04-19T10:26:18.079Z</time></trkpt><trkpt lat="42.9713565" lon="12.0822405"><ele>294.6666666666667</ele><time>2026-04-19T10:26:19.068Z</time></trkpt><trkpt lat="42.9711974" lon="12.0820675"><ele>295.33333333333337</ele><time>2026-04-19T10:26:20.086Z</time></trkpt><trkpt lat="42.9710368" lon="12.0818323"><ele>296.0</ele><time>2026-04-19T10:26:21.076Z</time></trkpt><trkpt lat="42.970838" lon="12.0815888"><ele>300.5</ele><time>2026-04-19T10:26:22.078Z</time></trkpt><trkpt lat="42.9706282" lon="12.0813317"><ele>305.0</ele><time>2026-04-19T10:26:23.059Z</time></trkpt><trkpt lat="42.9703531" lon="12.0810372"><ele>308.0</ele><time>2026-04-19T10:26:24.082Z</time></trkpt><trkpt lat="42.9701046" lon="12.0807562"><ele>311.0</ele><time>2026-04-19T10:26:25.068Z</time></trkpt><trkpt lat="42.9698533" lon="12.0804591"><ele>311.0</ele><time>2026-04-19T10:26:26.065Z</time></trkpt><trkpt lat="42.9695982" lon="12.080167"><ele>311.0</ele><time>2026-04-19T10:26:27.091Z</time></trkpt><trkpt lat="42.9693413" lon="12.0798881"><ele>314.5</ele><time>2026-04-19T10:26:28.094Z</time></trkpt><trkpt lat="42.9690692" lon="12.0796342"><ele>318.0</ele><time>2026-04-19T10:26:29.074Z</time></trkpt><trkpt lat="42.9687772" lon="12.0793985"><ele>318.0</ele><time>2026-04-19T10:26:30.084Z</time></trkpt><trkpt lat="42.9684743" lon="12.0791753"><ele>318.0</ele><time>2026-04-19T10:26:31.086Z</time></trkpt><trkpt lat="42.9681573" lon="12.0789674"><ele>322.5</ele><time>2026-04-19T10:26:32.082Z</time></trkpt><trkpt lat="42.967819" lon="12.0787968"><ele>327.0</ele><time>2026-04-19T10:26:33.081Z</time></trkpt><trkpt lat="42.9675003" lon="12.0786503"><ele>327.0</ele><time>2026-04-19T10:26:34.086Z</time></trkpt><trkpt lat="42.967179" lon="12.0785235"><ele>327.0</ele><time>2026-04-19T10:26:35.069Z</time></trkpt><trkpt lat="42.9668797" lon="12.0784069"><ele>324.5</ele><time>2026-04-19T10:26:36.077Z</time></trkpt><trkpt lat="42.9665622" lon="12.0782799"><ele>322.0</ele><time>2026-04-19T10:26:37.062Z</time></trkpt><trkpt lat="42.9662446" lon="12.0781419"><ele>327.5</ele><time>2026-04-19T10:26:38.068Z</time></trkpt><trkpt lat="42.9659386" lon="12.0780177"><ele>333.0</ele><time>2026-04-19T10:26:39.078Z</time></trkpt><trkpt lat="42.9656444" lon="12.077845"><ele>333.0</ele><time>2026-04-19T10:26:40.074Z</time></trkpt><trkpt lat="42.9653748" lon="12.0776755"><ele>333.0</ele><time>2026-04-19T10:26:41.073Z</time></trkpt><trkpt lat="42.9651205" lon="12.07749"><ele>336.0</ele><time>2026-04-19T10:26:42.064Z</time></trkpt><trkpt lat="42.9648873" lon="12.0773092"><ele>339.0</ele><time>2026-04-19T10:26:43.064Z</time></trkpt><trkpt lat="42.964668" lon="12.0771215"><ele>339.0</ele><time>2026-04-19T10:26:44.076Z</time></trkpt><trkpt lat="42.9644951" lon="12.0769435"><ele>339.0</ele><time>2026-04-19T10:26:45.067Z</time></trkpt><trkpt lat="42.9643938" lon="12.076777"><ele>339.0</ele><time>2026-04-19T10:26:46.075Z</time></trkpt><trkpt lat="42.9643265" lon="12.0765994"><ele>340.3333333333333</ele><time>2026-04-19T10:26:47.062Z</time></trkpt><trkpt lat="42.9642979" lon="12.0763779"><ele>341.66666666666663</ele><time>2026-04-19T10:26:48.079Z</time></trkpt><trkpt lat="42.9643621" lon="12.076143"><ele>343.0</ele><time>2026-04-19T10:26:49.08Z</time></trkpt><trkpt lat="42.9644725" lon="12.0758704"><ele>342.0</ele><time>2026-04-19T10:26:50.05Z</time></trkpt><trkpt lat="42.9645843" lon="12.0755977"><ele>341.0</ele><time>2026-04-19T10:26:51.064Z</time></trkpt><trkpt lat="42.9646815" lon="12.0753385"><ele>340.0</ele><time>2026-04-19T10:26:52.078Z</time></trkpt><trkpt lat="42.9647746" lon="12.075103"><ele>340.5</ele><time>2026-04-19T10:26:53.084Z</time></trkpt><trkpt lat="42.9648753" lon="12.0749117"><ele>341.0</ele><time>2026-04-19T10:26:54.083Z</time></trkpt><trkpt lat="42.964957" lon="12.0747497"><ele>341.5</ele><time>2026-04-19T10:26:55.069Z</time></trkpt><trkpt lat="42.9650186" lon="12.0746223"><ele>342.0</ele><time>2026-04-19T10:26:56.064Z</time></trkpt><trkpt lat="42.965076" lon="12.074546"><ele>346.0</ele><time>2026-04-19T10:26:57.077Z</time></trkpt><trkpt lat="42.9652119" lon="12.0745778"><ele>350.0</ele><time>2026-04-19T10:26:59.059Z</time></trkpt><trkpt lat="42.9653203" lon="12.0746442"><ele>354.0</ele><time>2026-04-19T10:27:00.068Z</time></trkpt><trkpt lat="42.9654547" lon="12.0746917"><ele>358.0</ele><time>2026-04-19T10:27:01.061Z</time></trkpt><trkpt lat="42.9655962" lon="12.0748305"><ele>357.66666666666663</ele><time>2026-04-19T10:27:02.066Z</time></trkpt><trkpt lat="42.9656986" lon="12.0750321"><ele>357.3333333333333</ele><time>2026-04-19T10:27:03.059Z</time></trkpt><trkpt lat="42.9658243" lon="12.0752121"><ele>357.0</ele><time>2026-04-19T10:27:04.087Z</time></trkpt><trkpt lat="42.965955" lon="12.075357"><ele>358.0</ele><time>2026-04-19T10:27:05.064Z</time></trkpt><trkpt lat="42.9661172" lon="12.0754914"><ele>359.0</ele><time>2026-04-19T10:27:06.07Z</time></trkpt><trkpt lat="42.966286" lon="12.0754803"><ele>360.0</ele><time>2026-04-19T10:27:07.061Z</time></trkpt><trkpt lat="42.9664233" lon="12.0754355"><ele>360.0</ele><time>2026-04-19T10:27:08.064Z</time></trkpt><trkpt lat="42.9665247" lon="12.0753251"><ele>360.0</ele><time>2026-04-19T10:27:09.074Z</time></trkpt><trkpt lat="42.9665715" lon="12.0750902"><ele>360.0</ele><time>2026-04-19T10:27:10.082Z</time></trkpt><trkpt lat="42.9665539" lon="12.0748229"><ele>361.3333333333333</ele><time>2026-04-19T10:27:11.083Z</time></trkpt><trkpt lat="42.9665048" lon="12.0745627"><ele>362.66666666666663</ele><time>2026-04-19T10:27:12.085Z</time></trkpt><trkpt lat="42.9664736" lon="12.0743261"><ele>364.0</ele><time>2026-04-19T10:27:13.079Z</time></trkpt><trkpt lat="42.9664767" lon="12.0741001"><ele>366.66666666666663</ele><time>2026-04-19T10:27:14.071Z</time></trkpt><trkpt lat="42.9665024" lon="12.0738705"><ele>369.3333333333333</ele><time>2026-04-19T10:27:15.077Z</time></trkpt><trkpt lat="42.9665448" lon="12.0736594"><ele>372.0</ele><time>2026-04-19T10:27:16.078Z</time></trkpt><trkpt lat="42.9666315" lon="12.0734678"><ele>373.0</ele><time>2026-04-19T10:27:17.084Z</time></trkpt><trkpt lat="42.9667624" lon="12.0733441"><ele>374.0</ele><time>2026-04-19T10:27:18.096Z</time></trkpt><trkpt lat="42.9668955" lon="12.0732255"><ele>375.0</ele><time>2026-04-19T10:27:19.094Z</time></trkpt><trkpt lat="42.9669991" lon="12.073103"><ele>376.6</ele><time>2026-04-19T10:27:20.086Z</time></trkpt><trkpt lat="42.9670544" lon="12.0729685"><ele>378.2</ele><time>2026-04-19T10:27:21.086Z</time></trkpt><trkpt lat="42.967088" lon="12.0728548"><ele>379.79999999999995</ele><time>2026-04-19T10:27:22.099Z</time></trkpt><trkpt lat="42.9670897" lon="12.072731"><ele>381.4</ele><time>2026-04-19T10:27:23.102Z</time></trkpt><trkpt lat="42.9670362" lon="12.0726179"><ele>383.0</ele><time>2026-04-19T10:27:24.07Z</time></trkpt><trkpt lat="42.9669295" lon="12.072521"><ele>383.75</ele><time>2026-04-19T10:27:25.071Z</time></trkpt><trkpt lat="42.9668382" lon="12.0723888"><ele>384.5</ele><time>2026-04-19T10:27:26.075Z</time></trkpt><trkpt lat="42.9667566" lon="12.0722424"><ele>385.25</ele><time>2026-04-19T10:27:27.074Z</time></trkpt><trkpt lat="42.9667012" lon="12.0720652"><ele>386.0</ele><time>2026-04-19T10:27:28.084Z</time></trkpt><trkpt lat="42.9666775" lon="12.0718785"><ele>386.0</ele><time>2026-04-19T10:27:29.076Z</time></trkpt><trkpt lat="42.9667175" lon="12.071696"><ele>386.0</ele><time>2026-04-19T10:27:30.082Z</time></trkpt><trkpt lat="42.9668435" lon="12.0715246"><ele>386.0</ele><time>2026-04-19T10:27:31.1Z</time></trkpt><trkpt lat="42.9670128" lon="12.0713518"><ele>387.0</ele><time>2026-04-19T10:27:32.093Z</time></trkpt><trkpt lat="42.9671524" lon="12.0711193"><ele>388.0</ele><time>2026-04-19T10:27:33.065Z</time></trkpt><trkpt lat="42.9672678" lon="12.070829"><ele>388.5</ele><time>2026-04-19T10:27:34.078Z</time></trkpt><trkpt lat="42.9673763" lon="12.0705213"><ele>389.0</ele><time>2026-04-19T10:27:35.086Z</time></trkpt><trkpt lat="42.9674724" lon="12.0701577"><ele>390.0</ele><time>2026-04-19T10:27:36.085Z</time></trkpt><trkpt lat="42.9675462" lon="12.0697672"><ele>391.0</ele><time>2026-04-19T10:27:37.089Z</time></trkpt><trkpt lat="42.9676112" lon="12.0693879"><ele>391.5</ele><time>2026-04-19T10:27:38.075Z</time></trkpt><trkpt lat="42.9676892" lon="12.0689951"><ele>392.0</ele><time>2026-04-19T10:27:39.076Z</time></trkpt><trkpt lat="42.9677492" lon="12.0686042"><ele>393.0</ele><time>2026-04-19T10:27:40.066Z</time></trkpt><trkpt lat="42.9677698" lon="12.0682034"><ele>394.0</ele><time>2026-04-19T10:27:41.079Z</time></trkpt><trkpt lat="42.9677559" lon="12.0678234"><ele>398.5</ele><time>2026-04-19T10:27:42.078Z</time></trkpt><trkpt lat="42.967709" lon="12.0674334"><ele>403.0</ele><time>2026-04-19T10:27:43.082Z</time></trkpt><trkpt lat="42.9676053" lon="12.0670524"><ele>403.5</ele><time>2026-04-19T10:27:44.092Z</time></trkpt><trkpt lat="42.9674649" lon="12.066707"><ele>404.0</ele><time>2026-04-19T10:27:45.071Z</time></trkpt><trkpt lat="42.967299" lon="12.0663793"><ele>404.0</ele><time>2026-04-19T10:27:46.102Z</time></trkpt><trkpt lat="42.9671223" lon="12.066073"><ele>404.0</ele><time>2026-04-19T10:27:47.078Z</time></trkpt><trkpt lat="42.9669314" lon="12.0657834"><ele>405.5</ele><time>2026-04-19T10:27:48.07Z</time></trkpt><trkpt lat="42.9667481" lon="12.0655091"><ele>407.0</ele><time>2026-04-19T10:27:49.078Z</time></trkpt><trkpt lat="42.9665686" lon="12.0652229"><ele>407.5</ele><time>2026-04-19T10:27:50.077Z</time></trkpt><trkpt lat="42.9664046" lon="12.0649097"><ele>408.0</ele><time>2026-04-19T10:27:51.081Z</time></trkpt><trkpt lat="42.9662394" lon="12.0645662"><ele>408.0</ele><time>2026-04-19T10:27:52.07Z</time></trkpt><trkpt lat="42.9661143" lon="12.0641763"><ele>408.0</ele><time>2026-04-19T10:27:53.081Z</time></trkpt><trkpt lat="42.9660114" lon="12.0637909"><ele>406.5</ele><time>2026-04-19T10:27:54.074Z</time></trkpt><trkpt lat="42.9659081" lon="12.0634493"><ele>405.0</ele><time>2026-04-19T10:27:55.08Z</time></trkpt><trkpt lat="42.9657934" lon="12.0631399"><ele>408.0</ele><time>2026-04-19T10:27:56.075Z</time></trkpt><trkpt lat="42.9656488" lon="12.062873"><ele>411.0</ele><time>2026-04-19T10:27:57.075Z</time></trkpt><trkpt lat="42.9654823" lon="12.0626274"><ele>412.5</ele><time>2026-04-19T10:27:58.073Z</time></trkpt><trkpt lat="42.9652727" lon="12.0624314"><ele>414.0</ele><time>2026-04-19T10:27:59.077Z</time></trkpt><trkpt lat="42.965016" lon="12.0622918"><ele>414.0</ele><time>2026-04-19T10:28:00.078Z</time></trkpt><trkpt lat="42.9647238" lon="12.0621456"><ele>414.0</ele><time>2026-04-19T10:28:01.078Z</time></trkpt><trkpt lat="42.9644232" lon="12.0619798"><ele>417.5</ele><time>2026-04-19T10:28:02.066Z</time></trkpt><trkpt lat="42.9640994" lon="12.0618047"><ele>421.0</ele><time>2026-04-19T10:28:03.072Z</time></trkpt><trkpt lat="42.9637844" lon="12.0616258"><ele>422.5</ele><time>2026-04-19T10:28:04.08Z</time></trkpt><trkpt lat="42.9634768" lon="12.0614205"><ele>424.0</ele><time>2026-04-19T10:28:05.066Z</time></trkpt><trkpt lat="42.9631887" lon="12.0611774"><ele>424.0</ele><time>2026-04-19T10:28:06.072Z</time></trkpt><trkpt lat="42.9629126" lon="12.0609168"><ele>424.0</ele><time>2026-04-19T10:28:07.075Z</time></trkpt><trkpt lat="42.9626595" lon="12.0606317"><ele>426.0</ele><time>2026-04-19T10:28:08.073Z</time></trkpt><trkpt lat="42.9624327" lon="12.0603602"><ele>428.0</ele><time>2026-04-19T10:28:09.066Z</time></trkpt><trkpt lat="42.9622466" lon="12.0600854"><ele>427.5</ele><time>2026-04-19T10:28:10.071Z</time></trkpt><trkpt lat="42.9620682" lon="12.0598047"><ele>427.0</ele><time>2026-04-19T10:28:11.069Z</time></trkpt><trkpt lat="42.9619157" lon="12.0595377"><ele>427.0</ele><time>2026-04-19T10:28:12.069Z</time></trkpt><trkpt lat="42.9617883" lon="12.0592802"><ele>427.0</ele><time>2026-04-19T10:28:13.078Z</time></trkpt><trkpt lat="42.9616708" lon="12.0590127"><ele>428.0</ele><time>2026-04-19T10:28:14.066Z</time></trkpt><trkpt lat="42.9615518" lon="12.0586994"><ele>429.0</ele><time>2026-04-19T10:28:15.07Z</time></trkpt><trkpt lat="42.9615269" lon="12.0583515"><ele>429.0</ele><time>2026-04-19T10:28:16.073Z</time></trkpt><trkpt lat="42.9615961" lon="12.0579838"><ele>429.0</ele><time>2026-04-19T10:28:17.065Z</time></trkpt><trkpt lat="42.9616887" lon="12.0576017"><ele>429.5</ele><time>2026-04-19T10:28:18.067Z</time></trkpt><trkpt lat="42.961813" lon="12.0572079"><ele>430.0</ele><time>2026-04-19T10:28:19.069Z</time></trkpt><trkpt lat="42.9619238" lon="12.0568782"><ele>428.5</ele><time>2026-04-19T10:28:20.082Z</time></trkpt><trkpt lat="42.9620371" lon="12.0565281"><ele>427.0</ele><time>2026-04-19T10:28:21.072Z</time></trkpt><trkpt lat="42.9621169" lon="12.0561983"><ele>427.0</ele><time>2026-04-19T10:28:22.072Z</time></trkpt><trkpt lat="42.9621944" lon="12.0558617"><ele>427.0</ele><time>2026-04-19T10:28:23.071Z</time></trkpt><trkpt lat="42.962216" lon="12.0555141"><ele>426.5</ele><time>2026-04-19T10:28:24.067Z</time></trkpt><trkpt lat="42.96223" lon="12.0551741"><ele>426.0</ele><time>2026-04-19T10:28:25.067Z</time></trkpt><trkpt lat="42.9622349" lon="12.0548247"><ele>426.0</ele><time>2026-04-19T10:28:26.064Z</time></trkpt><trkpt lat="42.9622432" lon="12.0544787"><ele>426.0</ele><time>2026-04-19T10:28:27.068Z</time></trkpt><trkpt lat="42.9622013" lon="12.0541344"><ele>424.5</ele><time>2026-04-19T10:28:28.071Z</time></trkpt><trkpt lat="42.9621063" lon="12.0537934"><ele>423.0</ele><time>2026-04-19T10:28:29.067Z</time></trkpt><trkpt lat="42.9619412" lon="12.0534995"><ele>426.5</ele><time>2026-04-19T10:28:30.077Z</time></trkpt><trkpt lat="42.9617754" lon="12.0532234"><ele>430.0</ele><time>2026-04-19T10:28:31.07Z</time></trkpt><trkpt lat="42.9616299" lon="12.0529128"><ele>432.0</ele><time>2026-04-19T10:28:32.079Z</time></trkpt><trkpt lat="42.9615149" lon="12.0525691"><ele>434.0</ele><time>2026-04-19T10:28:33.086Z</time></trkpt><trkpt lat="42.961421" lon="12.0521874"><ele>436.5</ele><time>2026-04-19T10:28:34.071Z</time></trkpt><trkpt lat="42.9613957" lon="12.0517879"><ele>439.0</ele><time>2026-04-19T10:28:35.069Z</time></trkpt><trkpt lat="42.9613856" lon="12.0514043"><ele>439.0</ele><time>2026-04-19T10:28:36.076Z</time></trkpt><trkpt lat="42.9613867" lon="12.0510316"><ele>439.0</ele><time>2026-04-19T10:28:37.065Z</time></trkpt><trkpt lat="42.9613583" lon="12.0507274"><ele>438.6666666666667</ele><time>2026-04-19T10:28:38.077Z</time></trkpt><trkpt lat="42.9612952" lon="12.0504528"><ele>438.33333333333337</ele><time>2026-04-19T10:28:39.071Z</time></trkpt><trkpt lat="42.9612385" lon="12.0501817"><ele>438.0</ele><time>2026-04-19T10:28:40.075Z</time></trkpt><trkpt lat="42.9612056" lon="12.0499349"><ele>439.33333333333337</ele><time>2026-04-19T10:28:41.071Z</time></trkpt><trkpt lat="42.9612067" lon="12.0496933"><ele>440.6666666666667</ele><time>2026-04-19T10:28:42.065Z</time></trkpt><trkpt lat="42.961318" lon="12.0494337"><ele>442.0</ele><time>2026-04-19T10:28:43.066Z</time></trkpt><trkpt lat="42.9614518" lon="12.0491422"><ele>442.0</ele><time>2026-04-19T10:28:44.079Z</time></trkpt><trkpt lat="42.9615543" lon="12.0488207"><ele>442.0</ele><time>2026-04-19T10:28:45.082Z</time></trkpt><trkpt lat="42.9616704" lon="12.0484594"><ele>440.0</ele><time>2026-04-19T10:28:46.079Z</time></trkpt><trkpt lat="42.9617953" lon="12.0481256"><ele>438.0</ele><time>2026-04-19T10:28:47.076Z</time></trkpt><trkpt lat="42.9619075" lon="12.0477814"><ele>440.5</ele><time>2026-04-19T10:28:48.076Z</time></trkpt><trkpt lat="42.9620019" lon="12.0474586"><ele>443.0</ele><time>2026-04-19T10:28:49.102Z</time></trkpt><trkpt lat="42.9620992" lon="12.0471545"><ele>443.0</ele><time>2026-04-19T10:28:50.084Z</time></trkpt><trkpt lat="42.962184" lon="12.0468706"><ele>443.0</ele><time>2026-04-19T10:28:51.078Z</time></trkpt><trkpt lat="42.9622491" lon="12.046592"><ele>443.0</ele><time>2026-04-19T10:28:52.067Z</time></trkpt><trkpt lat="42.9623002" lon="12.0463073"><ele>443.0</ele><time>2026-04-19T10:28:53.079Z</time></trkpt><trkpt lat="42.9622879" lon="12.0460062"><ele>443.0</ele><time>2026-04-19T10:28:54.073Z</time></trkpt><trkpt lat="42.9622182" lon="12.0456789"><ele>441.5</ele><time>2026-04-19T10:28:55.065Z</time></trkpt><trkpt lat="42.9621151" lon="12.0453541"><ele>440.0</ele><time>2026-04-19T10:28:56.071Z</time></trkpt><trkpt lat="42.9619991" lon="12.0450125"><ele>438.5</ele><time>2026-04-19T10:28:57.082Z</time></trkpt><trkpt lat="42.9618799" lon="12.0446897"><ele>437.0</ele><time>2026-04-19T10:28:58.08Z</time></trkpt><trkpt lat="42.9617512" lon="12.0443783"><ele>441.0</ele><time>2026-04-19T10:28:59.075Z</time></trkpt><trkpt lat="42.9616346" lon="12.0440927"><ele>445.0</ele><time>2026-04-19T10:29:00.098Z</time></trkpt><trkpt lat="42.9614457" lon="12.0439204"><ele>445.0</ele><time>2026-04-19T10:29:01.073Z</time></trkpt><trkpt lat="42.9612179" lon="12.0438261"><ele>445.0</ele><time>2026-04-19T10:29:02.073Z</time></trkpt><trkpt lat="42.9609728" lon="12.0437439"><ele>450.0</ele><time>2026-04-19T10:29:03.099Z</time></trkpt><trkpt lat="42.9607279" lon="12.0436991"><ele>455.0</ele><time>2026-04-19T10:29:04.08Z</time></trkpt><trkpt lat="42.9605042" lon="12.0435928"><ele>455.0</ele><time>2026-04-19T10:29:05.085Z</time></trkpt><trkpt lat="42.9602677" lon="12.0434712"><ele>455.0</ele><time>2026-04-19T10:29:06.065Z</time></trkpt><trkpt lat="42.9600826" lon="12.0432497"><ele>456.0</ele><time>2026-04-19T10:29:07.078Z</time></trkpt><trkpt lat="42.95989" lon="12.0430194"><ele>457.0</ele><time>2026-04-19T10:29:08.064Z</time></trkpt><trkpt lat="42.9596906" lon="12.042765"><ele>458.0</ele><time>2026-04-19T10:29:09.064Z</time></trkpt><trkpt lat="42.9595148" lon="12.0424515"><ele>459.0</ele><time>2026-04-19T10:29:10.069Z</time></trkpt><trkpt lat="42.9593301" lon="12.0420521"><ele>458.5</ele><time>2026-04-19T10:29:11.075Z</time></trkpt><trkpt lat="42.9592513" lon="12.0415149"><ele>458.0</ele><time>2026-04-19T10:29:12.069Z</time></trkpt><trkpt lat="42.9591752" lon="12.0409922"><ele>458.5</ele><time>2026-04-19T10:29:13.07Z</time></trkpt><trkpt lat="42.9590826" lon="12.0405452"><ele>459.0</ele><time>2026-04-19T10:29:14.074Z</time></trkpt><trkpt lat="42.9589977" lon="12.0401118"><ele>456.0</ele><time>2026-04-19T10:29:15.071Z</time></trkpt><trkpt lat="42.9589201" lon="12.0397582"><ele>453.0</ele><time>2026-04-19T10:29:16.079Z</time></trkpt><trkpt lat="42.9588065" lon="12.0393965"><ele>451.5</ele><time>2026-04-19T10:29:17.073Z</time></trkpt><trkpt lat="42.9586552" lon="12.0390984"><ele>450.0</ele><time>2026-04-19T10:29:18.079Z</time></trkpt><trkpt lat="42.9584991" lon="12.0388296"><ele>456.5</ele><time>2026-04-19T10:29:19.076Z</time></trkpt><trkpt lat="42.9583436" lon="12.038566"><ele>463.0</ele><time>2026-04-19T10:29:20.076Z</time></trkpt><trkpt lat="42.9582069" lon="12.0383024"><ele>463.5</ele><time>2026-04-19T10:29:21.081Z</time></trkpt><trkpt lat="42.9581167" lon="12.0379696"><ele>464.0</ele><time>2026-04-19T10:29:22.074Z</time></trkpt><trkpt lat="42.9580536" lon="12.0376085"><ele>464.0</ele><time>2026-04-19T10:29:23.087Z</time></trkpt><trkpt lat="42.9580229" lon="12.037247"><ele>464.0</ele><time>2026-04-19T10:29:24.075Z</time></trkpt><trkpt lat="42.9580045" lon="12.0369023"><ele>462.0</ele><time>2026-04-19T10:29:25.077Z</time></trkpt><trkpt lat="42.9579856" lon="12.036576"><ele>460.0</ele><time>2026-04-19T10:29:26.072Z</time></trkpt><trkpt lat="42.9579437" lon="12.0362788"><ele>460.0</ele><time>2026-04-19T10:29:27.076Z</time></trkpt><trkpt lat="42.9578551" lon="12.0360013"><ele>460.0</ele><time>2026-04-19T10:29:28.077Z</time></trkpt><trkpt lat="42.9576829" lon="12.0357716"><ele>462.5</ele><time>2026-04-19T10:29:29.077Z</time></trkpt><trkpt lat="42.9574755" lon="12.0355527"><ele>465.0</ele><time>2026-04-19T10:29:30.075Z</time></trkpt><trkpt lat="42.9572726" lon="12.0353082"><ele>465.0</ele><time>2026-04-19T10:29:31.079Z</time></trkpt><trkpt lat="42.9570702" lon="12.0350274"><ele>465.0</ele><time>2026-04-19T10:29:32.066Z</time></trkpt><trkpt lat="42.9568383" lon="12.0347245"><ele>466.0</ele><time>2026-04-19T10:29:33.074Z</time></trkpt><trkpt lat="42.9566053" lon="12.0343655"><ele>467.0</ele><time>2026-04-19T10:29:34.074Z</time></trkpt><trkpt lat="42.9564049" lon="12.0340051"><ele>467.0</ele><time>2026-04-19T10:29:35.073Z</time></trkpt><trkpt lat="42.956223" lon="12.0336504"><ele>467.0</ele><time>2026-04-19T10:29:36.07Z</time></trkpt><trkpt lat="42.9560468" lon="12.0332869"><ele>466.5</ele><time>2026-04-19T10:29:37.088Z</time></trkpt><trkpt lat="42.9558674" lon="12.032924"><ele>466.0</ele><time>2026-04-19T10:29:38.078Z</time></trkpt><trkpt lat="42.9556736" lon="12.0325652"><ele>467.5</ele><time>2026-04-19T10:29:39.074Z</time></trkpt><trkpt lat="42.9554689" lon="12.0321901"><ele>469.0</ele><time>2026-04-19T10:29:40.069Z</time></trkpt><trkpt lat="42.9552503" lon="12.0318037"><ele>473.0</ele><time>2026-04-19T10:29:41.07Z</time></trkpt><trkpt lat="42.9550429" lon="12.0314287"><ele>477.0</ele><time>2026-04-19T10:29:42.07Z</time></trkpt><trkpt lat="42.954834" lon="12.0310756"><ele>480.0</ele><time>2026-04-19T10:29:43.079Z</time></trkpt><trkpt lat="42.9546277" lon="12.0307343"><ele>483.0</ele><time>2026-04-19T10:29:44.081Z</time></trkpt><trkpt lat="42.9544283" lon="12.0304213"><ele>483.0</ele><time>2026-04-19T10:29:45.092Z</time></trkpt><trkpt lat="42.954243" lon="12.0301275"><ele>483.0</ele><time>2026-04-19T10:29:46.073Z</time></trkpt><trkpt lat="42.9540794" lon="12.0298771"><ele>481.66666666666663</ele><time>2026-04-19T10:29:47.082Z</time></trkpt><trkpt lat="42.9539014" lon="12.0296947"><ele>480.3333333333333</ele><time>2026-04-19T10:29:48.078Z</time></trkpt><trkpt lat="42.9537275" lon="12.029617"><ele>479.0</ele><time>2026-04-19T10:29:49.08Z</time></trkpt><trkpt lat="42.9535214" lon="12.0296282"><ele>479.5</ele><time>2026-04-19T10:29:50.071Z</time></trkpt><trkpt lat="42.9533035" lon="12.0297283"><ele>480.0</ele><time>2026-04-19T10:29:51.073Z</time></trkpt><trkpt lat="42.9530818" lon="12.029851"><ele>480.0</ele><time>2026-04-19T10:29:52.076Z</time></trkpt><trkpt lat="42.9528372" lon="12.0299578"><ele>480.0</ele><time>2026-04-19T10:29:53.076Z</time></trkpt><trkpt lat="42.9525617" lon="12.0300241"><ele>481.0</ele><time>2026-04-19T10:29:54.081Z</time></trkpt><trkpt lat="42.9522757" lon="12.0300606"><ele>482.0</ele><time>2026-04-19T10:29:55.065Z</time></trkpt><trkpt lat="42.9519821" lon="12.0300649"><ele>482.0</ele><time>2026-04-19T10:29:56.079Z</time></trkpt><trkpt lat="42.9517137" lon="12.0299866"><ele>482.0</ele><time>2026-04-19T10:29:57.069Z</time></trkpt><trkpt lat="42.9514715" lon="12.0298644"><ele>481.0</ele><time>2026-04-19T10:29:58.072Z</time></trkpt><trkpt lat="42.9512594" lon="12.0296797"><ele>480.0</ele><time>2026-04-19T10:29:59.066Z</time></trkpt><trkpt lat="42.9510999" lon="12.0294738"><ele>480.0</ele><time>2026-04-19T10:30:00.071Z</time></trkpt><trkpt lat="42.9509838" lon="12.0291991"><ele>480.0</ele><time>2026-04-19T10:30:01.069Z</time></trkpt><trkpt lat="42.9509038" lon="12.0289194"><ele>481.0</ele><time>2026-04-19T10:30:02.07Z</time></trkpt><trkpt lat="42.9509593" lon="12.0282626"><ele>481.0</ele><time>2026-04-19T10:30:04.065Z</time></trkpt><trkpt lat="42.9510296" lon="12.0279335"><ele>481.0</ele><time>2026-04-19T10:30:05.071Z</time></trkpt><trkpt lat="42.9510939" lon="12.0277023"><ele>481.0</ele><time>2026-04-19T10:30:06.079Z</time></trkpt><trkpt lat="42.9511408" lon="12.0273799"><ele>482.0</ele><time>2026-04-19T10:30:07.082Z</time></trkpt><trkpt lat="42.9511247" lon="12.0270146"><ele>483.0</ele><time>2026-04-19T10:30:08.073Z</time></trkpt><trkpt lat="42.951059" lon="12.0266558"><ele>486.0</ele><time>2026-04-19T10:30:09.093Z</time></trkpt><trkpt lat="42.9509608" lon="12.0263178"><ele>489.0</ele><time>2026-04-19T10:30:10.086Z</time></trkpt><trkpt lat="42.9508459" lon="12.0259858"><ele>487.33333333333337</ele><time>2026-04-19T10:30:11.082Z</time></trkpt><trkpt lat="42.950722" lon="12.0257338"><ele>485.6666666666667</ele><time>2026-04-19T10:30:12.07Z</time></trkpt><trkpt lat="42.9505922" lon="12.0255325"><ele>484.0</ele><time>2026-04-19T10:30:13.079Z</time></trkpt><trkpt lat="42.9504421" lon="12.025413"><ele>484.0</ele><time>2026-04-19T10:30:14.072Z</time></trkpt><trkpt lat="42.9503004" lon="12.0253241"><ele>484.0</ele><time>2026-04-19T10:30:15.068Z</time></trkpt><trkpt lat="42.9501834" lon="12.0252452"><ele>484.0</ele><time>2026-04-19T10:30:16.073Z</time></trkpt><trkpt lat="42.9500718" lon="12.0251948"><ele>484.0</ele><time>2026-04-19T10:30:17.076Z</time></trkpt><trkpt lat="42.9499561" lon="12.0251405"><ele>483.5</ele><time>2026-04-19T10:30:18.076Z</time></trkpt><trkpt lat="42.9498455" lon="12.025086"><ele>483.0</ele><time>2026-04-19T10:30:19.083Z</time></trkpt><trkpt lat="42.9497469" lon="12.0250382"><ele>482.5</ele><time>2026-04-19T10:30:20.084Z</time></trkpt><trkpt lat="42.9496386" lon="12.0249904"><ele>482.0</ele><time>2026-04-19T10:30:21.08Z</time></trkpt><trkpt lat="42.9495266" lon="12.0249177"><ele>482.0</ele><time>2026-04-19T10:30:22.078Z</time></trkpt><trkpt lat="42.9494266" lon="12.0248397"><ele>482.0</ele><time>2026-04-19T10:30:23.091Z</time></trkpt><trkpt lat="42.949345" lon="12.0247306"><ele>482.0</ele><time>2026-04-19T10:30:24.065Z</time></trkpt><trkpt lat="42.9492952" lon="12.0245392"><ele>482.0</ele><time>2026-04-19T10:30:25.071Z</time></trkpt><trkpt lat="42.9492797" lon="12.024237"><ele>483.0</ele><time>2026-04-19T10:30:26.074Z</time></trkpt><trkpt lat="42.9493242" lon="12.0238789"><ele>484.0</ele><time>2026-04-19T10:30:27.065Z</time></trkpt><trkpt lat="42.9493735" lon="12.0235204"><ele>488.0</ele><time>2026-04-19T10:30:28.074Z</time></trkpt><trkpt lat="42.9494069" lon="12.0231578"><ele>492.0</ele><time>2026-04-19T10:30:29.079Z</time></trkpt><trkpt lat="42.9493656" lon="12.0228118"><ele>490.0</ele><time>2026-04-19T10:30:30.064Z</time></trkpt><trkpt lat="42.9492694" lon="12.0224591"><ele>488.0</ele><time>2026-04-19T10:30:31.076Z</time></trkpt><trkpt lat="42.9491393" lon="12.0221478"><ele>492.5</ele><time>2026-04-19T10:30:32.074Z</time></trkpt><trkpt lat="42.9489482" lon="12.0218957"><ele>497.0</ele><time>2026-04-19T10:30:33.086Z</time></trkpt><trkpt lat="42.9487267" lon="12.0216906"><ele>494.5</ele><time>2026-04-19T10:30:34.068Z</time></trkpt><trkpt lat="42.9484951" lon="12.0215491"><ele>492.0</ele><time>2026-04-19T10:30:35.074Z</time></trkpt><trkpt lat="42.9482694" lon="12.021422"><ele>492.0</ele><time>2026-04-19T10:30:36.076Z</time></trkpt><trkpt lat="42.9480778" lon="12.0212835"><ele>492.0</ele><time>2026-04-19T10:30:37.078Z</time></trkpt><trkpt lat="42.9479009" lon="12.0210729"><ele>492.0</ele><time>2026-04-19T10:30:38.083Z</time></trkpt><trkpt lat="42.9477284" lon="12.0208219"><ele>492.0</ele><time>2026-04-19T10:30:39.081Z</time></trkpt><trkpt lat="42.9475994" lon="12.0204628"><ele>494.5</ele><time>2026-04-19T10:30:40.074Z</time></trkpt><trkpt lat="42.9474971" lon="12.0200779"><ele>497.0</ele><time>2026-04-19T10:30:41.071Z</time></trkpt><trkpt lat="42.9474129" lon="12.0196756"><ele>497.0</ele><time>2026-04-19T10:30:42.07Z</time></trkpt><trkpt lat="42.9473551" lon="12.0192553"><ele>497.0</ele><time>2026-04-19T10:30:43.083Z</time></trkpt><trkpt lat="42.9473247" lon="12.0188143"><ele>497.0</ele><time>2026-04-19T10:30:44.076Z</time></trkpt><trkpt lat="42.9472655" lon="12.0184012"><ele>497.0</ele><time>2026-04-19T10:30:45.083Z</time></trkpt><trkpt lat="42.9471755" lon="12.018013"><ele>497.0</ele><time>2026-04-19T10:30:46.081Z</time></trkpt><trkpt lat="42.9470768" lon="12.0176678"><ele>497.0</ele><time>2026-04-19T10:30:47.074Z</time></trkpt><trkpt lat="42.9469638" lon="12.017346"><ele>496.5</ele><time>2026-04-19T10:30:48.072Z</time></trkpt><trkpt lat="42.9468598" lon="12.0170449"><ele>496.0</ele><time>2026-04-19T10:30:49.077Z</time></trkpt><trkpt lat="42.9467405" lon="12.0167898"><ele>498.0</ele><time>2026-04-19T10:30:50.077Z</time></trkpt><trkpt lat="42.9465656" lon="12.0165976"><ele>500.0</ele><time>2026-04-19T10:30:51.079Z</time></trkpt><trkpt lat="42.9463424" lon="12.0165188"><ele>500.0</ele><time>2026-04-19T10:30:52.079Z</time></trkpt><trkpt lat="42.9460939" lon="12.0165107"><ele>500.0</ele><time>2026-04-19T10:30:53.082Z</time></trkpt><trkpt lat="42.9458391" lon="12.0165398"><ele>501.0</ele><time>2026-04-19T10:30:54.067Z</time></trkpt><trkpt lat="42.9455714" lon="12.0166196"><ele>502.0</ele><time>2026-04-19T10:30:55.073Z</time></trkpt><trkpt lat="42.9453128" lon="12.0167196"><ele>501.5</ele><time>2026-04-19T10:30:56.064Z</time></trkpt><trkpt lat="42.9450517" lon="12.016894"><ele>501.0</ele><time>2026-04-19T10:30:57.081Z</time></trkpt><trkpt lat="42.9448039" lon="12.017135"><ele>501.0</ele><time>2026-04-19T10:30:58.074Z</time></trkpt><trkpt lat="42.9445714" lon="12.017362"><ele>501.0</ele><time>2026-04-19T10:30:59.096Z</time></trkpt><trkpt lat="42.9443642" lon="12.0175443"><ele>504.0</ele><time>2026-04-19T10:31:00.073Z</time></trkpt><trkpt lat="42.9441575" lon="12.0177027"><ele>507.0</ele><time>2026-04-19T10:31:01.088Z</time></trkpt><trkpt lat="42.9439557" lon="12.0178086"><ele>507.0</ele><time>2026-04-19T10:31:02.083Z</time></trkpt><trkpt lat="42.9437586" lon="12.0178799"><ele>507.0</ele><time>2026-04-19T10:31:03.076Z</time></trkpt><trkpt lat="42.943546" lon="12.0179215"><ele>507.0</ele><time>2026-04-19T10:31:04.073Z</time></trkpt><trkpt lat="42.9433159" lon="12.0179351"><ele>510.5</ele><time>2026-04-19T10:31:05.067Z</time></trkpt><trkpt lat="42.9430723" lon="12.0179402"><ele>514.0</ele><time>2026-04-19T10:31:06.077Z</time></trkpt><trkpt lat="42.9428407" lon="12.0179292"><ele>514.0</ele><time>2026-04-19T10:31:07.069Z</time></trkpt><trkpt lat="42.9426278" lon="12.017922"><ele>514.0</ele><time>2026-04-19T10:31:08.068Z</time></trkpt><trkpt lat="42.9424003" lon="12.017907"><ele>514.0</ele><time>2026-04-19T10:31:09.059Z</time></trkpt><trkpt lat="42.9422357" lon="12.0178165"><ele>514.6666666666667</ele><time>2026-04-19T10:31:10.06Z</time></trkpt><trkpt lat="42.9421002" lon="12.0177113"><ele>515.3333333333334</ele><time>2026-04-19T10:31:11.068Z</time></trkpt><trkpt lat="42.942013" lon="12.0175615"><ele>516.0</ele><time>2026-04-19T10:31:12.094Z</time></trkpt><trkpt lat="42.9420485" lon="12.01723"><ele>516.0</ele><time>2026-04-19T10:31:13.08Z</time></trkpt><trkpt lat="42.9420301" lon="12.0168066"><ele>516.0</ele><time>2026-04-19T10:31:14.069Z</time></trkpt><trkpt lat="42.9420411" lon="12.0164"><ele>514.5</ele><time>2026-04-19T10:31:15.071Z</time></trkpt><trkpt lat="42.9420515" lon="12.0159845"><ele>513.0</ele><time>2026-04-19T10:31:16.079Z</time></trkpt><trkpt lat="42.9420538" lon="12.0156287"><ele>513.5</ele><time>2026-04-19T10:31:17.063Z</time></trkpt><trkpt lat="42.9421726" lon="12.0151501"><ele>514.0</ele><time>2026-04-19T10:31:18.078Z</time></trkpt><trkpt lat="42.9422473" lon="12.0146814"><ele>514.0</ele><time>2026-04-19T10:31:19.065Z</time></trkpt><trkpt lat="42.9423079" lon="12.0142995"><ele>514.0</ele><time>2026-04-19T10:31:20.084Z</time></trkpt><trkpt lat="42.9424286" lon="12.0138591"><ele>511.0</ele><time>2026-04-19T10:31:21.076Z</time></trkpt><trkpt lat="42.9425545" lon="12.0133562"><ele>508.0</ele><time>2026-04-19T10:31:22.088Z</time></trkpt><trkpt lat="42.9426508" lon="12.0129894"><ele>507.5</ele><time>2026-04-19T10:31:23.077Z</time></trkpt><trkpt lat="42.9427781" lon="12.0126246"><ele>507.0</ele><time>2026-04-19T10:31:24.074Z</time></trkpt><trkpt lat="42.9429278" lon="12.0122824"><ele>501.0</ele><time>2026-04-19T10:31:25.072Z</time></trkpt><trkpt lat="42.9430876" lon="12.0119255"><ele>495.0</ele><time>2026-04-19T10:31:26.068Z</time></trkpt><trkpt lat="42.943254" lon="12.0115763"><ele>493.0</ele><time>2026-04-19T10:31:27.074Z</time></trkpt><trkpt lat="42.9434306" lon="12.0112407"><ele>491.0</ele><time>2026-04-19T10:31:28.073Z</time></trkpt><trkpt lat="42.9436101" lon="12.010939"><ele>487.0</ele><time>2026-04-19T10:31:29.074Z</time></trkpt><trkpt lat="42.9438086" lon="12.0106819"><ele>483.0</ele><time>2026-04-19T10:31:30.063Z</time></trkpt><trkpt lat="42.9440374" lon="12.0104563"><ele>487.0</ele><time>2026-04-19T10:31:31.061Z</time></trkpt><trkpt lat="42.9442713" lon="12.0102586"><ele>491.0</ele><time>2026-04-19T10:31:32.07Z</time></trkpt><trkpt lat="42.9444984" lon="12.0100452"><ele>486.5</ele><time>2026-04-19T10:31:33.082Z</time></trkpt><trkpt lat="42.9447126" lon="12.0098004"><ele>482.0</ele><time>2026-04-19T10:31:34.081Z</time></trkpt><trkpt lat="42.9449145" lon="12.0095513"><ele>489.5</ele><time>2026-04-19T10:31:35.063Z</time></trkpt><trkpt lat="42.9451126" lon="12.0093119"><ele>497.0</ele><time>2026-04-19T10:31:36.074Z</time></trkpt><trkpt lat="42.9453087" lon="12.0090726"><ele>497.0</ele><time>2026-04-19T10:31:37.067Z</time></trkpt><trkpt lat="42.9454933" lon="12.0088156"><ele>497.0</ele><time>2026-04-19T10:31:38.076Z</time></trkpt><trkpt lat="42.9456034" lon="12.0085143"><ele>493.0</ele><time>2026-04-19T10:31:39.093Z</time></trkpt><trkpt lat="42.9457081" lon="12.008215"><ele>489.0</ele><time>2026-04-19T10:31:40.069Z</time></trkpt><trkpt lat="42.9458041" lon="12.0079551"><ele>488.0</ele><time>2026-04-19T10:31:41.07Z</time></trkpt><trkpt lat="42.9459049" lon="12.0077227"><ele>487.0</ele><time>2026-04-19T10:31:42.067Z</time></trkpt><trkpt lat="42.9460022" lon="12.0075556"><ele>486.0</ele><time>2026-04-19T10:31:43.072Z</time></trkpt><trkpt lat="42.946128" lon="12.0074088"><ele>484.5</ele><time>2026-04-19T10:31:44.071Z</time></trkpt><trkpt lat="42.9462869" lon="12.007366"><ele>483.0</ele><time>2026-04-19T10:31:45.082Z</time></trkpt><trkpt lat="42.946642" lon="12.0073679"><ele>489.0</ele><time>2026-04-19T10:31:47.076Z</time></trkpt><trkpt lat="42.9468315" lon="12.0073061"><ele>495.0</ele><time>2026-04-19T10:31:48.073Z</time></trkpt><trkpt lat="42.946982" lon="12.0071703"><ele>501.0</ele><time>2026-04-19T10:31:49.075Z</time></trkpt><trkpt lat="42.9470806" lon="12.0069604"><ele>501.0</ele><time>2026-04-19T10:31:50.068Z</time></trkpt><trkpt lat="42.9471309" lon="12.0067307"><ele>501.0</ele><time>2026-04-19T10:31:51.068Z</time></trkpt><trkpt lat="42.9471423" lon="12.0065011"><ele>501.0</ele><time>2026-04-19T10:31:52.076Z</time></trkpt><trkpt lat="42.947144" lon="12.0062651"><ele>498.75</ele><time>2026-04-19T10:31:53.073Z</time></trkpt><trkpt lat="42.9471504" lon="12.0060576"><ele>496.5</ele><time>2026-04-19T10:31:54.065Z</time></trkpt><trkpt lat="42.9471729" lon="12.0058528"><ele>494.25</ele><time>2026-04-19T10:31:55.08Z</time></trkpt><trkpt lat="42.9471966" lon="12.0056577"><ele>492.0</ele><time>2026-04-19T10:31:56.082Z</time></trkpt><trkpt lat="42.9472339" lon="12.005499"><ele>487.8</ele><time>2026-04-19T10:31:57.068Z</time></trkpt><trkpt lat="42.9472634" lon="12.0053836"><ele>483.6</ele><time>2026-04-19T10:31:58.067Z</time></trkpt><trkpt lat="42.9472838" lon="12.0052599"><ele>479.40000000000003</ele><time>2026-04-19T10:31:59.068Z</time></trkpt><trkpt lat="42.9473181" lon="12.0051513"><ele>475.20000000000005</ele><time>2026-04-19T10:32:00.072Z</time></trkpt><trkpt lat="42.9473625" lon="12.0050449"><ele>471.0</ele><time>2026-04-19T10:32:01.061Z</time></trkpt><trkpt lat="42.9474327" lon="12.0049067"><ele>468.33333333333337</ele><time>2026-04-19T10:32:02.064Z</time></trkpt><trkpt lat="42.9475891" lon="12.0048074"><ele>465.6666666666667</ele><time>2026-04-19T10:32:03.056Z</time></trkpt><trkpt lat="42.9477835" lon="12.0047542"><ele>463.0</ele><time>2026-04-19T10:32:04.063Z</time></trkpt><trkpt lat="42.9479939" lon="12.004677"><ele>463.0</ele><time>2026-04-19T10:32:05.06Z</time></trkpt><trkpt lat="42.948258" lon="12.0045441"><ele>463.0</ele><time>2026-04-19T10:32:06.059Z</time></trkpt><trkpt lat="42.9485164" lon="12.0044336"><ele>469.5</ele><time>2026-04-19T10:32:07.062Z</time></trkpt><trkpt lat="42.9487571" lon="12.0043443"><ele>476.0</ele><time>2026-04-19T10:32:08.065Z</time></trkpt><trkpt lat="42.9490151" lon="12.004263"><ele>475.5</ele><time>2026-04-19T10:32:09.086Z</time></trkpt><trkpt lat="42.9492613" lon="12.0042261"><ele>475.0</ele><time>2026-04-19T10:32:10.083Z</time></trkpt><trkpt lat="42.9494892" lon="12.0041621"><ele>475.0</ele><time>2026-04-19T10:32:11.07Z</time></trkpt><trkpt lat="42.9499087" lon="12.0041419"><ele>475.0</ele><time>2026-04-19T10:32:13.061Z</time></trkpt><trkpt lat="42.9500911" lon="12.0040988"><ele>476.6666666666667</ele><time>2026-04-19T10:32:14.077Z</time></trkpt><trkpt lat="42.9502408" lon="12.0040616"><ele>478.33333333333337</ele><time>2026-04-19T10:32:15.068Z</time></trkpt><trkpt lat="42.9504019" lon="12.0040379"><ele>480.0</ele><time>2026-04-19T10:32:16.074Z</time></trkpt><trkpt lat="42.9505613" lon="12.0040406"><ele>480.0</ele><time>2026-04-19T10:32:17.075Z</time></trkpt><trkpt lat="42.9507116" lon="12.0040637"><ele>480.0</ele><time>2026-04-19T10:32:18.074Z</time></trkpt><trkpt lat="42.9508582" lon="12.0041197"><ele>480.0</ele><time>2026-04-19T10:32:19.063Z</time></trkpt><trkpt lat="42.9510064" lon="12.0042002"><ele>487.0</ele><time>2026-04-19T10:32:20.067Z</time></trkpt><trkpt lat="42.9511756" lon="12.0042984"><ele>494.0</ele><time>2026-04-19T10:32:21.064Z</time></trkpt><trkpt lat="42.9513166" lon="12.0043952"><ele>501.0</ele><time>2026-04-19T10:32:22.078Z</time></trkpt><trkpt lat="42.9514334" lon="12.0044762"><ele>501.0</ele><time>2026-04-19T10:32:23.058Z</time></trkpt><trkpt lat="42.9515539" lon="12.0045561"><ele>501.0</ele><time>2026-04-19T10:32:24.073Z</time></trkpt><trkpt lat="42.9516699" lon="12.004632"><ele>501.0</ele><time>2026-04-19T10:32:25.066Z</time></trkpt><trkpt lat="42.9517705" lon="12.0047023"><ele>501.0</ele><time>2026-04-19T10:32:26.086Z</time></trkpt><trkpt lat="42.9518716" lon="12.004771"><ele>503.0</ele><time>2026-04-19T10:32:27.073Z</time></trkpt><trkpt lat="42.9519599" lon="12.0048334"><ele>505.0</ele><time>2026-04-19T10:32:28.057Z</time></trkpt><trkpt lat="42.9520396" lon="12.0048998"><ele>507.0</ele><time>2026-04-19T10:32:29.071Z</time></trkpt><trkpt lat="42.9521106" lon="12.0049845"><ele>509.0</ele><time>2026-04-19T10:32:30.068Z</time></trkpt><trkpt lat="42.9521122" lon="12.0051191"><ele>511.0</ele><time>2026-04-19T10:32:31.074Z</time></trkpt><trkpt lat="42.9521293" lon="12.0052619"><ele>511.0</ele><time>2026-04-19T10:32:32.082Z</time></trkpt><trkpt lat="42.9522015" lon="12.0054183"><ele>511.0</ele><time>2026-04-19T10:32:33.082Z</time></trkpt><trkpt lat="42.9522836" lon="12.0055429"><ele>511.0</ele><time>2026-04-19T10:32:34.082Z</time></trkpt><trkpt lat="42.9523682" lon="12.0056549"><ele>511.0</ele><time>2026-04-19T10:32:35.103Z</time></trkpt><trkpt lat="42.9524576" lon="12.0057457"><ele>511.5</ele><time>2026-04-19T10:32:36.089Z</time></trkpt><trkpt lat="42.9525539" lon="12.0058235"><ele>512.0</ele><time>2026-04-19T10:32:37.081Z</time></trkpt><trkpt lat="42.9526544" lon="12.0059012"><ele>512.5</ele><time>2026-04-19T10:32:38.092Z</time></trkpt><trkpt lat="42.9527609" lon="12.0059761"><ele>513.0</ele><time>2026-04-19T10:32:39.105Z</time></trkpt><trkpt lat="42.9528706" lon="12.0060337"><ele>511.5</ele><time>2026-04-19T10:32:40.091Z</time></trkpt><trkpt lat="42.9529832" lon="12.0060933"><ele>510.0</ele><time>2026-04-19T10:32:41.072Z</time></trkpt><trkpt lat="42.9531017" lon="12.0061575"><ele>508.5</ele><time>2026-04-19T10:32:42.082Z</time></trkpt><trkpt lat="42.9532113" lon="12.0061931"><ele>507.0</ele><time>2026-04-19T10:32:43.079Z</time></trkpt><trkpt lat="42.953304" lon="12.0061834"><ele>506.6</ele><time>2026-04-19T10:32:44.066Z</time></trkpt><trkpt lat="42.953379" lon="12.0061408"><ele>506.20000000000005</ele><time>2026-04-19T10:32:45.101Z</time></trkpt><trkpt lat="42.9534503" lon="12.0060317"><ele>505.8</ele><time>2026-04-19T10:32:46.074Z</time></trkpt><trkpt lat="42.9535153" lon="12.005909"><ele>505.4</ele><time>2026-04-19T10:32:47.061Z</time></trkpt><trkpt lat="42.9535629" lon="12.0057942"><ele>505.0</ele><time>2026-04-19T10:32:48.079Z</time></trkpt><trkpt lat="42.9535989" lon="12.0056971"><ele>504.6</ele><time>2026-04-19T10:32:49.083Z</time></trkpt><trkpt lat="42.9536391" lon="12.0056122"><ele>504.2</ele><time>2026-04-19T10:32:50.079Z</time></trkpt><trkpt lat="42.9537009" lon="12.005498"><ele>503.79999999999995</ele><time>2026-04-19T10:32:52.078Z</time></trkpt><trkpt lat="42.9537561" lon="12.0054353"><ele>503.4</ele><time>2026-04-19T10:32:54.06Z</time></trkpt><trkpt lat="42.9537717" lon="12.0051767"><ele>503.0</ele><time>2026-04-19T10:33:03.069Z</time></trkpt><trkpt lat="42.9537776" lon="12.0050385"><ele>503.16666666666663</ele><time>2026-04-19T10:33:05.057Z</time></trkpt><trkpt lat="42.9537702" lon="12.0048878"><ele>503.3333333333333</ele><time>2026-04-19T10:33:07.058Z</time></trkpt><trkpt lat="42.9537652" lon="12.0048008"><ele>503.5</ele><time>2026-04-19T10:33:08.065Z</time></trkpt><trkpt lat="42.953794" lon="12.0046517"><ele>503.66666666666663</ele><time>2026-04-19T10:33:10.06Z</time></trkpt><trkpt lat="42.9538427" lon="12.0045573"><ele>503.8333333333333</ele><time>2026-04-19T10:33:12.066Z</time></trkpt><trkpt lat="42.9539017" lon="12.0045194"><ele>504.0</ele><time>2026-04-19T10:33:14.061Z</time></trkpt><trkpt lat="42.9539731" lon="12.0045137"><ele>504.0</ele><time>2026-04-19T10:33:15.06Z</time></trkpt><trkpt lat="42.9540508" lon="12.0045454"><ele>504.0</ele><time>2026-04-19T10:33:16.077Z</time></trkpt><trkpt lat="42.9541507" lon="12.0045732"><ele>504.0</ele><time>2026-04-19T10:33:17.061Z</time></trkpt><trkpt lat="42.9542505" lon="12.004592"><ele>504.0</ele><time>2026-04-19T10:33:18.077Z</time></trkpt><trkpt lat="42.9543584" lon="12.0046105"><ele>504.0</ele><time>2026-04-19T10:33:19.063Z</time></trkpt><trkpt lat="42.9544645" lon="12.0046183"><ele>503.0</ele><time>2026-04-19T10:33:20.062Z</time></trkpt><trkpt lat="42.9545838" lon="12.0046226"><ele>502.0</ele><time>2026-04-19T10:33:21.069Z</time></trkpt><trkpt lat="42.9546911" lon="12.0046175"><ele>501.0</ele><time>2026-04-19T10:33:22.075Z</time></trkpt><trkpt lat="42.954796" lon="12.0046087"><ele>500.0</ele><time>2026-04-19T10:33:23.111Z</time></trkpt><trkpt lat="42.9548987" lon="12.0046029"><ele>499.0</ele><time>2026-04-19T10:33:24.077Z</time></trkpt><trkpt lat="42.9549828" lon="12.0045945"><ele>498.1666666666667</ele><time>2026-04-19T10:33:25.071Z</time></trkpt><trkpt lat="42.9550537" lon="12.0045959"><ele>497.33333333333337</ele><time>2026-04-19T10:33:26.066Z</time></trkpt><trkpt lat="42.9551358" lon="12.0045837"><ele>496.5</ele><time>2026-04-19T10:33:27.084Z</time></trkpt><trkpt lat="42.9552127" lon="12.0045589"><ele>495.66666666666663</ele><time>2026-04-19T10:33:28.071Z</time></trkpt><trkpt lat="42.9552866" lon="12.0045414"><ele>494.8333333333333</ele><time>2026-04-19T10:33:29.064Z</time></trkpt><trkpt lat="42.9553624" lon="12.0045096"><ele>494.0</ele><time>2026-04-19T10:33:30.092Z</time></trkpt><trkpt lat="42.9554327" lon="12.0044557"><ele>493.99999999999994</ele><time>2026-04-19T10:33:31.086Z</time></trkpt><trkpt lat="42.9554861" lon="12.0043707"><ele>494.0</ele><time>2026-04-19T10:33:32.086Z</time></trkpt><trkpt lat="42.9555449" lon="12.0042668"><ele>494.0</ele><time>2026-04-19T10:33:33.058Z</time></trkpt><trkpt lat="42.9555872" lon="12.0041597"><ele>494.0</ele><time>2026-04-19T10:33:34.064Z</time></trkpt><trkpt lat="42.9556335" lon="12.0040689"><ele>493.99999999999994</ele><time>2026-04-19T10:33:35.074Z</time></trkpt><trkpt lat="42.9556625" lon="12.003984"><ele>494.0</ele><time>2026-04-19T10:33:36.076Z</time></trkpt><trkpt lat="42.9556897" lon="12.003899"><ele>494.49999999999994</ele><time>2026-04-19T10:33:37.094Z</time></trkpt><trkpt lat="42.9557174" lon="12.003817"><ele>495.0</ele><time>2026-04-19T10:33:38.076Z</time></trkpt><trkpt lat="42.9557439" lon="12.0037387"><ele>495.5</ele><time>2026-04-19T10:33:39.079Z</time></trkpt><trkpt lat="42.9557978" lon="12.0036122"><ele>496.0</ele><time>2026-04-19T10:33:41.061Z</time></trkpt><trkpt lat="42.955856" lon="12.0035105"><ele>496.49999999999994</ele><time>2026-04-19T10:33:43.081Z</time></trkpt><trkpt lat="42.9558876" lon="12.0034053"><ele>497.0</ele><time>2026-04-19T10:33:45.072Z</time></trkpt><trkpt lat="42.9558644" lon="12.0033117"><ele>497.0</ele><time>2026-04-19T10:33:47.068Z</time></trkpt><trkpt lat="42.9557706" lon="12.0032969"><ele>497.00000000000006</ele><time>2026-04-19T10:33:49.066Z</time></trkpt><trkpt lat="42.9556506" lon="12.0033342"><ele>497.00000000000006</ele><time>2026-04-19T10:33:51.06Z</time></trkpt><trkpt lat="42.9555421" lon="12.0033769"><ele>497.0</ele><time>2026-04-19T10:33:53.07Z</time></trkpt><trkpt lat="42.9554727" lon="12.003406"><ele>497.0</ele><time>2026-04-19T10:33:54.065Z</time></trkpt><trkpt lat="42.9553531" lon="12.0034504"><ele>496.99999999999994</ele><time>2026-04-19T10:33:56.066Z</time></trkpt><trkpt lat="42.9552802" lon="12.0034779"><ele>497.0</ele><time>2026-04-19T10:33:57.069Z</time></trkpt><trkpt lat="42.9551522" lon="12.0035209"><ele>497.0</ele><time>2026-04-19T10:33:59.078Z</time></trkpt><trkpt lat="42.9550804" lon="12.0035467"><ele>497.0</ele><time>2026-04-19T10:34:00.059Z</time></trkpt><trkpt lat="42.9550011" lon="12.003571"><ele>496.99999999999994</ele><time>2026-04-19T10:34:01.053Z</time></trkpt><trkpt lat="42.9549308" lon="12.0036078"><ele>497.0</ele><time>2026-04-19T10:34:02.056Z</time></trkpt><trkpt lat="42.9548557" lon="12.0036463"><ele>496.66666666666663</ele><time>2026-04-19T10:34:03.065Z</time></trkpt><trkpt lat="42.9547784" lon="12.0036966"><ele>496.3333333333333</ele><time>2026-04-19T10:34:04.059Z</time></trkpt><trkpt lat="42.9547051" lon="12.0037511"><ele>496.0</ele><time>2026-04-19T10:34:05.059Z</time></trkpt><trkpt lat="42.9546306" lon="12.0038022"><ele>495.66666666666663</ele><time>2026-04-19T10:34:06.068Z</time></trkpt><trkpt lat="42.9545547" lon="12.0038504"><ele>495.3333333333333</ele><time>2026-04-19T10:34:07.07Z</time></trkpt><trkpt lat="42.9544807" lon="12.0038957"><ele>495.0</ele><time>2026-04-19T10:34:08.079Z</time></trkpt><trkpt lat="42.9543969" lon="12.0039335"><ele>495.0</ele><time>2026-04-19T10:34:09.075Z</time></trkpt><trkpt lat="42.9543087" lon="12.0039634"><ele>495.0</ele><time>2026-04-19T10:34:10.067Z</time></trkpt><trkpt lat="42.954228" lon="12.0039817"><ele>495.0</ele><time>2026-04-19T10:34:11.047Z</time></trkpt><trkpt lat="42.9541507" lon="12.0039967"><ele>495.0</ele><time>2026-04-19T10:34:12.07Z</time></trkpt><trkpt lat="42.9540732" lon="12.0040113"><ele>495.0</ele><time>2026-04-19T10:34:13.078Z</time></trkpt><trkpt lat="42.9539768" lon="12.0040379"><ele>495.0</ele><time>2026-04-19T10:34:14.055Z</time></trkpt><trkpt lat="42.9538819" lon="12.0040614"><ele>495.0</ele><time>2026-04-19T10:34:15.069Z</time></trkpt><trkpt lat="42.9537957" lon="12.0040705"><ele>495.0</ele><time>2026-04-19T10:34:16.06Z</time></trkpt><trkpt lat="42.9536996" lon="12.0040879"><ele>495.0</ele><time>2026-04-19T10:34:17.063Z</time></trkpt><trkpt lat="42.9536085" lon="12.0041114"><ele>495.0</ele><time>2026-04-19T10:34:18.08Z</time></trkpt><trkpt lat="42.9535202" lon="12.0041287"><ele>495.0</ele><time>2026-04-19T10:34:19.056Z</time></trkpt><trkpt lat="42.9534274" lon="12.0041453"><ele>498.2</ele><time>2026-04-19T10:34:20.075Z</time></trkpt><trkpt lat="42.9533202" lon="12.0041714"><ele>501.4</ele><time>2026-04-19T10:34:21.068Z</time></trkpt><trkpt lat="42.9532288" lon="12.0041875"><ele>504.6</ele><time>2026-04-19T10:34:22.074Z</time></trkpt><trkpt lat="42.9531408" lon="12.0041987"><ele>507.8</ele><time>2026-04-19T10:34:23.057Z</time></trkpt><trkpt lat="42.9530552" lon="12.004207"><ele>511.0</ele><time>2026-04-19T10:34:24.052Z</time></trkpt><trkpt lat="42.9529498" lon="12.0042339"><ele>511.0</ele><time>2026-04-19T10:34:25.063Z</time></trkpt><trkpt lat="42.9528464" lon="12.0042623"><ele>511.0</ele><time>2026-04-19T10:34:26.073Z</time></trkpt><trkpt lat="42.9527495" lon="12.0042868"><ele>511.0</ele><time>2026-04-19T10:34:27.065Z</time></trkpt><trkpt lat="42.9524418" lon="12.0043315"><ele>511.0</ele><time>2026-04-19T10:34:31.031Z</time></trkpt><trkpt lat="42.9522168" lon="12.0043684"><ele>511.0</ele><time>2026-04-19T10:34:34.075Z</time></trkpt><trkpt lat="42.9521322" lon="12.0043704"><ele>511.0</ele><time>2026-04-19T10:34:36.074Z</time></trkpt><trkpt lat="42.9521057" lon="12.004234"><ele>511.0</ele><time>2026-04-19T10:34:38.081Z</time></trkpt><trkpt lat="42.9521542" lon="12.004141"><ele>511.00000000000006</ele><time>2026-04-19T10:34:39.079Z</time></trkpt><trkpt lat="42.952195" lon="12.0040411"><ele>511.0</ele><time>2026-04-19T10:34:40.087Z</time></trkpt><trkpt lat="42.9522456" lon="12.0039364"><ele>511.0</ele><time>2026-04-19T10:34:41.069Z</time></trkpt><trkpt lat="42.9522931" lon="12.0038586"><ele>511.0</ele><time>2026-04-19T10:34:42.07Z</time></trkpt><trkpt lat="42.9523249" lon="12.0037762"><ele>511.00000000000006</ele><time>2026-04-19T10:34:43.072Z</time></trkpt><trkpt lat="42.9523095" lon="12.0036378"><ele>511.0</ele><time>2026-04-19T10:34:45.081Z</time></trkpt><trkpt lat="42.9522581" lon="12.0035193"><ele>511.00000000000006</ele><time>2026-04-19T10:34:47.088Z</time></trkpt><trkpt lat="42.9521998" lon="12.0034269"><ele>511.0</ele><time>2026-04-19T10:34:49.062Z</time></trkpt><trkpt lat="42.9521563" lon="12.0033322"><ele>511.0</ele><time>2026-04-19T10:34:51.072Z</time></trkpt><trkpt lat="42.9521267" lon="12.003251"><ele>511.0</ele><time>2026-04-19T10:34:57.093Z</time></trkpt><trkpt lat="42.952136" lon="12.003159"><ele>511.00000000000006</ele><time>2026-04-19T10:35:00.081Z</time></trkpt><trkpt lat="42.9521595" lon="12.0030247"><ele>511.0</ele><time>2026-04-19T10:35:02.068Z</time></trkpt><trkpt lat="42.9523961" lon="12.0030142"><ele>508.20000000000005</ele><time>2026-04-19T10:35:12.068Z</time></trkpt><trkpt lat="42.9524606" lon="12.0029704"><ele>505.40000000000003</ele><time>2026-04-19T10:35:15.066Z</time></trkpt><trkpt lat="42.952562" lon="12.00298"><ele>502.6</ele><time>2026-04-19T10:35:19.075Z</time></trkpt><trkpt lat="42.9526849" lon="12.0030317"><ele>499.8</ele><time>2026-04-19T10:35:21.093Z</time></trkpt><trkpt lat="42.9527451" lon="12.0030639"><ele>497.0</ele><time>2026-04-19T10:35:22.078Z</time></trkpt><trkpt lat="42.9528234" lon="12.0031084"><ele>493.49999999999994</ele><time>2026-04-19T10:35:24.079Z</time></trkpt><trkpt lat="42.952918" lon="12.0031345"><ele>490.0</ele><time>2026-04-19T10:35:29.064Z</time></trkpt><trkpt lat="42.9530012" lon="12.0031314"><ele>486.5</ele><time>2026-04-19T10:35:31.065Z</time></trkpt><trkpt lat="42.9530759" lon="12.003132"><ele>483.0</ele><time>2026-04-19T10:35:32.069Z</time></trkpt><trkpt lat="42.9531532" lon="12.0031225"><ele>479.49999999999994</ele><time>2026-04-19T10:35:33.076Z</time></trkpt><trkpt lat="42.9532371" lon="12.0031202"><ele>476.0</ele><time>2026-04-19T10:35:34.079Z</time></trkpt><trkpt lat="42.9533419" lon="12.0031152"><ele>475.25</ele><time>2026-04-19T10:35:35.084Z</time></trkpt><trkpt lat="42.953453" lon="12.0031061"><ele>474.5</ele><time>2026-04-19T10:35:36.082Z</time></trkpt><trkpt lat="42.9535779" lon="12.0030971"><ele>473.75</ele><time>2026-04-19T10:35:37.076Z</time></trkpt><trkpt lat="42.953703" lon="12.0030913"><ele>473.0</ele><time>2026-04-19T10:35:38.08Z</time></trkpt><trkpt lat="42.9538176" lon="12.0030933"><ele>473.0</ele><time>2026-04-19T10:35:39.087Z</time></trkpt><trkpt lat="42.9539334" lon="12.0031119"><ele>472.99999999999994</ele><time>2026-04-19T10:35:40.075Z</time></trkpt><trkpt lat="42.9540439" lon="12.0031363"><ele>472.99999999999994</ele><time>2026-04-19T10:35:41.082Z</time></trkpt><trkpt lat="42.9541449" lon="12.0031667"><ele>473.0</ele><time>2026-04-19T10:35:42.082Z</time></trkpt><trkpt lat="42.9542363" lon="12.0031984"><ele>473.0</ele><time>2026-04-19T10:35:43.083Z</time></trkpt><trkpt lat="42.9543266" lon="12.0032442"><ele>474.59999999999997</ele><time>2026-04-19T10:35:44.078Z</time></trkpt><trkpt lat="42.9544208" lon="12.0032834"><ele>476.19999999999993</ele><time>2026-04-19T10:35:45.08Z</time></trkpt><trkpt lat="42.9545269" lon="12.0033004"><ele>477.8</ele><time>2026-04-19T10:35:46.075Z</time></trkpt><trkpt lat="42.9546433" lon="12.0032822"><ele>479.4</ele><time>2026-04-19T10:35:47.078Z</time></trkpt><trkpt lat="42.9547477" lon="12.0031919"><ele>481.0</ele><time>2026-04-19T10:35:48.07Z</time></trkpt><trkpt lat="42.9548309" lon="12.0030734"><ele>481.0</ele><time>2026-04-19T10:35:49.081Z</time></trkpt><trkpt lat="42.9549289" lon="12.00294"><ele>481.0</ele><time>2026-04-19T10:35:50.074Z</time></trkpt><trkpt lat="42.9550144" lon="12.0028127"><ele>481.0</ele><time>2026-04-19T10:35:51.069Z</time></trkpt><trkpt lat="42.955098" lon="12.0026884"><ele>481.0</ele><time>2026-04-19T10:35:52.07Z</time></trkpt><trkpt lat="42.9551942" lon="12.0025686"><ele>482.1666666666667</ele><time>2026-04-19T10:35:53.069Z</time></trkpt><trkpt lat="42.9552759" lon="12.0024646"><ele>483.33333333333337</ele><time>2026-04-19T10:35:54.067Z</time></trkpt><trkpt lat="42.955347" lon="12.0023823"><ele>484.5</ele><time>2026-04-19T10:35:55.071Z</time></trkpt><trkpt lat="42.9554009" lon="12.0023183"><ele>485.66666666666663</ele><time>2026-04-19T10:35:56.065Z</time></trkpt><trkpt lat="42.9554646" lon="12.0022332"><ele>486.8333333333333</ele><time>2026-04-19T10:35:58.089Z</time></trkpt><trkpt lat="42.9555068" lon="12.0021633"><ele>488.0</ele><time>2026-04-19T10:36:04.073Z</time></trkpt><trkpt lat="42.9555889" lon="12.0020803"><ele>488.0</ele><time>2026-04-19T10:36:10.069Z</time></trkpt><trkpt lat="42.9556429" lon="12.0020257"><ele>488.0</ele><time>2026-04-19T10:36:11.074Z</time></trkpt><trkpt lat="42.9556973" lon="12.00197"><ele>488.0</ele><time>2026-04-19T10:36:12.079Z</time></trkpt><trkpt lat="42.955753" lon="12.0019187"><ele>488.0</ele><time>2026-04-19T10:36:13.066Z</time></trkpt></trkseg></trk></gpx>